<?xml version='1.0' encoding='UTF-8'?><gpx version="1.1" creator="JPX - https://github.com/jenetics/jpx" xmlns="http://www.topografix.com/GPX/1/1"><trk><trkseg><trkpt lat="45.5068402122321" lon="8.207358799817381"><ele>209.00000000000003</ele><time>2026-04-26T13:58:01Z</time></trkpt><trkpt lat="45.50684526384389" lon="8.20745610816512"><ele>209.0</ele><time>2026-04-26T13:58:03Z</time></trkpt><trkpt lat="45.50688485785448" lon="8.207558923524951"><ele>209.0</ele><time>2026-04-26T13:58:06Z</time></trkpt><trkpt lat="45.50683045617072" lon="8.207651085832358"><ele>209.0</ele><time>2026-04-26T13:58:09Z</time></trkpt><trkpt lat="45.50675771726949" lon="8.207630189182549"><ele>209.00000000000003</ele><time>2026-04-26T13:58:11Z</time></trkpt><trkpt lat="45.50668014543247" lon="8.207653567157069"><ele>209.0</ele><time>2026-04-26T13:58:12Z</time></trkpt><trkpt lat="45.5065994941715" lon="8.207678484607948"><ele>209.0</ele><time>2026-04-26T13:58:13Z</time></trkpt><trkpt lat="45.506508916173395" lon="8.207699599972848"><ele>209.0</ele><time>2026-04-26T13:58:14Z</time></trkpt><trkpt lat="45.506400645871615" lon="8.207738945080736"><ele>209.0</ele><time>2026-04-26T13:58:15Z</time></trkpt><trkpt lat="45.50625483367183" lon="8.207789726282236"><ele>209.0</ele><time>2026-04-26T13:58:17Z</time></trkpt><trkpt lat="45.506115512734006" lon="8.207844094019563"><ele>209.2</ele><time>2026-04-26T13:58:19Z</time></trkpt><trkpt lat="45.50595713892034" lon="8.207912021318554"><ele>209.39999999999998</ele><time>2026-04-26T13:58:20Z</time></trkpt><trkpt lat="45.50586665722083" lon="8.2079267513208"><ele>209.6</ele><time>2026-04-26T13:58:21Z</time></trkpt><trkpt lat="45.50577962285358" lon="8.207965854764925"><ele>209.8</ele><time>2026-04-26T13:58:22Z</time></trkpt><trkpt lat="45.50569923617183" lon="8.208029088468557"><ele>210.0</ele><time>2026-04-26T13:58:23Z</time></trkpt><trkpt lat="45.50561662311369" lon="8.208064366736478"><ele>210.0</ele><time>2026-04-26T13:58:24Z</time></trkpt><trkpt lat="45.50553424244476" lon="8.208106186696636"><ele>210.0</ele><time>2026-04-26T13:58:25Z</time></trkpt><trkpt lat="45.50544466471639" lon="8.208155045526818"><ele>210.0</ele><time>2026-04-26T13:58:26Z</time></trkpt><trkpt lat="45.5053480857894" lon="8.208196671290317"><ele>210.0</ele><time>2026-04-26T13:58:27Z</time></trkpt><trkpt lat="45.50524792913141" lon="8.208225728802125"><ele>210.0</ele><time>2026-04-26T13:58:28Z</time></trkpt><trkpt lat="45.50515000084663" lon="8.208294887491856"><ele>209.75</ele><time>2026-04-26T13:58:29Z</time></trkpt><trkpt lat="45.505039309869865" lon="8.208357257267668"><ele>209.5</ele><time>2026-04-26T13:58:30Z</time></trkpt><trkpt lat="45.504923760286786" lon="8.208417071068224"><ele>209.25</ele><time>2026-04-26T13:58:31Z</time></trkpt><trkpt lat="45.5048068634895" lon="8.208475513660957"><ele>209.0</ele><time>2026-04-26T13:58:32Z</time></trkpt><trkpt lat="45.50468327799364" lon="8.208542119027577"><ele>209.5</ele><time>2026-04-26T13:58:33Z</time></trkpt><trkpt lat="45.50455836776937" lon="8.208606109055575"><ele>210.0</ele><time>2026-04-26T13:58:34Z</time></trkpt><trkpt lat="45.50444305947607" lon="8.20866572397533"><ele>210.5</ele><time>2026-04-26T13:58:35Z</time></trkpt><trkpt lat="45.504324410969275" lon="8.208704017442017"><ele>211.0</ele><time>2026-04-26T13:58:36Z</time></trkpt><trkpt lat="45.50420469619007" lon="8.208762588098669"><ele>211.0</ele><time>2026-04-26T13:58:37Z</time></trkpt><trkpt lat="45.50408645007381" lon="8.208844534439436"><ele>211.0</ele><time>2026-04-26T13:58:38Z</time></trkpt><trkpt lat="45.503963457402044" lon="8.208880872782037"><ele>211.0</ele><time>2026-04-26T13:58:39Z</time></trkpt><trkpt lat="45.50383696420506" lon="8.20894364531283"><ele>211.0</ele><time>2026-04-26T13:58:40Z</time></trkpt><trkpt lat="45.503706911339236" lon="8.209016170672957"><ele>211.25</ele><time>2026-04-26T13:58:41Z</time></trkpt><trkpt lat="45.503573505636" lon="8.209082020842903"><ele>211.5</ele><time>2026-04-26T13:58:42Z</time></trkpt><trkpt lat="45.503435021749695" lon="8.20915405373599"><ele>211.75</ele><time>2026-04-26T13:58:43Z</time></trkpt><trkpt lat="45.50329781346759" lon="8.209217963930886"><ele>212.0</ele><time>2026-04-26T13:58:44Z</time></trkpt><trkpt lat="45.50316517392552" lon="8.209283798900401"><ele>212.0</ele><time>2026-04-26T13:58:45Z</time></trkpt><trkpt lat="45.50303218753063" lon="8.209330205353876"><ele>212.0</ele><time>2026-04-26T13:58:46Z</time></trkpt><trkpt lat="45.502901961761864" lon="8.209399169231927"><ele>212.0</ele><time>2026-04-26T13:58:47Z</time></trkpt><trkpt lat="45.5027735078551" lon="8.209467714626918"><ele>212.0</ele><time>2026-04-26T13:58:48Z</time></trkpt><trkpt lat="45.502651400781545" lon="8.209527325237541"><ele>211.5</ele><time>2026-04-26T13:58:49Z</time></trkpt><trkpt lat="45.50253306730623" lon="8.209587474475446"><ele>211.0</ele><time>2026-04-26T13:58:50Z</time></trkpt><trkpt lat="45.50241738022533" lon="8.209647471573403"><ele>210.5</ele><time>2026-04-26T13:58:51Z</time></trkpt><trkpt lat="45.502303833194695" lon="8.209706861827883"><ele>210.0</ele><time>2026-04-26T13:58:52Z</time></trkpt><trkpt lat="45.50219765016366" lon="8.209758883210789"><ele>210.0</ele><time>2026-04-26T13:58:53Z</time></trkpt><trkpt lat="45.502092678644736" lon="8.209808605589547"><ele>210.0</ele><time>2026-04-26T13:58:54Z</time></trkpt><trkpt lat="45.50199877975788" lon="8.209853306538948"><ele>210.0</ele><time>2026-04-26T13:58:55Z</time></trkpt><trkpt lat="45.50191406794423" lon="8.209895332225571"><ele>210.0</ele><time>2026-04-26T13:58:56Z</time></trkpt><trkpt lat="45.50182596116244" lon="8.209941814180311"><ele>210.0</ele><time>2026-04-26T13:58:57Z</time></trkpt><trkpt lat="45.50172891382689" lon="8.209989722889416"><ele>210.0</ele><time>2026-04-26T13:58:58Z</time></trkpt><trkpt lat="45.50162470684129" lon="8.210042839107237"><ele>210.0</ele><time>2026-04-26T13:58:59Z</time></trkpt><trkpt lat="45.501514068770874" lon="8.210101860888615"><ele>210.0</ele><time>2026-04-26T13:59:00Z</time></trkpt><trkpt lat="45.50139574304336" lon="8.210163624340034"><ele>210.0</ele><time>2026-04-26T13:59:01Z</time></trkpt><trkpt lat="45.50126853523227" lon="8.210228691652558"><ele>210.25</ele><time>2026-04-26T13:59:02Z</time></trkpt><trkpt lat="45.50113342383491" lon="8.210299238113816"><ele>210.5</ele><time>2026-04-26T13:59:03Z</time></trkpt><trkpt lat="45.500990279872305" lon="8.21037040799349"><ele>210.75</ele><time>2026-04-26T13:59:04Z</time></trkpt><trkpt lat="45.5008447635345" lon="8.210438158621324"><ele>211.0</ele><time>2026-04-26T13:59:05Z</time></trkpt><trkpt lat="45.50069404079197" lon="8.210512716356051"><ele>211.0</ele><time>2026-04-26T13:59:06Z</time></trkpt><trkpt lat="45.50053614426948" lon="8.210595065367668"><ele>211.0</ele><time>2026-04-26T13:59:07Z</time></trkpt><trkpt lat="45.500377635772864" lon="8.210675332341209"><ele>211.0</ele><time>2026-04-26T13:59:08Z</time></trkpt><trkpt lat="45.50021061121224" lon="8.21075379369675"><ele>210.33333333333331</ele><time>2026-04-26T13:59:09Z</time></trkpt><trkpt lat="45.50003748919424" lon="8.210848529649683"><ele>209.66666666666669</ele><time>2026-04-26T13:59:10Z</time></trkpt><trkpt lat="45.49985984131219" lon="8.210937571044163"><ele>209.0</ele><time>2026-04-26T13:59:11Z</time></trkpt><trkpt lat="45.49967679698969" lon="8.211026291353498"><ele>208.66666666666669</ele><time>2026-04-26T13:59:12Z</time></trkpt><trkpt lat="45.49949096821247" lon="8.21112037421064"><ele>208.33333333333331</ele><time>2026-04-26T13:59:13Z</time></trkpt><trkpt lat="45.49931512411691" lon="8.21120906001737"><ele>208.0</ele><time>2026-04-26T13:59:14Z</time></trkpt><trkpt lat="45.499145949791924" lon="8.21129873049028"><ele>208.0</ele><time>2026-04-26T13:59:15Z</time></trkpt><trkpt lat="45.498973278540895" lon="8.211385252134455"><ele>208.0</ele><time>2026-04-26T13:59:16Z</time></trkpt><trkpt lat="45.49879383606636" lon="8.211475094747085"><ele>208.0</ele><time>2026-04-26T13:59:17Z</time></trkpt><trkpt lat="45.49860980735988" lon="8.21156840169772"><ele>208.0</ele><time>2026-04-26T13:59:18Z</time></trkpt><trkpt lat="45.49841989797036" lon="8.211660128785256"><ele>208.0</ele><time>2026-04-26T13:59:19Z</time></trkpt><trkpt lat="45.498225657013606" lon="8.211754246901636"><ele>208.0</ele><time>2026-04-26T13:59:20Z</time></trkpt><trkpt lat="45.49802966925746" lon="8.211852063056407"><ele>208.66666666666666</ele><time>2026-04-26T13:59:21Z</time></trkpt><trkpt lat="45.49783035025058" lon="8.211950197842857"><ele>209.33333333333331</ele><time>2026-04-26T13:59:22Z</time></trkpt><trkpt lat="45.49764049971891" lon="8.212047357529286"><ele>210.0</ele><time>2026-04-26T13:59:23Z</time></trkpt><trkpt lat="45.49746087896435" lon="8.212144374102607"><ele>210.0</ele><time>2026-04-26T13:59:24Z</time></trkpt><trkpt lat="45.497278950922926" lon="8.21223479304209"><ele>210.0</ele><time>2026-04-26T13:59:25Z</time></trkpt><trkpt lat="45.49709725944578" lon="8.212328719287589"><ele>210.0</ele><time>2026-04-26T13:59:26Z</time></trkpt><trkpt lat="45.49691315954701" lon="8.212422431877517"><ele>209.66666666666669</ele><time>2026-04-26T13:59:27Z</time></trkpt><trkpt lat="45.49673144808962" lon="8.212517664358263"><ele>209.33333333333334</ele><time>2026-04-26T13:59:28Z</time></trkpt><trkpt lat="45.496545931752884" lon="8.212607421214162"><ele>209.0</ele><time>2026-04-26T13:59:29Z</time></trkpt><trkpt lat="45.496355922915775" lon="8.21270299725204"><ele>208.66666666666669</ele><time>2026-04-26T13:59:30Z</time></trkpt><trkpt lat="45.496166332943126" lon="8.212804266899745"><ele>208.33333333333331</ele><time>2026-04-26T13:59:31Z</time></trkpt><trkpt lat="45.495972905619155" lon="8.212902248253785"><ele>208.0</ele><time>2026-04-26T13:59:32Z</time></trkpt><trkpt lat="45.49578047885626" lon="8.212998382174035"><ele>208.0</ele><time>2026-04-26T13:59:33Z</time></trkpt><trkpt lat="45.4955852311108" lon="8.213098636337316"><ele>208.0</ele><time>2026-04-26T13:59:34Z</time></trkpt><trkpt lat="45.49539213348981" lon="8.213196895428755"><ele>208.0</ele><time>2026-04-26T13:59:35Z</time></trkpt><trkpt lat="45.49519420437512" lon="8.21329543731231"><ele>206.66666666666666</ele><time>2026-04-26T13:59:36Z</time></trkpt><trkpt lat="45.49499939668354" lon="8.213400303187735"><ele>205.33333333333331</ele><time>2026-04-26T13:59:37Z</time></trkpt><trkpt lat="45.49480784690825" lon="8.21349887775407"><ele>204.0</ele><time>2026-04-26T13:59:38Z</time></trkpt><trkpt lat="45.49462348678611" lon="8.213589547410544"><ele>204.33333333333331</ele><time>2026-04-26T13:59:39Z</time></trkpt><trkpt lat="45.49444203144239" lon="8.213679797356312"><ele>204.66666666666666</ele><time>2026-04-26T13:59:40Z</time></trkpt><trkpt lat="45.49426173546933" lon="8.21376971649506"><ele>205.0</ele><time>2026-04-26T13:59:41Z</time></trkpt><trkpt lat="45.494076447220706" lon="8.213861702537692"><ele>205.0</ele><time>2026-04-26T13:59:42Z</time></trkpt><trkpt lat="45.49389077081525" lon="8.21395920583136"><ele>205.0</ele><time>2026-04-26T13:59:43Z</time></trkpt><trkpt lat="45.49370568279791" lon="8.214026369065563"><ele>205.0</ele><time>2026-04-26T13:59:44Z</time></trkpt><trkpt lat="45.493518496934634" lon="8.21412280214859"><ele>205.0</ele><time>2026-04-26T13:59:45Z</time></trkpt><trkpt lat="45.49333698525366" lon="8.21421295165743"><ele>205.0</ele><time>2026-04-26T13:59:46Z</time></trkpt><trkpt lat="45.49316030733769" lon="8.214302604135192"><ele>205.0</ele><time>2026-04-26T13:59:47Z</time></trkpt><trkpt lat="45.49299095181737" lon="8.214392750526478"><ele>204.66666666666666</ele><time>2026-04-26T13:59:48Z</time></trkpt><trkpt lat="45.492831744032024" lon="8.214489439351587"><ele>204.33333333333331</ele><time>2026-04-26T13:59:49Z</time></trkpt><trkpt lat="45.492679882051696" lon="8.214597277033073"><ele>204.0</ele><time>2026-04-26T13:59:50Z</time></trkpt><trkpt lat="45.49254058344685" lon="8.214719934602966"><ele>204.0</ele><time>2026-04-26T13:59:51Z</time></trkpt><trkpt lat="45.492407837691026" lon="8.214847222752054"><ele>204.0</ele><time>2026-04-26T13:59:52Z</time></trkpt><trkpt lat="45.492305859161995" lon="8.214994689973183"><ele>204.0</ele><time>2026-04-26T13:59:53Z</time></trkpt><trkpt lat="45.49221549361006" lon="8.215156105244532"><ele>204.0</ele><time>2026-04-26T13:59:54Z</time></trkpt><trkpt lat="45.492141446531804" lon="8.215298214066115"><ele>204.0</ele><time>2026-04-26T13:59:55Z</time></trkpt><trkpt lat="45.492056349644706" lon="8.215420603983054"><ele>204.0</ele><time>2026-04-26T13:59:56Z</time></trkpt><trkpt lat="45.49197059410051" lon="8.215516736218074"><ele>204.0</ele><time>2026-04-26T13:59:57Z</time></trkpt><trkpt lat="45.49187998864095" lon="8.21559619883977"><ele>203.2</ele><time>2026-04-26T13:59:58Z</time></trkpt><trkpt lat="45.49179036468675" lon="8.215665450784805"><ele>202.39999999999998</ele><time>2026-04-26T13:59:59Z</time></trkpt><trkpt lat="45.49170241487529" lon="8.215704491365832"><ele>201.6</ele><time>2026-04-26T14:00:00Z</time></trkpt><trkpt lat="45.49160266927589" lon="8.215733904768324"><ele>200.8</ele><time>2026-04-26T14:00:01Z</time></trkpt><trkpt lat="45.49148593568602" lon="8.215764177802216"><ele>200.0</ele><time>2026-04-26T14:00:02Z</time></trkpt><trkpt lat="45.49135386049214" lon="8.215794726389886"><ele>199.33333333333334</ele><time>2026-04-26T14:00:03Z</time></trkpt><trkpt lat="45.49120734981118" lon="8.215818632863236"><ele>198.66666666666669</ele><time>2026-04-26T14:00:04Z</time></trkpt><trkpt lat="45.49105013991346" lon="8.21585204003886"><ele>198.0</ele><time>2026-04-26T14:00:05Z</time></trkpt><trkpt lat="45.4908857539539" lon="8.215886532431098"><ele>198.0</ele><time>2026-04-26T14:00:06Z</time></trkpt><trkpt lat="45.49071114135768" lon="8.21592308370058"><ele>198.0</ele><time>2026-04-26T14:00:07Z</time></trkpt><trkpt lat="45.49052680349445" lon="8.215962155269919"><ele>198.0</ele><time>2026-04-26T14:00:08Z</time></trkpt><trkpt lat="45.49033335662041" lon="8.216002970920721"><ele>197.33333333333331</ele><time>2026-04-26T14:00:09Z</time></trkpt><trkpt lat="45.49013162966177" lon="8.21604778315927"><ele>196.66666666666666</ele><time>2026-04-26T14:00:10Z</time></trkpt><trkpt lat="45.48992536312522" lon="8.216089503267307"><ele>196.0</ele><time>2026-04-26T14:00:11Z</time></trkpt><trkpt lat="45.48971020438268" lon="8.21613462275225"><ele>196.33333333333331</ele><time>2026-04-26T14:00:12Z</time></trkpt><trkpt lat="45.48949290341309" lon="8.216184009643456"><ele>196.66666666666669</ele><time>2026-04-26T14:00:13Z</time></trkpt><trkpt lat="45.48929051901622" lon="8.21622605523877"><ele>197.0</ele><time>2026-04-26T14:00:14Z</time></trkpt><trkpt lat="45.48909529143038" lon="8.216264335835604"><ele>197.0</ele><time>2026-04-26T14:00:15Z</time></trkpt><trkpt lat="45.4888911166822" lon="8.21630518655429"><ele>197.0</ele><time>2026-04-26T14:00:16Z</time></trkpt><trkpt lat="45.488681092105004" lon="8.216341412674726"><ele>197.0</ele><time>2026-04-26T14:00:17Z</time></trkpt><trkpt lat="45.48846261289956" lon="8.216386094869273"><ele>195.5</ele><time>2026-04-26T14:00:18Z</time></trkpt><trkpt lat="45.488240412203986" lon="8.216429186067593"><ele>194.0</ele><time>2026-04-26T14:00:19Z</time></trkpt><trkpt lat="45.48800864508504" lon="8.216476851896651"><ele>195.0</ele><time>2026-04-26T14:00:20Z</time></trkpt><trkpt lat="45.487776647096084" lon="8.216526152648889"><ele>196.0</ele><time>2026-04-26T14:00:21Z</time></trkpt><trkpt lat="45.487540663867605" lon="8.216574249361349"><ele>196.0</ele><time>2026-04-26T14:00:22Z</time></trkpt><trkpt lat="45.487303019441285" lon="8.216626203383548"><ele>196.0</ele><time>2026-04-26T14:00:23Z</time></trkpt><trkpt lat="45.48707363851434" lon="8.216671994192254"><ele>196.33333333333331</ele><time>2026-04-26T14:00:24Z</time></trkpt><trkpt lat="45.48685622922555" lon="8.216721316441346"><ele>196.66666666666669</ele><time>2026-04-26T14:00:25Z</time></trkpt><trkpt lat="45.486630756465836" lon="8.216771769275258"><ele>197.0</ele><time>2026-04-26T14:00:26Z</time></trkpt><trkpt lat="45.48639990211188" lon="8.216825235153928"><ele>197.5</ele><time>2026-04-26T14:00:27Z</time></trkpt><trkpt lat="45.48616292957632" lon="8.216872318948765"><ele>198.0</ele><time>2026-04-26T14:00:28Z</time></trkpt><trkpt lat="45.48592097391659" lon="8.216919616046795"><ele>198.0</ele><time>2026-04-26T14:00:29Z</time></trkpt><trkpt lat="45.48567375619258" lon="8.216965467589398"><ele>198.0</ele><time>2026-04-26T14:00:30Z</time></trkpt><trkpt lat="45.485419870238765" lon="8.217006688707796"><ele>198.5</ele><time>2026-04-26T14:00:31Z</time></trkpt><trkpt lat="45.48516441488899" lon="8.217057248442254"><ele>199.0</ele><time>2026-04-26T14:00:32Z</time></trkpt><trkpt lat="45.484902769389514" lon="8.217107112320784"><ele>199.0</ele><time>2026-04-26T14:00:33Z</time></trkpt><trkpt lat="45.484635981088715" lon="8.217161831082374"><ele>199.0</ele><time>2026-04-26T14:00:34Z</time></trkpt><trkpt lat="45.4843667815865" lon="8.217219963037182"><ele>199.0</ele><time>2026-04-26T14:00:35Z</time></trkpt><trkpt lat="45.48410135365161" lon="8.21727377103798"><ele>199.0</ele><time>2026-04-26T14:00:36Z</time></trkpt><trkpt lat="45.48383221629685" lon="8.217327885552931"><ele>199.0</ele><time>2026-04-26T14:00:37Z</time></trkpt><trkpt lat="45.48356464824676" lon="8.21738218431075"><ele>199.0</ele><time>2026-04-26T14:00:38Z</time></trkpt><trkpt lat="45.483300406474925" lon="8.217431802122968"><ele>199.0</ele><time>2026-04-26T14:00:39Z</time></trkpt><trkpt lat="45.4830348987485" lon="8.217488632836547"><ele>199.0</ele><time>2026-04-26T14:00:40Z</time></trkpt><trkpt lat="45.48277097908751" lon="8.217540915325134"><ele>199.5</ele><time>2026-04-26T14:00:41Z</time></trkpt><trkpt lat="45.48250684759994" lon="8.217592753536065"><ele>200.0</ele><time>2026-04-26T14:00:42Z</time></trkpt><trkpt lat="45.48224429114666" lon="8.217646835494971"><ele>199.5</ele><time>2026-04-26T14:00:43Z</time></trkpt><trkpt lat="45.481982184337475" lon="8.217697222778805"><ele>199.0</ele><time>2026-04-26T14:00:44Z</time></trkpt><trkpt lat="45.48171897123097" lon="8.217749742031371"><ele>199.0</ele><time>2026-04-26T14:00:45Z</time></trkpt><trkpt lat="45.48145787877909" lon="8.217800981246185"><ele>199.0</ele><time>2026-04-26T14:00:46Z</time></trkpt><trkpt lat="45.48119713346543" lon="8.217851248731519"><ele>199.5</ele><time>2026-04-26T14:00:47Z</time></trkpt><trkpt lat="45.480936565858016" lon="8.217904209866019"><ele>200.0</ele><time>2026-04-26T14:00:48Z</time></trkpt><trkpt lat="45.480675246933956" lon="8.217956180161966"><ele>200.0</ele><time>2026-04-26T14:00:49Z</time></trkpt><trkpt lat="45.48041315279066" lon="8.218006602211453"><ele>200.0</ele><time>2026-04-26T14:00:50Z</time></trkpt><trkpt lat="45.48014990081779" lon="8.218057506736518"><ele>200.0</ele><time>2026-04-26T14:00:51Z</time></trkpt><trkpt lat="45.479884514243544" lon="8.218111160941554"><ele>200.0</ele><time>2026-04-26T14:00:52Z</time></trkpt><trkpt lat="45.47961369802126" lon="8.21816629132414"><ele>200.0</ele><time>2026-04-26T14:00:53Z</time></trkpt><trkpt lat="45.47934814241899" lon="8.218218340240584"><ele>200.0</ele><time>2026-04-26T14:00:54Z</time></trkpt><trkpt lat="45.479080563648715" lon="8.218270709661363"><ele>200.0</ele><time>2026-04-26T14:00:55Z</time></trkpt><trkpt lat="45.47881707898581" lon="8.218322932221966"><ele>200.0</ele><time>2026-04-26T14:00:56Z</time></trkpt><trkpt lat="45.478556945637706" lon="8.21837786210452"><ele>199.0</ele><time>2026-04-26T14:00:57Z</time></trkpt><trkpt lat="45.47829700712848" lon="8.218435289935748"><ele>198.0</ele><time>2026-04-26T14:00:58Z</time></trkpt><trkpt lat="45.478036874061495" lon="8.21849158643122"><ele>196.5</ele><time>2026-04-26T14:00:59Z</time></trkpt><trkpt lat="45.47778171152243" lon="8.21854191969622"><ele>195.0</ele><time>2026-04-26T14:01:00Z</time></trkpt><trkpt lat="45.47753061878778" lon="8.218595832430982"><ele>195.0</ele><time>2026-04-26T14:01:01Z</time></trkpt><trkpt lat="45.47728237130004" lon="8.218650581748847"><ele>195.0</ele><time>2026-04-26T14:01:02Z</time></trkpt><trkpt lat="45.47703801026985" lon="8.218701563652592"><ele>193.5</ele><time>2026-04-26T14:01:03Z</time></trkpt><trkpt lat="45.47680129360626" lon="8.218750607652991"><ele>192.0</ele><time>2026-04-26T14:01:04Z</time></trkpt><trkpt lat="45.47657290967826" lon="8.218796972953852"><ele>192.0</ele><time>2026-04-26T14:01:05Z</time></trkpt><trkpt lat="45.47635116472171" lon="8.218845627991016"><ele>192.0</ele><time>2026-04-26T14:01:06Z</time></trkpt><trkpt lat="45.47614150046798" lon="8.21889086806071"><ele>192.0</ele><time>2026-04-26T14:01:07Z</time></trkpt><trkpt lat="45.475938382405786" lon="8.218898331310418"><ele>191.0</ele><time>2026-04-26T14:01:08Z</time></trkpt><trkpt lat="45.4757510358526" lon="8.218913045314876"><ele>190.0</ele><time>2026-04-26T14:01:09Z</time></trkpt><trkpt lat="45.47556367844244" lon="8.218916990648863"><ele>189.0</ele><time>2026-04-26T14:01:10Z</time></trkpt><trkpt lat="45.475367236418116" lon="8.21890293823117"><ele>189.0</ele><time>2026-04-26T14:01:11Z</time></trkpt><trkpt lat="45.47516546869292" lon="8.218867807156041"><ele>189.0</ele><time>2026-04-26T14:01:12Z</time></trkpt><trkpt lat="45.47496569505591" lon="8.218814953781827"><ele>189.0</ele><time>2026-04-26T14:01:13Z</time></trkpt><trkpt lat="45.4747660950559" lon="8.218747451995801"><ele>189.33333333333334</ele><time>2026-04-26T14:01:14Z</time></trkpt><trkpt lat="45.47455900110221" lon="8.21867056186744"><ele>189.66666666666669</ele><time>2026-04-26T14:01:15Z</time></trkpt><trkpt lat="45.474345565547964" lon="8.218591317257511"><ele>190.0</ele><time>2026-04-26T14:01:16Z</time></trkpt><trkpt lat="45.474131762471366" lon="8.218533498517463"><ele>190.0</ele><time>2026-04-26T14:01:17Z</time></trkpt><trkpt lat="45.473928755745526" lon="8.218456731921762"><ele>190.0</ele><time>2026-04-26T14:01:18Z</time></trkpt><trkpt lat="45.47373199727729" lon="8.218382985231417"><ele>190.0</ele><time>2026-04-26T14:01:19Z</time></trkpt><trkpt lat="45.473545276785146" lon="8.21831414924843"><ele>190.0</ele><time>2026-04-26T14:01:20Z</time></trkpt><trkpt lat="45.47336754862794" lon="8.21822559746392"><ele>190.0</ele><time>2026-04-26T14:01:21Z</time></trkpt><trkpt lat="45.473189125102934" lon="8.218158635848528"><ele>190.0</ele><time>2026-04-26T14:01:22Z</time></trkpt><trkpt lat="45.47301205498449" lon="8.218112003430587"><ele>190.0</ele><time>2026-04-26T14:01:23Z</time></trkpt><trkpt lat="45.472840235217255" lon="8.218039092237683"><ele>190.0</ele><time>2026-04-26T14:01:24Z</time></trkpt><trkpt lat="45.47266654492388" lon="8.21795683181572"><ele>190.0</ele><time>2026-04-26T14:01:25Z</time></trkpt><trkpt lat="45.4725004079557" lon="8.217833271226981"><ele>190.0</ele><time>2026-04-26T14:01:26Z</time></trkpt><trkpt lat="45.47232573003187" lon="8.217720184552071"><ele>190.0</ele><time>2026-04-26T14:01:27Z</time></trkpt><trkpt lat="45.47214732995738" lon="8.217588894265662"><ele>190.0</ele><time>2026-04-26T14:01:28Z</time></trkpt><trkpt lat="45.471953635447534" lon="8.217442728293198"><ele>190.5</ele><time>2026-04-26T14:01:29Z</time></trkpt><trkpt lat="45.47174249154335" lon="8.217283432136727"><ele>191.0</ele><time>2026-04-26T14:01:30Z</time></trkpt><trkpt lat="45.471526424375355" lon="8.217120421687643"><ele>191.0</ele><time>2026-04-26T14:01:31Z</time></trkpt><trkpt lat="45.4712880557896" lon="8.216940585441627"><ele>191.0</ele><time>2026-04-26T14:01:32Z</time></trkpt><trkpt lat="45.47106197047301" lon="8.21677091393622"><ele>191.0</ele><time>2026-04-26T14:01:33Z</time></trkpt><trkpt lat="45.4708533099083" lon="8.216616159516077"><ele>191.0</ele><time>2026-04-26T14:01:34Z</time></trkpt><trkpt lat="45.470658625969314" lon="8.21647346838825"><ele>191.33333333333331</ele><time>2026-04-26T14:01:35Z</time></trkpt><trkpt lat="45.470478006462756" lon="8.216338064252946"><ele>191.66666666666666</ele><time>2026-04-26T14:01:36Z</time></trkpt><trkpt lat="45.47030670585476" lon="8.21620728473455"><ele>192.0</ele><time>2026-04-26T14:01:37Z</time></trkpt><trkpt lat="45.470143636838905" lon="8.216086003060724"><ele>192.0</ele><time>2026-04-26T14:01:38Z</time></trkpt><trkpt lat="45.46998672095648" lon="8.215969297612466"><ele>192.0</ele><time>2026-04-26T14:01:39Z</time></trkpt><trkpt lat="45.469837747034134" lon="8.215858498927007"><ele>192.0</ele><time>2026-04-26T14:01:40Z</time></trkpt><trkpt lat="45.4696935280748" lon="8.215751236918855"><ele>192.0</ele><time>2026-04-26T14:01:41Z</time></trkpt><trkpt lat="45.46954487107968" lon="8.21564067405892"><ele>192.0</ele><time>2026-04-26T14:01:42Z</time></trkpt><trkpt lat="45.46938468989604" lon="8.21554751321356"><ele>192.0</ele><time>2026-04-26T14:01:43Z</time></trkpt><trkpt lat="45.46923852709827" lon="8.215439402232356"><ele>192.0</ele><time>2026-04-26T14:01:44Z</time></trkpt><trkpt lat="45.46911488351853" lon="8.215322036421657"><ele>192.0</ele><time>2026-04-26T14:01:45Z</time></trkpt><trkpt lat="45.46898870078564" lon="8.215256489802941"><ele>192.0</ele><time>2026-04-26T14:01:46Z</time></trkpt><trkpt lat="45.468882373026716" lon="8.215177457523792"><ele>192.0</ele><time>2026-04-26T14:01:47Z</time></trkpt><trkpt lat="45.46880503182035" lon="8.215096852457501"><ele>192.0</ele><time>2026-04-26T14:01:48Z</time></trkpt><trkpt lat="45.46873643230006" lon="8.215047939639158"><ele>192.0</ele><time>2026-04-26T14:01:49Z</time></trkpt><trkpt lat="45.468623615426736" lon="8.214966983088935"><ele>192.0</ele><time>2026-04-26T14:01:51Z</time></trkpt><trkpt lat="45.46856709607909" lon="8.214923519210211"><ele>192.0</ele><time>2026-04-26T14:01:52Z</time></trkpt><trkpt lat="45.46851000036121" lon="8.21487586508059"><ele>192.0</ele><time>2026-04-26T14:01:53Z</time></trkpt><trkpt lat="45.468425426046984" lon="8.214758416265271"><ele>192.0</ele><time>2026-04-26T14:01:55Z</time></trkpt><trkpt lat="45.46837582846334" lon="8.214590855012645"><ele>192.0</ele><time>2026-04-26T14:01:57Z</time></trkpt><trkpt lat="45.46834352613149" lon="8.214486866693587"><ele>192.0</ele><time>2026-04-26T14:01:58Z</time></trkpt><trkpt lat="45.46829019154658" lon="8.214394308227424"><ele>192.0</ele><time>2026-04-26T14:01:59Z</time></trkpt><trkpt lat="45.46821713748361" lon="8.2143409103747"><ele>192.0</ele><time>2026-04-26T14:02:00Z</time></trkpt><trkpt lat="45.46813076928076" lon="8.214334313456362"><ele>192.0</ele><time>2026-04-26T14:02:01Z</time></trkpt><trkpt lat="45.468047119734294" lon="8.21437385085489"><ele>192.0</ele><time>2026-04-26T14:02:02Z</time></trkpt><trkpt lat="45.46798154474345" lon="8.21445367536439"><ele>192.0</ele><time>2026-04-26T14:02:03Z</time></trkpt><trkpt lat="45.46792973546593" lon="8.214562638711955"><ele>192.0</ele><time>2026-04-26T14:02:04Z</time></trkpt><trkpt lat="45.46790747516691" lon="8.214702174493354"><ele>192.0</ele><time>2026-04-26T14:02:05Z</time></trkpt><trkpt lat="45.4677974606529" lon="8.21481081223694"><ele>191.75</ele><time>2026-04-26T14:02:06Z</time></trkpt><trkpt lat="45.46769436972772" lon="8.21491818957748"><ele>191.5</ele><time>2026-04-26T14:02:07Z</time></trkpt><trkpt lat="45.4675722331564" lon="8.215005311093888"><ele>191.25</ele><time>2026-04-26T14:02:08Z</time></trkpt><trkpt lat="45.46744104939284" lon="8.215097852106666"><ele>191.0</ele><time>2026-04-26T14:02:09Z</time></trkpt><trkpt lat="45.46730411194697" lon="8.215198107532197"><ele>191.0</ele><time>2026-04-26T14:02:10Z</time></trkpt><trkpt lat="45.46716708839344" lon="8.215304014735235"><ele>191.0</ele><time>2026-04-26T14:02:11Z</time></trkpt><trkpt lat="45.46702347515356" lon="8.215422023207742"><ele>191.0</ele><time>2026-04-26T14:02:12Z</time></trkpt><trkpt lat="45.46685791822148" lon="8.215558672814797"><ele>190.66666666666666</ele><time>2026-04-26T14:02:13Z</time></trkpt><trkpt lat="45.46667493885108" lon="8.215713673971589"><ele>190.33333333333334</ele><time>2026-04-26T14:02:14Z</time></trkpt><trkpt lat="45.46647472038117" lon="8.215878105572374"><ele>190.0</ele><time>2026-04-26T14:02:15Z</time></trkpt><trkpt lat="45.466265721959026" lon="8.216047763372348"><ele>190.0</ele><time>2026-04-26T14:02:16Z</time></trkpt><trkpt lat="45.46605072917388" lon="8.21621974280687"><ele>190.0</ele><time>2026-04-26T14:02:17Z</time></trkpt><trkpt lat="45.46584825690378" lon="8.216386659443847"><ele>190.0</ele><time>2026-04-26T14:02:18Z</time></trkpt><trkpt lat="45.465645051045975" lon="8.21655372094074"><ele>190.0</ele><time>2026-04-26T14:02:19Z</time></trkpt><trkpt lat="45.46543685311228" lon="8.216722755436303"><ele>190.0</ele><time>2026-04-26T14:02:20Z</time></trkpt><trkpt lat="45.46522726276962" lon="8.216886841150057"><ele>190.0</ele><time>2026-04-26T14:02:21Z</time></trkpt><trkpt lat="45.46501309674053" lon="8.217055723787908"><ele>190.0</ele><time>2026-04-26T14:02:22Z</time></trkpt><trkpt lat="45.464788132113796" lon="8.217248201455062"><ele>190.0</ele><time>2026-04-26T14:02:23Z</time></trkpt><trkpt lat="45.46453854695763" lon="8.21745940336863"><ele>189.5</ele><time>2026-04-26T14:02:24Z</time></trkpt><trkpt lat="45.46427418181815" lon="8.217667197237283"><ele>189.0</ele><time>2026-04-26T14:02:25Z</time></trkpt><trkpt lat="45.46402151203634" lon="8.217862290238982"><ele>189.0</ele><time>2026-04-26T14:02:26Z</time></trkpt><trkpt lat="45.46379160227211" lon="8.21804788857712"><ele>189.0</ele><time>2026-04-26T14:02:27Z</time></trkpt><trkpt lat="45.46357284079424" lon="8.21822720039525"><ele>189.0</ele><time>2026-04-26T14:02:28Z</time></trkpt><trkpt lat="45.463356817891835" lon="8.218405466213675"><ele>189.0</ele><time>2026-04-26T14:02:29Z</time></trkpt><trkpt lat="45.46314340642496" lon="8.218581827917287"><ele>189.0</ele><time>2026-04-26T14:02:30Z</time></trkpt><trkpt lat="45.46292675059735" lon="8.218762950702612"><ele>189.0</ele><time>2026-04-26T14:02:31Z</time></trkpt><trkpt lat="45.462702622564734" lon="8.218945017160703"><ele>188.5</ele><time>2026-04-26T14:02:32Z</time></trkpt><trkpt lat="45.462472439081154" lon="8.219130370932993"><ele>188.0</ele><time>2026-04-26T14:02:33Z</time></trkpt><trkpt lat="45.462238433505306" lon="8.219322923016158"><ele>188.5</ele><time>2026-04-26T14:02:34Z</time></trkpt><trkpt lat="45.461995513842396" lon="8.219517708097033"><ele>189.0</ele><time>2026-04-26T14:02:35Z</time></trkpt><trkpt lat="45.46174396498625" lon="8.219708031525348"><ele>189.0</ele><time>2026-04-26T14:02:36Z</time></trkpt><trkpt lat="45.461486281810984" lon="8.21989909655526"><ele>189.0</ele><time>2026-04-26T14:02:37Z</time></trkpt><trkpt lat="45.461240569809576" lon="8.220094584031322"><ele>189.0</ele><time>2026-04-26T14:02:38Z</time></trkpt><trkpt lat="45.461013424504365" lon="8.220287293163377"><ele>189.0</ele><time>2026-04-26T14:02:39Z</time></trkpt><trkpt lat="45.46079097561382" lon="8.220471796829681"><ele>189.5</ele><time>2026-04-26T14:02:40Z</time></trkpt><trkpt lat="45.46056962906723" lon="8.220654449423025"><ele>190.0</ele><time>2026-04-26T14:02:41Z</time></trkpt><trkpt lat="45.4603468453666" lon="8.22083308969744"><ele>188.5</ele><time>2026-04-26T14:02:42Z</time></trkpt><trkpt lat="45.460123450212855" lon="8.221009968355636"><ele>187.0</ele><time>2026-04-26T14:02:43Z</time></trkpt><trkpt lat="45.45990124945165" lon="8.221186060812736"><ele>187.0</ele><time>2026-04-26T14:02:44Z</time></trkpt><trkpt lat="45.459679506277695" lon="8.221366891468634"><ele>187.0</ele><time>2026-04-26T14:02:45Z</time></trkpt><trkpt lat="45.45945847178359" lon="8.22154596487267"><ele>186.0</ele><time>2026-04-26T14:02:46Z</time></trkpt><trkpt lat="45.45923708964247" lon="8.221727264880974"><ele>185.0</ele><time>2026-04-26T14:02:47Z</time></trkpt><trkpt lat="45.45901633260888" lon="8.22190667260997"><ele>185.0</ele><time>2026-04-26T14:02:48Z</time></trkpt><trkpt lat="45.458794940482626" lon="8.222088359185577"><ele>185.0</ele><time>2026-04-26T14:02:49Z</time></trkpt><trkpt lat="45.45857471740743" lon="8.22226760366223"><ele>185.5</ele><time>2026-04-26T14:02:50Z</time></trkpt><trkpt lat="45.45835204169677" lon="8.222447472707119"><ele>186.0</ele><time>2026-04-26T14:02:51Z</time></trkpt><trkpt lat="45.45812780918697" lon="8.222625853241599"><ele>186.5</ele><time>2026-04-26T14:02:52Z</time></trkpt><trkpt lat="45.45790124418811" lon="8.222804421291036"><ele>187.0</ele><time>2026-04-26T14:02:53Z</time></trkpt><trkpt lat="45.457674624092675" lon="8.222985872165527"><ele>187.0</ele><time>2026-04-26T14:02:54Z</time></trkpt><trkpt lat="45.457451117038374" lon="8.2231676082629"><ele>187.0</ele><time>2026-04-26T14:02:55Z</time></trkpt><trkpt lat="45.45723075189958" lon="8.223347661245485"><ele>186.5</ele><time>2026-04-26T14:02:56Z</time></trkpt><trkpt lat="45.45700932818787" lon="8.22352836628169"><ele>186.0</ele><time>2026-04-26T14:02:57Z</time></trkpt><trkpt lat="45.456791121372824" lon="8.2237066918248"><ele>186.0</ele><time>2026-04-26T14:02:58Z</time></trkpt><trkpt lat="45.45657496719971" lon="8.223884706288798"><ele>186.0</ele><time>2026-04-26T14:02:59Z</time></trkpt><trkpt lat="45.45635933694297" lon="8.224059229055694"><ele>185.0</ele><time>2026-04-26T14:03:00Z</time></trkpt><trkpt lat="45.45614401558796" lon="8.224234319009087"><ele>184.0</ele><time>2026-04-26T14:03:01Z</time></trkpt><trkpt lat="45.45592853532794" lon="8.224410445940013"><ele>184.0</ele><time>2026-04-26T14:03:02Z</time></trkpt><trkpt lat="45.4557098223345" lon="8.224585520337078"><ele>184.0</ele><time>2026-04-26T14:03:03Z</time></trkpt><trkpt lat="45.45549002469259" lon="8.224763486277686"><ele>184.0</ele><time>2026-04-26T14:03:04Z</time></trkpt><trkpt lat="45.45526911682264" lon="8.224940102908588"><ele>184.0</ele><time>2026-04-26T14:03:05Z</time></trkpt><trkpt lat="45.455046835492375" lon="8.225120470764933"><ele>184.0</ele><time>2026-04-26T14:03:06Z</time></trkpt><trkpt lat="45.45482443937119" lon="8.225299210682468"><ele>184.0</ele><time>2026-04-26T14:03:07Z</time></trkpt><trkpt lat="45.45459949880077" lon="8.225481613493121"><ele>183.5</ele><time>2026-04-26T14:03:08Z</time></trkpt><trkpt lat="45.454373849855216" lon="8.225665796066727"><ele>183.0</ele><time>2026-04-26T14:03:09Z</time></trkpt><trkpt lat="45.45414789880991" lon="8.225849565138862"><ele>183.0</ele><time>2026-04-26T14:03:10Z</time></trkpt><trkpt lat="45.453919421321686" lon="8.22603670349696"><ele>183.0</ele><time>2026-04-26T14:03:11Z</time></trkpt><trkpt lat="45.45369094048775" lon="8.226222759238835"><ele>183.0</ele><time>2026-04-26T14:03:12Z</time></trkpt><trkpt lat="45.453462845300656" lon="8.226405667525455"><ele>183.0</ele><time>2026-04-26T14:03:13Z</time></trkpt><trkpt lat="45.453237572140665" lon="8.226587598360776"><ele>183.0</ele><time>2026-04-26T14:03:14Z</time></trkpt><trkpt lat="45.45301212286353" lon="8.226771508444063"><ele>183.0</ele><time>2026-04-26T14:03:15Z</time></trkpt><trkpt lat="45.45278896733916" lon="8.226953535188844"><ele>183.0</ele><time>2026-04-26T14:03:16Z</time></trkpt><trkpt lat="45.45256697726558" lon="8.227134397508"><ele>183.0</ele><time>2026-04-26T14:03:17Z</time></trkpt><trkpt lat="45.45234581778462" lon="8.22731325731375"><ele>183.0</ele><time>2026-04-26T14:03:18Z</time></trkpt><trkpt lat="45.452128252322765" lon="8.227490694768429"><ele>183.0</ele><time>2026-04-26T14:03:19Z</time></trkpt><trkpt lat="45.45191578583693" lon="8.227662777993576"><ele>183.0</ele><time>2026-04-26T14:03:20Z</time></trkpt><trkpt lat="45.451706633594235" lon="8.227831525020859"><ele>183.0</ele><time>2026-04-26T14:03:21Z</time></trkpt><trkpt lat="45.45150086406334" lon="8.227999160080893"><ele>183.0</ele><time>2026-04-26T14:03:22Z</time></trkpt><trkpt lat="45.45129739185429" lon="8.22816405645937"><ele>183.0</ele><time>2026-04-26T14:03:23Z</time></trkpt><trkpt lat="45.45109798181748" lon="8.228324575405864"><ele>183.0</ele><time>2026-04-26T14:03:24Z</time></trkpt><trkpt lat="45.4508962564502" lon="8.228482555407558"><ele>183.0</ele><time>2026-04-26T14:03:25Z</time></trkpt><trkpt lat="45.450699439884666" lon="8.228642682780986"><ele>183.0</ele><time>2026-04-26T14:03:26Z</time></trkpt><trkpt lat="45.45050254480352" lon="8.228804817892986"><ele>183.0</ele><time>2026-04-26T14:03:27Z</time></trkpt><trkpt lat="45.45030703932192" lon="8.228964733657818"><ele>182.5</ele><time>2026-04-26T14:03:28Z</time></trkpt><trkpt lat="45.45010917895394" lon="8.229127577535914"><ele>182.0</ele><time>2026-04-26T14:03:29Z</time></trkpt><trkpt lat="45.44991526421604" lon="8.229286588779509"><ele>182.0</ele><time>2026-04-26T14:03:30Z</time></trkpt><trkpt lat="45.449722836067906" lon="8.229444375434378"><ele>182.0</ele><time>2026-04-26T14:03:31Z</time></trkpt><trkpt lat="45.449532707498484" lon="8.229599333538523"><ele>182.0</ele><time>2026-04-26T14:03:32Z</time></trkpt><trkpt lat="45.449346287092006" lon="8.229749476891413"><ele>182.0</ele><time>2026-04-26T14:03:33Z</time></trkpt><trkpt lat="45.44916756136412" lon="8.2298945008379"><ele>182.0</ele><time>2026-04-26T14:03:34Z</time></trkpt><trkpt lat="45.4490056967018" lon="8.23002853988703"><ele>182.0</ele><time>2026-04-26T14:03:35Z</time></trkpt><trkpt lat="45.44885749800213" lon="8.230155119922813"><ele>181.66666666666666</ele><time>2026-04-26T14:03:36Z</time></trkpt><trkpt lat="45.44871712928801" lon="8.230269426059111"><ele>181.33333333333334</ele><time>2026-04-26T14:03:37Z</time></trkpt><trkpt lat="45.448581500957275" lon="8.230383176734035"><ele>181.0</ele><time>2026-04-26T14:03:38Z</time></trkpt><trkpt lat="45.4484518154002" lon="8.230489249740828"><ele>181.0</ele><time>2026-04-26T14:03:39Z</time></trkpt><trkpt lat="45.4483295245589" lon="8.230593507272424"><ele>181.0</ele><time>2026-04-26T14:03:40Z</time></trkpt><trkpt lat="45.448205200285116" lon="8.2306977038393"><ele>181.0</ele><time>2026-04-26T14:03:41Z</time></trkpt><trkpt lat="45.44808600343119" lon="8.230796383775312"><ele>181.0</ele><time>2026-04-26T14:03:42Z</time></trkpt><trkpt lat="45.44797014911075" lon="8.230890175168268"><ele>181.0</ele><time>2026-04-26T14:03:43Z</time></trkpt><trkpt lat="45.447853218820306" lon="8.230987878709989"><ele>181.0</ele><time>2026-04-26T14:03:44Z</time></trkpt><trkpt lat="45.44772839887325" lon="8.231089851334874"><ele>181.0</ele><time>2026-04-26T14:03:45Z</time></trkpt><trkpt lat="45.44759404773177" lon="8.231196652883762"><ele>181.0</ele><time>2026-04-26T14:03:46Z</time></trkpt><trkpt lat="45.447450360110544" lon="8.231312853365159"><ele>181.0</ele><time>2026-04-26T14:03:47Z</time></trkpt><trkpt lat="45.4472947962418" lon="8.23144006238678"><ele>181.0</ele><time>2026-04-26T14:03:48Z</time></trkpt><trkpt lat="45.44713651146883" lon="8.231544562599995"><ele>181.0</ele><time>2026-04-26T14:03:49Z</time></trkpt><trkpt lat="45.44700046550397" lon="8.231692880919912"><ele>181.0</ele><time>2026-04-26T14:03:50Z</time></trkpt><trkpt lat="45.446854159188234" lon="8.231814307174448"><ele>181.0</ele><time>2026-04-26T14:03:51Z</time></trkpt><trkpt lat="45.446709637179644" lon="8.231904856134415"><ele>181.0</ele><time>2026-04-26T14:03:52Z</time></trkpt><trkpt lat="45.44658732189643" lon="8.231979846842727"><ele>181.0</ele><time>2026-04-26T14:03:53Z</time></trkpt><trkpt lat="45.446490030310365" lon="8.232041897935337"><ele>181.0</ele><time>2026-04-26T14:03:54Z</time></trkpt><trkpt lat="45.44639399149875" lon="8.232073519327857"><ele>181.0</ele><time>2026-04-26T14:03:55Z</time></trkpt><trkpt lat="45.44630280608187" lon="8.232096488525722"><ele>181.0</ele><time>2026-04-26T14:03:56Z</time></trkpt><trkpt lat="45.44622672062803" lon="8.232161534524796"><ele>181.0</ele><time>2026-04-26T14:03:57Z</time></trkpt><trkpt lat="45.44615542121865" lon="8.232261528967998"><ele>181.5</ele><time>2026-04-26T14:03:58Z</time></trkpt><trkpt lat="45.446074815426066" lon="8.232375616278677"><ele>182.0</ele><time>2026-04-26T14:03:59Z</time></trkpt><trkpt lat="45.445972048733694" lon="8.232476839078176"><ele>182.5</ele><time>2026-04-26T14:04:00Z</time></trkpt><trkpt lat="45.445845569010714" lon="8.232576756658423"><ele>183.0</ele><time>2026-04-26T14:04:01Z</time></trkpt><trkpt lat="45.44571023626225" lon="8.23267944223598"><ele>183.0</ele><time>2026-04-26T14:04:02Z</time></trkpt><trkpt lat="45.445566407097765" lon="8.232791341630922"><ele>183.0</ele><time>2026-04-26T14:04:03Z</time></trkpt><trkpt lat="45.445414477766334" lon="8.232920861264564"><ele>183.0</ele><time>2026-04-26T14:04:04Z</time></trkpt><trkpt lat="45.44525182053276" lon="8.23305675506366"><ele>183.0</ele><time>2026-04-26T14:04:05Z</time></trkpt><trkpt lat="45.44508171672842" lon="8.233197270295863"><ele>183.0</ele><time>2026-04-26T14:04:06Z</time></trkpt><trkpt lat="45.4449203196847" lon="8.233329852087138"><ele>183.0</ele><time>2026-04-26T14:04:07Z</time></trkpt><trkpt lat="45.44476904512466" lon="8.233455801636575"><ele>183.33333333333334</ele><time>2026-04-26T14:04:08Z</time></trkpt><trkpt lat="45.44461331158525" lon="8.233582376494677"><ele>183.66666666666669</ele><time>2026-04-26T14:04:09Z</time></trkpt><trkpt lat="45.4444488756274" lon="8.233712489295"><ele>184.0</ele><time>2026-04-26T14:04:10Z</time></trkpt><trkpt lat="45.44428384384944" lon="8.23384168599235"><ele>183.66666666666669</ele><time>2026-04-26T14:04:11Z</time></trkpt><trkpt lat="45.44411402071824" lon="8.233976296601506"><ele>183.33333333333334</ele><time>2026-04-26T14:04:12Z</time></trkpt><trkpt lat="45.44394061903426" lon="8.234112712925908"><ele>183.0</ele><time>2026-04-26T14:04:13Z</time></trkpt><trkpt lat="45.443762357942916" lon="8.23426000295279"><ele>182.0</ele><time>2026-04-26T14:04:14Z</time></trkpt><trkpt lat="45.443580990826405" lon="8.234407452034988"><ele>181.0</ele><time>2026-04-26T14:04:15Z</time></trkpt><trkpt lat="45.443399206958944" lon="8.234558392011335"><ele>180.0</ele><time>2026-04-26T14:04:16Z</time></trkpt><trkpt lat="45.44321225189361" lon="8.234713488970247"><ele>180.0</ele><time>2026-04-26T14:04:17Z</time></trkpt><trkpt lat="45.44302653120368" lon="8.234865208226642"><ele>180.0</ele><time>2026-04-26T14:04:18Z</time></trkpt><trkpt lat="45.44284843419826" lon="8.235009540072067"><ele>180.0</ele><time>2026-04-26T14:04:19Z</time></trkpt><trkpt lat="45.442677912286875" lon="8.235152938649078"><ele>180.0</ele><time>2026-04-26T14:04:20Z</time></trkpt><trkpt lat="45.44250614390833" lon="8.235298259818295"><ele>180.0</ele><time>2026-04-26T14:04:21Z</time></trkpt><trkpt lat="45.44233081034348" lon="8.235442981721658"><ele>180.0</ele><time>2026-04-26T14:04:22Z</time></trkpt><trkpt lat="45.4421543929503" lon="8.235590805344549"><ele>180.0</ele><time>2026-04-26T14:04:23Z</time></trkpt><trkpt lat="45.441980829556016" lon="8.235757300426148"><ele>180.0</ele><time>2026-04-26T14:04:24Z</time></trkpt><trkpt lat="45.44181192315335" lon="8.235943497413158"><ele>180.0</ele><time>2026-04-26T14:04:25Z</time></trkpt><trkpt lat="45.44165123913093" lon="8.236148143634788"><ele>180.0</ele><time>2026-04-26T14:04:26Z</time></trkpt><trkpt lat="45.44149959372058" lon="8.2363784962857"><ele>180.0</ele><time>2026-04-26T14:04:27Z</time></trkpt><trkpt lat="45.44135145904108" lon="8.23661548312323"><ele>180.0</ele><time>2026-04-26T14:04:28Z</time></trkpt><trkpt lat="45.44121127440444" lon="8.236878258244118"><ele>180.0</ele><time>2026-04-26T14:04:29Z</time></trkpt><trkpt lat="45.44107649067125" lon="8.237165818827823"><ele>180.0</ele><time>2026-04-26T14:04:30Z</time></trkpt><trkpt lat="45.44095603162581" lon="8.237462147220938"><ele>180.0</ele><time>2026-04-26T14:04:31Z</time></trkpt><trkpt lat="45.44085730926391" lon="8.237775577891277"><ele>180.0</ele><time>2026-04-26T14:04:32Z</time></trkpt><trkpt lat="45.44076751122153" lon="8.238096249013466"><ele>180.0</ele><time>2026-04-26T14:04:33Z</time></trkpt><trkpt lat="45.44068221943599" lon="8.238425094834321"><ele>180.0</ele><time>2026-04-26T14:04:34Z</time></trkpt><trkpt lat="45.440603337549526" lon="8.238760389306146"><ele>180.0</ele><time>2026-04-26T14:04:35Z</time></trkpt><trkpt lat="45.440522129526066" lon="8.239099676153302"><ele>180.0</ele><time>2026-04-26T14:04:36Z</time></trkpt><trkpt lat="45.440443894736916" lon="8.239431336411906"><ele>179.5</ele><time>2026-04-26T14:04:37Z</time></trkpt><trkpt lat="45.44036768457756" lon="8.23974712389286"><ele>179.0</ele><time>2026-04-26T14:04:38Z</time></trkpt><trkpt lat="45.44029412583126" lon="8.240047917304294"><ele>179.0</ele><time>2026-04-26T14:04:39Z</time></trkpt><trkpt lat="45.44022609501174" lon="8.240337728098284"><ele>179.0</ele><time>2026-04-26T14:04:40Z</time></trkpt><trkpt lat="45.44016305480146" lon="8.240621114961819"><ele>179.0</ele><time>2026-04-26T14:04:41Z</time></trkpt><trkpt lat="45.44010119448256" lon="8.240896464392168"><ele>179.0</ele><time>2026-04-26T14:04:42Z</time></trkpt><trkpt lat="45.44003858437282" lon="8.241154621152885"><ele>179.0</ele><time>2026-04-26T14:04:43Z</time></trkpt><trkpt lat="45.439974782717364" lon="8.241399414429749"><ele>179.0</ele><time>2026-04-26T14:04:44Z</time></trkpt><trkpt lat="45.43991690723946" lon="8.241634498589868"><ele>179.0</ele><time>2026-04-26T14:04:45Z</time></trkpt><trkpt lat="45.43986399454795" lon="8.241853761446711"><ele>179.0</ele><time>2026-04-26T14:04:46Z</time></trkpt><trkpt lat="45.439809984202256" lon="8.242062659506704"><ele>179.0</ele><time>2026-04-26T14:04:47Z</time></trkpt><trkpt lat="45.43975780179111" lon="8.242265372508413"><ele>178.66666666666666</ele><time>2026-04-26T14:04:48Z</time></trkpt><trkpt lat="45.43970327780536" lon="8.242471312642921"><ele>178.33333333333334</ele><time>2026-04-26T14:04:49Z</time></trkpt><trkpt lat="45.439644485314105" lon="8.242691202742604"><ele>178.0</ele><time>2026-04-26T14:04:50Z</time></trkpt><trkpt lat="45.439580341372185" lon="8.242924079490233"><ele>177.66666666666669</ele><time>2026-04-26T14:04:51Z</time></trkpt><trkpt lat="45.43951466296391" lon="8.243165788323052"><ele>177.33333333333334</ele><time>2026-04-26T14:04:52Z</time></trkpt><trkpt lat="45.43946586327154" lon="8.243431703625578"><ele>177.0</ele><time>2026-04-26T14:04:53Z</time></trkpt><trkpt lat="45.4394055429964" lon="8.24370518331184"><ele>176.66666666666666</ele><time>2026-04-26T14:04:54Z</time></trkpt><trkpt lat="45.439342158565466" lon="8.243982974456912"><ele>176.33333333333331</ele><time>2026-04-26T14:04:55Z</time></trkpt><trkpt lat="45.439282336572106" lon="8.244271607612372"><ele>176.0</ele><time>2026-04-26T14:04:56Z</time></trkpt><trkpt lat="45.43922294404084" lon="8.24457010585159"><ele>176.33333333333331</ele><time>2026-04-26T14:04:57Z</time></trkpt><trkpt lat="45.43916700613332" lon="8.244850214465357"><ele>176.66666666666666</ele><time>2026-04-26T14:04:58Z</time></trkpt><trkpt lat="45.43910707201139" lon="8.245134505768863"><ele>177.0</ele><time>2026-04-26T14:04:59Z</time></trkpt><trkpt lat="45.4390397460265" lon="8.245436526398302"><ele>176.0</ele><time>2026-04-26T14:05:00Z</time></trkpt><trkpt lat="45.43897052646205" lon="8.24574311033621"><ele>175.0</ele><time>2026-04-26T14:05:01Z</time></trkpt><trkpt lat="45.438898660954564" lon="8.246056598967453"><ele>175.0</ele><time>2026-04-26T14:05:02Z</time></trkpt><trkpt lat="45.43882575958364" lon="8.246369348237803"><ele>175.0</ele><time>2026-04-26T14:05:03Z</time></trkpt><trkpt lat="45.43875236553221" lon="8.246688955251573"><ele>175.0</ele><time>2026-04-26T14:05:04Z</time></trkpt><trkpt lat="45.43867710551231" lon="8.247007381609707"><ele>175.0</ele><time>2026-04-26T14:05:05Z</time></trkpt><trkpt lat="45.43860199219613" lon="8.247329861613164"><ele>174.0</ele><time>2026-04-26T14:05:06Z</time></trkpt><trkpt lat="45.4385277146331" lon="8.247654175157813"><ele>173.0</ele><time>2026-04-26T14:05:07Z</time></trkpt><trkpt lat="45.43845239354634" lon="8.247978591312389"><ele>173.0</ele><time>2026-04-26T14:05:08Z</time></trkpt><trkpt lat="45.43837732995909" lon="8.248301647768564"><ele>173.0</ele><time>2026-04-26T14:05:09Z</time></trkpt><trkpt lat="45.43829996425606" lon="8.248628586351286"><ele>173.0</ele><time>2026-04-26T14:05:10Z</time></trkpt><trkpt lat="45.43822211060604" lon="8.248955578837691"><ele>173.0</ele><time>2026-04-26T14:05:11Z</time></trkpt><trkpt lat="45.438145778155956" lon="8.249285724628516"><ele>173.0</ele><time>2026-04-26T14:05:12Z</time></trkpt><trkpt lat="45.43806968613023" lon="8.24961541914069"><ele>173.0</ele><time>2026-04-26T14:05:13Z</time></trkpt><trkpt lat="45.43799290190366" lon="8.24994519087615"><ele>174.0</ele><time>2026-04-26T14:05:14Z</time></trkpt><trkpt lat="45.43791642385601" lon="8.250274912041714"><ele>175.0</ele><time>2026-04-26T14:05:15Z</time></trkpt><trkpt lat="45.43784154684925" lon="8.250607635584268"><ele>174.5</ele><time>2026-04-26T14:05:16Z</time></trkpt><trkpt lat="45.437764346551525" lon="8.250940477003503"><ele>174.0</ele><time>2026-04-26T14:05:17Z</time></trkpt><trkpt lat="45.43768548512286" lon="8.251273484310213"><ele>173.0</ele><time>2026-04-26T14:05:18Z</time></trkpt><trkpt lat="45.4376057996429" lon="8.251606294730653"><ele>172.0</ele><time>2026-04-26T14:05:19Z</time></trkpt><trkpt lat="45.43752652829982" lon="8.251940154654992"><ele>172.0</ele><time>2026-04-26T14:05:20Z</time></trkpt><trkpt lat="45.437448962999" lon="8.252273932668217"><ele>172.0</ele><time>2026-04-26T14:05:21Z</time></trkpt><trkpt lat="45.43737219524318" lon="8.252608540720171"><ele>172.0</ele><time>2026-04-26T14:05:22Z</time></trkpt><trkpt lat="45.43729595114485" lon="8.252941510725975"><ele>172.0</ele><time>2026-04-26T14:05:23Z</time></trkpt><trkpt lat="45.43721718445477" lon="8.253274153120868"><ele>172.0</ele><time>2026-04-26T14:05:24Z</time></trkpt><trkpt lat="45.43713847622627" lon="8.253604491479118"><ele>172.0</ele><time>2026-04-26T14:05:25Z</time></trkpt><trkpt lat="45.43706252184275" lon="8.253935431769586"><ele>172.5</ele><time>2026-04-26T14:05:26Z</time></trkpt><trkpt lat="45.4369874849354" lon="8.254268723734237"><ele>173.0</ele><time>2026-04-26T14:05:27Z</time></trkpt><trkpt lat="45.4369119111927" lon="8.254602279618052"><ele>173.0</ele><time>2026-04-26T14:05:28Z</time></trkpt><trkpt lat="45.43683261928404" lon="8.25493772671059"><ele>173.0</ele><time>2026-04-26T14:05:29Z</time></trkpt><trkpt lat="45.43675423637884" lon="8.2552731843895"><ele>173.0</ele><time>2026-04-26T14:05:30Z</time></trkpt><trkpt lat="45.43667749471488" lon="8.255609954166324"><ele>173.0</ele><time>2026-04-26T14:05:31Z</time></trkpt><trkpt lat="45.43660074939524" lon="8.25594517506697"><ele>173.0</ele><time>2026-04-26T14:05:32Z</time></trkpt><trkpt lat="45.43652599678439" lon="8.256282322181367"><ele>173.0</ele><time>2026-04-26T14:05:33Z</time></trkpt><trkpt lat="45.43645156069467" lon="8.256620237561982"><ele>173.0</ele><time>2026-04-26T14:05:34Z</time></trkpt><trkpt lat="45.436378873576956" lon="8.256957286343113"><ele>173.0</ele><time>2026-04-26T14:05:35Z</time></trkpt><trkpt lat="45.43630543750437" lon="8.257296315332646"><ele>172.5</ele><time>2026-04-26T14:05:36Z</time></trkpt><trkpt lat="45.436232274452074" lon="8.257636621706899"><ele>172.0</ele><time>2026-04-26T14:05:37Z</time></trkpt><trkpt lat="45.43615886959894" lon="8.257976136511447"><ele>172.0</ele><time>2026-04-26T14:05:38Z</time></trkpt><trkpt lat="45.43608592999596" lon="8.258316628086277"><ele>172.0</ele><time>2026-04-26T14:05:39Z</time></trkpt><trkpt lat="45.43601482856992" lon="8.258657013807417"><ele>172.0</ele><time>2026-04-26T14:05:40Z</time></trkpt><trkpt lat="45.435943694142054" lon="8.258998848138697"><ele>172.0</ele><time>2026-04-26T14:05:41Z</time></trkpt><trkpt lat="45.43587125202562" lon="8.259341317386397"><ele>172.0</ele><time>2026-04-26T14:05:42Z</time></trkpt><trkpt lat="45.435799368530034" lon="8.259686642067463"><ele>172.0</ele><time>2026-04-26T14:05:43Z</time></trkpt><trkpt lat="45.435726511395735" lon="8.260033765459369"><ele>172.0</ele><time>2026-04-26T14:05:44Z</time></trkpt><trkpt lat="45.43565310844884" lon="8.260381845665838"><ele>172.0</ele><time>2026-04-26T14:05:45Z</time></trkpt><trkpt lat="45.43558001117442" lon="8.260729336947506"><ele>172.0</ele><time>2026-04-26T14:05:46Z</time></trkpt><trkpt lat="45.43550673048524" lon="8.261076975570639"><ele>172.0</ele><time>2026-04-26T14:05:47Z</time></trkpt><trkpt lat="45.4354333401917" lon="8.261425500025776"><ele>171.5</ele><time>2026-04-26T14:05:48Z</time></trkpt><trkpt lat="45.435358924711885" lon="8.26177406549214"><ele>171.0</ele><time>2026-04-26T14:05:49Z</time></trkpt><trkpt lat="45.435285692044246" lon="8.262123979160561"><ele>170.5</ele><time>2026-04-26T14:05:50Z</time></trkpt><trkpt lat="45.435213310899705" lon="8.262474694365215"><ele>170.0</ele><time>2026-04-26T14:05:51Z</time></trkpt><trkpt lat="45.435139101824724" lon="8.262825510397514"><ele>170.5</ele><time>2026-04-26T14:05:52Z</time></trkpt><trkpt lat="45.435065006358954" lon="8.263176091721503"><ele>171.0</ele><time>2026-04-26T14:05:53Z</time></trkpt><trkpt lat="45.43499139816896" lon="8.26352793565057"><ele>171.0</ele><time>2026-04-26T14:05:54Z</time></trkpt><trkpt lat="45.43491873427474" lon="8.263878976558619"><ele>171.0</ele><time>2026-04-26T14:05:55Z</time></trkpt><trkpt lat="45.43484696896719" lon="8.264230201215334"><ele>171.5</ele><time>2026-04-26T14:05:56Z</time></trkpt><trkpt lat="45.434775038341996" lon="8.264580377666533"><ele>172.0</ele><time>2026-04-26T14:05:57Z</time></trkpt><trkpt lat="45.43470276784065" lon="8.264929377739334"><ele>171.5</ele><time>2026-04-26T14:05:58Z</time></trkpt><trkpt lat="45.434628571864764" lon="8.265280311411871"><ele>171.0</ele><time>2026-04-26T14:05:59Z</time></trkpt><trkpt lat="45.43455350330771" lon="8.265631132336074"><ele>171.0</ele><time>2026-04-26T14:06:00Z</time></trkpt><trkpt lat="45.4344780492438" lon="8.265984410315586"><ele>171.0</ele><time>2026-04-26T14:06:01Z</time></trkpt><trkpt lat="45.434402942998254" lon="8.26633859498723"><ele>170.5</ele><time>2026-04-26T14:06:02Z</time></trkpt><trkpt lat="45.43432811921088" lon="8.266693754400338"><ele>170.0</ele><time>2026-04-26T14:06:03Z</time></trkpt><trkpt lat="45.43425386745154" lon="8.267048883233661"><ele>169.5</ele><time>2026-04-26T14:06:04Z</time></trkpt><trkpt lat="45.434179076103604" lon="8.267408697927713"><ele>169.0</ele><time>2026-04-26T14:06:05Z</time></trkpt><trkpt lat="45.4341032828911" lon="8.267768601017012"><ele>169.0</ele><time>2026-04-26T14:06:06Z</time></trkpt><trkpt lat="45.43402686835754" lon="8.268129172371498"><ele>169.0</ele><time>2026-04-26T14:06:07Z</time></trkpt><trkpt lat="45.433952399475864" lon="8.268489427137279"><ele>169.0</ele><time>2026-04-26T14:06:08Z</time></trkpt><trkpt lat="45.43387736324963" lon="8.26885255531169"><ele>169.0</ele><time>2026-04-26T14:06:09Z</time></trkpt><trkpt lat="45.433802406567715" lon="8.269217371018955"><ele>169.0</ele><time>2026-04-26T14:06:10Z</time></trkpt><trkpt lat="45.433726785003046" lon="8.269583234332895"><ele>169.0</ele><time>2026-04-26T14:06:11Z</time></trkpt><trkpt lat="45.433650482814926" lon="8.269943374855579"><ele>169.0</ele><time>2026-04-26T14:06:12Z</time></trkpt><trkpt lat="45.43357525086379" lon="8.270303721546599"><ele>169.0</ele><time>2026-04-26T14:06:13Z</time></trkpt><trkpt lat="45.43350011551291" lon="8.270661788070589"><ele>168.5</ele><time>2026-04-26T14:06:14Z</time></trkpt><trkpt lat="45.43342385726355" lon="8.271017044004115"><ele>168.0</ele><time>2026-04-26T14:06:15Z</time></trkpt><trkpt lat="45.43334813362131" lon="8.271373003407142"><ele>168.0</ele><time>2026-04-26T14:06:16Z</time></trkpt><trkpt lat="45.433273880047835" lon="8.271726810455295"><ele>168.0</ele><time>2026-04-26T14:06:17Z</time></trkpt><trkpt lat="45.43319918336324" lon="8.27207844985895"><ele>168.5</ele><time>2026-04-26T14:06:18Z</time></trkpt><trkpt lat="45.43312390197996" lon="8.272427455611739"><ele>169.0</ele><time>2026-04-26T14:06:19Z</time></trkpt><trkpt lat="45.43304818275978" lon="8.272776037984517"><ele>168.5</ele><time>2026-04-26T14:06:20Z</time></trkpt><trkpt lat="45.43297389712364" lon="8.273125830222364"><ele>168.0</ele><time>2026-04-26T14:06:21Z</time></trkpt><trkpt lat="45.432898045138394" lon="8.273472411941333"><ele>168.0</ele><time>2026-04-26T14:06:22Z</time></trkpt><trkpt lat="45.43282257293386" lon="8.273816923535849"><ele>168.0</ele><time>2026-04-26T14:06:23Z</time></trkpt><trkpt lat="45.43274771715637" lon="8.274159145923717"><ele>167.5</ele><time>2026-04-26T14:06:24Z</time></trkpt><trkpt lat="45.43267400792156" lon="8.27450122611582"><ele>167.0</ele><time>2026-04-26T14:06:25Z</time></trkpt><trkpt lat="45.43260239722767" lon="8.274841124927795"><ele>166.5</ele><time>2026-04-26T14:06:26Z</time></trkpt><trkpt lat="45.43253209244429" lon="8.275181066295785"><ele>166.0</ele><time>2026-04-26T14:06:27Z</time></trkpt><trkpt lat="45.43246149400382" lon="8.275520757191844"><ele>166.5</ele><time>2026-04-26T14:06:28Z</time></trkpt><trkpt lat="45.43239114083904" lon="8.275859995372889"><ele>167.0</ele><time>2026-04-26T14:06:29Z</time></trkpt><trkpt lat="45.43231956669645" lon="8.276199309579361"><ele>166.5</ele><time>2026-04-26T14:06:30Z</time></trkpt><trkpt lat="45.4322485947271" lon="8.276536615977909"><ele>166.0</ele><time>2026-04-26T14:06:31Z</time></trkpt><trkpt lat="45.43217752459884" lon="8.276873168119133"><ele>166.0</ele><time>2026-04-26T14:06:32Z</time></trkpt><trkpt lat="45.432106379860834" lon="8.277208662436212"><ele>166.0</ele><time>2026-04-26T14:06:33Z</time></trkpt><trkpt lat="45.43203715778977" lon="8.277542806069809"><ele>166.0</ele><time>2026-04-26T14:06:34Z</time></trkpt><trkpt lat="45.431968429676886" lon="8.277876544594953"><ele>166.0</ele><time>2026-04-26T14:06:35Z</time></trkpt><trkpt lat="45.43189860107326" lon="8.278209555795106"><ele>165.5</ele><time>2026-04-26T14:06:36Z</time></trkpt><trkpt lat="45.43182893367854" lon="8.278543947457528"><ele>165.0</ele><time>2026-04-26T14:06:37Z</time></trkpt><trkpt lat="45.431759850278205" lon="8.278875258634127"><ele>166.0</ele><time>2026-04-26T14:06:38Z</time></trkpt><trkpt lat="45.43169124085707" lon="8.279207187295713"><ele>167.0</ele><time>2026-04-26T14:06:39Z</time></trkpt><trkpt lat="45.43162255069092" lon="8.27954084948152"><ele>166.5</ele><time>2026-04-26T14:06:40Z</time></trkpt><trkpt lat="45.43155304389983" lon="8.279875755036905"><ele>166.0</ele><time>2026-04-26T14:06:41Z</time></trkpt><trkpt lat="45.431484419758085" lon="8.28021239029291"><ele>166.0</ele><time>2026-04-26T14:06:42Z</time></trkpt><trkpt lat="45.43141724784814" lon="8.28054690234381"><ele>166.0</ele><time>2026-04-26T14:06:43Z</time></trkpt><trkpt lat="45.43134560422051" lon="8.280882949704393"><ele>168.0</ele><time>2026-04-26T14:06:44Z</time></trkpt><trkpt lat="45.431273460299685" lon="8.281221946484319"><ele>170.0</ele><time>2026-04-26T14:06:45Z</time></trkpt><trkpt lat="45.431201092901254" lon="8.28155968312397"><ele>170.0</ele><time>2026-04-26T14:06:46Z</time></trkpt><trkpt lat="45.43112966136704" lon="8.281898707047429"><ele>170.0</ele><time>2026-04-26T14:06:47Z</time></trkpt><trkpt lat="45.43105643556651" lon="8.282241336674947"><ele>169.0</ele><time>2026-04-26T14:06:48Z</time></trkpt><trkpt lat="45.43098394182995" lon="8.28258237066527"><ele>168.0</ele><time>2026-04-26T14:06:49Z</time></trkpt><trkpt lat="45.43091156795313" lon="8.282921276078815"><ele>167.5</ele><time>2026-04-26T14:06:50Z</time></trkpt><trkpt lat="45.430841210602125" lon="8.28325991462937"><ele>167.0</ele><time>2026-04-26T14:06:51Z</time></trkpt><trkpt lat="45.43077248745288" lon="8.283598047937032"><ele>166.5</ele><time>2026-04-26T14:06:52Z</time></trkpt><trkpt lat="45.430704637074875" lon="8.283934752275135"><ele>166.0</ele><time>2026-04-26T14:06:53Z</time></trkpt><trkpt lat="45.430633763650135" lon="8.284267862996268"><ele>166.0</ele><time>2026-04-26T14:06:54Z</time></trkpt><trkpt lat="45.4305648786782" lon="8.28459774241953"><ele>166.0</ele><time>2026-04-26T14:06:55Z</time></trkpt><trkpt lat="45.43049585127078" lon="8.284926841394697"><ele>166.5</ele><time>2026-04-26T14:06:56Z</time></trkpt><trkpt lat="45.4304228221839" lon="8.285252463119349"><ele>167.0</ele><time>2026-04-26T14:06:57Z</time></trkpt><trkpt lat="45.43034365709145" lon="8.285574518351586"><ele>165.5</ele><time>2026-04-26T14:06:58Z</time></trkpt><trkpt lat="45.43025564558214" lon="8.285895039587155"><ele>164.0</ele><time>2026-04-26T14:06:59Z</time></trkpt><trkpt lat="45.430155340755135" lon="8.286208154843603"><ele>163.5</ele><time>2026-04-26T14:07:00Z</time></trkpt><trkpt lat="45.43004365897928" lon="8.286515697360953"><ele>163.0</ele><time>2026-04-26T14:07:01Z</time></trkpt><trkpt lat="45.42991970536165" lon="8.286814165049082"><ele>163.0</ele><time>2026-04-26T14:07:02Z</time></trkpt><trkpt lat="45.42978279807683" lon="8.287102819205243"><ele>163.0</ele><time>2026-04-26T14:07:03Z</time></trkpt><trkpt lat="45.42963280053968" lon="8.28738469126198"><ele>162.5</ele><time>2026-04-26T14:07:04Z</time></trkpt><trkpt lat="45.42947085635221" lon="8.287656683462632"><ele>162.0</ele><time>2026-04-26T14:07:05Z</time></trkpt><trkpt lat="45.42929447320793" lon="8.287919735285366"><ele>162.5</ele><time>2026-04-26T14:07:06Z</time></trkpt><trkpt lat="45.42910697795862" lon="8.288170498219788"><ele>163.0</ele><time>2026-04-26T14:07:07Z</time></trkpt><trkpt lat="45.428912063537794" lon="8.288411690811175"><ele>162.5</ele><time>2026-04-26T14:07:08Z</time></trkpt><trkpt lat="45.428713891586824" lon="8.288652404029929"><ele>162.0</ele><time>2026-04-26T14:07:09Z</time></trkpt><trkpt lat="45.42851465653014" lon="8.288893616544973"><ele>162.5</ele><time>2026-04-26T14:07:10Z</time></trkpt><trkpt lat="45.428321040738865" lon="8.289141625510327"><ele>163.0</ele><time>2026-04-26T14:07:11Z</time></trkpt><trkpt lat="45.42814053943338" lon="8.28940504084272"><ele>162.5</ele><time>2026-04-26T14:07:12Z</time></trkpt><trkpt lat="45.42796949214514" lon="8.289687375077857"><ele>162.0</ele><time>2026-04-26T14:07:13Z</time></trkpt><trkpt lat="45.427821585075485" lon="8.289977484258388"><ele>162.0</ele><time>2026-04-26T14:07:14Z</time></trkpt><trkpt lat="45.427682034498474" lon="8.290278710220647"><ele>162.0</ele><time>2026-04-26T14:07:15Z</time></trkpt><trkpt lat="45.42755503101792" lon="8.290582149965521"><ele>162.0</ele><time>2026-04-26T14:07:16Z</time></trkpt><trkpt lat="45.427440005452155" lon="8.290893937242263"><ele>162.0</ele><time>2026-04-26T14:07:17Z</time></trkpt><trkpt lat="45.42734239566856" lon="8.29121296117988"><ele>162.0</ele><time>2026-04-26T14:07:18Z</time></trkpt><trkpt lat="45.4272560337476" lon="8.291535314402635"><ele>162.0</ele><time>2026-04-26T14:07:19Z</time></trkpt><trkpt lat="45.42717787509164" lon="8.291862006642157"><ele>161.0</ele><time>2026-04-26T14:07:20Z</time></trkpt><trkpt lat="45.4271101114575" lon="8.292188041275756"><ele>160.0</ele><time>2026-04-26T14:07:21Z</time></trkpt><trkpt lat="45.42704372483181" lon="8.292513868974675"><ele>160.0</ele><time>2026-04-26T14:07:22Z</time></trkpt><trkpt lat="45.42695526149673" lon="8.292830622123944"><ele>160.0</ele><time>2026-04-26T14:07:23Z</time></trkpt><trkpt lat="45.426911223237234" lon="8.293170134760437"><ele>159.5</ele><time>2026-04-26T14:07:24Z</time></trkpt><trkpt lat="45.42684663019008" lon="8.293488621692441"><ele>159.0</ele><time>2026-04-26T14:07:25Z</time></trkpt><trkpt lat="45.426787170104575" lon="8.293790133252015"><ele>159.0</ele><time>2026-04-26T14:07:26Z</time></trkpt><trkpt lat="45.426733157871574" lon="8.294074610066534"><ele>159.0</ele><time>2026-04-26T14:07:27Z</time></trkpt><trkpt lat="45.42668292017509" lon="8.294346885631109"><ele>159.0</ele><time>2026-04-26T14:07:28Z</time></trkpt><trkpt lat="45.426630714571615" lon="8.294603935143332"><ele>159.33333333333334</ele><time>2026-04-26T14:07:29Z</time></trkpt><trkpt lat="45.42658050017435" lon="8.294850673228305"><ele>159.66666666666669</ele><time>2026-04-26T14:07:30Z</time></trkpt><trkpt lat="45.4265300863839" lon="8.295095745556582"><ele>160.0</ele><time>2026-04-26T14:07:31Z</time></trkpt><trkpt lat="45.426481829004175" lon="8.295341181672084"><ele>160.0</ele><time>2026-04-26T14:07:32Z</time></trkpt><trkpt lat="45.4264323665331" lon="8.295585673237012"><ele>160.0</ele><time>2026-04-26T14:07:33Z</time></trkpt><trkpt lat="45.42638316599379" lon="8.295830370920081"><ele>160.0</ele><time>2026-04-26T14:07:34Z</time></trkpt><trkpt lat="45.426332778637715" lon="8.296065027614471"><ele>159.66666666666669</ele><time>2026-04-26T14:07:35Z</time></trkpt><trkpt lat="45.42628634511632" lon="8.296293010857019"><ele>159.33333333333334</ele><time>2026-04-26T14:07:36Z</time></trkpt><trkpt lat="45.426242326648456" lon="8.296512836132047"><ele>159.0</ele><time>2026-04-26T14:07:37Z</time></trkpt><trkpt lat="45.42621228574385" lon="8.29672107127594"><ele>159.0</ele><time>2026-04-26T14:07:38Z</time></trkpt><trkpt lat="45.42620352825611" lon="8.296917567649606"><ele>159.0</ele><time>2026-04-26T14:07:39Z</time></trkpt><trkpt lat="45.426198329863354" lon="8.297095655168361"><ele>159.0</ele><time>2026-04-26T14:07:40Z</time></trkpt><trkpt lat="45.42616768429121" lon="8.297262177610431"><ele>159.0</ele><time>2026-04-26T14:07:41Z</time></trkpt><trkpt lat="45.42611902099444" lon="8.297420913120998"><ele>159.0</ele><time>2026-04-26T14:07:42Z</time></trkpt><trkpt lat="45.42607311077152" lon="8.297598204459186"><ele>159.0</ele><time>2026-04-26T14:07:43Z</time></trkpt><trkpt lat="45.42602810838233" lon="8.297785789474682"><ele>159.0</ele><time>2026-04-26T14:07:44Z</time></trkpt><trkpt lat="45.425955581101704" lon="8.297966697323028"><ele>159.0</ele><time>2026-04-26T14:07:45Z</time></trkpt><trkpt lat="45.42586872365531" lon="8.298156981611497"><ele>159.66666666666666</ele><time>2026-04-26T14:07:46Z</time></trkpt><trkpt lat="45.425779586122275" lon="8.29835770545753"><ele>160.33333333333331</ele><time>2026-04-26T14:07:47Z</time></trkpt><trkpt lat="45.42568922191432" lon="8.298576006399214"><ele>161.0</ele><time>2026-04-26T14:07:48Z</time></trkpt><trkpt lat="45.42559607784238" lon="8.298803528394826"><ele>161.0</ele><time>2026-04-26T14:07:49Z</time></trkpt><trkpt lat="45.4254978706549" lon="8.299038602733958"><ele>161.0</ele><time>2026-04-26T14:07:50Z</time></trkpt><trkpt lat="45.42538858082606" lon="8.29927523079881"><ele>161.0</ele><time>2026-04-26T14:07:51Z</time></trkpt><trkpt lat="45.42526493455412" lon="8.299508602059651"><ele>160.66666666666666</ele><time>2026-04-26T14:07:52Z</time></trkpt><trkpt lat="45.42512967771526" lon="8.299743034693819"><ele>160.33333333333334</ele><time>2026-04-26T14:07:53Z</time></trkpt><trkpt lat="45.424987323858645" lon="8.2999769022554"><ele>160.0</ele><time>2026-04-26T14:07:54Z</time></trkpt><trkpt lat="45.42483535774443" lon="8.300217212225645"><ele>160.0</ele><time>2026-04-26T14:07:55Z</time></trkpt><trkpt lat="45.42467725686761" lon="8.300463519644307"><ele>160.0</ele><time>2026-04-26T14:07:56Z</time></trkpt><trkpt lat="45.42451544724684" lon="8.300716517774267"><ele>159.5</ele><time>2026-04-26T14:07:57Z</time></trkpt><trkpt lat="45.424350468816826" lon="8.300974900645816"><ele>159.0</ele><time>2026-04-26T14:07:58Z</time></trkpt><trkpt lat="45.42418183314456" lon="8.301237609097807"><ele>159.5</ele><time>2026-04-26T14:07:59Z</time></trkpt><trkpt lat="45.42402061808022" lon="8.30149272644931"><ele>160.0</ele><time>2026-04-26T14:08:00Z</time></trkpt><trkpt lat="45.42386868547488" lon="8.301734877105538"><ele>159.5</ele><time>2026-04-26T14:08:01Z</time></trkpt><trkpt lat="45.42371611298546" lon="8.301975265784128"><ele>159.0</ele><time>2026-04-26T14:08:02Z</time></trkpt><trkpt lat="45.4235608109191" lon="8.302218013457255"><ele>159.5</ele><time>2026-04-26T14:08:03Z</time></trkpt><trkpt lat="45.423403671024026" lon="8.302462940832296"><ele>160.0</ele><time>2026-04-26T14:08:04Z</time></trkpt><trkpt lat="45.423246984859986" lon="8.302710615354668"><ele>160.0</ele><time>2026-04-26T14:08:05Z</time></trkpt><trkpt lat="45.42309046130109" lon="8.302959946353932"><ele>160.0</ele><time>2026-04-26T14:08:06Z</time></trkpt><trkpt lat="45.42293201483227" lon="8.303207814231452"><ele>160.0</ele><time>2026-04-26T14:08:07Z</time></trkpt><trkpt lat="45.42277065580015" lon="8.303453535062516"><ele>160.0</ele><time>2026-04-26T14:08:08Z</time></trkpt><trkpt lat="45.42260964166847" lon="8.303704331138777"><ele>160.0</ele><time>2026-04-26T14:08:09Z</time></trkpt><trkpt lat="45.4224490586443" lon="8.303953145990759"><ele>160.0</ele><time>2026-04-26T14:08:10Z</time></trkpt><trkpt lat="45.42228788944837" lon="8.304203557493189"><ele>159.0</ele><time>2026-04-26T14:08:11Z</time></trkpt><trkpt lat="45.42212618098448" lon="8.304456261983765"><ele>158.0</ele><time>2026-04-26T14:08:12Z</time></trkpt><trkpt lat="45.42196572603193" lon="8.304708810125353"><ele>158.0</ele><time>2026-04-26T14:08:13Z</time></trkpt><trkpt lat="45.421805435938445" lon="8.304961397948208"><ele>158.0</ele><time>2026-04-26T14:08:14Z</time></trkpt><trkpt lat="45.42164485984173" lon="8.305211758576638"><ele>158.0</ele><time>2026-04-26T14:08:15Z</time></trkpt><trkpt lat="45.42148434704671" lon="8.30545882891308"><ele>158.0</ele><time>2026-04-26T14:08:16Z</time></trkpt><trkpt lat="45.421324711291284" lon="8.305705230846044"><ele>158.0</ele><time>2026-04-26T14:08:17Z</time></trkpt><trkpt lat="45.42116684580323" lon="8.305951070973553"><ele>158.0</ele><time>2026-04-26T14:08:18Z</time></trkpt><trkpt lat="45.42101104626288" lon="8.306193754974583"><ele>157.5</ele><time>2026-04-26T14:08:19Z</time></trkpt><trkpt lat="45.42085492152609" lon="8.306436932653417"><ele>157.0</ele><time>2026-04-26T14:08:20Z</time></trkpt><trkpt lat="45.42070082684355" lon="8.306677527791642"><ele>157.0</ele><time>2026-04-26T14:08:21Z</time></trkpt><trkpt lat="45.42054445942768" lon="8.306922718228984"><ele>157.0</ele><time>2026-04-26T14:08:22Z</time></trkpt><trkpt lat="45.42038683167441" lon="8.307168254427944"><ele>157.5</ele><time>2026-04-26T14:08:23Z</time></trkpt><trkpt lat="45.42022877228778" lon="8.307414120324204"><ele>158.0</ele><time>2026-04-26T14:08:24Z</time></trkpt><trkpt lat="45.42006998220853" lon="8.307662163972786"><ele>158.0</ele><time>2026-04-26T14:08:25Z</time></trkpt><trkpt lat="45.41990998964277" lon="8.30791120061637"><ele>158.0</ele><time>2026-04-26T14:08:26Z</time></trkpt><trkpt lat="45.41974805521309" lon="8.308163148911987"><ele>158.0</ele><time>2026-04-26T14:08:27Z</time></trkpt><trkpt lat="45.41958618861337" lon="8.30841473811062"><ele>158.0</ele><time>2026-04-26T14:08:28Z</time></trkpt><trkpt lat="45.41942359429144" lon="8.308665900526275"><ele>158.0</ele><time>2026-04-26T14:08:29Z</time></trkpt><trkpt lat="45.41925975493066" lon="8.308917828811683"><ele>158.0</ele><time>2026-04-26T14:08:30Z</time></trkpt><trkpt lat="45.419096708990885" lon="8.309170977936724"><ele>158.0</ele><time>2026-04-26T14:08:31Z</time></trkpt><trkpt lat="45.41893192138821" lon="8.309427554004488"><ele>158.0</ele><time>2026-04-26T14:08:32Z</time></trkpt><trkpt lat="45.418768319806226" lon="8.309682469274598"><ele>158.5</ele><time>2026-04-26T14:08:33Z</time></trkpt><trkpt lat="45.4186055184922" lon="8.309938177907139"><ele>159.0</ele><time>2026-04-26T14:08:34Z</time></trkpt><trkpt lat="45.41844282970328" lon="8.310193315287803"><ele>159.0</ele><time>2026-04-26T14:08:35Z</time></trkpt><trkpt lat="45.41827921333681" lon="8.310445664020092"><ele>159.0</ele><time>2026-04-26T14:08:36Z</time></trkpt><trkpt lat="45.41811583378284" lon="8.310696451376362"><ele>157.0</ele><time>2026-04-26T14:08:37Z</time></trkpt><trkpt lat="45.41795738300356" lon="8.310944252552996"><ele>155.0</ele><time>2026-04-26T14:08:38Z</time></trkpt><trkpt lat="45.41779864978725" lon="8.311193197989924"><ele>154.5</ele><time>2026-04-26T14:08:39Z</time></trkpt><trkpt lat="45.41763912783277" lon="8.311441883057821"><ele>154.0</ele><time>2026-04-26T14:08:40Z</time></trkpt><trkpt lat="45.4174789249593" lon="8.31169128405793"><ele>154.0</ele><time>2026-04-26T14:08:41Z</time></trkpt><trkpt lat="45.41732063695374" lon="8.311942694221777"><ele>154.0</ele><time>2026-04-26T14:08:42Z</time></trkpt><trkpt lat="45.417164019910786" lon="8.312194494126116"><ele>154.0</ele><time>2026-04-26T14:08:43Z</time></trkpt><trkpt lat="45.417009667730696" lon="8.3124474560189"><ele>154.0</ele><time>2026-04-26T14:08:44Z</time></trkpt><trkpt lat="45.41686020513736" lon="8.312706588056663"><ele>154.0</ele><time>2026-04-26T14:08:45Z</time></trkpt><trkpt lat="45.41671294882229" lon="8.312969727524498"><ele>154.0</ele><time>2026-04-26T14:08:46Z</time></trkpt><trkpt lat="45.41656480145287" lon="8.313235189530895"><ele>154.0</ele><time>2026-04-26T14:08:47Z</time></trkpt><trkpt lat="45.416417638102985" lon="8.313506393425424"><ele>154.0</ele><time>2026-04-26T14:08:48Z</time></trkpt><trkpt lat="45.4162753153294" lon="8.313781260968517"><ele>153.5</ele><time>2026-04-26T14:08:49Z</time></trkpt><trkpt lat="45.41613597489827" lon="8.31406367198454"><ele>153.0</ele><time>2026-04-26T14:08:50Z</time></trkpt><trkpt lat="45.41599995254917" lon="8.314349519713526"><ele>153.0</ele><time>2026-04-26T14:08:51Z</time></trkpt><trkpt lat="45.41586321105447" lon="8.314643424272123"><ele>153.0</ele><time>2026-04-26T14:08:52Z</time></trkpt><trkpt lat="45.415729324486264" lon="8.314940478506935"><ele>153.0</ele><time>2026-04-26T14:08:53Z</time></trkpt><trkpt lat="45.41559825735847" lon="8.315239180525843"><ele>153.0</ele><time>2026-04-26T14:08:54Z</time></trkpt><trkpt lat="45.41546966342348" lon="8.315543961299722"><ele>152.0</ele><time>2026-04-26T14:08:54.999Z</time></trkpt><trkpt lat="45.41534348729739" lon="8.315855632289912"><ele>151.0</ele><time>2026-04-26T14:08:55.999Z</time></trkpt><trkpt lat="45.41521375700209" lon="8.316170841268368"><ele>150.0</ele><time>2026-04-26T14:08:56.999Z</time></trkpt><trkpt lat="45.415082771615175" lon="8.316490960850198"><ele>149.0</ele><time>2026-04-26T14:08:57.999Z</time></trkpt><trkpt lat="45.414950670159406" lon="8.316813749981556"><ele>149.0</ele><time>2026-04-26T14:08:58.999Z</time></trkpt><trkpt lat="45.41481833832067" lon="8.317139768185072"><ele>149.0</ele><time>2026-04-26T14:08:59.999Z</time></trkpt><trkpt lat="45.41468426317868" lon="8.317466914441551"><ele>149.0</ele><time>2026-04-26T14:09:00.999Z</time></trkpt><trkpt lat="45.41454813888434" lon="8.317791672443482"><ele>149.0</ele><time>2026-04-26T14:09:01.999Z</time></trkpt><trkpt lat="45.41441187101613" lon="8.31811177734258"><ele>149.0</ele><time>2026-04-26T14:09:02.999Z</time></trkpt><trkpt lat="45.414266503321166" lon="8.318428008066032"><ele>149.0</ele><time>2026-04-26T14:09:03.999Z</time></trkpt><trkpt lat="45.41410704984914" lon="8.318722356962756"><ele>149.0</ele><time>2026-04-26T14:09:04.999Z</time></trkpt><trkpt lat="45.41394411134771" lon="8.319011870602521"><ele>149.0</ele><time>2026-04-26T14:09:05.999Z</time></trkpt><trkpt lat="45.41378149723682" lon="8.319303596445726"><ele>149.0</ele><time>2026-04-26T14:09:06.999Z</time></trkpt><trkpt lat="45.41361426780018" lon="8.319591821277713"><ele>149.0</ele><time>2026-04-26T14:09:07.999Z</time></trkpt><trkpt lat="45.413445217657916" lon="8.319876028411311"><ele>148.5</ele><time>2026-04-26T14:09:08.999Z</time></trkpt><trkpt lat="45.413277935157446" lon="8.320158009998128"><ele>148.0</ele><time>2026-04-26T14:09:09.999Z</time></trkpt><trkpt lat="45.41311133985989" lon="8.320439334892106"><ele>149.5</ele><time>2026-04-26T14:09:10.999Z</time></trkpt><trkpt lat="45.41294583673116" lon="8.320719636616795"><ele>151.0</ele><time>2026-04-26T14:09:11.999Z</time></trkpt><trkpt lat="45.41277977863301" lon="8.321000370430026"><ele>151.0</ele><time>2026-04-26T14:09:12.999Z</time></trkpt><trkpt lat="45.412617362450746" lon="8.321281233857077"><ele>151.0</ele><time>2026-04-26T14:09:13.999Z</time></trkpt><trkpt lat="45.412453363770155" lon="8.32155740639325"><ele>150.5</ele><time>2026-04-26T14:09:14.999Z</time></trkpt><trkpt lat="45.41228888447423" lon="8.321829998580789"><ele>150.0</ele><time>2026-04-26T14:09:15.999Z</time></trkpt><trkpt lat="45.41212399601359" lon="8.322101935085296"><ele>149.0</ele><time>2026-04-26T14:09:16.999Z</time></trkpt><trkpt lat="45.411960915576195" lon="8.322374750640128"><ele>148.0</ele><time>2026-04-26T14:09:17.999Z</time></trkpt><trkpt lat="45.41180086201876" lon="8.322651272398774"><ele>148.0</ele><time>2026-04-26T14:09:18.999Z</time></trkpt><trkpt lat="45.41163951918994" lon="8.322926312381298"><ele>148.0</ele><time>2026-04-26T14:09:19.999Z</time></trkpt><trkpt lat="45.41147864943561" lon="8.323199574266946"><ele>148.0</ele><time>2026-04-26T14:09:20.999Z</time></trkpt><trkpt lat="45.411317646448836" lon="8.323473651336032"><ele>148.0</ele><time>2026-04-26T14:09:21.999Z</time></trkpt><trkpt lat="45.41115680853423" lon="8.323747526049445"><ele>148.0</ele><time>2026-04-26T14:09:22.999Z</time></trkpt><trkpt lat="45.41099531166691" lon="8.324017929475074"><ele>148.0</ele><time>2026-04-26T14:09:23.999Z</time></trkpt><trkpt lat="45.410834456005716" lon="8.32428687451063"><ele>148.0</ele><time>2026-04-26T14:09:24.999Z</time></trkpt><trkpt lat="45.41067579284193" lon="8.324557708835128"><ele>148.0</ele><time>2026-04-26T14:09:25.999Z</time></trkpt><trkpt lat="45.41051799223837" lon="8.324825839136793"><ele>147.5</ele><time>2026-04-26T14:09:26.999Z</time></trkpt><trkpt lat="45.41035794703238" lon="8.325094551990274"><ele>147.0</ele><time>2026-04-26T14:09:27.999Z</time></trkpt><trkpt lat="45.410195393552165" lon="8.325358362815887"><ele>146.5</ele><time>2026-04-26T14:09:28.999Z</time></trkpt><trkpt lat="45.410026447080746" lon="8.325609987883832"><ele>146.0</ele><time>2026-04-26T14:09:29.999Z</time></trkpt><trkpt lat="45.40984896244088" lon="8.325846310179424"><ele>146.0</ele><time>2026-04-26T14:09:30.999Z</time></trkpt><trkpt lat="45.40966422523447" lon="8.326071454381967"><ele>146.0</ele><time>2026-04-26T14:09:31.999Z</time></trkpt><trkpt lat="45.40947196872154" lon="8.326286757245509"><ele>146.5</ele><time>2026-04-26T14:09:32.999Z</time></trkpt><trkpt lat="45.40927158518255" lon="8.326484081568843"><ele>147.0</ele><time>2026-04-26T14:09:33.999Z</time></trkpt><trkpt lat="45.40906633440506" lon="8.326668231823318"><ele>147.0</ele><time>2026-04-26T14:09:34.999Z</time></trkpt><trkpt lat="45.40885381736057" lon="8.326836626493181"><ele>147.0</ele><time>2026-04-26T14:09:35.999Z</time></trkpt><trkpt lat="45.40863612544336" lon="8.326996552180107"><ele>147.5</ele><time>2026-04-26T14:09:36.999Z</time></trkpt><trkpt lat="45.40841263261987" lon="8.327140084873479"><ele>148.0</ele><time>2026-04-26T14:09:37.999Z</time></trkpt><trkpt lat="45.40818494782578" lon="8.327271038591864"><ele>148.0</ele><time>2026-04-26T14:09:38.999Z</time></trkpt><trkpt lat="45.4079546807043" lon="8.327385189529835"><ele>148.0</ele><time>2026-04-26T14:09:39.999Z</time></trkpt><trkpt lat="45.40772146410049" lon="8.327484349896979"><ele>148.0</ele><time>2026-04-26T14:09:40.999Z</time></trkpt><trkpt lat="45.40748750946216" lon="8.327570175846466"><ele>148.0</ele><time>2026-04-26T14:09:41.999Z</time></trkpt><trkpt lat="45.407251336056" lon="8.327646893427966"><ele>147.5</ele><time>2026-04-26T14:09:42.999Z</time></trkpt><trkpt lat="45.40701468270431" lon="8.327729744278033"><ele>147.0</ele><time>2026-04-26T14:09:43.999Z</time></trkpt><trkpt lat="45.406780064897404" lon="8.327818434894445"><ele>147.0</ele><time>2026-04-26T14:09:44.999Z</time></trkpt><trkpt lat="45.40654626855128" lon="8.327912673406436"><ele>147.0</ele><time>2026-04-26T14:09:45.999Z</time></trkpt><trkpt lat="45.4063163915882" lon="8.328012807859045"><ele>146.5</ele><time>2026-04-26T14:09:46.999Z</time></trkpt><trkpt lat="45.406089587701146" lon="8.328123005698984"><ele>146.0</ele><time>2026-04-26T14:09:47.999Z</time></trkpt><trkpt lat="45.40586552779128" lon="8.328245235226571"><ele>146.0</ele><time>2026-04-26T14:09:48.999Z</time></trkpt><trkpt lat="45.40564121203793" lon="8.32836697510855"><ele>146.0</ele><time>2026-04-26T14:09:49.999Z</time></trkpt><trkpt lat="45.40541654412927" lon="8.32848262096166"><ele>146.5</ele><time>2026-04-26T14:09:50.999Z</time></trkpt><trkpt lat="45.4051912714381" lon="8.328599853019426"><ele>147.0</ele><time>2026-04-26T14:09:51.999Z</time></trkpt><trkpt lat="45.404968207605684" lon="8.328715992369068"><ele>147.0</ele><time>2026-04-26T14:09:52.999Z</time></trkpt><trkpt lat="45.40474478587353" lon="8.328833247644678"><ele>147.0</ele><time>2026-04-26T14:09:53.999Z</time></trkpt><trkpt lat="45.404523657687925" lon="8.328948826044146"><ele>146.0</ele><time>2026-04-26T14:09:54.999Z</time></trkpt><trkpt lat="45.404302570617816" lon="8.32906388847831"><ele>145.0</ele><time>2026-04-26T14:09:55.999Z</time></trkpt><trkpt lat="45.40408318364957" lon="8.32918005604879"><ele>145.0</ele><time>2026-04-26T14:09:56.999Z</time></trkpt><trkpt lat="45.40386018775097" lon="8.32929344602444"><ele>145.0</ele><time>2026-04-26T14:09:57.999Z</time></trkpt><trkpt lat="45.40363502684559" lon="8.329406618141583"><ele>145.5</ele><time>2026-04-26T14:09:58.999Z</time></trkpt><trkpt lat="45.403412751291" lon="8.329523035158866"><ele>146.0</ele><time>2026-04-26T14:09:59.999Z</time></trkpt><trkpt lat="45.403191382604874" lon="8.32963952471398"><ele>145.0</ele><time>2026-04-26T14:10:00.999Z</time></trkpt><trkpt lat="45.402969123357266" lon="8.32975828093211"><ele>144.0</ele><time>2026-04-26T14:10:01.999Z</time></trkpt><trkpt lat="45.40274534586145" lon="8.329875613627886"><ele>144.0</ele><time>2026-04-26T14:10:02.999Z</time></trkpt><trkpt lat="45.40251880825057" lon="8.329993232268315"><ele>144.0</ele><time>2026-04-26T14:10:03.999Z</time></trkpt><trkpt lat="45.402292776351274" lon="8.330111844806975"><ele>144.5</ele><time>2026-04-26T14:10:04.999Z</time></trkpt><trkpt lat="45.40206982959632" lon="8.330240256883423"><ele>145.0</ele><time>2026-04-26T14:10:05.999Z</time></trkpt><trkpt lat="45.40185262896461" lon="8.33038746618058"><ele>145.0</ele><time>2026-04-26T14:10:06.999Z</time></trkpt><trkpt lat="45.401644432007735" lon="8.330557017728582"><ele>145.0</ele><time>2026-04-26T14:10:07.999Z</time></trkpt><trkpt lat="45.40144017158536" lon="8.330742315895225"><ele>145.0</ele><time>2026-04-26T14:10:08.999Z</time></trkpt><trkpt lat="45.40123922713254" lon="8.330939851116858"><ele>145.0</ele><time>2026-04-26T14:10:09.999Z</time></trkpt><trkpt lat="45.401044231963816" lon="8.331154459428765"><ele>145.0</ele><time>2026-04-26T14:10:10.999Z</time></trkpt><trkpt lat="45.40085738676259" lon="8.331388810179979"><ele>145.0</ele><time>2026-04-26T14:10:11.999Z</time></trkpt><trkpt lat="45.400677561123324" lon="8.3316406175052"><ele>144.5</ele><time>2026-04-26T14:10:12.999Z</time></trkpt><trkpt lat="45.40051009160933" lon="8.331911675726673"><ele>144.0</ele><time>2026-04-26T14:10:13.999Z</time></trkpt><trkpt lat="45.400349790709704" lon="8.332194654986374"><ele>144.5</ele><time>2026-04-26T14:10:14.999Z</time></trkpt><trkpt lat="45.400198146774095" lon="8.332496163411719"><ele>145.0</ele><time>2026-04-26T14:10:15.999Z</time></trkpt><trkpt lat="45.40005357918576" lon="8.332807710116283"><ele>145.0</ele><time>2026-04-26T14:10:16.999Z</time></trkpt><trkpt lat="45.39992150729806" lon="8.333132959587752"><ele>145.0</ele><time>2026-04-26T14:10:17.999Z</time></trkpt><trkpt lat="45.39980554524933" lon="8.333471068792123"><ele>145.0</ele><time>2026-04-26T14:10:18.999Z</time></trkpt><trkpt lat="45.399706524865685" lon="8.333823399319138"><ele>145.0</ele><time>2026-04-26T14:10:19.999Z</time></trkpt><trkpt lat="45.399614635534306" lon="8.33417861851723"><ele>145.0</ele><time>2026-04-26T14:10:20.999Z</time></trkpt><trkpt lat="45.39953201145506" lon="8.334540009833193"><ele>145.0</ele><time>2026-04-26T14:10:21.999Z</time></trkpt><trkpt lat="45.399450226887176" lon="8.334904735621437"><ele>145.0</ele><time>2026-04-26T14:10:22.999Z</time></trkpt><trkpt lat="45.39936605704591" lon="8.33527287894297"><ele>145.0</ele><time>2026-04-26T14:10:23.999Z</time></trkpt><trkpt lat="45.399281717787744" lon="8.335640116843807"><ele>144.5</ele><time>2026-04-26T14:10:24.999Z</time></trkpt><trkpt lat="45.399195535377515" lon="8.336006821741497"><ele>144.0</ele><time>2026-04-26T14:10:25.999Z</time></trkpt><trkpt lat="45.399111040386174" lon="8.336369743875116"><ele>143.5</ele><time>2026-04-26T14:10:26.999Z</time></trkpt><trkpt lat="45.39902950812906" lon="8.33673423587883"><ele>143.0</ele><time>2026-04-26T14:10:27.999Z</time></trkpt><trkpt lat="45.3989480746516" lon="8.337098872352763"><ele>143.0</ele><time>2026-04-26T14:10:28.999Z</time></trkpt><trkpt lat="45.39886545483402" lon="8.337461457822386"><ele>143.0</ele><time>2026-04-26T14:10:29.999Z</time></trkpt><trkpt lat="45.39878182782652" lon="8.337822995503902"><ele>143.0</ele><time>2026-04-26T14:10:30.999Z</time></trkpt><trkpt lat="45.39869842651315" lon="8.33818289826056"><ele>143.0</ele><time>2026-04-26T14:10:31.999Z</time></trkpt><trkpt lat="45.39861597591295" lon="8.338543347599304"><ele>143.0</ele><time>2026-04-26T14:10:32.999Z</time></trkpt><trkpt lat="45.3985359966164" lon="8.338903832423382"><ele>143.0</ele><time>2026-04-26T14:10:33.999Z</time></trkpt><trkpt lat="45.398454553740535" lon="8.339262783722127"><ele>143.0</ele><time>2026-04-26T14:10:34.999Z</time></trkpt><trkpt lat="45.398372265889336" lon="8.339620112250891"><ele>143.0</ele><time>2026-04-26T14:10:35.999Z</time></trkpt><trkpt lat="45.39829005200924" lon="8.339979842409026"><ele>143.0</ele><time>2026-04-26T14:10:36.999Z</time></trkpt><trkpt lat="45.39820874274615" lon="8.340338314023331"><ele>143.0</ele><time>2026-04-26T14:10:37.999Z</time></trkpt><trkpt lat="45.398126819327175" lon="8.3406945268797"><ele>143.0</ele><time>2026-04-26T14:10:38.999Z</time></trkpt><trkpt lat="45.39804294590332" lon="8.341047573654624"><ele>143.0</ele><time>2026-04-26T14:10:39.999Z</time></trkpt><trkpt lat="45.397957543897085" lon="8.341399961744752"><ele>142.5</ele><time>2026-04-26T14:10:40.999Z</time></trkpt><trkpt lat="45.397879537732116" lon="8.341753134640467"><ele>142.0</ele><time>2026-04-26T14:10:41.999Z</time></trkpt><trkpt lat="45.39780203793834" lon="8.342103957087952"><ele>142.0</ele><time>2026-04-26T14:10:42.999Z</time></trkpt><trkpt lat="45.397723427136135" lon="8.342454270205728"><ele>142.0</ele><time>2026-04-26T14:10:43.999Z</time></trkpt><trkpt lat="45.39764610459313" lon="8.342798997595137"><ele>142.0</ele><time>2026-04-26T14:10:44.999Z</time></trkpt><trkpt lat="45.397570292968425" lon="8.343139975795197"><ele>142.0</ele><time>2026-04-26T14:10:45.999Z</time></trkpt><trkpt lat="45.39749205006946" lon="8.34347196215766"><ele>142.0</ele><time>2026-04-26T14:10:46.999Z</time></trkpt><trkpt lat="45.397417891526295" lon="8.3437813499232"><ele>142.0</ele><time>2026-04-26T14:10:47.999Z</time></trkpt><trkpt lat="45.39734993191639" lon="8.344075688889648"><ele>142.0</ele><time>2026-04-26T14:10:48.999Z</time></trkpt><trkpt lat="45.39728668722864" lon="8.34435411810799"><ele>142.0</ele><time>2026-04-26T14:10:49.999Z</time></trkpt><trkpt lat="45.39722372223262" lon="8.344621004306635"><ele>142.0</ele><time>2026-04-26T14:10:50.999Z</time></trkpt><trkpt lat="45.397163521105846" lon="8.344882040798208"><ele>142.0</ele><time>2026-04-26T14:10:51.999Z</time></trkpt><trkpt lat="45.39710634742475" lon="8.345132558218786"><ele>142.0</ele><time>2026-04-26T14:10:52.999Z</time></trkpt><trkpt lat="45.397051857808" lon="8.34537385947806"><ele>142.0</ele><time>2026-04-26T14:10:53.999Z</time></trkpt><trkpt lat="45.397010541505225" lon="8.345610502179733"><ele>142.0</ele><time>2026-04-26T14:10:54.999Z</time></trkpt><trkpt lat="45.39698424677948" lon="8.345847332349523"><ele>142.33333333333334</ele><time>2026-04-26T14:10:55.999Z</time></trkpt><trkpt lat="45.3969681314866" lon="8.346087441194632"><ele>142.66666666666666</ele><time>2026-04-26T14:10:56.999Z</time></trkpt><trkpt lat="45.396956223573994" lon="8.34633189822065"><ele>143.0</ele><time>2026-04-26T14:10:57.999Z</time></trkpt><trkpt lat="45.39694622498158" lon="8.346573868118083"><ele>143.33333333333331</ele><time>2026-04-26T14:10:58.999Z</time></trkpt><trkpt lat="45.39693421169762" lon="8.34681551874896"><ele>143.66666666666666</ele><time>2026-04-26T14:10:59.999Z</time></trkpt><trkpt lat="45.39692070168272" lon="8.347048873858522"><ele>144.0</ele><time>2026-04-26T14:11:00.999Z</time></trkpt><trkpt lat="45.396907122352204" lon="8.34727157504486"><ele>144.0</ele><time>2026-04-26T14:11:01.999Z</time></trkpt><trkpt lat="45.39689331554025" lon="8.347484537977937"><ele>144.0</ele><time>2026-04-26T14:11:02.999Z</time></trkpt><trkpt lat="45.39688170685654" lon="8.347693820396765"><ele>144.0</ele><time>2026-04-26T14:11:03.999Z</time></trkpt><trkpt lat="45.39687109905301" lon="8.347901272558893"><ele>144.0</ele><time>2026-04-26T14:11:04.999Z</time></trkpt><trkpt lat="45.39685588602975" lon="8.348109892248647"><ele>144.0</ele><time>2026-04-26T14:11:05.999Z</time></trkpt><trkpt lat="45.39682804325865" lon="8.348317451487926"><ele>144.0</ele><time>2026-04-26T14:11:06.999Z</time></trkpt><trkpt lat="45.396777200185795" lon="8.34852133789711"><ele>144.0</ele><time>2026-04-26T14:11:07.999Z</time></trkpt><trkpt lat="45.39670540005221" lon="8.348715141511887"><ele>143.33333333333334</ele><time>2026-04-26T14:11:08.999Z</time></trkpt><trkpt lat="45.39661765475518" lon="8.348900797370069"><ele>142.66666666666669</ele><time>2026-04-26T14:11:09.999Z</time></trkpt><trkpt lat="45.39651577557041" lon="8.349076032290611"><ele>142.0</ele><time>2026-04-26T14:11:10.999Z</time></trkpt><trkpt lat="45.396405873485534" lon="8.349253388230087"><ele>142.0</ele><time>2026-04-26T14:11:11.999Z</time></trkpt><trkpt lat="45.39628749278207" lon="8.349422170522399"><ele>142.0</ele><time>2026-04-26T14:11:12.999Z</time></trkpt><trkpt lat="45.39616649252327" lon="8.349597845442213"><ele>142.0</ele><time>2026-04-26T14:11:13.999Z</time></trkpt><trkpt lat="45.39603426263505" lon="8.349767252951555"><ele>142.0</ele><time>2026-04-26T14:11:14.999Z</time></trkpt><trkpt lat="45.39589660979804" lon="8.349938306576565"><ele>142.0</ele><time>2026-04-26T14:11:15.999Z</time></trkpt><trkpt lat="45.39575024817422" lon="8.350110977324997"><ele>142.0</ele><time>2026-04-26T14:11:16.999Z</time></trkpt><trkpt lat="45.39559970058896" lon="8.350290371896756"><ele>142.0</ele><time>2026-04-26T14:11:17.999Z</time></trkpt><trkpt lat="45.39544054448867" lon="8.350481681338252"><ele>142.0</ele><time>2026-04-26T14:11:18.999Z</time></trkpt><trkpt lat="45.39527774882039" lon="8.350683337261419"><ele>142.0</ele><time>2026-04-26T14:11:19.999Z</time></trkpt><trkpt lat="45.39510924994987" lon="8.350887498145878"><ele>142.0</ele><time>2026-04-26T14:11:20.999Z</time></trkpt><trkpt lat="45.3949342475843" lon="8.351098377679472"><ele>142.0</ele><time>2026-04-26T14:11:21.999Z</time></trkpt><trkpt lat="45.39475502119017" lon="8.351313376426676"><ele>140.0</ele><time>2026-04-26T14:11:22.999Z</time></trkpt><trkpt lat="45.394575967013544" lon="8.3515340214135"><ele>138.0</ele><time>2026-04-26T14:11:23.999Z</time></trkpt><trkpt lat="45.39440080616609" lon="8.351753029062177"><ele>138.0</ele><time>2026-04-26T14:11:24.999Z</time></trkpt><trkpt lat="45.394237741132294" lon="8.351956803858103"><ele>138.0</ele><time>2026-04-26T14:11:25.999Z</time></trkpt><trkpt lat="45.39407644532634" lon="8.352162682747615"><ele>138.0</ele><time>2026-04-26T14:11:26.999Z</time></trkpt><trkpt lat="45.393913246697345" lon="8.352365920873472"><ele>138.66666666666666</ele><time>2026-04-26T14:11:27.999Z</time></trkpt><trkpt lat="45.393749938203094" lon="8.352567436349107"><ele>139.33333333333331</ele><time>2026-04-26T14:11:28.999Z</time></trkpt><trkpt lat="45.39358505176399" lon="8.352772895258674"><ele>140.0</ele><time>2026-04-26T14:11:29.999Z</time></trkpt><trkpt lat="45.39341822651597" lon="8.352980740644103"><ele>139.66666666666666</ele><time>2026-04-26T14:11:30.999Z</time></trkpt><trkpt lat="45.39324874826483" lon="8.353186348477692"><ele>139.33333333333334</ele><time>2026-04-26T14:11:31.999Z</time></trkpt><trkpt lat="45.393079837257154" lon="8.353396346858734"><ele>139.0</ele><time>2026-04-26T14:11:32.999Z</time></trkpt><trkpt lat="45.392908092440685" lon="8.353611642310259"><ele>139.0</ele><time>2026-04-26T14:11:33.999Z</time></trkpt><trkpt lat="45.392733897789924" lon="8.353829395084055"><ele>139.0</ele><time>2026-04-26T14:11:34.999Z</time></trkpt><trkpt lat="45.39256070972455" lon="8.354044922424672"><ele>139.0</ele><time>2026-04-26T14:11:35.999Z</time></trkpt><trkpt lat="45.392392098584516" lon="8.354258940166053"><ele>139.0</ele><time>2026-04-26T14:11:36.999Z</time></trkpt><trkpt lat="45.39222501633514" lon="8.354469097257287"><ele>139.0</ele><time>2026-04-26T14:11:37.999Z</time></trkpt><trkpt lat="45.39205840365919" lon="8.354668574837358"><ele>138.66666666666669</ele><time>2026-04-26T14:11:38.999Z</time></trkpt><trkpt lat="45.39188621095558" lon="8.354851379099077"><ele>138.33333333333334</ele><time>2026-04-26T14:11:39.999Z</time></trkpt><trkpt lat="45.39171023676338" lon="8.35501225344151"><ele>138.0</ele><time>2026-04-26T14:11:40.999Z</time></trkpt><trkpt lat="45.39152378408936" lon="8.355145602583988"><ele>138.0</ele><time>2026-04-26T14:11:41.999Z</time></trkpt><trkpt lat="45.39133172201798" lon="8.355256542976036"><ele>138.0</ele><time>2026-04-26T14:11:42.999Z</time></trkpt><trkpt lat="45.3911305269912" lon="8.355343999238919"><ele>138.0</ele><time>2026-04-26T14:11:43.999Z</time></trkpt><trkpt lat="45.390924159069435" lon="8.355407605268127"><ele>138.0</ele><time>2026-04-26T14:11:44.999Z</time></trkpt><trkpt lat="45.39071361872439" lon="8.355443218580422"><ele>138.0</ele><time>2026-04-26T14:11:45.999Z</time></trkpt><trkpt lat="45.390498089999284" lon="8.355449400172027"><ele>138.0</ele><time>2026-04-26T14:11:46.999Z</time></trkpt><trkpt lat="45.39027783277732" lon="8.355426921184426"><ele>138.0</ele><time>2026-04-26T14:11:47.999Z</time></trkpt><trkpt lat="45.39005876587843" lon="8.355370644165424"><ele>138.0</ele><time>2026-04-26T14:11:48.999Z</time></trkpt><trkpt lat="45.38984288342326" lon="8.355284601245808"><ele>138.0</ele><time>2026-04-26T14:11:49.999Z</time></trkpt><trkpt lat="45.38963060304583" lon="8.355166471753382"><ele>138.0</ele><time>2026-04-26T14:11:50.999Z</time></trkpt><trkpt lat="45.38942296110195" lon="8.35502233169172"><ele>138.0</ele><time>2026-04-26T14:11:51.999Z</time></trkpt><trkpt lat="45.38921816317783" lon="8.354867619624793"><ele>138.0</ele><time>2026-04-26T14:11:52.999Z</time></trkpt><trkpt lat="45.38900785238628" lon="8.354714935241194"><ele>138.0</ele><time>2026-04-26T14:11:53.999Z</time></trkpt><trkpt lat="45.38879717442283" lon="8.354561836832048"><ele>139.33333333333334</ele><time>2026-04-26T14:11:54.999Z</time></trkpt><trkpt lat="45.388592402137576" lon="8.354419950849291"><ele>140.66666666666669</ele><time>2026-04-26T14:11:55.999Z</time></trkpt><trkpt lat="45.388396886390105" lon="8.354285662806266"><ele>142.0</ele><time>2026-04-26T14:11:56.999Z</time></trkpt><trkpt lat="45.388213088633925" lon="8.354141430953826"><ele>142.0</ele><time>2026-04-26T14:11:57.999Z</time></trkpt><trkpt lat="45.38801887934174" lon="8.35404787928858"><ele>142.0</ele><time>2026-04-26T14:11:58.999Z</time></trkpt><trkpt lat="45.387814516444195" lon="8.353971026533765"><ele>142.0</ele><time>2026-04-26T14:11:59.999Z</time></trkpt><trkpt lat="45.38760250156441" lon="8.353922750280763"><ele>141.66666666666669</ele><time>2026-04-26T14:12:00.999Z</time></trkpt><trkpt lat="45.38738436762362" lon="8.353902989625347"><ele>141.33333333333334</ele><time>2026-04-26T14:12:01.999Z</time></trkpt><trkpt lat="45.387163697449864" lon="8.353917416311052"><ele>141.0</ele><time>2026-04-26T14:12:02.999Z</time></trkpt><trkpt lat="45.386943702179984" lon="8.353962764447491"><ele>140.5</ele><time>2026-04-26T14:12:03.999Z</time></trkpt><trkpt lat="45.386725789082085" lon="8.354039107804688"><ele>140.0</ele><time>2026-04-26T14:12:04.999Z</time></trkpt><trkpt lat="45.386510197304794" lon="8.354145826104302"><ele>140.0</ele><time>2026-04-26T14:12:05.999Z</time></trkpt><trkpt lat="45.38630605874586" lon="8.35428408924958"><ele>140.0</ele><time>2026-04-26T14:12:06.999Z</time></trkpt><trkpt lat="45.38611169046998" lon="8.354451766539023"><ele>140.0</ele><time>2026-04-26T14:12:07.999Z</time></trkpt><trkpt lat="45.38592918209391" lon="8.35464553483834"><ele>140.0</ele><time>2026-04-26T14:12:08.999Z</time></trkpt><trkpt lat="45.38575800309736" lon="8.354863290878402"><ele>140.0</ele><time>2026-04-26T14:12:09.999Z</time></trkpt><trkpt lat="45.38560295105512" lon="8.355107667155217"><ele>140.0</ele><time>2026-04-26T14:12:10.999Z</time></trkpt><trkpt lat="45.385464868419014" lon="8.355374103936537"><ele>140.0</ele><time>2026-04-26T14:12:11.999Z</time></trkpt><trkpt lat="45.38533413441309" lon="8.355652896244099"><ele>140.0</ele><time>2026-04-26T14:12:12.999Z</time></trkpt><trkpt lat="45.38520481513866" lon="8.355934605723457"><ele>140.0</ele><time>2026-04-26T14:12:13.999Z</time></trkpt><trkpt lat="45.38507298461526" lon="8.356218045631296"><ele>140.0</ele><time>2026-04-26T14:12:14.999Z</time></trkpt><trkpt lat="45.38494005678953" lon="8.356503989658679"><ele>139.0</ele><time>2026-04-26T14:12:15.999Z</time></trkpt><trkpt lat="45.38480650405737" lon="8.356789586097634"><ele>138.0</ele><time>2026-04-26T14:12:16.999Z</time></trkpt><trkpt lat="45.384674529043416" lon="8.357073459660944"><ele>138.5</ele><time>2026-04-26T14:12:17.999Z</time></trkpt><trkpt lat="45.384545249074606" lon="8.357355402814866"><ele>139.0</ele><time>2026-04-26T14:12:18.999Z</time></trkpt><trkpt lat="45.38441616417179" lon="8.357634820330498"><ele>139.0</ele><time>2026-04-26T14:12:19.999Z</time></trkpt><trkpt lat="45.38428775260475" lon="8.357907235759024"><ele>139.0</ele><time>2026-04-26T14:12:20.999Z</time></trkpt><trkpt lat="45.38416113282222" lon="8.358179405590075"><ele>139.0</ele><time>2026-04-26T14:12:21.999Z</time></trkpt><trkpt lat="45.38403451845667" lon="8.358451892027155"><ele>139.0</ele><time>2026-04-26T14:12:22.999Z</time></trkpt><trkpt lat="45.38390857424265" lon="8.358717361305684"><ele>138.66666666666669</ele><time>2026-04-26T14:12:23.999Z</time></trkpt><trkpt lat="45.38378184741403" lon="8.35897844803065"><ele>138.33333333333334</ele><time>2026-04-26T14:12:24.999Z</time></trkpt><trkpt lat="45.38365736184408" lon="8.35923688694317"><ele>138.0</ele><time>2026-04-26T14:12:25.999Z</time></trkpt><trkpt lat="45.38353603864766" lon="8.359494427887771"><ele>137.33333333333334</ele><time>2026-04-26T14:12:26.999Z</time></trkpt><trkpt lat="45.38341399740407" lon="8.35975253112018"><ele>136.66666666666669</ele><time>2026-04-26T14:12:27.999Z</time></trkpt><trkpt lat="45.38329429031505" lon="8.360008109781234"><ele>136.0</ele><time>2026-04-26T14:12:28.999Z</time></trkpt><trkpt lat="45.38317731006093" lon="8.360261188121784"><ele>136.0</ele><time>2026-04-26T14:12:29.999Z</time></trkpt><trkpt lat="45.383059171204586" lon="8.36051370195536"><ele>136.0</ele><time>2026-04-26T14:12:30.999Z</time></trkpt><trkpt lat="45.38294124461678" lon="8.360765241154363"><ele>136.0</ele><time>2026-04-26T14:12:31.999Z</time></trkpt><trkpt lat="45.38282188271411" lon="8.361016575560345"><ele>136.33333333333334</ele><time>2026-04-26T14:12:32.999Z</time></trkpt><trkpt lat="45.382702455568584" lon="8.36126628746251"><ele>136.66666666666666</ele><time>2026-04-26T14:12:33.999Z</time></trkpt><trkpt lat="45.382583448878194" lon="8.361518615074546"><ele>137.0</ele><time>2026-04-26T14:12:34.999Z</time></trkpt><trkpt lat="45.38246672917616" lon="8.361770561646525"><ele>137.0</ele><time>2026-04-26T14:12:35.999Z</time></trkpt><trkpt lat="45.3823464876077" lon="8.362022484392845"><ele>137.0</ele><time>2026-04-26T14:12:36.999Z</time></trkpt><trkpt lat="45.38222956820862" lon="8.362267080448985"><ele>137.0</ele><time>2026-04-26T14:12:37.999Z</time></trkpt><trkpt lat="45.3821180436744" lon="8.362504452301884"><ele>137.0</ele><time>2026-04-26T14:12:38.999Z</time></trkpt><trkpt lat="45.38200594455475" lon="8.362748825639223"><ele>137.0</ele><time>2026-04-26T14:12:39.999Z</time></trkpt><trkpt lat="45.38189309035739" lon="8.36299471266796"><ele>137.0</ele><time>2026-04-26T14:12:40.999Z</time></trkpt><trkpt lat="45.3817785737052" lon="8.363239992800215"><ele>137.0</ele><time>2026-04-26T14:12:41.999Z</time></trkpt><trkpt lat="45.38166162558879" lon="8.363485197281726"><ele>137.0</ele><time>2026-04-26T14:12:42.999Z</time></trkpt><trkpt lat="45.38154300894138" lon="8.363731481382185"><ele>137.0</ele><time>2026-04-26T14:12:43.999Z</time></trkpt><trkpt lat="45.38142209456502" lon="8.36397367852391"><ele>137.33333333333331</ele><time>2026-04-26T14:12:44.999Z</time></trkpt><trkpt lat="45.381297814014665" lon="8.364211725724783"><ele>137.66666666666666</ele><time>2026-04-26T14:12:45.999Z</time></trkpt><trkpt lat="45.38117004918253" lon="8.364442670632124"><ele>138.0</ele><time>2026-04-26T14:12:46.999Z</time></trkpt><trkpt lat="45.38103727001264" lon="8.364668541856284"><ele>137.33333333333334</ele><time>2026-04-26T14:12:47.999Z</time></trkpt><trkpt lat="45.380905655077164" lon="8.364889169214305"><ele>136.66666666666669</ele><time>2026-04-26T14:12:48.999Z</time></trkpt><trkpt lat="45.38077665555792" lon="8.36510550528629"><ele>136.0</ele><time>2026-04-26T14:12:49.999Z</time></trkpt><trkpt lat="45.38064772628034" lon="8.365317576379805"><ele>136.0</ele><time>2026-04-26T14:12:50.999Z</time></trkpt><trkpt lat="45.38052222989249" lon="8.365524384456462"><ele>136.0</ele><time>2026-04-26T14:12:51.999Z</time></trkpt><trkpt lat="45.38038464196115" lon="8.365726350225613"><ele>136.0</ele><time>2026-04-26T14:12:52.999Z</time></trkpt><trkpt lat="45.38023656325177" lon="8.36591806456054"><ele>136.33333333333334</ele><time>2026-04-26T14:12:53.999Z</time></trkpt><trkpt lat="45.380084499610106" lon="8.366105584264442"><ele>136.66666666666666</ele><time>2026-04-26T14:12:54.999Z</time></trkpt><trkpt lat="45.37996678071595" lon="8.366284891331182"><ele>137.0</ele><time>2026-04-26T14:12:55.999Z</time></trkpt><trkpt lat="45.37984874695968" lon="8.366469488132743"><ele>137.0</ele><time>2026-04-26T14:12:56.999Z</time></trkpt><trkpt lat="45.3797331995502" lon="8.366644392929055"><ele>137.0</ele><time>2026-04-26T14:12:57.999Z</time></trkpt><trkpt lat="45.37960310794826" lon="8.366821587671817"><ele>137.0</ele><time>2026-04-26T14:12:58.999Z</time></trkpt><trkpt lat="45.3794517919815" lon="8.367018399837766"><ele>136.0</ele><time>2026-04-26T14:12:59.999Z</time></trkpt><trkpt lat="45.379264570691916" lon="8.367226741431685"><ele>135.0</ele><time>2026-04-26T14:13:00.999Z</time></trkpt><trkpt lat="45.37907361902773" lon="8.367445519033824"><ele>135.0</ele><time>2026-04-26T14:13:01.999Z</time></trkpt><trkpt lat="45.37889357300117" lon="8.367676025682103"><ele>135.0</ele><time>2026-04-26T14:13:02.999Z</time></trkpt><trkpt lat="45.378736452534326" lon="8.367883393842352"><ele>135.0</ele><time>2026-04-26T14:13:03.999Z</time></trkpt><trkpt lat="45.378581194643616" lon="8.368085932588832"><ele>135.0</ele><time>2026-04-26T14:13:04.999Z</time></trkpt><trkpt lat="45.378433950166034" lon="8.368280147143347"><ele>135.0</ele><time>2026-04-26T14:13:05.999Z</time></trkpt><trkpt lat="45.378290453777204" lon="8.36847336252391"><ele>135.0</ele><time>2026-04-26T14:13:06.999Z</time></trkpt><trkpt lat="45.37814642169921" lon="8.36866579027016"><ele>135.0</ele><time>2026-04-26T14:13:07.999Z</time></trkpt><trkpt lat="45.37800464940582" lon="8.368855491847198"><ele>135.0</ele><time>2026-04-26T14:13:08.999Z</time></trkpt><trkpt lat="45.37786579633039" lon="8.36904306437016"><ele>135.33333333333334</ele><time>2026-04-26T14:13:09.999Z</time></trkpt><trkpt lat="45.377730954571746" lon="8.369230104481987"><ele>135.66666666666669</ele><time>2026-04-26T14:13:10.999Z</time></trkpt><trkpt lat="45.37759661183072" lon="8.36941981506458"><ele>136.0</ele><time>2026-04-26T14:13:11.999Z</time></trkpt><trkpt lat="45.37746916938847" lon="8.369602061887722"><ele>136.0</ele><time>2026-04-26T14:13:12.999Z</time></trkpt><trkpt lat="45.377333205796134" lon="8.369791372556643"><ele>136.0</ele><time>2026-04-26T14:13:13.999Z</time></trkpt><trkpt lat="45.377196349304604" lon="8.369983535659733"><ele>136.0</ele><time>2026-04-26T14:13:14.999Z</time></trkpt><trkpt lat="45.37706208199281" lon="8.370173023751446"><ele>136.0</ele><time>2026-04-26T14:13:15.999Z</time></trkpt><trkpt lat="45.376928646834976" lon="8.370359562014013"><ele>136.0</ele><time>2026-04-26T14:13:16.999Z</time></trkpt><trkpt lat="45.37679380961823" lon="8.370550250634794"><ele>136.0</ele><time>2026-04-26T14:13:17.999Z</time></trkpt><trkpt lat="45.376654947133346" lon="8.370739321200558"><ele>136.33333333333334</ele><time>2026-04-26T14:13:18.999Z</time></trkpt><trkpt lat="45.37651422380613" lon="8.370931537222539"><ele>136.66666666666666</ele><time>2026-04-26T14:13:19.999Z</time></trkpt><trkpt lat="45.37637204919638" lon="8.371124936398456"><ele>137.0</ele><time>2026-04-26T14:13:20.999Z</time></trkpt><trkpt lat="45.376227860910134" lon="8.371320434971302"><ele>136.33333333333331</ele><time>2026-04-26T14:13:21.999Z</time></trkpt><trkpt lat="45.376078008850754" lon="8.371515720899241"><ele>135.66666666666666</ele><time>2026-04-26T14:13:22.999Z</time></trkpt><trkpt lat="45.37592221542195" lon="8.371708444621348"><ele>135.0</ele><time>2026-04-26T14:13:23.999Z</time></trkpt><trkpt lat="45.375763463220075" lon="8.37189632295802"><ele>135.0</ele><time>2026-04-26T14:13:24.999Z</time></trkpt><trkpt lat="45.37560002541754" lon="8.37208553843819"><ele>135.0</ele><time>2026-04-26T14:13:25.999Z</time></trkpt><trkpt lat="45.37543009040576" lon="8.372274025308904"><ele>135.0</ele><time>2026-04-26T14:13:26.999Z</time></trkpt><trkpt lat="45.37525696541905" lon="8.372449221500624"><ele>135.33333333333334</ele><time>2026-04-26T14:13:27.999Z</time></trkpt><trkpt lat="45.375075531092136" lon="8.372625233444126"><ele>135.66666666666669</ele><time>2026-04-26T14:13:28.999Z</time></trkpt><trkpt lat="45.37488702979254" lon="8.37279927026156"><ele>136.0</ele><time>2026-04-26T14:13:29.999Z</time></trkpt><trkpt lat="45.37469676875786" lon="8.372971990349987"><ele>136.5</ele><time>2026-04-26T14:13:30.999Z</time></trkpt><trkpt lat="45.37450294562143" lon="8.373145452973764"><ele>137.0</ele><time>2026-04-26T14:13:31.999Z</time></trkpt><trkpt lat="45.37431057102584" lon="8.37331171484224"><ele>137.0</ele><time>2026-04-26T14:13:32.999Z</time></trkpt><trkpt lat="45.37411629846352" lon="8.37348033242629"><ele>137.0</ele><time>2026-04-26T14:13:33.999Z</time></trkpt><trkpt lat="45.373923709308485" lon="8.373651063359292"><ele>135.5</ele><time>2026-04-26T14:13:34.999Z</time></trkpt><trkpt lat="45.37373118745595" lon="8.37382086082325"><ele>134.0</ele><time>2026-04-26T14:13:35.999Z</time></trkpt><trkpt lat="45.37353871997612" lon="8.373991012592633"><ele>134.0</ele><time>2026-04-26T14:13:36.999Z</time></trkpt><trkpt lat="45.37334525722516" lon="8.374163372410862"><ele>134.0</ele><time>2026-04-26T14:13:37.999Z</time></trkpt><trkpt lat="45.373151992404416" lon="8.374334329294683"><ele>133.0</ele><time>2026-04-26T14:13:38.999Z</time></trkpt><trkpt lat="45.372958713353974" lon="8.374510864807428"><ele>132.0</ele><time>2026-04-26T14:13:39.999Z</time></trkpt><trkpt lat="45.372764520097945" lon="8.374683465608983"><ele>132.5</ele><time>2026-04-26T14:13:40.999Z</time></trkpt><trkpt lat="45.372573074513426" lon="8.374853258708715"><ele>133.0</ele><time>2026-04-26T14:13:41.999Z</time></trkpt><trkpt lat="45.3723807570093" lon="8.375023308481733"><ele>133.5</ele><time>2026-04-26T14:13:42.999Z</time></trkpt><trkpt lat="45.37218884748289" lon="8.375192238277176"><ele>134.0</ele><time>2026-04-26T14:13:43.999Z</time></trkpt><trkpt lat="45.37199789239477" lon="8.375364615069367"><ele>134.0</ele><time>2026-04-26T14:13:44.999Z</time></trkpt><trkpt lat="45.37180751799346" lon="8.375533283769743"><ele>134.0</ele><time>2026-04-26T14:13:45.999Z</time></trkpt><trkpt lat="45.37161534646051" lon="8.375708463262349"><ele>134.0</ele><time>2026-04-26T14:13:46.999Z</time></trkpt><trkpt lat="45.371423170458804" lon="8.37588113902088"><ele>134.0</ele><time>2026-04-26T14:13:47.999Z</time></trkpt><trkpt lat="45.37123129755228" lon="8.376054553194342"><ele>134.0</ele><time>2026-04-26T14:13:48.999Z</time></trkpt><trkpt lat="45.37103698079169" lon="8.376235941646572"><ele>134.0</ele><time>2026-04-26T14:13:49.999Z</time></trkpt><trkpt lat="45.37084271623124" lon="8.37641472893305"><ele>134.0</ele><time>2026-04-26T14:13:50.999Z</time></trkpt><trkpt lat="45.37063568272017" lon="8.376573354262883"><ele>134.0</ele><time>2026-04-26T14:13:51.999Z</time></trkpt><trkpt lat="45.37043558560234" lon="8.376752992255565"><ele>133.5</ele><time>2026-04-26T14:13:52.999Z</time></trkpt><trkpt lat="45.37023321747338" lon="8.376934669053252"><ele>133.0</ele><time>2026-04-26T14:13:53.999Z</time></trkpt><trkpt lat="45.37003010323676" lon="8.377117015667928"><ele>133.0</ele><time>2026-04-26T14:13:54.999Z</time></trkpt><trkpt lat="45.3698279260908" lon="8.377298521024565"><ele>133.0</ele><time>2026-04-26T14:13:55.999Z</time></trkpt><trkpt lat="45.36962757707367" lon="8.377478385177941"><ele>133.5</ele><time>2026-04-26T14:13:56.999Z</time></trkpt><trkpt lat="45.369439241058124" lon="8.37766979464809"><ele>134.0</ele><time>2026-04-26T14:13:57.999Z</time></trkpt><trkpt lat="45.369246748906434" lon="8.377833492236652"><ele>134.0</ele><time>2026-04-26T14:13:58.999Z</time></trkpt><trkpt lat="45.36905208875474" lon="8.378004675733129"><ele>134.0</ele><time>2026-04-26T14:13:59.999Z</time></trkpt><trkpt lat="45.36885510238578" lon="8.378184152429952"><ele>134.5</ele><time>2026-04-26T14:14:00.999Z</time></trkpt><trkpt lat="45.36865740135696" lon="8.378362145565838"><ele>135.0</ele><time>2026-04-26T14:14:01.999Z</time></trkpt><trkpt lat="45.36845808398287" lon="8.378539670506251"><ele>135.0</ele><time>2026-04-26T14:14:02.999Z</time></trkpt><trkpt lat="45.36826316683931" lon="8.378713291000857"><ele>135.0</ele><time>2026-04-26T14:14:03.999Z</time></trkpt><trkpt lat="45.36806661381925" lon="8.378890299778865"><ele>135.0</ele><time>2026-04-26T14:14:04.999Z</time></trkpt><trkpt lat="45.36787395504062" lon="8.379068626876991"><ele>135.0</ele><time>2026-04-26T14:14:05.999Z</time></trkpt><trkpt lat="45.36767481359505" lon="8.37921648619452"><ele>135.0</ele><time>2026-04-26T14:14:06.999Z</time></trkpt><trkpt lat="45.36747644906402" lon="8.379388386019091"><ele>135.0</ele><time>2026-04-26T14:14:07.999Z</time></trkpt><trkpt lat="45.36728321749171" lon="8.379555322848791"><ele>135.66666666666666</ele><time>2026-04-26T14:14:08.999Z</time></trkpt><trkpt lat="45.36709183704411" lon="8.379723997037589"><ele>136.33333333333331</ele><time>2026-04-26T14:14:09.999Z</time></trkpt><trkpt lat="45.366902638211485" lon="8.37989083270223"><ele>137.0</ele><time>2026-04-26T14:14:10.999Z</time></trkpt><trkpt lat="45.3667143598686" lon="8.380064945089218"><ele>137.0</ele><time>2026-04-26T14:14:11.999Z</time></trkpt><trkpt lat="45.36652541786289" lon="8.380239174717378"><ele>137.0</ele><time>2026-04-26T14:14:12.999Z</time></trkpt><trkpt lat="45.36633498732864" lon="8.380408915528465"><ele>137.5</ele><time>2026-04-26T14:14:13.999Z</time></trkpt><trkpt lat="45.36614185196602" lon="8.380580331651503"><ele>138.0</ele><time>2026-04-26T14:14:14.999Z</time></trkpt><trkpt lat="45.365950405616566" lon="8.380750560375272"><ele>138.0</ele><time>2026-04-26T14:14:15.999Z</time></trkpt><trkpt lat="45.365757103763436" lon="8.38092364875671"><ele>138.0</ele><time>2026-04-26T14:14:16.999Z</time></trkpt><trkpt lat="45.365564556021226" lon="8.381098219853468"><ele>138.5</ele><time>2026-04-26T14:14:17.999Z</time></trkpt><trkpt lat="45.36537075376672" lon="8.381274178403084"><ele>139.0</ele><time>2026-04-26T14:14:18.999Z</time></trkpt><trkpt lat="45.36517545392084" lon="8.38145184448304"><ele>139.0</ele><time>2026-04-26T14:14:19.999Z</time></trkpt><trkpt lat="45.364978402762794" lon="8.381628249986354"><ele>139.0</ele><time>2026-04-26T14:14:20.999Z</time></trkpt><trkpt lat="45.364782124484954" lon="8.381805188681472"><ele>138.0</ele><time>2026-04-26T14:14:21.999Z</time></trkpt><trkpt lat="45.36458407930296" lon="8.381985644145466"><ele>137.0</ele><time>2026-04-26T14:14:22.999Z</time></trkpt><trkpt lat="45.36438987464621" lon="8.382162682173158"><ele>137.0</ele><time>2026-04-26T14:14:23.999Z</time></trkpt><trkpt lat="45.364192075422054" lon="8.382342169635464"><ele>137.0</ele><time>2026-04-26T14:14:24.999Z</time></trkpt><trkpt lat="45.36399379327945" lon="8.382520623764222"><ele>137.5</ele><time>2026-04-26T14:14:25.999Z</time></trkpt><trkpt lat="45.36379717167581" lon="8.382700945584801"><ele>138.0</ele><time>2026-04-26T14:14:26.999Z</time></trkpt><trkpt lat="45.36359970690066" lon="8.382882919144475"><ele>138.0</ele><time>2026-04-26T14:14:27.999Z</time></trkpt><trkpt lat="45.36340681538124" lon="8.383054905912738"><ele>138.0</ele><time>2026-04-26T14:14:28.999Z</time></trkpt><trkpt lat="45.363214532203145" lon="8.383224474921823"><ele>138.0</ele><time>2026-04-26T14:14:29.999Z</time></trkpt><trkpt lat="45.36301649082272" lon="8.38338998806811"><ele>138.0</ele><time>2026-04-26T14:14:30.999Z</time></trkpt><trkpt lat="45.36281754004577" lon="8.383565485754714"><ele>138.0</ele><time>2026-04-26T14:14:31.999Z</time></trkpt><trkpt lat="45.362617537179894" lon="8.38374122214079"><ele>138.0</ele><time>2026-04-26T14:14:33.003Z</time></trkpt><trkpt lat="45.3624230135402" lon="8.383909409919298"><ele>138.0</ele><time>2026-04-26T14:14:34.003Z</time></trkpt><trkpt lat="45.36222716716796" lon="8.384080955251273"><ele>138.0</ele><time>2026-04-26T14:14:35.003Z</time></trkpt><trkpt lat="45.36203340798701" lon="8.384255819711218"><ele>138.0</ele><time>2026-04-26T14:14:36.003Z</time></trkpt><trkpt lat="45.361840058299926" lon="8.384427752955093"><ele>138.0</ele><time>2026-04-26T14:14:37.003Z</time></trkpt><trkpt lat="45.36164393402827" lon="8.384592813797866"><ele>137.66666666666666</ele><time>2026-04-26T14:14:38.003Z</time></trkpt><trkpt lat="45.36145161113433" lon="8.384759812066712"><ele>137.33333333333331</ele><time>2026-04-26T14:14:39.003Z</time></trkpt><trkpt lat="45.36126336278145" lon="8.38492505123523"><ele>137.0</ele><time>2026-04-26T14:14:40.003Z</time></trkpt><trkpt lat="45.36107207061442" lon="8.38510637258056"><ele>136.5</ele><time>2026-04-26T14:14:41.003Z</time></trkpt><trkpt lat="45.36088023102056" lon="8.385293954956591"><ele>136.0</ele><time>2026-04-26T14:14:42.003Z</time></trkpt><trkpt lat="45.36069071901289" lon="8.385464248824334"><ele>136.33333333333334</ele><time>2026-04-26T14:14:43.003Z</time></trkpt><trkpt lat="45.36050380867972" lon="8.385632820277605"><ele>136.66666666666666</ele><time>2026-04-26T14:14:44.003Z</time></trkpt><trkpt lat="45.360324306164074" lon="8.385791761565438"><ele>137.0</ele><time>2026-04-26T14:14:45.003Z</time></trkpt><trkpt lat="45.360147619888785" lon="8.385943363549448"><ele>137.0</ele><time>2026-04-26T14:14:46.003Z</time></trkpt><trkpt lat="45.359981213417974" lon="8.386088244909791"><ele>137.0</ele><time>2026-04-26T14:14:47.003Z</time></trkpt><trkpt lat="45.35982747422509" lon="8.38622459403516"><ele>137.0</ele><time>2026-04-26T14:14:48.003Z</time></trkpt><trkpt lat="45.35967683940751" lon="8.386357577048395"><ele>137.0</ele><time>2026-04-26T14:14:49.003Z</time></trkpt><trkpt lat="45.359537098083244" lon="8.386482680117812"><ele>137.0</ele><time>2026-04-26T14:14:50.003Z</time></trkpt><trkpt lat="45.359407534189" lon="8.386597357795843"><ele>137.0</ele><time>2026-04-26T14:14:51.003Z</time></trkpt><trkpt lat="45.359291561527364" lon="8.386694381709068"><ele>137.0</ele><time>2026-04-26T14:14:52.003Z</time></trkpt><trkpt lat="45.35919540623978" lon="8.38677951606934"><ele>137.0</ele><time>2026-04-26T14:14:53.003Z</time></trkpt><trkpt lat="45.3591035951034" lon="8.386846534620165"><ele>137.0</ele><time>2026-04-26T14:14:54.003Z</time></trkpt><trkpt lat="45.35901624523676" lon="8.386869204598517"><ele>137.0</ele><time>2026-04-26T14:14:55.003Z</time></trkpt><trkpt lat="45.358940945583" lon="8.386877688807761"><ele>137.0</ele><time>2026-04-26T14:14:56.003Z</time></trkpt><trkpt lat="45.35887362673979" lon="8.386925363855063"><ele>137.0</ele><time>2026-04-26T14:14:57.003Z</time></trkpt><trkpt lat="45.35882847946426" lon="8.38702558098151"><ele>137.0</ele><time>2026-04-26T14:14:58.003Z</time></trkpt><trkpt lat="45.35878920568267" lon="8.387147451076299"><ele>137.0</ele><time>2026-04-26T14:14:59.003Z</time></trkpt><trkpt lat="45.35871717117713" lon="8.387248590196297"><ele>137.0</ele><time>2026-04-26T14:15:00.003Z</time></trkpt><trkpt lat="45.358618177589406" lon="8.387335783124088"><ele>137.0</ele><time>2026-04-26T14:15:01.003Z</time></trkpt><trkpt lat="45.35850362130732" lon="8.387433060405584"><ele>136.66666666666666</ele><time>2026-04-26T14:15:02.003Z</time></trkpt><trkpt lat="45.35837834961685" lon="8.387545104842017"><ele>136.33333333333334</ele><time>2026-04-26T14:15:03.003Z</time></trkpt><trkpt lat="45.358242790499126" lon="8.38766296395437"><ele>136.0</ele><time>2026-04-26T14:15:04.003Z</time></trkpt><trkpt lat="45.35809938830264" lon="8.387787157376838"><ele>136.0</ele><time>2026-04-26T14:15:05.003Z</time></trkpt><trkpt lat="45.35794948137952" lon="8.38792202388287"><ele>136.0</ele><time>2026-04-26T14:15:06.003Z</time></trkpt><trkpt lat="45.35779626288408" lon="8.38806559083966"><ele>136.0</ele><time>2026-04-26T14:15:07.003Z</time></trkpt><trkpt lat="45.357650702124076" lon="8.388202016980628"><ele>136.0</ele><time>2026-04-26T14:15:08.003Z</time></trkpt><trkpt lat="45.35750979620281" lon="8.388332852159168"><ele>136.0</ele><time>2026-04-26T14:15:09.003Z</time></trkpt><trkpt lat="45.357370004327514" lon="8.388463510161682"><ele>136.0</ele><time>2026-04-26T14:15:10.003Z</time></trkpt><trkpt lat="45.35722374829689" lon="8.388599034677528"><ele>135.33333333333334</ele><time>2026-04-26T14:15:11.003Z</time></trkpt><trkpt lat="45.35707225628605" lon="8.388738287701166"><ele>134.66666666666666</ele><time>2026-04-26T14:15:12.003Z</time></trkpt><trkpt lat="45.35691058584212" lon="8.388878670662379"><ele>134.0</ele><time>2026-04-26T14:15:13.003Z</time></trkpt><trkpt lat="45.356752674027454" lon="8.389019008078462"><ele>134.0</ele><time>2026-04-26T14:15:14.003Z</time></trkpt><trkpt lat="45.356589658772265" lon="8.389167744765093"><ele>134.0</ele><time>2026-04-26T14:15:15.003Z</time></trkpt><trkpt lat="45.356419179635566" lon="8.389316208588845"><ele>134.0</ele><time>2026-04-26T14:15:16.003Z</time></trkpt><trkpt lat="45.35624538900589" lon="8.389470568318735"><ele>134.0</ele><time>2026-04-26T14:15:17.003Z</time></trkpt><trkpt lat="45.35607518506077" lon="8.389623489796202"><ele>134.0</ele><time>2026-04-26T14:15:18.003Z</time></trkpt><trkpt lat="45.35590718367601" lon="8.38976949022232"><ele>134.0</ele><time>2026-04-26T14:15:19.003Z</time></trkpt><trkpt lat="45.355737433021794" lon="8.389917242176374"><ele>134.0</ele><time>2026-04-26T14:15:20.003Z</time></trkpt><trkpt lat="45.35556962872088" lon="8.390064222114752"><ele>134.0</ele><time>2026-04-26T14:15:21.004Z</time></trkpt><trkpt lat="45.355400744936325" lon="8.39021014260289"><ele>134.0</ele><time>2026-04-26T14:15:22.004Z</time></trkpt><trkpt lat="45.35524013050848" lon="8.390349799027609"><ele>134.33333333333331</ele><time>2026-04-26T14:15:23.004Z</time></trkpt><trkpt lat="45.355086100724755" lon="8.390488197506043"><ele>134.66666666666666</ele><time>2026-04-26T14:15:24.004Z</time></trkpt><trkpt lat="45.3549344526674" lon="8.390626333641428"><ele>135.0</ele><time>2026-04-26T14:15:25.004Z</time></trkpt><trkpt lat="45.35477788035132" lon="8.390768211543593"><ele>135.33333333333334</ele><time>2026-04-26T14:15:26.003Z</time></trkpt><trkpt lat="45.354622764355646" lon="8.390908150019074"><ele>135.66666666666669</ele><time>2026-04-26T14:15:27.003Z</time></trkpt><trkpt lat="45.3544650023884" lon="8.391052785354077"><ele>136.0</ele><time>2026-04-26T14:15:28.003Z</time></trkpt><trkpt lat="45.35431254164592" lon="8.391192051716782"><ele>136.0</ele><time>2026-04-26T14:15:29.003Z</time></trkpt><trkpt lat="45.35416251578052" lon="8.391330436302692"><ele>136.0</ele><time>2026-04-26T14:15:30.003Z</time></trkpt><trkpt lat="45.35401562589443" lon="8.391463998556183"><ele>136.0</ele><time>2026-04-26T14:15:31.003Z</time></trkpt><trkpt lat="45.35387277613536" lon="8.391593130982974"><ele>135.66666666666669</ele><time>2026-04-26T14:15:32.003Z</time></trkpt><trkpt lat="45.35373253364924" lon="8.391720142811401"><ele>135.33333333333334</ele><time>2026-04-26T14:15:33.004Z</time></trkpt><trkpt lat="45.35360376184369" lon="8.391840005599741"><ele>135.0</ele><time>2026-04-26T14:15:34.004Z</time></trkpt><trkpt lat="45.35348002492206" lon="8.391952322300291"><ele>135.0</ele><time>2026-04-26T14:15:35.004Z</time></trkpt><trkpt lat="45.353365891714546" lon="8.392054560557517"><ele>135.0</ele><time>2026-04-26T14:15:36.004Z</time></trkpt><trkpt lat="45.353265634513875" lon="8.392142248744507"><ele>135.0</ele><time>2026-04-26T14:15:37.004Z</time></trkpt><trkpt lat="45.353178349862894" lon="8.392223446220509"><ele>135.0</ele><time>2026-04-26T14:15:38.004Z</time></trkpt><trkpt lat="45.35309544652425" lon="8.392283930257909"><ele>134.66666666666666</ele><time>2026-04-26T14:15:39.004Z</time></trkpt><trkpt lat="45.35301256722975" lon="8.392307033775657"><ele>134.33333333333334</ele><time>2026-04-26T14:15:40.004Z</time></trkpt><trkpt lat="45.352931353848724" lon="8.392309162168273"><ele>134.0</ele><time>2026-04-26T14:15:41.004Z</time></trkpt><trkpt lat="45.35285301410959" lon="8.392312309642946"><ele>133.66666666666669</ele><time>2026-04-26T14:15:42.004Z</time></trkpt><trkpt lat="45.35278308888227" lon="8.3923524995997"><ele>133.33333333333334</ele><time>2026-04-26T14:15:43.004Z</time></trkpt><trkpt lat="45.352726890407446" lon="8.392425386730979"><ele>133.0</ele><time>2026-04-26T14:15:44.004Z</time></trkpt><trkpt lat="45.35268910664371" lon="8.392526903559913"><ele>133.0</ele><time>2026-04-26T14:15:45.004Z</time></trkpt><trkpt lat="45.35263726025779" lon="8.392644106489817"><ele>133.0</ele><time>2026-04-26T14:15:46.004Z</time></trkpt><trkpt lat="45.35254998945487" lon="8.392748965326172"><ele>133.0</ele><time>2026-04-26T14:15:47.004Z</time></trkpt><trkpt lat="45.35244386980789" lon="8.392842269360528"><ele>133.0</ele><time>2026-04-26T14:15:48.004Z</time></trkpt><trkpt lat="45.352326423809416" lon="8.392939258558421"><ele>133.25</ele><time>2026-04-26T14:15:49.004Z</time></trkpt><trkpt lat="45.352203734866045" lon="8.39304606929021"><ele>133.5</ele><time>2026-04-26T14:15:50.004Z</time></trkpt><trkpt lat="45.35209016626344" lon="8.393155719508911"><ele>133.75</ele><time>2026-04-26T14:15:51.004Z</time></trkpt><trkpt lat="45.35197567158039" lon="8.39325595092387"><ele>134.0</ele><time>2026-04-26T14:15:52.004Z</time></trkpt><trkpt lat="45.35185312991769" lon="8.393362047349905"><ele>134.0</ele><time>2026-04-26T14:15:53.004Z</time></trkpt><trkpt lat="45.351724690577086" lon="8.393474858271261"><ele>134.0</ele><time>2026-04-26T14:15:54.004Z</time></trkpt><trkpt lat="45.3515919931191" lon="8.39358996954263"><ele>134.0</ele><time>2026-04-26T14:15:55.004Z</time></trkpt><trkpt lat="45.351456714441746" lon="8.393717688865227"><ele>134.0</ele><time>2026-04-26T14:15:56.004Z</time></trkpt><trkpt lat="45.35131386467878" lon="8.39384872322812"><ele>134.0</ele><time>2026-04-26T14:15:57.004Z</time></trkpt><trkpt lat="45.35116616329743" lon="8.393987089770393"><ele>134.0</ele><time>2026-04-26T14:15:58.004Z</time></trkpt><trkpt lat="45.35101423812155" lon="8.394125996307405"><ele>134.0</ele><time>2026-04-26T14:15:59.004Z</time></trkpt><trkpt lat="45.3508635757107" lon="8.3942623516427"><ele>134.0</ele><time>2026-04-26T14:16:00.004Z</time></trkpt><trkpt lat="45.350721569306046" lon="8.394392491855864"><ele>134.0</ele><time>2026-04-26T14:16:01.004Z</time></trkpt><trkpt lat="45.35058373376655" lon="8.394516482849369"><ele>134.66666666666666</ele><time>2026-04-26T14:16:02.004Z</time></trkpt><trkpt lat="45.35044425654472" lon="8.394644840993779"><ele>135.33333333333334</ele><time>2026-04-26T14:16:03.004Z</time></trkpt><trkpt lat="45.35030100734157" lon="8.394774577865304"><ele>136.0</ele><time>2026-04-26T14:16:04.004Z</time></trkpt><trkpt lat="45.35015543715028" lon="8.394910011765035"><ele>136.0</ele><time>2026-04-26T14:16:05.004Z</time></trkpt><trkpt lat="45.350007591723035" lon="8.39504448420028"><ele>136.0</ele><time>2026-04-26T14:16:06.004Z</time></trkpt><trkpt lat="45.34986082448657" lon="8.395176523230665"><ele>136.0</ele><time>2026-04-26T14:16:07.004Z</time></trkpt><trkpt lat="45.34971003016096" lon="8.395309372181368"><ele>135.66666666666669</ele><time>2026-04-26T14:16:08.004Z</time></trkpt><trkpt lat="45.349559714045085" lon="8.395448529421303"><ele>135.33333333333334</ele><time>2026-04-26T14:16:09.004Z</time></trkpt><trkpt lat="45.349405050354555" lon="8.395587009046071"><ele>135.0</ele><time>2026-04-26T14:16:10.004Z</time></trkpt><trkpt lat="45.34924671099636" lon="8.39572642498365"><ele>134.66666666666666</ele><time>2026-04-26T14:16:11.004Z</time></trkpt><trkpt lat="45.34909766246164" lon="8.395852600173171"><ele>134.33333333333331</ele><time>2026-04-26T14:16:12.004Z</time></trkpt><trkpt lat="45.34896078112853" lon="8.395956205296633"><ele>134.0</ele><time>2026-04-26T14:16:13.004Z</time></trkpt><trkpt lat="45.348826671629325" lon="8.396054551550794"><ele>134.0</ele><time>2026-04-26T14:16:14.004Z</time></trkpt><trkpt lat="45.34870539978932" lon="8.396140093818406"><ele>134.0</ele><time>2026-04-26T14:16:15.004Z</time></trkpt><trkpt lat="45.34859156548203" lon="8.396211658889811"><ele>134.0</ele><time>2026-04-26T14:16:16.004Z</time></trkpt><trkpt lat="45.34849627301604" lon="8.396274663422618"><ele>134.0</ele><time>2026-04-26T14:16:17.004Z</time></trkpt><trkpt lat="45.34839903497079" lon="8.396318326780671"><ele>134.0</ele><time>2026-04-26T14:16:18.004Z</time></trkpt><trkpt lat="45.34830144673147" lon="8.396329455339236"><ele>134.0</ele><time>2026-04-26T14:16:19.004Z</time></trkpt><trkpt lat="45.34820695979281" lon="8.396289950573887"><ele>134.0</ele><time>2026-04-26T14:16:20.004Z</time></trkpt><trkpt lat="45.34808900429503" lon="8.396293792066185"><ele>134.0</ele><time>2026-04-26T14:16:21.004Z</time></trkpt><trkpt lat="45.347962166681526" lon="8.396282963981681"><ele>134.0</ele><time>2026-04-26T14:16:22.004Z</time></trkpt><trkpt lat="45.3478217649298" lon="8.396268945063637"><ele>134.0</ele><time>2026-04-26T14:16:23.004Z</time></trkpt><trkpt lat="45.347673242463266" lon="8.39624964413645"><ele>134.0</ele><time>2026-04-26T14:16:24.004Z</time></trkpt><trkpt lat="45.347517729680774" lon="8.396222942714369"><ele>134.0</ele><time>2026-04-26T14:16:25.004Z</time></trkpt><trkpt lat="45.34735949894368" lon="8.396186066945495"><ele>133.0</ele><time>2026-04-26T14:16:26.004Z</time></trkpt><trkpt lat="45.34719463228023" lon="8.396143436956534"><ele>132.0</ele><time>2026-04-26T14:16:27.004Z</time></trkpt><trkpt lat="45.34702674540254" lon="8.396093033734543"><ele>131.0</ele><time>2026-04-26T14:16:28.004Z</time></trkpt><trkpt lat="45.346853605123115" lon="8.396036611433424"><ele>131.0</ele><time>2026-04-26T14:16:29.004Z</time></trkpt><trkpt lat="45.34667754076888" lon="8.395969732873283"><ele>131.0</ele><time>2026-04-26T14:16:30.004Z</time></trkpt><trkpt lat="45.3464947812466" lon="8.39590370040159"><ele>131.0</ele><time>2026-04-26T14:16:31.004Z</time></trkpt><trkpt lat="45.34630898149252" lon="8.395835988778657"><ele>131.33333333333331</ele><time>2026-04-26T14:16:32.004Z</time></trkpt><trkpt lat="45.34611806579558" lon="8.395766245198992"><ele>131.66666666666666</ele><time>2026-04-26T14:16:33.004Z</time></trkpt><trkpt lat="45.345922862973055" lon="8.395697994542207"><ele>132.0</ele><time>2026-04-26T14:16:34.004Z</time></trkpt><trkpt lat="45.34572375545339" lon="8.395628600596842"><ele>131.66666666666666</ele><time>2026-04-26T14:16:35.004Z</time></trkpt><trkpt lat="45.34552102004246" lon="8.395557247806982"><ele>131.33333333333331</ele><time>2026-04-26T14:16:36.004Z</time></trkpt><trkpt lat="45.345313603048716" lon="8.395484534433912"><ele>131.0</ele><time>2026-04-26T14:16:37.004Z</time></trkpt><trkpt lat="45.34510128151486" lon="8.395411055555224"><ele>131.0</ele><time>2026-04-26T14:16:38.004Z</time></trkpt><trkpt lat="45.34488798537449" lon="8.395337988904096"><ele>131.0</ele><time>2026-04-26T14:16:39.004Z</time></trkpt><trkpt lat="45.344684669887805" lon="8.39526660753051"><ele>131.0</ele><time>2026-04-26T14:16:40.004Z</time></trkpt><trkpt lat="45.344488210827535" lon="8.395195803071271"><ele>130.33333333333331</ele><time>2026-04-26T14:16:41.004Z</time></trkpt><trkpt lat="45.34429635887255" lon="8.395127996924861"><ele>129.66666666666666</ele><time>2026-04-26T14:16:42.004Z</time></trkpt><trkpt lat="45.344100673961535" lon="8.395060205237325"><ele>129.0</ele><time>2026-04-26T14:16:43.004Z</time></trkpt><trkpt lat="45.34390462328624" lon="8.394991690691535"><ele>129.66666666666666</ele><time>2026-04-26T14:16:44.004Z</time></trkpt><trkpt lat="45.34370677051338" lon="8.39491845424089"><ele>130.33333333333331</ele><time>2026-04-26T14:16:45.004Z</time></trkpt><trkpt lat="45.34350809188745" lon="8.394843012674722"><ele>131.0</ele><time>2026-04-26T14:16:46.004Z</time></trkpt><trkpt lat="45.34331015791253" lon="8.394772107521849"><ele>131.0</ele><time>2026-04-26T14:16:47.004Z</time></trkpt><trkpt lat="45.343120336518346" lon="8.394707223468396"><ele>131.0</ele><time>2026-04-26T14:16:48.004Z</time></trkpt><trkpt lat="45.3429477632824" lon="8.394648357376232"><ele>131.0</ele><time>2026-04-26T14:16:49.004Z</time></trkpt><trkpt lat="45.34278757250116" lon="8.394593598744141"><ele>130.75</ele><time>2026-04-26T14:16:50.004Z</time></trkpt><trkpt lat="45.34264623146912" lon="8.39454336842787"><ele>130.5</ele><time>2026-04-26T14:16:51.004Z</time></trkpt><trkpt lat="45.34252360686025" lon="8.394498270251043"><ele>130.25</ele><time>2026-04-26T14:16:52.004Z</time></trkpt><trkpt lat="45.3424123966892" lon="8.394457367986533"><ele>130.0</ele><time>2026-04-26T14:16:53.004Z</time></trkpt><trkpt lat="45.34230912142193" lon="8.394405994908269"><ele>130.0</ele><time>2026-04-26T14:16:54.004Z</time></trkpt><trkpt lat="45.342216145191294" lon="8.394333621774708"><ele>130.0</ele><time>2026-04-26T14:16:55.004Z</time></trkpt><trkpt lat="45.34214011185385" lon="8.394237711424267"><ele>130.0</ele><time>2026-04-26T14:16:56.004Z</time></trkpt><trkpt lat="45.342078726608754" lon="8.394119514104501"><ele>130.0</ele><time>2026-04-26T14:16:57.004Z</time></trkpt><trkpt lat="45.3420153415584" lon="8.393995966253541"><ele>130.0</ele><time>2026-04-26T14:16:58.004Z</time></trkpt><trkpt lat="45.341933218535694" lon="8.393889691254602"><ele>130.5</ele><time>2026-04-26T14:16:59.004Z</time></trkpt><trkpt lat="45.34184423578022" lon="8.393787708488656"><ele>131.0</ele><time>2026-04-26T14:17:00.004Z</time></trkpt><trkpt lat="45.34172158380837" lon="8.393755225314582"><ele>131.5</ele><time>2026-04-26T14:17:01.004Z</time></trkpt><trkpt lat="45.3415982935495" lon="8.393796109896805"><ele>132.0</ele><time>2026-04-26T14:17:02.004Z</time></trkpt><trkpt lat="45.34148023079858" lon="8.393854730676653"><ele>131.5</ele><time>2026-04-26T14:17:03.004Z</time></trkpt><trkpt lat="45.341364672730194" lon="8.393937828302503"><ele>131.0</ele><time>2026-04-26T14:17:04.004Z</time></trkpt><trkpt lat="45.34123071353135" lon="8.393989984424804"><ele>130.5</ele><time>2026-04-26T14:17:05.004Z</time></trkpt><trkpt lat="45.341084550006094" lon="8.393993431678767"><ele>130.0</ele><time>2026-04-26T14:17:06.004Z</time></trkpt><trkpt lat="45.340941450493915" lon="8.39392755512601"><ele>130.0</ele><time>2026-04-26T14:17:07.004Z</time></trkpt><trkpt lat="45.34078385656218" lon="8.39388728027561"><ele>130.0</ele><time>2026-04-26T14:17:08.004Z</time></trkpt><trkpt lat="45.34061547980822" lon="8.393822244255162"><ele>130.0</ele><time>2026-04-26T14:17:09.004Z</time></trkpt><trkpt lat="45.34043648269413" lon="8.393756445045195"><ele>130.0</ele><time>2026-04-26T14:17:10.004Z</time></trkpt><trkpt lat="45.340247082793" lon="8.39369190482145"><ele>130.0</ele><time>2026-04-26T14:17:11.004Z</time></trkpt><trkpt lat="45.340045762594265" lon="8.393621931775835"><ele>130.0</ele><time>2026-04-26T14:17:12.004Z</time></trkpt><trkpt lat="45.33983129204344" lon="8.39354686473758"><ele>130.33333333333334</ele><time>2026-04-26T14:17:13.004Z</time></trkpt><trkpt lat="45.339615115666994" lon="8.393466571495262"><ele>130.66666666666666</ele><time>2026-04-26T14:17:14.004Z</time></trkpt><trkpt lat="45.33940724812224" lon="8.393392624972462"><ele>131.0</ele><time>2026-04-26T14:17:15.004Z</time></trkpt><trkpt lat="45.33919331994107" lon="8.393318122694238"><ele>131.0</ele><time>2026-04-26T14:17:16.004Z</time></trkpt><trkpt lat="45.33897143719058" lon="8.393236050650746"><ele>131.0</ele><time>2026-04-26T14:17:17.004Z</time></trkpt><trkpt lat="45.33874276961668" lon="8.393151361701022"><ele>130.5</ele><time>2026-04-26T14:17:18.004Z</time></trkpt><trkpt lat="45.33851035111762" lon="8.39306576822763"><ele>130.0</ele><time>2026-04-26T14:17:19.004Z</time></trkpt><trkpt lat="45.33827307331554" lon="8.392976357735677"><ele>130.5</ele><time>2026-04-26T14:17:20.004Z</time></trkpt><trkpt lat="45.33803041030282" lon="8.39289013501773"><ele>131.0</ele><time>2026-04-26T14:17:21.004Z</time></trkpt><trkpt lat="45.33778331068186" lon="8.392803808421464"><ele>131.0</ele><time>2026-04-26T14:17:22.004Z</time></trkpt><trkpt lat="45.33754555882839" lon="8.392720806109597"><ele>131.0</ele><time>2026-04-26T14:17:23.004Z</time></trkpt><trkpt lat="45.33731839971418" lon="8.392643379581132"><ele>130.5</ele><time>2026-04-26T14:17:24.004Z</time></trkpt><trkpt lat="45.33709111654305" lon="8.392564690810548"><ele>130.0</ele><time>2026-04-26T14:17:25.004Z</time></trkpt><trkpt lat="45.33686403418459" lon="8.392482449381898"><ele>130.0</ele><time>2026-04-26T14:17:26.003Z</time></trkpt><trkpt lat="45.33663597900223" lon="8.392398446625704"><ele>130.0</ele><time>2026-04-26T14:17:27.004Z</time></trkpt><trkpt lat="45.33640874100785" lon="8.392321218890533"><ele>129.5</ele><time>2026-04-26T14:17:28.004Z</time></trkpt><trkpt lat="45.336182562643494" lon="8.39224434622352"><ele>129.0</ele><time>2026-04-26T14:17:29.003Z</time></trkpt><trkpt lat="45.33596500903848" lon="8.392169905104398"><ele>128.66666666666666</ele><time>2026-04-26T14:17:30.003Z</time></trkpt><trkpt lat="45.335758793459426" lon="8.39209968413535"><ele>128.33333333333331</ele><time>2026-04-26T14:17:31.003Z</time></trkpt><trkpt lat="45.335567285602316" lon="8.392033608983917"><ele>128.0</ele><time>2026-04-26T14:17:32.003Z</time></trkpt><trkpt lat="45.33539036022762" lon="8.391972934621558"><ele>128.0</ele><time>2026-04-26T14:17:33.003Z</time></trkpt><trkpt lat="45.33522970839287" lon="8.391915828589172"><ele>128.0</ele><time>2026-04-26T14:17:34.003Z</time></trkpt><trkpt lat="45.335085181989584" lon="8.391863010633209"><ele>128.0</ele><time>2026-04-26T14:17:35.003Z</time></trkpt><trkpt lat="45.334956934576546" lon="8.391816212250776"><ele>128.0</ele><time>2026-04-26T14:17:36.004Z</time></trkpt><trkpt lat="45.33484088471341" lon="8.391758852499553"><ele>128.0</ele><time>2026-04-26T14:17:37.004Z</time></trkpt><trkpt lat="45.33474481443786" lon="8.391680802896646"><ele>128.0</ele><time>2026-04-26T14:17:38.004Z</time></trkpt><trkpt lat="45.33466578407958" lon="8.391579435316157"><ele>128.0</ele><time>2026-04-26T14:17:39.004Z</time></trkpt><trkpt lat="45.33459552187401" lon="8.3914751021928"><ele>128.0</ele><time>2026-04-26T14:17:40.004Z</time></trkpt><trkpt lat="45.33451241912737" lon="8.391407819985046"><ele>128.0</ele><time>2026-04-26T14:17:41.004Z</time></trkpt><trkpt lat="45.33441910650628" lon="8.391395083644328"><ele>128.5</ele><time>2026-04-26T14:17:42.004Z</time></trkpt><trkpt lat="45.33431518558092" lon="8.391428503186608"><ele>129.0</ele><time>2026-04-26T14:17:43.004Z</time></trkpt><trkpt lat="45.33420133303716" lon="8.391483166075696"><ele>129.5</ele><time>2026-04-26T14:17:44.004Z</time></trkpt><trkpt lat="45.334068362413156" lon="8.391492145540793"><ele>130.0</ele><time>2026-04-26T14:17:45.004Z</time></trkpt><trkpt lat="45.333924756191344" lon="8.391444683993534"><ele>129.66666666666669</ele><time>2026-04-26T14:17:46.004Z</time></trkpt><trkpt lat="45.33377103072797" lon="8.391378558223677"><ele>129.33333333333334</ele><time>2026-04-26T14:17:47.004Z</time></trkpt><trkpt lat="45.33360141999837" lon="8.391316778681555"><ele>129.0</ele><time>2026-04-26T14:17:48.004Z</time></trkpt><trkpt lat="45.333411952283825" lon="8.391250249197471"><ele>129.0</ele><time>2026-04-26T14:17:49.004Z</time></trkpt><trkpt lat="45.3332089666591" lon="8.391174310321393"><ele>129.0</ele><time>2026-04-26T14:17:50.004Z</time></trkpt><trkpt lat="45.33299452403981" lon="8.391096078430452"><ele>129.0</ele><time>2026-04-26T14:17:51.004Z</time></trkpt><trkpt lat="45.33277925196659" lon="8.391021516518702"><ele>129.0</ele><time>2026-04-26T14:17:52.004Z</time></trkpt><trkpt lat="45.3325707099282" lon="8.390951457749578"><ele>129.0</ele><time>2026-04-26T14:17:53.004Z</time></trkpt><trkpt lat="45.33235574451308" lon="8.390876932995544"><ele>129.0</ele><time>2026-04-26T14:17:54.004Z</time></trkpt><trkpt lat="45.332139699437064" lon="8.390802386291885"><ele>129.5</ele><time>2026-04-26T14:17:55.004Z</time></trkpt><trkpt lat="45.33192051283934" lon="8.390724720160996"><ele>130.0</ele><time>2026-04-26T14:17:56.004Z</time></trkpt><trkpt lat="45.33169454786477" lon="8.390645666132817"><ele>130.0</ele><time>2026-04-26T14:17:57.004Z</time></trkpt><trkpt lat="45.33146424692616" lon="8.390563493390461"><ele>130.0</ele><time>2026-04-26T14:17:58.004Z</time></trkpt><trkpt lat="45.331229526255875" lon="8.390479430420376"><ele>129.0</ele><time>2026-04-26T14:17:59.004Z</time></trkpt><trkpt lat="45.33099395597613" lon="8.39039546530788"><ele>128.0</ele><time>2026-04-26T14:18:00.004Z</time></trkpt><trkpt lat="45.33075946544754" lon="8.390313586132635"><ele>128.5</ele><time>2026-04-26T14:18:01.004Z</time></trkpt><trkpt lat="45.3305256303272" lon="8.390231457082649"><ele>129.0</ele><time>2026-04-26T14:18:02.004Z</time></trkpt><trkpt lat="45.33029446381443" lon="8.390148744058685"><ele>129.0</ele><time>2026-04-26T14:18:03.004Z</time></trkpt><trkpt lat="45.330064939331024" lon="8.390066593388578"><ele>129.0</ele><time>2026-04-26T14:18:04.004Z</time></trkpt><trkpt lat="45.32984756514231" lon="8.389987806923415"><ele>130.0</ele><time>2026-04-26T14:18:05.004Z</time></trkpt><trkpt lat="45.329637946667106" lon="8.38991552097583"><ele>131.0</ele><time>2026-04-26T14:18:06.004Z</time></trkpt><trkpt lat="45.32942797386812" lon="8.38984210862491"><ele>132.0</ele><time>2026-04-26T14:18:07.004Z</time></trkpt><trkpt lat="45.329215422625694" lon="8.3897645051766"><ele>132.0</ele><time>2026-04-26T14:18:08.004Z</time></trkpt><trkpt lat="45.32900325031245" lon="8.389687010044605"><ele>132.0</ele><time>2026-04-26T14:18:09.004Z</time></trkpt><trkpt lat="45.328785535390416" lon="8.38960890166135"><ele>132.0</ele><time>2026-04-26T14:18:10.004Z</time></trkpt><trkpt lat="45.328565521035415" lon="8.389532634377032"><ele>132.5</ele><time>2026-04-26T14:18:11.004Z</time></trkpt><trkpt lat="45.328342818358564" lon="8.389457194461821"><ele>133.0</ele><time>2026-04-26T14:18:12.004Z</time></trkpt><trkpt lat="45.3281168441695" lon="8.389377417458718"><ele>132.5</ele><time>2026-04-26T14:18:13.004Z</time></trkpt><trkpt lat="45.327891908606524" lon="8.389295714104414"><ele>132.0</ele><time>2026-04-26T14:18:14.004Z</time></trkpt><trkpt lat="45.327669258642416" lon="8.38921368237824"><ele>132.0</ele><time>2026-04-26T14:18:15.004Z</time></trkpt><trkpt lat="45.32744888067323" lon="8.389137341073715"><ele>132.0</ele><time>2026-04-26T14:18:16.004Z</time></trkpt><trkpt lat="45.3272326008291" lon="8.389062225198826"><ele>132.0</ele><time>2026-04-26T14:18:17.004Z</time></trkpt><trkpt lat="45.32701701473083" lon="8.388988037018306"><ele>131.66666666666666</ele><time>2026-04-26T14:18:18.004Z</time></trkpt><trkpt lat="45.32680245545662" lon="8.38891202197209"><ele>131.33333333333331</ele><time>2026-04-26T14:18:19.004Z</time></trkpt><trkpt lat="45.32659150420468" lon="8.38883729785222"><ele>131.0</ele><time>2026-04-26T14:18:20.004Z</time></trkpt><trkpt lat="45.326395781805864" lon="8.38874685086889"><ele>130.66666666666666</ele><time>2026-04-26T14:18:21.004Z</time></trkpt><trkpt lat="45.326206383591924" lon="8.38867988227059"><ele>130.33333333333334</ele><time>2026-04-26T14:18:22.003Z</time></trkpt><trkpt lat="45.32602814698709" lon="8.388619456222893"><ele>130.0</ele><time>2026-04-26T14:18:23.003Z</time></trkpt><trkpt lat="45.325856043310495" lon="8.388562685395144"><ele>130.0</ele><time>2026-04-26T14:18:24.003Z</time></trkpt><trkpt lat="45.3256986710714" lon="8.388511401917798"><ele>130.0</ele><time>2026-04-26T14:18:25.003Z</time></trkpt><trkpt lat="45.325557874387165" lon="8.388461629347503"><ele>130.0</ele><time>2026-04-26T14:18:26.003Z</time></trkpt><trkpt lat="45.32542743708013" lon="8.388411789661024"><ele>130.0</ele><time>2026-04-26T14:18:27.003Z</time></trkpt><trkpt lat="45.32531289875909" lon="8.388368666636762"><ele>130.8</ele><time>2026-04-26T14:18:28.003Z</time></trkpt><trkpt lat="45.32521095295831" lon="8.388333099970536"><ele>131.6</ele><time>2026-04-26T14:18:29.003Z</time></trkpt><trkpt lat="45.3251174339423" lon="8.388298955103588"><ele>132.4</ele><time>2026-04-26T14:18:30.003Z</time></trkpt><trkpt lat="45.325028434268376" lon="8.38826230225325"><ele>133.2</ele><time>2026-04-26T14:18:31.003Z</time></trkpt><trkpt lat="45.32494518386251" lon="8.388226548807543"><ele>134.0</ele><time>2026-04-26T14:18:32.003Z</time></trkpt><trkpt lat="45.324864113044704" lon="8.388195439885097"><ele>134.0</ele><time>2026-04-26T14:18:33.003Z</time></trkpt><trkpt lat="45.32478706187694" lon="8.388168052371837"><ele>134.0</ele><time>2026-04-26T14:18:34.003Z</time></trkpt><trkpt lat="45.32471975142279" lon="8.388147244010666"><ele>134.0</ele><time>2026-04-26T14:18:35.003Z</time></trkpt><trkpt lat="45.32463301540376" lon="8.388118642082992"><ele>134.0</ele><time>2026-04-26T14:18:37.003Z</time></trkpt><trkpt lat="45.32455668361511" lon="8.388089414696509"><ele>134.0</ele><time>2026-04-26T14:18:39.003Z</time></trkpt><trkpt lat="45.324468384848494" lon="8.388024322976689"><ele>134.0</ele><time>2026-04-26T14:18:41.003Z</time></trkpt><trkpt lat="45.32441169859567" lon="8.387965002774447"><ele>133.2</ele><time>2026-04-26T14:18:43.003Z</time></trkpt><trkpt lat="45.324325940460064" lon="8.387796073973352"><ele>132.4</ele><time>2026-04-26T14:18:45.003Z</time></trkpt><trkpt lat="45.3242673777052" lon="8.387699187322356"><ele>131.6</ele><time>2026-04-26T14:18:46.003Z</time></trkpt><trkpt lat="45.324187230657245" lon="8.387626781302417"><ele>130.8</ele><time>2026-04-26T14:18:47.003Z</time></trkpt><trkpt lat="45.324094079896355" lon="8.387582495003386"><ele>130.0</ele><time>2026-04-26T14:18:48.003Z</time></trkpt><trkpt lat="45.32399432647509" lon="8.387562196635125"><ele>130.0</ele><time>2026-04-26T14:18:49.003Z</time></trkpt><trkpt lat="45.323904619795016" lon="8.387554879144623"><ele>130.0</ele><time>2026-04-26T14:18:50.003Z</time></trkpt><trkpt lat="45.32383457882309" lon="8.38754916581114"><ele>130.0</ele><time>2026-04-26T14:18:51.003Z</time></trkpt><trkpt lat="45.32371981893745" lon="8.388037106157508"><ele>130.5</ele><time>2026-04-26T14:18:53.003Z</time></trkpt><trkpt lat="45.32364024181535" lon="8.388182675485313"><ele>131.0</ele><time>2026-04-26T14:18:54.003Z</time></trkpt><trkpt lat="45.32353546040563" lon="8.388319680344914"><ele>131.5</ele><time>2026-04-26T14:18:55.003Z</time></trkpt><trkpt lat="45.3234330239878" lon="8.388447233598761"><ele>132.0</ele><time>2026-04-26T14:18:56.003Z</time></trkpt><trkpt lat="45.32332351479152" lon="8.388582831159201"><ele>132.0</ele><time>2026-04-26T14:18:57.003Z</time></trkpt><trkpt lat="45.323199720848436" lon="8.388721703553301"><ele>132.0</ele><time>2026-04-26T14:18:58.003Z</time></trkpt><trkpt lat="45.323068512164575" lon="8.388870357550667"><ele>132.0</ele><time>2026-04-26T14:18:59.003Z</time></trkpt><trkpt lat="45.32293117202745" lon="8.389029696527434"><ele>132.0</ele><time>2026-04-26T14:19:00.003Z</time></trkpt><trkpt lat="45.322790377037094" lon="8.389186692705762"><ele>132.0</ele><time>2026-04-26T14:19:01.003Z</time></trkpt><trkpt lat="45.32265454932647" lon="8.389328202633246"><ele>132.0</ele><time>2026-04-26T14:19:02.003Z</time></trkpt><trkpt lat="45.32251147986961" lon="8.389465965580904"><ele>132.0</ele><time>2026-04-26T14:19:03.003Z</time></trkpt><trkpt lat="45.32235915928918" lon="8.389598598538011"><ele>132.0</ele><time>2026-04-26T14:19:04.003Z</time></trkpt><trkpt lat="45.32219663787554" lon="8.389732208821862"><ele>132.0</ele><time>2026-04-26T14:19:05.003Z</time></trkpt><trkpt lat="45.32203182972857" lon="8.389871548245498"><ele>132.33333333333334</ele><time>2026-04-26T14:19:06.003Z</time></trkpt><trkpt lat="45.32186330232558" lon="8.390019065949762"><ele>132.66666666666669</ele><time>2026-04-26T14:19:07.003Z</time></trkpt><trkpt lat="45.32169334998548" lon="8.39016743741222"><ele>133.0</ele><time>2026-04-26T14:19:08.003Z</time></trkpt><trkpt lat="45.32151945759197" lon="8.39031540125015"><ele>133.0</ele><time>2026-04-26T14:19:09.003Z</time></trkpt><trkpt lat="45.32134608886171" lon="8.390463057703768"><ele>133.0</ele><time>2026-04-26T14:19:10.003Z</time></trkpt><trkpt lat="45.32117535158821" lon="8.390609299975136"><ele>133.0</ele><time>2026-04-26T14:19:11.003Z</time></trkpt><trkpt lat="45.32100521481039" lon="8.390758363703922"><ele>132.66666666666669</ele><time>2026-04-26T14:19:12.003Z</time></trkpt><trkpt lat="45.320832634441985" lon="8.390903168832676"><ele>132.33333333333334</ele><time>2026-04-26T14:19:13.003Z</time></trkpt><trkpt lat="45.320663353188365" lon="8.391045753373502"><ele>132.0</ele><time>2026-04-26T14:19:14.003Z</time></trkpt><trkpt lat="45.320494779372765" lon="8.391188350791095"><ele>132.0</ele><time>2026-04-26T14:19:15.003Z</time></trkpt><trkpt lat="45.320325336962405" lon="8.391330536086551"><ele>132.0</ele><time>2026-04-26T14:19:16.003Z</time></trkpt><trkpt lat="45.32015728282394" lon="8.391474012887716"><ele>132.0</ele><time>2026-04-26T14:19:17.003Z</time></trkpt><trkpt lat="45.319990217958846" lon="8.391617934140529"><ele>131.33333333333334</ele><time>2026-04-26T14:19:18.003Z</time></trkpt><trkpt lat="45.31981980885987" lon="8.391763479690487"><ele>130.66666666666669</ele><time>2026-04-26T14:19:19.003Z</time></trkpt><trkpt lat="45.31965079514474" lon="8.391906756789622"><ele>130.0</ele><time>2026-04-26T14:19:20.003Z</time></trkpt><trkpt lat="45.31948236550579" lon="8.392052419629822"><ele>130.33333333333334</ele><time>2026-04-26T14:19:21.003Z</time></trkpt><trkpt lat="45.31931278109606" lon="8.392197403372315"><ele>130.66666666666666</ele><time>2026-04-26T14:19:22.003Z</time></trkpt><trkpt lat="45.31914970678169" lon="8.392338047961706"><ele>131.0</ele><time>2026-04-26T14:19:23.003Z</time></trkpt><trkpt lat="45.318991470042945" lon="8.392475909533403"><ele>130.33333333333331</ele><time>2026-04-26T14:19:24.003Z</time></trkpt><trkpt lat="45.318827981810415" lon="8.392613044774562"><ele>129.66666666666666</ele><time>2026-04-26T14:19:25.003Z</time></trkpt><trkpt lat="45.31866382375773" lon="8.392759101044865"><ele>129.0</ele><time>2026-04-26T14:19:26.003Z</time></trkpt><trkpt lat="45.318496275122484" lon="8.39290330461373"><ele>128.66666666666666</ele><time>2026-04-26T14:19:27.003Z</time></trkpt><trkpt lat="45.318325541760764" lon="8.393050292042735"><ele>128.33333333333331</ele><time>2026-04-26T14:19:28.003Z</time></trkpt><trkpt lat="45.31815882862748" lon="8.393192073885483"><ele>128.0</ele><time>2026-04-26T14:19:29.003Z</time></trkpt><trkpt lat="45.317995173503355" lon="8.393332710275192"><ele>128.0</ele><time>2026-04-26T14:19:30.003Z</time></trkpt><trkpt lat="45.317838593562286" lon="8.393467474807663"><ele>128.0</ele><time>2026-04-26T14:19:31.003Z</time></trkpt><trkpt lat="45.3176908729789" lon="8.393596711970167"><ele>128.0</ele><time>2026-04-26T14:19:32.003Z</time></trkpt><trkpt lat="45.317550791241224" lon="8.393717164669845"><ele>128.0</ele><time>2026-04-26T14:19:33.003Z</time></trkpt><trkpt lat="45.317420338303464" lon="8.393828485444697"><ele>128.0</ele><time>2026-04-26T14:19:34.003Z</time></trkpt><trkpt lat="45.31730365712305" lon="8.3939233311932"><ele>128.0</ele><time>2026-04-26T14:19:35.004Z</time></trkpt><trkpt lat="45.31718915275103" lon="8.394003438507383"><ele>128.0</ele><time>2026-04-26T14:19:36.003Z</time></trkpt><trkpt lat="45.31707587569492" lon="8.394060983425568"><ele>128.20000000000002</ele><time>2026-04-26T14:19:37.003Z</time></trkpt><trkpt lat="45.3169696521246" lon="8.394088184299964"><ele>128.4</ele><time>2026-04-26T14:19:38.004Z</time></trkpt><trkpt lat="45.31686975274861" lon="8.394096646469055"><ele>128.60000000000002</ele><time>2026-04-26T14:19:39.003Z</time></trkpt><trkpt lat="45.31677379425151" lon="8.394110805181844"><ele>128.8</ele><time>2026-04-26T14:19:40.003Z</time></trkpt><trkpt lat="45.31669124775987" lon="8.394153945138305"><ele>129.0</ele><time>2026-04-26T14:19:41.004Z</time></trkpt><trkpt lat="45.31661800223376" lon="8.394244241016848"><ele>129.0</ele><time>2026-04-26T14:19:42.003Z</time></trkpt><trkpt lat="45.31656079322414" lon="8.394371134839458"><ele>129.0</ele><time>2026-04-26T14:19:43.003Z</time></trkpt><trkpt lat="45.31650192866095" lon="8.394515159975823"><ele>129.0</ele><time>2026-04-26T14:19:44.003Z</time></trkpt><trkpt lat="45.31641789043488" lon="8.3946494453396"><ele>129.0</ele><time>2026-04-26T14:19:45.004Z</time></trkpt><trkpt lat="45.31630744359787" lon="8.394765866283029"><ele>129.33333333333334</ele><time>2026-04-26T14:19:46.004Z</time></trkpt><trkpt lat="45.31618127254149" lon="8.394876982767753"><ele>129.66666666666669</ele><time>2026-04-26T14:19:47.004Z</time></trkpt><trkpt lat="45.31604494862738" lon="8.394990835213143"><ele>130.0</ele><time>2026-04-26T14:19:48.004Z</time></trkpt><trkpt lat="45.31590038050381" lon="8.395110975757119"><ele>130.0</ele><time>2026-04-26T14:19:49.004Z</time></trkpt><trkpt lat="45.31575134155004" lon="8.395239152803951"><ele>130.0</ele><time>2026-04-26T14:19:50.004Z</time></trkpt><trkpt lat="45.315598541098076" lon="8.39537365168554"><ele>130.0</ele><time>2026-04-26T14:19:51.004Z</time></trkpt><trkpt lat="45.315442022285275" lon="8.39551808882387"><ele>129.0</ele><time>2026-04-26T14:19:52.004Z</time></trkpt><trkpt lat="45.31529097662563" lon="8.395649631967276"><ele>128.0</ele><time>2026-04-26T14:19:53.004Z</time></trkpt><trkpt lat="45.3151438258414" lon="8.395777149948136"><ele>127.0</ele><time>2026-04-26T14:19:54.004Z</time></trkpt><trkpt lat="45.314992969622374" lon="8.395909602436772"><ele>127.0</ele><time>2026-04-26T14:19:55.004Z</time></trkpt><trkpt lat="45.31483987636905" lon="8.39604089353148"><ele>127.0</ele><time>2026-04-26T14:19:56.004Z</time></trkpt><trkpt lat="45.31468360347304" lon="8.396171737155536"><ele>127.0</ele><time>2026-04-26T14:19:57.004Z</time></trkpt><trkpt lat="45.31452555817052" lon="8.396303292960935"><ele>126.66666666666667</ele><time>2026-04-26T14:19:58.004Z</time></trkpt><trkpt lat="45.31436569171481" lon="8.396436638452142"><ele>126.33333333333334</ele><time>2026-04-26T14:19:59.004Z</time></trkpt><trkpt lat="45.3142033991599" lon="8.396572232084065"><ele>126.0</ele><time>2026-04-26T14:20:00.004Z</time></trkpt><trkpt lat="45.31404153440809" lon="8.396712885074706"><ele>126.0</ele><time>2026-04-26T14:20:01.004Z</time></trkpt><trkpt lat="45.31387692956916" lon="8.396851966277401"><ele>126.0</ele><time>2026-04-26T14:20:02.004Z</time></trkpt><trkpt lat="45.31371139993616" lon="8.396994831711261"><ele>126.0</ele><time>2026-04-26T14:20:03.004Z</time></trkpt><trkpt lat="45.31354171143074" lon="8.397143688193676"><ele>126.0</ele><time>2026-04-26T14:20:04.004Z</time></trkpt><trkpt lat="45.31336788755526" lon="8.397293536880508"><ele>126.0</ele><time>2026-04-26T14:20:05.004Z</time></trkpt><trkpt lat="45.313188077550365" lon="8.397449133196904"><ele>126.0</ele><time>2026-04-26T14:20:06.004Z</time></trkpt><trkpt lat="45.313006003762965" lon="8.397605166400615"><ele>126.0</ele><time>2026-04-26T14:20:07.004Z</time></trkpt><trkpt lat="45.31283683121408" lon="8.397755782252398"><ele>126.0</ele><time>2026-04-26T14:20:08.004Z</time></trkpt><trkpt lat="45.31267284979745" lon="8.397901611292236"><ele>126.0</ele><time>2026-04-26T14:20:09.004Z</time></trkpt><trkpt lat="45.31251140790356" lon="8.39804285434427"><ele>126.33333333333334</ele><time>2026-04-26T14:20:10.003Z</time></trkpt><trkpt lat="45.31235220226068" lon="8.398180423386457"><ele>126.66666666666667</ele><time>2026-04-26T14:20:11.003Z</time></trkpt><trkpt lat="45.31219599909641" lon="8.398320559405654"><ele>127.0</ele><time>2026-04-26T14:20:12.003Z</time></trkpt><trkpt lat="45.31203595975092" lon="8.398457821348625"><ele>127.0</ele><time>2026-04-26T14:20:13.003Z</time></trkpt><trkpt lat="45.311871801628264" lon="8.398573172131467"><ele>127.0</ele><time>2026-04-26T14:20:14.003Z</time></trkpt><trkpt lat="45.31171394374389" lon="8.398707249687003"><ele>127.0</ele><time>2026-04-26T14:20:15.003Z</time></trkpt><trkpt lat="45.31155595836488" lon="8.39884143556148"><ele>127.0</ele><time>2026-04-26T14:20:16.003Z</time></trkpt><trkpt lat="45.31139754230833" lon="8.398976700086001"><ele>127.0</ele><time>2026-04-26T14:20:17.003Z</time></trkpt><trkpt lat="45.31124340978125" lon="8.399132295781143"><ele>127.0</ele><time>2026-04-26T14:20:18.003Z</time></trkpt><trkpt lat="45.31107629396113" lon="8.399265392613213"><ele>127.0</ele><time>2026-04-26T14:20:19.003Z</time></trkpt><trkpt lat="45.31091407984945" lon="8.399398057035608"><ele>127.0</ele><time>2026-04-26T14:20:20.003Z</time></trkpt><trkpt lat="45.31075278419965" lon="8.399531568662985"><ele>127.0</ele><time>2026-04-26T14:20:21.003Z</time></trkpt><trkpt lat="45.31059389636215" lon="8.399662896447156"><ele>127.0</ele><time>2026-04-26T14:20:22.003Z</time></trkpt><trkpt lat="45.310437979045645" lon="8.399791589712144"><ele>127.0</ele><time>2026-04-26T14:20:23.003Z</time></trkpt><trkpt lat="45.310282867644126" lon="8.399926640417252"><ele>127.0</ele><time>2026-04-26T14:20:24.003Z</time></trkpt><trkpt lat="45.31012433402433" lon="8.400035773950757"><ele>127.0</ele><time>2026-04-26T14:20:25.003Z</time></trkpt><trkpt lat="45.30997539653697" lon="8.400163109556622"><ele>127.0</ele><time>2026-04-26T14:20:26.003Z</time></trkpt><trkpt lat="45.30983271078407" lon="8.400293689059396"><ele>127.0</ele><time>2026-04-26T14:20:27.003Z</time></trkpt><trkpt lat="45.309687538396915" lon="8.400424488406049"><ele>128.0</ele><time>2026-04-26T14:20:28.003Z</time></trkpt><trkpt lat="45.30953590504277" lon="8.400549327725297"><ele>129.0</ele><time>2026-04-26T14:20:29.003Z</time></trkpt><trkpt lat="45.309381487508816" lon="8.400676947906245"><ele>130.0</ele><time>2026-04-26T14:20:30.003Z</time></trkpt><trkpt lat="45.30922123421608" lon="8.400824504474045"><ele>130.0</ele><time>2026-04-26T14:20:31.003Z</time></trkpt><trkpt lat="45.30905476625383" lon="8.400971587282632"><ele>130.0</ele><time>2026-04-26T14:20:32.003Z</time></trkpt><trkpt lat="45.308884170132636" lon="8.40112225949491"><ele>130.0</ele><time>2026-04-26T14:20:33.003Z</time></trkpt><trkpt lat="45.30871009943843" lon="8.401269592121485"><ele>129.0</ele><time>2026-04-26T14:20:34.003Z</time></trkpt><trkpt lat="45.308532643789995" lon="8.401419504722972"><ele>128.0</ele><time>2026-04-26T14:20:35.003Z</time></trkpt><trkpt lat="45.30835203917058" lon="8.401573720274182"><ele>127.0</ele><time>2026-04-26T14:20:36.003Z</time></trkpt><trkpt lat="45.30817342927973" lon="8.401725448778903"><ele>127.33333333333334</ele><time>2026-04-26T14:20:37.003Z</time></trkpt><trkpt lat="45.30800180634065" lon="8.40188408849706"><ele>127.66666666666666</ele><time>2026-04-26T14:20:38.003Z</time></trkpt><trkpt lat="45.30783992047711" lon="8.402044070297274"><ele>128.0</ele><time>2026-04-26T14:20:39.003Z</time></trkpt><trkpt lat="45.307682416417414" lon="8.402206397540189"><ele>128.0</ele><time>2026-04-26T14:20:40.003Z</time></trkpt><trkpt lat="45.307529611935735" lon="8.402372123913013"><ele>128.0</ele><time>2026-04-26T14:20:41.003Z</time></trkpt><trkpt lat="45.30738235782548" lon="8.402549727928692"><ele>128.0</ele><time>2026-04-26T14:20:42.003Z</time></trkpt><trkpt lat="45.307236685978225" lon="8.402732276169585"><ele>128.33333333333331</ele><time>2026-04-26T14:20:43.003Z</time></trkpt><trkpt lat="45.307097120669894" lon="8.402917578230985"><ele>128.66666666666666</ele><time>2026-04-26T14:20:44.003Z</time></trkpt><trkpt lat="45.30696220887891" lon="8.403106943811832"><ele>129.0</ele><time>2026-04-26T14:20:45.003Z</time></trkpt><trkpt lat="45.30683130786081" lon="8.403297815341357"><ele>128.66666666666666</ele><time>2026-04-26T14:20:46.003Z</time></trkpt><trkpt lat="45.30670328813134" lon="8.403493112546919"><ele>128.33333333333331</ele><time>2026-04-26T14:20:47.003Z</time></trkpt><trkpt lat="45.3065782246416" lon="8.403696697927993"><ele>128.0</ele><time>2026-04-26T14:20:48.003Z</time></trkpt><trkpt lat="45.306455521256595" lon="8.403912698253505"><ele>128.0</ele><time>2026-04-26T14:20:49.003Z</time></trkpt><trkpt lat="45.306331922998126" lon="8.40414956946606"><ele>128.0</ele><time>2026-04-26T14:20:50.003Z</time></trkpt><trkpt lat="45.30618782786276" lon="8.404386060391044"><ele>128.0</ele><time>2026-04-26T14:20:51.003Z</time></trkpt><trkpt lat="45.30605606957934" lon="8.404662885831906"><ele>127.5</ele><time>2026-04-26T14:20:52.003Z</time></trkpt><trkpt lat="45.30591901913449" lon="8.404952987288718"><ele>127.0</ele><time>2026-04-26T14:20:53.003Z</time></trkpt><trkpt lat="45.30578061687975" lon="8.405253825673444"><ele>127.0</ele><time>2026-04-26T14:20:54.003Z</time></trkpt><trkpt lat="45.30565545841579" lon="8.405581689371212"><ele>127.0</ele><time>2026-04-26T14:20:55.003Z</time></trkpt><trkpt lat="45.30555379713331" lon="8.405904533734192"><ele>127.0</ele><time>2026-04-26T14:20:56.003Z</time></trkpt><trkpt lat="45.30546997169124" lon="8.40621244620268"><ele>127.0</ele><time>2026-04-26T14:20:57.003Z</time></trkpt><trkpt lat="45.305390381667635" lon="8.406510006366148"><ele>127.0</ele><time>2026-04-26T14:20:58.003Z</time></trkpt><trkpt lat="45.30531709464335" lon="8.406786934308972"><ele>127.0</ele><time>2026-04-26T14:20:59.003Z</time></trkpt><trkpt lat="45.305250758249" lon="8.40704426313258"><ele>127.0</ele><time>2026-04-26T14:21:00.003Z</time></trkpt><trkpt lat="45.305190025481465" lon="8.407280929013513"><ele>127.0</ele><time>2026-04-26T14:21:01.003Z</time></trkpt><trkpt lat="45.305132333713196" lon="8.407500365685591"><ele>127.0</ele><time>2026-04-26T14:21:02.003Z</time></trkpt><trkpt lat="45.30508295918177" lon="8.407697570324858"><ele>127.0</ele><time>2026-04-26T14:21:03.003Z</time></trkpt><trkpt lat="45.305035698637816" lon="8.407876499679361"><ele>127.0</ele><time>2026-04-26T14:21:04.003Z</time></trkpt><trkpt lat="45.30498145720815" lon="8.40803431984465"><ele>127.19999999999999</ele><time>2026-04-26T14:21:05.003Z</time></trkpt><trkpt lat="45.30491085155224" lon="8.408162060690808"><ele>127.39999999999999</ele><time>2026-04-26T14:21:06.003Z</time></trkpt><trkpt lat="45.30482562749153" lon="8.408263586051905"><ele>127.60000000000001</ele><time>2026-04-26T14:21:07.003Z</time></trkpt><trkpt lat="45.30474879237606" lon="8.408367463506163"><ele>127.80000000000001</ele><time>2026-04-26T14:21:08.003Z</time></trkpt><trkpt lat="45.30470849786486" lon="8.408504804153118"><ele>128.0</ele><time>2026-04-26T14:21:09.003Z</time></trkpt><trkpt lat="45.30470551654917" lon="8.408668878980931"><ele>127.75</ele><time>2026-04-26T14:21:10.003Z</time></trkpt><trkpt lat="45.30471830918881" lon="8.408857443191357"><ele>127.5</ele><time>2026-04-26T14:21:11.003Z</time></trkpt><trkpt lat="45.30470382280246" lon="8.40905583373196"><ele>127.25</ele><time>2026-04-26T14:21:12.003Z</time></trkpt><trkpt lat="45.30465870422424" lon="8.40926106439771"><ele>127.0</ele><time>2026-04-26T14:21:13.003Z</time></trkpt><trkpt lat="45.30459552604828" lon="8.409481737191475"><ele>127.0</ele><time>2026-04-26T14:21:14.003Z</time></trkpt><trkpt lat="45.304528878473555" lon="8.40972218710614"><ele>127.0</ele><time>2026-04-26T14:21:15.003Z</time></trkpt><trkpt lat="45.30446154043631" lon="8.409978953737042"><ele>127.0</ele><time>2026-04-26T14:21:16.003Z</time></trkpt><trkpt lat="45.30438785815589" lon="8.410247097710103"><ele>126.66666666666667</ele><time>2026-04-26T14:21:17.003Z</time></trkpt><trkpt lat="45.30431194052488" lon="8.4105252479217"><ele>126.33333333333334</ele><time>2026-04-26T14:21:18.003Z</time></trkpt><trkpt lat="45.30423272732089" lon="8.410816311495807"><ele>126.0</ele><time>2026-04-26T14:21:19.003Z</time></trkpt><trkpt lat="45.30415461553873" lon="8.411115713568764"><ele>126.5</ele><time>2026-04-26T14:21:20.003Z</time></trkpt><trkpt lat="45.30407554042717" lon="8.411423329852118"><ele>127.0</ele><time>2026-04-26T14:21:21.003Z</time></trkpt><trkpt lat="45.30399166756157" lon="8.411739469066015"><ele>127.0</ele><time>2026-04-26T14:21:22.003Z</time></trkpt><trkpt lat="45.30390782302439" lon="8.412060882140048"><ele>127.0</ele><time>2026-04-26T14:21:23.003Z</time></trkpt><trkpt lat="45.30382597446194" lon="8.412375218437282"><ele>127.0</ele><time>2026-04-26T14:21:24.003Z</time></trkpt><trkpt lat="45.30374673832975" lon="8.412669780316772"><ele>127.0</ele><time>2026-04-26T14:21:25.003Z</time></trkpt><trkpt lat="45.30366851300196" lon="8.412956418386123"><ele>127.0</ele><time>2026-04-26T14:21:26.003Z</time></trkpt><trkpt lat="45.30359015732605" lon="8.413247615447531"><ele>126.66666666666667</ele><time>2026-04-26T14:21:27.003Z</time></trkpt><trkpt lat="45.303510958870184" lon="8.413537518965748"><ele>126.33333333333334</ele><time>2026-04-26T14:21:28.003Z</time></trkpt><trkpt lat="45.30343142471729" lon="8.41382933245268"><ele>126.0</ele><time>2026-04-26T14:21:29.003Z</time></trkpt><trkpt lat="45.30334590408524" lon="8.41413051883909"><ele>126.0</ele><time>2026-04-26T14:21:30.003Z</time></trkpt><trkpt lat="45.30325976288888" lon="8.414437886155483"><ele>126.0</ele><time>2026-04-26T14:21:31.003Z</time></trkpt><trkpt lat="45.30317247464608" lon="8.414754940011909"><ele>125.0</ele><time>2026-04-26T14:21:32.003Z</time></trkpt><trkpt lat="45.30308386531812" lon="8.415081459775312"><ele>124.0</ele><time>2026-04-26T14:21:33.003Z</time></trkpt><trkpt lat="45.302993348982724" lon="8.41541236576847"><ele>124.0</ele><time>2026-04-26T14:21:34.003Z</time></trkpt><trkpt lat="45.30290147447954" lon="8.415750255031607"><ele>124.0</ele><time>2026-04-26T14:21:35.003Z</time></trkpt><trkpt lat="45.30280942293461" lon="8.416094566122027"><ele>124.5</ele><time>2026-04-26T14:21:36.003Z</time></trkpt><trkpt lat="45.30271301585221" lon="8.416444280422814"><ele>125.0</ele><time>2026-04-26T14:21:37.003Z</time></trkpt><trkpt lat="45.302611051847144" lon="8.41679953982035"><ele>125.0</ele><time>2026-04-26T14:21:38.003Z</time></trkpt><trkpt lat="45.30251437013285" lon="8.417140413048834"><ele>125.0</ele><time>2026-04-26T14:21:39.003Z</time></trkpt><trkpt lat="45.30242468754257" lon="8.417471353229345"><ele>124.5</ele><time>2026-04-26T14:21:40.003Z</time></trkpt><trkpt lat="45.30233869882137" lon="8.417796527839164"><ele>124.0</ele><time>2026-04-26T14:21:41.003Z</time></trkpt><trkpt lat="45.30225766641292" lon="8.418127621723036"><ele>124.0</ele><time>2026-04-26T14:21:42.003Z</time></trkpt><trkpt lat="45.30218093192865" lon="8.418462538924222"><ele>124.0</ele><time>2026-04-26T14:21:43.003Z</time></trkpt><trkpt lat="45.302107660633396" lon="8.41879908953825"><ele>124.5</ele><time>2026-04-26T14:21:44.003Z</time></trkpt><trkpt lat="45.30203585219739" lon="8.419137727207579"><ele>125.0</ele><time>2026-04-26T14:21:45.004Z</time></trkpt><trkpt lat="45.30196309796298" lon="8.419470876235117"><ele>125.0</ele><time>2026-04-26T14:21:46.004Z</time></trkpt><trkpt lat="45.30189164364954" lon="8.419798631990464"><ele>125.0</ele><time>2026-04-26T14:21:47.004Z</time></trkpt><trkpt lat="45.30182112398055" lon="8.420125468637686"><ele>125.0</ele><time>2026-04-26T14:21:48.003Z</time></trkpt><trkpt lat="45.30175197682207" lon="8.420443417384266"><ele>125.0</ele><time>2026-04-26T14:21:49.003Z</time></trkpt><trkpt lat="45.30168432732698" lon="8.420753860304217"><ele>125.33333333333333</ele><time>2026-04-26T14:21:50.003Z</time></trkpt><trkpt lat="45.30161884778396" lon="8.421055736196056"><ele>125.66666666666666</ele><time>2026-04-26T14:21:51.004Z</time></trkpt><trkpt lat="45.30155394614889" lon="8.421351640889569"><ele>126.0</ele><time>2026-04-26T14:21:52.004Z</time></trkpt><trkpt lat="45.30149069650547" lon="8.421640161443378"><ele>125.66666666666666</ele><time>2026-04-26T14:21:53.004Z</time></trkpt><trkpt lat="45.30143003619429" lon="8.421919859175663"><ele>125.33333333333333</ele><time>2026-04-26T14:21:54.004Z</time></trkpt><trkpt lat="45.30137257392383" lon="8.422188719092448"><ele>125.0</ele><time>2026-04-26T14:21:55.004Z</time></trkpt><trkpt lat="45.3013208664935" lon="8.422439091428362"><ele>125.0</ele><time>2026-04-26T14:21:56.004Z</time></trkpt><trkpt lat="45.301270596129044" lon="8.422679006944927"><ele>125.0</ele><time>2026-04-26T14:21:57.004Z</time></trkpt><trkpt lat="45.30122304969969" lon="8.422904307449455"><ele>125.0</ele><time>2026-04-26T14:21:58.004Z</time></trkpt><trkpt lat="45.301179662797495" lon="8.423116858639446"><ele>125.0</ele><time>2026-04-26T14:21:59.004Z</time></trkpt><trkpt lat="45.3011348858726" lon="8.423319194382945"><ele>125.0</ele><time>2026-04-26T14:22:00.004Z</time></trkpt><trkpt lat="45.30108537535352" lon="8.42349254549197"><ele>125.0</ele><time>2026-04-26T14:22:01.004Z</time></trkpt><trkpt lat="45.30102650419504" lon="8.423637387507286"><ele>125.0</ele><time>2026-04-26T14:22:02.004Z</time></trkpt><trkpt lat="45.30096512824957" lon="8.423757219423766"><ele>124.6</ele><time>2026-04-26T14:22:03.004Z</time></trkpt><trkpt lat="45.300950983171994" lon="8.423879837157159"><ele>124.2</ele><time>2026-04-26T14:22:04.004Z</time></trkpt><trkpt lat="45.30092397593397" lon="8.424004021485379"><ele>123.80000000000001</ele><time>2026-04-26T14:22:05.004Z</time></trkpt><trkpt lat="45.30089619846234" lon="8.424131747482791"><ele>123.4</ele><time>2026-04-26T14:22:06.004Z</time></trkpt><trkpt lat="45.30089220033703" lon="8.424272564189172"><ele>123.0</ele><time>2026-04-26T14:22:07.004Z</time></trkpt><trkpt lat="45.300907767302526" lon="8.424439414880615"><ele>123.0</ele><time>2026-04-26T14:22:08.004Z</time></trkpt><trkpt lat="45.30088489249051" lon="8.424626705820936"><ele>123.0</ele><time>2026-04-26T14:22:09.004Z</time></trkpt><trkpt lat="45.30083857484506" lon="8.42483481958143"><ele>123.0</ele><time>2026-04-26T14:22:10.004Z</time></trkpt><trkpt lat="45.30078683491358" lon="8.425061627208407"><ele>123.0</ele><time>2026-04-26T14:22:11.004Z</time></trkpt><trkpt lat="45.300729624982075" lon="8.425316596044391"><ele>123.0</ele><time>2026-04-26T14:22:12.004Z</time></trkpt><trkpt lat="45.30066632414944" lon="8.425595114649713"><ele>123.0</ele><time>2026-04-26T14:22:13.004Z</time></trkpt><trkpt lat="45.3006013474554" lon="8.4258961088582"><ele>123.5</ele><time>2026-04-26T14:22:14.004Z</time></trkpt><trkpt lat="45.30053333585496" lon="8.426217470840601"><ele>124.0</ele><time>2026-04-26T14:22:15.004Z</time></trkpt><trkpt lat="45.30046231565626" lon="8.426551244033634"><ele>124.0</ele><time>2026-04-26T14:22:16.004Z</time></trkpt><trkpt lat="45.300388369649276" lon="8.42687559728695"><ele>124.0</ele><time>2026-04-26T14:22:17.004Z</time></trkpt><trkpt lat="45.300317033239956" lon="8.427195045213633"><ele>124.0</ele><time>2026-04-26T14:22:18.004Z</time></trkpt><trkpt lat="45.30024371668825" lon="8.427517963684238"><ele>124.0</ele><time>2026-04-26T14:22:19.004Z</time></trkpt><trkpt lat="45.30016195482846" lon="8.427840364454626"><ele>123.5</ele><time>2026-04-26T14:22:20.004Z</time></trkpt><trkpt lat="45.300072228559486" lon="8.428160326390708"><ele>123.0</ele><time>2026-04-26T14:22:21.004Z</time></trkpt><trkpt lat="45.29997871642677" lon="8.428482081480688"><ele>123.0</ele><time>2026-04-26T14:22:22.004Z</time></trkpt><trkpt lat="45.29989173022522" lon="8.428799527067161"><ele>123.0</ele><time>2026-04-26T14:22:23.004Z</time></trkpt><trkpt lat="45.299816002140716" lon="8.429104089950785"><ele>122.5</ele><time>2026-04-26T14:22:24.004Z</time></trkpt><trkpt lat="45.2997367062433" lon="8.429419422774671"><ele>122.0</ele><time>2026-04-26T14:22:25.004Z</time></trkpt><trkpt lat="45.299651114372864" lon="8.429748715151801"><ele>122.0</ele><time>2026-04-26T14:22:26.004Z</time></trkpt><trkpt lat="45.29956087396867" lon="8.430086736651065"><ele>122.0</ele><time>2026-04-26T14:22:27.004Z</time></trkpt><trkpt lat="45.29946995981303" lon="8.430428466387665"><ele>122.0</ele><time>2026-04-26T14:22:28.004Z</time></trkpt><trkpt lat="45.2993786219794" lon="8.430767814768743"><ele>122.0</ele><time>2026-04-26T14:22:29.004Z</time></trkpt><trkpt lat="45.29928708227851" lon="8.431109169669034"><ele>121.0</ele><time>2026-04-26T14:22:30.004Z</time></trkpt><trkpt lat="45.29920009224619" lon="8.431443509203334"><ele>120.0</ele><time>2026-04-26T14:22:31.004Z</time></trkpt><trkpt lat="45.29911888727093" lon="8.43176151959035"><ele>120.0</ele><time>2026-04-26T14:22:32.004Z</time></trkpt><trkpt lat="45.29903937906842" lon="8.432076932383172"><ele>120.0</ele><time>2026-04-26T14:22:33.004Z</time></trkpt><trkpt lat="45.29895789464113" lon="8.432395745879377"><ele>120.5</ele><time>2026-04-26T14:22:34.004Z</time></trkpt><trkpt lat="45.29887401029658" lon="8.432715779841827"><ele>121.0</ele><time>2026-04-26T14:22:35.004Z</time></trkpt><trkpt lat="45.298789094769965" lon="8.433041525043219"><ele>121.0</ele><time>2026-04-26T14:22:36.004Z</time></trkpt><trkpt lat="45.298703300785306" lon="8.43337370706724"><ele>121.0</ele><time>2026-04-26T14:22:37.004Z</time></trkpt><trkpt lat="45.29861715510242" lon="8.433708746367921"><ele>121.5</ele><time>2026-04-26T14:22:38.004Z</time></trkpt><trkpt lat="45.298526390484454" lon="8.43403877007691"><ele>122.0</ele><time>2026-04-26T14:22:39.004Z</time></trkpt><trkpt lat="45.2984340034034" lon="8.434367357219168"><ele>122.5</ele><time>2026-04-26T14:22:40.004Z</time></trkpt><trkpt lat="45.29834314123831" lon="8.434688882085293"><ele>123.0</ele><time>2026-04-26T14:22:41.004Z</time></trkpt><trkpt lat="45.298252102026495" lon="8.435007382510488"><ele>123.0</ele><time>2026-04-26T14:22:42.004Z</time></trkpt><trkpt lat="45.29816501438941" lon="8.435323675417184"><ele>123.0</ele><time>2026-04-26T14:22:43.004Z</time></trkpt><trkpt lat="45.29807930208953" lon="8.43563478409308"><ele>122.5</ele><time>2026-04-26T14:22:44.004Z</time></trkpt><trkpt lat="45.29799642317895" lon="8.435944448756365"><ele>122.0</ele><time>2026-04-26T14:22:45.004Z</time></trkpt><trkpt lat="45.29791537652117" lon="8.436254102709471"><ele>122.0</ele><time>2026-04-26T14:22:46.004Z</time></trkpt><trkpt lat="45.297835206708186" lon="8.43656282229859"><ele>122.0</ele><time>2026-04-26T14:22:47.004Z</time></trkpt><trkpt lat="45.29775396577932" lon="8.436870914776758"><ele>122.0</ele><time>2026-04-26T14:22:48.004Z</time></trkpt><trkpt lat="45.297673497944025" lon="8.437174038125367"><ele>122.0</ele><time>2026-04-26T14:22:49.004Z</time></trkpt><trkpt lat="45.29759287892648" lon="8.43747699074674"><ele>122.0</ele><time>2026-04-26T14:22:50.004Z</time></trkpt><trkpt lat="45.29750941134973" lon="8.437783209223463"><ele>122.0</ele><time>2026-04-26T14:22:51.004Z</time></trkpt><trkpt lat="45.2974238686041" lon="8.43809427091948"><ele>122.0</ele><time>2026-04-26T14:22:52.004Z</time></trkpt><trkpt lat="45.297335910162985" lon="8.43840632734997"><ele>122.0</ele><time>2026-04-26T14:22:53.004Z</time></trkpt><trkpt lat="45.297242370679555" lon="8.438719623896324"><ele>122.0</ele><time>2026-04-26T14:22:54.004Z</time></trkpt><trkpt lat="45.297151852708154" lon="8.43903304573773"><ele>122.0</ele><time>2026-04-26T14:22:55.004Z</time></trkpt><trkpt lat="45.29706430964229" lon="8.439351167586953"><ele>121.5</ele><time>2026-04-26T14:22:56.004Z</time></trkpt><trkpt lat="45.29698100444591" lon="8.4396679672244"><ele>121.0</ele><time>2026-04-26T14:22:57.004Z</time></trkpt><trkpt lat="45.29689862867732" lon="8.439986922131878"><ele>121.0</ele><time>2026-04-26T14:22:58.004Z</time></trkpt><trkpt lat="45.296815798674004" lon="8.440303258852863"><ele>121.0</ele><time>2026-04-26T14:22:59.004Z</time></trkpt><trkpt lat="45.29673261030929" lon="8.440618132210423"><ele>121.0</ele><time>2026-04-26T14:23:00.004Z</time></trkpt><trkpt lat="45.296647837999274" lon="8.440934115878225"><ele>121.0</ele><time>2026-04-26T14:23:01.004Z</time></trkpt><trkpt lat="45.29656341947124" lon="8.441250323611627"><ele>121.0</ele><time>2026-04-26T14:23:02.004Z</time></trkpt><trkpt lat="45.29647888812415" lon="8.44156776735816"><ele>121.0</ele><time>2026-04-26T14:23:03.004Z</time></trkpt><trkpt lat="45.29639289782295" lon="8.44188776378946"><ele>121.0</ele><time>2026-04-26T14:23:04.004Z</time></trkpt><trkpt lat="45.296306664492676" lon="8.442210659465752"><ele>121.0</ele><time>2026-04-26T14:23:05.004Z</time></trkpt><trkpt lat="45.29622135210757" lon="8.442537728124275"><ele>121.0</ele><time>2026-04-26T14:23:06.004Z</time></trkpt><trkpt lat="45.29613440185508" lon="8.442866424545668"><ele>121.0</ele><time>2026-04-26T14:23:07.004Z</time></trkpt><trkpt lat="45.29604779910632" lon="8.443195983551167"><ele>121.5</ele><time>2026-04-26T14:23:08.004Z</time></trkpt><trkpt lat="45.29596006184727" lon="8.44352454678757"><ele>122.0</ele><time>2026-04-26T14:23:09.004Z</time></trkpt><trkpt lat="45.29587203246516" lon="8.443850532759283"><ele>122.0</ele><time>2026-04-26T14:23:10.004Z</time></trkpt><trkpt lat="45.295782682685946" lon="8.444175936947328"><ele>122.0</ele><time>2026-04-26T14:23:11.004Z</time></trkpt><trkpt lat="45.295687624662726" lon="8.444497797148518"><ele>121.0</ele><time>2026-04-26T14:23:12.004Z</time></trkpt><trkpt lat="45.295585678606265" lon="8.444814892939002"><ele>120.0</ele><time>2026-04-26T14:23:13.004Z</time></trkpt><trkpt lat="45.29547770092711" lon="8.445124537509844"><ele>120.0</ele><time>2026-04-26T14:23:14.004Z</time></trkpt><trkpt lat="45.29536592274618" lon="8.445429217252224"><ele>120.0</ele><time>2026-04-26T14:23:15.004Z</time></trkpt><trkpt lat="45.295248335124015" lon="8.44572766717543"><ele>120.5</ele><time>2026-04-26T14:23:16.004Z</time></trkpt><trkpt lat="45.29512227758659" lon="8.446018555615364"><ele>121.0</ele><time>2026-04-26T14:23:17.004Z</time></trkpt><trkpt lat="45.29498996154909" lon="8.446301050239962"><ele>121.0</ele><time>2026-04-26T14:23:18.004Z</time></trkpt><trkpt lat="45.29485169867836" lon="8.446578448777496"><ele>121.0</ele><time>2026-04-26T14:23:19.004Z</time></trkpt><trkpt lat="45.29470680656822" lon="8.446853382340203"><ele>121.0</ele><time>2026-04-26T14:23:20.004Z</time></trkpt><trkpt lat="45.29455669155698" lon="8.447122934838244"><ele>121.0</ele><time>2026-04-26T14:23:21.004Z</time></trkpt><trkpt lat="45.294399470982526" lon="8.447389124350291"><ele>121.0</ele><time>2026-04-26T14:23:22.004Z</time></trkpt><trkpt lat="45.294233196215835" lon="8.44764768864298"><ele>121.0</ele><time>2026-04-26T14:23:23.004Z</time></trkpt><trkpt lat="45.294058064886514" lon="8.447898238208323"><ele>120.5</ele><time>2026-04-26T14:23:24.004Z</time></trkpt><trkpt lat="45.29387785224715" lon="8.448141113345907"><ele>120.0</ele><time>2026-04-26T14:23:25.004Z</time></trkpt><trkpt lat="45.29369669891367" lon="8.448386167528241"><ele>120.0</ele><time>2026-04-26T14:23:26.004Z</time></trkpt><trkpt lat="45.2935143201977" lon="8.448632111769541"><ele>120.0</ele><time>2026-04-26T14:23:27.004Z</time></trkpt><trkpt lat="45.29333049844124" lon="8.44888141433504"><ele>120.5</ele><time>2026-04-26T14:23:28.004Z</time></trkpt><trkpt lat="45.29314711593162" lon="8.44913296499915"><ele>121.0</ele><time>2026-04-26T14:23:29.004Z</time></trkpt><trkpt lat="45.29296424870262" lon="8.449384421024508"><ele>119.5</ele><time>2026-04-26T14:23:30.004Z</time></trkpt><trkpt lat="45.29278345626343" lon="8.449633550961641"><ele>118.0</ele><time>2026-04-26T14:23:31.004Z</time></trkpt><trkpt lat="45.292604629298076" lon="8.449879418561085"><ele>118.0</ele><time>2026-04-26T14:23:32.004Z</time></trkpt><trkpt lat="45.292426982699055" lon="8.450123417350714"><ele>118.0</ele><time>2026-04-26T14:23:33.004Z</time></trkpt><trkpt lat="45.292247974821684" lon="8.450370395613305"><ele>119.0</ele><time>2026-04-26T14:23:34.004Z</time></trkpt><trkpt lat="45.29206729536622" lon="8.450618818547118"><ele>120.0</ele><time>2026-04-26T14:23:35.004Z</time></trkpt><trkpt lat="45.29188601475808" lon="8.450866429534248"><ele>120.0</ele><time>2026-04-26T14:23:36.004Z</time></trkpt><trkpt lat="45.29170631155201" lon="8.451113148993556"><ele>120.0</ele><time>2026-04-26T14:23:37.004Z</time></trkpt><trkpt lat="45.291530502305825" lon="8.451354869211762"><ele>120.5</ele><time>2026-04-26T14:23:38.004Z</time></trkpt><trkpt lat="45.29136068960313" lon="8.4515877156816"><ele>121.0</ele><time>2026-04-26T14:23:39.004Z</time></trkpt><trkpt lat="45.29119590187618" lon="8.451814361943484"><ele>121.0</ele><time>2026-04-26T14:23:40.004Z</time></trkpt><trkpt lat="45.29103592549602" lon="8.45203327772556"><ele>121.0</ele><time>2026-04-26T14:23:41.004Z</time></trkpt><trkpt lat="45.290882242378444" lon="8.452241581403978"><ele>121.0</ele><time>2026-04-26T14:23:42.004Z</time></trkpt><trkpt lat="45.29073895094459" lon="8.452439331726524"><ele>121.0</ele><time>2026-04-26T14:23:43.004Z</time></trkpt><trkpt lat="45.290603337128914" lon="8.452628892372257"><ele>121.0</ele><time>2026-04-26T14:23:44.004Z</time></trkpt><trkpt lat="45.29047306731806" lon="8.452808737526778"><ele>121.0</ele><time>2026-04-26T14:23:45.004Z</time></trkpt><trkpt lat="45.29034915544841" lon="8.452978947624674"><ele>121.0</ele><time>2026-04-26T14:23:46.004Z</time></trkpt><trkpt lat="45.29023190965593" lon="8.453136461543107"><ele>121.0</ele><time>2026-04-26T14:23:47.003Z</time></trkpt><trkpt lat="45.29012263029973" lon="8.453283793366161"><ele>121.0</ele><time>2026-04-26T14:23:48.004Z</time></trkpt><trkpt lat="45.290020161709776" lon="8.453414688927241"><ele>121.0</ele><time>2026-04-26T14:23:49.004Z</time></trkpt><trkpt lat="45.2899198467422" lon="8.45351980535694"><ele>121.0</ele><time>2026-04-26T14:23:50.004Z</time></trkpt><trkpt lat="45.28981773549632" lon="8.453598198545047"><ele>121.0</ele><time>2026-04-26T14:23:51.004Z</time></trkpt><trkpt lat="45.28971762362621" lon="8.453657121782031"><ele>121.0</ele><time>2026-04-26T14:23:52.004Z</time></trkpt><trkpt lat="45.289621940675545" lon="8.45372148283692"><ele>120.75</ele><time>2026-04-26T14:23:53.004Z</time></trkpt><trkpt lat="45.28954557869693" lon="8.453822226224545"><ele>120.5</ele><time>2026-04-26T14:23:54.003Z</time></trkpt><trkpt lat="45.28948706635777" lon="8.453962437115532"><ele>120.25</ele><time>2026-04-26T14:23:55.003Z</time></trkpt><trkpt lat="45.28943471505361" lon="8.454126799932608"><ele>120.0</ele><time>2026-04-26T14:23:56.004Z</time></trkpt><trkpt lat="45.289360967243596" lon="8.454289126623015"><ele>120.0</ele><time>2026-04-26T14:23:57.003Z</time></trkpt><trkpt lat="45.289259235041655" lon="8.45444700610468"><ele>120.0</ele><time>2026-04-26T14:23:58.003Z</time></trkpt><trkpt lat="45.28914210272032" lon="8.454615989833401"><ele>120.0</ele><time>2026-04-26T14:23:59.003Z</time></trkpt><trkpt lat="45.28901670117562" lon="8.454795253128705"><ele>120.0</ele><time>2026-04-26T14:24:00.003Z</time></trkpt><trkpt lat="45.28888133481194" lon="8.454980322188105"><ele>120.0</ele><time>2026-04-26T14:24:01.003Z</time></trkpt><trkpt lat="45.288739351164004" lon="8.455172193740697"><ele>120.0</ele><time>2026-04-26T14:24:02.003Z</time></trkpt><trkpt lat="45.288591064333644" lon="8.455372498850437"><ele>120.33333333333334</ele><time>2026-04-26T14:24:03.003Z</time></trkpt><trkpt lat="45.288437525593764" lon="8.455578514791698"><ele>120.66666666666667</ele><time>2026-04-26T14:24:04.003Z</time></trkpt><trkpt lat="45.28827900310574" lon="8.455792870465666"><ele>121.0</ele><time>2026-04-26T14:24:05.003Z</time></trkpt><trkpt lat="45.288117918557305" lon="8.456010809041508"><ele>121.5</ele><time>2026-04-26T14:24:06.003Z</time></trkpt><trkpt lat="45.28795548216801" lon="8.456238218276768"><ele>122.0</ele><time>2026-04-26T14:24:07.003Z</time></trkpt><trkpt lat="45.287791691291034" lon="8.456468262007169"><ele>122.33333333333333</ele><time>2026-04-26T14:24:08.003Z</time></trkpt><trkpt lat="45.28763464697585" lon="8.456686952948129"><ele>122.66666666666666</ele><time>2026-04-26T14:24:09.003Z</time></trkpt><trkpt lat="45.28747491103588" lon="8.456909779310285"><ele>123.0</ele><time>2026-04-26T14:24:10.003Z</time></trkpt><trkpt lat="45.287308853607406" lon="8.457129502932512"><ele>122.5</ele><time>2026-04-26T14:24:11.003Z</time></trkpt><trkpt lat="45.28713549529032" lon="8.457350590256521"><ele>122.0</ele><time>2026-04-26T14:24:12.003Z</time></trkpt><trkpt lat="45.28696027421014" lon="8.457569342902254"><ele>122.0</ele><time>2026-04-26T14:24:13.003Z</time></trkpt><trkpt lat="45.28678284343706" lon="8.457781200665005"><ele>122.0</ele><time>2026-04-26T14:24:14.003Z</time></trkpt><trkpt lat="45.28659957999165" lon="8.457979215352909"><ele>121.5</ele><time>2026-04-26T14:24:15.003Z</time></trkpt><trkpt lat="45.28641263821556" lon="8.45816087790397"><ele>121.0</ele><time>2026-04-26T14:24:16.003Z</time></trkpt><trkpt lat="45.286222546852514" lon="8.458337635064069"><ele>121.0</ele><time>2026-04-26T14:24:17.003Z</time></trkpt><trkpt lat="45.28603435399229" lon="8.458509468891945"><ele>121.0</ele><time>2026-04-26T14:24:18.003Z</time></trkpt><trkpt lat="45.28584594896744" lon="8.458678652484645"><ele>121.0</ele><time>2026-04-26T14:24:19.003Z</time></trkpt><trkpt lat="45.285660168637044" lon="8.458849731049874"><ele>121.33333333333334</ele><time>2026-04-26T14:24:20.003Z</time></trkpt><trkpt lat="45.28547663661436" lon="8.459023550178367"><ele>121.66666666666666</ele><time>2026-04-26T14:24:21.003Z</time></trkpt><trkpt lat="45.28529398374828" lon="8.459194529867576"><ele>122.0</ele><time>2026-04-26T14:24:22.003Z</time></trkpt><trkpt lat="45.28511195512713" lon="8.459361659089213"><ele>122.0</ele><time>2026-04-26T14:24:23.003Z</time></trkpt><trkpt lat="45.28493122036045" lon="8.459525742927411"><ele>122.0</ele><time>2026-04-26T14:24:24.003Z</time></trkpt><trkpt lat="45.284751891917836" lon="8.459693237677335"><ele>122.0</ele><time>2026-04-26T14:24:25.003Z</time></trkpt><trkpt lat="45.2845721922842" lon="8.45985974335693"><ele>122.0</ele><time>2026-04-26T14:24:26.003Z</time></trkpt><trkpt lat="45.28439454687662" lon="8.460024901138036"><ele>122.0</ele><time>2026-04-26T14:24:27.003Z</time></trkpt><trkpt lat="45.28421814305857" lon="8.460191348709293"><ele>122.0</ele><time>2026-04-26T14:24:28.003Z</time></trkpt><trkpt lat="45.2840443502097" lon="8.460354218424795"><ele>121.66666666666666</ele><time>2026-04-26T14:24:29.003Z</time></trkpt><trkpt lat="45.28386953240971" lon="8.460520381618666"><ele>121.33333333333334</ele><time>2026-04-26T14:24:30.003Z</time></trkpt><trkpt lat="45.28369566281559" lon="8.460683294769176"><ele>121.0</ele><time>2026-04-26T14:24:31.003Z</time></trkpt><trkpt lat="45.28352271222016" lon="8.46084709543545"><ele>121.0</ele><time>2026-04-26T14:24:32.003Z</time></trkpt><trkpt lat="45.2833496494518" lon="8.461007842656915"><ele>121.0</ele><time>2026-04-26T14:24:33.003Z</time></trkpt><trkpt lat="45.28317559803807" lon="8.4611712752331"><ele>121.0</ele><time>2026-04-26T14:24:34.003Z</time></trkpt><trkpt lat="45.283000239736495" lon="8.461332785683645"><ele>120.66666666666667</ele><time>2026-04-26T14:24:35.003Z</time></trkpt><trkpt lat="45.28281967729282" lon="8.461487411599046"><ele>120.33333333333334</ele><time>2026-04-26T14:24:36.003Z</time></trkpt><trkpt lat="45.28263616126657" lon="8.461632763839944"><ele>120.0</ele><time>2026-04-26T14:24:37.003Z</time></trkpt><trkpt lat="45.282450338881254" lon="8.461771605598166"><ele>120.0</ele><time>2026-04-26T14:24:38.003Z</time></trkpt><trkpt lat="45.28226538358848" lon="8.46190592305384"><ele>120.0</ele><time>2026-04-26T14:24:39.003Z</time></trkpt><trkpt lat="45.28208073897534" lon="8.462040521564104"><ele>120.0</ele><time>2026-04-26T14:24:40.003Z</time></trkpt><trkpt lat="45.281895759684204" lon="8.46217464261895"><ele>120.0</ele><time>2026-04-26T14:24:41.003Z</time></trkpt><trkpt lat="45.281709831865" lon="8.462305880842072"><ele>120.0</ele><time>2026-04-26T14:24:42.003Z</time></trkpt><trkpt lat="45.28152083759467" lon="8.462435958846322"><ele>120.0</ele><time>2026-04-26T14:24:43.003Z</time></trkpt><trkpt lat="45.28132854223319" lon="8.46256094584878"><ele>119.0</ele><time>2026-04-26T14:24:44.003Z</time></trkpt><trkpt lat="45.28113639975038" lon="8.462681658754317"><ele>118.0</ele><time>2026-04-26T14:24:45.003Z</time></trkpt><trkpt lat="45.2809500123015" lon="8.46280020726806"><ele>117.0</ele><time>2026-04-26T14:24:46.003Z</time></trkpt><trkpt lat="45.28077556932194" lon="8.462913378841524"><ele>117.0</ele><time>2026-04-26T14:24:47.003Z</time></trkpt><trkpt lat="45.2805998541215" lon="8.463021676828376"><ele>117.0</ele><time>2026-04-26T14:24:48.003Z</time></trkpt><trkpt lat="45.28042883243576" lon="8.463121315858482"><ele>117.0</ele><time>2026-04-26T14:24:49.003Z</time></trkpt><trkpt lat="45.28024609650941" lon="8.463210191112722"><ele>117.0</ele><time>2026-04-26T14:24:50.003Z</time></trkpt><trkpt lat="45.28005945048204" lon="8.463282255325682"><ele>117.0</ele><time>2026-04-26T14:24:51.003Z</time></trkpt><trkpt lat="45.27987038692354" lon="8.463336279895731"><ele>117.0</ele><time>2026-04-26T14:24:52.003Z</time></trkpt><trkpt lat="45.27967690657414" lon="8.463371978622595"><ele>118.0</ele><time>2026-04-26T14:24:53.003Z</time></trkpt><trkpt lat="45.27947680883091" lon="8.46338839690241"><ele>119.0</ele><time>2026-04-26T14:24:54.003Z</time></trkpt><trkpt lat="45.279277827445206" lon="8.463393303882123"><ele>120.0</ele><time>2026-04-26T14:24:55.003Z</time></trkpt><trkpt lat="45.2790741405431" lon="8.463394395027978"><ele>119.33333333333334</ele><time>2026-04-26T14:24:56.003Z</time></trkpt><trkpt lat="45.27886710841639" lon="8.463401885020646"><ele>118.66666666666667</ele><time>2026-04-26T14:24:57.003Z</time></trkpt><trkpt lat="45.27865879407623" lon="8.46341277632918"><ele>118.0</ele><time>2026-04-26T14:24:58.003Z</time></trkpt><trkpt lat="45.278449391528895" lon="8.463422894841518"><ele>118.0</ele><time>2026-04-26T14:24:59.003Z</time></trkpt><trkpt lat="45.27823699746215" lon="8.463431940524861"><ele>118.0</ele><time>2026-04-26T14:25:00.003Z</time></trkpt><trkpt lat="45.27802177492437" lon="8.46344006901746"><ele>118.0</ele><time>2026-04-26T14:25:01.003Z</time></trkpt><trkpt lat="45.27780712605155" lon="8.46344613526072"><ele>117.66666666666667</ele><time>2026-04-26T14:25:02.003Z</time></trkpt><trkpt lat="45.277589628729764" lon="8.463455662019205"><ele>117.33333333333334</ele><time>2026-04-26T14:25:03.003Z</time></trkpt><trkpt lat="45.27737388886234" lon="8.463463668082401"><ele>117.0</ele><time>2026-04-26T14:25:04.003Z</time></trkpt><trkpt lat="45.277156006348456" lon="8.463471600330449"><ele>117.66666666666666</ele><time>2026-04-26T14:25:05.003Z</time></trkpt><trkpt lat="45.2769386601117" lon="8.463478859888436"><ele>118.33333333333333</ele><time>2026-04-26T14:25:06.003Z</time></trkpt><trkpt lat="45.27672068626144" lon="8.463486805908323"><ele>119.0</ele><time>2026-04-26T14:25:07.003Z</time></trkpt><trkpt lat="45.2765047348389" lon="8.46349587134062"><ele>119.0</ele><time>2026-04-26T14:25:08.003Z</time></trkpt><trkpt lat="45.27629343969008" lon="8.463504648115716"><ele>119.0</ele><time>2026-04-26T14:25:09.003Z</time></trkpt><trkpt lat="45.27608142457093" lon="8.463512155625132"><ele>119.0</ele><time>2026-04-26T14:25:10.003Z</time></trkpt><trkpt lat="45.275870760768086" lon="8.46352133472024"><ele>119.0</ele><time>2026-04-26T14:25:11.003Z</time></trkpt><trkpt lat="45.27566627104115" lon="8.463529968518875"><ele>119.0</ele><time>2026-04-26T14:25:12.003Z</time></trkpt><trkpt lat="45.275455623790194" lon="8.4635390902379"><ele>119.0</ele><time>2026-04-26T14:25:13.003Z</time></trkpt><trkpt lat="45.27523857666052" lon="8.463549439345767"><ele>118.66666666666666</ele><time>2026-04-26T14:25:14.003Z</time></trkpt><trkpt lat="45.27501860832461" lon="8.463556829517973"><ele>118.33333333333334</ele><time>2026-04-26T14:25:15.003Z</time></trkpt><trkpt lat="45.27480481532765" lon="8.463568350995018"><ele>118.0</ele><time>2026-04-26T14:25:16.003Z</time></trkpt><trkpt lat="45.274593506809765" lon="8.463577755303847"><ele>118.0</ele><time>2026-04-26T14:25:17.003Z</time></trkpt><trkpt lat="45.274389348714216" lon="8.463585462418203"><ele>118.0</ele><time>2026-04-26T14:25:18.003Z</time></trkpt><trkpt lat="45.27419507473048" lon="8.46359289299048"><ele>118.0</ele><time>2026-04-26T14:25:19.003Z</time></trkpt><trkpt lat="45.2740058201056" lon="8.463599257864614"><ele>117.33333333333334</ele><time>2026-04-26T14:25:20.003Z</time></trkpt><trkpt lat="45.2738224818474" lon="8.4636080410549"><ele>116.66666666666666</ele><time>2026-04-26T14:25:21.003Z</time></trkpt><trkpt lat="45.27363854593877" lon="8.463612361059576"><ele>116.0</ele><time>2026-04-26T14:25:22.003Z</time></trkpt><trkpt lat="45.27345971596231" lon="8.463616636748975"><ele>116.0</ele><time>2026-04-26T14:25:23.003Z</time></trkpt><trkpt lat="45.273285985728215" lon="8.463622058816023"><ele>116.0</ele><time>2026-04-26T14:25:24.003Z</time></trkpt><trkpt lat="45.27311573907305" lon="8.463627433376702"><ele>116.0</ele><time>2026-04-26T14:25:25.003Z</time></trkpt><trkpt lat="45.27294363569618" lon="8.463630759326158"><ele>116.33333333333333</ele><time>2026-04-26T14:25:26.003Z</time></trkpt><trkpt lat="45.27276680589413" lon="8.463636082874402"><ele>116.66666666666666</ele><time>2026-04-26T14:25:27.003Z</time></trkpt><trkpt lat="45.272579578094756" lon="8.463643319730343"><ele>117.0</ele><time>2026-04-26T14:25:28.003Z</time></trkpt><trkpt lat="45.27238470926867" lon="8.463648534282553"><ele>117.66666666666666</ele><time>2026-04-26T14:25:29.003Z</time></trkpt><trkpt lat="45.272188406376436" lon="8.463655074546715"><ele>118.33333333333333</ele><time>2026-04-26T14:25:30.003Z</time></trkpt><trkpt lat="45.27199444193501" lon="8.463660476174454"><ele>119.0</ele><time>2026-04-26T14:25:31.003Z</time></trkpt><trkpt lat="45.271801632689616" lon="8.463667387357399"><ele>119.0</ele><time>2026-04-26T14:25:32.003Z</time></trkpt><trkpt lat="45.271608663797366" lon="8.463672928753171"><ele>119.0</ele><time>2026-04-26T14:25:33.003Z</time></trkpt><trkpt lat="45.271413510834435" lon="8.463679168746001"><ele>119.0</ele><time>2026-04-26T14:25:34.003Z</time></trkpt><trkpt lat="45.27121618315235" lon="8.463687985528784"><ele>118.66666666666666</ele><time>2026-04-26T14:25:35.003Z</time></trkpt><trkpt lat="45.27101742470834" lon="8.463698048185092"><ele>118.33333333333334</ele><time>2026-04-26T14:25:36.003Z</time></trkpt><trkpt lat="45.27081693826707" lon="8.46370600337034"><ele>118.0</ele><time>2026-04-26T14:25:37.003Z</time></trkpt><trkpt lat="45.27061364186722" lon="8.463711171491564"><ele>118.33333333333334</ele><time>2026-04-26T14:25:38.003Z</time></trkpt><trkpt lat="45.270403790561524" lon="8.463713050750055"><ele>118.66666666666666</ele><time>2026-04-26T14:25:39.003Z</time></trkpt><trkpt lat="45.27018676227939" lon="8.463718549605003"><ele>119.0</ele><time>2026-04-26T14:25:40.003Z</time></trkpt><trkpt lat="45.269964885324384" lon="8.463725090339896"><ele>118.33333333333333</ele><time>2026-04-26T14:25:41.003Z</time></trkpt><trkpt lat="45.269739792801964" lon="8.463730571365893"><ele>117.66666666666666</ele><time>2026-04-26T14:25:42.003Z</time></trkpt><trkpt lat="45.269516725416594" lon="8.463735459809296"><ele>117.0</ele><time>2026-04-26T14:25:43.003Z</time></trkpt><trkpt lat="45.26930018791161" lon="8.463740834024875"><ele>117.0</ele><time>2026-04-26T14:25:44.003Z</time></trkpt><trkpt lat="45.26909323827472" lon="8.46374581648183"><ele>117.0</ele><time>2026-04-26T14:25:45.003Z</time></trkpt><trkpt lat="45.26889594000731" lon="8.463754954418802"><ele>117.0</ele><time>2026-04-26T14:25:46.003Z</time></trkpt><trkpt lat="45.26870541555604" lon="8.463765178587181"><ele>117.33333333333334</ele><time>2026-04-26T14:25:47.003Z</time></trkpt><trkpt lat="45.26852250762071" lon="8.463747126404272"><ele>117.66666666666667</ele><time>2026-04-26T14:25:48.003Z</time></trkpt><trkpt lat="45.268342126088825" lon="8.463751932999577"><ele>118.0</ele><time>2026-04-26T14:25:49.003Z</time></trkpt><trkpt lat="45.26816239837623" lon="8.463756883702679"><ele>118.0</ele><time>2026-04-26T14:25:50.003Z</time></trkpt><trkpt lat="45.26798146354483" lon="8.463761867656588"><ele>118.0</ele><time>2026-04-26T14:25:51.003Z</time></trkpt><trkpt lat="45.26779931450021" lon="8.46378570546997"><ele>118.0</ele><time>2026-04-26T14:25:52.003Z</time></trkpt><trkpt lat="45.2676163756161" lon="8.463786873055659"><ele>118.0</ele><time>2026-04-26T14:25:53.004Z</time></trkpt><trkpt lat="45.267434081408375" lon="8.463788827166479"><ele>118.0</ele><time>2026-04-26T14:25:54.004Z</time></trkpt><trkpt lat="45.267253129294794" lon="8.463790398854762"><ele>118.0</ele><time>2026-04-26T14:25:55.004Z</time></trkpt><trkpt lat="45.26707310581023" lon="8.463792837050924"><ele>118.0</ele><time>2026-04-26T14:25:56.003Z</time></trkpt><trkpt lat="45.26688254899382" lon="8.463798725058501"><ele>118.0</ele><time>2026-04-26T14:25:57.003Z</time></trkpt><trkpt lat="45.26667347867778" lon="8.463807501449795"><ele>118.0</ele><time>2026-04-26T14:25:58.003Z</time></trkpt><trkpt lat="45.266456377446474" lon="8.463813034070176"><ele>118.0</ele><time>2026-04-26T14:25:59.003Z</time></trkpt><trkpt lat="45.26621416228642" lon="8.46381104653959"><ele>118.0</ele><time>2026-04-26T14:26:00.003Z</time></trkpt><trkpt lat="45.265955491296815" lon="8.463800990173715"><ele>118.0</ele><time>2026-04-26T14:26:01.003Z</time></trkpt><trkpt lat="45.26569378748348" lon="8.463797100797319"><ele>118.0</ele><time>2026-04-26T14:26:02.003Z</time></trkpt><trkpt lat="45.26543312398274" lon="8.463804293090446"><ele>117.5</ele><time>2026-04-26T14:26:03.003Z</time></trkpt><trkpt lat="45.26517585896442" lon="8.463813313028869"><ele>117.0</ele><time>2026-04-26T14:26:04.003Z</time></trkpt><trkpt lat="45.264921336288786" lon="8.46382349950804"><ele>117.0</ele><time>2026-04-26T14:26:05.003Z</time></trkpt><trkpt lat="45.26467362740529" lon="8.463830911616622"><ele>117.0</ele><time>2026-04-26T14:26:06.003Z</time></trkpt><trkpt lat="45.26443191194261" lon="8.463837830827105"><ele>117.0</ele><time>2026-04-26T14:26:07.003Z</time></trkpt><trkpt lat="45.264194743848364" lon="8.463846630778255"><ele>117.0</ele><time>2026-04-26T14:26:08.003Z</time></trkpt><trkpt lat="45.26396410257093" lon="8.463855943857087"><ele>118.0</ele><time>2026-04-26T14:26:09.003Z</time></trkpt><trkpt lat="45.26373851193087" lon="8.463864746603472"><ele>119.0</ele><time>2026-04-26T14:26:10.003Z</time></trkpt><trkpt lat="45.2635179653517" lon="8.463871557256168"><ele>120.0</ele><time>2026-04-26T14:26:11.003Z</time></trkpt><trkpt lat="45.26330196688666" lon="8.463876049742803"><ele>119.33333333333334</ele><time>2026-04-26T14:26:12.003Z</time></trkpt><trkpt lat="45.26309063044085" lon="8.463883519067142"><ele>118.66666666666667</ele><time>2026-04-26T14:26:13.003Z</time></trkpt><trkpt lat="45.2628830146824" lon="8.463887797461059"><ele>118.0</ele><time>2026-04-26T14:26:14.003Z</time></trkpt><trkpt lat="45.262678462438544" lon="8.463890615934284"><ele>118.0</ele><time>2026-04-26T14:26:15.003Z</time></trkpt><trkpt lat="45.262475086581816" lon="8.463891936747775"><ele>118.0</ele><time>2026-04-26T14:26:16.003Z</time></trkpt><trkpt lat="45.26227356220006" lon="8.463894686700428"><ele>118.0</ele><time>2026-04-26T14:26:17.003Z</time></trkpt><trkpt lat="45.26207400028468" lon="8.463899894718834"><ele>118.33333333333334</ele><time>2026-04-26T14:26:18.003Z</time></trkpt><trkpt lat="45.26187894592626" lon="8.463906058446028"><ele>118.66666666666666</ele><time>2026-04-26T14:26:19.003Z</time></trkpt><trkpt lat="45.26168772950679" lon="8.463912401148663"><ele>119.0</ele><time>2026-04-26T14:26:20.003Z</time></trkpt><trkpt lat="45.26149811654996" lon="8.46391619710066"><ele>119.0</ele><time>2026-04-26T14:26:21.003Z</time></trkpt><trkpt lat="45.26131155899267" lon="8.463919977071805"><ele>119.0</ele><time>2026-04-26T14:26:22.003Z</time></trkpt><trkpt lat="45.26112722160221" lon="8.463925085998639"><ele>119.0</ele><time>2026-04-26T14:26:23.003Z</time></trkpt><trkpt lat="45.260945841243654" lon="8.463930305803501"><ele>119.0</ele><time>2026-04-26T14:26:24.003Z</time></trkpt><trkpt lat="45.26076599976192" lon="8.463934832808194"><ele>119.0</ele><time>2026-04-26T14:26:25.003Z</time></trkpt><trkpt lat="45.26058738239505" lon="8.46393989247362"><ele>119.0</ele><time>2026-04-26T14:26:26.003Z</time></trkpt><trkpt lat="45.26041158772827" lon="8.463942958381018"><ele>119.66666666666666</ele><time>2026-04-26T14:26:27.003Z</time></trkpt><trkpt lat="45.2602418339673" lon="8.463947195790439"><ele>120.33333333333334</ele><time>2026-04-26T14:26:28.003Z</time></trkpt><trkpt lat="45.260079791694515" lon="8.46395045966131"><ele>121.0</ele><time>2026-04-26T14:26:29.003Z</time></trkpt><trkpt lat="45.259924628508635" lon="8.463949657236178"><ele>120.66666666666667</ele><time>2026-04-26T14:26:30.003Z</time></trkpt><trkpt lat="45.25977071044015" lon="8.463951435392511"><ele>120.33333333333334</ele><time>2026-04-26T14:26:31.003Z</time></trkpt><trkpt lat="45.25961795114173" lon="8.463955559196712"><ele>120.0</ele><time>2026-04-26T14:26:32.003Z</time></trkpt><trkpt lat="45.25946564255141" lon="8.463960880465775"><ele>120.0</ele><time>2026-04-26T14:26:33.003Z</time></trkpt><trkpt lat="45.259315120818464" lon="8.463966778268468"><ele>120.0</ele><time>2026-04-26T14:26:34.003Z</time></trkpt><trkpt lat="45.25916586310382" lon="8.463968976468147"><ele>120.0</ele><time>2026-04-26T14:26:35.003Z</time></trkpt><trkpt lat="45.259021163738886" lon="8.46396726127078"><ele>120.0</ele><time>2026-04-26T14:26:36.003Z</time></trkpt><trkpt lat="45.25888488394983" lon="8.463967315567688"><ele>119.75</ele><time>2026-04-26T14:26:37.003Z</time></trkpt><trkpt lat="45.25875253690608" lon="8.4639725472865"><ele>119.5</ele><time>2026-04-26T14:26:38.003Z</time></trkpt><trkpt lat="45.258627125646605" lon="8.463974383810537"><ele>119.25</ele><time>2026-04-26T14:26:39.003Z</time></trkpt><trkpt lat="45.258506804062854" lon="8.4639796680064"><ele>119.0</ele><time>2026-04-26T14:26:40.003Z</time></trkpt><trkpt lat="45.25838793651299" lon="8.463982370560197"><ele>119.0</ele><time>2026-04-26T14:26:41.003Z</time></trkpt><trkpt lat="45.25827093579143" lon="8.463958873574992"><ele>119.0</ele><time>2026-04-26T14:26:42.003Z</time></trkpt><trkpt lat="45.2581544233061" lon="8.463909036551712"><ele>119.0</ele><time>2026-04-26T14:26:43.003Z</time></trkpt><trkpt lat="45.25803916911326" lon="8.463864382331467"><ele>119.0</ele><time>2026-04-26T14:26:44.003Z</time></trkpt><trkpt lat="45.25791243507182" lon="8.463852348061714"><ele>118.0</ele><time>2026-04-26T14:26:45.003Z</time></trkpt><trkpt lat="45.25777384299685" lon="8.463851269407842"><ele>117.0</ele><time>2026-04-26T14:26:46.003Z</time></trkpt><trkpt lat="45.25762385159226" lon="8.463824489638663"><ele>116.0</ele><time>2026-04-26T14:26:47.003Z</time></trkpt><trkpt lat="45.2574701441513" lon="8.463757218573823"><ele>115.66666666666666</ele><time>2026-04-26T14:26:48.003Z</time></trkpt><trkpt lat="45.2573117963401" lon="8.463667137436305"><ele>115.33333333333334</ele><time>2026-04-26T14:26:49.003Z</time></trkpt><trkpt lat="45.25714858416551" lon="8.463561172306889"><ele>115.0</ele><time>2026-04-26T14:26:50.003Z</time></trkpt><trkpt lat="45.25698263097192" lon="8.463434537005762"><ele>115.0</ele><time>2026-04-26T14:26:51.003Z</time></trkpt><trkpt lat="45.25681267714656" lon="8.463287703797318"><ele>115.0</ele><time>2026-04-26T14:26:52.003Z</time></trkpt><trkpt lat="45.25663888328547" lon="8.463123454874355"><ele>115.0</ele><time>2026-04-26T14:26:53.003Z</time></trkpt><trkpt lat="45.25645985829104" lon="8.462952757449726"><ele>116.5</ele><time>2026-04-26T14:26:54.003Z</time></trkpt><trkpt lat="45.25627438954599" lon="8.462778541103168"><ele>118.0</ele><time>2026-04-26T14:26:55.003Z</time></trkpt><trkpt lat="45.2560784985461" lon="8.462597204906004"><ele>118.0</ele><time>2026-04-26T14:26:56.003Z</time></trkpt><trkpt lat="45.25587577379348" lon="8.462414022584985"><ele>118.0</ele><time>2026-04-26T14:26:57.003Z</time></trkpt><trkpt lat="45.255668246090984" lon="8.462224328612281"><ele>119.0</ele><time>2026-04-26T14:26:58.003Z</time></trkpt><trkpt lat="45.255454965233106" lon="8.462037021024903"><ele>120.0</ele><time>2026-04-26T14:26:59.003Z</time></trkpt><trkpt lat="45.25523048014683" lon="8.461868190250549"><ele>120.0</ele><time>2026-04-26T14:27:00.003Z</time></trkpt><trkpt lat="45.25499465164217" lon="8.461723557534453"><ele>120.0</ele><time>2026-04-26T14:27:01.003Z</time></trkpt><trkpt lat="45.254750480521714" lon="8.461599277332715"><ele>118.5</ele><time>2026-04-26T14:27:02.003Z</time></trkpt><trkpt lat="45.25449786789307" lon="8.461499517945656"><ele>117.0</ele><time>2026-04-26T14:27:03.003Z</time></trkpt><trkpt lat="45.25423995056603" lon="8.46141677478113"><ele>117.0</ele><time>2026-04-26T14:27:04.003Z</time></trkpt><trkpt lat="45.25398944447281" lon="8.461345274135077"><ele>117.0</ele><time>2026-04-26T14:27:05.003Z</time></trkpt><trkpt lat="45.25374859329204" lon="8.461280785008972"><ele>117.5</ele><time>2026-04-26T14:27:06.003Z</time></trkpt><trkpt lat="45.25351371909098" lon="8.461222311760402"><ele>118.0</ele><time>2026-04-26T14:27:07.003Z</time></trkpt><trkpt lat="45.25328608488438" lon="8.461161393370821"><ele>118.0</ele><time>2026-04-26T14:27:08.003Z</time></trkpt><trkpt lat="45.25306380469516" lon="8.461099201315193"><ele>118.0</ele><time>2026-04-26T14:27:09.003Z</time></trkpt><trkpt lat="45.252848404437856" lon="8.461039004811504"><ele>118.0</ele><time>2026-04-26T14:27:10.003Z</time></trkpt><trkpt lat="45.252641468435066" lon="8.460980092330722"><ele>118.0</ele><time>2026-04-26T14:27:11.003Z</time></trkpt><trkpt lat="45.252439896546136" lon="8.460922233828752"><ele>118.0</ele><time>2026-04-26T14:27:12.003Z</time></trkpt><trkpt lat="45.25223199863751" lon="8.460865824700633"><ele>118.0</ele><time>2026-04-26T14:27:13.003Z</time></trkpt><trkpt lat="45.25200620391933" lon="8.460807561046293"><ele>119.0</ele><time>2026-04-26T14:27:14.003Z</time></trkpt><trkpt lat="45.25177012030566" lon="8.460749813850994"><ele>120.0</ele><time>2026-04-26T14:27:15.003Z</time></trkpt><trkpt lat="45.25153632136546" lon="8.460681008458028"><ele>120.0</ele><time>2026-04-26T14:27:16.003Z</time></trkpt><trkpt lat="45.251315645795856" lon="8.460613091972679"><ele>120.0</ele><time>2026-04-26T14:27:17.003Z</time></trkpt><trkpt lat="45.25110924189383" lon="8.460548286607372"><ele>120.0</ele><time>2026-04-26T14:27:18.003Z</time></trkpt><trkpt lat="45.25091109168534" lon="8.460488379810155"><ele>119.5</ele><time>2026-04-26T14:27:19.003Z</time></trkpt><trkpt lat="45.25069425879814" lon="8.460431367867802"><ele>119.0</ele><time>2026-04-26T14:27:20.003Z</time></trkpt><trkpt lat="45.25045885944933" lon="8.46036964456882"><ele>120.5</ele><time>2026-04-26T14:27:21.003Z</time></trkpt><trkpt lat="45.25022082038524" lon="8.460296544319874"><ele>122.0</ele><time>2026-04-26T14:27:22.003Z</time></trkpt><trkpt lat="45.24999766685238" lon="8.460225080594176"><ele>122.33333333333333</ele><time>2026-04-26T14:27:23.003Z</time></trkpt><trkpt lat="45.249785566099064" lon="8.460158921703849"><ele>122.66666666666666</ele><time>2026-04-26T14:27:24.003Z</time></trkpt><trkpt lat="45.24958001240882" lon="8.460098679173303"><ele>123.0</ele><time>2026-04-26T14:27:25.003Z</time></trkpt><trkpt lat="45.24936557063744" lon="8.46003866372189"><ele>123.0</ele><time>2026-04-26T14:27:26.003Z</time></trkpt><trkpt lat="45.24914287673779" lon="8.459984330739625"><ele>123.0</ele><time>2026-04-26T14:27:27.003Z</time></trkpt><trkpt lat="45.24891345325599" lon="8.459927139821028"><ele>123.5</ele><time>2026-04-26T14:27:28.003Z</time></trkpt><trkpt lat="45.24868105863924" lon="8.459860092251859"><ele>124.0</ele><time>2026-04-26T14:27:29.003Z</time></trkpt><trkpt lat="45.24845047473646" lon="8.459785611422213"><ele>124.0</ele><time>2026-04-26T14:27:30.003Z</time></trkpt><trkpt lat="45.24821788620725" lon="8.459719413741286"><ele>124.0</ele><time>2026-04-26T14:27:31.003Z</time></trkpt><trkpt lat="45.247982064674915" lon="8.459653724263813"><ele>122.5</ele><time>2026-04-26T14:27:32.003Z</time></trkpt><trkpt lat="45.24774112002673" lon="8.459585897016042"><ele>121.0</ele><time>2026-04-26T14:27:33.003Z</time></trkpt><trkpt lat="45.247495614847445" lon="8.45951959155043"><ele>120.5</ele><time>2026-04-26T14:27:34.003Z</time></trkpt><trkpt lat="45.24724568754448" lon="8.459446605518297"><ele>120.0</ele><time>2026-04-26T14:27:35.003Z</time></trkpt><trkpt lat="45.246992036167484" lon="8.459342038562893"><ele>120.0</ele><time>2026-04-26T14:27:36.003Z</time></trkpt><trkpt lat="45.24672521127937" lon="8.45927933247069"><ele>120.0</ele><time>2026-04-26T14:27:37.003Z</time></trkpt><trkpt lat="45.246457613690474" lon="8.459194641590495"><ele>119.5</ele><time>2026-04-26T14:27:38.003Z</time></trkpt><trkpt lat="45.246181210185284" lon="8.459109730535028"><ele>119.0</ele><time>2026-04-26T14:27:39.003Z</time></trkpt><trkpt lat="45.24589835029214" lon="8.459029937433623"><ele>119.0</ele><time>2026-04-26T14:27:40.003Z</time></trkpt><trkpt lat="45.24561068668067" lon="8.458944254847239"><ele>119.0</ele><time>2026-04-26T14:27:41.003Z</time></trkpt><trkpt lat="45.24532423622688" lon="8.458859098849693"><ele>119.0</ele><time>2026-04-26T14:27:42.003Z</time></trkpt><trkpt lat="45.24504969822381" lon="8.458779844024994"><ele>119.0</ele><time>2026-04-26T14:27:43.003Z</time></trkpt><trkpt lat="45.244781945889926" lon="8.458699705187785"><ele>119.0</ele><time>2026-04-26T14:27:44.003Z</time></trkpt><trkpt lat="45.244516864881696" lon="8.458620769800653"><ele>119.0</ele><time>2026-04-26T14:27:45.003Z</time></trkpt><trkpt lat="45.244255245464124" lon="8.458539041610207"><ele>119.0</ele><time>2026-04-26T14:27:46.003Z</time></trkpt><trkpt lat="45.2439953111396" lon="8.458473051433435"><ele>119.0</ele><time>2026-04-26T14:27:47.003Z</time></trkpt><trkpt lat="45.243738813730275" lon="8.458400891565239"><ele>118.0</ele><time>2026-04-26T14:27:48.003Z</time></trkpt><trkpt lat="45.24348072283003" lon="8.458327097843238"><ele>117.0</ele><time>2026-04-26T14:27:49.003Z</time></trkpt><trkpt lat="45.24322213562014" lon="8.45825390579623"><ele>117.0</ele><time>2026-04-26T14:27:50.003Z</time></trkpt><trkpt lat="45.24296718947262" lon="8.458179066612969"><ele>117.0</ele><time>2026-04-26T14:27:51.003Z</time></trkpt><trkpt lat="45.24271372780802" lon="8.45810972809445"><ele>117.0</ele><time>2026-04-26T14:27:52.003Z</time></trkpt><trkpt lat="45.24246128087579" lon="8.458041558085073"><ele>117.0</ele><time>2026-04-26T14:27:53.003Z</time></trkpt><trkpt lat="45.242213812019095" lon="8.457973231224024"><ele>116.5</ele><time>2026-04-26T14:27:54.003Z</time></trkpt><trkpt lat="45.24196903921978" lon="8.457903670669507"><ele>116.0</ele><time>2026-04-26T14:27:55.003Z</time></trkpt><trkpt lat="45.241727001872285" lon="8.457836711125319"><ele>116.0</ele><time>2026-04-26T14:27:56.003Z</time></trkpt><trkpt lat="45.24148765624826" lon="8.457770950735366"><ele>116.0</ele><time>2026-04-26T14:27:57.003Z</time></trkpt><trkpt lat="45.241253422680906" lon="8.457705233676062"><ele>116.5</ele><time>2026-04-26T14:27:58.003Z</time></trkpt><trkpt lat="45.2410257460913" lon="8.457641947716528"><ele>117.0</ele><time>2026-04-26T14:27:59.003Z</time></trkpt><trkpt lat="45.24080333885682" lon="8.45758173959927"><ele>117.0</ele><time>2026-04-26T14:28:00.003Z</time></trkpt><trkpt lat="45.240585101124346" lon="8.457519926793832"><ele>117.0</ele><time>2026-04-26T14:28:01.003Z</time></trkpt><trkpt lat="45.240372087208655" lon="8.45745543726284"><ele>117.0</ele><time>2026-04-26T14:28:02.003Z</time></trkpt><trkpt lat="45.240160947989224" lon="8.45739238128617"><ele>117.0</ele><time>2026-04-26T14:28:03.003Z</time></trkpt><trkpt lat="45.23995486047218" lon="8.457336161181365"><ele>117.0</ele><time>2026-04-26T14:28:04.003Z</time></trkpt><trkpt lat="45.23975594633494" lon="8.457272048306315"><ele>117.0</ele><time>2026-04-26T14:28:05.003Z</time></trkpt><trkpt lat="45.239551749872916" lon="8.457237963026758"><ele>117.0</ele><time>2026-04-26T14:28:06.003Z</time></trkpt><trkpt lat="45.2393487456725" lon="8.45722198630554"><ele>117.0</ele><time>2026-04-26T14:28:07.003Z</time></trkpt><trkpt lat="45.23914439765868" lon="8.457223807858856"><ele>117.0</ele><time>2026-04-26T14:28:08.003Z</time></trkpt><trkpt lat="45.2389436216187" lon="8.457239093301903"><ele>116.66666666666666</ele><time>2026-04-26T14:28:09.004Z</time></trkpt><trkpt lat="45.23874398144857" lon="8.457267766785742"><ele>116.33333333333333</ele><time>2026-04-26T14:28:10.004Z</time></trkpt><trkpt lat="45.23854599626858" lon="8.457312958045373"><ele>116.0</ele><time>2026-04-26T14:28:11.004Z</time></trkpt><trkpt lat="45.238350911411935" lon="8.457372945941621"><ele>116.0</ele><time>2026-04-26T14:28:12.004Z</time></trkpt><trkpt lat="45.23815879538138" lon="8.457449171969257"><ele>116.0</ele><time>2026-04-26T14:28:13.004Z</time></trkpt><trkpt lat="45.23797262306855" lon="8.457540594141081"><ele>116.0</ele><time>2026-04-26T14:28:14.004Z</time></trkpt><trkpt lat="45.23779083723171" lon="8.457639524519976"><ele>116.0</ele><time>2026-04-26T14:28:15.004Z</time></trkpt><trkpt lat="45.23761905812703" lon="8.457751807408652"><ele>116.0</ele><time>2026-04-26T14:28:16.004Z</time></trkpt><trkpt lat="45.237452280085556" lon="8.457875204629293"><ele>116.0</ele><time>2026-04-26T14:28:17.004Z</time></trkpt><trkpt lat="45.237294414759525" lon="8.458013568619188"><ele>116.0</ele><time>2026-04-26T14:28:18.004Z</time></trkpt><trkpt lat="45.23714079338919" lon="8.458161951214258"><ele>116.0</ele><time>2026-04-26T14:28:19.004Z</time></trkpt><trkpt lat="45.2369910306223" lon="8.458320855182011"><ele>116.0</ele><time>2026-04-26T14:28:20.004Z</time></trkpt><trkpt lat="45.2368427271976" lon="8.45848934708994"><ele>116.0</ele><time>2026-04-26T14:28:21.004Z</time></trkpt><trkpt lat="45.23669610678967" lon="8.458656290672673"><ele>116.0</ele><time>2026-04-26T14:28:22.004Z</time></trkpt><trkpt lat="45.23654907415064" lon="8.458823646341774"><ele>116.0</ele><time>2026-04-26T14:28:23.004Z</time></trkpt><trkpt lat="45.236403166202024" lon="8.458991143348058"><ele>115.33333333333333</ele><time>2026-04-26T14:28:24.004Z</time></trkpt><trkpt lat="45.236258180110084" lon="8.459157264212102"><ele>114.66666666666666</ele><time>2026-04-26T14:28:25.004Z</time></trkpt><trkpt lat="45.236113149583" lon="8.459321913915995"><ele>114.0</ele><time>2026-04-26T14:28:26.004Z</time></trkpt><trkpt lat="45.23596722642383" lon="8.4594896530627"><ele>114.33333333333334</ele><time>2026-04-26T14:28:27.004Z</time></trkpt><trkpt lat="45.23582088557887" lon="8.459664014190423"><ele>114.66666666666667</ele><time>2026-04-26T14:28:28.004Z</time></trkpt><trkpt lat="45.235669725740166" lon="8.459852694607155"><ele>115.0</ele><time>2026-04-26T14:28:29.004Z</time></trkpt><trkpt lat="45.23550111579585" lon="8.460053986871863"><ele>116.0</ele><time>2026-04-26T14:28:30.004Z</time></trkpt><trkpt lat="45.23530404551092" lon="8.460268323451027"><ele>117.0</ele><time>2026-04-26T14:28:31.004Z</time></trkpt><trkpt lat="45.23508883515678" lon="8.460493514523957"><ele>117.0</ele><time>2026-04-26T14:28:32.004Z</time></trkpt><trkpt lat="45.23487407693337" lon="8.46073092741631"><ele>117.0</ele><time>2026-04-26T14:28:33.004Z</time></trkpt><trkpt lat="45.234665032304626" lon="8.460975837377582"><ele>117.5</ele><time>2026-04-26T14:28:34.004Z</time></trkpt><trkpt lat="45.2344651553864" lon="8.461208707208831"><ele>118.0</ele><time>2026-04-26T14:28:35.004Z</time></trkpt><trkpt lat="45.23426678067487" lon="8.461439664964821"><ele>118.0</ele><time>2026-04-26T14:28:36.004Z</time></trkpt><trkpt lat="45.23407236955656" lon="8.461659399198139"><ele>118.0</ele><time>2026-04-26T14:28:37.004Z</time></trkpt><trkpt lat="45.233884669643864" lon="8.461876067776497"><ele>117.5</ele><time>2026-04-26T14:28:38.004Z</time></trkpt><trkpt lat="45.23369691889366" lon="8.462088752171342"><ele>117.0</ele><time>2026-04-26T14:28:39.004Z</time></trkpt><trkpt lat="45.23350972677451" lon="8.462300796819319"><ele>117.0</ele><time>2026-04-26T14:28:40.004Z</time></trkpt><trkpt lat="45.23332080183155" lon="8.462505888651908"><ele>117.0</ele><time>2026-04-26T14:28:41.004Z</time></trkpt><trkpt lat="45.23313046429864" lon="8.462698938057407"><ele>117.5</ele><time>2026-04-26T14:28:42.004Z</time></trkpt><trkpt lat="45.232932093783894" lon="8.46287814485811"><ele>118.0</ele><time>2026-04-26T14:28:43.004Z</time></trkpt><trkpt lat="45.23272359289798" lon="8.4630325098734"><ele>118.0</ele><time>2026-04-26T14:28:44.004Z</time></trkpt><trkpt lat="45.2325121679644" lon="8.463167191676677"><ele>118.0</ele><time>2026-04-26T14:28:45.004Z</time></trkpt><trkpt lat="45.23229772840163" lon="8.463290594290877"><ele>117.66666666666667</ele><time>2026-04-26T14:28:46.004Z</time></trkpt><trkpt lat="45.23208527733397" lon="8.463396936042233"><ele>117.33333333333334</ele><time>2026-04-26T14:28:47.004Z</time></trkpt><trkpt lat="45.2318713707333" lon="8.463481792042977"><ele>117.0</ele><time>2026-04-26T14:28:48.004Z</time></trkpt><trkpt lat="45.23166076151765" lon="8.463542546430947"><ele>117.0</ele><time>2026-04-26T14:28:49.004Z</time></trkpt><trkpt lat="45.231453578582034" lon="8.463591671277143"><ele>117.0</ele><time>2026-04-26T14:28:50.004Z</time></trkpt><trkpt lat="45.23125112896804" lon="8.463625070930492"><ele>117.0</ele><time>2026-04-26T14:28:51.004Z</time></trkpt><trkpt lat="45.23105285582361" lon="8.463645790483579"><ele>117.0</ele><time>2026-04-26T14:28:52.004Z</time></trkpt><trkpt lat="45.23085448740599" lon="8.463651850680698"><ele>117.0</ele><time>2026-04-26T14:28:53.004Z</time></trkpt><trkpt lat="45.23065876579488" lon="8.46363798574585"><ele>117.0</ele><time>2026-04-26T14:28:54.004Z</time></trkpt><trkpt lat="45.23046306714514" lon="8.463610159824853"><ele>116.66666666666666</ele><time>2026-04-26T14:28:55.004Z</time></trkpt><trkpt lat="45.23027482940362" lon="8.463570580295835"><ele>116.33333333333333</ele><time>2026-04-26T14:28:56.004Z</time></trkpt><trkpt lat="45.230094620653965" lon="8.463524827073918"><ele>116.0</ele><time>2026-04-26T14:28:57.004Z</time></trkpt><trkpt lat="45.22992406589757" lon="8.463473849108738"><ele>116.0</ele><time>2026-04-26T14:28:58.004Z</time></trkpt><trkpt lat="45.22977059444211" lon="8.46342099901461"><ele>116.0</ele><time>2026-04-26T14:28:59.004Z</time></trkpt><trkpt lat="45.22962932550747" lon="8.463362489861067"><ele>116.0</ele><time>2026-04-26T14:29:00.004Z</time></trkpt><trkpt lat="45.229496918904175" lon="8.463300380178836"><ele>116.0</ele><time>2026-04-26T14:29:01.004Z</time></trkpt><trkpt lat="45.229368909782494" lon="8.463235849454236"><ele>116.0</ele><time>2026-04-26T14:29:02.004Z</time></trkpt><trkpt lat="45.229246215713566" lon="8.463180054850783"><ele>116.0</ele><time>2026-04-26T14:29:03.004Z</time></trkpt><trkpt lat="45.22913014158934" lon="8.463127835603595"><ele>116.0</ele><time>2026-04-26T14:29:04.004Z</time></trkpt><trkpt lat="45.22901865129966" lon="8.46308058550359"><ele>116.0</ele><time>2026-04-26T14:29:05.004Z</time></trkpt><trkpt lat="45.22891810994059" lon="8.463037877466613"><ele>116.0</ele><time>2026-04-26T14:29:06.004Z</time></trkpt><trkpt lat="45.2288318953164" lon="8.462994612042218"><ele>116.0</ele><time>2026-04-26T14:29:07.004Z</time></trkpt><trkpt lat="45.228755821223054" lon="8.462946165012273"><ele>116.0</ele><time>2026-04-26T14:29:08.004Z</time></trkpt><trkpt lat="45.22869739486548" lon="8.462898010370662"><ele>116.0</ele><time>2026-04-26T14:29:09.004Z</time></trkpt><trkpt lat="45.22861421408591" lon="8.462768856509"><ele>116.0</ele><time>2026-04-26T14:29:11.004Z</time></trkpt><trkpt lat="45.22853823754367" lon="8.462625782228642"><ele>116.19999999999999</ele><time>2026-04-26T14:29:13.004Z</time></trkpt><trkpt lat="45.228480390405444" lon="8.462573086440944"><ele>116.39999999999999</ele><time>2026-04-26T14:29:14.004Z</time></trkpt><trkpt lat="45.228419844560946" lon="8.46251793226572"><ele>116.6</ele><time>2026-04-26T14:29:15.004Z</time></trkpt><trkpt lat="45.228404141863955" lon="8.462361757526283"><ele>116.8</ele><time>2026-04-26T14:29:16.004Z</time></trkpt><trkpt lat="45.228285902644934" lon="8.462309226307921"><ele>117.0</ele><time>2026-04-26T14:29:18.004Z</time></trkpt><trkpt lat="45.22821453731085" lon="8.462269739053674"><ele>117.0</ele><time>2026-04-26T14:29:19.004Z</time></trkpt><trkpt lat="45.228131083107044" lon="8.462203759085586"><ele>117.0</ele><time>2026-04-26T14:29:20.004Z</time></trkpt><trkpt lat="45.22803251741085" lon="8.462109737093138"><ele>117.0</ele><time>2026-04-26T14:29:21.004Z</time></trkpt><trkpt lat="45.22791465332672" lon="8.462002049163575"><ele>117.0</ele><time>2026-04-26T14:29:22.004Z</time></trkpt><trkpt lat="45.227775434963576" lon="8.461889877829813"><ele>117.0</ele><time>2026-04-26T14:29:23.004Z</time></trkpt><trkpt lat="45.227626260734844" lon="8.461771528961766"><ele>117.0</ele><time>2026-04-26T14:29:24.004Z</time></trkpt><trkpt lat="45.22745897946147" lon="8.461630752064291"><ele>117.0</ele><time>2026-04-26T14:29:25.004Z</time></trkpt><trkpt lat="45.227278164921685" lon="8.461475909891163"><ele>117.0</ele><time>2026-04-26T14:29:26.004Z</time></trkpt><trkpt lat="45.227090131199645" lon="8.461296545474797"><ele>117.0</ele><time>2026-04-26T14:29:27.004Z</time></trkpt><trkpt lat="45.226891238254325" lon="8.461093485708458"><ele>117.0</ele><time>2026-04-26T14:29:28.004Z</time></trkpt><trkpt lat="45.22667942397623" lon="8.460888968727748"><ele>117.0</ele><time>2026-04-26T14:29:29.004Z</time></trkpt><trkpt lat="45.22645691139781" lon="8.460691939621414"><ele>116.5</ele><time>2026-04-26T14:29:30.004Z</time></trkpt><trkpt lat="45.22623262640291" lon="8.460495249992652"><ele>116.0</ele><time>2026-04-26T14:29:31.004Z</time></trkpt><trkpt lat="45.22601998115339" lon="8.46030782452867"><ele>116.0</ele><time>2026-04-26T14:29:32.004Z</time></trkpt><trkpt lat="45.225804809767794" lon="8.46012005901703"><ele>116.0</ele><time>2026-04-26T14:29:33.004Z</time></trkpt><trkpt lat="45.2255904402512" lon="8.459931779205697"><ele>116.0</ele><time>2026-04-26T14:29:34.004Z</time></trkpt><trkpt lat="45.22537559063496" lon="8.459740832332775"><ele>116.0</ele><time>2026-04-26T14:29:35.004Z</time></trkpt><trkpt lat="45.22516696188175" lon="8.459553244978272"><ele>116.0</ele><time>2026-04-26T14:29:36.003Z</time></trkpt><trkpt lat="45.224969779158954" lon="8.459379920325667"><ele>116.0</ele><time>2026-04-26T14:29:37.003Z</time></trkpt><trkpt lat="45.224772536830166" lon="8.459206321339005"><ele>116.5</ele><time>2026-04-26T14:29:38.003Z</time></trkpt><trkpt lat="45.22457567656257" lon="8.459032784357973"><ele>117.0</ele><time>2026-04-26T14:29:39.003Z</time></trkpt><trkpt lat="45.22437898419919" lon="8.458855973204054"><ele>117.5</ele><time>2026-04-26T14:29:40.003Z</time></trkpt><trkpt lat="45.224182784728455" lon="8.45868029027923"><ele>118.0</ele><time>2026-04-26T14:29:41.003Z</time></trkpt><trkpt lat="45.223995154522534" lon="8.458510516413122"><ele>117.66666666666667</ele><time>2026-04-26T14:29:42.003Z</time></trkpt><trkpt lat="45.22380793901574" lon="8.458345670825336"><ele>117.33333333333334</ele><time>2026-04-26T14:29:43.003Z</time></trkpt><trkpt lat="45.223615509609985" lon="8.458175211568122"><ele>117.0</ele><time>2026-04-26T14:29:44.003Z</time></trkpt><trkpt lat="45.223421479846515" lon="8.458001604604302"><ele>116.5</ele><time>2026-04-26T14:29:45.003Z</time></trkpt><trkpt lat="45.22322740232943" lon="8.457830882523927"><ele>116.0</ele><time>2026-04-26T14:29:46.003Z</time></trkpt><trkpt lat="45.223036205819845" lon="8.45765983273062"><ele>116.0</ele><time>2026-04-26T14:29:47.003Z</time></trkpt><trkpt lat="45.222847822849616" lon="8.457488120276807"><ele>116.0</ele><time>2026-04-26T14:29:48.003Z</time></trkpt><trkpt lat="45.22266124338092" lon="8.457321008179093"><ele>116.0</ele><time>2026-04-26T14:29:49.003Z</time></trkpt><trkpt lat="45.22247785075573" lon="8.457155542758485"><ele>115.66666666666666</ele><time>2026-04-26T14:29:50.003Z</time></trkpt><trkpt lat="45.22229714515439" lon="8.456990801370564"><ele>115.33333333333334</ele><time>2026-04-26T14:29:51.003Z</time></trkpt><trkpt lat="45.2221205729731" lon="8.456832622663015"><ele>115.0</ele><time>2026-04-26T14:29:52.003Z</time></trkpt><trkpt lat="45.22194843942101" lon="8.456680686646322"><ele>115.0</ele><time>2026-04-26T14:29:53.003Z</time></trkpt><trkpt lat="45.22178636202958" lon="8.456537914942865"><ele>115.0</ele><time>2026-04-26T14:29:54.003Z</time></trkpt><trkpt lat="45.22163398653421" lon="8.45640211525583"><ele>115.0</ele><time>2026-04-26T14:29:55.003Z</time></trkpt><trkpt lat="45.22148797006923" lon="8.45626993696118"><ele>115.0</ele><time>2026-04-26T14:29:56.003Z</time></trkpt><trkpt lat="45.221354679885145" lon="8.45615133679112"><ele>115.0</ele><time>2026-04-26T14:29:57.003Z</time></trkpt><trkpt lat="45.221235303028394" lon="8.456044618937623"><ele>115.0</ele><time>2026-04-26T14:29:58.003Z</time></trkpt><trkpt lat="45.22112863592641" lon="8.455952351578958"><ele>115.0</ele><time>2026-04-26T14:29:59.003Z</time></trkpt><trkpt lat="45.2210393743663" lon="8.455860094129214"><ele>115.0</ele><time>2026-04-26T14:30:00.003Z</time></trkpt><trkpt lat="45.220971137613525" lon="8.455744959648904"><ele>115.0</ele><time>2026-04-26T14:30:01.003Z</time></trkpt><trkpt lat="45.22091787669168" lon="8.455618306077469"><ele>115.0</ele><time>2026-04-26T14:30:02.004Z</time></trkpt><trkpt lat="45.220851120315395" lon="8.455527400236257"><ele>115.0</ele><time>2026-04-26T14:30:03.004Z</time></trkpt><trkpt lat="45.220764095478444" lon="8.455481952959799"><ele>115.0</ele><time>2026-04-26T14:30:04.004Z</time></trkpt><trkpt lat="45.22066196834142" lon="8.455473869517132"><ele>114.75</ele><time>2026-04-26T14:30:05.004Z</time></trkpt><trkpt lat="45.220544823884985" lon="8.455496937407919"><ele>114.5</ele><time>2026-04-26T14:30:06.003Z</time></trkpt><trkpt lat="45.22040900324042" lon="8.455492271174863"><ele>114.25</ele><time>2026-04-26T14:30:07.003Z</time></trkpt><trkpt lat="45.22026109477405" lon="8.455440704853496"><ele>114.0</ele><time>2026-04-26T14:30:08.003Z</time></trkpt><trkpt lat="45.22009951788045" lon="8.455372074880696"><ele>114.0</ele><time>2026-04-26T14:30:09.003Z</time></trkpt><trkpt lat="45.21992144468484" lon="8.455318275245258"><ele>114.0</ele><time>2026-04-26T14:30:10.003Z</time></trkpt><trkpt lat="45.219727919581864" lon="8.455278602829507"><ele>114.0</ele><time>2026-04-26T14:30:11.003Z</time></trkpt><trkpt lat="45.219523902278354" lon="8.455251478878905"><ele>114.33333333333334</ele><time>2026-04-26T14:30:12.004Z</time></trkpt><trkpt lat="45.21931221930068" lon="8.45524125443527"><ele>114.66666666666667</ele><time>2026-04-26T14:30:13.004Z</time></trkpt><trkpt lat="45.219092927554065" lon="8.455251866270434"><ele>115.0</ele><time>2026-04-26T14:30:14.004Z</time></trkpt><trkpt lat="45.218866876197566" lon="8.455272209506676"><ele>114.0</ele><time>2026-04-26T14:30:15.004Z</time></trkpt><trkpt lat="45.218633687665196" lon="8.455313706383995"><ele>113.0</ele><time>2026-04-26T14:30:16.004Z</time></trkpt><trkpt lat="45.218400088331606" lon="8.455381786840668"><ele>112.5</ele><time>2026-04-26T14:30:17.004Z</time></trkpt><trkpt lat="45.218174143902786" lon="8.455468994082901"><ele>112.0</ele><time>2026-04-26T14:30:18.004Z</time></trkpt><trkpt lat="45.21796494802557" lon="8.455563091026027"><ele>113.0</ele><time>2026-04-26T14:30:19.004Z</time></trkpt><trkpt lat="45.2177519187328" lon="8.455660439492394"><ele>114.0</ele><time>2026-04-26T14:30:20.004Z</time></trkpt><trkpt lat="45.21753569443644" lon="8.455760300857035"><ele>113.5</ele><time>2026-04-26T14:30:21.004Z</time></trkpt><trkpt lat="45.21731571438693" lon="8.45585998338085"><ele>113.0</ele><time>2026-04-26T14:30:22.004Z</time></trkpt><trkpt lat="45.21709260369483" lon="8.455961762132786"><ele>113.0</ele><time>2026-04-26T14:30:23.004Z</time></trkpt><trkpt lat="45.21686857620619" lon="8.456065853608047"><ele>113.0</ele><time>2026-04-26T14:30:24.004Z</time></trkpt><trkpt lat="45.21664614516169" lon="8.456165214733604"><ele>113.33333333333333</ele><time>2026-04-26T14:30:25.004Z</time></trkpt><trkpt lat="45.21643410058499" lon="8.456263247981271"><ele>113.66666666666666</ele><time>2026-04-26T14:30:26.004Z</time></trkpt><trkpt lat="45.21621881539783" lon="8.456361238365307"><ele>114.0</ele><time>2026-04-26T14:30:27.004Z</time></trkpt><trkpt lat="45.21600304684759" lon="8.456461455124145"><ele>114.0</ele><time>2026-04-26T14:30:28.004Z</time></trkpt><trkpt lat="45.21578448267937" lon="8.456560479358586"><ele>114.0</ele><time>2026-04-26T14:30:29.004Z</time></trkpt><trkpt lat="45.21556449955603" lon="8.456655054799983"><ele>114.0</ele><time>2026-04-26T14:30:30.004Z</time></trkpt><trkpt lat="45.21534170080348" lon="8.456754936394395"><ele>114.0</ele><time>2026-04-26T14:30:31.004Z</time></trkpt><trkpt lat="45.21512071597936" lon="8.456853599478057"><ele>114.0</ele><time>2026-04-26T14:30:32.004Z</time></trkpt><trkpt lat="45.21489742803687" lon="8.456955651109505"><ele>114.0</ele><time>2026-04-26T14:30:33.004Z</time></trkpt><trkpt lat="45.21467313019627" lon="8.457058702116456"><ele>114.0</ele><time>2026-04-26T14:30:34.004Z</time></trkpt><trkpt lat="45.21444662048371" lon="8.45716065845832"><ele>114.0</ele><time>2026-04-26T14:30:35.004Z</time></trkpt><trkpt lat="45.21422019928326" lon="8.457261403087228"><ele>114.0</ele><time>2026-04-26T14:30:36.004Z</time></trkpt><trkpt lat="45.213994255234695" lon="8.457365054548351"><ele>114.0</ele><time>2026-04-26T14:30:37.004Z</time></trkpt><trkpt lat="45.213767046243426" lon="8.45747108813416"><ele>114.0</ele><time>2026-04-26T14:30:38.004Z</time></trkpt><trkpt lat="45.21353919490658" lon="8.457576473134065"><ele>114.0</ele><time>2026-04-26T14:30:39.004Z</time></trkpt><trkpt lat="45.213310900693045" lon="8.45767969483154"><ele>113.5</ele><time>2026-04-26T14:30:40.004Z</time></trkpt><trkpt lat="45.21308310498091" lon="8.457782130092452"><ele>113.0</ele><time>2026-04-26T14:30:41.004Z</time></trkpt><trkpt lat="45.212853871011205" lon="8.457883621347774"><ele>113.5</ele><time>2026-04-26T14:30:42.004Z</time></trkpt><trkpt lat="45.21262385319473" lon="8.457986805778463"><ele>114.0</ele><time>2026-04-26T14:30:43.004Z</time></trkpt><trkpt lat="45.21239381186316" lon="8.45809275279585"><ele>114.0</ele><time>2026-04-26T14:30:44.004Z</time></trkpt><trkpt lat="45.212163647890776" lon="8.458199215526506"><ele>114.0</ele><time>2026-04-26T14:30:45.004Z</time></trkpt><trkpt lat="45.21193440228121" lon="8.458299672404207"><ele>114.0</ele><time>2026-04-26T14:30:46.004Z</time></trkpt><trkpt lat="45.21170565303867" lon="8.458403239841388"><ele>114.0</ele><time>2026-04-26T14:30:47.004Z</time></trkpt><trkpt lat="45.21147728057889" lon="8.458505830250225"><ele>114.0</ele><time>2026-04-26T14:30:48.004Z</time></trkpt><trkpt lat="45.21124792031062" lon="8.458609399539588"><ele>114.0</ele><time>2026-04-26T14:30:49.004Z</time></trkpt><trkpt lat="45.21101817869326" lon="8.458712191595703"><ele>113.0</ele><time>2026-04-26T14:30:50.004Z</time></trkpt><trkpt lat="45.21078871974468" lon="8.458816568195779"><ele>112.0</ele><time>2026-04-26T14:30:51.004Z</time></trkpt><trkpt lat="45.21055634697067" lon="8.458920278010938"><ele>112.0</ele><time>2026-04-26T14:30:52.004Z</time></trkpt><trkpt lat="45.21032470121078" lon="8.459024367748901"><ele>112.0</ele><time>2026-04-26T14:30:53.004Z</time></trkpt><trkpt lat="45.21009311212561" lon="8.45912971686887"><ele>112.0</ele><time>2026-04-26T14:30:54.004Z</time></trkpt><trkpt lat="45.2098605296916" lon="8.45923434641714"><ele>112.0</ele><time>2026-04-26T14:30:55.004Z</time></trkpt><trkpt lat="45.20962589635931" lon="8.459341824283605"><ele>112.0</ele><time>2026-04-26T14:30:56.004Z</time></trkpt><trkpt lat="45.209390456240996" lon="8.4594483584163"><ele>112.0</ele><time>2026-04-26T14:30:57.004Z</time></trkpt><trkpt lat="45.20915275103955" lon="8.459552967491664"><ele>112.5</ele><time>2026-04-26T14:30:58.004Z</time></trkpt><trkpt lat="45.20891423714865" lon="8.4596590748149"><ele>113.0</ele><time>2026-04-26T14:30:59.004Z</time></trkpt><trkpt lat="45.20867428701725" lon="8.459768882942031"><ele>113.0</ele><time>2026-04-26T14:31:00.004Z</time></trkpt><trkpt lat="45.20843273766583" lon="8.459879040217508"><ele>113.0</ele><time>2026-04-26T14:31:01.004Z</time></trkpt><trkpt lat="45.20818782132448" lon="8.459988233066133"><ele>113.0</ele><time>2026-04-26T14:31:02.004Z</time></trkpt><trkpt lat="45.20794158481909" lon="8.46010012755569"><ele>113.0</ele><time>2026-04-26T14:31:03.004Z</time></trkpt><trkpt lat="45.207695456146304" lon="8.460212746581883"><ele>113.0</ele><time>2026-04-26T14:31:04.004Z</time></trkpt><trkpt lat="45.20744918675458" lon="8.460323694978552"><ele>113.0</ele><time>2026-04-26T14:31:05.004Z</time></trkpt><trkpt lat="45.20720278926618" lon="8.460437348721577"><ele>113.0</ele><time>2026-04-26T14:31:06.004Z</time></trkpt><trkpt lat="45.20695497495412" lon="8.460549038266073"><ele>113.0</ele><time>2026-04-26T14:31:07.004Z</time></trkpt><trkpt lat="45.20670699801859" lon="8.460659518969347"><ele>113.0</ele><time>2026-04-26T14:31:08.004Z</time></trkpt><trkpt lat="45.20645903648046" lon="8.460769484729715"><ele>113.0</ele><time>2026-04-26T14:31:09.004Z</time></trkpt><trkpt lat="45.2062125014403" lon="8.46088212027771"><ele>113.0</ele><time>2026-04-26T14:31:10.004Z</time></trkpt><trkpt lat="45.205963153336285" lon="8.460995260654592"><ele>113.0</ele><time>2026-04-26T14:31:11.004Z</time></trkpt><trkpt lat="45.205711918958066" lon="8.461104502055095"><ele>113.0</ele><time>2026-04-26T14:31:12.004Z</time></trkpt><trkpt lat="45.20546253149244" lon="8.461214538393609"><ele>113.0</ele><time>2026-04-26T14:31:13.004Z</time></trkpt><trkpt lat="45.20521324224948" lon="8.461326948431621"><ele>113.0</ele><time>2026-04-26T14:31:14.004Z</time></trkpt><trkpt lat="45.20496473038256" lon="8.461436816336066"><ele>113.0</ele><time>2026-04-26T14:31:15.004Z</time></trkpt><trkpt lat="45.204717312109196" lon="8.461547157304391"><ele>112.5</ele><time>2026-04-26T14:31:16.004Z</time></trkpt><trkpt lat="45.20446938743684" lon="8.461658604431129"><ele>112.0</ele><time>2026-04-26T14:31:17.004Z</time></trkpt><trkpt lat="45.20422179006017" lon="8.461771148402677"><ele>112.5</ele><time>2026-04-26T14:31:18.004Z</time></trkpt><trkpt lat="45.20397328699833" lon="8.461882696650967"><ele>113.0</ele><time>2026-04-26T14:31:19.004Z</time></trkpt><trkpt lat="45.20372286175539" lon="8.46199499153151"><ele>113.0</ele><time>2026-04-26T14:31:20.004Z</time></trkpt><trkpt lat="45.203475748902626" lon="8.462105058268797"><ele>113.0</ele><time>2026-04-26T14:31:21.004Z</time></trkpt><trkpt lat="45.203228270854794" lon="8.462217500919001"><ele>112.5</ele><time>2026-04-26T14:31:22.004Z</time></trkpt><trkpt lat="45.20298405117962" lon="8.46233449936448"><ele>112.0</ele><time>2026-04-26T14:31:23.004Z</time></trkpt><trkpt lat="45.2027410978719" lon="8.462459423295542"><ele>112.0</ele><time>2026-04-26T14:31:24.004Z</time></trkpt><trkpt lat="45.20250514190096" lon="8.462602158419894"><ele>112.0</ele><time>2026-04-26T14:31:25.004Z</time></trkpt><trkpt lat="45.20227488635335" lon="8.462759464485313"><ele>111.0</ele><time>2026-04-26T14:31:26.004Z</time></trkpt><trkpt lat="45.202047067849755" lon="8.462920993046826"><ele>110.0</ele><time>2026-04-26T14:31:27.004Z</time></trkpt><trkpt lat="45.201822050465864" lon="8.463090743871625"><ele>110.0</ele><time>2026-04-26T14:31:28.004Z</time></trkpt><trkpt lat="45.20159509121445" lon="8.463258559430395"><ele>110.0</ele><time>2026-04-26T14:31:29.004Z</time></trkpt><trkpt lat="45.20137047636346" lon="8.463432102763276"><ele>110.0</ele><time>2026-04-26T14:31:30.004Z</time></trkpt><trkpt lat="45.20114347514599" lon="8.463605410090338"><ele>110.0</ele><time>2026-04-26T14:31:31.004Z</time></trkpt><trkpt lat="45.20091728929633" lon="8.463774634336316"><ele>110.0</ele><time>2026-04-26T14:31:32.004Z</time></trkpt><trkpt lat="45.200692304352735" lon="8.46394373352683"><ele>110.0</ele><time>2026-04-26T14:31:33.004Z</time></trkpt><trkpt lat="45.200467937353984" lon="8.464112722925586"><ele>110.0</ele><time>2026-04-26T14:31:34.004Z</time></trkpt><trkpt lat="45.20024338438319" lon="8.464283334719278"><ele>110.0</ele><time>2026-04-26T14:31:35.004Z</time></trkpt><trkpt lat="45.20001622799624" lon="8.464448515936475"><ele>110.5</ele><time>2026-04-26T14:31:36.004Z</time></trkpt><trkpt lat="45.199790861140116" lon="8.46461166659928"><ele>111.0</ele><time>2026-04-26T14:31:37.004Z</time></trkpt><trkpt lat="45.199565718314425" lon="8.464776649170702"><ele>111.0</ele><time>2026-04-26T14:31:38.004Z</time></trkpt><trkpt lat="45.19934227447598" lon="8.46494479460629"><ele>111.0</ele><time>2026-04-26T14:31:39.004Z</time></trkpt><trkpt lat="45.19912005693116" lon="8.465115512322239"><ele>110.5</ele><time>2026-04-26T14:31:40.004Z</time></trkpt><trkpt lat="45.1988960012598" lon="8.465287539888473"><ele>110.0</ele><time>2026-04-26T14:31:41.004Z</time></trkpt><trkpt lat="45.19867041503792" lon="8.465453507778628"><ele>111.0</ele><time>2026-04-26T14:31:42.003Z</time></trkpt><trkpt lat="45.19844465548263" lon="8.465620109989185"><ele>112.0</ele><time>2026-04-26T14:31:43.003Z</time></trkpt><trkpt lat="45.198220768944914" lon="8.465786812926037"><ele>111.5</ele><time>2026-04-26T14:31:44.003Z</time></trkpt><trkpt lat="45.19799826165065" lon="8.465954077220882"><ele>111.0</ele><time>2026-04-26T14:31:45.003Z</time></trkpt><trkpt lat="45.19777474417529" lon="8.466121177194198"><ele>110.5</ele><time>2026-04-26T14:31:46.003Z</time></trkpt><trkpt lat="45.197550766833054" lon="8.466290530296407"><ele>110.0</ele><time>2026-04-26T14:31:47.003Z</time></trkpt><trkpt lat="45.19732933419128" lon="8.466458927233287"><ele>109.5</ele><time>2026-04-26T14:31:48.003Z</time></trkpt><trkpt lat="45.19710715315215" lon="8.466625103476837"><ele>109.0</ele><time>2026-04-26T14:31:49.003Z</time></trkpt><trkpt lat="45.19688322070569" lon="8.46678795863204"><ele>109.0</ele><time>2026-04-26T14:31:50.003Z</time></trkpt><trkpt lat="45.1966604653458" lon="8.46695395038659"><ele>109.0</ele><time>2026-04-26T14:31:51.003Z</time></trkpt><trkpt lat="45.19643898821088" lon="8.467118947994944"><ele>109.5</ele><time>2026-04-26T14:31:52.003Z</time></trkpt><trkpt lat="45.19621874406839" lon="8.467281045028033"><ele>110.0</ele><time>2026-04-26T14:31:53.003Z</time></trkpt><trkpt lat="45.195996123470685" lon="8.467445050464514"><ele>110.0</ele><time>2026-04-26T14:31:54.003Z</time></trkpt><trkpt lat="45.1957747030427" lon="8.467610199109272"><ele>110.0</ele><time>2026-04-26T14:31:55.003Z</time></trkpt><trkpt lat="45.19555286616555" lon="8.467774509072344"><ele>110.0</ele><time>2026-04-26T14:31:56.003Z</time></trkpt><trkpt lat="45.195329547718956" lon="8.467936863073758"><ele>110.0</ele><time>2026-04-26T14:31:57.003Z</time></trkpt><trkpt lat="45.1951070255307" lon="8.468100640435344"><ele>110.0</ele><time>2026-04-26T14:31:58.003Z</time></trkpt><trkpt lat="45.19488532993199" lon="8.468267003492466"><ele>110.0</ele><time>2026-04-26T14:31:59.003Z</time></trkpt><trkpt lat="45.19466311157812" lon="8.468432063745048"><ele>110.0</ele><time>2026-04-26T14:32:00.003Z</time></trkpt><trkpt lat="45.19444005208461" lon="8.468596938548203"><ele>110.0</ele><time>2026-04-26T14:32:01.003Z</time></trkpt><trkpt lat="45.19421754069612" lon="8.46876250977605"><ele>110.0</ele><time>2026-04-26T14:32:02.003Z</time></trkpt><trkpt lat="45.19399520978219" lon="8.468929029247471"><ele>110.0</ele><time>2026-04-26T14:32:03.003Z</time></trkpt><trkpt lat="45.193772334031074" lon="8.46909569626608"><ele>110.0</ele><time>2026-04-26T14:32:04.003Z</time></trkpt><trkpt lat="45.193550398037154" lon="8.469262198983408"><ele>110.0</ele><time>2026-04-26T14:32:05.003Z</time></trkpt><trkpt lat="45.193329056762465" lon="8.469427073577231"><ele>110.5</ele><time>2026-04-26T14:32:06.003Z</time></trkpt><trkpt lat="45.19310800354132" lon="8.46959207700121"><ele>111.0</ele><time>2026-04-26T14:32:07.003Z</time></trkpt><trkpt lat="45.192885464387125" lon="8.469755928927471"><ele>111.0</ele><time>2026-04-26T14:32:08.004Z</time></trkpt><trkpt lat="45.19266412637433" lon="8.469921916286673"><ele>111.0</ele><time>2026-04-26T14:32:09.003Z</time></trkpt><trkpt lat="45.19244274209708" lon="8.470086613895141"><ele>110.0</ele><time>2026-04-26T14:32:10.003Z</time></trkpt><trkpt lat="45.19222022777495" lon="8.470251604303458"><ele>109.0</ele><time>2026-04-26T14:32:11.004Z</time></trkpt><trkpt lat="45.19199898645968" lon="8.470415533604129"><ele>109.5</ele><time>2026-04-26T14:32:12.004Z</time></trkpt><trkpt lat="45.19178098402878" lon="8.470581941062502"><ele>110.0</ele><time>2026-04-26T14:32:13.004Z</time></trkpt><trkpt lat="45.19156096273587" lon="8.470747119667125"><ele>110.0</ele><time>2026-04-26T14:32:14.004Z</time></trkpt><trkpt lat="45.19134140507832" lon="8.470910769268004"><ele>110.0</ele><time>2026-04-26T14:32:15.004Z</time></trkpt><trkpt lat="45.19112307057011" lon="8.471075159847956"><ele>110.0</ele><time>2026-04-26T14:32:16.004Z</time></trkpt><trkpt lat="45.19090423771669" lon="8.471242196955515"><ele>110.0</ele><time>2026-04-26T14:32:17.004Z</time></trkpt><trkpt lat="45.19068471090061" lon="8.471408181243872"><ele>109.5</ele><time>2026-04-26T14:32:18.004Z</time></trkpt><trkpt lat="45.19046444598013" lon="8.471565555214438"><ele>109.0</ele><time>2026-04-26T14:32:19.004Z</time></trkpt><trkpt lat="45.19024514556479" lon="8.471725670258184"><ele>109.0</ele><time>2026-04-26T14:32:20.004Z</time></trkpt><trkpt lat="45.190027031633896" lon="8.471884956771547"><ele>109.0</ele><time>2026-04-26T14:32:21.003Z</time></trkpt><trkpt lat="45.18981029144478" lon="8.472048705155837"><ele>109.0</ele><time>2026-04-26T14:32:22.003Z</time></trkpt><trkpt lat="45.18959247014112" lon="8.472213665240492"><ele>109.0</ele><time>2026-04-26T14:32:23.003Z</time></trkpt><trkpt lat="45.18937668679451" lon="8.47237638653933"><ele>109.0</ele><time>2026-04-26T14:32:24.003Z</time></trkpt><trkpt lat="45.18916368727063" lon="8.472537588179081"><ele>109.0</ele><time>2026-04-26T14:32:25.003Z</time></trkpt><trkpt lat="45.188952832216415" lon="8.47269436843382"><ele>109.0</ele><time>2026-04-26T14:32:26.003Z</time></trkpt><trkpt lat="45.188748003269666" lon="8.47284708535949"><ele>109.0</ele><time>2026-04-26T14:32:27.003Z</time></trkpt><trkpt lat="45.18854754041786" lon="8.472996572948283"><ele>109.0</ele><time>2026-04-26T14:32:28.003Z</time></trkpt><trkpt lat="45.18835268109055" lon="8.473139058991864"><ele>109.0</ele><time>2026-04-26T14:32:29.003Z</time></trkpt><trkpt lat="45.18816328721613" lon="8.473273179957232"><ele>109.0</ele><time>2026-04-26T14:32:30.003Z</time></trkpt><trkpt lat="45.187972475909724" lon="8.473392538109776"><ele>108.66666666666667</ele><time>2026-04-26T14:32:31.003Z</time></trkpt><trkpt lat="45.18778176759757" lon="8.473490619067443"><ele>108.33333333333334</ele><time>2026-04-26T14:32:32.003Z</time></trkpt><trkpt lat="45.18759018900448" lon="8.473576310133746"><ele>108.0</ele><time>2026-04-26T14:32:33.003Z</time></trkpt><trkpt lat="45.187396950626585" lon="8.473648650285922"><ele>108.66666666666666</ele><time>2026-04-26T14:32:34.003Z</time></trkpt><trkpt lat="45.18719460954681" lon="8.473708479765358"><ele>109.33333333333333</ele><time>2026-04-26T14:32:35.003Z</time></trkpt><trkpt lat="45.18697895717473" lon="8.473750436531978"><ele>110.0</ele><time>2026-04-26T14:32:36.003Z</time></trkpt><trkpt lat="45.18675459726058" lon="8.473759350935204"><ele>110.0</ele><time>2026-04-26T14:32:37.003Z</time></trkpt><trkpt lat="45.18651958635545" lon="8.473740866062597"><ele>110.0</ele><time>2026-04-26T14:32:38.003Z</time></trkpt><trkpt lat="45.186280870945225" lon="8.4737013169601"><ele>110.0</ele><time>2026-04-26T14:32:39.003Z</time></trkpt><trkpt lat="45.18603534784672" lon="8.473660146655316"><ele>110.0</ele><time>2026-04-26T14:32:40.003Z</time></trkpt><trkpt lat="45.18578813288761" lon="8.473618277101707"><ele>109.5</ele><time>2026-04-26T14:32:41.003Z</time></trkpt><trkpt lat="45.185540897172295" lon="8.473576590540937"><ele>109.0</ele><time>2026-04-26T14:32:42.003Z</time></trkpt><trkpt lat="45.18529789120538" lon="8.473529854673334"><ele>109.0</ele><time>2026-04-26T14:32:43.003Z</time></trkpt><trkpt lat="45.18505877788912" lon="8.473479999983528"><ele>109.0</ele><time>2026-04-26T14:32:44.003Z</time></trkpt><trkpt lat="45.18481960782093" lon="8.473430833100364"><ele>108.5</ele><time>2026-04-26T14:32:45.003Z</time></trkpt><trkpt lat="45.184584741845285" lon="8.47338375275656"><ele>108.0</ele><time>2026-04-26T14:32:46.003Z</time></trkpt><trkpt lat="45.18435086353036" lon="8.473339382304514"><ele>108.0</ele><time>2026-04-26T14:32:47.003Z</time></trkpt><trkpt lat="45.18411710412905" lon="8.473291189802707"><ele>108.0</ele><time>2026-04-26T14:32:48.003Z</time></trkpt><trkpt lat="45.183887008052686" lon="8.473243216353769"><ele>108.5</ele><time>2026-04-26T14:32:49.003Z</time></trkpt><trkpt lat="45.18366271624839" lon="8.473197530176584"><ele>109.0</ele><time>2026-04-26T14:32:50.003Z</time></trkpt><trkpt lat="45.18344068821909" lon="8.473155169325288"><ele>109.0</ele><time>2026-04-26T14:32:51.003Z</time></trkpt><trkpt lat="45.18322107191499" lon="8.473112790375264"><ele>109.0</ele><time>2026-04-26T14:32:52.003Z</time></trkpt><trkpt lat="45.18300414560488" lon="8.473071960808145"><ele>109.0</ele><time>2026-04-26T14:32:53.003Z</time></trkpt><trkpt lat="45.18279402733377" lon="8.47303208620865"><ele>109.0</ele><time>2026-04-26T14:32:54.003Z</time></trkpt><trkpt lat="45.1825930200825" lon="8.472989737689069"><ele>109.0</ele><time>2026-04-26T14:32:55.003Z</time></trkpt><trkpt lat="45.182399293436866" lon="8.472953128024612"><ele>109.0</ele><time>2026-04-26T14:32:56.003Z</time></trkpt><trkpt lat="45.18221120970885" lon="8.472918472468276"><ele>109.0</ele><time>2026-04-26T14:32:57.003Z</time></trkpt><trkpt lat="45.182027666264034" lon="8.472889968777903"><ele>109.0</ele><time>2026-04-26T14:32:58.003Z</time></trkpt><trkpt lat="45.18185536968496" lon="8.472863498890389"><ele>109.0</ele><time>2026-04-26T14:32:59.003Z</time></trkpt><trkpt lat="45.181690530606446" lon="8.472834522150501"><ele>109.0</ele><time>2026-04-26T14:33:00.003Z</time></trkpt><trkpt lat="45.18153775207676" lon="8.4727978652887"><ele>109.0</ele><time>2026-04-26T14:33:01.003Z</time></trkpt><trkpt lat="45.181400432400224" lon="8.472753176070627"><ele>109.0</ele><time>2026-04-26T14:33:02.003Z</time></trkpt><trkpt lat="45.181279758197505" lon="8.472699248394358"><ele>109.0</ele><time>2026-04-26T14:33:03.003Z</time></trkpt><trkpt lat="45.18117489304143" lon="8.472632271020236"><ele>108.6</ele><time>2026-04-26T14:33:04.003Z</time></trkpt><trkpt lat="45.18108116002012" lon="8.472559358912568"><ele>108.2</ele><time>2026-04-26T14:33:05.003Z</time></trkpt><trkpt lat="45.1810014855653" lon="8.472486926454252"><ele>107.79999999999998</ele><time>2026-04-26T14:33:06.003Z</time></trkpt><trkpt lat="45.18089962193888" lon="8.472511217438699"><ele>107.39999999999999</ele><time>2026-04-26T14:33:07.003Z</time></trkpt><trkpt lat="45.18080640733124" lon="8.472543315433093"><ele>107.0</ele><time>2026-04-26T14:33:08.003Z</time></trkpt><trkpt lat="45.180696993670175" lon="8.472576327141653"><ele>107.25</ele><time>2026-04-26T14:33:09.003Z</time></trkpt><trkpt lat="45.1805685911016" lon="8.472585973878292"><ele>107.5</ele><time>2026-04-26T14:33:10.003Z</time></trkpt><trkpt lat="45.18042830795279" lon="8.472568294059226"><ele>107.75</ele><time>2026-04-26T14:33:11.003Z</time></trkpt><trkpt lat="45.18027494505784" lon="8.472535162729413"><ele>108.0</ele><time>2026-04-26T14:33:12.003Z</time></trkpt><trkpt lat="45.1801109868699" lon="8.472501576826033"><ele>108.0</ele><time>2026-04-26T14:33:13.003Z</time></trkpt><trkpt lat="45.17993641526154" lon="8.472467861968951"><ele>108.0</ele><time>2026-04-26T14:33:14.003Z</time></trkpt><trkpt lat="45.1797514685397" lon="8.472433931504277"><ele>108.0</ele><time>2026-04-26T14:33:15.003Z</time></trkpt><trkpt lat="45.17956169461635" lon="8.472397100110118"><ele>108.66666666666666</ele><time>2026-04-26T14:33:16.003Z</time></trkpt><trkpt lat="45.17937690093298" lon="8.472359441408"><ele>109.33333333333333</ele><time>2026-04-26T14:33:17.003Z</time></trkpt><trkpt lat="45.1792011912487" lon="8.472326097321652"><ele>110.0</ele><time>2026-04-26T14:33:18.003Z</time></trkpt><trkpt lat="45.17902198875943" lon="8.472295038778405"><ele>109.66666666666666</ele><time>2026-04-26T14:33:19.003Z</time></trkpt><trkpt lat="45.17883821648676" lon="8.472264152755935"><ele>109.33333333333334</ele><time>2026-04-26T14:33:20.003Z</time></trkpt><trkpt lat="45.17865100130863" lon="8.472230255215413"><ele>109.0</ele><time>2026-04-26T14:33:21.003Z</time></trkpt><trkpt lat="45.17846211219979" lon="8.472198172243612"><ele>109.0</ele><time>2026-04-26T14:33:22.003Z</time></trkpt><trkpt lat="45.17826781559283" lon="8.47216369675626"><ele>109.0</ele><time>2026-04-26T14:33:23.003Z</time></trkpt><trkpt lat="45.17806933338958" lon="8.472125471186272"><ele>109.0</ele><time>2026-04-26T14:33:24.003Z</time></trkpt><trkpt lat="45.177866813064966" lon="8.472084850724961"><ele>109.0</ele><time>2026-04-26T14:33:25.003Z</time></trkpt><trkpt lat="45.177658900053764" lon="8.472041915759096"><ele>109.0</ele><time>2026-04-26T14:33:26.003Z</time></trkpt><trkpt lat="45.17744771807871" lon="8.472002501119158"><ele>109.0</ele><time>2026-04-26T14:33:27.003Z</time></trkpt><trkpt lat="45.177246446381055" lon="8.47196344587248"><ele>108.66666666666667</ele><time>2026-04-26T14:33:28.003Z</time></trkpt><trkpt lat="45.17705132899878" lon="8.471927655258126"><ele>108.33333333333334</ele><time>2026-04-26T14:33:29.003Z</time></trkpt><trkpt lat="45.176853027658666" lon="8.471891479144205"><ele>108.0</ele><time>2026-04-26T14:33:30.003Z</time></trkpt><trkpt lat="45.17665382818502" lon="8.471851362134322"><ele>107.66666666666666</ele><time>2026-04-26T14:33:31.003Z</time></trkpt><trkpt lat="45.17645458202433" lon="8.471812306928001"><ele>107.33333333333333</ele><time>2026-04-26T14:33:32.003Z</time></trkpt><trkpt lat="45.176252912521484" lon="8.471770119924004"><ele>107.0</ele><time>2026-04-26T14:33:33.003Z</time></trkpt><trkpt lat="45.176051778520076" lon="8.471728204324124"><ele>107.0</ele><time>2026-04-26T14:33:34.003Z</time></trkpt><trkpt lat="45.17585134814334" lon="8.471688541630497"><ele>107.0</ele><time>2026-04-26T14:33:35.003Z</time></trkpt><trkpt lat="45.17565771469428" lon="8.471652278543166"><ele>107.0</ele><time>2026-04-26T14:33:36.003Z</time></trkpt><trkpt lat="45.17546633734033" lon="8.471616735530745"><ele>107.33333333333333</ele><time>2026-04-26T14:33:37.003Z</time></trkpt><trkpt lat="45.17527672794267" lon="8.471577522989204"><ele>107.66666666666666</ele><time>2026-04-26T14:33:38.003Z</time></trkpt><trkpt lat="45.17508642975995" lon="8.471539426270096"><ele>108.0</ele><time>2026-04-26T14:33:39.003Z</time></trkpt><trkpt lat="45.17489516260645" lon="8.471503198796555"><ele>108.33333333333334</ele><time>2026-04-26T14:33:40.003Z</time></trkpt><trkpt lat="45.17470216685021" lon="8.471468183575068"><ele>108.66666666666667</ele><time>2026-04-26T14:33:41.003Z</time></trkpt><trkpt lat="45.174510005498135" lon="8.471432802373592"><ele>109.0</ele><time>2026-04-26T14:33:42.003Z</time></trkpt><trkpt lat="45.17431731617323" lon="8.47139587607724"><ele>109.0</ele><time>2026-04-26T14:33:43.003Z</time></trkpt><trkpt lat="45.17412275206862" lon="8.471359817303682"><ele>109.0</ele><time>2026-04-26T14:33:44.003Z</time></trkpt><trkpt lat="45.173927891137716" lon="8.471324115983373"><ele>109.0</ele><time>2026-04-26T14:33:45.003Z</time></trkpt><trkpt lat="45.17373520318021" lon="8.471287079965569"><ele>109.0</ele><time>2026-04-26T14:33:46.003Z</time></trkpt><trkpt lat="45.17354372706522" lon="8.47124986817507"><ele>109.0</ele><time>2026-04-26T14:33:47.003Z</time></trkpt><trkpt lat="45.17335443049323" lon="8.471214752366974"><ele>109.0</ele><time>2026-04-26T14:33:48.003Z</time></trkpt><trkpt lat="45.17316919116321" lon="8.471176911777738"><ele>109.0</ele><time>2026-04-26T14:33:49.003Z</time></trkpt><trkpt lat="45.17298637757431" lon="8.471134855738402"><ele>109.0</ele><time>2026-04-26T14:33:50.003Z</time></trkpt><trkpt lat="45.172803988925146" lon="8.471080003567018"><ele>109.0</ele><time>2026-04-26T14:33:51.003Z</time></trkpt><trkpt lat="45.17262106925759" lon="8.471008397646203"><ele>109.0</ele><time>2026-04-26T14:33:52.003Z</time></trkpt><trkpt lat="45.17243963822443" lon="8.470918852731353"><ele>109.0</ele><time>2026-04-26T14:33:53.003Z</time></trkpt><trkpt lat="45.172258869424496" lon="8.470815215479025"><ele>109.0</ele><time>2026-04-26T14:33:54.003Z</time></trkpt><trkpt lat="45.17208261154409" lon="8.470694778482963"><ele>109.0</ele><time>2026-04-26T14:33:55.003Z</time></trkpt><trkpt lat="45.171912648175145" lon="8.470555474220843"><ele>109.0</ele><time>2026-04-26T14:33:56.003Z</time></trkpt><trkpt lat="45.171750625354484" lon="8.470401924329977"><ele>109.0</ele><time>2026-04-26T14:33:57.003Z</time></trkpt><trkpt lat="45.17160506543652" lon="8.470225593731445"><ele>108.33333333333334</ele><time>2026-04-26T14:33:58.003Z</time></trkpt><trkpt lat="45.17146404458925" lon="8.470039754104263"><ele>107.66666666666666</ele><time>2026-04-26T14:33:59.003Z</time></trkpt><trkpt lat="45.17132791898041" lon="8.46984651279511"><ele>107.0</ele><time>2026-04-26T14:34:00.003Z</time></trkpt><trkpt lat="45.171196894619044" lon="8.469648649224629"><ele>107.0</ele><time>2026-04-26T14:34:01.003Z</time></trkpt><trkpt lat="45.1710655087491" lon="8.469448831364481"><ele>107.0</ele><time>2026-04-26T14:34:02.003Z</time></trkpt><trkpt lat="45.17093427914375" lon="8.469249766310291"><ele>107.0</ele><time>2026-04-26T14:34:03.003Z</time></trkpt><trkpt lat="45.17080305516701" lon="8.469052058725657"><ele>107.66666666666666</ele><time>2026-04-26T14:34:04.003Z</time></trkpt><trkpt lat="45.17067293637779" lon="8.468854459910084"><ele>108.33333333333334</ele><time>2026-04-26T14:34:05.003Z</time></trkpt><trkpt lat="45.1705415567484" lon="8.468657721246156"><ele>109.0</ele><time>2026-04-26T14:34:06.003Z</time></trkpt><trkpt lat="45.170409436991015" lon="8.46845821406239"><ele>109.33333333333334</ele><time>2026-04-26T14:34:07.003Z</time></trkpt><trkpt lat="45.17027643005989" lon="8.468258340271104"><ele>109.66666666666666</ele><time>2026-04-26T14:34:08.003Z</time></trkpt><trkpt lat="45.17014286265127" lon="8.468057734513392"><ele>110.0</ele><time>2026-04-26T14:34:09.003Z</time></trkpt><trkpt lat="45.1700081461109" lon="8.467852612587347"><ele>110.0</ele><time>2026-04-26T14:34:10.003Z</time></trkpt><trkpt lat="45.16987231177709" lon="8.467645262464679"><ele>110.0</ele><time>2026-04-26T14:34:11.003Z</time></trkpt><trkpt lat="45.169736325407946" lon="8.467436621302754"><ele>110.0</ele><time>2026-04-26T14:34:12.003Z</time></trkpt><trkpt lat="45.169596124653154" lon="8.46722688531901"><ele>110.0</ele><time>2026-04-26T14:34:13.003Z</time></trkpt><trkpt lat="45.16945526819005" lon="8.467015598654367"><ele>110.0</ele><time>2026-04-26T14:34:14.004Z</time></trkpt><trkpt lat="45.16931560844985" lon="8.466801675019262"><ele>110.0</ele><time>2026-04-26T14:34:15.005Z</time></trkpt><trkpt lat="45.16917478505546" lon="8.46658618396743"><ele>110.0</ele><time>2026-04-26T14:34:16.005Z</time></trkpt><trkpt lat="45.16903600140788" lon="8.466379705449384"><ele>110.0</ele><time>2026-04-26T14:34:17.004Z</time></trkpt><trkpt lat="45.16890455551735" lon="8.466182738997972"><ele>110.0</ele><time>2026-04-26T14:34:18.004Z</time></trkpt><trkpt lat="45.168773535257685" lon="8.465988892589744"><ele>110.33333333333333</ele><time>2026-04-26T14:34:19.004Z</time></trkpt><trkpt lat="45.16865634042816" lon="8.465780919710705"><ele>110.66666666666666</ele><time>2026-04-26T14:34:20.004Z</time></trkpt><trkpt lat="45.16852398712337" lon="8.46561327009443"><ele>111.0</ele><time>2026-04-26T14:34:21.004Z</time></trkpt><trkpt lat="45.16842579407962" lon="8.465424059780155"><ele>111.0</ele><time>2026-04-26T14:34:22.004Z</time></trkpt><trkpt lat="45.16832256447988" lon="8.465269126962347"><ele>111.0</ele><time>2026-04-26T14:34:23.004Z</time></trkpt><trkpt lat="45.168227532668276" lon="8.46512312429273"><ele>111.0</ele><time>2026-04-26T14:34:24.004Z</time></trkpt><trkpt lat="45.168145167757125" lon="8.4649968210413"><ele>111.0</ele><time>2026-04-26T14:34:25.004Z</time></trkpt><trkpt lat="45.1680691700962" lon="8.464880032228484"><ele>110.83333333333333</ele><time>2026-04-26T14:34:26.004Z</time></trkpt><trkpt lat="45.16800706676897" lon="8.464775417377242"><ele>110.66666666666666</ele><time>2026-04-26T14:34:27.004Z</time></trkpt><trkpt lat="45.167955830990415" lon="8.464680606155484"><ele>110.5</ele><time>2026-04-26T14:34:28.004Z</time></trkpt><trkpt lat="45.16791559094614" lon="8.464583843388604"><ele>110.33333333333333</ele><time>2026-04-26T14:34:29.004Z</time></trkpt><trkpt lat="45.1678889834977" lon="8.464487040273246"><ele>110.16666666666666</ele><time>2026-04-26T14:34:30.004Z</time></trkpt><trkpt lat="45.16786686243555" lon="8.464393929271528"><ele>110.0</ele><time>2026-04-26T14:34:31.004Z</time></trkpt><trkpt lat="45.167826112677766" lon="8.46430819238411"><ele>109.6</ele><time>2026-04-26T14:34:32.004Z</time></trkpt><trkpt lat="45.16776621817381" lon="8.46422695532895"><ele>109.2</ele><time>2026-04-26T14:34:33.004Z</time></trkpt><trkpt lat="45.16769042431637" lon="8.464161376583782"><ele>108.80000000000001</ele><time>2026-04-26T14:34:34.004Z</time></trkpt><trkpt lat="45.16760559214828" lon="8.464097570839153"><ele>108.4</ele><time>2026-04-26T14:34:35.004Z</time></trkpt><trkpt lat="45.16752150853935" lon="8.46401624644253"><ele>108.0</ele><time>2026-04-26T14:34:36.004Z</time></trkpt><trkpt lat="45.16743936381475" lon="8.463913752005306"><ele>109.0</ele><time>2026-04-26T14:34:37.004Z</time></trkpt><trkpt lat="45.167355022842656" lon="8.463797735723086"><ele>110.0</ele><time>2026-04-26T14:34:38.004Z</time></trkpt><trkpt lat="45.16726815765685" lon="8.463666720233665"><ele>111.0</ele><time>2026-04-26T14:34:39.004Z</time></trkpt><trkpt lat="45.167177987709266" lon="8.463524972959544"><ele>112.0</ele><time>2026-04-26T14:34:40.004Z</time></trkpt><trkpt lat="45.16708253233482" lon="8.46337218355749"><ele>112.0</ele><time>2026-04-26T14:34:41.004Z</time></trkpt><trkpt lat="45.16698075764432" lon="8.463215683222447"><ele>112.0</ele><time>2026-04-26T14:34:42.004Z</time></trkpt><trkpt lat="45.16687174435636" lon="8.46305640895618"><ele>112.0</ele><time>2026-04-26T14:34:43.004Z</time></trkpt><trkpt lat="45.16675761191443" lon="8.462892997237905"><ele>111.33333333333334</ele><time>2026-04-26T14:34:44.004Z</time></trkpt><trkpt lat="45.16663385961935" lon="8.462734352329647"><ele>110.66666666666666</ele><time>2026-04-26T14:34:45.004Z</time></trkpt><trkpt lat="45.16650039688403" lon="8.46259303574437"><ele>110.0</ele><time>2026-04-26T14:34:46.004Z</time></trkpt><trkpt lat="45.166361742844956" lon="8.462473969710906"><ele>110.0</ele><time>2026-04-26T14:34:47.004Z</time></trkpt><trkpt lat="45.16621878059655" lon="8.462368347568216"><ele>110.0</ele><time>2026-04-26T14:34:48.004Z</time></trkpt><trkpt lat="45.166064477163495" lon="8.462259856171842"><ele>110.0</ele><time>2026-04-26T14:34:49.004Z</time></trkpt><trkpt lat="45.16590432143565" lon="8.462139098067292"><ele>109.66666666666666</ele><time>2026-04-26T14:34:50.004Z</time></trkpt><trkpt lat="45.16573138234502" lon="8.462027349357427"><ele>109.33333333333334</ele><time>2026-04-26T14:34:51.004Z</time></trkpt><trkpt lat="45.16554568423711" lon="8.461917243103045"><ele>109.0</ele><time>2026-04-26T14:34:52.004Z</time></trkpt><trkpt lat="45.16534932301222" lon="8.461797195179646"><ele>109.0</ele><time>2026-04-26T14:34:53.004Z</time></trkpt><trkpt lat="45.165146436575895" lon="8.461660835190065"><ele>109.0</ele><time>2026-04-26T14:34:54.004Z</time></trkpt><trkpt lat="45.16493662126523" lon="8.46150979692965"><ele>108.5</ele><time>2026-04-26T14:34:55.004Z</time></trkpt><trkpt lat="45.164721339507324" lon="8.461352536933743"><ele>108.0</ele><time>2026-04-26T14:34:56.004Z</time></trkpt><trkpt lat="45.164512084617776" lon="8.461210538533928"><ele>108.0</ele><time>2026-04-26T14:34:57.004Z</time></trkpt><trkpt lat="45.16430990476471" lon="8.461076415556201"><ele>108.0</ele><time>2026-04-26T14:34:58.004Z</time></trkpt><trkpt lat="45.164109551392016" lon="8.460944705622564"><ele>108.0</ele><time>2026-04-26T14:34:59.004Z</time></trkpt><trkpt lat="45.163910952674826" lon="8.46081367733297"><ele>108.0</ele><time>2026-04-26T14:35:00.004Z</time></trkpt><trkpt lat="45.16371206294878" lon="8.46068239329372"><ele>108.0</ele><time>2026-04-26T14:35:01.004Z</time></trkpt><trkpt lat="45.163513319200646" lon="8.46055092320857"><ele>108.0</ele><time>2026-04-26T14:35:02.004Z</time></trkpt><trkpt lat="45.16331540661229" lon="8.460421105681723"><ele>107.66666666666666</ele><time>2026-04-26T14:35:03.004Z</time></trkpt><trkpt lat="45.16311864901102" lon="8.460293217859713"><ele>107.33333333333333</ele><time>2026-04-26T14:35:04.004Z</time></trkpt><trkpt lat="45.162922374962086" lon="8.460168160139204"><ele>107.0</ele><time>2026-04-26T14:35:05.004Z</time></trkpt><trkpt lat="45.16272795220098" lon="8.460044195317984"><ele>107.0</ele><time>2026-04-26T14:35:06.004Z</time></trkpt><trkpt lat="45.16253683622024" lon="8.459919466780804"><ele>107.0</ele><time>2026-04-26T14:35:07.004Z</time></trkpt><trkpt lat="45.16235148509454" lon="8.459796974635314"><ele>107.0</ele><time>2026-04-26T14:35:08.004Z</time></trkpt><trkpt lat="45.16217343353987" lon="8.459673575429239"><ele>108.0</ele><time>2026-04-26T14:35:09.004Z</time></trkpt><trkpt lat="45.161999620049" lon="8.459552645193762"><ele>109.0</ele><time>2026-04-26T14:35:10.004Z</time></trkpt><trkpt lat="45.161832674877665" lon="8.459435733918367"><ele>110.0</ele><time>2026-04-26T14:35:11.004Z</time></trkpt><trkpt lat="45.16166830317665" lon="8.459326627591299"><ele>110.0</ele><time>2026-04-26T14:35:12.004Z</time></trkpt><trkpt lat="45.16150114200631" lon="8.459227600616776"><ele>110.0</ele><time>2026-04-26T14:35:13.004Z</time></trkpt><trkpt lat="45.161332389377804" lon="8.459123080468517"><ele>110.0</ele><time>2026-04-26T14:35:14.004Z</time></trkpt><trkpt lat="45.16117022040381" lon="8.458995229184028"><ele>110.0</ele><time>2026-04-26T14:35:15.004Z</time></trkpt><trkpt lat="45.16099976567351" lon="8.458885302070602"><ele>110.0</ele><time>2026-04-26T14:35:16.004Z</time></trkpt><trkpt lat="45.160827148195246" lon="8.458775308851921"><ele>110.0</ele><time>2026-04-26T14:35:17.004Z</time></trkpt><trkpt lat="45.16065145894905" lon="8.458659989476004"><ele>109.66666666666666</ele><time>2026-04-26T14:35:18.004Z</time></trkpt><trkpt lat="45.16048266788642" lon="8.458547809080924"><ele>109.33333333333334</ele><time>2026-04-26T14:35:19.004Z</time></trkpt><trkpt lat="45.16031980392271" lon="8.458446908031751"><ele>109.0</ele><time>2026-04-26T14:35:20.004Z</time></trkpt><trkpt lat="45.16016197541037" lon="8.458348544716644"><ele>109.0</ele><time>2026-04-26T14:35:21.004Z</time></trkpt><trkpt lat="45.16001086454109" lon="8.458252562670285"><ele>109.0</ele><time>2026-04-26T14:35:22.004Z</time></trkpt><trkpt lat="45.15986431982526" lon="8.458157490225947"><ele>109.0</ele><time>2026-04-26T14:35:23.004Z</time></trkpt><trkpt lat="45.15971984049809" lon="8.458064630056016"><ele>109.0</ele><time>2026-04-26T14:35:24.004Z</time></trkpt><trkpt lat="45.1595802219362" lon="8.457968390451036"><ele>109.0</ele><time>2026-04-26T14:35:25.004Z</time></trkpt><trkpt lat="45.15944177335451" lon="8.457874164376408"><ele>109.0</ele><time>2026-04-26T14:35:26.004Z</time></trkpt><trkpt lat="45.159310336417796" lon="8.457787300529636"><ele>109.0</ele><time>2026-04-26T14:35:27.004Z</time></trkpt><trkpt lat="45.15918967209302" lon="8.457700591882755"><ele>109.0</ele><time>2026-04-26T14:35:28.004Z</time></trkpt><trkpt lat="45.15907886479971" lon="8.457614273016185"><ele>109.0</ele><time>2026-04-26T14:35:29.004Z</time></trkpt><trkpt lat="45.1589787486043" lon="8.45752945523131"><ele>109.0</ele><time>2026-04-26T14:35:30.004Z</time></trkpt><trkpt lat="45.15888473298619" lon="8.457450264518792"><ele>109.4</ele><time>2026-04-26T14:35:31.004Z</time></trkpt><trkpt lat="45.15879172596515" lon="8.45736380862985"><ele>109.80000000000001</ele><time>2026-04-26T14:35:32.004Z</time></trkpt><trkpt lat="45.15869888405094" lon="8.457270261366224"><ele>110.19999999999999</ele><time>2026-04-26T14:35:33.004Z</time></trkpt><trkpt lat="45.15860950899423" lon="8.45719662293106"><ele>110.6</ele><time>2026-04-26T14:35:34.004Z</time></trkpt><trkpt lat="45.158522587040835" lon="8.457143946562386"><ele>111.0</ele><time>2026-04-26T14:35:35.004Z</time></trkpt><trkpt lat="45.158433591275674" lon="8.457107017028951"><ele>111.0</ele><time>2026-04-26T14:35:36.004Z</time></trkpt><trkpt lat="45.15833306119951" lon="8.457077679577738"><ele>111.0</ele><time>2026-04-26T14:35:37.004Z</time></trkpt><trkpt lat="45.158221575238386" lon="8.457043649240598"><ele>111.0</ele><time>2026-04-26T14:35:38.004Z</time></trkpt><trkpt lat="45.15810240816295" lon="8.456989311754484"><ele>111.0</ele><time>2026-04-26T14:35:39.004Z</time></trkpt><trkpt lat="45.1579792101967" lon="8.456917110402449"><ele>111.0</ele><time>2026-04-26T14:35:40.004Z</time></trkpt><trkpt lat="45.15784610777098" lon="8.456832370309032"><ele>111.0</ele><time>2026-04-26T14:35:41.004Z</time></trkpt><trkpt lat="45.157702561938414" lon="8.4567417345962"><ele>111.0</ele><time>2026-04-26T14:35:42.004Z</time></trkpt><trkpt lat="45.15753814484386" lon="8.456638215825762"><ele>110.33333333333334</ele><time>2026-04-26T14:35:43.004Z</time></trkpt><trkpt lat="45.15735874305221" lon="8.456528034982266"><ele>109.66666666666667</ele><time>2026-04-26T14:35:44.004Z</time></trkpt><trkpt lat="45.15717165046231" lon="8.45640349781341"><ele>109.0</ele><time>2026-04-26T14:35:45.004Z</time></trkpt><trkpt lat="45.15699625984898" lon="8.456278299853878"><ele>108.66666666666667</ele><time>2026-04-26T14:35:46.004Z</time></trkpt><trkpt lat="45.15682189610604" lon="8.456156031994604"><ele>108.33333333333334</ele><time>2026-04-26T14:35:47.004Z</time></trkpt><trkpt lat="45.15663825372803" lon="8.45603465411875"><ele>108.0</ele><time>2026-04-26T14:35:48.004Z</time></trkpt><trkpt lat="45.15644726377813" lon="8.455905943760683"><ele>109.0</ele><time>2026-04-26T14:35:49.004Z</time></trkpt><trkpt lat="45.156266862406426" lon="8.455787732031409"><ele>110.0</ele><time>2026-04-26T14:35:50.004Z</time></trkpt><trkpt lat="45.15608683413015" lon="8.455670608503159"><ele>111.0</ele><time>2026-04-26T14:35:51.004Z</time></trkpt><trkpt lat="45.15590582387273" lon="8.45555329627232"><ele>111.0</ele><time>2026-04-26T14:35:52.004Z</time></trkpt><trkpt lat="45.1557243919215" lon="8.4554339408065"><ele>111.0</ele><time>2026-04-26T14:35:53.004Z</time></trkpt><trkpt lat="45.15554171796879" lon="8.45531535525174"><ele>111.0</ele><time>2026-04-26T14:35:54.004Z</time></trkpt><trkpt lat="45.15535951628151" lon="8.4551962018597"><ele>111.0</ele><time>2026-04-26T14:35:55.004Z</time></trkpt><trkpt lat="45.155178767539105" lon="8.455076885028728"><ele>111.0</ele><time>2026-04-26T14:35:56.004Z</time></trkpt><trkpt lat="45.154997496739774" lon="8.45495556961877"><ele>111.0</ele><time>2026-04-26T14:35:57.004Z</time></trkpt><trkpt lat="45.15481734431433" lon="8.45483324588823"><ele>111.0</ele><time>2026-04-26T14:35:58.004Z</time></trkpt><trkpt lat="45.154641243387076" lon="8.454712608127608"><ele>111.0</ele><time>2026-04-26T14:35:59.004Z</time></trkpt><trkpt lat="45.154475027784954" lon="8.454605145024733"><ele>111.0</ele><time>2026-04-26T14:36:00.004Z</time></trkpt><trkpt lat="45.154314712954545" lon="8.454501279287722"><ele>111.0</ele><time>2026-04-26T14:36:01.004Z</time></trkpt><trkpt lat="45.15415414686531" lon="8.454396049187094"><ele>111.0</ele><time>2026-04-26T14:36:02.004Z</time></trkpt><trkpt lat="45.15398728666516" lon="8.454284903402224"><ele>111.0</ele><time>2026-04-26T14:36:03.004Z</time></trkpt><trkpt lat="45.153819774149795" lon="8.454169364857284"><ele>111.0</ele><time>2026-04-26T14:36:04.004Z</time></trkpt><trkpt lat="45.1536370347497" lon="8.454056669784903"><ele>111.0</ele><time>2026-04-26T14:36:05.004Z</time></trkpt><trkpt lat="45.153443214007446" lon="8.453934189552578"><ele>111.0</ele><time>2026-04-26T14:36:06.004Z</time></trkpt><trkpt lat="45.15324274725534" lon="8.45379828560275"><ele>110.5</ele><time>2026-04-26T14:36:07.004Z</time></trkpt><trkpt lat="45.153040520929295" lon="8.453647217106731"><ele>110.0</ele><time>2026-04-26T14:36:08.004Z</time></trkpt><trkpt lat="45.15283167713687" lon="8.453497828507954"><ele>110.0</ele><time>2026-04-26T14:36:09.004Z</time></trkpt><trkpt lat="45.152620531887344" lon="8.453354475639959"><ele>110.0</ele><time>2026-04-26T14:36:10.004Z</time></trkpt><trkpt lat="45.15241590171014" lon="8.453216581960463"><ele>110.33333333333333</ele><time>2026-04-26T14:36:11.004Z</time></trkpt><trkpt lat="45.152224219215114" lon="8.453088002003877"><ele>110.66666666666666</ele><time>2026-04-26T14:36:12.004Z</time></trkpt><trkpt lat="45.15204259406695" lon="8.452970234173982"><ele>111.0</ele><time>2026-04-26T14:36:13.004Z</time></trkpt><trkpt lat="45.15186851843954" lon="8.452857188709396"><ele>110.33333333333334</ele><time>2026-04-26T14:36:14.004Z</time></trkpt><trkpt lat="45.15170455511021" lon="8.452750093626909"><ele>109.66666666666667</ele><time>2026-04-26T14:36:15.004Z</time></trkpt><trkpt lat="45.15155024357424" lon="8.452646454798975"><ele>109.0</ele><time>2026-04-26T14:36:16.004Z</time></trkpt><trkpt lat="45.1514031219709" lon="8.452550213542958"><ele>109.0</ele><time>2026-04-26T14:36:17.004Z</time></trkpt><trkpt lat="45.15126796587026" lon="8.452456173263624"><ele>109.0</ele><time>2026-04-26T14:36:18.004Z</time></trkpt><trkpt lat="45.15115650476026" lon="8.45237620821854"><ele>109.0</ele><time>2026-04-26T14:36:19.004Z</time></trkpt><trkpt lat="45.15105524947022" lon="8.452310089300246"><ele>109.0</ele><time>2026-04-26T14:36:20.004Z</time></trkpt><trkpt lat="45.15096419194452" lon="8.452256487486846"><ele>109.00000000000001</ele><time>2026-04-26T14:36:21.004Z</time></trkpt><trkpt lat="45.150888583672725" lon="8.452225220371165"><ele>109.0</ele><time>2026-04-26T14:36:22.004Z</time></trkpt><trkpt lat="45.15081980625456" lon="8.452202096914306"><ele>109.0</ele><time>2026-04-26T14:36:23.004Z</time></trkpt><trkpt lat="45.15074775229377" lon="8.452173985076662"><ele>109.0</ele><time>2026-04-26T14:36:24.004Z</time></trkpt><trkpt lat="45.15065883977889" lon="8.452137983796128"><ele>109.00000000000001</ele><time>2026-04-26T14:36:25.004Z</time></trkpt><trkpt lat="45.1505607048106" lon="8.45209861183908"><ele>109.0</ele><time>2026-04-26T14:36:26.004Z</time></trkpt><trkpt lat="45.15045905736686" lon="8.452056933143579"><ele>109.5</ele><time>2026-04-26T14:36:27.004Z</time></trkpt><trkpt lat="45.150352345617655" lon="8.452017003946136"><ele>110.0</ele><time>2026-04-26T14:36:28.004Z</time></trkpt><trkpt lat="45.150238495891195" lon="8.45194547432274"><ele>110.5</ele><time>2026-04-26T14:36:29.005Z</time></trkpt><trkpt lat="45.1501085726925" lon="8.451902669757606"><ele>111.0</ele><time>2026-04-26T14:36:30.005Z</time></trkpt><trkpt lat="45.149977450386395" lon="8.451861023624657"><ele>111.0</ele><time>2026-04-26T14:36:31.005Z</time></trkpt><trkpt lat="45.14985073546861" lon="8.451844675598137"><ele>111.0</ele><time>2026-04-26T14:36:32.004Z</time></trkpt><trkpt lat="45.14972081040603" lon="8.451778853204237"><ele>111.0</ele><time>2026-04-26T14:36:33.004Z</time></trkpt><trkpt lat="45.14957629762487" lon="8.451733549028413"><ele>111.0</ele><time>2026-04-26T14:36:34.004Z</time></trkpt><trkpt lat="45.149435140206315" lon="8.451687989036417"><ele>111.0</ele><time>2026-04-26T14:36:35.004Z</time></trkpt><trkpt lat="45.14929467103674" lon="8.451642188774354"><ele>111.0</ele><time>2026-04-26T14:36:36.004Z</time></trkpt><trkpt lat="45.149156134578604" lon="8.451598667596373"><ele>111.0</ele><time>2026-04-26T14:36:37.004Z</time></trkpt><trkpt lat="45.14902046412393" lon="8.45155302038729"><ele>111.0</ele><time>2026-04-26T14:36:38.004Z</time></trkpt><trkpt lat="45.14888443610726" lon="8.451508273026718"><ele>111.0</ele><time>2026-04-26T14:36:39.004Z</time></trkpt><trkpt lat="45.14874574648018" lon="8.451463940964405"><ele>111.0</ele><time>2026-04-26T14:36:40.004Z</time></trkpt><trkpt lat="45.14860914639205" lon="8.451421436686834"><ele>111.0</ele><time>2026-04-26T14:36:41.004Z</time></trkpt><trkpt lat="45.14846644410484" lon="8.45137459736151"><ele>111.0</ele><time>2026-04-26T14:36:42.004Z</time></trkpt><trkpt lat="45.14832515327711" lon="8.451332343799102"><ele>111.0</ele><time>2026-04-26T14:36:43.004Z</time></trkpt><trkpt lat="45.14819952787199" lon="8.451295801364045"><ele>111.0</ele><time>2026-04-26T14:36:44.004Z</time></trkpt><trkpt lat="45.14809210958464" lon="8.451261848636399"><ele>111.0</ele><time>2026-04-26T14:36:45.004Z</time></trkpt><trkpt lat="45.1479957332619" lon="8.451225918168863"><ele>111.0</ele><time>2026-04-26T14:36:46.004Z</time></trkpt><trkpt lat="45.14790153406014" lon="8.451192057812115"><ele>111.0</ele><time>2026-04-26T14:36:47.004Z</time></trkpt><trkpt lat="45.147806194945254" lon="8.451161234627456"><ele>111.0</ele><time>2026-04-26T14:36:48.004Z</time></trkpt><trkpt lat="45.1477063678631" lon="8.451132321535992"><ele>111.0</ele><time>2026-04-26T14:36:49.004Z</time></trkpt><trkpt lat="45.14761032541019" lon="8.451102586217058"><ele>111.0</ele><time>2026-04-26T14:36:50.004Z</time></trkpt><trkpt lat="45.14751858709975" lon="8.451052807508875"><ele>111.0</ele><time>2026-04-26T14:36:51.004Z</time></trkpt><trkpt lat="45.14741650454079" lon="8.45102034090455"><ele>111.0</ele><time>2026-04-26T14:36:52.004Z</time></trkpt><trkpt lat="45.147300793211144" lon="8.450990786082748"><ele>111.25</ele><time>2026-04-26T14:36:53.004Z</time></trkpt><trkpt lat="45.14717806050597" lon="8.450936294382052"><ele>111.5</ele><time>2026-04-26T14:36:54.004Z</time></trkpt><trkpt lat="45.14704058204104" lon="8.450891680548795"><ele>111.75</ele><time>2026-04-26T14:36:55.004Z</time></trkpt><trkpt lat="45.14689318783905" lon="8.450827429480736"><ele>112.0</ele><time>2026-04-26T14:36:56.004Z</time></trkpt><trkpt lat="45.146745875607174" lon="8.450760884816619"><ele>112.0</ele><time>2026-04-26T14:36:57.004Z</time></trkpt><trkpt lat="45.14659835721842" lon="8.45070444237367"><ele>112.0</ele><time>2026-04-26T14:36:58.004Z</time></trkpt><trkpt lat="45.14645033387927" lon="8.450659492527524"><ele>112.0</ele><time>2026-04-26T14:36:59.004Z</time></trkpt><trkpt lat="45.14630356044288" lon="8.45061431568113"><ele>112.0</ele><time>2026-04-26T14:37:00.004Z</time></trkpt><trkpt lat="45.14616561566317" lon="8.450574934936599"><ele>112.0</ele><time>2026-04-26T14:37:01.004Z</time></trkpt><trkpt lat="45.14603106361732" lon="8.450536179211758"><ele>112.0</ele><time>2026-04-26T14:37:02.004Z</time></trkpt><trkpt lat="45.14589491553043" lon="8.450492182191368"><ele>112.0</ele><time>2026-04-26T14:37:03.004Z</time></trkpt><trkpt lat="45.145758826833024" lon="8.450449248292957"><ele>112.0</ele><time>2026-04-26T14:37:04.004Z</time></trkpt><trkpt lat="45.14561989211355" lon="8.450404942103802"><ele>112.0</ele><time>2026-04-26T14:37:05.004Z</time></trkpt><trkpt lat="45.14548209084434" lon="8.450357687278748"><ele>112.0</ele><time>2026-04-26T14:37:06.004Z</time></trkpt><trkpt lat="45.14535166532835" lon="8.45031429794487"><ele>112.0</ele><time>2026-04-26T14:37:07.004Z</time></trkpt><trkpt lat="45.14522742137943" lon="8.450273153488876"><ele>112.0</ele><time>2026-04-26T14:37:08.004Z</time></trkpt><trkpt lat="45.14511223731652" lon="8.450221346463971"><ele>111.99999999999999</ele><time>2026-04-26T14:37:09.004Z</time></trkpt><trkpt lat="45.14500568541799" lon="8.450157696908287"><ele>111.99999999999999</ele><time>2026-04-26T14:37:10.004Z</time></trkpt><trkpt lat="45.144923692949746" lon="8.45009856507865"><ele>112.0</ele><time>2026-04-26T14:37:11.004Z</time></trkpt><trkpt lat="45.14486009085131" lon="8.450047812100246"><ele>112.0</ele><time>2026-04-26T14:37:12.004Z</time></trkpt><trkpt lat="45.14476801238278" lon="8.449963221170151"><ele>111.8</ele><time>2026-04-26T14:37:14.004Z</time></trkpt><trkpt lat="45.14469423777144" lon="8.449872725277595"><ele>111.6</ele><time>2026-04-26T14:37:16.004Z</time></trkpt><trkpt lat="45.14460740887806" lon="8.449734209576114"><ele>111.39999999999999</ele><time>2026-04-26T14:37:18.004Z</time></trkpt><trkpt lat="45.14456324593737" lon="8.449654163363459"><ele>111.19999999999999</ele><time>2026-04-26T14:37:19.004Z</time></trkpt><trkpt lat="45.14453313033116" lon="8.449554050177397"><ele>111.0</ele><time>2026-04-26T14:37:20.004Z</time></trkpt><trkpt lat="45.144492361154974" lon="8.449460274795793"><ele>111.33333333333333</ele><time>2026-04-26T14:37:21.004Z</time></trkpt><trkpt lat="45.144452510048694" lon="8.449366097800699"><ele>111.66666666666666</ele><time>2026-04-26T14:37:22.004Z</time></trkpt><trkpt lat="45.14440937032012" lon="8.449264756234236"><ele>112.0</ele><time>2026-04-26T14:37:23.004Z</time></trkpt><trkpt lat="45.14436339220799" lon="8.449159860539135"><ele>112.33333333333333</ele><time>2026-04-26T14:37:24.004Z</time></trkpt><trkpt lat="45.144314383153585" lon="8.449048049971305"><ele>112.66666666666666</ele><time>2026-04-26T14:37:25.004Z</time></trkpt><trkpt lat="45.144264903976925" lon="8.448935166855955"><ele>113.0</ele><time>2026-04-26T14:37:26.004Z</time></trkpt><trkpt lat="45.14421252528671" lon="8.448815668711246"><ele>112.80000000000001</ele><time>2026-04-26T14:37:27.004Z</time></trkpt><trkpt lat="45.14415768083669" lon="8.448690198476811"><ele>112.60000000000001</ele><time>2026-04-26T14:37:28.004Z</time></trkpt><trkpt lat="45.14409070785732" lon="8.448577599344329"><ele>112.39999999999999</ele><time>2026-04-26T14:37:29.004Z</time></trkpt><trkpt lat="45.14404867812894" lon="8.448452032814625"><ele>112.19999999999999</ele><time>2026-04-26T14:37:30.004Z</time></trkpt><trkpt lat="45.14400046627112" lon="8.448335612688401"><ele>112.0</ele><time>2026-04-26T14:37:31.004Z</time></trkpt><trkpt lat="45.14394984432201" lon="8.44822476243198"><ele>112.00000000000001</ele><time>2026-04-26T14:37:32.004Z</time></trkpt><trkpt lat="45.14389774094902" lon="8.448116827464863"><ele>112.0</ele><time>2026-04-26T14:37:33.004Z</time></trkpt><trkpt lat="45.143841773969314" lon="8.448017457855059"><ele>112.0</ele><time>2026-04-26T14:37:34.004Z</time></trkpt><trkpt lat="45.14380279319223" lon="8.44790893095708"><ele>112.0</ele><time>2026-04-26T14:37:35.004Z</time></trkpt><trkpt lat="45.14372488933201" lon="8.447849436457453"><ele>112.00000000000001</ele><time>2026-04-26T14:37:36.004Z</time></trkpt><trkpt lat="45.14366676298617" lon="8.447749882071646"><ele>112.0</ele><time>2026-04-26T14:37:37.004Z</time></trkpt><trkpt lat="45.14359880373174" lon="8.447668735326996"><ele>112.33333333333334</ele><time>2026-04-26T14:37:38.004Z</time></trkpt><trkpt lat="45.143533299374624" lon="8.447590519848665"><ele>112.66666666666667</ele><time>2026-04-26T14:37:39.004Z</time></trkpt><trkpt lat="45.14347066659411" lon="8.447515733175816"><ele>113.0</ele><time>2026-04-26T14:37:40.004Z</time></trkpt><trkpt lat="45.14341562694808" lon="8.447450013084353"><ele>113.33333333333334</ele><time>2026-04-26T14:37:41.004Z</time></trkpt><trkpt lat="45.143322938980035" lon="8.447339444942934"><ele>113.66666666666667</ele><time>2026-04-26T14:37:43.004Z</time></trkpt><trkpt lat="45.1432684146888" lon="8.44726526414084"><ele>114.0</ele><time>2026-04-26T14:37:45.004Z</time></trkpt><trkpt lat="45.14324209101477" lon="8.44718144079313"><ele>114.0</ele><time>2026-04-26T14:37:48.004Z</time></trkpt><trkpt lat="45.14322367393942" lon="8.447046786728752"><ele>114.0</ele><time>2026-04-26T14:37:50.004Z</time></trkpt><trkpt lat="45.14323006448012" lon="8.446957899933118"><ele>114.0</ele><time>2026-04-26T14:37:51.004Z</time></trkpt><trkpt lat="45.14321026181996" lon="8.446776465561241"><ele>114.0</ele><time>2026-04-26T14:37:53.004Z</time></trkpt><trkpt lat="45.14315977087702" lon="8.446710418622754"><ele>114.0</ele><time>2026-04-26T14:37:54.004Z</time></trkpt><trkpt lat="45.14300488780331" lon="8.446718865870107"><ele>114.0</ele><time>2026-04-26T14:37:56.004Z</time></trkpt><trkpt lat="45.142957494972286" lon="8.446806166272458"><ele>114.0</ele><time>2026-04-26T14:37:57.004Z</time></trkpt><trkpt lat="45.14290659495526" lon="8.446880088760917"><ele>114.0</ele><time>2026-04-26T14:37:58.004Z</time></trkpt><trkpt lat="45.14284779871786" lon="8.446951452531192"><ele>114.0</ele><time>2026-04-26T14:37:59.004Z</time></trkpt><trkpt lat="45.14277577173143" lon="8.447014839596957"><ele>114.0</ele><time>2026-04-26T14:38:00.004Z</time></trkpt><trkpt lat="45.142692660969246" lon="8.447074926073872"><ele>114.0</ele><time>2026-04-26T14:38:01.004Z</time></trkpt><trkpt lat="45.14260263139129" lon="8.447128614207205"><ele>113.0</ele><time>2026-04-26T14:38:02.004Z</time></trkpt><trkpt lat="45.14250604383066" lon="8.44717749769701"><ele>112.0</ele><time>2026-04-26T14:38:03.004Z</time></trkpt><trkpt lat="45.14240782146925" lon="8.447228724845486"><ele>111.0</ele><time>2026-04-26T14:38:04.004Z</time></trkpt><trkpt lat="45.142309724959425" lon="8.447279587588133"><ele>110.0</ele><time>2026-04-26T14:38:05.004Z</time></trkpt><trkpt lat="45.142209978054815" lon="8.447328764117554"><ele>109.0</ele><time>2026-04-26T14:38:06.004Z</time></trkpt><trkpt lat="45.14211071189423" lon="8.447382444643331"><ele>108.6</ele><time>2026-04-26T14:38:07.004Z</time></trkpt><trkpt lat="45.142012449507156" lon="8.447441283279863"><ele>108.2</ele><time>2026-04-26T14:38:08.004Z</time></trkpt><trkpt lat="45.14191443235743" lon="8.447498855346453"><ele>107.79999999999998</ele><time>2026-04-26T14:38:09.004Z</time></trkpt><trkpt lat="45.14181637262762" lon="8.447555121550376"><ele>107.39999999999999</ele><time>2026-04-26T14:38:10.004Z</time></trkpt><trkpt lat="45.14172228523638" lon="8.447609590034734"><ele>107.0</ele><time>2026-04-26T14:38:11.004Z</time></trkpt><trkpt lat="45.141632426746604" lon="8.447660013047456"><ele>107.99999999999999</ele><time>2026-04-26T14:38:12.004Z</time></trkpt><trkpt lat="45.14154477489496" lon="8.447705762900286"><ele>109.0</ele><time>2026-04-26T14:38:13.004Z</time></trkpt><trkpt lat="45.141459887626574" lon="8.447748638391019"><ele>110.0</ele><time>2026-04-26T14:38:14.004Z</time></trkpt><trkpt lat="45.14138005502922" lon="8.447793505128814"><ele>111.0</ele><time>2026-04-26T14:38:15.004Z</time></trkpt><trkpt lat="45.14130270245163" lon="8.44783899173191"><ele>111.99999999999999</ele><time>2026-04-26T14:38:16.004Z</time></trkpt><trkpt lat="45.14122650826164" lon="8.447884940538858"><ele>113.0</ele><time>2026-04-26T14:38:17.004Z</time></trkpt><trkpt lat="45.141151930622584" lon="8.447934075221735"><ele>113.80000000000001</ele><time>2026-04-26T14:38:18.004Z</time></trkpt><trkpt lat="45.14107954257309" lon="8.447977183342408"><ele>114.60000000000001</ele><time>2026-04-26T14:38:19.004Z</time></trkpt><trkpt lat="45.141009157219806" lon="8.448018008966603"><ele>115.39999999999999</ele><time>2026-04-26T14:38:20.004Z</time></trkpt><trkpt lat="45.14094676037517" lon="8.448057422125297"><ele>116.19999999999999</ele><time>2026-04-26T14:38:21.004Z</time></trkpt><trkpt lat="45.140833811581736" lon="8.448088274664316"><ele>117.0</ele><time>2026-04-26T14:38:23.004Z</time></trkpt><trkpt lat="45.1407015636051" lon="8.448052794640976"><ele>117.66666666666667</ele><time>2026-04-26T14:38:25.004Z</time></trkpt><trkpt lat="45.140644846148255" lon="8.447951470414809"><ele>118.33333333333334</ele><time>2026-04-26T14:38:26.004Z</time></trkpt><trkpt lat="45.14058542603748" lon="8.44788123591923"><ele>119.0</ele><time>2026-04-26T14:38:27.004Z</time></trkpt><trkpt lat="45.1405274025132" lon="8.447813238692719"><ele>119.66666666666667</ele><time>2026-04-26T14:38:28.004Z</time></trkpt><trkpt lat="45.140472066254745" lon="8.447747363608377"><ele>120.33333333333334</ele><time>2026-04-26T14:38:29.005Z</time></trkpt><trkpt lat="45.14041965111069" lon="8.447674904085085"><ele>121.0</ele><time>2026-04-26T14:38:30.004Z</time></trkpt><trkpt lat="45.14036807887481" lon="8.447582238311632"><ele>121.0</ele><time>2026-04-26T14:38:31.004Z</time></trkpt><trkpt lat="45.140318397188636" lon="8.44747311234535"><ele>121.0</ele><time>2026-04-26T14:38:32.005Z</time></trkpt><trkpt lat="45.14026542936358" lon="8.447360271009256"><ele>121.0</ele><time>2026-04-26T14:38:33.004Z</time></trkpt><trkpt lat="45.14021048087356" lon="8.447246006462104"><ele>121.0</ele><time>2026-04-26T14:38:34.004Z</time></trkpt><trkpt lat="45.140157897387525" lon="8.447130262147018"><ele>121.0</ele><time>2026-04-26T14:38:35.004Z</time></trkpt><trkpt lat="45.14009651376349" lon="8.447021718383407"><ele>120.4</ele><time>2026-04-26T14:38:36.004Z</time></trkpt><trkpt lat="45.14002456476507" lon="8.446924919904212"><ele>119.8</ele><time>2026-04-26T14:38:37.004Z</time></trkpt><trkpt lat="45.13994420921475" lon="8.446848306598572"><ele>119.20000000000002</ele><time>2026-04-26T14:38:38.004Z</time></trkpt><trkpt lat="45.13986333985277" lon="8.446772077981503"><ele>118.60000000000001</ele><time>2026-04-26T14:38:39.005Z</time></trkpt><trkpt lat="45.139777006457585" lon="8.446718381959242"><ele>118.0</ele><time>2026-04-26T14:38:40.005Z</time></trkpt><trkpt lat="45.1396860793796" lon="8.446693835834756"><ele>118.00000000000001</ele><time>2026-04-26T14:38:41.005Z</time></trkpt><trkpt lat="45.139603452291915" lon="8.446652561304191"><ele>118.0</ele><time>2026-04-26T14:38:42.005Z</time></trkpt><trkpt lat="45.139523948291476" lon="8.446601673859512"><ele>118.0</ele><time>2026-04-26T14:38:43.005Z</time></trkpt><trkpt lat="45.13944731295743" lon="8.446569503477564"><ele>118.0</ele><time>2026-04-26T14:38:44.005Z</time></trkpt><trkpt lat="45.139372236971425" lon="8.44654378205191"><ele>118.00000000000001</ele><time>2026-04-26T14:38:45.005Z</time></trkpt><trkpt lat="45.139304429803666" lon="8.446516657594467"><ele>118.0</ele><time>2026-04-26T14:38:46.005Z</time></trkpt><trkpt lat="45.13923730017432" lon="8.446491215470253"><ele>118.00000000000001</ele><time>2026-04-26T14:38:47.005Z</time></trkpt><trkpt lat="45.139169841441536" lon="8.446468717233051"><ele>118.0</ele><time>2026-04-26T14:38:48.005Z</time></trkpt><trkpt lat="45.13909826368824" lon="8.446438640078133"><ele>118.0</ele><time>2026-04-26T14:38:49.005Z</time></trkpt><trkpt lat="45.13902600839268" lon="8.446406904575703"><ele>118.0</ele><time>2026-04-26T14:38:50.005Z</time></trkpt><trkpt lat="45.138956063062004" lon="8.446363551104247"><ele>118.00000000000001</ele><time>2026-04-26T14:38:51.005Z</time></trkpt><trkpt lat="45.138885152591776" lon="8.446309952257089"><ele>118.0</ele><time>2026-04-26T14:38:52.005Z</time></trkpt><trkpt lat="45.138805260588725" lon="8.446250609265618"><ele>117.60000000000001</ele><time>2026-04-26T14:38:53.005Z</time></trkpt><trkpt lat="45.13872462943243" lon="8.44616962558511"><ele>117.20000000000002</ele><time>2026-04-26T14:38:54.005Z</time></trkpt><trkpt lat="45.13864569226452" lon="8.446059937758761"><ele>116.8</ele><time>2026-04-26T14:38:55.005Z</time></trkpt><trkpt lat="45.13856537945108" lon="8.445936998955787"><ele>116.4</ele><time>2026-04-26T14:38:56.005Z</time></trkpt><trkpt lat="45.138481276304816" lon="8.445815941725554"><ele>116.0</ele><time>2026-04-26T14:38:57.005Z</time></trkpt><trkpt lat="45.1383988950364" lon="8.445699693748832"><ele>116.0</ele><time>2026-04-26T14:38:58.005Z</time></trkpt><trkpt lat="45.13831723839989" lon="8.445590196663902"><ele>116.0</ele><time>2026-04-26T14:38:59.005Z</time></trkpt><trkpt lat="45.138236286639334" lon="8.445477842174581"><ele>116.0</ele><time>2026-04-26T14:39:00.005Z</time></trkpt><trkpt lat="45.1381526727595" lon="8.44537011360138"><ele>116.0</ele><time>2026-04-26T14:39:01.005Z</time></trkpt><trkpt lat="45.1380703894382" lon="8.445266319247445"><ele>116.0</ele><time>2026-04-26T14:39:02.005Z</time></trkpt><trkpt lat="45.137991496020256" lon="8.445153673485299"><ele>116.4</ele><time>2026-04-26T14:39:03.005Z</time></trkpt><trkpt lat="45.13791330024057" lon="8.445048360238948"><ele>116.8</ele><time>2026-04-26T14:39:04.005Z</time></trkpt><trkpt lat="45.13783595950457" lon="8.444941294731485"><ele>117.20000000000002</ele><time>2026-04-26T14:39:05.005Z</time></trkpt><trkpt lat="45.13775801099511" lon="8.444833560848453"><ele>117.60000000000001</ele><time>2026-04-26T14:39:06.005Z</time></trkpt><trkpt lat="45.13767546043928" lon="8.444738013742572"><ele>118.0</ele><time>2026-04-26T14:39:07.005Z</time></trkpt><trkpt lat="45.13758933807017" lon="8.444661017272601"><ele>118.0</ele><time>2026-04-26T14:39:08.005Z</time></trkpt><trkpt lat="45.13750065228307" lon="8.444613541329268"><ele>118.00000000000001</ele><time>2026-04-26T14:39:09.005Z</time></trkpt><trkpt lat="45.1374132444454" lon="8.4445830481204"><ele>118.00000000000001</ele><time>2026-04-26T14:39:10.005Z</time></trkpt><trkpt lat="45.137321694450115" lon="8.444557046134667"><ele>118.0</ele><time>2026-04-26T14:39:11.005Z</time></trkpt><trkpt lat="45.1372205904123" lon="8.444537998160008"><ele>118.0</ele><time>2026-04-26T14:39:12.005Z</time></trkpt><trkpt lat="45.13711653685613" lon="8.444518875627816"><ele>118.0</ele><time>2026-04-26T14:39:13.005Z</time></trkpt><trkpt lat="45.13700912305346" lon="8.44449566008569"><ele>118.00000000000001</ele><time>2026-04-26T14:39:14.005Z</time></trkpt><trkpt lat="45.13690153900238" lon="8.444475256799976"><ele>118.00000000000001</ele><time>2026-04-26T14:39:15.005Z</time></trkpt><trkpt lat="45.13680041301464" lon="8.444454764386165"><ele>118.0</ele><time>2026-04-26T14:39:16.005Z</time></trkpt><trkpt lat="45.13670433313563" lon="8.444434804669452"><ele>118.0</ele><time>2026-04-26T14:39:17.005Z</time></trkpt><trkpt lat="45.136615213761345" lon="8.444391763571987"><ele>118.00000000000001</ele><time>2026-04-26T14:39:18.005Z</time></trkpt><trkpt lat="45.13652711010696" lon="8.444373711445367"><ele>118.0</ele><time>2026-04-26T14:39:19.005Z</time></trkpt><trkpt lat="45.136447826447984" lon="8.444355658856791"><ele>118.0</ele><time>2026-04-26T14:39:20.005Z</time></trkpt><trkpt lat="45.136375572827525" lon="8.444338499743719"><ele>118.0</ele><time>2026-04-26T14:39:21.005Z</time></trkpt><trkpt lat="45.136309500248935" lon="8.444324620901142"><ele>118.00000000000001</ele><time>2026-04-26T14:39:22.005Z</time></trkpt><trkpt lat="45.13620372477365" lon="8.444298623745517"><ele>118.0</ele><time>2026-04-26T14:39:24.005Z</time></trkpt><trkpt lat="45.13611778975497" lon="8.444280497862403"><ele>118.00000000000001</ele><time>2026-04-26T14:39:26.005Z</time></trkpt><trkpt lat="45.13601272320949" lon="8.44426692015999"><ele>118.0</ele><time>2026-04-26T14:39:28.005Z</time></trkpt><trkpt lat="45.13594803531235" lon="8.444268866353005"><ele>118.0</ele><time>2026-04-26T14:39:29.005Z</time></trkpt><trkpt lat="45.135883986265796" lon="8.444271866676095"><ele>118.0</ele><time>2026-04-26T14:39:30.005Z</time></trkpt><trkpt lat="45.13576105801335" lon="8.444261457183659"><ele>118.00000000000001</ele><time>2026-04-26T14:39:32.005Z</time></trkpt><trkpt lat="45.1356965150263" lon="8.444253867161521"><ele>118.0</ele><time>2026-04-26T14:39:33.005Z</time></trkpt><trkpt lat="45.13562949437616" lon="8.444248235462503"><ele>117.60000000000001</ele><time>2026-04-26T14:39:34.005Z</time></trkpt><trkpt lat="45.13556159448524" lon="8.444248480259091"><ele>117.20000000000002</ele><time>2026-04-26T14:39:35.005Z</time></trkpt><trkpt lat="45.13549443231907" lon="8.444263898994489"><ele>116.8</ele><time>2026-04-26T14:39:36.005Z</time></trkpt><trkpt lat="45.135382547396176" lon="8.444256177572278"><ele>116.4</ele><time>2026-04-26T14:39:38.005Z</time></trkpt><trkpt lat="45.13528581719465" lon="8.444260360777333"><ele>116.0</ele><time>2026-04-26T14:39:40.005Z</time></trkpt><trkpt lat="45.1351795028502" lon="8.44426467219168"><ele>116.0</ele><time>2026-04-26T14:39:42.005Z</time></trkpt><trkpt lat="45.135071289008955" lon="8.444268804146672"><ele>116.0</ele><time>2026-04-26T14:39:44.005Z</time></trkpt><trkpt lat="45.13497125546952" lon="8.444285765469024"><ele>116.0</ele><time>2026-04-26T14:39:46.005Z</time></trkpt><trkpt lat="45.134874916662866" lon="8.444303204998228"><ele>116.0</ele><time>2026-04-26T14:39:48.005Z</time></trkpt><trkpt lat="45.13477552007652" lon="8.444304171136297"><ele>116.0</ele><time>2026-04-26T14:39:50.005Z</time></trkpt><trkpt lat="45.13466081087202" lon="8.444285389890283"><ele>115.99999999999999</ele><time>2026-04-26T14:39:52.005Z</time></trkpt><trkpt lat="45.13454073975344" lon="8.44430738606089"><ele>116.0</ele><time>2026-04-26T14:39:54.005Z</time></trkpt><trkpt lat="45.13447539524467" lon="8.444325603523787"><ele>116.0</ele><time>2026-04-26T14:39:55.005Z</time></trkpt><trkpt lat="45.13441019481982" lon="8.444331501324227"><ele>116.0</ele><time>2026-04-26T14:39:56.005Z</time></trkpt><trkpt lat="45.13429169310543" lon="8.444314872732868"><ele>115.99999999999999</ele><time>2026-04-26T14:39:58.005Z</time></trkpt><trkpt lat="45.134228162235175" lon="8.444317328439931"><ele>116.0</ele><time>2026-04-26T14:39:59.005Z</time></trkpt><trkpt lat="45.134115869036506" lon="8.44432136751472"><ele>115.99999999999999</ele><time>2026-04-26T14:40:01.005Z</time></trkpt><trkpt lat="45.13401245282905" lon="8.444332672960133"><ele>116.0</ele><time>2026-04-26T14:40:03.005Z</time></trkpt><trkpt lat="45.13393185261376" lon="8.444347543263607"><ele>116.0</ele><time>2026-04-26T14:40:05.005Z</time></trkpt><trkpt lat="45.13386691781435" lon="8.444380440551287"><ele>116.0</ele><time>2026-04-26T14:40:08.005Z</time></trkpt><trkpt lat="45.13379894428274" lon="8.444431733262148"><ele>115.99999999999999</ele><time>2026-04-26T14:40:12.005Z</time></trkpt><trkpt lat="45.133740227371256" lon="8.444474726375708"><ele>116.0</ele><time>2026-04-26T14:40:16.005Z</time></trkpt><trkpt lat="45.13368143303699" lon="8.444536313305374"><ele>115.99999999999999</ele><time>2026-04-26T14:40:20.005Z</time></trkpt><trkpt lat="45.133604137378974" lon="8.444606927080724"><ele>116.0</ele><time>2026-04-26T14:40:24.005Z</time></trkpt><trkpt lat="45.13354423489482" lon="8.444657688500339"><ele>116.0</ele><time>2026-04-26T14:40:27.005Z</time></trkpt><trkpt lat="45.13347614035471" lon="8.444687837451657"><ele>116.0</ele><time>2026-04-26T14:40:30.005Z</time></trkpt><trkpt lat="45.133384757020444" lon="8.444688188270588"><ele>115.99999999999999</ele><time>2026-04-26T14:40:32.004Z</time></trkpt><trkpt lat="45.13328519317912" lon="8.444622237217466"><ele>116.0</ele><time>2026-04-26T14:40:34.004Z</time></trkpt><trkpt lat="45.133190482621465" lon="8.444552533771754"><ele>117.16666666666666</ele><time>2026-04-26T14:40:36.004Z</time></trkpt><trkpt lat="45.13309174247454" lon="8.444486380192549"><ele>118.33333333333333</ele><time>2026-04-26T14:40:38.004Z</time></trkpt><trkpt lat="45.13302543666681" lon="8.444445774171033"><ele>119.5</ele><time>2026-04-26T14:40:39.004Z</time></trkpt><trkpt lat="45.13294911634685" lon="8.444403702265909"><ele>120.66666666666666</ele><time>2026-04-26T14:40:40.004Z</time></trkpt><trkpt lat="45.13286835861355" lon="8.444353544610967"><ele>121.83333333333333</ele><time>2026-04-26T14:40:41.003Z</time></trkpt><trkpt lat="45.1327861830093" lon="8.444300888657523"><ele>123.0</ele><time>2026-04-26T14:40:42.004Z</time></trkpt><trkpt lat="45.132700532431315" lon="8.44424276538778"><ele>123.0</ele><time>2026-04-26T14:40:43.004Z</time></trkpt><trkpt lat="45.13261472598757" lon="8.444184796192351"><ele>123.00000000000001</ele><time>2026-04-26T14:40:44.004Z</time></trkpt><trkpt lat="45.13252389593218" lon="8.444129354333691"><ele>123.00000000000001</ele><time>2026-04-26T14:40:45.004Z</time></trkpt><trkpt lat="45.132426249051555" lon="8.444070169838918"><ele>123.0</ele><time>2026-04-26T14:40:46.004Z</time></trkpt><trkpt lat="45.13233488951838" lon="8.444007991567846"><ele>123.0</ele><time>2026-04-26T14:40:47.004Z</time></trkpt><trkpt lat="45.132248103182974" lon="8.443935035381774"><ele>123.0</ele><time>2026-04-26T14:40:48.004Z</time></trkpt><trkpt lat="45.132160425487825" lon="8.443874225162137"><ele>123.0</ele><time>2026-04-26T14:40:49.004Z</time></trkpt><trkpt lat="45.132068682007116" lon="8.443821796157932"><ele>123.0</ele><time>2026-04-26T14:40:50.004Z</time></trkpt><trkpt lat="45.131982778900735" lon="8.443778621705016"><ele>123.0</ele><time>2026-04-26T14:40:51.004Z</time></trkpt><trkpt lat="45.13191465537866" lon="8.443716462746423"><ele>123.0</ele><time>2026-04-26T14:40:52.004Z</time></trkpt><trkpt lat="45.13185567959775" lon="8.443673048575894"><ele>123.0</ele><time>2026-04-26T14:40:53.004Z</time></trkpt><trkpt lat="45.13176425136693" lon="8.443613731200372"><ele>123.33333333333333</ele><time>2026-04-26T14:40:55.004Z</time></trkpt><trkpt lat="45.13168449918468" lon="8.443571448933264"><ele>123.66666666666666</ele><time>2026-04-26T14:40:57.004Z</time></trkpt><trkpt lat="45.13162454354009" lon="8.443539359383056"><ele>124.0</ele><time>2026-04-26T14:40:58.004Z</time></trkpt><trkpt lat="45.13156604070557" lon="8.443483286174693"><ele>124.33333333333333</ele><time>2026-04-26T14:40:59.004Z</time></trkpt><trkpt lat="45.13148261793014" lon="8.443468589728464"><ele>124.66666666666666</ele><time>2026-04-26T14:41:00.004Z</time></trkpt><trkpt lat="45.13139614065182" lon="8.443418077657098"><ele>125.0</ele><time>2026-04-26T14:41:01.004Z</time></trkpt><trkpt lat="45.13130721009257" lon="8.443357698757142"><ele>125.8</ele><time>2026-04-26T14:41:02.004Z</time></trkpt><trkpt lat="45.13121587260563" lon="8.44328368850509"><ele>126.6</ele><time>2026-04-26T14:41:03.004Z</time></trkpt><trkpt lat="45.13112323823092" lon="8.443215670162093"><ele>127.4</ele><time>2026-04-26T14:41:04.004Z</time></trkpt><trkpt lat="45.13103531268411" lon="8.4431543781827"><ele>128.2</ele><time>2026-04-26T14:41:05.004Z</time></trkpt><trkpt lat="45.13094768142921" lon="8.443095247610273"><ele>129.0</ele><time>2026-04-26T14:41:06.004Z</time></trkpt><trkpt lat="45.13086576623301" lon="8.44303726241466"><ele>129.0</ele><time>2026-04-26T14:41:07.004Z</time></trkpt><trkpt lat="45.13078375593849" lon="8.44299818969024"><ele>129.0</ele><time>2026-04-26T14:41:08.004Z</time></trkpt><trkpt lat="45.130721812993386" lon="8.442936644413377"><ele>129.0</ele><time>2026-04-26T14:41:09.004Z</time></trkpt><trkpt lat="45.13065419280876" lon="8.442892999520028"><ele>129.0</ele><time>2026-04-26T14:41:10.004Z</time></trkpt><trkpt lat="45.13058932738057" lon="8.442854072490494"><ele>129.0</ele><time>2026-04-26T14:41:11.004Z</time></trkpt><trkpt lat="45.13051682786703" lon="8.44280524005741"><ele>129.0</ele><time>2026-04-26T14:41:12.004Z</time></trkpt><trkpt lat="45.13043841226335" lon="8.442749480046041"><ele>130.6</ele><time>2026-04-26T14:41:13.004Z</time></trkpt><trkpt lat="45.13035048490118" lon="8.442690503778213"><ele>132.2</ele><time>2026-04-26T14:41:14.004Z</time></trkpt><trkpt lat="45.130257331860236" lon="8.442629533741409"><ele>133.79999999999998</ele><time>2026-04-26T14:41:15.004Z</time></trkpt><trkpt lat="45.130163955434796" lon="8.442564769989394"><ele>135.4</ele><time>2026-04-26T14:41:16.004Z</time></trkpt><trkpt lat="45.13006389258692" lon="8.442501142096848"><ele>137.0</ele><time>2026-04-26T14:41:17.004Z</time></trkpt><trkpt lat="45.12995888988845" lon="8.442435219273879"><ele>138.0</ele><time>2026-04-26T14:41:18.004Z</time></trkpt><trkpt lat="45.12984650542048" lon="8.442364815134342"><ele>139.0</ele><time>2026-04-26T14:41:19.004Z</time></trkpt><trkpt lat="45.12972869739164" lon="8.442288244282295"><ele>140.0</ele><time>2026-04-26T14:41:20.004Z</time></trkpt><trkpt lat="45.129599278295856" lon="8.442212576073455"><ele>141.0</ele><time>2026-04-26T14:41:21.004Z</time></trkpt><trkpt lat="45.12947535399794" lon="8.442135772534284"><ele>143.0</ele><time>2026-04-26T14:41:22.004Z</time></trkpt><trkpt lat="45.12936448056806" lon="8.4420654100019"><ele>145.0</ele><time>2026-04-26T14:41:23.004Z</time></trkpt><trkpt lat="45.12925162767753" lon="8.441984708929306"><ele>147.0</ele><time>2026-04-26T14:41:24.004Z</time></trkpt><trkpt lat="45.129133426442834" lon="8.44191172363879"><ele>149.0</ele><time>2026-04-26T14:41:25.004Z</time></trkpt><trkpt lat="45.12900843856429" lon="8.441836489666613"><ele>150.25</ele><time>2026-04-26T14:41:26.004Z</time></trkpt><trkpt lat="45.128879259367984" lon="8.441760017244357"><ele>151.5</ele><time>2026-04-26T14:41:27.004Z</time></trkpt><trkpt lat="45.12876287609276" lon="8.441649927022144"><ele>152.75</ele><time>2026-04-26T14:41:28.004Z</time></trkpt><trkpt lat="45.128634052350314" lon="8.441563936853559"><ele>154.0</ele><time>2026-04-26T14:41:29.004Z</time></trkpt><trkpt lat="45.12850335265199" lon="8.441479441356734"><ele>154.0</ele><time>2026-04-26T14:41:30.004Z</time></trkpt><trkpt lat="45.12837348810204" lon="8.441393390122048"><ele>154.0</ele><time>2026-04-26T14:41:31.004Z</time></trkpt><trkpt lat="45.1282376712144" lon="8.44131456273191"><ele>154.0</ele><time>2026-04-26T14:41:32.004Z</time></trkpt><trkpt lat="45.12810885046188" lon="8.441232565444592"><ele>154.0</ele><time>2026-04-26T14:41:33.004Z</time></trkpt><trkpt lat="45.127980760004526" lon="8.441148798888008"><ele>156.75</ele><time>2026-04-26T14:41:34.004Z</time></trkpt><trkpt lat="45.127849595239375" lon="8.441061222320556"><ele>159.5</ele><time>2026-04-26T14:41:35.004Z</time></trkpt><trkpt lat="45.127715703759954" lon="8.440974040123383"><ele>162.25</ele><time>2026-04-26T14:41:36.004Z</time></trkpt><trkpt lat="45.127579496613755" lon="8.440889494698364"><ele>165.0</ele><time>2026-04-26T14:41:37.004Z</time></trkpt><trkpt lat="45.12744808169302" lon="8.440797753852978"><ele>164.33333333333334</ele><time>2026-04-26T14:41:38.004Z</time></trkpt><trkpt lat="45.12731628655452" lon="8.44070612677964"><ele>163.66666666666669</ele><time>2026-04-26T14:41:39.004Z</time></trkpt><trkpt lat="45.12718108698777" lon="8.440616448567836"><ele>163.0</ele><time>2026-04-26T14:41:40.004Z</time></trkpt><trkpt lat="45.127042868328104" lon="8.440521937879645"><ele>165.75</ele><time>2026-04-26T14:41:41.004Z</time></trkpt><trkpt lat="45.1269019551281" lon="8.440436407056247"><ele>168.5</ele><time>2026-04-26T14:41:42.004Z</time></trkpt><trkpt lat="45.12677086658318" lon="8.440359917494284"><ele>171.25</ele><time>2026-04-26T14:41:43.004Z</time></trkpt><trkpt lat="45.126652554319996" lon="8.440283078325619"><ele>174.0</ele><time>2026-04-26T14:41:44.004Z</time></trkpt><trkpt lat="45.12654198656631" lon="8.4401924066989"><ele>174.5</ele><time>2026-04-26T14:41:45.004Z</time></trkpt><trkpt lat="45.12643627781862" lon="8.44009692948932"><ele>175.0</ele><time>2026-04-26T14:41:46.004Z</time></trkpt><trkpt lat="45.12634994576845" lon="8.43997513061668"><ele>175.5</ele><time>2026-04-26T14:41:47.004Z</time></trkpt><trkpt lat="45.126277812580504" lon="8.43983141624739"><ele>176.0</ele><time>2026-04-26T14:41:48.004Z</time></trkpt><trkpt lat="45.12621874295788" lon="8.439664123715298"><ele>179.0</ele><time>2026-04-26T14:41:49.004Z</time></trkpt><trkpt lat="45.126185133568214" lon="8.439467290648222"><ele>182.0</ele><time>2026-04-26T14:41:50.004Z</time></trkpt><trkpt lat="45.12613697969595" lon="8.43925825062988"><ele>185.0</ele><time>2026-04-26T14:41:51.004Z</time></trkpt><trkpt lat="45.126085531543076" lon="8.439034909635089"><ele>186.66666666666666</ele><time>2026-04-26T14:41:52.004Z</time></trkpt><trkpt lat="45.126032065327436" lon="8.438800587292805"><ele>188.33333333333334</ele><time>2026-04-26T14:41:53.004Z</time></trkpt><trkpt lat="45.125978212314294" lon="8.43856294674774"><ele>190.0</ele><time>2026-04-26T14:41:54.004Z</time></trkpt><trkpt lat="45.125921323297845" lon="8.438320126770803"><ele>190.0</ele><time>2026-04-26T14:41:55.004Z</time></trkpt><trkpt lat="45.12586257023217" lon="8.438085562791207"><ele>190.0</ele><time>2026-04-26T14:41:56.004Z</time></trkpt><trkpt lat="45.12580713641698" lon="8.437853139636243"><ele>190.0</ele><time>2026-04-26T14:41:57.004Z</time></trkpt><trkpt lat="45.12575543153164" lon="8.437623717912208"><ele>189.33333333333334</ele><time>2026-04-26T14:41:58.004Z</time></trkpt><trkpt lat="45.12570640564175" lon="8.437400397988268"><ele>188.66666666666666</ele><time>2026-04-26T14:41:59.004Z</time></trkpt><trkpt lat="45.125660930732884" lon="8.437187572017926"><ele>188.0</ele><time>2026-04-26T14:42:00.004Z</time></trkpt><trkpt lat="45.125616659678464" lon="8.436980381097351"><ele>189.0</ele><time>2026-04-26T14:42:01.004Z</time></trkpt><trkpt lat="45.125574331657" lon="8.43677696759363"><ele>190.0</ele><time>2026-04-26T14:42:02.004Z</time></trkpt><trkpt lat="45.1255333745407" lon="8.436580450510462"><ele>191.0</ele><time>2026-04-26T14:42:03.004Z</time></trkpt><trkpt lat="45.1254897529933" lon="8.436394165557823"><ele>192.0</ele><time>2026-04-26T14:42:04.004Z</time></trkpt><trkpt lat="45.12542963461055" lon="8.436201455862717"><ele>193.33333333333331</ele><time>2026-04-26T14:42:05.004Z</time></trkpt><trkpt lat="45.125388678529006" lon="8.435994095227871"><ele>194.66666666666666</ele><time>2026-04-26T14:42:06.004Z</time></trkpt><trkpt lat="45.12533220778615" lon="8.435787632406367"><ele>196.0</ele><time>2026-04-26T14:42:07.004Z</time></trkpt><trkpt lat="45.125277207496794" lon="8.435563799308627"><ele>197.66666666666666</ele><time>2026-04-26T14:42:08.004Z</time></trkpt><trkpt lat="45.12522065308495" lon="8.435329713820582"><ele>199.33333333333331</ele><time>2026-04-26T14:42:09.004Z</time></trkpt><trkpt lat="45.12516601815894" lon="8.435089492642195"><ele>201.0</ele><time>2026-04-26T14:42:10.004Z</time></trkpt><trkpt lat="45.125115878780605" lon="8.434861641506435"><ele>201.0</ele><time>2026-04-26T14:42:11.004Z</time></trkpt><trkpt lat="45.12506567766608" lon="8.434644687817896"><ele>201.0</ele><time>2026-04-26T14:42:12.004Z</time></trkpt><trkpt lat="45.12501253747492" lon="8.43442938569704"><ele>201.0</ele><time>2026-04-26T14:42:13.004Z</time></trkpt><trkpt lat="45.12496215198429" lon="8.434237652454803"><ele>202.0</ele><time>2026-04-26T14:42:14.004Z</time></trkpt><trkpt lat="45.12491621614178" lon="8.43405179886851"><ele>203.0</ele><time>2026-04-26T14:42:15.004Z</time></trkpt><trkpt lat="45.12487588498667" lon="8.433855484347761"><ele>204.0</ele><time>2026-04-26T14:42:16.004Z</time></trkpt><trkpt lat="45.12483400494718" lon="8.433644027610901"><ele>205.0</ele><time>2026-04-26T14:42:17.004Z</time></trkpt><trkpt lat="45.124788501831716" lon="8.43341758348994"><ele>204.0</ele><time>2026-04-26T14:42:18.004Z</time></trkpt><trkpt lat="45.124752251444" lon="8.43318953395506"><ele>203.0</ele><time>2026-04-26T14:42:19.004Z</time></trkpt><trkpt lat="45.12472627519256" lon="8.432949553152026"><ele>202.0</ele><time>2026-04-26T14:42:20.004Z</time></trkpt><trkpt lat="45.12469644216025" lon="8.432704450100779"><ele>202.0</ele><time>2026-04-26T14:42:21.004Z</time></trkpt><trkpt lat="45.1246569923869" lon="8.432458810316529"><ele>202.0</ele><time>2026-04-26T14:42:22.004Z</time></trkpt><trkpt lat="45.1246024851772" lon="8.432216046217809"><ele>202.0</ele><time>2026-04-26T14:42:23.004Z</time></trkpt><trkpt lat="45.124549553869365" lon="8.431975055002075"><ele>203.66666666666666</ele><time>2026-04-26T14:42:24.004Z</time></trkpt><trkpt lat="45.12449871701309" lon="8.431726951508702"><ele>205.33333333333331</ele><time>2026-04-26T14:42:25.004Z</time></trkpt><trkpt lat="45.1244437220887" lon="8.431478452817611"><ele>207.0</ele><time>2026-04-26T14:42:26.004Z</time></trkpt><trkpt lat="45.12439104042587" lon="8.43123255079594"><ele>208.66666666666669</ele><time>2026-04-26T14:42:27.004Z</time></trkpt><trkpt lat="45.12433973788839" lon="8.430992064764528"><ele>210.33333333333334</ele><time>2026-04-26T14:42:28.004Z</time></trkpt><trkpt lat="45.124292468357154" lon="8.430756702463164"><ele>212.0</ele><time>2026-04-26T14:42:29.004Z</time></trkpt><trkpt lat="45.124245089071756" lon="8.430527467615594"><ele>212.66666666666669</ele><time>2026-04-26T14:42:30.004Z</time></trkpt><trkpt lat="45.1241959625694" lon="8.430297723222656"><ele>213.33333333333331</ele><time>2026-04-26T14:42:31.004Z</time></trkpt><trkpt lat="45.12416581642035" lon="8.430072750134633"><ele>214.0</ele><time>2026-04-26T14:42:32.004Z</time></trkpt><trkpt lat="45.124120658490824" lon="8.429849291301625"><ele>215.66666666666666</ele><time>2026-04-26T14:42:33.004Z</time></trkpt><trkpt lat="45.12407657851077" lon="8.429626924562656"><ele>217.33333333333331</ele><time>2026-04-26T14:42:34.004Z</time></trkpt><trkpt lat="45.124030544527656" lon="8.429404285760297"><ele>219.0</ele><time>2026-04-26T14:42:35.004Z</time></trkpt><trkpt lat="45.123982659485165" lon="8.429183883931515"><ele>220.0</ele><time>2026-04-26T14:42:36.004Z</time></trkpt><trkpt lat="45.123935830798516" lon="8.428962097073494"><ele>221.0</ele><time>2026-04-26T14:42:37.004Z</time></trkpt><trkpt lat="45.1238887619402" lon="8.428737511870423"><ele>222.0</ele><time>2026-04-26T14:42:38.003Z</time></trkpt><trkpt lat="45.123842300231146" lon="8.428514894086744"><ele>223.33333333333331</ele><time>2026-04-26T14:42:39.003Z</time></trkpt><trkpt lat="45.12379440431277" lon="8.428298900803837"><ele>224.66666666666666</ele><time>2026-04-26T14:42:40.003Z</time></trkpt><trkpt lat="45.12374868477706" lon="8.428077289623943"><ele>226.0</ele><time>2026-04-26T14:42:41.003Z</time></trkpt><trkpt lat="45.12370304216019" lon="8.427859162949435"><ele>227.0</ele><time>2026-04-26T14:42:42.003Z</time></trkpt><trkpt lat="45.12365329053564" lon="8.427633143875108"><ele>228.0</ele><time>2026-04-26T14:42:43.003Z</time></trkpt><trkpt lat="45.12360673926073" lon="8.427414288360906"><ele>229.0</ele><time>2026-04-26T14:42:44.003Z</time></trkpt><trkpt lat="45.123560955577844" lon="8.427200059223594"><ele>229.5</ele><time>2026-04-26T14:42:45.002Z</time></trkpt><trkpt lat="45.123517309150465" lon="8.427000575370329"><ele>230.0</ele><time>2026-04-26T14:42:46.002Z</time></trkpt><trkpt lat="45.12347243113844" lon="8.426802845287858"><ele>230.5</ele><time>2026-04-26T14:42:47.003Z</time></trkpt><trkpt lat="45.12342531995046" lon="8.42660202714729"><ele>231.0</ele><time>2026-04-26T14:42:48.003Z</time></trkpt><trkpt lat="45.1233904811699" lon="8.426388175091159"><ele>231.25</ele><time>2026-04-26T14:42:49.003Z</time></trkpt><trkpt lat="45.12332790096242" lon="8.426199824881092"><ele>231.5</ele><time>2026-04-26T14:42:50.003Z</time></trkpt><trkpt lat="45.123243742777454" lon="8.426042619925811"><ele>231.75</ele><time>2026-04-26T14:42:51.003Z</time></trkpt><trkpt lat="45.12315924287484" lon="8.425877843273362"><ele>232.0</ele><time>2026-04-26T14:42:52.003Z</time></trkpt><trkpt lat="45.12305552186641" lon="8.425724943168388"><ele>232.0</ele><time>2026-04-26T14:42:53.003Z</time></trkpt><trkpt lat="45.122946121672406" lon="8.425583964812128"><ele>232.0</ele><time>2026-04-26T14:42:54.003Z</time></trkpt><trkpt lat="45.122818541428906" lon="8.425493674104906"><ele>232.0</ele><time>2026-04-26T14:42:55.003Z</time></trkpt><trkpt lat="45.12270201290217" lon="8.42539286702526"><ele>232.0</ele><time>2026-04-26T14:42:56.003Z</time></trkpt><trkpt lat="45.12258185533911" lon="8.425294646895292"><ele>232.25</ele><time>2026-04-26T14:42:57.003Z</time></trkpt><trkpt lat="45.12246750827944" lon="8.425180476138733"><ele>232.5</ele><time>2026-04-26T14:42:58.003Z</time></trkpt><trkpt lat="45.122346106395284" lon="8.425078039147106"><ele>232.75</ele><time>2026-04-26T14:42:59.003Z</time></trkpt><trkpt lat="45.12222417539958" lon="8.424972190742041"><ele>233.0</ele><time>2026-04-26T14:43:00.003Z</time></trkpt><trkpt lat="45.122105492642916" lon="8.424866758158608"><ele>233.75</ele><time>2026-04-26T14:43:01.003Z</time></trkpt><trkpt lat="45.12198564167328" lon="8.424763474654977"><ele>234.5</ele><time>2026-04-26T14:43:02.003Z</time></trkpt><trkpt lat="45.121861927939456" lon="8.42465585771282"><ele>235.25</ele><time>2026-04-26T14:43:03.003Z</time></trkpt><trkpt lat="45.12173595502685" lon="8.424545016899025"><ele>236.0</ele><time>2026-04-26T14:43:04.003Z</time></trkpt><trkpt lat="45.121608046353494" lon="8.424431312837026"><ele>238.33333333333334</ele><time>2026-04-26T14:43:05.003Z</time></trkpt><trkpt lat="45.12147697851783" lon="8.424312399915324"><ele>240.66666666666669</ele><time>2026-04-26T14:43:06.003Z</time></trkpt><trkpt lat="45.12134136988756" lon="8.42419476426768"><ele>243.0</ele><time>2026-04-26T14:43:07.003Z</time></trkpt><trkpt lat="45.12120996925383" lon="8.424077508982444"><ele>243.0</ele><time>2026-04-26T14:43:08.003Z</time></trkpt><trkpt lat="45.12108046164837" lon="8.423969869127918"><ele>243.0</ele><time>2026-04-26T14:43:09.003Z</time></trkpt><trkpt lat="45.12096019184363" lon="8.423838779362496"><ele>243.0</ele><time>2026-04-26T14:43:10.003Z</time></trkpt><trkpt lat="45.120834027225285" lon="8.42371019476554"><ele>245.0</ele><time>2026-04-26T14:43:11.003Z</time></trkpt><trkpt lat="45.12071249224066" lon="8.42357451073221"><ele>247.0</ele><time>2026-04-26T14:43:12.003Z</time></trkpt><trkpt lat="45.1205991319364" lon="8.423429491179135"><ele>249.0</ele><time>2026-04-26T14:43:13.003Z</time></trkpt><trkpt lat="45.1204881029244" lon="8.42329179699316"><ele>249.0</ele><time>2026-04-26T14:43:14.003Z</time></trkpt><trkpt lat="45.120365217801094" lon="8.42317005635628"><ele>249.0</ele><time>2026-04-26T14:43:15.003Z</time></trkpt><trkpt lat="45.12023252784808" lon="8.42307833965959"><ele>249.0</ele><time>2026-04-26T14:43:16.003Z</time></trkpt><trkpt lat="45.12009647189896" lon="8.423007461364378"><ele>249.0</ele><time>2026-04-26T14:43:17.003Z</time></trkpt><trkpt lat="45.11997414030283" lon="8.422936319861662"><ele>248.5</ele><time>2026-04-26T14:43:18.003Z</time></trkpt><trkpt lat="45.11987234243635" lon="8.422843831311788"><ele>248.0</ele><time>2026-04-26T14:43:19.003Z</time></trkpt><trkpt lat="45.11978995760922" lon="8.42273349139422"><ele>247.5</ele><time>2026-04-26T14:43:20.003Z</time></trkpt><trkpt lat="45.11971459922972" lon="8.422600723916702"><ele>247.0</ele><time>2026-04-26T14:43:21.003Z</time></trkpt><trkpt lat="45.11965179825651" lon="8.422448604648189"><ele>247.0</ele><time>2026-04-26T14:43:22.003Z</time></trkpt><trkpt lat="45.119612539444695" lon="8.42227890581628"><ele>247.0</ele><time>2026-04-26T14:43:23.003Z</time></trkpt><trkpt lat="45.11958668108315" lon="8.42209582128841"><ele>247.0</ele><time>2026-04-26T14:43:24.003Z</time></trkpt><trkpt lat="45.119573145613465" lon="8.421904026782894"><ele>247.0</ele><time>2026-04-26T14:43:25.003Z</time></trkpt><trkpt lat="45.119569298315284" lon="8.421705581492956"><ele>247.33333333333331</ele><time>2026-04-26T14:43:26.003Z</time></trkpt><trkpt lat="45.119577329924766" lon="8.421495888013748"><ele>247.66666666666669</ele><time>2026-04-26T14:43:27.003Z</time></trkpt><trkpt lat="45.11959810925008" lon="8.421275411903663"><ele>248.0</ele><time>2026-04-26T14:43:28.003Z</time></trkpt><trkpt lat="45.11961706599271" lon="8.421047051765818"><ele>248.0</ele><time>2026-04-26T14:43:29.003Z</time></trkpt><trkpt lat="45.11963825276852" lon="8.420812510668812"><ele>248.0</ele><time>2026-04-26T14:43:30.003Z</time></trkpt><trkpt lat="45.119660422733894" lon="8.420581953787742"><ele>248.0</ele><time>2026-04-26T14:43:31.003Z</time></trkpt><trkpt lat="45.119684214942254" lon="8.420349127296864"><ele>248.0</ele><time>2026-04-26T14:43:32.003Z</time></trkpt><trkpt lat="45.119709858157336" lon="8.420111678543934"><ele>248.0</ele><time>2026-04-26T14:43:33.003Z</time></trkpt><trkpt lat="45.119730592290644" lon="8.419877110212552"><ele>248.0</ele><time>2026-04-26T14:43:34.003Z</time></trkpt><trkpt lat="45.11975194936476" lon="8.419642737975384"><ele>246.33333333333334</ele><time>2026-04-26T14:43:35.003Z</time></trkpt><trkpt lat="45.11977185272646" lon="8.419415049990466"><ele>244.66666666666669</ele><time>2026-04-26T14:43:36.003Z</time></trkpt><trkpt lat="45.11979081566175" lon="8.419197955149123"><ele>243.0</ele><time>2026-04-26T14:43:37.003Z</time></trkpt><trkpt lat="45.11981127172422" lon="8.418980659403344"><ele>241.33333333333331</ele><time>2026-04-26T14:43:38.003Z</time></trkpt><trkpt lat="45.11984786397837" lon="8.418761022514492"><ele>239.66666666666666</ele><time>2026-04-26T14:43:39.003Z</time></trkpt><trkpt lat="45.11986909660666" lon="8.418536465651162"><ele>238.0</ele><time>2026-04-26T14:43:40.003Z</time></trkpt><trkpt lat="45.119890305287754" lon="8.41830989774826"><ele>243.33333333333331</ele><time>2026-04-26T14:43:41.003Z</time></trkpt><trkpt lat="45.11991192707084" lon="8.418078916714252"><ele>248.66666666666669</ele><time>2026-04-26T14:43:42.003Z</time></trkpt><trkpt lat="45.11993344860396" lon="8.41784900642071"><ele>254.0</ele><time>2026-04-26T14:43:43.003Z</time></trkpt><trkpt lat="45.1199402046372" lon="8.417610918879097"><ele>254.0</ele><time>2026-04-26T14:43:44.003Z</time></trkpt><trkpt lat="45.11996557837152" lon="8.417375546586772"><ele>254.0</ele><time>2026-04-26T14:43:45.003Z</time></trkpt><trkpt lat="45.1199863680432" lon="8.417135416789522"><ele>254.0</ele><time>2026-04-26T14:43:46.003Z</time></trkpt><trkpt lat="45.12001110271944" lon="8.41689737794151"><ele>253.33333333333334</ele><time>2026-04-26T14:43:47.003Z</time></trkpt><trkpt lat="45.12003197729671" lon="8.416662704876295"><ele>252.66666666666669</ele><time>2026-04-26T14:43:48.003Z</time></trkpt><trkpt lat="45.1200477782436" lon="8.41643142001258"><ele>252.0</ele><time>2026-04-26T14:43:49.003Z</time></trkpt><trkpt lat="45.12007690201723" lon="8.416203985661099"><ele>253.33333333333331</ele><time>2026-04-26T14:43:50.003Z</time></trkpt><trkpt lat="45.120089509134274" lon="8.415969473659505"><ele>254.66666666666666</ele><time>2026-04-26T14:43:51.003Z</time></trkpt><trkpt lat="45.12009959578994" lon="8.415733241163704"><ele>256.0</ele><time>2026-04-26T14:43:52.003Z</time></trkpt><trkpt lat="45.12009378416992" lon="8.415505097464987"><ele>258.0</ele><time>2026-04-26T14:43:53.003Z</time></trkpt><trkpt lat="45.12007452159897" lon="8.415278711053922"><ele>260.0</ele><time>2026-04-26T14:43:54.003Z</time></trkpt><trkpt lat="45.12004380960848" lon="8.415050054455593"><ele>262.0</ele><time>2026-04-26T14:43:55.003Z</time></trkpt><trkpt lat="45.12000599694686" lon="8.41482059620486"><ele>263.3333333333333</ele><time>2026-04-26T14:43:56.003Z</time></trkpt><trkpt lat="45.11996204671646" lon="8.414590839957487"><ele>264.6666666666667</ele><time>2026-04-26T14:43:57.003Z</time></trkpt><trkpt lat="45.11993181258167" lon="8.414352268798345"><ele>266.0</ele><time>2026-04-26T14:43:58.003Z</time></trkpt><trkpt lat="45.119883614371204" lon="8.414122592877575"><ele>264.0</ele><time>2026-04-26T14:43:59.003Z</time></trkpt><trkpt lat="45.119834653608976" lon="8.413907927426722"><ele>262.0</ele><time>2026-04-26T14:44:00.003Z</time></trkpt><trkpt lat="45.119785925483114" lon="8.413700823292977"><ele>260.0</ele><time>2026-04-26T14:44:01.003Z</time></trkpt><trkpt lat="45.11973970743346" lon="8.413504387276374"><ele>260.0</ele><time>2026-04-26T14:44:02.003Z</time></trkpt><trkpt lat="45.119696127066476" lon="8.413322453857447"><ele>260.0</ele><time>2026-04-26T14:44:03.003Z</time></trkpt><trkpt lat="45.1196534161414" lon="8.413155438285997"><ele>260.0</ele><time>2026-04-26T14:44:04.003Z</time></trkpt><trkpt lat="45.11960480735712" lon="8.412996483858349"><ele>260.0</ele><time>2026-04-26T14:44:05.003Z</time></trkpt><trkpt lat="45.119554988138" lon="8.412843231636732"><ele>260.75</ele><time>2026-04-26T14:44:06.003Z</time></trkpt><trkpt lat="45.11949830523164" lon="8.412679372800895"><ele>261.5</ele><time>2026-04-26T14:44:07.003Z</time></trkpt><trkpt lat="45.119435459647754" lon="8.412510449096342"><ele>262.25</ele><time>2026-04-26T14:44:08.003Z</time></trkpt><trkpt lat="45.119365422119685" lon="8.412335923493472"><ele>263.0</ele><time>2026-04-26T14:44:09.003Z</time></trkpt><trkpt lat="45.1192887481873" lon="8.412161866300492"><ele>264.33333333333337</ele><time>2026-04-26T14:44:10.003Z</time></trkpt><trkpt lat="45.11920763925909" lon="8.41199050821523"><ele>265.6666666666667</ele><time>2026-04-26T14:44:11.003Z</time></trkpt><trkpt lat="45.119102776073035" lon="8.411827138274587"><ele>267.0</ele><time>2026-04-26T14:44:12.003Z</time></trkpt><trkpt lat="45.11900853101696" lon="8.411658864987507"><ele>264.75</ele><time>2026-04-26T14:44:13.003Z</time></trkpt><trkpt lat="45.1189169404407" lon="8.411494849308756"><ele>262.5</ele><time>2026-04-26T14:44:14.003Z</time></trkpt><trkpt lat="45.11882574168878" lon="8.411334524036"><ele>260.25</ele><time>2026-04-26T14:44:15.003Z</time></trkpt><trkpt lat="45.11873456347585" lon="8.411172691204058"><ele>258.0</ele><time>2026-04-26T14:44:16.003Z</time></trkpt><trkpt lat="45.11864322550514" lon="8.411005629437605"><ele>258.0</ele><time>2026-04-26T14:44:17.003Z</time></trkpt><trkpt lat="45.11856420444741" lon="8.410827625953893"><ele>258.0</ele><time>2026-04-26T14:44:18.003Z</time></trkpt><trkpt lat="45.118474384078" lon="8.41066560738949"><ele>258.0</ele><time>2026-04-26T14:44:19.003Z</time></trkpt><trkpt lat="45.11838744333638" lon="8.410508783075361"><ele>258.0</ele><time>2026-04-26T14:44:20.003Z</time></trkpt><trkpt lat="45.11830623235555" lon="8.410362294342512"><ele>257.25</ele><time>2026-04-26T14:44:21.003Z</time></trkpt><trkpt lat="45.11821349295209" lon="8.410236201234696"><ele>256.5</ele><time>2026-04-26T14:44:22.003Z</time></trkpt><trkpt lat="45.11813425620351" lon="8.410103440898492"><ele>255.75</ele><time>2026-04-26T14:44:23.003Z</time></trkpt><trkpt lat="45.11805588507953" lon="8.40997502992181"><ele>255.0</ele><time>2026-04-26T14:44:24.003Z</time></trkpt><trkpt lat="45.11799120585343" lon="8.409832179288573"><ele>255.0</ele><time>2026-04-26T14:44:25.003Z</time></trkpt><trkpt lat="45.11791213286335" lon="8.409695720192625"><ele>255.0</ele><time>2026-04-26T14:44:26.003Z</time></trkpt><trkpt lat="45.11783191659438" lon="8.409556548570174"><ele>255.0</ele><time>2026-04-26T14:44:27.003Z</time></trkpt><trkpt lat="45.11775044584495" lon="8.40940837344602"><ele>255.0</ele><time>2026-04-26T14:44:28.003Z</time></trkpt><trkpt lat="45.11766143336975" lon="8.409265875413585"><ele>256.25</ele><time>2026-04-26T14:44:29.003Z</time></trkpt><trkpt lat="45.11759856692199" lon="8.409109476223358"><ele>257.5</ele><time>2026-04-26T14:44:30.003Z</time></trkpt><trkpt lat="45.1175322313507" lon="8.408946159162701"><ele>258.75</ele><time>2026-04-26T14:44:31.003Z</time></trkpt><trkpt lat="45.117454555868434" lon="8.40879226755479"><ele>260.0</ele><time>2026-04-26T14:44:32.003Z</time></trkpt><trkpt lat="45.11737637165144" lon="8.40864837040274"><ele>260.0</ele><time>2026-04-26T14:44:33.003Z</time></trkpt><trkpt lat="45.117303270175114" lon="8.408506043381799"><ele>260.0</ele><time>2026-04-26T14:44:34.003Z</time></trkpt><trkpt lat="45.11723575110054" lon="8.408362679603377"><ele>260.0</ele><time>2026-04-26T14:44:35.003Z</time></trkpt><trkpt lat="45.11718177260924" lon="8.408213297977218"><ele>260.0</ele><time>2026-04-26T14:44:36.003Z</time></trkpt><trkpt lat="45.117135677228646" lon="8.408058318678767"><ele>261.2</ele><time>2026-04-26T14:44:37.003Z</time></trkpt><trkpt lat="45.11709845586028" lon="8.407908031555374"><ele>262.4</ele><time>2026-04-26T14:44:38.003Z</time></trkpt><trkpt lat="45.11705838026156" lon="8.407768007748281"><ele>263.6</ele><time>2026-04-26T14:44:39.003Z</time></trkpt><trkpt lat="45.11700316102791" lon="8.407648596876266"><ele>264.8</ele><time>2026-04-26T14:44:40.003Z</time></trkpt><trkpt lat="45.116923812389665" lon="8.407548906630828"><ele>266.0</ele><time>2026-04-26T14:44:41.003Z</time></trkpt><trkpt lat="45.11683851291998" lon="8.407446635671585"><ele>266.0</ele><time>2026-04-26T14:44:42.003Z</time></trkpt><trkpt lat="45.11674551153118" lon="8.407353727025553"><ele>266.0</ele><time>2026-04-26T14:44:43.003Z</time></trkpt><trkpt lat="45.11664870960732" lon="8.407260641888826"><ele>266.0</ele><time>2026-04-26T14:44:44.003Z</time></trkpt><trkpt lat="45.11655349125147" lon="8.407172777551455"><ele>266.0</ele><time>2026-04-26T14:44:45.002Z</time></trkpt><trkpt lat="45.11646815881795" lon="8.40709649758565"><ele>266.0</ele><time>2026-04-26T14:44:46.002Z</time></trkpt><trkpt lat="45.11639425899675" lon="8.407019987970966"><ele>265.8</ele><time>2026-04-26T14:44:47.003Z</time></trkpt><trkpt lat="45.11633223728255" lon="8.406941314250075"><ele>265.6</ele><time>2026-04-26T14:44:48.002Z</time></trkpt><trkpt lat="45.11627528184424" lon="8.406845353213992"><ele>265.4</ele><time>2026-04-26T14:44:49.002Z</time></trkpt><trkpt lat="45.11622889661658" lon="8.406708986727121"><ele>265.2</ele><time>2026-04-26T14:44:50.003Z</time></trkpt><trkpt lat="45.11616407223519" lon="8.406573652891288"><ele>265.0</ele><time>2026-04-26T14:44:51.002Z</time></trkpt><trkpt lat="45.11609222874683" lon="8.40643788983762"><ele>263.75</ele><time>2026-04-26T14:44:52.002Z</time></trkpt><trkpt lat="45.11601584110517" lon="8.406293539692149"><ele>262.5</ele><time>2026-04-26T14:44:53.002Z</time></trkpt><trkpt lat="45.11592343854823" lon="8.40615438024034"><ele>261.25</ele><time>2026-04-26T14:44:54.002Z</time></trkpt><trkpt lat="45.115849632586524" lon="8.405990017201981"><ele>260.0</ele><time>2026-04-26T14:44:55.002Z</time></trkpt><trkpt lat="45.11576804561426" lon="8.405824758134715"><ele>261.5</ele><time>2026-04-26T14:44:56.002Z</time></trkpt><trkpt lat="45.11568776141294" lon="8.405656245680069"><ele>263.0</ele><time>2026-04-26T14:44:57.003Z</time></trkpt><trkpt lat="45.11561075324044" lon="8.405498431874001"><ele>264.5</ele><time>2026-04-26T14:44:58.003Z</time></trkpt><trkpt lat="45.11553375144438" lon="8.40534996047687"><ele>266.0</ele><time>2026-04-26T14:44:59.003Z</time></trkpt><trkpt lat="45.115452553836256" lon="8.405201608765609"><ele>266.0</ele><time>2026-04-26T14:45:00.003Z</time></trkpt><trkpt lat="45.115372611539726" lon="8.405048743948077"><ele>266.0</ele><time>2026-04-26T14:45:01.003Z</time></trkpt><trkpt lat="45.11529072138418" lon="8.404895713612158"><ele>266.0</ele><time>2026-04-26T14:45:02.003Z</time></trkpt><trkpt lat="45.11520927437108" lon="8.404739299281799"><ele>266.0</ele><time>2026-04-26T14:45:03.003Z</time></trkpt><trkpt lat="45.11512661764933" lon="8.404581487696573"><ele>265.75</ele><time>2026-04-26T14:45:04.003Z</time></trkpt><trkpt lat="45.11504410044876" lon="8.40442470926719"><ele>265.5</ele><time>2026-04-26T14:45:05.003Z</time></trkpt><trkpt lat="45.11496162139835" lon="8.404273232184455"><ele>265.25</ele><time>2026-04-26T14:45:06.003Z</time></trkpt><trkpt lat="45.11487857587893" lon="8.404123958408475"><ele>265.0</ele><time>2026-04-26T14:45:07.003Z</time></trkpt><trkpt lat="45.114797358649895" lon="8.403978270212866"><ele>265.25</ele><time>2026-04-26T14:45:08.003Z</time></trkpt><trkpt lat="45.114734065335085" lon="8.403827639639374"><ele>265.5</ele><time>2026-04-26T14:45:09.003Z</time></trkpt><trkpt lat="45.11465910058006" lon="8.403690085932666"><ele>265.75</ele><time>2026-04-26T14:45:10.003Z</time></trkpt><trkpt lat="45.11458480757033" lon="8.4035562028447"><ele>266.0</ele><time>2026-04-26T14:45:11.003Z</time></trkpt><trkpt lat="45.11450970870585" lon="8.40342049586018"><ele>266.0</ele><time>2026-04-26T14:45:12.003Z</time></trkpt><trkpt lat="45.11443319917259" lon="8.403284902590517"><ele>266.0</ele><time>2026-04-26T14:45:13.003Z</time></trkpt><trkpt lat="45.11435733273634" lon="8.403152949414185"><ele>266.0</ele><time>2026-04-26T14:45:14.003Z</time></trkpt><trkpt lat="45.114285755049316" lon="8.403022002647463"><ele>266.0</ele><time>2026-04-26T14:45:15.003Z</time></trkpt><trkpt lat="45.11421839235017" lon="8.402901693623605"><ele>266.0</ele><time>2026-04-26T14:45:16.003Z</time></trkpt><trkpt lat="45.114159497560024" lon="8.402791185156028"><ele>266.0</ele><time>2026-04-26T14:45:17.003Z</time></trkpt><trkpt lat="45.11411152110284" lon="8.402689186085649"><ele>266.0</ele><time>2026-04-26T14:45:18.003Z</time></trkpt><trkpt lat="45.114073186103646" lon="8.402596755992196"><ele>266.0</ele><time>2026-04-26T14:45:19.003Z</time></trkpt><trkpt lat="45.11404823798937" lon="8.402504350609888"><ele>266.0</ele><time>2026-04-26T14:45:20.003Z</time></trkpt><trkpt lat="45.11403633805213" lon="8.402405157953732"><ele>266.0</ele><time>2026-04-26T14:45:21.003Z</time></trkpt><trkpt lat="45.11403755933376" lon="8.402292296721628"><ele>266.8</ele><time>2026-04-26T14:45:22.003Z</time></trkpt><trkpt lat="45.11404926861754" lon="8.402164152315658"><ele>267.6</ele><time>2026-04-26T14:45:23.003Z</time></trkpt><trkpt lat="45.11406576856632" lon="8.402027585199388"><ele>268.4</ele><time>2026-04-26T14:45:24.003Z</time></trkpt><trkpt lat="45.114090297280335" lon="8.401884291900435"><ele>269.2</ele><time>2026-04-26T14:45:25.003Z</time></trkpt><trkpt lat="45.11411794141541" lon="8.401734796541527"><ele>270.0</ele><time>2026-04-26T14:45:26.003Z</time></trkpt><trkpt lat="45.114150085769566" lon="8.401583259150254"><ele>271.4</ele><time>2026-04-26T14:45:27.003Z</time></trkpt><trkpt lat="45.114189915313545" lon="8.40143227784982"><ele>272.8</ele><time>2026-04-26T14:45:28.003Z</time></trkpt><trkpt lat="45.1142411196055" lon="8.401286394711262"><ele>274.2</ele><time>2026-04-26T14:45:29.003Z</time></trkpt><trkpt lat="45.114296311761045" lon="8.401164255922708"><ele>275.6</ele><time>2026-04-26T14:45:30.003Z</time></trkpt><trkpt lat="45.11436502428541" lon="8.4010530801946"><ele>277.0</ele><time>2026-04-26T14:45:31.003Z</time></trkpt><trkpt lat="45.11444663710177" lon="8.400962383899266"><ele>277.4</ele><time>2026-04-26T14:45:32.003Z</time></trkpt><trkpt lat="45.11452716819124" lon="8.40089812264999"><ele>277.79999999999995</ele><time>2026-04-26T14:45:33.003Z</time></trkpt><trkpt lat="45.114616449950965" lon="8.40085942683816"><ele>278.2</ele><time>2026-04-26T14:45:34.003Z</time></trkpt><trkpt lat="45.11468886288407" lon="8.400795041327871"><ele>278.59999999999997</ele><time>2026-04-26T14:45:35.003Z</time></trkpt><trkpt lat="45.114756477839286" lon="8.400707591092734"><ele>279.0</ele><time>2026-04-26T14:45:36.003Z</time></trkpt><trkpt lat="45.1148097252548" lon="8.400589067597842"><ele>279.0</ele><time>2026-04-26T14:45:37.003Z</time></trkpt><trkpt lat="45.11485077522321" lon="8.400449153776606"><ele>279.0</ele><time>2026-04-26T14:45:38.003Z</time></trkpt><trkpt lat="45.11488600787242" lon="8.400286735935712"><ele>279.0</ele><time>2026-04-26T14:45:39.003Z</time></trkpt><trkpt lat="45.11492516445322" lon="8.400118403650929"><ele>279.0</ele><time>2026-04-26T14:45:40.003Z</time></trkpt><trkpt lat="45.11495384244913" lon="8.399932456580856"><ele>279.0</ele><time>2026-04-26T14:45:41.003Z</time></trkpt><trkpt lat="45.11501308307279" lon="8.399752266126448"><ele>279.0</ele><time>2026-04-26T14:45:42.003Z</time></trkpt><trkpt lat="45.115063242143016" lon="8.399558111763548"><ele>279.0</ele><time>2026-04-26T14:45:43.003Z</time></trkpt><trkpt lat="45.11511463240993" lon="8.39936924776892"><ele>279.0</ele><time>2026-04-26T14:45:44.003Z</time></trkpt><trkpt lat="45.11516816648531" lon="8.399187239436637"><ele>279.0</ele><time>2026-04-26T14:45:45.003Z</time></trkpt><trkpt lat="45.11522012299767" lon="8.39900959695218"><ele>279.0</ele><time>2026-04-26T14:45:46.003Z</time></trkpt><trkpt lat="45.11526905870851" lon="8.39883422136816"><ele>279.0</ele><time>2026-04-26T14:45:47.003Z</time></trkpt><trkpt lat="45.11531837389514" lon="8.39865986978409"><ele>279.0</ele><time>2026-04-26T14:45:48.003Z</time></trkpt><trkpt lat="45.115367286407974" lon="8.398486486296763"><ele>279.0</ele><time>2026-04-26T14:45:49.003Z</time></trkpt><trkpt lat="45.115415720942046" lon="8.398318782777638"><ele>279.0</ele><time>2026-04-26T14:45:50.003Z</time></trkpt><trkpt lat="45.11546071714034" lon="8.398152228379093"><ele>279.0</ele><time>2026-04-26T14:45:51.003Z</time></trkpt><trkpt lat="45.115500306173814" lon="8.397988528276477"><ele>279.0</ele><time>2026-04-26T14:45:52.003Z</time></trkpt><trkpt lat="45.115535390845935" lon="8.397827834895498"><ele>278.0</ele><time>2026-04-26T14:45:53.003Z</time></trkpt><trkpt lat="45.11559249275046" lon="8.397670422293666"><ele>277.0</ele><time>2026-04-26T14:45:54.003Z</time></trkpt><trkpt lat="45.11562964504392" lon="8.397496002566605"><ele>276.0</ele><time>2026-04-26T14:45:55.003Z</time></trkpt><trkpt lat="45.11565962996854" lon="8.397318254387978"><ele>275.0</ele><time>2026-04-26T14:45:56.003Z</time></trkpt><trkpt lat="45.11569918151769" lon="8.397133474740777"><ele>275.5</ele><time>2026-04-26T14:45:57.003Z</time></trkpt><trkpt lat="45.115744461702455" lon="8.396947798337477"><ele>276.0</ele><time>2026-04-26T14:45:58.003Z</time></trkpt><trkpt lat="45.115790977843865" lon="8.396773709297339"><ele>276.5</ele><time>2026-04-26T14:45:59.003Z</time></trkpt><trkpt lat="45.11583793486042" lon="8.396606544708407"><ele>277.0</ele><time>2026-04-26T14:46:00.003Z</time></trkpt><trkpt lat="45.11587982822666" lon="8.396447878831147"><ele>276.0</ele><time>2026-04-26T14:46:01.003Z</time></trkpt><trkpt lat="45.11591259643264" lon="8.396289456832694"><ele>275.0</ele><time>2026-04-26T14:46:02.003Z</time></trkpt><trkpt lat="45.115931550951395" lon="8.396129472037531"><ele>274.0</ele><time>2026-04-26T14:46:03.003Z</time></trkpt><trkpt lat="45.115936387083934" lon="8.39595903767541"><ele>273.0</ele><time>2026-04-26T14:46:04.003Z</time></trkpt><trkpt lat="45.11592330211665" lon="8.395776728977818"><ele>273.0</ele><time>2026-04-26T14:46:05.003Z</time></trkpt><trkpt lat="45.115898470070455" lon="8.395586927038377"><ele>273.0</ele><time>2026-04-26T14:46:06.003Z</time></trkpt><trkpt lat="45.115874801663544" lon="8.39539749208391"><ele>273.0</ele><time>2026-04-26T14:46:07.003Z</time></trkpt><trkpt lat="45.11586247194936" lon="8.395208916406188"><ele>273.0</ele><time>2026-04-26T14:46:08.003Z</time></trkpt><trkpt lat="45.115868364726204" lon="8.395022712603733"><ele>272.5</ele><time>2026-04-26T14:46:09.003Z</time></trkpt><trkpt lat="45.11589045392711" lon="8.394835454601004"><ele>272.0</ele><time>2026-04-26T14:46:10.003Z</time></trkpt><trkpt lat="45.11592227671275" lon="8.394640862577493"><ele>271.5</ele><time>2026-04-26T14:46:11.003Z</time></trkpt><trkpt lat="45.11596144628036" lon="8.39444692262387"><ele>271.0</ele><time>2026-04-26T14:46:12.003Z</time></trkpt><trkpt lat="45.11600073649378" lon="8.394255117519181"><ele>270.75</ele><time>2026-04-26T14:46:13.003Z</time></trkpt><trkpt lat="45.116038632198254" lon="8.394070108424785"><ele>270.5</ele><time>2026-04-26T14:46:14.003Z</time></trkpt><trkpt lat="45.11607345843667" lon="8.393891930632147"><ele>270.25</ele><time>2026-04-26T14:46:15.003Z</time></trkpt><trkpt lat="45.11610963560364" lon="8.393724425056936"><ele>270.0</ele><time>2026-04-26T14:46:16.003Z</time></trkpt><trkpt lat="45.11614809028211" lon="8.393562711976744"><ele>269.25</ele><time>2026-04-26T14:46:17.003Z</time></trkpt><trkpt lat="45.11619219970104" lon="8.393407001550322"><ele>268.5</ele><time>2026-04-26T14:46:18.003Z</time></trkpt><trkpt lat="45.116264834487986" lon="8.393269272684748"><ele>267.75</ele><time>2026-04-26T14:46:19.003Z</time></trkpt><trkpt lat="45.116338799140465" lon="8.39311578745781"><ele>267.0</ele><time>2026-04-26T14:46:20.003Z</time></trkpt><trkpt lat="45.11641892996254" lon="8.392959128266643"><ele>266.0</ele><time>2026-04-26T14:46:21.003Z</time></trkpt><trkpt lat="45.11650171503369" lon="8.392799622104032"><ele>265.0</ele><time>2026-04-26T14:46:22.003Z</time></trkpt><trkpt lat="45.11658167712222" lon="8.392639897553686"><ele>264.0</ele><time>2026-04-26T14:46:23.003Z</time></trkpt><trkpt lat="45.11666016417311" lon="8.392481811264878"><ele>263.0</ele><time>2026-04-26T14:46:24.003Z</time></trkpt><trkpt lat="45.11673576855376" lon="8.392328113495562"><ele>263.0</ele><time>2026-04-26T14:46:25.003Z</time></trkpt><trkpt lat="45.11680848193102" lon="8.39217558962052"><ele>263.0</ele><time>2026-04-26T14:46:26.003Z</time></trkpt><trkpt lat="45.11686322414946" lon="8.392005409074779"><ele>263.0</ele><time>2026-04-26T14:46:27.003Z</time></trkpt><trkpt lat="45.11693114291742" lon="8.391852084689923"><ele>263.0</ele><time>2026-04-26T14:46:28.003Z</time></trkpt><trkpt lat="45.11698480116611" lon="8.391693975586904"><ele>263.0</ele><time>2026-04-26T14:46:29.003Z</time></trkpt><trkpt lat="45.117036957565915" lon="8.391538242591567"><ele>263.0</ele><time>2026-04-26T14:46:30.003Z</time></trkpt><trkpt lat="45.11708917290581" lon="8.391382644727816"><ele>263.0</ele><time>2026-04-26T14:46:31.003Z</time></trkpt><trkpt lat="45.117138531836304" lon="8.391223171177375"><ele>263.0</ele><time>2026-04-26T14:46:32.003Z</time></trkpt><trkpt lat="45.11717715052169" lon="8.391056198382186"><ele>262.25</ele><time>2026-04-26T14:46:33.003Z</time></trkpt><trkpt lat="45.11722286291324" lon="8.39089362164526"><ele>261.5</ele><time>2026-04-26T14:46:34.003Z</time></trkpt><trkpt lat="45.11724561721551" lon="8.390730817954552"><ele>260.75</ele><time>2026-04-26T14:46:35.003Z</time></trkpt><trkpt lat="45.11726921397565" lon="8.39057652112576"><ele>260.0</ele><time>2026-04-26T14:46:36.003Z</time></trkpt><trkpt lat="45.117294785747525" lon="8.390426553531919"><ele>260.0</ele><time>2026-04-26T14:46:37.003Z</time></trkpt><trkpt lat="45.11732784859878" lon="8.390277054320679"><ele>260.0</ele><time>2026-04-26T14:46:38.003Z</time></trkpt><trkpt lat="45.117354363381416" lon="8.390130069842295"><ele>260.0</ele><time>2026-04-26T14:46:39.003Z</time></trkpt><trkpt lat="45.11738127716181" lon="8.389977670181507"><ele>260.0</ele><time>2026-04-26T14:46:40.003Z</time></trkpt><trkpt lat="45.11741492598809" lon="8.389814752452626"><ele>260.0</ele><time>2026-04-26T14:46:41.003Z</time></trkpt><trkpt lat="45.11745023164641" lon="8.389647444638255"><ele>260.75</ele><time>2026-04-26T14:46:42.003Z</time></trkpt><trkpt lat="45.1174864991809" lon="8.389478285903968"><ele>261.5</ele><time>2026-04-26T14:46:43.003Z</time></trkpt><trkpt lat="45.11752738141104" lon="8.38930662098771"><ele>262.25</ele><time>2026-04-26T14:46:44.003Z</time></trkpt><trkpt lat="45.11757317211915" lon="8.389140852031892"><ele>263.0</ele><time>2026-04-26T14:46:45.003Z</time></trkpt><trkpt lat="45.11762375743956" lon="8.388976198530594"><ele>263.5</ele><time>2026-04-26T14:46:46.003Z</time></trkpt><trkpt lat="45.11767634662154" lon="8.388814594177182"><ele>264.0</ele><time>2026-04-26T14:46:47.003Z</time></trkpt><trkpt lat="45.11772223172612" lon="8.38864650886255"><ele>264.5</ele><time>2026-04-26T14:46:48.003Z</time></trkpt><trkpt lat="45.117773643614434" lon="8.388482383498554"><ele>265.0</ele><time>2026-04-26T14:46:49.003Z</time></trkpt><trkpt lat="45.11779957434759" lon="8.388305627094677"><ele>265.0</ele><time>2026-04-26T14:46:50.002Z</time></trkpt><trkpt lat="45.11780104162105" lon="8.388124537869619"><ele>265.0</ele><time>2026-04-26T14:46:51.002Z</time></trkpt><trkpt lat="45.11782968058361" lon="8.387945852330995"><ele>265.0</ele><time>2026-04-26T14:46:52.002Z</time></trkpt><trkpt lat="45.1178401598497" lon="8.387766952780895"><ele>265.0</ele><time>2026-04-26T14:46:53.002Z</time></trkpt><trkpt lat="45.1178486450444" lon="8.38759539478507"><ele>266.25</ele><time>2026-04-26T14:46:54.003Z</time></trkpt><trkpt lat="45.11784074738212" lon="8.387426642708313"><ele>267.5</ele><time>2026-04-26T14:46:55.003Z</time></trkpt><trkpt lat="45.11785312620867" lon="8.38726815985633"><ele>268.75</ele><time>2026-04-26T14:46:56.003Z</time></trkpt><trkpt lat="45.11786296106636" lon="8.387112622294426"><ele>270.0</ele><time>2026-04-26T14:46:57.002Z</time></trkpt><trkpt lat="45.11786843006137" lon="8.386958410397986"><ele>270.8</ele><time>2026-04-26T14:46:58.002Z</time></trkpt><trkpt lat="45.117868604868235" lon="8.386807039281818"><ele>271.6</ele><time>2026-04-26T14:46:59.002Z</time></trkpt><trkpt lat="45.11787811870659" lon="8.386662325677245"><ele>272.4</ele><time>2026-04-26T14:47:00.002Z</time></trkpt><trkpt lat="45.117879486120565" lon="8.38651626383075"><ele>273.2</ele><time>2026-04-26T14:47:01.002Z</time></trkpt><trkpt lat="45.117877207119726" lon="8.386368512813553"><ele>274.0</ele><time>2026-04-26T14:47:02.002Z</time></trkpt><trkpt lat="45.11787500549987" lon="8.386220089793193"><ele>274.4</ele><time>2026-04-26T14:47:03.002Z</time></trkpt><trkpt lat="45.11786791441624" lon="8.38607420312011"><ele>274.79999999999995</ele><time>2026-04-26T14:47:04.002Z</time></trkpt><trkpt lat="45.117858330991204" lon="8.385927117425432"><ele>275.20000000000005</ele><time>2026-04-26T14:47:05.002Z</time></trkpt><trkpt lat="45.117850950924534" lon="8.385790633768396"><ele>275.6</ele><time>2026-04-26T14:47:06.002Z</time></trkpt><trkpt lat="45.117843779344824" lon="8.385656144120741"><ele>276.0</ele><time>2026-04-26T14:47:07.002Z</time></trkpt><trkpt lat="45.117835726505" lon="8.385514962649422"><ele>276.0</ele><time>2026-04-26T14:47:08.002Z</time></trkpt><trkpt lat="45.11782504904377" lon="8.385377941261167"><ele>276.0</ele><time>2026-04-26T14:47:09.002Z</time></trkpt><trkpt lat="45.11781677687314" lon="8.38525562523088"><ele>276.0</ele><time>2026-04-26T14:47:10.002Z</time></trkpt><trkpt lat="45.117809012620626" lon="8.38513929143283"><ele>276.0</ele><time>2026-04-26T14:47:11.002Z</time></trkpt><trkpt lat="45.11779805619195" lon="8.385026363283048"><ele>276.0</ele><time>2026-04-26T14:47:12.002Z</time></trkpt><trkpt lat="45.1177888663929" lon="8.384914019555724"><ele>276.0</ele><time>2026-04-26T14:47:13.002Z</time></trkpt><trkpt lat="45.11777970929171" lon="8.384809108816938"><ele>276.0</ele><time>2026-04-26T14:47:14.002Z</time></trkpt><trkpt lat="45.11777207989084" lon="8.384715969585976"><ele>276.0</ele><time>2026-04-26T14:47:15.002Z</time></trkpt><trkpt lat="45.11775469368704" lon="8.384564470417105"><ele>276.0</ele><time>2026-04-26T14:47:17.002Z</time></trkpt><trkpt lat="45.117760575827816" lon="8.384450888198538"><ele>276.0</ele><time>2026-04-26T14:47:20.002Z</time></trkpt><trkpt lat="45.11785331381209" lon="8.384393322272269"><ele>276.0</ele><time>2026-04-26T14:47:24.002Z</time></trkpt><trkpt lat="45.11792267160015" lon="8.384380513758018"><ele>276.0</ele><time>2026-04-26T14:47:26.002Z</time></trkpt><trkpt lat="45.11804122908144" lon="8.384328256288253"><ele>276.0</ele><time>2026-04-26T14:47:28.002Z</time></trkpt><trkpt lat="45.11811414052267" lon="8.384303311577122"><ele>276.0</ele><time>2026-04-26T14:47:29.002Z</time></trkpt><trkpt lat="45.11818927120456" lon="8.384277976229097"><ele>276.0</ele><time>2026-04-26T14:47:30.002Z</time></trkpt><trkpt lat="45.11827110169015" lon="8.384253057369495"><ele>276.0</ele><time>2026-04-26T14:47:31.002Z</time></trkpt><trkpt lat="45.11836109272043" lon="8.384229070920567"><ele>276.0</ele><time>2026-04-26T14:47:32.002Z</time></trkpt><trkpt lat="45.11845245847184" lon="8.384207048467081"><ele>276.0</ele><time>2026-04-26T14:47:33.002Z</time></trkpt><trkpt lat="45.118540882258465" lon="8.384182557289378"><ele>276.0</ele><time>2026-04-26T14:47:34.002Z</time></trkpt><trkpt lat="45.11862109541292" lon="8.384155451708676"><ele>276.0</ele><time>2026-04-26T14:47:35.002Z</time></trkpt><trkpt lat="45.118705684347134" lon="8.38412865299784"><ele>276.0</ele><time>2026-04-26T14:47:36.002Z</time></trkpt><trkpt lat="45.11879043846513" lon="8.384098643737254"><ele>276.0</ele><time>2026-04-26T14:47:37.002Z</time></trkpt><trkpt lat="45.11887316000271" lon="8.384056758970203"><ele>276.0</ele><time>2026-04-26T14:47:38.002Z</time></trkpt><trkpt lat="45.11896219899351" lon="8.384028187127397"><ele>276.0</ele><time>2026-04-26T14:47:39.002Z</time></trkpt><trkpt lat="45.11904307332418" lon="8.383949835565504"><ele>274.8</ele><time>2026-04-26T14:47:40.002Z</time></trkpt><trkpt lat="45.1191284799556" lon="8.38388943071269"><ele>273.6</ele><time>2026-04-26T14:47:41.002Z</time></trkpt><trkpt lat="45.11921897422464" lon="8.383834874759028"><ele>272.4</ele><time>2026-04-26T14:47:42.002Z</time></trkpt><trkpt lat="45.11929762572917" lon="8.383778472980987"><ele>271.2</ele><time>2026-04-26T14:47:43.002Z</time></trkpt><trkpt lat="45.11937247871919" lon="8.383722581452384"><ele>270.0</ele><time>2026-04-26T14:47:44.002Z</time></trkpt><trkpt lat="45.11944451237955" lon="8.38366132366353"><ele>269.8</ele><time>2026-04-26T14:47:45.002Z</time></trkpt><trkpt lat="45.11951900431243" lon="8.383597549111174"><ele>269.6</ele><time>2026-04-26T14:47:46.002Z</time></trkpt><trkpt lat="45.11959945951654" lon="8.383533417934277"><ele>269.4</ele><time>2026-04-26T14:47:47.002Z</time></trkpt><trkpt lat="45.119681470977994" lon="8.383468731922454"><ele>269.2</ele><time>2026-04-26T14:47:48.002Z</time></trkpt><trkpt lat="45.11976535172025" lon="8.383394732230576"><ele>269.0</ele><time>2026-04-26T14:47:49.002Z</time></trkpt><trkpt lat="45.119844395180344" lon="8.383315908082508"><ele>268.33333333333337</ele><time>2026-04-26T14:47:50.002Z</time></trkpt><trkpt lat="45.11993768585006" lon="8.383254478603765"><ele>267.6666666666667</ele><time>2026-04-26T14:47:51.002Z</time></trkpt><trkpt lat="45.120014046052034" lon="8.383182289830966"><ele>267.0</ele><time>2026-04-26T14:47:52.002Z</time></trkpt><trkpt lat="45.12008425487738" lon="8.383117454861512"><ele>266.3333333333333</ele><time>2026-04-26T14:47:53.002Z</time></trkpt><trkpt lat="45.120151402366005" lon="8.383054119616355"><ele>265.66666666666663</ele><time>2026-04-26T14:47:54.002Z</time></trkpt><trkpt lat="45.120219627847135" lon="8.382991139178165"><ele>265.0</ele><time>2026-04-26T14:47:55.002Z</time></trkpt><trkpt lat="45.120286547883715" lon="8.38293308298838"><ele>264.8</ele><time>2026-04-26T14:47:56.002Z</time></trkpt><trkpt lat="45.12035786497256" lon="8.38287432443449"><ele>264.6</ele><time>2026-04-26T14:47:57.002Z</time></trkpt><trkpt lat="45.120436455891635" lon="8.382810396535499"><ele>264.4</ele><time>2026-04-26T14:47:58.002Z</time></trkpt><trkpt lat="45.12051725173299" lon="8.382738731073923"><ele>264.2</ele><time>2026-04-26T14:47:59.002Z</time></trkpt><trkpt lat="45.12060911672926" lon="8.382670956222242"><ele>264.0</ele><time>2026-04-26T14:48:00.002Z</time></trkpt><trkpt lat="45.12070702561074" lon="8.382602554603256"><ele>264.0</ele><time>2026-04-26T14:48:01.002Z</time></trkpt><trkpt lat="45.12080997327544" lon="8.382526353881868"><ele>264.0</ele><time>2026-04-26T14:48:02.002Z</time></trkpt><trkpt lat="45.120923073035236" lon="8.382448686316694"><ele>264.0</ele><time>2026-04-26T14:48:03.002Z</time></trkpt><trkpt lat="45.1210394771047" lon="8.382366101259798"><ele>264.0</ele><time>2026-04-26T14:48:04.002Z</time></trkpt><trkpt lat="45.12115732078154" lon="8.38228690658129"><ele>264.0</ele><time>2026-04-26T14:48:05.002Z</time></trkpt><trkpt lat="45.1212729669975" lon="8.382207001677482"><ele>264.0</ele><time>2026-04-26T14:48:06.002Z</time></trkpt><trkpt lat="45.12138602393172" lon="8.382132205460072"><ele>264.0</ele><time>2026-04-26T14:48:07.002Z</time></trkpt><trkpt lat="45.12149915874885" lon="8.38206513378162"><ele>264.0</ele><time>2026-04-26T14:48:08.002Z</time></trkpt><trkpt lat="45.121609419715604" lon="8.382006522813086"><ele>263.25</ele><time>2026-04-26T14:48:09.002Z</time></trkpt><trkpt lat="45.12171905806681" lon="8.381948883794152"><ele>262.5</ele><time>2026-04-26T14:48:10.002Z</time></trkpt><trkpt lat="45.12183024795591" lon="8.381899685911353"><ele>261.75</ele><time>2026-04-26T14:48:11.002Z</time></trkpt><trkpt lat="45.121943503741385" lon="8.381861521463073"><ele>261.0</ele><time>2026-04-26T14:48:12.002Z</time></trkpt><trkpt lat="45.12205996254005" lon="8.381822783339508"><ele>261.0</ele><time>2026-04-26T14:48:13.002Z</time></trkpt><trkpt lat="45.122177642264376" lon="8.381787601772757"><ele>261.0</ele><time>2026-04-26T14:48:14.002Z</time></trkpt><trkpt lat="45.12229649377218" lon="8.381755376472627"><ele>261.0</ele><time>2026-04-26T14:48:15.002Z</time></trkpt><trkpt lat="45.12241467317236" lon="8.381721390358699"><ele>261.0</ele><time>2026-04-26T14:48:16.002Z</time></trkpt><trkpt lat="45.12252731394965" lon="8.38170888482401"><ele>262.6</ele><time>2026-04-26T14:48:17.002Z</time></trkpt><trkpt lat="45.12262948506465" lon="8.381667525876797"><ele>264.20000000000005</ele><time>2026-04-26T14:48:18.002Z</time></trkpt><trkpt lat="45.12272523306878" lon="8.381626652655576"><ele>265.79999999999995</ele><time>2026-04-26T14:48:19.002Z</time></trkpt><trkpt lat="45.12282284819268" lon="8.381598273338282"><ele>267.4</ele><time>2026-04-26T14:48:20.002Z</time></trkpt><trkpt lat="45.12290435488953" lon="8.381556258311544"><ele>269.0</ele><time>2026-04-26T14:48:21.002Z</time></trkpt><trkpt lat="45.12297882529111" lon="8.381513404896541"><ele>269.0</ele><time>2026-04-26T14:48:22.002Z</time></trkpt><trkpt lat="45.123043591418124" lon="8.381474004187293"><ele>269.0</ele><time>2026-04-26T14:48:23.002Z</time></trkpt><trkpt lat="45.12310575274869" lon="8.381439365996751"><ele>269.0</ele><time>2026-04-26T14:48:24.002Z</time></trkpt><trkpt lat="45.12317531419164" lon="8.38140979710945"><ele>269.0</ele><time>2026-04-26T14:48:25.002Z</time></trkpt><trkpt lat="45.12325595340487" lon="8.38139432402531"><ele>269.0</ele><time>2026-04-26T14:48:26.002Z</time></trkpt><trkpt lat="45.123346384740685" lon="8.381377383479206"><ele>269.0</ele><time>2026-04-26T14:48:27.002Z</time></trkpt><trkpt lat="45.12343850377816" lon="8.381361445976156"><ele>270.59999999999997</ele><time>2026-04-26T14:48:28.002Z</time></trkpt><trkpt lat="45.12352982555134" lon="8.38134391869007"><ele>272.2</ele><time>2026-04-26T14:48:29.002Z</time></trkpt><trkpt lat="45.123618021754204" lon="8.381310123739587"><ele>273.79999999999995</ele><time>2026-04-26T14:48:30.002Z</time></trkpt><trkpt lat="45.1237172191939" lon="8.38128797229793"><ele>275.4</ele><time>2026-04-26T14:48:31.002Z</time></trkpt><trkpt lat="45.123800436031864" lon="8.381240644162324"><ele>277.0</ele><time>2026-04-26T14:48:32.002Z</time></trkpt><trkpt lat="45.123874387379075" lon="8.381195557453966"><ele>277.0</ele><time>2026-04-26T14:48:33.002Z</time></trkpt><trkpt lat="45.12394067030813" lon="8.381154132565333"><ele>277.0</ele><time>2026-04-26T14:48:34.002Z</time></trkpt><trkpt lat="45.12400269579147" lon="8.381116906498917"><ele>277.0</ele><time>2026-04-26T14:48:35.002Z</time></trkpt><trkpt lat="45.12409863381552" lon="8.381067081490386"><ele>277.0</ele><time>2026-04-26T14:48:37.002Z</time></trkpt><trkpt lat="45.12416959575684" lon="8.381063673552939"><ele>277.0</ele><time>2026-04-26T14:48:39.002Z</time></trkpt><trkpt lat="45.124254305693356" lon="8.381132281580209"><ele>277.0</ele><time>2026-04-26T14:48:42.002Z</time></trkpt><trkpt lat="45.12430826427365" lon="8.381263395294571"><ele>277.66666666666663</ele><time>2026-04-26T14:48:44.002Z</time></trkpt><trkpt lat="45.12437075039887" lon="8.381401686473074"><ele>278.3333333333333</ele><time>2026-04-26T14:48:46.002Z</time></trkpt><trkpt lat="45.12442225160646" lon="8.381489503065747"><ele>279.0</ele><time>2026-04-26T14:48:48.002Z</time></trkpt><trkpt lat="45.12440508451345" lon="8.381428731424117"><ele>279.6666666666667</ele><time>2026-04-26T14:49:30.987Z</time></trkpt><trkpt lat="45.124343546895645" lon="8.38128040726861"><ele>280.33333333333337</ele><time>2026-04-26T14:49:32.987Z</time></trkpt><trkpt lat="45.12430871642353" lon="8.38120496805321"><ele>281.0</ele><time>2026-04-26T14:49:33.986Z</time></trkpt><trkpt lat="45.12424441666062" lon="8.381085786826267"><ele>281.0</ele><time>2026-04-26T14:49:35.986Z</time></trkpt><trkpt lat="45.124169366628024" lon="8.381033335187723"><ele>281.0</ele><time>2026-04-26T14:49:37.985Z</time></trkpt><trkpt lat="45.12412221652097" lon="8.380963699477936"><ele>281.0</ele><time>2026-04-26T14:49:39.985Z</time></trkpt><trkpt lat="45.123887075087886" lon="8.3811466743765"><ele>281.0</ele><time>2026-04-26T14:49:41.985Z</time></trkpt><trkpt lat="45.12381340953561" lon="8.38118507117871"><ele>280.33333333333337</ele><time>2026-04-26T14:49:42.984Z</time></trkpt><trkpt lat="45.12373884245702" lon="8.381221133982518"><ele>279.6666666666667</ele><time>2026-04-26T14:49:43.984Z</time></trkpt><trkpt lat="45.12366377812662" lon="8.381257879276239"><ele>279.0</ele><time>2026-04-26T14:49:44.984Z</time></trkpt><trkpt lat="45.12358842464119" lon="8.381289952148549"><ele>278.3333333333333</ele><time>2026-04-26T14:49:45.984Z</time></trkpt><trkpt lat="45.12351168230134" lon="8.381306654550107"><ele>277.66666666666663</ele><time>2026-04-26T14:49:46.984Z</time></trkpt><trkpt lat="45.12343321640398" lon="8.381316109317499"><ele>277.0</ele><time>2026-04-26T14:49:47.984Z</time></trkpt><trkpt lat="45.123348034883506" lon="8.38132772046574"><ele>277.0</ele><time>2026-04-26T14:49:48.984Z</time></trkpt><trkpt lat="45.12325743141395" lon="8.381342127579563"><ele>277.0</ele><time>2026-04-26T14:49:49.984Z</time></trkpt><trkpt lat="45.123166534272414" lon="8.381370479653564"><ele>277.0</ele><time>2026-04-26T14:49:50.983Z</time></trkpt><trkpt lat="45.123085883834506" lon="8.381398038430234"><ele>277.0</ele><time>2026-04-26T14:49:51.983Z</time></trkpt><trkpt lat="45.123011563531605" lon="8.381429846465844"><ele>277.0</ele><time>2026-04-26T14:49:52.983Z</time></trkpt><trkpt lat="45.12294240694238" lon="8.381468427812719"><ele>277.0</ele><time>2026-04-26T14:49:53.983Z</time></trkpt><trkpt lat="45.122871474961045" lon="8.381504356467843"><ele>275.4</ele><time>2026-04-26T14:49:54.983Z</time></trkpt><trkpt lat="45.122791267611625" lon="8.38154655818185"><ele>273.79999999999995</ele><time>2026-04-26T14:49:55.983Z</time></trkpt><trkpt lat="45.12270382162446" lon="8.381585642976292"><ele>272.2</ele><time>2026-04-26T14:49:56.983Z</time></trkpt><trkpt lat="45.1226080564302" lon="8.381620755176748"><ele>270.59999999999997</ele><time>2026-04-26T14:49:57.983Z</time></trkpt><trkpt lat="45.12249906684382" lon="8.38165811166455"><ele>269.0</ele><time>2026-04-26T14:49:58.983Z</time></trkpt><trkpt lat="45.122392404183785" lon="8.38168940076326"><ele>267.4</ele><time>2026-04-26T14:49:59.983Z</time></trkpt><trkpt lat="45.122290264778776" lon="8.381720638321816"><ele>265.79999999999995</ele><time>2026-04-26T14:50:00.983Z</time></trkpt><trkpt lat="45.122192492965056" lon="8.381753812844938"><ele>264.20000000000005</ele><time>2026-04-26T14:50:01.983Z</time></trkpt><trkpt lat="45.12209680319879" lon="8.38178313171262"><ele>262.6</ele><time>2026-04-26T14:50:02.983Z</time></trkpt><trkpt lat="45.12200085005304" lon="8.381813707531405"><ele>261.0</ele><time>2026-04-26T14:50:03.983Z</time></trkpt><trkpt lat="45.121907077111935" lon="8.381848944236593"><ele>261.0</ele><time>2026-04-26T14:50:04.982Z</time></trkpt><trkpt lat="45.12181171970196" lon="8.381890134076873"><ele>261.0</ele><time>2026-04-26T14:50:05.982Z</time></trkpt><trkpt lat="45.1217129495775" lon="8.381937375208382"><ele>261.0</ele><time>2026-04-26T14:50:06.982Z</time></trkpt><trkpt lat="45.12161350276951" lon="8.381990083597291"><ele>261.0</ele><time>2026-04-26T14:50:07.982Z</time></trkpt><trkpt lat="45.12151198136415" lon="8.382045740886966"><ele>261.0</ele><time>2026-04-26T14:50:08.982Z</time></trkpt><trkpt lat="45.12141061817794" lon="8.382106789462789"><ele>261.75</ele><time>2026-04-26T14:50:09.982Z</time></trkpt><trkpt lat="45.121310304516626" lon="8.382164425958265"><ele>262.5</ele><time>2026-04-26T14:50:10.982Z</time></trkpt><trkpt lat="45.12120147335446" lon="8.382230230077825"><ele>263.25</ele><time>2026-04-26T14:50:11.982Z</time></trkpt><trkpt lat="45.12108907951678" lon="8.382298114324218"><ele>264.0</ele><time>2026-04-26T14:50:12.982Z</time></trkpt><trkpt lat="45.12097988220109" lon="8.382364913105517"><ele>264.0</ele><time>2026-04-26T14:50:13.982Z</time></trkpt><trkpt lat="45.120869276319205" lon="8.382436702675513"><ele>264.0</ele><time>2026-04-26T14:50:14.982Z</time></trkpt><trkpt lat="45.12075770512087" lon="8.382508679813117"><ele>264.0</ele><time>2026-04-26T14:50:15.982Z</time></trkpt><trkpt lat="45.12064959762853" lon="8.382584899583108"><ele>264.0</ele><time>2026-04-26T14:50:16.982Z</time></trkpt><trkpt lat="45.1205409393803" lon="8.382661656548457"><ele>264.0</ele><time>2026-04-26T14:50:17.982Z</time></trkpt><trkpt lat="45.12043583705359" lon="8.382739796208584"><ele>264.0</ele><time>2026-04-26T14:50:18.982Z</time></trkpt><trkpt lat="45.12033734403933" lon="8.382820232965816"><ele>264.0</ele><time>2026-04-26T14:50:19.982Z</time></trkpt><trkpt lat="45.12024127380186" lon="8.38290861821644"><ele>264.0</ele><time>2026-04-26T14:50:20.982Z</time></trkpt><trkpt lat="45.12013587280513" lon="8.383001285514183"><ele>264.25</ele><time>2026-04-26T14:50:21.982Z</time></trkpt><trkpt lat="45.12003709651746" lon="8.383096321265727"><ele>264.5</ele><time>2026-04-26T14:50:22.982Z</time></trkpt><trkpt lat="45.1199349814495" lon="8.383190179937579"><ele>264.75</ele><time>2026-04-26T14:50:23.982Z</time></trkpt><trkpt lat="45.11983342452762" lon="8.383274655578282"><ele>265.0</ele><time>2026-04-26T14:50:24.982Z</time></trkpt><trkpt lat="45.11973073778647" lon="8.38335971847276"><ele>266.0</ele><time>2026-04-26T14:50:25.982Z</time></trkpt><trkpt lat="45.11962704067691" lon="8.383446529398086"><ele>267.0</ele><time>2026-04-26T14:50:26.982Z</time></trkpt><trkpt lat="45.11952130907926" lon="8.383533224843385"><ele>268.0</ele><time>2026-04-26T14:50:27.982Z</time></trkpt><trkpt lat="45.119412404089225" lon="8.383618569244819"><ele>269.0</ele><time>2026-04-26T14:50:28.982Z</time></trkpt><trkpt lat="45.119302923620225" lon="8.383708205774797"><ele>269.0</ele><time>2026-04-26T14:50:29.982Z</time></trkpt><trkpt lat="45.11919343879425" lon="8.383797288648767"><ele>269.0</ele><time>2026-04-26T14:50:30.982Z</time></trkpt><trkpt lat="45.11908543493317" lon="8.383880470695072"><ele>269.0</ele><time>2026-04-26T14:50:31.982Z</time></trkpt><trkpt lat="45.118974223728735" lon="8.383952162307446"><ele>269.0</ele><time>2026-04-26T14:50:32.982Z</time></trkpt><trkpt lat="45.118865882092045" lon="8.384014243982387"><ele>270.4</ele><time>2026-04-26T14:50:33.982Z</time></trkpt><trkpt lat="45.11875315089265" lon="8.384061462684764"><ele>271.79999999999995</ele><time>2026-04-26T14:50:34.982Z</time></trkpt><trkpt lat="45.118648175765784" lon="8.384102099165471"><ele>273.20000000000005</ele><time>2026-04-26T14:50:35.982Z</time></trkpt><trkpt lat="45.1185437076409" lon="8.384135628359969"><ele>274.6</ele><time>2026-04-26T14:50:36.982Z</time></trkpt><trkpt lat="45.118444227138106" lon="8.384162599822856"><ele>276.0</ele><time>2026-04-26T14:50:37.982Z</time></trkpt><trkpt lat="45.11834573742405" lon="8.384192505015307"><ele>276.0</ele><time>2026-04-26T14:50:38.982Z</time></trkpt><trkpt lat="45.11825763207514" lon="8.384224831879418"><ele>276.0</ele><time>2026-04-26T14:50:39.982Z</time></trkpt><trkpt lat="45.11816449912975" lon="8.384255067848285"><ele>276.0</ele><time>2026-04-26T14:50:40.982Z</time></trkpt><trkpt lat="45.11807629997344" lon="8.384278676901843"><ele>276.0</ele><time>2026-04-26T14:50:41.982Z</time></trkpt><trkpt lat="45.11799649690247" lon="8.384296739305892"><ele>276.0</ele><time>2026-04-26T14:50:42.982Z</time></trkpt><trkpt lat="45.11792905376594" lon="8.38431119551355"><ele>276.0</ele><time>2026-04-26T14:50:43.982Z</time></trkpt><trkpt lat="45.11782285661442" lon="8.384337146870504"><ele>275.7142857142857</ele><time>2026-04-26T14:50:45.982Z</time></trkpt><trkpt lat="45.11776342259849" lon="8.38437358900379"><ele>275.42857142857144</ele><time>2026-04-26T14:50:48.982Z</time></trkpt><trkpt lat="45.117742959635926" lon="8.384472127367813"><ele>275.14285714285717</ele><time>2026-04-26T14:50:50.982Z</time></trkpt><trkpt lat="45.1177328378053" lon="8.38460383669057"><ele>274.8571428571429</ele><time>2026-04-26T14:50:52.982Z</time></trkpt><trkpt lat="45.117755173653556" lon="8.384636415967616"><ele>274.57142857142856</ele><time>2026-04-26T14:51:09.982Z</time></trkpt><trkpt lat="45.117758788471946" lon="8.384536177074912"><ele>274.28571428571433</ele><time>2026-04-26T14:51:21.982Z</time></trkpt><trkpt lat="45.11771854185971" lon="8.384446162045773"><ele>274.0</ele><time>2026-04-26T14:56:44.981Z</time></trkpt><trkpt lat="45.11764789743332" lon="8.384393371331592"><ele>274.0</ele><time>2026-04-26T14:56:46.981Z</time></trkpt><trkpt lat="45.11752315270635" lon="8.38438894981"><ele>274.0</ele><time>2026-04-26T14:56:48.981Z</time></trkpt><trkpt lat="45.117446746792865" lon="8.384392170193369"><ele>274.0</ele><time>2026-04-26T14:56:49.981Z</time></trkpt><trkpt lat="45.11736555557882" lon="8.384395024217564"><ele>274.0</ele><time>2026-04-26T14:56:50.981Z</time></trkpt><trkpt lat="45.11728731492366" lon="8.384393612405404"><ele>274.0</ele><time>2026-04-26T14:56:51.981Z</time></trkpt><trkpt lat="45.117215723142685" lon="8.384391792689563"><ele>274.0</ele><time>2026-04-26T14:56:52.981Z</time></trkpt><trkpt lat="45.11715734159519" lon="8.38434901846837"><ele>273.4</ele><time>2026-04-26T14:56:53.981Z</time></trkpt><trkpt lat="45.11703325876089" lon="8.384303773240507"><ele>272.79999999999995</ele><time>2026-04-26T14:56:55.981Z</time></trkpt><trkpt lat="45.11696512906775" lon="8.384251897357023"><ele>272.20000000000005</ele><time>2026-04-26T14:56:56.981Z</time></trkpt><trkpt lat="45.116894094840525" lon="8.384191991920904"><ele>271.6</ele><time>2026-04-26T14:56:57.981Z</time></trkpt><trkpt lat="45.116820331672145" lon="8.38412497284454"><ele>271.0</ele><time>2026-04-26T14:56:58.981Z</time></trkpt><trkpt lat="45.116748184572856" lon="8.384055409935426"><ele>271.0</ele><time>2026-04-26T14:56:59.981Z</time></trkpt><trkpt lat="45.11667162075405" lon="8.383981125922634"><ele>271.0</ele><time>2026-04-26T14:57:00.981Z</time></trkpt><trkpt lat="45.116597901424214" lon="8.38390533650628"><ele>271.0</ele><time>2026-04-26T14:57:01.981Z</time></trkpt><trkpt lat="45.11653343873038" lon="8.383820741315128"><ele>271.0</ele><time>2026-04-26T14:57:02.981Z</time></trkpt><trkpt lat="45.116462763166226" lon="8.383739134506307"><ele>271.0</ele><time>2026-04-26T14:57:03.981Z</time></trkpt><trkpt lat="45.1164056520946" lon="8.383645986356747"><ele>270.5</ele><time>2026-04-26T14:57:04.981Z</time></trkpt><trkpt lat="45.11634484677004" lon="8.383554487471978"><ele>270.0</ele><time>2026-04-26T14:57:05.981Z</time></trkpt><trkpt lat="45.116289235276696" lon="8.383461419082655"><ele>269.5</ele><time>2026-04-26T14:57:06.981Z</time></trkpt><trkpt lat="45.11624686775673" lon="8.383359727246477"><ele>269.0</ele><time>2026-04-26T14:57:07.981Z</time></trkpt><trkpt lat="45.116207666914285" lon="8.38326414353258"><ele>268.5</ele><time>2026-04-26T14:57:08.981Z</time></trkpt><trkpt lat="45.116171901976784" lon="8.383182944627736"><ele>268.0</ele><time>2026-04-26T14:57:09.981Z</time></trkpt><trkpt lat="45.116077972434695" lon="8.383069038244766"><ele>268.0</ele><time>2026-04-26T14:57:11.981Z</time></trkpt><trkpt lat="45.11600641341057" lon="8.383015515324105"><ele>268.0</ele><time>2026-04-26T14:57:12.981Z</time></trkpt><trkpt lat="45.115920163073206" lon="8.382968990076735"><ele>268.0</ele><time>2026-04-26T14:57:13.981Z</time></trkpt><trkpt lat="45.115826554192495" lon="8.382940318171919"><ele>268.0</ele><time>2026-04-26T14:57:14.981Z</time></trkpt><trkpt lat="45.11572655967" lon="8.382899520861596"><ele>268.0</ele><time>2026-04-26T14:57:15.981Z</time></trkpt><trkpt lat="45.11562654582069" lon="8.382858804438516"><ele>268.4</ele><time>2026-04-26T14:57:16.981Z</time></trkpt><trkpt lat="45.11552165085026" lon="8.382813228558037"><ele>268.8</ele><time>2026-04-26T14:57:17.98Z</time></trkpt><trkpt lat="45.11540997750651" lon="8.382778191900055"><ele>269.2</ele><time>2026-04-26T14:57:18.98Z</time></trkpt><trkpt lat="45.115304184110684" lon="8.382735405106391"><ele>269.6</ele><time>2026-04-26T14:57:19.98Z</time></trkpt><trkpt lat="45.115200928664734" lon="8.38269752812666"><ele>270.0</ele><time>2026-04-26T14:57:20.98Z</time></trkpt><trkpt lat="45.11509672725573" lon="8.382657106300693"><ele>270.0</ele><time>2026-04-26T14:57:21.98Z</time></trkpt><trkpt lat="45.114994287586526" lon="8.382619484665078"><ele>270.0</ele><time>2026-04-26T14:57:22.98Z</time></trkpt><trkpt lat="45.11489523365104" lon="8.38258688636369"><ele>270.0</ele><time>2026-04-26T14:57:23.98Z</time></trkpt><trkpt lat="45.114797699517524" lon="8.382548889496984"><ele>270.0</ele><time>2026-04-26T14:57:24.98Z</time></trkpt><trkpt lat="45.11470131494902" lon="8.382525391067427"><ele>270.0</ele><time>2026-04-26T14:57:25.98Z</time></trkpt><trkpt lat="45.1146102435547" lon="8.382510636362232"><ele>268.2</ele><time>2026-04-26T14:57:26.98Z</time></trkpt><trkpt lat="45.11452480177236" lon="8.382515373891563"><ele>266.4</ele><time>2026-04-26T14:57:27.98Z</time></trkpt><trkpt lat="45.11444099734144" lon="8.382546832588185"><ele>264.6</ele><time>2026-04-26T14:57:28.98Z</time></trkpt><trkpt lat="45.11435075012797" lon="8.382592052906032"><ele>262.8</ele><time>2026-04-26T14:57:29.98Z</time></trkpt><trkpt lat="45.11425443258824" lon="8.382640206781984"><ele>261.0</ele><time>2026-04-26T14:57:30.98Z</time></trkpt><trkpt lat="45.11415970859357" lon="8.38269862079283"><ele>260.2</ele><time>2026-04-26T14:57:31.98Z</time></trkpt><trkpt lat="45.114070070963265" lon="8.382767074628841"><ele>259.40000000000003</ele><time>2026-04-26T14:57:32.98Z</time></trkpt><trkpt lat="45.11399069821935" lon="8.38284379793972"><ele>258.6</ele><time>2026-04-26T14:57:33.98Z</time></trkpt><trkpt lat="45.1139140911462" lon="8.382921018442302"><ele>257.8</ele><time>2026-04-26T14:57:34.98Z</time></trkpt><trkpt lat="45.113834644733856" lon="8.382998896477861"><ele>257.0</ele><time>2026-04-26T14:57:35.98Z</time></trkpt><trkpt lat="45.113757173570136" lon="8.383081927884618"><ele>256.2</ele><time>2026-04-26T14:57:36.98Z</time></trkpt><trkpt lat="45.11368302702934" lon="8.38316187750661"><ele>255.39999999999998</ele><time>2026-04-26T14:57:37.98Z</time></trkpt><trkpt lat="45.11361042980287" lon="8.383241291994707"><ele>254.60000000000002</ele><time>2026-04-26T14:57:38.98Z</time></trkpt><trkpt lat="45.11353541668718" lon="8.383315101268105"><ele>253.8</ele><time>2026-04-26T14:57:39.98Z</time></trkpt><trkpt lat="45.113452129573766" lon="8.383372392521188"><ele>253.0</ele><time>2026-04-26T14:57:40.98Z</time></trkpt><trkpt lat="45.11336603589613" lon="8.383411083294027"><ele>252.99999999999997</ele><time>2026-04-26T14:57:41.98Z</time></trkpt><trkpt lat="45.11328255841791" lon="8.38343832696446"><ele>253.0</ele><time>2026-04-26T14:57:42.98Z</time></trkpt><trkpt lat="45.11319377956361" lon="8.383440174645601"><ele>253.0</ele><time>2026-04-26T14:57:43.98Z</time></trkpt><trkpt lat="45.1131119615716" lon="8.383414571362295"><ele>253.0</ele><time>2026-04-26T14:57:44.98Z</time></trkpt><trkpt lat="45.11303009556491" lon="8.383375621760532"><ele>252.99999999999997</ele><time>2026-04-26T14:57:45.98Z</time></trkpt><trkpt lat="45.112953592798355" lon="8.38331953668981"><ele>253.0</ele><time>2026-04-26T14:57:46.98Z</time></trkpt><trkpt lat="45.112889231110266" lon="8.383242532784164"><ele>251.99999999999997</ele><time>2026-04-26T14:57:47.98Z</time></trkpt><trkpt lat="45.11283763515624" lon="8.383149418853018"><ele>251.0</ele><time>2026-04-26T14:57:48.98Z</time></trkpt><trkpt lat="45.11278906600789" lon="8.383056719549598"><ele>250.0</ele><time>2026-04-26T14:57:49.98Z</time></trkpt><trkpt lat="45.11274219690876" lon="8.382961068183851"><ele>249.0</ele><time>2026-04-26T14:57:50.98Z</time></trkpt><trkpt lat="45.1126879576741" lon="8.382871025816728"><ele>247.99999999999997</ele><time>2026-04-26T14:57:51.98Z</time></trkpt><trkpt lat="45.11262339469833" lon="8.382780455939242"><ele>247.0</ele><time>2026-04-26T14:57:52.98Z</time></trkpt><trkpt lat="45.11255215331877" lon="8.382695231713587"><ele>247.0</ele><time>2026-04-26T14:57:53.98Z</time></trkpt><trkpt lat="45.11247782891335" lon="8.382598907601682"><ele>247.0</ele><time>2026-04-26T14:57:54.98Z</time></trkpt><trkpt lat="45.112396199301536" lon="8.382500781520502"><ele>247.0</ele><time>2026-04-26T14:57:55.98Z</time></trkpt><trkpt lat="45.112315661768754" lon="8.382401674107376"><ele>247.0</ele><time>2026-04-26T14:57:56.98Z</time></trkpt><trkpt lat="45.11223761333953" lon="8.382304213274342"><ele>247.0</ele><time>2026-04-26T14:57:57.98Z</time></trkpt><trkpt lat="45.112162199425775" lon="8.38220390109377"><ele>245.2</ele><time>2026-04-26T14:57:58.98Z</time></trkpt><trkpt lat="45.112086270632794" lon="8.382102375235785"><ele>243.39999999999998</ele><time>2026-04-26T14:57:59.98Z</time></trkpt><trkpt lat="45.11201295091249" lon="8.381992975538203"><ele>241.60000000000002</ele><time>2026-04-26T14:58:00.98Z</time></trkpt><trkpt lat="45.11194652861792" lon="8.38187542828742"><ele>239.8</ele><time>2026-04-26T14:58:01.98Z</time></trkpt><trkpt lat="45.11187840537594" lon="8.381752105868044"><ele>238.0</ele><time>2026-04-26T14:58:02.98Z</time></trkpt><trkpt lat="45.11180799703989" lon="8.381639968997286"><ele>238.0</ele><time>2026-04-26T14:58:03.98Z</time></trkpt><trkpt lat="45.11174839505645" lon="8.381507133827649"><ele>238.0</ele><time>2026-04-26T14:58:04.98Z</time></trkpt><trkpt lat="45.111678827507966" lon="8.38139133028447"><ele>238.0</ele><time>2026-04-26T14:58:05.98Z</time></trkpt><trkpt lat="45.11159399980982" lon="8.381288661407755"><ele>238.0</ele><time>2026-04-26T14:58:06.98Z</time></trkpt><trkpt lat="45.11153608197316" lon="8.381162131967946"><ele>238.0</ele><time>2026-04-26T14:58:07.98Z</time></trkpt><trkpt lat="45.11146852170653" lon="8.381054497560475"><ele>235.2</ele><time>2026-04-26T14:58:08.98Z</time></trkpt><trkpt lat="45.111404066736085" lon="8.380952854641643"><ele>232.4</ele><time>2026-04-26T14:58:09.98Z</time></trkpt><trkpt lat="45.111330088744175" lon="8.380881456738333"><ele>229.59999999999997</ele><time>2026-04-26T14:58:10.98Z</time></trkpt><trkpt lat="45.1112712392235" lon="8.380790021278441"><ele>226.79999999999998</ele><time>2026-04-26T14:58:11.98Z</time></trkpt><trkpt lat="45.111195499252204" lon="8.380731225929736"><ele>224.0</ele><time>2026-04-26T14:58:12.98Z</time></trkpt><trkpt lat="45.11110723884117" lon="8.380693460816317"><ele>224.00000000000003</ele><time>2026-04-26T14:58:13.98Z</time></trkpt><trkpt lat="45.11101626025459" lon="8.380681856865582"><ele>224.0</ele><time>2026-04-26T14:58:14.98Z</time></trkpt><trkpt lat="45.11092712511565" lon="8.380702449663413"><ele>224.0</ele><time>2026-04-26T14:58:15.98Z</time></trkpt><trkpt lat="45.11084605714035" lon="8.380740778407702"><ele>224.0</ele><time>2026-04-26T14:58:16.98Z</time></trkpt><trkpt lat="45.11077424922558" lon="8.380804553669263"><ele>224.00000000000003</ele><time>2026-04-26T14:58:17.98Z</time></trkpt><trkpt lat="45.110707502111396" lon="8.380893711371778"><ele>224.0</ele><time>2026-04-26T14:58:18.98Z</time></trkpt><trkpt lat="45.110645269581696" lon="8.381027498493445"><ele>222.2</ele><time>2026-04-26T14:58:19.98Z</time></trkpt><trkpt lat="45.11057605992664" lon="8.38115331370763"><ele>220.39999999999998</ele><time>2026-04-26T14:58:20.98Z</time></trkpt><trkpt lat="45.11050443234789" lon="8.381270602728344"><ele>218.6</ele><time>2026-04-26T14:58:21.98Z</time></trkpt><trkpt lat="45.11044082633006" lon="8.381392120214898"><ele>216.8</ele><time>2026-04-26T14:58:22.98Z</time></trkpt><trkpt lat="45.11037604210125" lon="8.381503637731297"><ele>215.0</ele><time>2026-04-26T14:58:23.98Z</time></trkpt><trkpt lat="45.110299461654776" lon="8.381589979621419"><ele>215.0</ele><time>2026-04-26T14:58:24.98Z</time></trkpt><trkpt lat="45.110204986986815" lon="8.381656504491382"><ele>215.0</ele><time>2026-04-26T14:58:25.98Z</time></trkpt><trkpt lat="45.11010151147645" lon="8.38170991548142"><ele>215.0</ele><time>2026-04-26T14:58:26.98Z</time></trkpt><trkpt lat="45.10999246583912" lon="8.381760637584284"><ele>215.0</ele><time>2026-04-26T14:58:27.98Z</time></trkpt><trkpt lat="45.109888804275414" lon="8.381803232319443"><ele>215.0</ele><time>2026-04-26T14:58:28.98Z</time></trkpt><trkpt lat="45.10978421883902" lon="8.381823477490173"><ele>214.2</ele><time>2026-04-26T14:58:29.98Z</time></trkpt><trkpt lat="45.10968134230787" lon="8.381818234521122"><ele>213.4</ele><time>2026-04-26T14:58:30.98Z</time></trkpt><trkpt lat="45.10958329308265" lon="8.381796679501724"><ele>212.60000000000002</ele><time>2026-04-26T14:58:31.98Z</time></trkpt><trkpt lat="45.109489273991436" lon="8.381743580723166"><ele>211.8</ele><time>2026-04-26T14:58:32.98Z</time></trkpt><trkpt lat="45.10940428402748" lon="8.38166048498345"><ele>211.0</ele><time>2026-04-26T14:58:33.98Z</time></trkpt><trkpt lat="45.109330910351815" lon="8.38155502870024"><ele>211.0</ele><time>2026-04-26T14:58:34.979Z</time></trkpt><trkpt lat="45.10926538566667" lon="8.3814442176891"><ele>211.0</ele><time>2026-04-26T14:58:35.979Z</time></trkpt><trkpt lat="45.10919404635946" lon="8.381339488614831"><ele>211.0</ele><time>2026-04-26T14:58:36.979Z</time></trkpt><trkpt lat="45.10911873469608" lon="8.381247197505818"><ele>211.0</ele><time>2026-04-26T14:58:37.979Z</time></trkpt><trkpt lat="45.10904736969034" lon="8.381175368217061"><ele>211.0</ele><time>2026-04-26T14:58:38.979Z</time></trkpt><trkpt lat="45.1089981552482" lon="8.381102646656132"><ele>209.66666666666666</ele><time>2026-04-26T14:58:39.979Z</time></trkpt><trkpt lat="45.10892384237629" lon="8.381041537525553"><ele>208.33333333333331</ele><time>2026-04-26T14:58:41.979Z</time></trkpt><trkpt lat="45.108834289537036" lon="8.38097806917523"><ele>207.0</ele><time>2026-04-26T14:58:43.979Z</time></trkpt><trkpt lat="45.10877954640679" lon="8.380933634364949"><ele>205.66666666666669</ele><time>2026-04-26T14:58:44.979Z</time></trkpt><trkpt lat="45.10872061615979" lon="8.380882748728764"><ele>204.33333333333334</ele><time>2026-04-26T14:58:45.979Z</time></trkpt><trkpt lat="45.10866547468102" lon="8.380835086373402"><ele>203.0</ele><time>2026-04-26T14:58:46.979Z</time></trkpt><trkpt lat="45.108602306781464" lon="8.380782185607034"><ele>203.0</ele><time>2026-04-26T14:58:48.979Z</time></trkpt><trkpt lat="45.10853451485852" lon="8.380728115999334"><ele>203.0</ele><time>2026-04-26T14:58:50.979Z</time></trkpt><trkpt lat="45.10844304502979" lon="8.380677436799685"><ele>203.0</ele><time>2026-04-26T14:58:52.979Z</time></trkpt><trkpt lat="45.108323204341644" lon="8.380611425609692"><ele>203.0</ele><time>2026-04-26T14:58:54.979Z</time></trkpt><trkpt lat="45.10820775936856" lon="8.380577684818338"><ele>203.0</ele><time>2026-04-26T14:58:56.979Z</time></trkpt><trkpt lat="45.10811833768637" lon="8.380558369463873"><ele>203.66666666666669</ele><time>2026-04-26T14:58:58.979Z</time></trkpt><trkpt lat="45.108054019463054" lon="8.380558435998324"><ele>204.33333333333334</ele><time>2026-04-26T14:59:05.979Z</time></trkpt><trkpt lat="45.10804274860332" lon="8.38075024638526"><ele>205.0</ele><time>2026-04-26T14:59:13.979Z</time></trkpt><trkpt lat="45.10807387454066" lon="8.380846437887051"><ele>205.66666666666669</ele><time>2026-04-26T14:59:14.979Z</time></trkpt><trkpt lat="45.108105746308844" lon="8.380955231021021"><ele>206.33333333333334</ele><time>2026-04-26T14:59:15.979Z</time></trkpt><trkpt lat="45.10814120216843" lon="8.381065162227012"><ele>207.0</ele><time>2026-04-26T14:59:16.979Z</time></trkpt><trkpt lat="45.10817387056931" lon="8.381170731175743"><ele>207.0</ele><time>2026-04-26T14:59:17.979Z</time></trkpt><trkpt lat="45.10821313295858" lon="8.381287556585619"><ele>207.0</ele><time>2026-04-26T14:59:18.979Z</time></trkpt><trkpt lat="45.10825667289962" lon="8.381417589314262"><ele>207.0</ele><time>2026-04-26T14:59:19.979Z</time></trkpt><trkpt lat="45.10830323146258" lon="8.381560107331358"><ele>207.0</ele><time>2026-04-26T14:59:20.979Z</time></trkpt><trkpt lat="45.10835661043284" lon="8.381713494124106"><ele>207.0</ele><time>2026-04-26T14:59:21.979Z</time></trkpt><trkpt lat="45.10841046273178" lon="8.381878197185372"><ele>207.25</ele><time>2026-04-26T14:59:22.979Z</time></trkpt><trkpt lat="45.10846287169365" lon="8.38205327819365"><ele>207.5</ele><time>2026-04-26T14:59:23.979Z</time></trkpt><trkpt lat="45.10851147525726" lon="8.38221475689349"><ele>207.75</ele><time>2026-04-26T14:59:24.979Z</time></trkpt><trkpt lat="45.10856927592394" lon="8.382379233487764"><ele>208.0</ele><time>2026-04-26T14:59:25.979Z</time></trkpt><trkpt lat="45.10863050386078" lon="8.382550742203502"><ele>209.75</ele><time>2026-04-26T14:59:26.978Z</time></trkpt><trkpt lat="45.10869127281753" lon="8.3827291131308"><ele>211.5</ele><time>2026-04-26T14:59:27.978Z</time></trkpt><trkpt lat="45.1087515539055" lon="8.382912101518835"><ele>213.25</ele><time>2026-04-26T14:59:28.978Z</time></trkpt><trkpt lat="45.10880705665416" lon="8.383093167081645"><ele>215.0</ele><time>2026-04-26T14:59:29.979Z</time></trkpt><trkpt lat="45.10887180535424" lon="8.383269687673074"><ele>216.75</ele><time>2026-04-26T14:59:30.979Z</time></trkpt><trkpt lat="45.108928498570194" lon="8.383447736036885"><ele>218.5</ele><time>2026-04-26T14:59:31.978Z</time></trkpt><trkpt lat="45.108989929294765" lon="8.38362889560969"><ele>220.25</ele><time>2026-04-26T14:59:32.979Z</time></trkpt><trkpt lat="45.10905475691501" lon="8.383816410310557"><ele>222.0</ele><time>2026-04-26T14:59:33.979Z</time></trkpt><trkpt lat="45.10909940411654" lon="8.384019804870311"><ele>223.0</ele><time>2026-04-26T14:59:34.978Z</time></trkpt><trkpt lat="45.109163024662244" lon="8.384231290251861"><ele>224.0</ele><time>2026-04-26T14:59:35.979Z</time></trkpt><trkpt lat="45.10921306851508" lon="8.384442765594454"><ele>225.0</ele><time>2026-04-26T14:59:36.979Z</time></trkpt><trkpt lat="45.10924689600229" lon="8.384652224457552"><ele>224.33333333333331</ele><time>2026-04-26T14:59:37.978Z</time></trkpt><trkpt lat="45.10926977610898" lon="8.38486753163519"><ele>223.66666666666666</ele><time>2026-04-26T14:59:38.978Z</time></trkpt><trkpt lat="45.10928354799583" lon="8.385091209541901"><ele>223.0</ele><time>2026-04-26T14:59:39.978Z</time></trkpt><trkpt lat="45.10928203274994" lon="8.385321003289928"><ele>221.0</ele><time>2026-04-26T14:59:40.978Z</time></trkpt><trkpt lat="45.10927385948295" lon="8.385551705826412"><ele>219.0</ele><time>2026-04-26T14:59:41.978Z</time></trkpt><trkpt lat="45.109250485474504" lon="8.38577720220337"><ele>217.0</ele><time>2026-04-26T14:59:42.978Z</time></trkpt><trkpt lat="45.1092144076437" lon="8.385993617799729"><ele>217.0</ele><time>2026-04-26T14:59:43.978Z</time></trkpt><trkpt lat="45.10916044967672" lon="8.386205616875598"><ele>217.0</ele><time>2026-04-26T14:59:44.978Z</time></trkpt><trkpt lat="45.10908049027075" lon="8.386392368235086"><ele>217.0</ele><time>2026-04-26T14:59:45.978Z</time></trkpt><trkpt lat="45.108976695204056" lon="8.3865717730878"><ele>213.66666666666666</ele><time>2026-04-26T14:59:46.978Z</time></trkpt><trkpt lat="45.10885274202016" lon="8.386738900689869"><ele>210.33333333333331</ele><time>2026-04-26T14:59:47.978Z</time></trkpt><trkpt lat="45.10871382435442" lon="8.386907232108255"><ele>207.0</ele><time>2026-04-26T14:59:48.978Z</time></trkpt><trkpt lat="45.108571750682806" lon="8.387080179811436"><ele>207.0</ele><time>2026-04-26T14:59:49.978Z</time></trkpt><trkpt lat="45.1084338954831" lon="8.387250203143756"><ele>207.0</ele><time>2026-04-26T14:59:50.978Z</time></trkpt><trkpt lat="45.10829756163062" lon="8.387422096713921"><ele>207.0</ele><time>2026-04-26T14:59:51.978Z</time></trkpt><trkpt lat="45.10816183951465" lon="8.387596557208228"><ele>207.0</ele><time>2026-04-26T14:59:52.978Z</time></trkpt><trkpt lat="45.10802571498162" lon="8.387768703798983"><ele>207.0</ele><time>2026-04-26T14:59:53.978Z</time></trkpt><trkpt lat="45.10789063561085" lon="8.387938924382354"><ele>207.0</ele><time>2026-04-26T14:59:54.978Z</time></trkpt><trkpt lat="45.10775522952815" lon="8.388106934536749"><ele>205.33333333333331</ele><time>2026-04-26T14:59:55.978Z</time></trkpt><trkpt lat="45.107626730533966" lon="8.388281358705443"><ele>203.66666666666666</ele><time>2026-04-26T14:59:56.978Z</time></trkpt><trkpt lat="45.107508321657455" lon="8.388461976207228"><ele>202.0</ele><time>2026-04-26T14:59:57.978Z</time></trkpt><trkpt lat="45.10740207626654" lon="8.388653932470717"><ele>204.0</ele><time>2026-04-26T14:59:58.978Z</time></trkpt><trkpt lat="45.107303038445146" lon="8.388856491662876"><ele>206.0</ele><time>2026-04-26T14:59:59.978Z</time></trkpt><trkpt lat="45.1072049052311" lon="8.389065838865086"><ele>208.0</ele><time>2026-04-26T15:00:00.978Z</time></trkpt><trkpt lat="45.107109020422506" lon="8.389287292190602"><ele>208.0</ele><time>2026-04-26T15:00:01.978Z</time></trkpt><trkpt lat="45.10701182366573" lon="8.389516753838642"><ele>208.0</ele><time>2026-04-26T15:00:02.978Z</time></trkpt><trkpt lat="45.10691520595796" lon="8.389749539158617"><ele>208.0</ele><time>2026-04-26T15:00:03.978Z</time></trkpt><trkpt lat="45.106818442064636" lon="8.389979815091083"><ele>202.66666666666666</ele><time>2026-04-26T15:00:04.978Z</time></trkpt><trkpt lat="45.10671830860221" lon="8.39020761887112"><ele>197.33333333333331</ele><time>2026-04-26T15:00:05.978Z</time></trkpt><trkpt lat="45.106620997187875" lon="8.390438574516995"><ele>192.0</ele><time>2026-04-26T15:00:06.978Z</time></trkpt><trkpt lat="45.106521234419006" lon="8.390673003586569"><ele>191.33333333333334</ele><time>2026-04-26T15:00:07.978Z</time></trkpt><trkpt lat="45.10641824217564" lon="8.390911711935104"><ele>190.66666666666669</ele><time>2026-04-26T15:00:08.978Z</time></trkpt><trkpt lat="45.10631037870387" lon="8.391162693142347"><ele>190.0</ele><time>2026-04-26T15:00:09.978Z</time></trkpt><trkpt lat="45.10619919601743" lon="8.391414338042265"><ele>187.0</ele><time>2026-04-26T15:00:10.978Z</time></trkpt><trkpt lat="45.10608812529946" lon="8.391667386009422"><ele>184.0</ele><time>2026-04-26T15:00:11.978Z</time></trkpt><trkpt lat="45.10598150199226" lon="8.391917057620228"><ele>181.0</ele><time>2026-04-26T15:00:12.978Z</time></trkpt><trkpt lat="45.10587380307669" lon="8.392170573737387"><ele>181.0</ele><time>2026-04-26T15:00:13.978Z</time></trkpt><trkpt lat="45.10576736488816" lon="8.392430821723197"><ele>181.0</ele><time>2026-04-26T15:00:14.978Z</time></trkpt><trkpt lat="45.10565681075759" lon="8.392696162655966"><ele>181.0</ele><time>2026-04-26T15:00:15.978Z</time></trkpt><trkpt lat="45.10554520225555" lon="8.392965506316733"><ele>178.0</ele><time>2026-04-26T15:00:16.978Z</time></trkpt><trkpt lat="45.105431797595195" lon="8.393231945384063"><ele>175.0</ele><time>2026-04-26T15:00:17.978Z</time></trkpt><trkpt lat="45.10531663437089" lon="8.393504245684746"><ele>172.0</ele><time>2026-04-26T15:00:18.978Z</time></trkpt><trkpt lat="45.105198910238904" lon="8.393772834268669"><ele>171.0</ele><time>2026-04-26T15:00:19.978Z</time></trkpt><trkpt lat="45.105081390885495" lon="8.394042687855475"><ele>170.0</ele><time>2026-04-26T15:00:20.978Z</time></trkpt><trkpt lat="45.10496290958473" lon="8.394312194219625"><ele>169.0</ele><time>2026-04-26T15:00:21.978Z</time></trkpt><trkpt lat="45.1048442276493" lon="8.394582095073622"><ele>167.66666666666669</ele><time>2026-04-26T15:00:22.978Z</time></trkpt><trkpt lat="45.104725332603216" lon="8.394849075798959"><ele>166.33333333333334</ele><time>2026-04-26T15:00:23.978Z</time></trkpt><trkpt lat="45.104612311221715" lon="8.39511535657018"><ele>165.0</ele><time>2026-04-26T15:00:24.978Z</time></trkpt><trkpt lat="45.104499363607104" lon="8.395373687025646"><ele>165.0</ele><time>2026-04-26T15:00:25.978Z</time></trkpt><trkpt lat="45.10439042135397" lon="8.395629693818444"><ele>165.0</ele><time>2026-04-26T15:00:26.978Z</time></trkpt><trkpt lat="45.10428327824252" lon="8.39588179568227"><ele>165.0</ele><time>2026-04-26T15:00:27.978Z</time></trkpt><trkpt lat="45.104184148713344" lon="8.396126016491724"><ele>164.33333333333334</ele><time>2026-04-26T15:00:28.978Z</time></trkpt><trkpt lat="45.10408352467824" lon="8.396366819580608"><ele>163.66666666666669</ele><time>2026-04-26T15:00:29.978Z</time></trkpt><trkpt lat="45.103981291259096" lon="8.396609236774472"><ele>163.0</ele><time>2026-04-26T15:00:30.978Z</time></trkpt><trkpt lat="45.103885131116186" lon="8.39685865080698"><ele>163.0</ele><time>2026-04-26T15:00:31.978Z</time></trkpt><trkpt lat="45.10379628102268" lon="8.397124318644767"><ele>163.0</ele><time>2026-04-26T15:00:32.978Z</time></trkpt><trkpt lat="45.10371244279027" lon="8.397395292936574"><ele>163.0</ele><time>2026-04-26T15:00:33.978Z</time></trkpt><trkpt lat="45.10363045868655" lon="8.397672664529946"><ele>162.66666666666669</ele><time>2026-04-26T15:00:34.978Z</time></trkpt><trkpt lat="45.103547919324775" lon="8.397957617581282"><ele>162.33333333333334</ele><time>2026-04-26T15:00:35.978Z</time></trkpt><trkpt lat="45.103463808848026" lon="8.398243603397525"><ele>162.0</ele><time>2026-04-26T15:00:36.978Z</time></trkpt><trkpt lat="45.10338891894984" lon="8.398540584672112"><ele>162.0</ele><time>2026-04-26T15:00:37.978Z</time></trkpt><trkpt lat="45.10331265255487" lon="8.39884060771307"><ele>162.0</ele><time>2026-04-26T15:00:38.978Z</time></trkpt><trkpt lat="45.10323570600954" lon="8.399140162897993"><ele>160.66666666666666</ele><time>2026-04-26T15:00:39.978Z</time></trkpt><trkpt lat="45.10315728414556" lon="8.399437630273141"><ele>159.33333333333331</ele><time>2026-04-26T15:00:40.978Z</time></trkpt><trkpt lat="45.10308150897844" lon="8.3997340862909"><ele>158.0</ele><time>2026-04-26T15:00:41.978Z</time></trkpt><trkpt lat="45.10300633667889" lon="8.400028344019965"><ele>157.66666666666666</ele><time>2026-04-26T15:00:42.978Z</time></trkpt><trkpt lat="45.102931757829666" lon="8.400315041812473"><ele>157.33333333333334</ele><time>2026-04-26T15:00:43.978Z</time></trkpt><trkpt lat="45.10285559466666" lon="8.400600362539825"><ele>157.0</ele><time>2026-04-26T15:00:44.978Z</time></trkpt><trkpt lat="45.10277935758826" lon="8.400886889283111"><ele>156.66666666666669</ele><time>2026-04-26T15:00:45.978Z</time></trkpt><trkpt lat="45.10270302920629" lon="8.401168313245032"><ele>156.33333333333334</ele><time>2026-04-26T15:00:46.978Z</time></trkpt><trkpt lat="45.10262855686657" lon="8.401447715321803"><ele>156.0</ele><time>2026-04-26T15:00:47.978Z</time></trkpt><trkpt lat="45.10255529019207" lon="8.401723476129593"><ele>156.0</ele><time>2026-04-26T15:00:48.978Z</time></trkpt><trkpt lat="45.1024786930143" lon="8.40199188264214"><ele>156.0</ele><time>2026-04-26T15:00:49.978Z</time></trkpt><trkpt lat="45.10240600353867" lon="8.402252924781562"><ele>156.0</ele><time>2026-04-26T15:00:50.978Z</time></trkpt><trkpt lat="45.1023404240123" lon="8.402506693993905"><ele>155.0</ele><time>2026-04-26T15:00:51.978Z</time></trkpt><trkpt lat="45.102273788563764" lon="8.402752213154939"><ele>154.0</ele><time>2026-04-26T15:00:52.978Z</time></trkpt><trkpt lat="45.102208922966135" lon="8.40299352591265"><ele>153.0</ele><time>2026-04-26T15:00:53.978Z</time></trkpt><trkpt lat="45.10214548371848" lon="8.403236470670711"><ele>153.0</ele><time>2026-04-26T15:00:54.978Z</time></trkpt><trkpt lat="45.102081228741795" lon="8.40348534612544"><ele>153.0</ele><time>2026-04-26T15:00:55.978Z</time></trkpt><trkpt lat="45.102016676779414" lon="8.403736355623366"><ele>153.0</ele><time>2026-04-26T15:00:56.978Z</time></trkpt><trkpt lat="45.101947804608386" lon="8.403988360540215"><ele>152.66666666666666</ele><time>2026-04-26T15:00:57.978Z</time></trkpt><trkpt lat="45.10187765785745" lon="8.404243899039454"><ele>152.33333333333331</ele><time>2026-04-26T15:00:58.978Z</time></trkpt><trkpt lat="45.10180925099907" lon="8.404501507003413"><ele>152.0</ele><time>2026-04-26T15:00:59.978Z</time></trkpt><trkpt lat="45.10174422429058" lon="8.404752428681169"><ele>151.66666666666666</ele><time>2026-04-26T15:01:00.978Z</time></trkpt><trkpt lat="45.1016832701666" lon="8.404992627160725"><ele>151.33333333333334</ele><time>2026-04-26T15:01:01.978Z</time></trkpt><trkpt lat="45.10162365307364" lon="8.40522311014337"><ele>151.0</ele><time>2026-04-26T15:01:02.978Z</time></trkpt><trkpt lat="45.10157116795042" lon="8.40543998973141"><ele>151.25</ele><time>2026-04-26T15:01:03.978Z</time></trkpt><trkpt lat="45.101521966271726" lon="8.405634834840185"><ele>151.5</ele><time>2026-04-26T15:01:04.978Z</time></trkpt><trkpt lat="45.1014829368183" lon="8.405826476450422"><ele>151.75</ele><time>2026-04-26T15:01:05.978Z</time></trkpt><trkpt lat="45.10145106000155" lon="8.406009900850023"><ele>152.0</ele><time>2026-04-26T15:01:06.978Z</time></trkpt><trkpt lat="45.101423650850364" lon="8.406187136655824"><ele>152.0</ele><time>2026-04-26T15:01:07.978Z</time></trkpt><trkpt lat="45.101400863234716" lon="8.406365199787833"><ele>152.0</ele><time>2026-04-26T15:01:08.978Z</time></trkpt><trkpt lat="45.10138503389172" lon="8.406544981958044"><ele>152.0</ele><time>2026-04-26T15:01:09.978Z</time></trkpt><trkpt lat="45.10137739596631" lon="8.406726938995213"><ele>152.0</ele><time>2026-04-26T15:01:10.978Z</time></trkpt><trkpt lat="45.10137569739356" lon="8.406914625188719"><ele>152.0</ele><time>2026-04-26T15:01:11.978Z</time></trkpt><trkpt lat="45.1013768096829" lon="8.407098407721092"><ele>152.0</ele><time>2026-04-26T15:01:12.978Z</time></trkpt><trkpt lat="45.10138121565975" lon="8.407277612533415"><ele>152.0</ele><time>2026-04-26T15:01:13.978Z</time></trkpt><trkpt lat="45.101388360009146" lon="8.407451689167408"><ele>152.0</ele><time>2026-04-26T15:01:14.978Z</time></trkpt><trkpt lat="45.101398883921746" lon="8.407613822841169"><ele>151.79999999999998</ele><time>2026-04-26T15:01:15.978Z</time></trkpt><trkpt lat="45.101406364957086" lon="8.40775757257108"><ele>151.6</ele><time>2026-04-26T15:01:16.978Z</time></trkpt><trkpt lat="45.101414383633646" lon="8.407894542387828"><ele>151.39999999999998</ele><time>2026-04-26T15:01:17.978Z</time></trkpt><trkpt lat="45.10142379561649" lon="8.408022878139763"><ele>151.2</ele><time>2026-04-26T15:01:18.978Z</time></trkpt><trkpt lat="45.10143294123749" lon="8.408146972547025"><ele>151.0</ele><time>2026-04-26T15:01:19.978Z</time></trkpt><trkpt lat="45.10144179417829" lon="8.408267635199103"><ele>150.66666666666669</ele><time>2026-04-26T15:01:20.978Z</time></trkpt><trkpt lat="45.10145058675701" lon="8.40839260136298"><ele>150.33333333333334</ele><time>2026-04-26T15:01:21.978Z</time></trkpt><trkpt lat="45.10145605105552" lon="8.408518052171253"><ele>150.0</ele><time>2026-04-26T15:01:22.978Z</time></trkpt><trkpt lat="45.101462435342384" lon="8.408642312246371"><ele>149.66666666666666</ele><time>2026-04-26T15:01:23.978Z</time></trkpt><trkpt lat="45.101470808699155" lon="8.408763611508078"><ele>149.33333333333331</ele><time>2026-04-26T15:01:24.978Z</time></trkpt><trkpt lat="45.10147813774652" lon="8.408874730765403"><ele>149.0</ele><time>2026-04-26T15:01:25.978Z</time></trkpt><trkpt lat="45.10148633994894" lon="8.408978037917793"><ele>149.0</ele><time>2026-04-26T15:01:26.978Z</time></trkpt><trkpt lat="45.1014921061516" lon="8.409089835671725"><ele>149.0</ele><time>2026-04-26T15:01:27.978Z</time></trkpt><trkpt lat="45.101499088342344" lon="8.409214776451321"><ele>149.0</ele><time>2026-04-26T15:01:28.978Z</time></trkpt><trkpt lat="45.10150596443698" lon="8.409336788207154"><ele>149.0</ele><time>2026-04-26T15:01:29.978Z</time></trkpt><trkpt lat="45.10151273606654" lon="8.409455919557413"><ele>149.0</ele><time>2026-04-26T15:01:30.978Z</time></trkpt><trkpt lat="45.101518283412574" lon="8.409570780727533"><ele>149.0</ele><time>2026-04-26T15:01:31.977Z</time></trkpt><trkpt lat="45.1015246076773" lon="8.409682026407964"><ele>149.0</ele><time>2026-04-26T15:01:32.977Z</time></trkpt><trkpt lat="45.10153469391831" lon="8.40980125597508"><ele>149.0</ele><time>2026-04-26T15:01:33.977Z</time></trkpt><trkpt lat="45.10155013418512" lon="8.409918943992057"><ele>149.0</ele><time>2026-04-26T15:01:34.977Z</time></trkpt><trkpt lat="45.101562347930994" lon="8.41002560736321"><ele>149.0</ele><time>2026-04-26T15:01:35.977Z</time></trkpt><trkpt lat="45.101573513263254" lon="8.410124638913285"><ele>149.0</ele><time>2026-04-26T15:01:36.977Z</time></trkpt><trkpt lat="45.101567706538084" lon="8.41021452377381"><ele>149.0</ele><time>2026-04-26T15:01:37.978Z</time></trkpt><trkpt lat="45.1015239321196" lon="8.410297506817104"><ele>149.0</ele><time>2026-04-26T15:01:39.977Z</time></trkpt><trkpt lat="45.10141458215216" lon="8.410270284590203"><ele>149.0</ele><time>2026-04-26T15:01:41.977Z</time></trkpt><trkpt lat="45.10133464021518" lon="8.410212394320208"><ele>149.0</ele><time>2026-04-26T15:01:42.977Z</time></trkpt><trkpt lat="45.10125321238972" lon="8.410187592956838"><ele>149.0</ele><time>2026-04-26T15:01:43.977Z</time></trkpt><trkpt lat="45.10117921456129" lon="8.410154345105262"><ele>149.0</ele><time>2026-04-26T15:01:44.977Z</time></trkpt><trkpt lat="45.101097511945866" lon="8.410119184585513"><ele>149.0</ele><time>2026-04-26T15:01:45.977Z</time></trkpt><trkpt lat="45.10100048095934" lon="8.410094039643182"><ele>149.0</ele><time>2026-04-26T15:01:46.977Z</time></trkpt><trkpt lat="45.100888591523386" lon="8.410058305203028"><ele>149.0</ele><time>2026-04-26T15:01:47.977Z</time></trkpt><trkpt lat="45.10076474485052" lon="8.410013555725039"><ele>149.0</ele><time>2026-04-26T15:01:48.977Z</time></trkpt><trkpt lat="45.10064388612382" lon="8.409967253489562"><ele>149.0</ele><time>2026-04-26T15:01:49.977Z</time></trkpt><trkpt lat="45.100529801273105" lon="8.409950625712545"><ele>150.2</ele><time>2026-04-26T15:01:50.977Z</time></trkpt><trkpt lat="45.10041944374273" lon="8.40995681741506"><ele>151.4</ele><time>2026-04-26T15:01:51.977Z</time></trkpt><trkpt lat="45.10031936685685" lon="8.409997610370828"><ele>152.6</ele><time>2026-04-26T15:01:52.977Z</time></trkpt><trkpt lat="45.100237764947394" lon="8.410090294760867"><ele>153.8</ele><time>2026-04-26T15:01:53.977Z</time></trkpt><trkpt lat="45.100180602112644" lon="8.410224976983113"><ele>155.0</ele><time>2026-04-26T15:01:54.977Z</time></trkpt><trkpt lat="45.10014859995687" lon="8.410395140408417"><ele>154.33333333333331</ele><time>2026-04-26T15:01:55.977Z</time></trkpt><trkpt lat="45.100140391832966" lon="8.410604384555201"><ele>153.66666666666666</ele><time>2026-04-26T15:01:56.977Z</time></trkpt><trkpt lat="45.10013211671827" lon="8.410836348751062"><ele>153.0</ele><time>2026-04-26T15:01:57.977Z</time></trkpt><trkpt lat="45.100113696290286" lon="8.411098548451141"><ele>153.33333333333334</ele><time>2026-04-26T15:01:58.977Z</time></trkpt><trkpt lat="45.10009573162188" lon="8.411350499772176"><ele>153.66666666666669</ele><time>2026-04-26T15:01:59.977Z</time></trkpt><trkpt lat="45.10007611772469" lon="8.411592603158383"><ele>154.0</ele><time>2026-04-26T15:02:00.977Z</time></trkpt><trkpt lat="45.1000534564519" lon="8.411833611270831"><ele>154.0</ele><time>2026-04-26T15:02:01.977Z</time></trkpt><trkpt lat="45.10003425387087" lon="8.412047750622031"><ele>154.0</ele><time>2026-04-26T15:02:02.977Z</time></trkpt><trkpt lat="45.10002035162431" lon="8.41224355728476"><ele>154.0</ele><time>2026-04-26T15:02:03.977Z</time></trkpt><trkpt lat="45.10000078436053" lon="8.412419271495683"><ele>154.0</ele><time>2026-04-26T15:02:04.977Z</time></trkpt><trkpt lat="45.09997357090272" lon="8.41257490735344"><ele>154.33333333333334</ele><time>2026-04-26T15:02:05.977Z</time></trkpt><trkpt lat="45.09992895533918" lon="8.412694750044613"><ele>154.66666666666669</ele><time>2026-04-26T15:02:06.977Z</time></trkpt><trkpt lat="45.09986387307932" lon="8.412775454199725"><ele>155.0</ele><time>2026-04-26T15:02:07.977Z</time></trkpt><trkpt lat="45.09978205734063" lon="8.412804863622773"><ele>155.33333333333334</ele><time>2026-04-26T15:02:08.977Z</time></trkpt><trkpt lat="45.09970670849537" lon="8.412758582078057"><ele>155.66666666666666</ele><time>2026-04-26T15:02:09.977Z</time></trkpt><trkpt lat="45.09963491993001" lon="8.412712824978335"><ele>156.0</ele><time>2026-04-26T15:02:10.977Z</time></trkpt><trkpt lat="45.099611366309645" lon="8.412590821811904"><ele>158.5</ele><time>2026-04-26T15:02:11.977Z</time></trkpt><trkpt lat="45.09960474748956" lon="8.412456742372381"><ele>161.0</ele><time>2026-04-26T15:02:12.977Z</time></trkpt><trkpt lat="45.099613317323296" lon="8.412287735583869"><ele>163.5</ele><time>2026-04-26T15:02:13.977Z</time></trkpt><trkpt lat="45.0996085506533" lon="8.4121088570216"><ele>166.0</ele><time>2026-04-26T15:02:14.977Z</time></trkpt><trkpt lat="45.099575184691346" lon="8.411946872366832"><ele>166.0</ele><time>2026-04-26T15:02:15.977Z</time></trkpt><trkpt lat="45.09950122118988" lon="8.411830190619582"><ele>166.0</ele><time>2026-04-26T15:02:16.977Z</time></trkpt><trkpt lat="45.09940791482636" lon="8.41176469038222"><ele>166.0</ele><time>2026-04-26T15:02:17.977Z</time></trkpt><trkpt lat="45.0993036817966" lon="8.411696137997803"><ele>166.0</ele><time>2026-04-26T15:02:18.977Z</time></trkpt><trkpt lat="45.09919505115443" lon="8.41162791496536"><ele>166.0</ele><time>2026-04-26T15:02:19.977Z</time></trkpt><trkpt lat="45.09909367828558" lon="8.411545354395058"><ele>166.0</ele><time>2026-04-26T15:02:20.977Z</time></trkpt><trkpt lat="45.09901529826516" lon="8.411434079920092"><ele>166.0</ele><time>2026-04-26T15:02:21.977Z</time></trkpt><trkpt lat="45.09896035294675" lon="8.411302624429123"><ele>166.0</ele><time>2026-04-26T15:02:22.977Z</time></trkpt><trkpt lat="45.0989358593998" lon="8.41114621053415"><ele>166.0</ele><time>2026-04-26T15:02:23.977Z</time></trkpt><trkpt lat="45.09893389461368" lon="8.410976943126418"><ele>166.0</ele><time>2026-04-26T15:02:24.977Z</time></trkpt><trkpt lat="45.098933346382296" lon="8.410799142221139"><ele>166.0</ele><time>2026-04-26T15:02:25.977Z</time></trkpt><trkpt lat="45.098922948439096" lon="8.410619450594407"><ele>166.0</ele><time>2026-04-26T15:02:26.977Z</time></trkpt><trkpt lat="45.0989112878209" lon="8.410433132395367"><ele>166.0</ele><time>2026-04-26T15:02:27.977Z</time></trkpt><trkpt lat="45.0988996246462" lon="8.410238495070324"><ele>166.75</ele><time>2026-04-26T15:02:28.977Z</time></trkpt><trkpt lat="45.0988935811918" lon="8.410042093927283"><ele>167.5</ele><time>2026-04-26T15:02:29.977Z</time></trkpt><trkpt lat="45.098886732327344" lon="8.409844675818132"><ele>168.25</ele><time>2026-04-26T15:02:30.977Z</time></trkpt><trkpt lat="45.098880676997325" lon="8.409653188112104"><ele>169.0</ele><time>2026-04-26T15:02:31.977Z</time></trkpt><trkpt lat="45.09887911552502" lon="8.409487592542293"><ele>169.6</ele><time>2026-04-26T15:02:32.977Z</time></trkpt><trkpt lat="45.09887869627174" lon="8.409333242508197"><ele>170.2</ele><time>2026-04-26T15:02:33.977Z</time></trkpt><trkpt lat="45.09887632279981" lon="8.409177130946174"><ele>170.79999999999998</ele><time>2026-04-26T15:02:34.977Z</time></trkpt><trkpt lat="45.09887423437449" lon="8.409017273231"><ele>171.39999999999998</ele><time>2026-04-26T15:02:35.977Z</time></trkpt><trkpt lat="45.09887029884199" lon="8.408865564815395"><ele>172.0</ele><time>2026-04-26T15:02:36.977Z</time></trkpt><trkpt lat="45.098859347005906" lon="8.408718128682017"><ele>172.75</ele><time>2026-04-26T15:02:37.977Z</time></trkpt><trkpt lat="45.09884079739989" lon="8.408565359549705"><ele>173.5</ele><time>2026-04-26T15:02:38.977Z</time></trkpt><trkpt lat="45.09880760400445" lon="8.408412643059574"><ele>174.25</ele><time>2026-04-26T15:02:39.977Z</time></trkpt><trkpt lat="45.098756157998665" lon="8.408264660985095"><ele>175.0</ele><time>2026-04-26T15:02:40.977Z</time></trkpt><trkpt lat="45.09869500699523" lon="8.408087549859584"><ele>176.66666666666669</ele><time>2026-04-26T15:02:41.977Z</time></trkpt><trkpt lat="45.098601695701056" lon="8.407889132851146"><ele>178.33333333333334</ele><time>2026-04-26T15:02:42.977Z</time></trkpt><trkpt lat="45.09849421477521" lon="8.40766358345178"><ele>180.0</ele><time>2026-04-26T15:02:43.977Z</time></trkpt><trkpt lat="45.098379732973356" lon="8.407453845072324"><ele>180.0</ele><time>2026-04-26T15:02:44.977Z</time></trkpt><trkpt lat="45.09827954899206" lon="8.407240531879573"><ele>180.0</ele><time>2026-04-26T15:02:45.977Z</time></trkpt><trkpt lat="45.098171258853775" lon="8.40704801920509"><ele>180.0</ele><time>2026-04-26T15:02:46.977Z</time></trkpt><trkpt lat="45.098059453265115" lon="8.406877761649147"><ele>182.66666666666666</ele><time>2026-04-26T15:02:47.977Z</time></trkpt><trkpt lat="45.09793926766764" lon="8.406727950030431"><ele>185.33333333333331</ele><time>2026-04-26T15:02:48.977Z</time></trkpt><trkpt lat="45.09780884431699" lon="8.406609475941433"><ele>188.0</ele><time>2026-04-26T15:02:49.977Z</time></trkpt><trkpt lat="45.09765445358021" lon="8.40652735540094"><ele>188.0</ele><time>2026-04-26T15:02:50.977Z</time></trkpt><trkpt lat="45.09748566282727" lon="8.406474826130523"><ele>188.0</ele><time>2026-04-26T15:02:51.977Z</time></trkpt><trkpt lat="45.09730816479761" lon="8.40642443915211"><ele>188.0</ele><time>2026-04-26T15:02:52.977Z</time></trkpt><trkpt lat="45.097122126822434" lon="8.406375306680701"><ele>189.66666666666666</ele><time>2026-04-26T15:02:53.977Z</time></trkpt><trkpt lat="45.09693483780485" lon="8.406329414352003"><ele>191.33333333333331</ele><time>2026-04-26T15:02:54.977Z</time></trkpt><trkpt lat="45.09674524824777" lon="8.406306605387968"><ele>193.0</ele><time>2026-04-26T15:02:55.977Z</time></trkpt><trkpt lat="45.09656194331735" lon="8.406310933309685"><ele>195.33333333333331</ele><time>2026-04-26T15:02:56.977Z</time></trkpt><trkpt lat="45.096388914673184" lon="8.406333732634023"><ele>197.66666666666669</ele><time>2026-04-26T15:02:57.977Z</time></trkpt><trkpt lat="45.09622389482825" lon="8.406363223222682"><ele>200.0</ele><time>2026-04-26T15:02:58.977Z</time></trkpt><trkpt lat="45.09606260373978" lon="8.406380765352614"><ele>200.0</ele><time>2026-04-26T15:02:59.977Z</time></trkpt><trkpt lat="45.09590843555843" lon="8.406395812876507"><ele>200.0</ele><time>2026-04-26T15:03:00.977Z</time></trkpt><trkpt lat="45.095765877255445" lon="8.406418273576763"><ele>200.0</ele><time>2026-04-26T15:03:01.977Z</time></trkpt><trkpt lat="45.09563699848742" lon="8.406470669217226"><ele>200.0</ele><time>2026-04-26T15:03:02.977Z</time></trkpt><trkpt lat="45.09551157136806" lon="8.406554941797108"><ele>201.25</ele><time>2026-04-26T15:03:03.977Z</time></trkpt><trkpt lat="45.09539561769187" lon="8.406665482726014"><ele>202.5</ele><time>2026-04-26T15:03:04.977Z</time></trkpt><trkpt lat="45.09528754730813" lon="8.406803977490688"><ele>203.75</ele><time>2026-04-26T15:03:05.977Z</time></trkpt><trkpt lat="45.09518745706169" lon="8.406945806531704"><ele>205.0</ele><time>2026-04-26T15:03:06.977Z</time></trkpt><trkpt lat="45.0950877210214" lon="8.407062856666023"><ele>205.0</ele><time>2026-04-26T15:03:07.977Z</time></trkpt><trkpt lat="45.09497752451182" lon="8.407143413837687"><ele>205.0</ele><time>2026-04-26T15:03:08.977Z</time></trkpt><trkpt lat="45.09485298555456" lon="8.407188957406836"><ele>205.0</ele><time>2026-04-26T15:03:09.976Z</time></trkpt><trkpt lat="45.09471237041207" lon="8.407210215223637"><ele>205.0</ele><time>2026-04-26T15:03:10.976Z</time></trkpt><trkpt lat="45.09455390043035" lon="8.40722839028603"><ele>205.33333333333331</ele><time>2026-04-26T15:03:11.976Z</time></trkpt><trkpt lat="45.0943833864259" lon="8.407242088529216"><ele>205.66666666666669</ele><time>2026-04-26T15:03:12.976Z</time></trkpt><trkpt lat="45.09420543158569" lon="8.407261329374407"><ele>206.0</ele><time>2026-04-26T15:03:13.976Z</time></trkpt><trkpt lat="45.094025207684" lon="8.407278667892127"><ele>206.0</ele><time>2026-04-26T15:03:14.976Z</time></trkpt><trkpt lat="45.09384716929752" lon="8.407295455516776"><ele>206.0</ele><time>2026-04-26T15:03:15.976Z</time></trkpt><trkpt lat="45.093665161418244" lon="8.407317264906643"><ele>206.0</ele><time>2026-04-26T15:03:16.976Z</time></trkpt><trkpt lat="45.09348454909122" lon="8.407341142686425"><ele>206.0</ele><time>2026-04-26T15:03:17.976Z</time></trkpt><trkpt lat="45.093305496211045" lon="8.407362731462596"><ele>206.0</ele><time>2026-04-26T15:03:18.975Z</time></trkpt><trkpt lat="45.09313385026998" lon="8.407375227478987"><ele>206.0</ele><time>2026-04-26T15:03:19.975Z</time></trkpt><trkpt lat="45.09296324636554" lon="8.407390467339606"><ele>209.0</ele><time>2026-04-26T15:03:20.975Z</time></trkpt><trkpt lat="45.092796966361945" lon="8.407398539436826"><ele>212.0</ele><time>2026-04-26T15:03:21.975Z</time></trkpt><trkpt lat="45.092637720555814" lon="8.407402050175929"><ele>215.0</ele><time>2026-04-26T15:03:22.975Z</time></trkpt><trkpt lat="45.092483972211845" lon="8.407414364512537"><ele>217.33333333333334</ele><time>2026-04-26T15:03:23.975Z</time></trkpt><trkpt lat="45.09232586489343" lon="8.407427585803344"><ele>219.66666666666669</ele><time>2026-04-26T15:03:24.975Z</time></trkpt><trkpt lat="45.09217329297764" lon="8.407433579094153"><ele>222.0</ele><time>2026-04-26T15:03:25.975Z</time></trkpt><trkpt lat="45.09202899554676" lon="8.407442966384444"><ele>222.0</ele><time>2026-04-26T15:03:26.975Z</time></trkpt><trkpt lat="45.09188934073672" lon="8.407449107121348"><ele>222.0</ele><time>2026-04-26T15:03:27.975Z</time></trkpt><trkpt lat="45.091753135895246" lon="8.407442482247838"><ele>222.0</ele><time>2026-04-26T15:03:28.975Z</time></trkpt><trkpt lat="45.091644395352695" lon="8.407425783390769"><ele>222.0</ele><time>2026-04-26T15:03:29.975Z</time></trkpt><trkpt lat="45.09158059170638" lon="8.40740949722671"><ele>221.6</ele><time>2026-04-26T15:03:30.975Z</time></trkpt><trkpt lat="45.09148221324661" lon="8.407313082498705"><ele>221.2</ele><time>2026-04-26T15:03:32.975Z</time></trkpt><trkpt lat="45.09141518013595" lon="8.407241268978643"><ele>220.8</ele><time>2026-04-26T15:03:33.975Z</time></trkpt><trkpt lat="45.091325287829086" lon="8.407169682057559"><ele>220.4</ele><time>2026-04-26T15:03:34.975Z</time></trkpt><trkpt lat="45.091230660303225" lon="8.407093087353383"><ele>220.0</ele><time>2026-04-26T15:03:35.975Z</time></trkpt><trkpt lat="45.09113054106288" lon="8.407010999175103"><ele>218.5</ele><time>2026-04-26T15:03:36.975Z</time></trkpt><trkpt lat="45.09104227683986" lon="8.40690026244855"><ele>217.0</ele><time>2026-04-26T15:03:37.975Z</time></trkpt><trkpt lat="45.090946174005055" lon="8.406812980955962"><ele>215.5</ele><time>2026-04-26T15:03:38.976Z</time></trkpt><trkpt lat="45.09084670816239" lon="8.406727931505817"><ele>214.0</ele><time>2026-04-26T15:03:39.976Z</time></trkpt><trkpt lat="45.090742187357606" lon="8.406657981842976"><ele>210.75</ele><time>2026-04-26T15:03:40.976Z</time></trkpt><trkpt lat="45.09063292163533" lon="8.406614279694796"><ele>207.5</ele><time>2026-04-26T15:03:41.975Z</time></trkpt><trkpt lat="45.090516275404944" lon="8.406597395788515"><ele>204.25</ele><time>2026-04-26T15:03:42.975Z</time></trkpt><trkpt lat="45.09038862967983" lon="8.406607274950469"><ele>201.0</ele><time>2026-04-26T15:03:43.976Z</time></trkpt><trkpt lat="45.090254839810406" lon="8.406630299651683"><ele>201.0</ele><time>2026-04-26T15:03:44.976Z</time></trkpt><trkpt lat="45.09011836853285" lon="8.40664911531048"><ele>201.0</ele><time>2026-04-26T15:03:45.976Z</time></trkpt><trkpt lat="45.08997907151143" lon="8.406636077340053"><ele>201.0</ele><time>2026-04-26T15:03:46.975Z</time></trkpt><trkpt lat="45.089836611017894" lon="8.406589794015966"><ele>201.0</ele><time>2026-04-26T15:03:47.975Z</time></trkpt><trkpt lat="45.0896883097063" lon="8.406510468282255"><ele>201.66666666666669</ele><time>2026-04-26T15:03:48.975Z</time></trkpt><trkpt lat="45.089531385526826" lon="8.40642403406234"><ele>202.33333333333334</ele><time>2026-04-26T15:03:49.976Z</time></trkpt><trkpt lat="45.089370616934445" lon="8.40634134713948"><ele>203.0</ele><time>2026-04-26T15:03:50.976Z</time></trkpt><trkpt lat="45.08921341765631" lon="8.406260088333566"><ele>199.66666666666669</ele><time>2026-04-26T15:03:51.976Z</time></trkpt><trkpt lat="45.08906090940586" lon="8.406179372690072"><ele>196.33333333333331</ele><time>2026-04-26T15:03:52.976Z</time></trkpt><trkpt lat="45.088914383519175" lon="8.406106327488981"><ele>193.0</ele><time>2026-04-26T15:03:53.976Z</time></trkpt><trkpt lat="45.08877592756507" lon="8.406036703317298"><ele>193.0</ele><time>2026-04-26T15:03:54.976Z</time></trkpt><trkpt lat="45.08865028777149" lon="8.405971405430263"><ele>193.0</ele><time>2026-04-26T15:03:55.976Z</time></trkpt><trkpt lat="45.08853775892207" lon="8.40591202092938"><ele>193.0</ele><time>2026-04-26T15:03:56.976Z</time></trkpt><trkpt lat="45.08842617290769" lon="8.405853017903864"><ele>193.0</ele><time>2026-04-26T15:03:57.976Z</time></trkpt><trkpt lat="45.088307196238794" lon="8.405786419281561"><ele>192.0</ele><time>2026-04-26T15:03:58.976Z</time></trkpt><trkpt lat="45.08818201714371" lon="8.405721081317328"><ele>191.0</ele><time>2026-04-26T15:03:59.976Z</time></trkpt><trkpt lat="45.088048259017505" lon="8.405650784419159"><ele>190.0</ele><time>2026-04-26T15:04:00.976Z</time></trkpt><trkpt lat="45.0879151654771" lon="8.405579179744642"><ele>189.0</ele><time>2026-04-26T15:04:01.976Z</time></trkpt><trkpt lat="45.08778377322456" lon="8.40550734081406"><ele>187.75</ele><time>2026-04-26T15:04:02.976Z</time></trkpt><trkpt lat="45.08765155736781" lon="8.405431174702633"><ele>186.5</ele><time>2026-04-26T15:04:03.976Z</time></trkpt><trkpt lat="45.08752325430035" lon="8.405345377938623"><ele>185.25</ele><time>2026-04-26T15:04:04.976Z</time></trkpt><trkpt lat="45.08740079121883" lon="8.405241210446231"><ele>184.0</ele><time>2026-04-26T15:04:05.976Z</time></trkpt><trkpt lat="45.08728256529709" lon="8.405124830965441"><ele>184.0</ele><time>2026-04-26T15:04:06.976Z</time></trkpt><trkpt lat="45.08716379506495" lon="8.405004545187616"><ele>184.0</ele><time>2026-04-26T15:04:07.976Z</time></trkpt><trkpt lat="45.08704934392625" lon="8.404895254778435"><ele>184.0</ele><time>2026-04-26T15:04:08.976Z</time></trkpt><trkpt lat="45.08692725864748" lon="8.404815723601677"><ele>184.0</ele><time>2026-04-26T15:04:09.976Z</time></trkpt><trkpt lat="45.08678963788717" lon="8.404749656412655"><ele>184.0</ele><time>2026-04-26T15:04:10.976Z</time></trkpt><trkpt lat="45.08663153551407" lon="8.404703676177471"><ele>184.0</ele><time>2026-04-26T15:04:11.976Z</time></trkpt><trkpt lat="45.08646201908348" lon="8.40467024241093"><ele>184.0</ele><time>2026-04-26T15:04:12.976Z</time></trkpt><trkpt lat="45.086278036710816" lon="8.404640283860488"><ele>183.33333333333334</ele><time>2026-04-26T15:04:13.976Z</time></trkpt><trkpt lat="45.08608795883149" lon="8.40460814846732"><ele>182.66666666666666</ele><time>2026-04-26T15:04:14.976Z</time></trkpt><trkpt lat="45.08590523056614" lon="8.404577562621247"><ele>182.0</ele><time>2026-04-26T15:04:15.976Z</time></trkpt><trkpt lat="45.0857298901129" lon="8.404550141389507"><ele>182.0</ele><time>2026-04-26T15:04:16.976Z</time></trkpt><trkpt lat="45.085556916031734" lon="8.404522988580082"><ele>182.0</ele><time>2026-04-26T15:04:17.976Z</time></trkpt><trkpt lat="45.0853809403818" lon="8.404494982903156"><ele>182.0</ele><time>2026-04-26T15:04:18.976Z</time></trkpt><trkpt lat="45.08520770257517" lon="8.404468177042348"><ele>182.0</ele><time>2026-04-26T15:04:19.976Z</time></trkpt><trkpt lat="45.08503670002604" lon="8.40443966884522"><ele>182.0</ele><time>2026-04-26T15:04:20.976Z</time></trkpt><trkpt lat="45.08486974118159" lon="8.404412107023678"><ele>182.0</ele><time>2026-04-26T15:04:21.975Z</time></trkpt><trkpt lat="45.08470664367891" lon="8.40439002557248"><ele>181.66666666666666</ele><time>2026-04-26T15:04:22.975Z</time></trkpt><trkpt lat="45.08454474015239" lon="8.404371634739691"><ele>181.33333333333334</ele><time>2026-04-26T15:04:23.975Z</time></trkpt><trkpt lat="45.08438263085779" lon="8.404375164778797"><ele>181.0</ele><time>2026-04-26T15:04:24.975Z</time></trkpt><trkpt lat="45.084216263625876" lon="8.404405233616886"><ele>180.33333333333334</ele><time>2026-04-26T15:04:25.975Z</time></trkpt><trkpt lat="45.08405200424858" lon="8.404458673532332"><ele>179.66666666666666</ele><time>2026-04-26T15:04:26.975Z</time></trkpt><trkpt lat="45.0838920319902" lon="8.404505013393202"><ele>179.0</ele><time>2026-04-26T15:04:27.975Z</time></trkpt><trkpt lat="45.0837406436795" lon="8.404550013175596"><ele>179.0</ele><time>2026-04-26T15:04:28.975Z</time></trkpt><trkpt lat="45.08359535750687" lon="8.40459005216588"><ele>179.0</ele><time>2026-04-26T15:04:29.975Z</time></trkpt><trkpt lat="45.08344628246917" lon="8.404608984823591"><ele>179.0</ele><time>2026-04-26T15:04:30.975Z</time></trkpt><trkpt lat="45.08328943413191" lon="8.404596733379005"><ele>180.33333333333331</ele><time>2026-04-26T15:04:31.975Z</time></trkpt><trkpt lat="45.08312627376536" lon="8.40455132106034"><ele>181.66666666666666</ele><time>2026-04-26T15:04:32.975Z</time></trkpt><trkpt lat="45.08295252257736" lon="8.40450011961505"><ele>183.0</ele><time>2026-04-26T15:04:33.975Z</time></trkpt><trkpt lat="45.08276932848207" lon="8.404439752839302"><ele>183.0</ele><time>2026-04-26T15:04:34.975Z</time></trkpt><trkpt lat="45.082580699960275" lon="8.404381585171262"><ele>183.0</ele><time>2026-04-26T15:04:35.975Z</time></trkpt><trkpt lat="45.08239083619585" lon="8.404322564575626"><ele>183.0</ele><time>2026-04-26T15:04:36.975Z</time></trkpt><trkpt lat="45.0822096446295" lon="8.404260053938494"><ele>184.0</ele><time>2026-04-26T15:04:37.975Z</time></trkpt><trkpt lat="45.08203821595573" lon="8.404203767930003"><ele>185.0</ele><time>2026-04-26T15:04:38.975Z</time></trkpt><trkpt lat="45.0818776530034" lon="8.40415463274555"><ele>186.0</ele><time>2026-04-26T15:04:39.975Z</time></trkpt><trkpt lat="45.08173139995837" lon="8.404112647101492"><ele>186.0</ele><time>2026-04-26T15:04:40.975Z</time></trkpt><trkpt lat="45.08160278651067" lon="8.4040731630918"><ele>186.0</ele><time>2026-04-26T15:04:41.975Z</time></trkpt><trkpt lat="45.081477671737204" lon="8.404003213626375"><ele>186.0</ele><time>2026-04-26T15:04:42.975Z</time></trkpt><trkpt lat="45.08135126840081" lon="8.403897730073007"><ele>186.0</ele><time>2026-04-26T15:04:43.975Z</time></trkpt><trkpt lat="45.0812241042453" lon="8.403774893225302"><ele>190.0</ele><time>2026-04-26T15:04:44.975Z</time></trkpt><trkpt lat="45.08109655069647" lon="8.403644614954343"><ele>194.0</ele><time>2026-04-26T15:04:45.975Z</time></trkpt><trkpt lat="45.0809587188703" lon="8.40352574314825"><ele>198.0</ele><time>2026-04-26T15:04:46.975Z</time></trkpt><trkpt lat="45.08081339870392" lon="8.403417184040421"><ele>198.33333333333331</ele><time>2026-04-26T15:04:47.975Z</time></trkpt><trkpt lat="45.080663799170175" lon="8.403322144642518"><ele>198.66666666666666</ele><time>2026-04-26T15:04:48.975Z</time></trkpt><trkpt lat="45.08051476988113" lon="8.40323440696712"><ele>199.0</ele><time>2026-04-26T15:04:49.975Z</time></trkpt><trkpt lat="45.080381729019564" lon="8.403133503817386"><ele>199.0</ele><time>2026-04-26T15:04:50.975Z</time></trkpt><trkpt lat="45.08025640002" lon="8.403062396830073"><ele>199.0</ele><time>2026-04-26T15:04:51.975Z</time></trkpt><trkpt lat="45.08014121759877" lon="8.403001750199598"><ele>199.0</ele><time>2026-04-26T15:04:52.975Z</time></trkpt><trkpt lat="45.08003561634237" lon="8.402951810783977"><ele>199.0</ele><time>2026-04-26T15:04:53.975Z</time></trkpt><trkpt lat="45.079943767705224" lon="8.402900079721466"><ele>199.49999999999997</ele><time>2026-04-26T15:04:54.975Z</time></trkpt><trkpt lat="45.07987138563213" lon="8.40284837932303"><ele>200.0</ele><time>2026-04-26T15:04:55.975Z</time></trkpt><trkpt lat="45.079805938344236" lon="8.402794630187296"><ele>200.5</ele><time>2026-04-26T15:04:56.975Z</time></trkpt><trkpt lat="45.079743457619756" lon="8.402740747722861"><ele>201.0</ele><time>2026-04-26T15:04:57.975Z</time></trkpt><trkpt lat="45.07967629611292" lon="8.402675260902003"><ele>201.49999999999997</ele><time>2026-04-26T15:04:58.975Z</time></trkpt><trkpt lat="45.07961759578198" lon="8.402588801811236"><ele>202.0</ele><time>2026-04-26T15:04:59.975Z</time></trkpt><trkpt lat="45.079565756848616" lon="8.40248808635939"><ele>202.0</ele><time>2026-04-26T15:05:00.975Z</time></trkpt><trkpt lat="45.07951636539089" lon="8.40237450966528"><ele>202.0</ele><time>2026-04-26T15:05:01.975Z</time></trkpt><trkpt lat="45.07947085194895" lon="8.402245761659758"><ele>202.0</ele><time>2026-04-26T15:05:02.975Z</time></trkpt><trkpt lat="45.079431579024984" lon="8.40211053353011"><ele>202.0</ele><time>2026-04-26T15:05:03.975Z</time></trkpt><trkpt lat="45.07939170833478" lon="8.401975383528324"><ele>202.0</ele><time>2026-04-26T15:05:04.975Z</time></trkpt><trkpt lat="45.0793534932092" lon="8.40183294744852"><ele>203.39999999999998</ele><time>2026-04-26T15:05:05.975Z</time></trkpt><trkpt lat="45.0793142979317" lon="8.401687709049302"><ele>204.79999999999998</ele><time>2026-04-26T15:05:06.975Z</time></trkpt><trkpt lat="45.07927302374979" lon="8.40155219925557"><ele>206.2</ele><time>2026-04-26T15:05:07.975Z</time></trkpt><trkpt lat="45.07922107403767" lon="8.401426783975117"><ele>207.6</ele><time>2026-04-26T15:05:08.975Z</time></trkpt><trkpt lat="45.07915068449019" lon="8.401328806204782"><ele>209.0</ele><time>2026-04-26T15:05:09.975Z</time></trkpt><trkpt lat="45.079082774707395" lon="8.401235345733653"><ele>209.79999999999998</ele><time>2026-04-26T15:05:10.975Z</time></trkpt><trkpt lat="45.079013216454776" lon="8.4011335248256"><ele>210.6</ele><time>2026-04-26T15:05:11.975Z</time></trkpt><trkpt lat="45.07895671073595" lon="8.401002844450623"><ele>211.4</ele><time>2026-04-26T15:05:12.975Z</time></trkpt><trkpt lat="45.07889199074772" lon="8.400908089666988"><ele>212.2</ele><time>2026-04-26T15:05:13.975Z</time></trkpt><trkpt lat="45.0788348160385" lon="8.400824633741776"><ele>213.0</ele><time>2026-04-26T15:05:14.975Z</time></trkpt><trkpt lat="45.07878750165172" lon="8.400752726422358"><ele>213.0</ele><time>2026-04-26T15:05:15.975Z</time></trkpt><trkpt lat="45.07872705329346" lon="8.400627511240002"><ele>213.0</ele><time>2026-04-26T15:05:17.975Z</time></trkpt><trkpt lat="45.078672404270534" lon="8.40050346445588"><ele>213.0</ele><time>2026-04-26T15:05:19.975Z</time></trkpt><trkpt lat="45.07852534601284" lon="8.400490992138025"><ele>213.0</ele><time>2026-04-26T15:05:20.975Z</time></trkpt><trkpt lat="45.07844900337038" lon="8.400444204544192"><ele>213.0</ele><time>2026-04-26T15:05:21.975Z</time></trkpt><trkpt lat="45.07838199579016" lon="8.400403017386258"><ele>213.5</ele><time>2026-04-26T15:05:22.975Z</time></trkpt><trkpt lat="45.078318533175846" lon="8.400370234949275"><ele>214.0</ele><time>2026-04-26T15:05:23.975Z</time></trkpt><trkpt lat="45.07823032003008" lon="8.400321325030163"><ele>214.5</ele><time>2026-04-26T15:05:25.975Z</time></trkpt><trkpt lat="45.078240020895784" lon="8.400170924267469"><ele>215.0</ele><time>2026-04-26T15:05:27.975Z</time></trkpt><trkpt lat="45.078260465748116" lon="8.400074792956085"><ele>215.5</ele><time>2026-04-26T15:05:28.975Z</time></trkpt><trkpt lat="45.07828454817158" lon="8.399966842971791"><ele>216.0</ele><time>2026-04-26T15:05:29.975Z</time></trkpt><trkpt lat="45.078308199957206" lon="8.399836014248953"><ele>216.0</ele><time>2026-04-26T15:05:30.975Z</time></trkpt><trkpt lat="45.07832917814498" lon="8.399693328119993"><ele>216.00000000000003</ele><time>2026-04-26T15:05:31.975Z</time></trkpt><trkpt lat="45.0783509523621" lon="8.399548538407121"><ele>216.00000000000003</ele><time>2026-04-26T15:05:32.975Z</time></trkpt><trkpt lat="45.07836936088689" lon="8.399406088480918"><ele>216.0</ele><time>2026-04-26T15:05:33.975Z</time></trkpt><trkpt lat="45.078395026070254" lon="8.399260755722482"><ele>216.0</ele><time>2026-04-26T15:05:34.975Z</time></trkpt><trkpt lat="45.07840954822144" lon="8.399106383018268"><ele>215.4</ele><time>2026-04-26T15:05:35.975Z</time></trkpt><trkpt lat="45.078414141439204" lon="8.398949369768712"><ele>214.8</ele><time>2026-04-26T15:05:36.975Z</time></trkpt><trkpt lat="45.0784143450278" lon="8.398794856085441"><ele>214.20000000000002</ele><time>2026-04-26T15:05:37.975Z</time></trkpt><trkpt lat="45.07841307737086" lon="8.398642880545005"><ele>213.60000000000002</ele><time>2026-04-26T15:05:38.975Z</time></trkpt><trkpt lat="45.07843001236129" lon="8.398495236914373"><ele>213.0</ele><time>2026-04-26T15:05:39.975Z</time></trkpt><trkpt lat="45.078429048789395" lon="8.39835204341998"><ele>213.0</ele><time>2026-04-26T15:05:40.975Z</time></trkpt><trkpt lat="45.0784211998452" lon="8.398205729595169"><ele>213.0</ele><time>2026-04-26T15:05:41.975Z</time></trkpt><trkpt lat="45.078398357140436" lon="8.398061782593544"><ele>213.0</ele><time>2026-04-26T15:05:42.975Z</time></trkpt><trkpt lat="45.078361965591796" lon="8.39792570341199"><ele>213.0</ele><time>2026-04-26T15:05:43.975Z</time></trkpt><trkpt lat="45.0783113561411" lon="8.397794310878956"><ele>213.0</ele><time>2026-04-26T15:05:44.975Z</time></trkpt><trkpt lat="45.07825185379131" lon="8.397672299969875"><ele>208.2</ele><time>2026-04-26T15:05:45.975Z</time></trkpt><trkpt lat="45.07819329464548" lon="8.397555114424938"><ele>203.4</ele><time>2026-04-26T15:05:46.975Z</time></trkpt><trkpt lat="45.07814627633301" lon="8.397428810648675"><ele>198.6</ele><time>2026-04-26T15:05:47.975Z</time></trkpt><trkpt lat="45.07811338447387" lon="8.397295613598265"><ele>193.79999999999998</ele><time>2026-04-26T15:05:48.975Z</time></trkpt><trkpt lat="45.07809080629736" lon="8.397161510983855"><ele>189.0</ele><time>2026-04-26T15:05:49.975Z</time></trkpt><trkpt lat="45.078082899516886" lon="8.397017601648232"><ele>187.5</ele><time>2026-04-26T15:05:50.975Z</time></trkpt><trkpt lat="45.07808846829846" lon="8.396862092926533"><ele>186.0</ele><time>2026-04-26T15:05:51.975Z</time></trkpt><trkpt lat="45.07811053205146" lon="8.396685946990068"><ele>184.5</ele><time>2026-04-26T15:05:52.975Z</time></trkpt><trkpt lat="45.078135527617" lon="8.396506800939942"><ele>183.0</ele><time>2026-04-26T15:05:53.975Z</time></trkpt><trkpt lat="45.07814891956958" lon="8.396321682443455"><ele>181.25</ele><time>2026-04-26T15:05:54.975Z</time></trkpt><trkpt lat="45.07814287258289" lon="8.396134451136838"><ele>179.5</ele><time>2026-04-26T15:05:55.975Z</time></trkpt><trkpt lat="45.07812831529735" lon="8.395948029443813"><ele>177.75</ele><time>2026-04-26T15:05:56.975Z</time></trkpt><trkpt lat="45.07812416730977" lon="8.395756425045928"><ele>176.0</ele><time>2026-04-26T15:05:57.975Z</time></trkpt><trkpt lat="45.078136678776055" lon="8.395582577396901"><ele>175.75</ele><time>2026-04-26T15:05:58.975Z</time></trkpt><trkpt lat="45.07819101148786" lon="8.395407747341629"><ele>175.5</ele><time>2026-04-26T15:05:59.975Z</time></trkpt><trkpt lat="45.078260966780945" lon="8.395250816099656"><ele>175.25</ele><time>2026-04-26T15:06:00.975Z</time></trkpt><trkpt lat="45.0783071167133" lon="8.395101529168317"><ele>175.0</ele><time>2026-04-26T15:06:01.975Z</time></trkpt><trkpt lat="45.07832913208614" lon="8.394944202260533"><ele>175.75</ele><time>2026-04-26T15:06:02.975Z</time></trkpt><trkpt lat="45.07831658193566" lon="8.394778824287057"><ele>176.5</ele><time>2026-04-26T15:06:03.975Z</time></trkpt><trkpt lat="45.07826665312826" lon="8.39462521009351"><ele>177.25</ele><time>2026-04-26T15:06:04.975Z</time></trkpt><trkpt lat="45.07818363839243" lon="8.394484354245382"><ele>178.0</ele><time>2026-04-26T15:06:05.975Z</time></trkpt><trkpt lat="45.078082211890134" lon="8.394360710422758"><ele>178.0</ele><time>2026-04-26T15:06:06.975Z</time></trkpt><trkpt lat="45.07797509014973" lon="8.394236885856786"><ele>178.0</ele><time>2026-04-26T15:06:07.975Z</time></trkpt><trkpt lat="45.0778646411227" lon="8.394106156573168"><ele>178.0</ele><time>2026-04-26T15:06:08.975Z</time></trkpt><trkpt lat="45.07775908315371" lon="8.393994291421263"><ele>178.0</ele><time>2026-04-26T15:06:09.975Z</time></trkpt><trkpt lat="45.07767558742293" lon="8.393878338496439"><ele>178.75</ele><time>2026-04-26T15:06:10.975Z</time></trkpt><trkpt lat="45.077587555352935" lon="8.39379168842844"><ele>179.5</ele><time>2026-04-26T15:06:11.975Z</time></trkpt><trkpt lat="45.07748457487408" lon="8.393749499873543"><ele>180.25</ele><time>2026-04-26T15:06:12.975Z</time></trkpt><trkpt lat="45.07736601689707" lon="8.393758525351291"><ele>181.0</ele><time>2026-04-26T15:06:13.975Z</time></trkpt><trkpt lat="45.07725000555488" lon="8.393832345404672"><ele>182.25</ele><time>2026-04-26T15:06:14.975Z</time></trkpt><trkpt lat="45.07713755168527" lon="8.393948266201605"><ele>183.5</ele><time>2026-04-26T15:06:15.975Z</time></trkpt><trkpt lat="45.07700234884097" lon="8.39404887538922"><ele>184.75</ele><time>2026-04-26T15:06:16.975Z</time></trkpt><trkpt lat="45.0768771777702" lon="8.394175665369026"><ele>186.0</ele><time>2026-04-26T15:06:17.975Z</time></trkpt><trkpt lat="45.07675024844498" lon="8.394299788555195"><ele>186.0</ele><time>2026-04-26T15:06:18.975Z</time></trkpt><trkpt lat="45.076621104499566" lon="8.394424814123164"><ele>186.0</ele><time>2026-04-26T15:06:19.975Z</time></trkpt><trkpt lat="45.07649320150027" lon="8.394554716518966"><ele>186.0</ele><time>2026-04-26T15:06:20.975Z</time></trkpt><trkpt lat="45.076356799174015" lon="8.394654993402128"><ele>187.5</ele><time>2026-04-26T15:06:21.975Z</time></trkpt><trkpt lat="45.076226032280445" lon="8.39474947339609"><ele>189.0</ele><time>2026-04-26T15:06:22.975Z</time></trkpt><trkpt lat="45.07608900296695" lon="8.394823524819687"><ele>190.5</ele><time>2026-04-26T15:06:23.975Z</time></trkpt><trkpt lat="45.07594987592906" lon="8.394885692438057"><ele>192.0</ele><time>2026-04-26T15:06:24.975Z</time></trkpt><trkpt lat="45.0758153500231" lon="8.394931752511345"><ele>194.0</ele><time>2026-04-26T15:06:25.975Z</time></trkpt><trkpt lat="45.075688917126925" lon="8.394951064559953"><ele>196.0</ele><time>2026-04-26T15:06:26.975Z</time></trkpt><trkpt lat="45.07557102735941" lon="8.394944914848395"><ele>198.0</ele><time>2026-04-26T15:06:27.975Z</time></trkpt><trkpt lat="45.07544983966702" lon="8.394931206863227"><ele>200.0</ele><time>2026-04-26T15:06:28.975Z</time></trkpt><trkpt lat="45.07533143493354" lon="8.394867837829159"><ele>200.0</ele><time>2026-04-26T15:06:29.975Z</time></trkpt><trkpt lat="45.075208043283055" lon="8.394798946027572"><ele>200.0</ele><time>2026-04-26T15:06:30.975Z</time></trkpt><trkpt lat="45.07507967530058" lon="8.394723142954103"><ele>200.0</ele><time>2026-04-26T15:06:31.975Z</time></trkpt><trkpt lat="45.07495299331168" lon="8.394624383901897"><ele>200.0</ele><time>2026-04-26T15:06:32.975Z</time></trkpt><trkpt lat="45.07483115921901" lon="8.394513245104777"><ele>203.75</ele><time>2026-04-26T15:06:33.974Z</time></trkpt><trkpt lat="45.07470898225136" lon="8.39441109170488"><ele>207.5</ele><time>2026-04-26T15:06:34.974Z</time></trkpt><trkpt lat="45.0745895144342" lon="8.394321269442225"><ele>211.25</ele><time>2026-04-26T15:06:35.974Z</time></trkpt><trkpt lat="45.07446772649665" lon="8.39425182881449"><ele>215.0</ele><time>2026-04-26T15:06:36.974Z</time></trkpt><trkpt lat="45.074345664747284" lon="8.394195347366278"><ele>215.0</ele><time>2026-04-26T15:06:37.974Z</time></trkpt><trkpt lat="45.07422364399574" lon="8.394127108365751"><ele>215.0</ele><time>2026-04-26T15:06:38.974Z</time></trkpt><trkpt lat="45.07410650199644" lon="8.394044554914526"><ele>215.0</ele><time>2026-04-26T15:06:39.973Z</time></trkpt><trkpt lat="45.07399466299402" lon="8.393945518934075"><ele>215.0</ele><time>2026-04-26T15:06:40.973Z</time></trkpt><trkpt lat="45.07387974380224" lon="8.393840986119615"><ele>218.0</ele><time>2026-04-26T15:06:41.973Z</time></trkpt><trkpt lat="45.07376308086548" lon="8.393731566845963"><ele>221.0</ele><time>2026-04-26T15:06:42.973Z</time></trkpt><trkpt lat="45.073646957368105" lon="8.393617659765201"><ele>224.0</ele><time>2026-04-26T15:06:43.973Z</time></trkpt><trkpt lat="45.07353345907239" lon="8.393504402502034"><ele>227.0</ele><time>2026-04-26T15:06:44.973Z</time></trkpt><trkpt lat="45.07342472960651" lon="8.39340412184531"><ele>227.0</ele><time>2026-04-26T15:06:45.973Z</time></trkpt><trkpt lat="45.073322105020296" lon="8.393313519119408"><ele>227.0</ele><time>2026-04-26T15:06:46.973Z</time></trkpt><trkpt lat="45.073229897873404" lon="8.393232436709576"><ele>227.0</ele><time>2026-04-26T15:06:47.972Z</time></trkpt><trkpt lat="45.07314557257728" lon="8.393150877825535"><ele>227.0</ele><time>2026-04-26T15:06:48.972Z</time></trkpt><trkpt lat="45.073080521145656" lon="8.393067002171655"><ele>227.0</ele><time>2026-04-26T15:06:49.972Z</time></trkpt><trkpt lat="45.07304140656819" lon="8.392985214468695"><ele>226.00000000000003</ele><time>2026-04-26T15:06:50.972Z</time></trkpt><trkpt lat="45.0730036119288" lon="8.392861674756457"><ele>225.0</ele><time>2026-04-26T15:06:52.972Z</time></trkpt><trkpt lat="45.07294736704115" lon="8.392778971972174"><ele>224.0</ele><time>2026-04-26T15:06:54.972Z</time></trkpt><trkpt lat="45.07283010586283" lon="8.392792563793986"><ele>223.0</ele><time>2026-04-26T15:06:56.972Z</time></trkpt><trkpt lat="45.07275857213882" lon="8.392820418763037"><ele>222.00000000000003</ele><time>2026-04-26T15:06:57.972Z</time></trkpt><trkpt lat="45.07268519536002" lon="8.392840583207022"><ele>221.0</ele><time>2026-04-26T15:06:58.972Z</time></trkpt><trkpt lat="45.0726041074099" lon="8.392865612582833"><ele>221.0</ele><time>2026-04-26T15:06:59.972Z</time></trkpt><trkpt lat="45.07250925559955" lon="8.392898831681856"><ele>221.00000000000003</ele><time>2026-04-26T15:07:00.972Z</time></trkpt><trkpt lat="45.072406028092175" lon="8.392935777628653"><ele>221.00000000000003</ele><time>2026-04-26T15:07:01.972Z</time></trkpt><trkpt lat="45.07229592636474" lon="8.392980967557904"><ele>221.0</ele><time>2026-04-26T15:07:02.972Z</time></trkpt><trkpt lat="45.0721874801588" lon="8.393037928794326"><ele>221.0</ele><time>2026-04-26T15:07:03.972Z</time></trkpt><trkpt lat="45.07208193508054" lon="8.393086768046778"><ele>220.75</ele><time>2026-04-26T15:07:04.971Z</time></trkpt><trkpt lat="45.07197014898335" lon="8.39313720140081"><ele>220.5</ele><time>2026-04-26T15:07:05.971Z</time></trkpt><trkpt lat="45.07186050898851" lon="8.393187839215294"><ele>220.25</ele><time>2026-04-26T15:07:06.971Z</time></trkpt><trkpt lat="45.07174128836555" lon="8.39323069704562"><ele>220.0</ele><time>2026-04-26T15:07:07.971Z</time></trkpt><trkpt lat="45.07163239744354" lon="8.393268442093285"><ele>218.75</ele><time>2026-04-26T15:07:08.971Z</time></trkpt><trkpt lat="45.07152456373583" lon="8.393295583718402"><ele>217.5</ele><time>2026-04-26T15:07:09.971Z</time></trkpt><trkpt lat="45.07141668996054" lon="8.393297201284742"><ele>216.25</ele><time>2026-04-26T15:07:10.971Z</time></trkpt><trkpt lat="45.07130315634729" lon="8.393255092611643"><ele>215.0</ele><time>2026-04-26T15:07:11.971Z</time></trkpt><trkpt lat="45.07119450391403" lon="8.393179504881596"><ele>215.0</ele><time>2026-04-26T15:07:12.971Z</time></trkpt><trkpt lat="45.071090657412654" lon="8.393104879079536"><ele>215.0</ele><time>2026-04-26T15:07:13.971Z</time></trkpt><trkpt lat="45.07099904342727" lon="8.393027679006863"><ele>215.0</ele><time>2026-04-26T15:07:14.971Z</time></trkpt><trkpt lat="45.07091370647681" lon="8.392955736830846"><ele>215.0</ele><time>2026-04-26T15:07:15.971Z</time></trkpt><trkpt lat="45.07082913428135" lon="8.392904090120174"><ele>215.0</ele><time>2026-04-26T15:07:16.971Z</time></trkpt><trkpt lat="45.070738594252376" lon="8.392878411960659"><ele>213.4</ele><time>2026-04-26T15:07:17.971Z</time></trkpt><trkpt lat="45.07064788054999" lon="8.392897709777596"><ele>211.8</ele><time>2026-04-26T15:07:18.971Z</time></trkpt><trkpt lat="45.07056802221381" lon="8.392953580372655"><ele>210.2</ele><time>2026-04-26T15:07:19.971Z</time></trkpt><trkpt lat="45.07049788688725" lon="8.393035057531698"><ele>208.6</ele><time>2026-04-26T15:07:20.971Z</time></trkpt><trkpt lat="45.07043996577057" lon="8.393138175225944"><ele>207.0</ele><time>2026-04-26T15:07:21.971Z</time></trkpt><trkpt lat="45.07040127135506" lon="8.393264932570311"><ele>207.0</ele><time>2026-04-26T15:07:22.971Z</time></trkpt><trkpt lat="45.07038421985434" lon="8.393405493896266"><ele>207.0</ele><time>2026-04-26T15:07:23.971Z</time></trkpt><trkpt lat="45.07038608922174" lon="8.39355049471965"><ele>207.0</ele><time>2026-04-26T15:07:24.971Z</time></trkpt><trkpt lat="45.070405498831605" lon="8.393704070130367"><ele>207.0</ele><time>2026-04-26T15:07:25.971Z</time></trkpt><trkpt lat="45.070423691747756" lon="8.393862700735546"><ele>207.0</ele><time>2026-04-26T15:07:26.971Z</time></trkpt><trkpt lat="45.070437226123495" lon="8.394027012096235"><ele>206.5</ele><time>2026-04-26T15:07:27.971Z</time></trkpt><trkpt lat="45.07045465942648" lon="8.394197348375199"><ele>206.0</ele><time>2026-04-26T15:07:28.971Z</time></trkpt><trkpt lat="45.07046053992756" lon="8.39437520217505"><ele>205.5</ele><time>2026-04-26T15:07:29.971Z</time></trkpt><trkpt lat="45.07046027575679" lon="8.394556632231803"><ele>205.0</ele><time>2026-04-26T15:07:30.971Z</time></trkpt><trkpt lat="45.070448774318876" lon="8.394736945983833"><ele>204.0</ele><time>2026-04-26T15:07:31.971Z</time></trkpt><trkpt lat="45.07043392003873" lon="8.394914183022777"><ele>203.0</ele><time>2026-04-26T15:07:32.971Z</time></trkpt><trkpt lat="45.070413031541044" lon="8.395075396607579"><ele>202.0</ele><time>2026-04-26T15:07:33.971Z</time></trkpt><trkpt lat="45.070371709108635" lon="8.395227227560284"><ele>201.0</ele><time>2026-04-26T15:07:34.971Z</time></trkpt><trkpt lat="45.07031328748182" lon="8.395376774167717"><ele>200.75</ele><time>2026-04-26T15:07:35.971Z</time></trkpt><trkpt lat="45.07023341444225" lon="8.395527272341898"><ele>200.5</ele><time>2026-04-26T15:07:36.971Z</time></trkpt><trkpt lat="45.070150061569095" lon="8.395683231507416"><ele>200.25</ele><time>2026-04-26T15:07:37.971Z</time></trkpt><trkpt lat="45.07006820560799" lon="8.395836595329431"><ele>200.0</ele><time>2026-04-26T15:07:38.971Z</time></trkpt><trkpt lat="45.06999175524349" lon="8.395992028868312"><ele>197.25</ele><time>2026-04-26T15:07:39.971Z</time></trkpt><trkpt lat="45.06991263974109" lon="8.396154435808105"><ele>194.5</ele><time>2026-04-26T15:07:40.971Z</time></trkpt><trkpt lat="45.06982886636613" lon="8.396325672542678"><ele>191.75</ele><time>2026-04-26T15:07:41.971Z</time></trkpt><trkpt lat="45.069748615679124" lon="8.3964923875407"><ele>189.0</ele><time>2026-04-26T15:07:42.971Z</time></trkpt><trkpt lat="45.069671773191665" lon="8.396648969924778"><ele>189.0</ele><time>2026-04-26T15:07:43.971Z</time></trkpt><trkpt lat="45.06959802473851" lon="8.396794985173662"><ele>189.0</ele><time>2026-04-26T15:07:44.971Z</time></trkpt><trkpt lat="45.06953007737687" lon="8.39692556107594"><ele>189.0</ele><time>2026-04-26T15:07:45.971Z</time></trkpt><trkpt lat="45.06945485822078" lon="8.397033336993259"><ele>189.0</ele><time>2026-04-26T15:07:46.971Z</time></trkpt><trkpt lat="45.06935883275548" lon="8.397101539683383"><ele>189.0</ele><time>2026-04-26T15:07:47.971Z</time></trkpt><trkpt lat="45.069247183439906" lon="8.397131180375728"><ele>189.0</ele><time>2026-04-26T15:07:48.971Z</time></trkpt><trkpt lat="45.06912779404422" lon="8.397133980566192"><ele>189.0</ele><time>2026-04-26T15:07:49.971Z</time></trkpt><trkpt lat="45.06901106406525" lon="8.397136362607633"><ele>189.0</ele><time>2026-04-26T15:07:50.971Z</time></trkpt><trkpt lat="45.06890159202158" lon="8.397157297929432"><ele>188.2</ele><time>2026-04-26T15:07:51.971Z</time></trkpt><trkpt lat="45.068797398024785" lon="8.397204282399343"><ele>187.39999999999998</ele><time>2026-04-26T15:07:52.971Z</time></trkpt><trkpt lat="45.06869766434702" lon="8.397266967686065"><ele>186.6</ele><time>2026-04-26T15:07:53.971Z</time></trkpt><trkpt lat="45.06860692806972" lon="8.397348156571418"><ele>185.8</ele><time>2026-04-26T15:07:54.971Z</time></trkpt><trkpt lat="45.06852481769884" lon="8.39745142667375"><ele>185.0</ele><time>2026-04-26T15:07:55.971Z</time></trkpt><trkpt lat="45.0684335886727" lon="8.397572514618048"><ele>185.0</ele><time>2026-04-26T15:07:56.971Z</time></trkpt><trkpt lat="45.06833123453991" lon="8.397700223492254"><ele>185.0</ele><time>2026-04-26T15:07:57.971Z</time></trkpt><trkpt lat="45.06822752261638" lon="8.397829231691283"><ele>185.0</ele><time>2026-04-26T15:07:58.971Z</time></trkpt><trkpt lat="45.068124933164576" lon="8.397947844657963"><ele>185.0</ele><time>2026-04-26T15:07:59.971Z</time></trkpt><trkpt lat="45.068027341230795" lon="8.398057909146743"><ele>183.6</ele><time>2026-04-26T15:08:00.971Z</time></trkpt><trkpt lat="45.06794144889588" lon="8.39816318800495"><ele>182.2</ele><time>2026-04-26T15:08:01.971Z</time></trkpt><trkpt lat="45.06787216675225" lon="8.398273696594503"><ele>180.8</ele><time>2026-04-26T15:08:02.971Z</time></trkpt><trkpt lat="45.067819906575714" lon="8.398397915910024"><ele>179.4</ele><time>2026-04-26T15:08:03.971Z</time></trkpt><trkpt lat="45.06778916142042" lon="8.398538287499111"><ele>178.0</ele><time>2026-04-26T15:08:04.971Z</time></trkpt><trkpt lat="45.06778384208657" lon="8.398694599780585"><ele>177.25</ele><time>2026-04-26T15:08:05.971Z</time></trkpt><trkpt lat="45.06779317533624" lon="8.398868302566846"><ele>176.5</ele><time>2026-04-26T15:08:06.971Z</time></trkpt><trkpt lat="45.06780120257395" lon="8.399056026852444"><ele>175.75</ele><time>2026-04-26T15:08:07.971Z</time></trkpt><trkpt lat="45.06780927739271" lon="8.399215959839243"><ele>175.0</ele><time>2026-04-26T15:08:08.971Z</time></trkpt><trkpt lat="45.067831923663576" lon="8.399354953454871"><ele>175.0</ele><time>2026-04-26T15:08:09.971Z</time></trkpt><trkpt lat="45.06788249313309" lon="8.399477005426279"><ele>175.0</ele><time>2026-04-26T15:08:10.971Z</time></trkpt><trkpt lat="45.0679530386346" lon="8.39958199978711"><ele>175.0</ele><time>2026-04-26T15:08:11.971Z</time></trkpt><trkpt lat="45.06803586150138" lon="8.399666952889689"><ele>175.0</ele><time>2026-04-26T15:08:12.971Z</time></trkpt><trkpt lat="45.06812723553524" lon="8.399721494923973"><ele>175.0</ele><time>2026-04-26T15:08:13.971Z</time></trkpt><trkpt lat="45.068224328748535" lon="8.399768684442"><ele>173.6</ele><time>2026-04-26T15:08:14.971Z</time></trkpt><trkpt lat="45.06833328387906" lon="8.399774791493613"><ele>172.2</ele><time>2026-04-26T15:08:15.971Z</time></trkpt><trkpt lat="45.06843625782818" lon="8.399717645170714"><ele>170.8</ele><time>2026-04-26T15:08:16.971Z</time></trkpt><trkpt lat="45.06852378301532" lon="8.399678077911789"><ele>169.4</ele><time>2026-04-26T15:08:17.971Z</time></trkpt><trkpt lat="45.068611700673465" lon="8.3996683792823"><ele>168.0</ele><time>2026-04-26T15:08:18.971Z</time></trkpt><trkpt lat="45.068690978883495" lon="8.399674258820035"><ele>168.0</ele><time>2026-04-26T15:08:19.971Z</time></trkpt><trkpt lat="45.068773106822924" lon="8.3996933815087"><ele>168.0</ele><time>2026-04-26T15:08:20.971Z</time></trkpt><trkpt lat="45.06884320469445" lon="8.399768992026111"><ele>168.0</ele><time>2026-04-26T15:08:21.971Z</time></trkpt><trkpt lat="45.06891879629218" lon="8.399885057681931"><ele>168.0</ele><time>2026-04-26T15:08:22.971Z</time></trkpt><trkpt lat="45.06900064976263" lon="8.400018341133999"><ele>168.0</ele><time>2026-04-26T15:08:23.971Z</time></trkpt><trkpt lat="45.06908132987323" lon="8.400145157281711"><ele>167.0</ele><time>2026-04-26T15:08:24.971Z</time></trkpt><trkpt lat="45.06916492721981" lon="8.400262530326037"><ele>166.0</ele><time>2026-04-26T15:08:25.971Z</time></trkpt><trkpt lat="45.069254687245135" lon="8.400362002508023"><ele>165.0</ele><time>2026-04-26T15:08:26.971Z</time></trkpt><trkpt lat="45.069353044600355" lon="8.400450572637906"><ele>164.0</ele><time>2026-04-26T15:08:27.971Z</time></trkpt><trkpt lat="45.069462581002185" lon="8.400527820494778"><ele>164.0</ele><time>2026-04-26T15:08:28.971Z</time></trkpt><trkpt lat="45.06957789991374" lon="8.400577484542993"><ele>164.0</ele><time>2026-04-26T15:08:29.971Z</time></trkpt><trkpt lat="45.06968666887187" lon="8.40061636101973"><ele>164.0</ele><time>2026-04-26T15:08:30.971Z</time></trkpt><trkpt lat="45.069790628621234" lon="8.40066061776914"><ele>164.0</ele><time>2026-04-26T15:08:31.971Z</time></trkpt><trkpt lat="45.06989199788699" lon="8.400688268132612"><ele>164.0</ele><time>2026-04-26T15:08:32.971Z</time></trkpt><trkpt lat="45.06998017977158" lon="8.400729731449614"><ele>164.66666666666666</ele><time>2026-04-26T15:08:33.971Z</time></trkpt><trkpt lat="45.07005129518673" lon="8.400797839954015"><ele>165.33333333333331</ele><time>2026-04-26T15:08:34.971Z</time></trkpt><trkpt lat="45.070102901527335" lon="8.400883170846374"><ele>166.0</ele><time>2026-04-26T15:08:35.971Z</time></trkpt><trkpt lat="45.07013493769671" lon="8.400987781928782"><ele>166.66666666666666</ele><time>2026-04-26T15:08:36.971Z</time></trkpt><trkpt lat="45.070149007946135" lon="8.401100871632861"><ele>167.33333333333334</ele><time>2026-04-26T15:08:37.971Z</time></trkpt><trkpt lat="45.070153746140576" lon="8.401213338994598"><ele>168.0</ele><time>2026-04-26T15:08:38.971Z</time></trkpt><trkpt lat="45.07015219022854" lon="8.401326903143355"><ele>167.71428571428572</ele><time>2026-04-26T15:08:39.971Z</time></trkpt><trkpt lat="45.07014224616562" lon="8.40144157961054"><ele>167.42857142857144</ele><time>2026-04-26T15:08:40.971Z</time></trkpt><trkpt lat="45.0701244667076" lon="8.40154834740616"><ele>167.14285714285714</ele><time>2026-04-26T15:08:41.971Z</time></trkpt><trkpt lat="45.070083356178614" lon="8.401638792550306"><ele>166.85714285714286</ele><time>2026-04-26T15:08:42.971Z</time></trkpt><trkpt lat="45.070051316953176" lon="8.401724613994688"><ele>166.57142857142858</ele><time>2026-04-26T15:08:43.971Z</time></trkpt><trkpt lat="45.07001451393335" lon="8.401809156689792"><ele>166.28571428571428</ele><time>2026-04-26T15:08:44.971Z</time></trkpt><trkpt lat="45.06997203672224" lon="8.40189320220949"><ele>166.0</ele><time>2026-04-26T15:08:45.971Z</time></trkpt><trkpt lat="45.06993610868639" lon="8.40199023889984"><ele>165.33333333333334</ele><time>2026-04-26T15:08:46.971Z</time></trkpt><trkpt lat="45.069882170437964" lon="8.402074686270389"><ele>164.66666666666669</ele><time>2026-04-26T15:08:47.971Z</time></trkpt><trkpt lat="45.069826908031644" lon="8.402159585065547"><ele>164.0</ele><time>2026-04-26T15:08:48.971Z</time></trkpt><trkpt lat="45.06977510142035" lon="8.402246231160087"><ele>163.33333333333334</ele><time>2026-04-26T15:08:49.971Z</time></trkpt><trkpt lat="45.06972592906352" lon="8.402336678901277"><ele>162.66666666666666</ele><time>2026-04-26T15:08:50.971Z</time></trkpt><trkpt lat="45.069674893026225" lon="8.402422547851987"><ele>162.0</ele><time>2026-04-26T15:08:51.97Z</time></trkpt><trkpt lat="45.06962539199464" lon="8.402507066614772"><ele>162.0</ele><time>2026-04-26T15:08:52.97Z</time></trkpt><trkpt lat="45.06957567680843" lon="8.402592376703776"><ele>162.0</ele><time>2026-04-26T15:08:53.97Z</time></trkpt><trkpt lat="45.0695258694392" lon="8.402681665079713"><ele>162.0</ele><time>2026-04-26T15:08:54.97Z</time></trkpt><trkpt lat="45.06947756724741" lon="8.402773163308808"><ele>162.0</ele><time>2026-04-26T15:08:55.97Z</time></trkpt><trkpt lat="45.06942700207535" lon="8.402863318892644"><ele>162.0</ele><time>2026-04-26T15:08:56.97Z</time></trkpt><trkpt lat="45.0693752234452" lon="8.402954575671842"><ele>162.0</ele><time>2026-04-26T15:08:57.97Z</time></trkpt><trkpt lat="45.069327545149996" lon="8.403044329754302"><ele>162.33333333333334</ele><time>2026-04-26T15:08:58.97Z</time></trkpt><trkpt lat="45.06928194363638" lon="8.403131402496681"><ele>162.66666666666666</ele><time>2026-04-26T15:08:59.97Z</time></trkpt><trkpt lat="45.06923666261372" lon="8.403208630573882"><ele>163.0</ele><time>2026-04-26T15:09:00.97Z</time></trkpt><trkpt lat="45.06919387611725" lon="8.40327902167731"><ele>163.33333333333331</ele><time>2026-04-26T15:09:01.97Z</time></trkpt><trkpt lat="45.0691374613168" lon="8.403397429996955"><ele>163.66666666666666</ele><time>2026-04-26T15:09:03.97Z</time></trkpt><trkpt lat="45.06909570191724" lon="8.40347801396994"><ele>164.0</ele><time>2026-04-26T15:09:05.97Z</time></trkpt><trkpt lat="45.0690311192737" lon="8.403542486910675"><ele>164.79999999999998</ele><time>2026-04-26T15:09:07.97Z</time></trkpt><trkpt lat="45.06891815214636" lon="8.403514565464423"><ele>165.6</ele><time>2026-04-26T15:09:09.97Z</time></trkpt><trkpt lat="45.06884681303246" lon="8.403461361501833"><ele>166.4</ele><time>2026-04-26T15:09:10.97Z</time></trkpt><trkpt lat="45.06877153251828" lon="8.403392081818302"><ele>167.2</ele><time>2026-04-26T15:09:11.97Z</time></trkpt><trkpt lat="45.06869695821383" lon="8.403325887345328"><ele>168.0</ele><time>2026-04-26T15:09:12.97Z</time></trkpt><trkpt lat="45.068605367662215" lon="8.403254916637378"><ele>168.0</ele><time>2026-04-26T15:09:13.97Z</time></trkpt><trkpt lat="45.06850569373428" lon="8.403167648847909"><ele>168.0</ele><time>2026-04-26T15:09:14.97Z</time></trkpt><trkpt lat="45.06839317281" lon="8.403074975675088"><ele>168.0</ele><time>2026-04-26T15:09:15.97Z</time></trkpt><trkpt lat="45.06827281502015" lon="8.402981381601414"><ele>168.0</ele><time>2026-04-26T15:09:16.97Z</time></trkpt><trkpt lat="45.06815729999747" lon="8.402885994710953"><ele>167.25</ele><time>2026-04-26T15:09:17.97Z</time></trkpt><trkpt lat="45.06803711209487" lon="8.402790678578993"><ele>166.5</ele><time>2026-04-26T15:09:18.97Z</time></trkpt><trkpt lat="45.0679109912657" lon="8.402696119183098"><ele>165.75</ele><time>2026-04-26T15:09:19.97Z</time></trkpt><trkpt lat="45.067775703569595" lon="8.402607310280763"><ele>165.0</ele><time>2026-04-26T15:09:20.97Z</time></trkpt><trkpt lat="45.06762882175936" lon="8.402526239059442"><ele>165.0</ele><time>2026-04-26T15:09:21.97Z</time></trkpt><trkpt lat="45.06747344513173" lon="8.40245237850813"><ele>165.0</ele><time>2026-04-26T15:09:22.97Z</time></trkpt><trkpt lat="45.067305338790234" lon="8.40238831080711"><ele>165.0</ele><time>2026-04-26T15:09:23.97Z</time></trkpt><trkpt lat="45.067140626048314" lon="8.402339203416886"><ele>165.33333333333334</ele><time>2026-04-26T15:09:24.97Z</time></trkpt><trkpt lat="45.06696944233497" lon="8.40229854340704"><ele>165.66666666666669</ele><time>2026-04-26T15:09:25.97Z</time></trkpt><trkpt lat="45.06679062688131" lon="8.402256760779089"><ele>166.0</ele><time>2026-04-26T15:09:26.97Z</time></trkpt><trkpt lat="45.066609594981685" lon="8.40221732387827"><ele>164.0</ele><time>2026-04-26T15:09:27.97Z</time></trkpt><trkpt lat="45.066422893865045" lon="8.402178834787074"><ele>162.0</ele><time>2026-04-26T15:09:28.97Z</time></trkpt><trkpt lat="45.066241738844255" lon="8.40213965821204"><ele>160.0</ele><time>2026-04-26T15:09:29.97Z</time></trkpt><trkpt lat="45.06607354541385" lon="8.402101854951956"><ele>160.0</ele><time>2026-04-26T15:09:30.97Z</time></trkpt><trkpt lat="45.06591354694287" lon="8.40206633302921"><ele>160.0</ele><time>2026-04-26T15:09:31.97Z</time></trkpt><trkpt lat="45.06576514205073" lon="8.402035363271173"><ele>160.0</ele><time>2026-04-26T15:09:32.97Z</time></trkpt><trkpt lat="45.06562299621168" lon="8.402005053448633"><ele>158.66666666666669</ele><time>2026-04-26T15:09:33.97Z</time></trkpt><trkpt lat="45.0654801615903" lon="8.401975955205522"><ele>157.33333333333334</ele><time>2026-04-26T15:09:34.97Z</time></trkpt><trkpt lat="45.0653299490122" lon="8.40194436472399"><ele>156.0</ele><time>2026-04-26T15:09:35.97Z</time></trkpt><trkpt lat="45.065173602634744" lon="8.40191410551226"><ele>156.0</ele><time>2026-04-26T15:09:36.97Z</time></trkpt><trkpt lat="45.06501195606468" lon="8.401878150774948"><ele>156.0</ele><time>2026-04-26T15:09:37.97Z</time></trkpt><trkpt lat="45.064840006242854" lon="8.401845006900311"><ele>156.0</ele><time>2026-04-26T15:09:38.97Z</time></trkpt><trkpt lat="45.06466151133729" lon="8.401810925543515"><ele>156.33333333333334</ele><time>2026-04-26T15:09:39.97Z</time></trkpt><trkpt lat="45.06448226047647" lon="8.401763094019904"><ele>156.66666666666669</ele><time>2026-04-26T15:09:40.97Z</time></trkpt><trkpt lat="45.06430128345436" lon="8.401722155363903"><ele>157.0</ele><time>2026-04-26T15:09:41.97Z</time></trkpt><trkpt lat="45.06412541089059" lon="8.401686018192114"><ele>158.0</ele><time>2026-04-26T15:09:42.97Z</time></trkpt><trkpt lat="45.063953929413394" lon="8.401646631664457"><ele>159.0</ele><time>2026-04-26T15:09:43.97Z</time></trkpt><trkpt lat="45.06379210998631" lon="8.40157959725795"><ele>160.0</ele><time>2026-04-26T15:09:44.97Z</time></trkpt><trkpt lat="45.06363236191806" lon="8.401481752752208"><ele>160.0</ele><time>2026-04-26T15:09:45.97Z</time></trkpt><trkpt lat="45.06347389375556" lon="8.40136381051861"><ele>160.0</ele><time>2026-04-26T15:09:46.97Z</time></trkpt><trkpt lat="45.06331954161267" lon="8.401230226982934"><ele>160.0</ele><time>2026-04-26T15:09:47.97Z</time></trkpt><trkpt lat="45.063162555100995" lon="8.401096500433027"><ele>158.33333333333334</ele><time>2026-04-26T15:09:48.97Z</time></trkpt><trkpt lat="45.06300406939601" lon="8.40096089360581"><ele>156.66666666666666</ele><time>2026-04-26T15:09:49.97Z</time></trkpt><trkpt lat="45.06284215580876" lon="8.400824123775854"><ele>155.0</ele><time>2026-04-26T15:09:50.97Z</time></trkpt><trkpt lat="45.06267872163983" lon="8.400686033348808"><ele>155.0</ele><time>2026-04-26T15:09:51.97Z</time></trkpt><trkpt lat="45.06251318032009" lon="8.400545986032117"><ele>155.0</ele><time>2026-04-26T15:09:52.97Z</time></trkpt><trkpt lat="45.06233994074072" lon="8.400407545696007"><ele>155.0</ele><time>2026-04-26T15:09:53.97Z</time></trkpt><trkpt lat="45.062158105197426" lon="8.400273356174047"><ele>155.0</ele><time>2026-04-26T15:09:54.97Z</time></trkpt><trkpt lat="45.06196678569563" lon="8.400151846607997"><ele>155.0</ele><time>2026-04-26T15:09:55.97Z</time></trkpt><trkpt lat="45.061774501322844" lon="8.400049421204086"><ele>155.0</ele><time>2026-04-26T15:09:56.97Z</time></trkpt><trkpt lat="45.06158539645457" lon="8.399948859733424"><ele>154.33333333333331</ele><time>2026-04-26T15:09:57.97Z</time></trkpt><trkpt lat="45.061386378236634" lon="8.399844664103783"><ele>153.66666666666666</ele><time>2026-04-26T15:09:58.971Z</time></trkpt><trkpt lat="45.06117896123401" lon="8.3997380662155"><ele>153.0</ele><time>2026-04-26T15:09:59.97Z</time></trkpt><trkpt lat="45.06097089094735" lon="8.399629022201792"><ele>153.0</ele><time>2026-04-26T15:10:00.97Z</time></trkpt><trkpt lat="45.06076968929301" lon="8.399528271193553"><ele>153.0</ele><time>2026-04-26T15:10:01.97Z</time></trkpt><trkpt lat="45.06058209392533" lon="8.399439028769175"><ele>153.0</ele><time>2026-04-26T15:10:02.97Z</time></trkpt><trkpt lat="45.0604190252914" lon="8.39932908628643"><ele>153.0</ele><time>2026-04-26T15:10:03.97Z</time></trkpt><trkpt lat="45.060267577558484" lon="8.399249860806849"><ele>153.0</ele><time>2026-04-26T15:10:04.97Z</time></trkpt><trkpt lat="45.060126858135405" lon="8.399175250663028"><ele>153.0</ele><time>2026-04-26T15:10:05.97Z</time></trkpt><trkpt lat="45.059993159790004" lon="8.399104234899749"><ele>152.75</ele><time>2026-04-26T15:10:06.97Z</time></trkpt><trkpt lat="45.05986200675814" lon="8.399031970511913"><ele>152.5</ele><time>2026-04-26T15:10:07.97Z</time></trkpt><trkpt lat="45.05973047511372" lon="8.398969711202955"><ele>152.25</ele><time>2026-04-26T15:10:08.97Z</time></trkpt><trkpt lat="45.059592747725425" lon="8.398901415384287"><ele>152.0</ele><time>2026-04-26T15:10:09.97Z</time></trkpt><trkpt lat="45.05944925243866" lon="8.398825730849087"><ele>151.33333333333331</ele><time>2026-04-26T15:10:10.97Z</time></trkpt><trkpt lat="45.05929861794088" lon="8.398745752503206"><ele>150.66666666666666</ele><time>2026-04-26T15:10:11.97Z</time></trkpt><trkpt lat="45.059138214432316" lon="8.39865803792239"><ele>150.0</ele><time>2026-04-26T15:10:12.97Z</time></trkpt><trkpt lat="45.058962526777044" lon="8.398572358846907"><ele>149.66666666666666</ele><time>2026-04-26T15:10:13.97Z</time></trkpt><trkpt lat="45.05877920808506" lon="8.39846091324875"><ele>149.33333333333331</ele><time>2026-04-26T15:10:14.97Z</time></trkpt><trkpt lat="45.058579467924034" lon="8.39835364306914"><ele>149.0</ele><time>2026-04-26T15:10:15.97Z</time></trkpt><trkpt lat="45.05836897141142" lon="8.398243446283084"><ele>149.0</ele><time>2026-04-26T15:10:16.97Z</time></trkpt><trkpt lat="45.058147269401246" lon="8.398150653511115"><ele>149.0</ele><time>2026-04-26T15:10:17.97Z</time></trkpt><trkpt lat="45.05792210463569" lon="8.398022611788496"><ele>148.0</ele><time>2026-04-26T15:10:18.97Z</time></trkpt><trkpt lat="45.05769773265833" lon="8.397890509667722"><ele>147.0</ele><time>2026-04-26T15:10:19.97Z</time></trkpt><trkpt lat="45.05746920638513" lon="8.39776433304865"><ele>147.0</ele><time>2026-04-26T15:10:20.97Z</time></trkpt><trkpt lat="45.05723684065088" lon="8.397640906265572"><ele>147.0</ele><time>2026-04-26T15:10:21.97Z</time></trkpt><trkpt lat="45.05701029494127" lon="8.39751976014573"><ele>147.0</ele><time>2026-04-26T15:10:22.97Z</time></trkpt><trkpt lat="45.05678643212252" lon="8.397397235208519"><ele>147.0</ele><time>2026-04-26T15:10:23.97Z</time></trkpt><trkpt lat="45.05656653232231" lon="8.397281563340803"><ele>147.0</ele><time>2026-04-26T15:10:24.97Z</time></trkpt><trkpt lat="45.05635224925126" lon="8.397172764782832"><ele>147.0</ele><time>2026-04-26T15:10:25.97Z</time></trkpt><trkpt lat="45.05614157183978" lon="8.397067794142794"><ele>147.33333333333334</ele><time>2026-04-26T15:10:26.97Z</time></trkpt><trkpt lat="45.055935741617546" lon="8.39696377689624"><ele>147.66666666666669</ele><time>2026-04-26T15:10:27.97Z</time></trkpt><trkpt lat="45.0557361239686" lon="8.396857232832808"><ele>148.0</ele><time>2026-04-26T15:10:28.97Z</time></trkpt><trkpt lat="45.05553744971118" lon="8.396752673341267"><ele>148.0</ele><time>2026-04-26T15:10:29.97Z</time></trkpt><trkpt lat="45.055338211428804" lon="8.396648506494822"><ele>148.0</ele><time>2026-04-26T15:10:30.97Z</time></trkpt><trkpt lat="45.05513753435354" lon="8.396543317768945"><ele>148.0</ele><time>2026-04-26T15:10:31.97Z</time></trkpt><trkpt lat="45.05493578456861" lon="8.396437325900848"><ele>147.33333333333334</ele><time>2026-04-26T15:10:32.97Z</time></trkpt><trkpt lat="45.05473339462375" lon="8.396331500033101"><ele>146.66666666666666</ele><time>2026-04-26T15:10:33.97Z</time></trkpt><trkpt lat="45.0545286605523" lon="8.39622759701311"><ele>146.0</ele><time>2026-04-26T15:10:34.97Z</time></trkpt><trkpt lat="45.05431849442046" lon="8.396119052101575"><ele>148.0</ele><time>2026-04-26T15:10:35.97Z</time></trkpt><trkpt lat="45.054107173040855" lon="8.396009255982603"><ele>150.0</ele><time>2026-04-26T15:10:36.97Z</time></trkpt><trkpt lat="45.05389200424411" lon="8.395898674424702"><ele>150.0</ele><time>2026-04-26T15:10:37.97Z</time></trkpt><trkpt lat="45.05367750865107" lon="8.395789028158651"><ele>150.0</ele><time>2026-04-26T15:10:38.97Z</time></trkpt><trkpt lat="45.05346701109192" lon="8.395683800639414"><ele>151.0</ele><time>2026-04-26T15:10:39.97Z</time></trkpt><trkpt lat="45.0532639064069" lon="8.395557592122397"><ele>152.0</ele><time>2026-04-26T15:10:40.97Z</time></trkpt><trkpt lat="45.05305919136332" lon="8.39544985532671"><ele>153.0</ele><time>2026-04-26T15:10:41.97Z</time></trkpt><trkpt lat="45.05285623690785" lon="8.395343044780288"><ele>153.0</ele><time>2026-04-26T15:10:42.97Z</time></trkpt><trkpt lat="45.05265573999008" lon="8.395237527777951"><ele>153.0</ele><time>2026-04-26T15:10:43.97Z</time></trkpt><trkpt lat="45.05245511580025" lon="8.39513194384171"><ele>153.0</ele><time>2026-04-26T15:10:44.97Z</time></trkpt><trkpt lat="45.05225282237873" lon="8.395025481325947"><ele>152.0</ele><time>2026-04-26T15:10:45.97Z</time></trkpt><trkpt lat="45.052053471773796" lon="8.394920569313681"><ele>151.0</ele><time>2026-04-26T15:10:46.97Z</time></trkpt><trkpt lat="45.05185384744734" lon="8.394815511547623"><ele>150.0</ele><time>2026-04-26T15:10:47.97Z</time></trkpt><trkpt lat="45.05165641999115" lon="8.394711700858052"><ele>148.33333333333334</ele><time>2026-04-26T15:10:48.97Z</time></trkpt><trkpt lat="45.05145421750285" lon="8.394605939975047"><ele>146.66666666666669</ele><time>2026-04-26T15:10:49.97Z</time></trkpt><trkpt lat="45.05125011475901" lon="8.394499185470886"><ele>145.0</ele><time>2026-04-26T15:10:50.97Z</time></trkpt><trkpt lat="45.05104796331585" lon="8.394382738110194"><ele>145.0</ele><time>2026-04-26T15:10:51.97Z</time></trkpt><trkpt lat="45.050843748664654" lon="8.394276309550039"><ele>145.0</ele><time>2026-04-26T15:10:52.97Z</time></trkpt><trkpt lat="45.050637545807255" lon="8.394171796174856"><ele>145.0</ele><time>2026-04-26T15:10:53.97Z</time></trkpt><trkpt lat="45.05043102111672" lon="8.394064087521585"><ele>145.33333333333334</ele><time>2026-04-26T15:10:54.97Z</time></trkpt><trkpt lat="45.050227468485836" lon="8.393957281249179"><ele>145.66666666666666</ele><time>2026-04-26T15:10:55.97Z</time></trkpt><trkpt lat="45.05002334487269" lon="8.39385348029453"><ele>146.0</ele><time>2026-04-26T15:10:56.97Z</time></trkpt><trkpt lat="45.04981813333683" lon="8.393748184924345"><ele>146.33333333333331</ele><time>2026-04-26T15:10:57.97Z</time></trkpt><trkpt lat="45.04961373286049" lon="8.393642422330458"><ele>146.66666666666666</ele><time>2026-04-26T15:10:58.97Z</time></trkpt><trkpt lat="45.04940896532109" lon="8.393536349704384"><ele>147.0</ele><time>2026-04-26T15:10:59.97Z</time></trkpt><trkpt lat="45.04920270346028" lon="8.393426072775295"><ele>147.66666666666666</ele><time>2026-04-26T15:11:00.97Z</time></trkpt><trkpt lat="45.04899935228944" lon="8.393313363350222"><ele>148.33333333333331</ele><time>2026-04-26T15:11:01.97Z</time></trkpt><trkpt lat="45.04880423261283" lon="8.393185168139349"><ele>149.0</ele><time>2026-04-26T15:11:02.97Z</time></trkpt><trkpt lat="45.048618612633895" lon="8.393031857688696"><ele>148.66666666666666</ele><time>2026-04-26T15:11:03.97Z</time></trkpt><trkpt lat="45.048430610124356" lon="8.39285527588348"><ele>148.33333333333334</ele><time>2026-04-26T15:11:04.97Z</time></trkpt><trkpt lat="45.04825241491426" lon="8.392669119606438"><ele>148.0</ele><time>2026-04-26T15:11:05.97Z</time></trkpt><trkpt lat="45.048071504271874" lon="8.392473088150652"><ele>148.5</ele><time>2026-04-26T15:11:06.97Z</time></trkpt><trkpt lat="45.04788184865663" lon="8.392285087710233"><ele>149.0</ele><time>2026-04-26T15:11:07.97Z</time></trkpt><trkpt lat="45.047690021030775" lon="8.392095761629786"><ele>149.0</ele><time>2026-04-26T15:11:08.97Z</time></trkpt><trkpt lat="45.04749972417623" lon="8.391904527591159"><ele>149.0</ele><time>2026-04-26T15:11:09.97Z</time></trkpt><trkpt lat="45.04730926682079" lon="8.391713828766507"><ele>150.0</ele><time>2026-04-26T15:11:10.97Z</time></trkpt><trkpt lat="45.04711945787744" lon="8.391523807400675"><ele>151.0</ele><time>2026-04-26T15:11:11.97Z</time></trkpt><trkpt lat="45.04692781242515" lon="8.391332781833817"><ele>151.0</ele><time>2026-04-26T15:11:12.97Z</time></trkpt><trkpt lat="45.046739708222084" lon="8.391141845131111"><ele>151.0</ele><time>2026-04-26T15:11:13.97Z</time></trkpt><trkpt lat="45.04655244713947" lon="8.390954888760394"><ele>153.0</ele><time>2026-04-26T15:11:14.97Z</time></trkpt><trkpt lat="45.046371223850045" lon="8.3907740292834"><ele>155.0</ele><time>2026-04-26T15:11:15.97Z</time></trkpt><trkpt lat="45.04619658127752" lon="8.39059638704964"><ele>157.0</ele><time>2026-04-26T15:11:16.97Z</time></trkpt><trkpt lat="45.04602768022381" lon="8.390419803630662"><ele>157.0</ele><time>2026-04-26T15:11:17.97Z</time></trkpt><trkpt lat="45.04586415946454" lon="8.390248280042977"><ele>157.0</ele><time>2026-04-26T15:11:18.97Z</time></trkpt><trkpt lat="45.04570775228578" lon="8.390067751585834"><ele>157.0</ele><time>2026-04-26T15:11:19.97Z</time></trkpt><trkpt lat="45.04556098176439" lon="8.389872781193501"><ele>158.66666666666669</ele><time>2026-04-26T15:11:20.97Z</time></trkpt><trkpt lat="45.04542466694479" lon="8.38966255398815"><ele>160.33333333333334</ele><time>2026-04-26T15:11:21.97Z</time></trkpt><trkpt lat="45.0452929513533" lon="8.389446419631637"><ele>162.0</ele><time>2026-04-26T15:11:22.97Z</time></trkpt><trkpt lat="45.04516064503929" lon="8.389228546836529"><ele>162.0</ele><time>2026-04-26T15:11:23.97Z</time></trkpt><trkpt lat="45.04502581572429" lon="8.38901342865354"><ele>162.0</ele><time>2026-04-26T15:11:24.97Z</time></trkpt><trkpt lat="45.044888017355355" lon="8.388798947613234"><ele>162.0</ele><time>2026-04-26T15:11:25.97Z</time></trkpt><trkpt lat="45.04475157941723" lon="8.388592689244758"><ele>162.66666666666666</ele><time>2026-04-26T15:11:26.97Z</time></trkpt><trkpt lat="45.04461884058654" lon="8.388385752123959"><ele>163.33333333333331</ele><time>2026-04-26T15:11:27.97Z</time></trkpt><trkpt lat="45.04449072415158" lon="8.388187197176965"><ele>164.0</ele><time>2026-04-26T15:11:28.97Z</time></trkpt><trkpt lat="45.044364695817976" lon="8.387994199631352"><ele>164.33333333333331</ele><time>2026-04-26T15:11:29.97Z</time></trkpt><trkpt lat="45.04424039224209" lon="8.387803529136033"><ele>164.66666666666666</ele><time>2026-04-26T15:11:30.97Z</time></trkpt><trkpt lat="45.04411655335552" lon="8.387616751731262"><ele>165.0</ele><time>2026-04-26T15:11:31.97Z</time></trkpt><trkpt lat="45.04399319049586" lon="8.387429089942199"><ele>167.33333333333334</ele><time>2026-04-26T15:11:32.97Z</time></trkpt><trkpt lat="45.04386683413184" lon="8.387236282847812"><ele>169.66666666666669</ele><time>2026-04-26T15:11:33.97Z</time></trkpt><trkpt lat="45.04374063541897" lon="8.387035265082675"><ele>172.0</ele><time>2026-04-26T15:11:34.97Z</time></trkpt><trkpt lat="45.043611853443174" lon="8.386830991793238"><ele>172.0</ele><time>2026-04-26T15:11:35.97Z</time></trkpt><trkpt lat="45.043482167440054" lon="8.38662345149183"><ele>172.0</ele><time>2026-04-26T15:11:36.97Z</time></trkpt><trkpt lat="45.04335348847918" lon="8.386422664174052"><ele>172.0</ele><time>2026-04-26T15:11:37.97Z</time></trkpt><trkpt lat="45.04323470047608" lon="8.38622620536179"><ele>174.33333333333334</ele><time>2026-04-26T15:11:38.97Z</time></trkpt><trkpt lat="45.043134974714576" lon="8.386045724443308"><ele>176.66666666666666</ele><time>2026-04-26T15:11:39.97Z</time></trkpt><trkpt lat="45.04305870661278" lon="8.385861607572417"><ele>179.0</ele><time>2026-04-26T15:11:40.969Z</time></trkpt><trkpt lat="45.04301727045772" lon="8.385669329951812"><ele>178.5</ele><time>2026-04-26T15:11:41.969Z</time></trkpt><trkpt lat="45.04300994076741" lon="8.38546616882552"><ele>178.0</ele><time>2026-04-26T15:11:42.969Z</time></trkpt><trkpt lat="45.04303526646194" lon="8.3852620762918"><ele>177.5</ele><time>2026-04-26T15:11:43.969Z</time></trkpt><trkpt lat="45.04306544531732" lon="8.385066708070106"><ele>177.0</ele><time>2026-04-26T15:11:44.969Z</time></trkpt><trkpt lat="45.04306372627274" lon="8.384882381204166"><ele>177.0</ele><time>2026-04-26T15:11:45.969Z</time></trkpt><trkpt lat="45.04302419395041" lon="8.384718880127403"><ele>177.0</ele><time>2026-04-26T15:11:46.969Z</time></trkpt><trkpt lat="45.04295097318862" lon="8.384591690685111"><ele>177.0</ele><time>2026-04-26T15:11:47.969Z</time></trkpt><trkpt lat="45.04284836083889" lon="8.384504373140867"><ele>177.0</ele><time>2026-04-26T15:11:48.969Z</time></trkpt><trkpt lat="45.04272567281486" lon="8.384451014157811"><ele>177.33333333333334</ele><time>2026-04-26T15:11:49.969Z</time></trkpt><trkpt lat="45.04258552870878" lon="8.38442399640163"><ele>177.66666666666669</ele><time>2026-04-26T15:11:50.969Z</time></trkpt><trkpt lat="45.04242905197942" lon="8.384397777705821"><ele>178.0</ele><time>2026-04-26T15:11:51.969Z</time></trkpt><trkpt lat="45.04227298823762" lon="8.384366722547938"><ele>178.0</ele><time>2026-04-26T15:11:52.969Z</time></trkpt><trkpt lat="45.04212279436902" lon="8.384335122763382"><ele>178.0</ele><time>2026-04-26T15:11:53.969Z</time></trkpt><trkpt lat="45.04197706922522" lon="8.384303425718839"><ele>178.0</ele><time>2026-04-26T15:11:54.969Z</time></trkpt><trkpt lat="45.041842716692905" lon="8.384266886694132"><ele>178.0</ele><time>2026-04-26T15:11:55.969Z</time></trkpt><trkpt lat="45.041719147388385" lon="8.384230294871198"><ele>179.0</ele><time>2026-04-26T15:11:56.969Z</time></trkpt><trkpt lat="45.04160922571431" lon="8.38417364864525"><ele>180.0</ele><time>2026-04-26T15:11:57.969Z</time></trkpt><trkpt lat="45.041509409512656" lon="8.384090294204196"><ele>181.0</ele><time>2026-04-26T15:11:58.969Z</time></trkpt><trkpt lat="45.041423237311655" lon="8.383974417249988"><ele>182.0</ele><time>2026-04-26T15:11:59.969Z</time></trkpt><trkpt lat="45.04135275001371" lon="8.38382875894239"><ele>182.0</ele><time>2026-04-26T15:12:00.969Z</time></trkpt><trkpt lat="45.041287574859965" lon="8.383674250128795"><ele>182.0</ele><time>2026-04-26T15:12:01.969Z</time></trkpt><trkpt lat="45.0412225256594" lon="8.383520391530078"><ele>182.0</ele><time>2026-04-26T15:12:02.969Z</time></trkpt><trkpt lat="45.041156087745414" lon="8.383367541554154"><ele>182.0</ele><time>2026-04-26T15:12:03.969Z</time></trkpt><trkpt lat="45.04110234977462" lon="8.383204698414756"><ele>182.0</ele><time>2026-04-26T15:12:04.97Z</time></trkpt><trkpt lat="45.04103340316911" lon="8.38304427575797"><ele>182.0</ele><time>2026-04-26T15:12:05.969Z</time></trkpt><trkpt lat="45.04096231703103" lon="8.382883829565888"><ele>182.0</ele><time>2026-04-26T15:12:06.969Z</time></trkpt><trkpt lat="45.04089217417926" lon="8.382724792909249"><ele>182.0</ele><time>2026-04-26T15:12:07.969Z</time></trkpt><trkpt lat="45.040823531236" lon="8.382571870233026"><ele>184.0</ele><time>2026-04-26T15:12:08.969Z</time></trkpt><trkpt lat="45.04075766164938" lon="8.382426428200548"><ele>186.0</ele><time>2026-04-26T15:12:09.969Z</time></trkpt><trkpt lat="45.04069454591023" lon="8.38228432357515"><ele>188.0</ele><time>2026-04-26T15:12:10.969Z</time></trkpt><trkpt lat="45.040633304638035" lon="8.38214573278454"><ele>190.0</ele><time>2026-04-26T15:12:11.969Z</time></trkpt><trkpt lat="45.04058607875175" lon="8.382003423249463"><ele>191.0</ele><time>2026-04-26T15:12:12.969Z</time></trkpt><trkpt lat="45.04055775942408" lon="8.381855194545635"><ele>192.0</ele><time>2026-04-26T15:12:13.97Z</time></trkpt><trkpt lat="45.040547236669" lon="8.38169533599249"><ele>193.0</ele><time>2026-04-26T15:12:14.969Z</time></trkpt><trkpt lat="45.04056153984904" lon="8.38152718763479"><ele>194.0</ele><time>2026-04-26T15:12:15.969Z</time></trkpt><trkpt lat="45.040597007806326" lon="8.381346182728372"><ele>195.0</ele><time>2026-04-26T15:12:16.969Z</time></trkpt><trkpt lat="45.04064547890198" lon="8.381151786604708"><ele>196.0</ele><time>2026-04-26T15:12:17.969Z</time></trkpt><trkpt lat="45.04071821661124" lon="8.380966808307726"><ele>197.0</ele><time>2026-04-26T15:12:18.969Z</time></trkpt><trkpt lat="45.04077695808029" lon="8.380780902777621"><ele>198.0</ele><time>2026-04-26T15:12:19.969Z</time></trkpt><trkpt lat="45.04083364548325" lon="8.380602642115196"><ele>197.25</ele><time>2026-04-26T15:12:20.969Z</time></trkpt><trkpt lat="45.04088775055637" lon="8.380430195026301"><ele>196.5</ele><time>2026-04-26T15:12:21.969Z</time></trkpt><trkpt lat="45.0409276019142" lon="8.380251017960868"><ele>195.75</ele><time>2026-04-26T15:12:22.969Z</time></trkpt><trkpt lat="45.04098621060977" lon="8.380088493945577"><ele>195.0</ele><time>2026-04-26T15:12:23.969Z</time></trkpt><trkpt lat="45.04103902564472" lon="8.379915273813618"><ele>195.0</ele><time>2026-04-26T15:12:24.969Z</time></trkpt><trkpt lat="45.041092952884334" lon="8.379733784483982"><ele>195.0</ele><time>2026-04-26T15:12:25.969Z</time></trkpt><trkpt lat="45.04114454184804" lon="8.379560327571738"><ele>195.0</ele><time>2026-04-26T15:12:26.969Z</time></trkpt><trkpt lat="45.041185037254806" lon="8.37939886085478"><ele>195.0</ele><time>2026-04-26T15:12:27.969Z</time></trkpt><trkpt lat="45.04120760631252" lon="8.379240249903296"><ele>195.6</ele><time>2026-04-26T15:12:28.969Z</time></trkpt><trkpt lat="45.04120981606166" lon="8.379078771975898"><ele>196.2</ele><time>2026-04-26T15:12:29.969Z</time></trkpt><trkpt lat="45.04118588381027" lon="8.37892350111536"><ele>196.8</ele><time>2026-04-26T15:12:30.969Z</time></trkpt><trkpt lat="45.04113429863494" lon="8.378784689008384"><ele>197.4</ele><time>2026-04-26T15:12:31.969Z</time></trkpt><trkpt lat="45.04106484424253" lon="8.378674756065273"><ele>198.0</ele><time>2026-04-26T15:12:32.969Z</time></trkpt><trkpt lat="45.04098951461912" lon="8.378602604297619"><ele>198.2</ele><time>2026-04-26T15:12:33.969Z</time></trkpt><trkpt lat="45.04090837155006" lon="8.378552875602946"><ele>198.4</ele><time>2026-04-26T15:12:34.969Z</time></trkpt><trkpt lat="45.04081621348883" lon="8.378525141205266"><ele>198.6</ele><time>2026-04-26T15:12:35.969Z</time></trkpt><trkpt lat="45.040720962213946" lon="8.37852778131547"><ele>198.79999999999998</ele><time>2026-04-26T15:12:36.969Z</time></trkpt><trkpt lat="45.04062449988693" lon="8.378565089866395"><ele>199.0</ele><time>2026-04-26T15:12:37.969Z</time></trkpt><trkpt lat="45.04053592542858" lon="8.378631011585673"><ele>200.6</ele><time>2026-04-26T15:12:38.969Z</time></trkpt><trkpt lat="45.040462296023364" lon="8.378724726508274"><ele>202.2</ele><time>2026-04-26T15:12:39.969Z</time></trkpt><trkpt lat="45.04040355252731" lon="8.378850968135106"><ele>203.79999999999998</ele><time>2026-04-26T15:12:40.969Z</time></trkpt><trkpt lat="45.04035772883753" lon="8.379002216859375"><ele>205.39999999999998</ele><time>2026-04-26T15:12:41.969Z</time></trkpt><trkpt lat="45.04032684530647" lon="8.379167099121968"><ele>207.0</ele><time>2026-04-26T15:12:42.969Z</time></trkpt><trkpt lat="45.04030310128407" lon="8.37932984481822"><ele>207.0</ele><time>2026-04-26T15:12:43.969Z</time></trkpt><trkpt lat="45.04027413360014" lon="8.37947045645949"><ele>207.0</ele><time>2026-04-26T15:12:44.969Z</time></trkpt><trkpt lat="45.04022785918409" lon="8.37959352360167"><ele>207.0</ele><time>2026-04-26T15:12:45.969Z</time></trkpt><trkpt lat="45.040168072174" lon="8.379701535688348"><ele>207.0</ele><time>2026-04-26T15:12:46.969Z</time></trkpt><trkpt lat="45.04008595036164" lon="8.379796839558695"><ele>207.0</ele><time>2026-04-26T15:12:47.969Z</time></trkpt><trkpt lat="45.03998331120245" lon="8.379877642131184"><ele>208.25</ele><time>2026-04-26T15:12:48.969Z</time></trkpt><trkpt lat="45.039865562099806" lon="8.37994299016553"><ele>209.5</ele><time>2026-04-26T15:12:49.969Z</time></trkpt><trkpt lat="45.03974477024967" lon="8.380001425099195"><ele>210.75</ele><time>2026-04-26T15:12:50.969Z</time></trkpt><trkpt lat="45.03962855511354" lon="8.380058449711811"><ele>212.0</ele><time>2026-04-26T15:12:51.969Z</time></trkpt><trkpt lat="45.03951156982926" lon="8.380116704840834"><ele>212.0</ele><time>2026-04-26T15:12:52.969Z</time></trkpt><trkpt lat="45.039397661777784" lon="8.380177910981507"><ele>212.0</ele><time>2026-04-26T15:12:53.968Z</time></trkpt><trkpt lat="45.03928347161492" lon="8.3802269955909"><ele>212.0</ele><time>2026-04-26T15:12:54.968Z</time></trkpt><trkpt lat="45.03918266319021" lon="8.380289860262744"><ele>212.0</ele><time>2026-04-26T15:12:55.968Z</time></trkpt><trkpt lat="45.03907830176684" lon="8.380343731703295"><ele>212.33333333333334</ele><time>2026-04-26T15:12:56.968Z</time></trkpt><trkpt lat="45.03899109147838" lon="8.380394201868434"><ele>212.66666666666669</ele><time>2026-04-26T15:12:57.968Z</time></trkpt><trkpt lat="45.03891693420335" lon="8.380436895687966"><ele>213.0</ele><time>2026-04-26T15:12:58.968Z</time></trkpt><trkpt lat="45.03885555719087" lon="8.380472480539884"><ele>213.33333333333331</ele><time>2026-04-26T15:12:59.968Z</time></trkpt><trkpt lat="45.038748001991465" lon="8.380529628988375"><ele>213.66666666666666</ele><time>2026-04-26T15:13:01.968Z</time></trkpt><trkpt lat="45.03865841581025" lon="8.380560362255268"><ele>214.0</ele><time>2026-04-26T15:13:03.968Z</time></trkpt><trkpt lat="45.03858838336607" lon="8.380563030320157"><ele>213.99999999999997</ele><time>2026-04-26T15:13:05.968Z</time></trkpt><trkpt lat="45.03861802785923" lon="8.38042096097978"><ele>214.0</ele><time>2026-04-26T15:13:08.968Z</time></trkpt><trkpt lat="45.03865937359995" lon="8.380346449996022"><ele>214.0</ele><time>2026-04-26T15:13:09.968Z</time></trkpt><trkpt lat="45.03870370569086" lon="8.38024824116466"><ele>214.0</ele><time>2026-04-26T15:13:10.968Z</time></trkpt><trkpt lat="45.03876812706215" lon="8.380161368172924"><ele>213.99999999999997</ele><time>2026-04-26T15:13:11.968Z</time></trkpt><trkpt lat="45.03882557598541" lon="8.380053885789529"><ele>214.0</ele><time>2026-04-26T15:13:12.968Z</time></trkpt><trkpt lat="45.03888573247375" lon="8.379928077984967"><ele>214.0</ele><time>2026-04-26T15:13:13.968Z</time></trkpt><trkpt lat="45.038939794165344" lon="8.379776019929716"><ele>214.0</ele><time>2026-04-26T15:13:14.968Z</time></trkpt><trkpt lat="45.038989710175464" lon="8.37960372273489"><ele>214.0</ele><time>2026-04-26T15:13:15.968Z</time></trkpt><trkpt lat="45.039036089546464" lon="8.379429957109526"><ele>214.0</ele><time>2026-04-26T15:13:16.968Z</time></trkpt><trkpt lat="45.03908523546833" lon="8.379236249553145"><ele>214.33333333333331</ele><time>2026-04-26T15:13:17.968Z</time></trkpt><trkpt lat="45.03913074538518" lon="8.379032021887463"><ele>214.66666666666669</ele><time>2026-04-26T15:13:18.968Z</time></trkpt><trkpt lat="45.03918078002597" lon="8.378813931150374"><ele>215.0</ele><time>2026-04-26T15:13:19.968Z</time></trkpt><trkpt lat="45.039240731667554" lon="8.378586389036766"><ele>215.0</ele><time>2026-04-26T15:13:20.968Z</time></trkpt><trkpt lat="45.03930985715953" lon="8.37834877355776"><ele>215.0</ele><time>2026-04-26T15:13:21.968Z</time></trkpt><trkpt lat="45.039379242421575" lon="8.378124778493484"><ele>215.0</ele><time>2026-04-26T15:13:22.968Z</time></trkpt><trkpt lat="45.03944142324418" lon="8.377911406846593"><ele>215.0</ele><time>2026-04-26T15:13:23.968Z</time></trkpt><trkpt lat="45.03949453201514" lon="8.37770113111675"><ele>215.0</ele><time>2026-04-26T15:13:24.968Z</time></trkpt><trkpt lat="45.039542230630936" lon="8.377501987292355"><ele>215.0</ele><time>2026-04-26T15:13:25.968Z</time></trkpt><trkpt lat="45.03957582927072" lon="8.377315707232695"><ele>215.0</ele><time>2026-04-26T15:13:26.968Z</time></trkpt><trkpt lat="45.03959122050983" lon="8.377124985286393"><ele>215.0</ele><time>2026-04-26T15:13:27.968Z</time></trkpt><trkpt lat="45.039584941107336" lon="8.376927254288873"><ele>215.0</ele><time>2026-04-26T15:13:28.968Z</time></trkpt><trkpt lat="45.0395541995161" lon="8.37673646238005"><ele>215.0</ele><time>2026-04-26T15:13:29.968Z</time></trkpt><trkpt lat="45.03951831524412" lon="8.376542809527866"><ele>215.0</ele><time>2026-04-26T15:13:30.968Z</time></trkpt><trkpt lat="45.03942690864031" lon="8.376375867411351"><ele>216.66666666666669</ele><time>2026-04-26T15:13:31.968Z</time></trkpt><trkpt lat="45.03935554345065" lon="8.376187515191956"><ele>218.33333333333331</ele><time>2026-04-26T15:13:32.968Z</time></trkpt><trkpt lat="45.039264697132" lon="8.376017198743527"><ele>220.0</ele><time>2026-04-26T15:13:33.968Z</time></trkpt><trkpt lat="45.03917307826293" lon="8.375845434462253"><ele>219.33333333333331</ele><time>2026-04-26T15:13:34.968Z</time></trkpt><trkpt lat="45.03908030587771" lon="8.375671507134792"><ele>218.66666666666669</ele><time>2026-04-26T15:13:35.968Z</time></trkpt><trkpt lat="45.038985321478066" lon="8.375494578890471"><ele>218.0</ele><time>2026-04-26T15:13:36.968Z</time></trkpt><trkpt lat="45.03889013673918" lon="8.375318330301122"><ele>220.33333333333334</ele><time>2026-04-26T15:13:37.968Z</time></trkpt><trkpt lat="45.03879338278005" lon="8.375139176237372"><ele>222.66666666666669</ele><time>2026-04-26T15:13:38.968Z</time></trkpt><trkpt lat="45.0386967016919" lon="8.37495652192527"><ele>225.0</ele><time>2026-04-26T15:13:39.968Z</time></trkpt><trkpt lat="45.03859517981841" lon="8.37476425249729"><ele>226.66666666666669</ele><time>2026-04-26T15:13:40.968Z</time></trkpt><trkpt lat="45.03849309276329" lon="8.374570913020603"><ele>228.33333333333334</ele><time>2026-04-26T15:13:41.968Z</time></trkpt><trkpt lat="45.038390477460254" lon="8.37438009550746"><ele>230.0</ele><time>2026-04-26T15:13:42.968Z</time></trkpt><trkpt lat="45.03827497677026" lon="8.374204198882412"><ele>230.0</ele><time>2026-04-26T15:13:43.968Z</time></trkpt><trkpt lat="45.038178976653874" lon="8.374008993938407"><ele>230.0</ele><time>2026-04-26T15:13:44.968Z</time></trkpt><trkpt lat="45.03807821677621" lon="8.373818253343366"><ele>230.0</ele><time>2026-04-26T15:13:45.968Z</time></trkpt><trkpt lat="45.03797465676166" lon="8.373629729621323"><ele>232.66666666666669</ele><time>2026-04-26T15:13:46.968Z</time></trkpt><trkpt lat="45.03787604696135" lon="8.373442598816078"><ele>235.33333333333331</ele><time>2026-04-26T15:13:47.968Z</time></trkpt><trkpt lat="45.037781758277795" lon="8.3732649887388"><ele>238.0</ele><time>2026-04-26T15:13:48.968Z</time></trkpt><trkpt lat="45.037690910806056" lon="8.373092386524956"><ele>238.25</ele><time>2026-04-26T15:13:49.968Z</time></trkpt><trkpt lat="45.037604083771164" lon="8.372929001366392"><ele>238.5</ele><time>2026-04-26T15:13:50.968Z</time></trkpt><trkpt lat="45.03752919461526" lon="8.372765883689729"><ele>238.75</ele><time>2026-04-26T15:13:51.968Z</time></trkpt><trkpt lat="45.037455085249036" lon="8.372617803725829"><ele>239.0</ele><time>2026-04-26T15:13:52.968Z</time></trkpt><trkpt lat="45.03738503532237" lon="8.372486882204143"><ele>239.5</ele><time>2026-04-26T15:13:53.968Z</time></trkpt><trkpt lat="45.03733399963679" lon="8.372359852389557"><ele>240.0</ele><time>2026-04-26T15:13:54.968Z</time></trkpt><trkpt lat="45.037296287759446" lon="8.372209531835946"><ele>240.5</ele><time>2026-04-26T15:13:55.968Z</time></trkpt><trkpt lat="45.03727625749142" lon="8.372038583364864"><ele>241.0</ele><time>2026-04-26T15:13:56.968Z</time></trkpt><trkpt lat="45.037273912150546" lon="8.371850091980058"><ele>241.0</ele><time>2026-04-26T15:13:57.968Z</time></trkpt><trkpt lat="45.037268433825446" lon="8.371641769137666"><ele>241.0</ele><time>2026-04-26T15:13:58.968Z</time></trkpt><trkpt lat="45.037259935797124" lon="8.371422437415173"><ele>241.0</ele><time>2026-04-26T15:13:59.968Z</time></trkpt><trkpt lat="45.03725193650576" lon="8.37122137408476"><ele>241.0</ele><time>2026-04-26T15:14:00.968Z</time></trkpt><trkpt lat="45.037251954088305" lon="8.371038878870595"><ele>241.0</ele><time>2026-04-26T15:14:01.968Z</time></trkpt><trkpt lat="45.03728487515815" lon="8.370867511654097"><ele>241.0</ele><time>2026-04-26T15:14:02.968Z</time></trkpt><trkpt lat="45.03732285707946" lon="8.370688991989969"><ele>241.0</ele><time>2026-04-26T15:14:03.968Z</time></trkpt><trkpt lat="45.03738040943506" lon="8.37049907190648"><ele>241.0</ele><time>2026-04-26T15:14:04.968Z</time></trkpt><trkpt lat="45.03745781962466" lon="8.370298233978975"><ele>241.0</ele><time>2026-04-26T15:14:05.968Z</time></trkpt><trkpt lat="45.037545035505524" lon="8.370084121347428"><ele>241.0</ele><time>2026-04-26T15:14:06.968Z</time></trkpt><trkpt lat="45.03764115951717" lon="8.369859001731191"><ele>241.0</ele><time>2026-04-26T15:14:07.969Z</time></trkpt><trkpt lat="45.03773350670958" lon="8.369642727042224"><ele>245.33333333333331</ele><time>2026-04-26T15:14:08.969Z</time></trkpt><trkpt lat="45.037806472482025" lon="8.369420361585853"><ele>249.66666666666669</ele><time>2026-04-26T15:14:09.969Z</time></trkpt><trkpt lat="45.03791041166208" lon="8.369216497548674"><ele>254.0</ele><time>2026-04-26T15:14:10.969Z</time></trkpt><trkpt lat="45.03800520860518" lon="8.368990785896505"><ele>257.33333333333337</ele><time>2026-04-26T15:14:11.969Z</time></trkpt><trkpt lat="45.038103907277964" lon="8.36875270512504"><ele>260.6666666666667</ele><time>2026-04-26T15:14:12.969Z</time></trkpt><trkpt lat="45.03820537798432" lon="8.368503704390525"><ele>264.0</ele><time>2026-04-26T15:14:13.969Z</time></trkpt><trkpt lat="45.03831091243652" lon="8.368247958544345"><ele>260.0</ele><time>2026-04-26T15:14:14.969Z</time></trkpt><trkpt lat="45.03842188337078" lon="8.36798403683351"><ele>256.0</ele><time>2026-04-26T15:14:15.969Z</time></trkpt><trkpt lat="45.03852947050754" lon="8.367725070069683"><ele>252.0</ele><time>2026-04-26T15:14:16.969Z</time></trkpt><trkpt lat="45.03863120593353" lon="8.367478677174715"><ele>252.0</ele><time>2026-04-26T15:14:17.969Z</time></trkpt><trkpt lat="45.03871813393251" lon="8.367229696279923"><ele>252.0</ele><time>2026-04-26T15:14:18.969Z</time></trkpt><trkpt lat="45.038826126792955" lon="8.367006092968294"><ele>252.0</ele><time>2026-04-26T15:14:19.969Z</time></trkpt><trkpt lat="45.038944244846085" lon="8.366806281536991"><ele>250.66666666666669</ele><time>2026-04-26T15:14:20.969Z</time></trkpt><trkpt lat="45.03908009655048" lon="8.366629687311415"><ele>249.33333333333334</ele><time>2026-04-26T15:14:21.969Z</time></trkpt><trkpt lat="45.039215094766746" lon="8.366444871524811"><ele>248.0</ele><time>2026-04-26T15:14:22.969Z</time></trkpt><trkpt lat="45.03936120646064" lon="8.36627220971804"><ele>248.0</ele><time>2026-04-26T15:14:23.969Z</time></trkpt><trkpt lat="45.03950712463159" lon="8.366081736273404"><ele>248.0</ele><time>2026-04-26T15:14:24.969Z</time></trkpt><trkpt lat="45.03965559596087" lon="8.365887930330638"><ele>248.0</ele><time>2026-04-26T15:14:25.969Z</time></trkpt><trkpt lat="45.03980572922805" lon="8.36568672979175"><ele>251.33333333333334</ele><time>2026-04-26T15:14:26.969Z</time></trkpt><trkpt lat="45.03995642667718" lon="8.365484666589008"><ele>254.66666666666669</ele><time>2026-04-26T15:14:27.969Z</time></trkpt><trkpt lat="45.04010673117434" lon="8.365283130237724"><ele>258.0</ele><time>2026-04-26T15:14:28.969Z</time></trkpt><trkpt lat="45.04025150718752" lon="8.365089240690546"><ele>252.66666666666669</ele><time>2026-04-26T15:14:29.969Z</time></trkpt><trkpt lat="45.04039601167241" lon="8.364897509331186"><ele>247.33333333333334</ele><time>2026-04-26T15:14:30.969Z</time></trkpt><trkpt lat="45.040536186326634" lon="8.364711522941262"><ele>242.0</ele><time>2026-04-26T15:14:31.969Z</time></trkpt><trkpt lat="45.04067333632037" lon="8.364528592324373"><ele>242.0</ele><time>2026-04-26T15:14:32.969Z</time></trkpt><trkpt lat="45.04079660813952" lon="8.364340362291578"><ele>242.0</ele><time>2026-04-26T15:14:33.969Z</time></trkpt><trkpt lat="45.04090338148632" lon="8.364136209565526"><ele>242.0</ele><time>2026-04-26T15:14:34.969Z</time></trkpt><trkpt lat="45.04099528902301" lon="8.363926515646689"><ele>239.75</ele><time>2026-04-26T15:14:35.969Z</time></trkpt><trkpt lat="45.04107514060255" lon="8.363735609259287"><ele>237.5</ele><time>2026-04-26T15:14:36.969Z</time></trkpt><trkpt lat="45.041145611143286" lon="8.363566128968793"><ele>235.25</ele><time>2026-04-26T15:14:37.969Z</time></trkpt><trkpt lat="45.041208675705064" lon="8.363414459725497"><ele>233.0</ele><time>2026-04-26T15:14:38.969Z</time></trkpt><trkpt lat="45.04127170892906" lon="8.363273474064686"><ele>233.0</ele><time>2026-04-26T15:14:39.969Z</time></trkpt><trkpt lat="45.04133945011509" lon="8.363144292197934"><ele>233.0</ele><time>2026-04-26T15:14:40.969Z</time></trkpt><trkpt lat="45.04143217759652" lon="8.363034544791793"><ele>233.0</ele><time>2026-04-26T15:14:41.969Z</time></trkpt><trkpt lat="45.04153505672993" lon="8.362923492346217"><ele>233.0</ele><time>2026-04-26T15:14:42.969Z</time></trkpt><trkpt lat="45.04164706003717" lon="8.362803007910768"><ele>232.5</ele><time>2026-04-26T15:14:43.969Z</time></trkpt><trkpt lat="45.0417627703174" lon="8.362680112279289"><ele>232.0</ele><time>2026-04-26T15:14:44.969Z</time></trkpt><trkpt lat="45.04186704254551" lon="8.362561241340222"><ele>231.5</ele><time>2026-04-26T15:14:45.969Z</time></trkpt><trkpt lat="45.041951228093694" lon="8.36243244634829"><ele>231.0</ele><time>2026-04-26T15:14:46.969Z</time></trkpt><trkpt lat="45.04202155927377" lon="8.362268120158397"><ele>227.66666666666669</ele><time>2026-04-26T15:14:47.969Z</time></trkpt><trkpt lat="45.04207086866605" lon="8.362060887633039"><ele>224.33333333333334</ele><time>2026-04-26T15:14:48.969Z</time></trkpt><trkpt lat="45.042120994143495" lon="8.361829656054859"><ele>221.0</ele><time>2026-04-26T15:14:49.969Z</time></trkpt><trkpt lat="45.04217531128199" lon="8.361584760112454"><ele>221.0</ele><time>2026-04-26T15:14:50.969Z</time></trkpt><trkpt lat="45.042241857078665" lon="8.361369235769534"><ele>221.0</ele><time>2026-04-26T15:14:51.969Z</time></trkpt><trkpt lat="45.04231054429205" lon="8.361174090652"><ele>221.0</ele><time>2026-04-26T15:14:52.969Z</time></trkpt><trkpt lat="45.04237364415244" lon="8.360995398157995"><ele>220.0</ele><time>2026-04-26T15:14:53.969Z</time></trkpt><trkpt lat="45.04242774755191" lon="8.360817438390011"><ele>219.0</ele><time>2026-04-26T15:14:54.969Z</time></trkpt><trkpt lat="45.04246554780949" lon="8.36063449778632"><ele>218.0</ele><time>2026-04-26T15:14:55.969Z</time></trkpt><trkpt lat="45.04248016655313" lon="8.360454697193314"><ele>217.0</ele><time>2026-04-26T15:14:56.969Z</time></trkpt><trkpt lat="45.04247633760561" lon="8.360290216975535"><ele>216.75</ele><time>2026-04-26T15:14:57.969Z</time></trkpt><trkpt lat="45.042442578679676" lon="8.360150632473276"><ele>216.5</ele><time>2026-04-26T15:14:58.969Z</time></trkpt><trkpt lat="45.04237576263673" lon="8.360030179567842"><ele>216.25</ele><time>2026-04-26T15:14:59.969Z</time></trkpt><trkpt lat="45.04227554515435" lon="8.359945130229455"><ele>216.0</ele><time>2026-04-26T15:15:00.969Z</time></trkpt><trkpt lat="45.042135865613886" lon="8.359876961691214"><ele>216.0</ele><time>2026-04-26T15:15:01.969Z</time></trkpt><trkpt lat="45.041999436486165" lon="8.359785797327538"><ele>216.0</ele><time>2026-04-26T15:15:02.969Z</time></trkpt><trkpt lat="45.041888612417885" lon="8.35967335476948"><ele>216.0</ele><time>2026-04-26T15:15:03.969Z</time></trkpt><trkpt lat="45.04180382398903" lon="8.359527679219905"><ele>216.0</ele><time>2026-04-26T15:15:04.969Z</time></trkpt><trkpt lat="45.04176411523915" lon="8.359345440901961"><ele>217.0</ele><time>2026-04-26T15:15:05.969Z</time></trkpt><trkpt lat="45.04174502560886" lon="8.359141623682772"><ele>218.0</ele><time>2026-04-26T15:15:06.969Z</time></trkpt><trkpt lat="45.041735655482654" lon="8.358925893737242"><ele>219.0</ele><time>2026-04-26T15:15:07.969Z</time></trkpt><trkpt lat="45.04170597546527" lon="8.35869664198135"><ele>220.0</ele><time>2026-04-26T15:15:08.969Z</time></trkpt><trkpt lat="45.041652075797586" lon="8.358480779918446"><ele>221.0</ele><time>2026-04-26T15:15:09.969Z</time></trkpt><trkpt lat="45.041576365547826" lon="8.358314486561829"><ele>222.0</ele><time>2026-04-26T15:15:10.969Z</time></trkpt><trkpt lat="45.0415079873638" lon="8.358189793207863"><ele>223.0</ele><time>2026-04-26T15:15:11.969Z</time></trkpt><trkpt lat="45.04141820422611" lon="8.35811437356897"><ele>220.75</ele><time>2026-04-26T15:15:12.969Z</time></trkpt><trkpt lat="45.0413007320828" lon="8.35808646420593"><ele>218.5</ele><time>2026-04-26T15:15:13.969Z</time></trkpt><trkpt lat="45.04116372267555" lon="8.358107999479675"><ele>216.25</ele><time>2026-04-26T15:15:14.969Z</time></trkpt><trkpt lat="45.04103186561404" lon="8.358159190755048"><ele>214.0</ele><time>2026-04-26T15:15:15.969Z</time></trkpt><trkpt lat="45.040902142050655" lon="8.35816743853386"><ele>212.5</ele><time>2026-04-26T15:15:16.969Z</time></trkpt><trkpt lat="45.040782340293724" lon="8.358147946234396"><ele>211.0</ele><time>2026-04-26T15:15:17.969Z</time></trkpt><trkpt lat="45.04067310895522" lon="8.358096120460136"><ele>209.5</ele><time>2026-04-26T15:15:18.969Z</time></trkpt><trkpt lat="45.04057264638367" lon="8.358001306770873"><ele>208.0</ele><time>2026-04-26T15:15:19.969Z</time></trkpt><trkpt lat="45.040473700745245" lon="8.357870425440318"><ele>208.0</ele><time>2026-04-26T15:15:20.969Z</time></trkpt><trkpt lat="45.04038102179608" lon="8.357719148071405"><ele>208.0</ele><time>2026-04-26T15:15:21.969Z</time></trkpt><trkpt lat="45.04029235492835" lon="8.357551705998059"><ele>208.0</ele><time>2026-04-26T15:15:22.969Z</time></trkpt><trkpt lat="45.040216014287104" lon="8.357377060382863"><ele>208.0</ele><time>2026-04-26T15:15:23.969Z</time></trkpt><trkpt lat="45.04014314612889" lon="8.357213251751897"><ele>208.75</ele><time>2026-04-26T15:15:24.969Z</time></trkpt><trkpt lat="45.04006585920207" lon="8.357063915864709"><ele>209.5</ele><time>2026-04-26T15:15:25.969Z</time></trkpt><trkpt lat="45.04000095876814" lon="8.356915658534385"><ele>210.25</ele><time>2026-04-26T15:15:26.969Z</time></trkpt><trkpt lat="45.03995621049747" lon="8.356763476438582"><ele>211.0</ele><time>2026-04-26T15:15:27.969Z</time></trkpt><trkpt lat="45.039935321511116" lon="8.356603633776054"><ele>209.75</ele><time>2026-04-26T15:15:28.969Z</time></trkpt><trkpt lat="45.03995326421326" lon="8.356428934604137"><ele>208.5</ele><time>2026-04-26T15:15:29.969Z</time></trkpt><trkpt lat="45.039973735050985" lon="8.356241035421736"><ele>207.25</ele><time>2026-04-26T15:15:30.969Z</time></trkpt><trkpt lat="45.0399952518238" lon="8.356036836234715"><ele>206.0</ele><time>2026-04-26T15:15:31.969Z</time></trkpt><trkpt lat="45.0400140819843" lon="8.355832440468294"><ele>206.0</ele><time>2026-04-26T15:15:32.969Z</time></trkpt><trkpt lat="45.04002666465868" lon="8.355629200543468"><ele>206.0</ele><time>2026-04-26T15:15:33.969Z</time></trkpt><trkpt lat="45.04003958281602" lon="8.35543731077625"><ele>206.0</ele><time>2026-04-26T15:15:34.969Z</time></trkpt><trkpt lat="45.04006710135417" lon="8.355259235565516"><ele>206.0</ele><time>2026-04-26T15:15:35.968Z</time></trkpt><trkpt lat="45.04008677089344" lon="8.35508143918416"><ele>205.25</ele><time>2026-04-26T15:15:36.968Z</time></trkpt><trkpt lat="45.040104625713596" lon="8.354910537027923"><ele>204.5</ele><time>2026-04-26T15:15:37.968Z</time></trkpt><trkpt lat="45.040121710899676" lon="8.354747147006057"><ele>203.75</ele><time>2026-04-26T15:15:38.968Z</time></trkpt><trkpt lat="45.04014181110323" lon="8.354579187272432"><ele>203.0</ele><time>2026-04-26T15:15:39.968Z</time></trkpt><trkpt lat="45.04015776088724" lon="8.354398214377769"><ele>202.5</ele><time>2026-04-26T15:15:40.968Z</time></trkpt><trkpt lat="45.040173051295476" lon="8.354209679726809"><ele>202.0</ele><time>2026-04-26T15:15:41.968Z</time></trkpt><trkpt lat="45.040177936453674" lon="8.354027638613864"><ele>201.5</ele><time>2026-04-26T15:15:42.968Z</time></trkpt><trkpt lat="45.04016772198004" lon="8.353849484478243"><ele>201.0</ele><time>2026-04-26T15:15:43.968Z</time></trkpt><trkpt lat="45.04015098140117" lon="8.353664989048928"><ele>201.0</ele><time>2026-04-26T15:15:44.968Z</time></trkpt><trkpt lat="45.04010881694104" lon="8.353467643475206"><ele>201.0</ele><time>2026-04-26T15:15:45.968Z</time></trkpt><trkpt lat="45.04006465456559" lon="8.353254376626479"><ele>201.0</ele><time>2026-04-26T15:15:46.968Z</time></trkpt><trkpt lat="45.040034757465776" lon="8.353026603159158"><ele>200.33333333333331</ele><time>2026-04-26T15:15:47.968Z</time></trkpt><trkpt lat="45.03999539273287" lon="8.352796819721808"><ele>199.66666666666666</ele><time>2026-04-26T15:15:48.968Z</time></trkpt><trkpt lat="45.039958397414004" lon="8.352591612167426"><ele>199.0</ele><time>2026-04-26T15:15:49.968Z</time></trkpt><trkpt lat="45.039926103496974" lon="8.352399632060443"><ele>196.5</ele><time>2026-04-26T15:15:50.968Z</time></trkpt><trkpt lat="45.03989804719392" lon="8.352228517007939"><ele>194.0</ele><time>2026-04-26T15:15:51.968Z</time></trkpt><trkpt lat="45.039868624790174" lon="8.352080588565645"><ele>191.5</ele><time>2026-04-26T15:15:52.968Z</time></trkpt><trkpt lat="45.03984141957481" lon="8.35194025742992"><ele>189.0</ele><time>2026-04-26T15:15:53.968Z</time></trkpt><trkpt lat="45.03980986719798" lon="8.351769579873583"><ele>188.6</ele><time>2026-04-26T15:15:54.968Z</time></trkpt><trkpt lat="45.03978464799189" lon="8.351618048327113"><ele>188.2</ele><time>2026-04-26T15:15:55.968Z</time></trkpt><trkpt lat="45.03976870823055" lon="8.35148812419187"><ele>187.79999999999998</ele><time>2026-04-26T15:15:56.968Z</time></trkpt><trkpt lat="45.03975386700124" lon="8.351360877013168"><ele>187.39999999999998</ele><time>2026-04-26T15:15:57.968Z</time></trkpt><trkpt lat="45.03974190254256" lon="8.351220375911785"><ele>187.0</ele><time>2026-04-26T15:15:58.968Z</time></trkpt><trkpt lat="45.0397387271905" lon="8.35106257753451"><ele>186.25</ele><time>2026-04-26T15:15:59.968Z</time></trkpt><trkpt lat="45.03976114889672" lon="8.350896849784249"><ele>185.5</ele><time>2026-04-26T15:16:00.968Z</time></trkpt><trkpt lat="45.03981835929919" lon="8.350720246342485"><ele>184.75</ele><time>2026-04-26T15:16:01.968Z</time></trkpt><trkpt lat="45.039895777214355" lon="8.350537853636075"><ele>184.0</ele><time>2026-04-26T15:16:02.968Z</time></trkpt><trkpt lat="45.04000621532508" lon="8.350351946402274"><ele>186.0</ele><time>2026-04-26T15:16:03.968Z</time></trkpt><trkpt lat="45.040095139142885" lon="8.350150412579515"><ele>188.0</ele><time>2026-04-26T15:16:04.968Z</time></trkpt><trkpt lat="45.04018925340756" lon="8.349963710354741"><ele>190.0</ele><time>2026-04-26T15:16:05.968Z</time></trkpt><trkpt lat="45.040279229955395" lon="8.349777687578811"><ele>189.0</ele><time>2026-04-26T15:16:06.968Z</time></trkpt><trkpt lat="45.0403676992255" lon="8.34961275334937"><ele>188.0</ele><time>2026-04-26T15:16:07.968Z</time></trkpt><trkpt lat="45.040447322885875" lon="8.349455609229377"><ele>187.0</ele><time>2026-04-26T15:16:08.968Z</time></trkpt><trkpt lat="45.04051705359961" lon="8.349309872045078"><ele>186.0</ele><time>2026-04-26T15:16:09.968Z</time></trkpt><trkpt lat="45.04059982949757" lon="8.349181274091263"><ele>186.0</ele><time>2026-04-26T15:16:10.968Z</time></trkpt><trkpt lat="45.0406663323992" lon="8.349041442555947"><ele>186.0</ele><time>2026-04-26T15:16:11.968Z</time></trkpt><trkpt lat="45.040732029267346" lon="8.348895740615994"><ele>186.0</ele><time>2026-04-26T15:16:12.968Z</time></trkpt><trkpt lat="45.040802966833546" lon="8.348744238004443"><ele>186.0</ele><time>2026-04-26T15:16:13.968Z</time></trkpt><trkpt lat="45.04088293055165" lon="8.348587909799834"><ele>186.25</ele><time>2026-04-26T15:16:14.968Z</time></trkpt><trkpt lat="45.040973126130254" lon="8.348424950335495"><ele>186.5</ele><time>2026-04-26T15:16:15.968Z</time></trkpt><trkpt lat="45.04107152064645" lon="8.348270228372204"><ele>186.75</ele><time>2026-04-26T15:16:16.969Z</time></trkpt><trkpt lat="45.04119037121645" lon="8.348141962826194"><ele>187.0</ele><time>2026-04-26T15:16:17.968Z</time></trkpt><trkpt lat="45.04132838100268" lon="8.348040020299246"><ele>187.33333333333334</ele><time>2026-04-26T15:16:18.968Z</time></trkpt><trkpt lat="45.0414861111307" lon="8.347966349607757"><ele>187.66666666666666</ele><time>2026-04-26T15:16:19.969Z</time></trkpt><trkpt lat="45.04165706753964" lon="8.347896221871862"><ele>188.0</ele><time>2026-04-26T15:16:20.969Z</time></trkpt><trkpt lat="45.04183685282037" lon="8.347827263341026"><ele>188.0</ele><time>2026-04-26T15:16:21.969Z</time></trkpt><trkpt lat="45.04202323915061" lon="8.347755098635172"><ele>188.0</ele><time>2026-04-26T15:16:22.968Z</time></trkpt><trkpt lat="45.04221296230217" lon="8.347681823152925"><ele>188.0</ele><time>2026-04-26T15:16:23.969Z</time></trkpt><trkpt lat="45.0424020516884" lon="8.347609729777439"><ele>189.33333333333331</ele><time>2026-04-26T15:16:24.969Z</time></trkpt><trkpt lat="45.042582580695225" lon="8.347544804544865"><ele>190.66666666666666</ele><time>2026-04-26T15:16:25.969Z</time></trkpt><trkpt lat="45.04276194400553" lon="8.347481333483065"><ele>192.0</ele><time>2026-04-26T15:16:26.969Z</time></trkpt><trkpt lat="45.042944796618265" lon="8.34741771893938"><ele>192.0</ele><time>2026-04-26T15:16:27.969Z</time></trkpt><trkpt lat="45.043128451590135" lon="8.347356503593138"><ele>192.0</ele><time>2026-04-26T15:16:28.969Z</time></trkpt><trkpt lat="45.04330975378386" lon="8.347294258168281"><ele>192.0</ele><time>2026-04-26T15:16:29.969Z</time></trkpt><trkpt lat="45.043494580335135" lon="8.34724446234604"><ele>190.66666666666666</ele><time>2026-04-26T15:16:30.969Z</time></trkpt><trkpt lat="45.043681209506666" lon="8.34720834805461"><ele>189.33333333333331</ele><time>2026-04-26T15:16:31.969Z</time></trkpt><trkpt lat="45.04386738014992" lon="8.3471657314795"><ele>188.0</ele><time>2026-04-26T15:16:32.969Z</time></trkpt><trkpt lat="45.04405016913627" lon="8.347124142224985"><ele>189.33333333333331</ele><time>2026-04-26T15:16:33.969Z</time></trkpt><trkpt lat="45.04422999211373" lon="8.347066676627868"><ele>190.66666666666666</ele><time>2026-04-26T15:16:34.969Z</time></trkpt><trkpt lat="45.04441438434513" lon="8.346980002697892"><ele>192.0</ele><time>2026-04-26T15:16:35.969Z</time></trkpt><trkpt lat="45.04460138044373" lon="8.346883820555192"><ele>192.0</ele><time>2026-04-26T15:16:36.969Z</time></trkpt><trkpt lat="45.04476859012916" lon="8.346732483925388"><ele>192.0</ele><time>2026-04-26T15:16:37.969Z</time></trkpt><trkpt lat="45.04492887004714" lon="8.346558097435512"><ele>192.0</ele><time>2026-04-26T15:16:38.969Z</time></trkpt><trkpt lat="45.04508293493056" lon="8.346373180592094"><ele>192.33333333333331</ele><time>2026-04-26T15:16:39.969Z</time></trkpt><trkpt lat="45.04524074521746" lon="8.34618115507557"><ele>192.66666666666666</ele><time>2026-04-26T15:16:40.969Z</time></trkpt><trkpt lat="45.04540178071228" lon="8.34598378335514"><ele>193.0</ele><time>2026-04-26T15:16:41.969Z</time></trkpt><trkpt lat="45.04555621687021" lon="8.34576078539887"><ele>193.0</ele><time>2026-04-26T15:16:42.969Z</time></trkpt><trkpt lat="45.04573025644898" lon="8.34556325221787"><ele>193.0</ele><time>2026-04-26T15:16:43.969Z</time></trkpt><trkpt lat="45.04589972635807" lon="8.34535151709082"><ele>193.0</ele><time>2026-04-26T15:16:44.969Z</time></trkpt><trkpt lat="45.04607346727049" lon="8.345142421648632"><ele>192.5</ele><time>2026-04-26T15:16:45.969Z</time></trkpt><trkpt lat="45.04624533197595" lon="8.344932481256347"><ele>192.0</ele><time>2026-04-26T15:16:46.969Z</time></trkpt><trkpt lat="45.04641701800722" lon="8.344721925598641"><ele>192.0</ele><time>2026-04-26T15:16:47.969Z</time></trkpt><trkpt lat="45.04658760037706" lon="8.344515225501544"><ele>192.0</ele><time>2026-04-26T15:16:48.969Z</time></trkpt><trkpt lat="45.04675461046928" lon="8.344310994459445"><ele>192.0</ele><time>2026-04-26T15:16:49.969Z</time></trkpt><trkpt lat="45.046917609597365" lon="8.344114439295698"><ele>192.33333333333331</ele><time>2026-04-26T15:16:50.969Z</time></trkpt><trkpt lat="45.04707438881309" lon="8.343923059703199"><ele>192.66666666666666</ele><time>2026-04-26T15:16:51.969Z</time></trkpt><trkpt lat="45.04722707675723" lon="8.343737803606501"><ele>193.0</ele><time>2026-04-26T15:16:52.969Z</time></trkpt><trkpt lat="45.04737819059931" lon="8.343558748944831"><ele>193.66666666666666</ele><time>2026-04-26T15:16:53.969Z</time></trkpt><trkpt lat="45.047523503967405" lon="8.343383050352811"><ele>194.33333333333331</ele><time>2026-04-26T15:16:54.969Z</time></trkpt><trkpt lat="45.047666980718304" lon="8.343210088980907"><ele>195.0</ele><time>2026-04-26T15:16:55.969Z</time></trkpt><trkpt lat="45.047805859130605" lon="8.343033350662754"><ele>195.0</ele><time>2026-04-26T15:16:56.969Z</time></trkpt><trkpt lat="45.04794538838136" lon="8.342862435822559"><ele>195.0</ele><time>2026-04-26T15:16:57.969Z</time></trkpt><trkpt lat="45.04808017063207" lon="8.342685505509024"><ele>195.0</ele><time>2026-04-26T15:16:58.969Z</time></trkpt><trkpt lat="45.04820791702734" lon="8.342493917550591"><ele>196.33333333333331</ele><time>2026-04-26T15:16:59.969Z</time></trkpt><trkpt lat="45.04833651679685" lon="8.342304284537734"><ele>197.66666666666666</ele><time>2026-04-26T15:17:00.969Z</time></trkpt><trkpt lat="45.04846636446227" lon="8.342113790158628"><ele>199.0</ele><time>2026-04-26T15:17:01.969Z</time></trkpt><trkpt lat="45.04859481211732" lon="8.341924085461923"><ele>199.0</ele><time>2026-04-26T15:17:02.969Z</time></trkpt><trkpt lat="45.04871909154639" lon="8.341741963809072"><ele>199.0</ele><time>2026-04-26T15:17:03.969Z</time></trkpt><trkpt lat="45.04883969777828" lon="8.341563076073625"><ele>199.0</ele><time>2026-04-26T15:17:04.969Z</time></trkpt><trkpt lat="45.048959845486884" lon="8.341388338259963"><ele>199.0</ele><time>2026-04-26T15:17:05.969Z</time></trkpt><trkpt lat="45.04908873515456" lon="8.341231942514387"><ele>199.0</ele><time>2026-04-26T15:17:06.969Z</time></trkpt><trkpt lat="45.04920447994481" lon="8.341064135968832"><ele>199.0</ele><time>2026-04-26T15:17:07.969Z</time></trkpt><trkpt lat="45.04931873487025" lon="8.34089848946242"><ele>199.33333333333331</ele><time>2026-04-26T15:17:08.968Z</time></trkpt><trkpt lat="45.04942960233862" lon="8.340729247871371"><ele>199.66666666666669</ele><time>2026-04-26T15:17:09.968Z</time></trkpt><trkpt lat="45.04954145122331" lon="8.34056023078977"><ele>200.0</ele><time>2026-04-26T15:17:10.968Z</time></trkpt><trkpt lat="45.049649971418006" lon="8.340398633269078"><ele>200.0</ele><time>2026-04-26T15:17:11.968Z</time></trkpt><trkpt lat="45.049751497624015" lon="8.340245884506714"><ele>200.0</ele><time>2026-04-26T15:17:12.968Z</time></trkpt><trkpt lat="45.049849721487966" lon="8.340098097845484"><ele>200.0</ele><time>2026-04-26T15:17:13.968Z</time></trkpt><trkpt lat="45.04995413221139" lon="8.339977104594077"><ele>200.0</ele><time>2026-04-26T15:17:14.968Z</time></trkpt><trkpt lat="45.05003565242593" lon="8.339826647266289"><ele>201.0</ele><time>2026-04-26T15:17:15.968Z</time></trkpt><trkpt lat="45.050134663932454" lon="8.339693547907512"><ele>202.0</ele><time>2026-04-26T15:17:16.968Z</time></trkpt><trkpt lat="45.05022294787439" lon="8.339554406758825"><ele>203.0</ele><time>2026-04-26T15:17:17.968Z</time></trkpt><trkpt lat="45.05032437983673" lon="8.339439114890974"><ele>204.0</ele><time>2026-04-26T15:17:18.968Z</time></trkpt><trkpt lat="45.050415595350366" lon="8.339307478212206"><ele>204.0</ele><time>2026-04-26T15:17:19.968Z</time></trkpt><trkpt lat="45.05050660322921" lon="8.339176810364544"><ele>204.0</ele><time>2026-04-26T15:17:20.968Z</time></trkpt><trkpt lat="45.050596326444264" lon="8.339048306269365"><ele>204.0</ele><time>2026-04-26T15:17:21.968Z</time></trkpt><trkpt lat="45.050683099768115" lon="8.338922758411613"><ele>204.0</ele><time>2026-04-26T15:17:22.968Z</time></trkpt><trkpt lat="45.05077406312416" lon="8.338802426422218"><ele>203.75</ele><time>2026-04-26T15:17:23.968Z</time></trkpt><trkpt lat="45.05087973361579" lon="8.338714072413358"><ele>203.5</ele><time>2026-04-26T15:17:24.968Z</time></trkpt><trkpt lat="45.05097819885697" lon="8.338609279214037"><ele>203.25</ele><time>2026-04-26T15:17:25.968Z</time></trkpt><trkpt lat="45.051089261303595" lon="8.33853606599912"><ele>203.0</ele><time>2026-04-26T15:17:26.968Z</time></trkpt><trkpt lat="45.05120568597204" lon="8.33848528810533"><ele>203.0</ele><time>2026-04-26T15:17:27.968Z</time></trkpt><trkpt lat="45.05130914284943" lon="8.33841599493367"><ele>203.0</ele><time>2026-04-26T15:17:28.968Z</time></trkpt><trkpt lat="45.05140467945277" lon="8.338351338731224"><ele>203.0</ele><time>2026-04-26T15:17:29.968Z</time></trkpt><trkpt lat="45.05149691895726" lon="8.338290856354366"><ele>203.0</ele><time>2026-04-26T15:17:30.968Z</time></trkpt><trkpt lat="45.051583387539864" lon="8.338234646936062"><ele>203.0</ele><time>2026-04-26T15:17:31.968Z</time></trkpt><trkpt lat="45.051662212751104" lon="8.338188771157334"><ele>203.50000000000003</ele><time>2026-04-26T15:17:32.968Z</time></trkpt><trkpt lat="45.051749861419474" lon="8.338172244445943"><ele>204.0</ele><time>2026-04-26T15:17:33.968Z</time></trkpt><trkpt lat="45.051833311554844" lon="8.3381531621108"><ele>204.5</ele><time>2026-04-26T15:17:34.968Z</time></trkpt><trkpt lat="45.05190976734685" lon="8.338136748880261"><ele>205.0</ele><time>2026-04-26T15:17:35.968Z</time></trkpt><trkpt lat="45.05199586140128" lon="8.338127351683546"><ele>205.50000000000003</ele><time>2026-04-26T15:17:36.968Z</time></trkpt><trkpt lat="45.05207912854028" lon="8.338127538613842"><ele>206.0</ele><time>2026-04-26T15:17:37.968Z</time></trkpt><trkpt lat="45.052149571883746" lon="8.338134477477682"><ele>206.0</ele><time>2026-04-26T15:17:38.968Z</time></trkpt><trkpt lat="45.05223263736009" lon="8.338123852419693"><ele>206.0</ele><time>2026-04-26T15:17:40.968Z</time></trkpt><trkpt lat="45.05228034128905" lon="8.337958729296702"><ele>206.0</ele><time>2026-04-26T15:17:44.968Z</time></trkpt><trkpt lat="45.05222276516771" lon="8.337829166344648"><ele>206.0</ele><time>2026-04-26T15:17:46.968Z</time></trkpt><trkpt lat="45.052184992609575" lon="8.337742351400214"><ele>206.0</ele><time>2026-04-26T15:17:47.968Z</time></trkpt><trkpt lat="45.052147628708944" lon="8.337644720879966"><ele>206.20000000000002</ele><time>2026-04-26T15:17:48.968Z</time></trkpt><trkpt lat="45.05212804338825" lon="8.337540914884931"><ele>206.4</ele><time>2026-04-26T15:17:49.968Z</time></trkpt><trkpt lat="45.052109404302705" lon="8.337449753936252"><ele>206.6</ele><time>2026-04-26T15:17:50.968Z</time></trkpt><trkpt lat="45.05204405254219" lon="8.33733013650811"><ele>206.8</ele><time>2026-04-26T15:17:52.968Z</time></trkpt><trkpt lat="45.05191216045115" lon="8.337284473608378"><ele>207.0</ele><time>2026-04-26T15:17:54.968Z</time></trkpt><trkpt lat="45.05181709454148" lon="8.337267602171298"><ele>207.0</ele><time>2026-04-26T15:17:55.968Z</time></trkpt><trkpt lat="45.05171799882808" lon="8.337235743595864"><ele>207.0</ele><time>2026-04-26T15:17:56.968Z</time></trkpt><trkpt lat="45.05161952503631" lon="8.337181380090314"><ele>207.0</ele><time>2026-04-26T15:17:57.968Z</time></trkpt><trkpt lat="45.05152053313299" lon="8.33713167385678"><ele>207.0</ele><time>2026-04-26T15:17:58.968Z</time></trkpt><trkpt lat="45.05144098200636" lon="8.337045734253126"><ele>207.0</ele><time>2026-04-26T15:17:59.968Z</time></trkpt><trkpt lat="45.05136800824096" lon="8.336955635611863"><ele>206.6</ele><time>2026-04-26T15:18:00.968Z</time></trkpt><trkpt lat="45.05129427871351" lon="8.336878629489052"><ele>206.2</ele><time>2026-04-26T15:18:01.968Z</time></trkpt><trkpt lat="45.05121402001715" lon="8.336800424743695"><ele>205.8</ele><time>2026-04-26T15:18:02.968Z</time></trkpt><trkpt lat="45.051125909522426" lon="8.336709528598679"><ele>205.4</ele><time>2026-04-26T15:18:03.968Z</time></trkpt><trkpt lat="45.05103822158413" lon="8.336618909272238"><ele>205.0</ele><time>2026-04-26T15:18:04.968Z</time></trkpt><trkpt lat="45.0509471881455" lon="8.336529805825013"><ele>205.0</ele><time>2026-04-26T15:18:05.968Z</time></trkpt><trkpt lat="45.05084919099988" lon="8.336433363388826"><ele>205.0</ele><time>2026-04-26T15:18:06.968Z</time></trkpt><trkpt lat="45.05074934303057" lon="8.336331060478011"><ele>205.0</ele><time>2026-04-26T15:18:07.968Z</time></trkpt><trkpt lat="45.05064776639762" lon="8.336226083368347"><ele>205.0</ele><time>2026-04-26T15:18:08.968Z</time></trkpt><trkpt lat="45.05054095394368" lon="8.33611450366757"><ele>205.25</ele><time>2026-04-26T15:18:09.968Z</time></trkpt><trkpt lat="45.050430475049204" lon="8.33599691193179"><ele>205.5</ele><time>2026-04-26T15:18:10.968Z</time></trkpt><trkpt lat="45.050321024507845" lon="8.335880970328487"><ele>205.75</ele><time>2026-04-26T15:18:11.968Z</time></trkpt><trkpt lat="45.05021150721585" lon="8.33576848470455"><ele>206.0</ele><time>2026-04-26T15:18:12.968Z</time></trkpt><trkpt lat="45.050124247941774" lon="8.335631288616232"><ele>208.20000000000002</ele><time>2026-04-26T15:18:13.968Z</time></trkpt><trkpt lat="45.05003584860517" lon="8.335527141399478"><ele>210.4</ele><time>2026-04-26T15:18:14.968Z</time></trkpt><trkpt lat="45.04995780008795" lon="8.335438340477952"><ele>212.6</ele><time>2026-04-26T15:18:15.968Z</time></trkpt><trkpt lat="45.04988136945068" lon="8.335365191768405"><ele>214.8</ele><time>2026-04-26T15:18:16.968Z</time></trkpt><trkpt lat="45.04980697747311" lon="8.33530253872176"><ele>217.0</ele><time>2026-04-26T15:18:17.968Z</time></trkpt><trkpt lat="45.04972394828712" lon="8.335256762573195"><ele>217.0</ele><time>2026-04-26T15:18:18.968Z</time></trkpt><trkpt lat="45.0496307691029" lon="8.335235951878268"><ele>217.0</ele><time>2026-04-26T15:18:19.968Z</time></trkpt><trkpt lat="45.049530152177276" lon="8.335255030905543"><ele>217.0</ele><time>2026-04-26T15:18:20.968Z</time></trkpt><trkpt lat="45.049439210747906" lon="8.335320050351891"><ele>217.0</ele><time>2026-04-26T15:18:21.968Z</time></trkpt><trkpt lat="45.04937625277365" lon="8.335425948304977"><ele>217.0</ele><time>2026-04-26T15:18:22.968Z</time></trkpt><trkpt lat="45.04933193360793" lon="8.3355677692227"><ele>217.0</ele><time>2026-04-26T15:18:23.968Z</time></trkpt><trkpt lat="45.04930177411681" lon="8.335729769994849"><ele>217.0</ele><time>2026-04-26T15:18:24.968Z</time></trkpt><trkpt lat="45.04927540478824" lon="8.335910052744833"><ele>217.0</ele><time>2026-04-26T15:18:25.968Z</time></trkpt><trkpt lat="45.04925238181011" lon="8.336099511341393"><ele>217.0</ele><time>2026-04-26T15:18:26.968Z</time></trkpt><trkpt lat="45.04922783387801" lon="8.33628716740714"><ele>216.75</ele><time>2026-04-26T15:18:27.968Z</time></trkpt><trkpt lat="45.04920108386331" lon="8.336463241321114"><ele>216.5</ele><time>2026-04-26T15:18:28.968Z</time></trkpt><trkpt lat="45.04917511840584" lon="8.336625384075816"><ele>216.25</ele><time>2026-04-26T15:18:29.968Z</time></trkpt><trkpt lat="45.04913873880335" lon="8.336772282166825"><ele>216.0</ele><time>2026-04-26T15:18:30.968Z</time></trkpt><trkpt lat="45.0490877599771" lon="8.33689517388929"><ele>217.75</ele><time>2026-04-26T15:18:31.967Z</time></trkpt><trkpt lat="45.04901954699775" lon="8.33699603837677"><ele>219.5</ele><time>2026-04-26T15:18:32.968Z</time></trkpt><trkpt lat="45.04892205706879" lon="8.33709064074972"><ele>221.25</ele><time>2026-04-26T15:18:33.968Z</time></trkpt><trkpt lat="45.048804254899885" lon="8.337170193379931"><ele>223.0</ele><time>2026-04-26T15:18:34.968Z</time></trkpt><trkpt lat="45.04867790114717" lon="8.337252016331808"><ele>223.0</ele><time>2026-04-26T15:18:35.968Z</time></trkpt><trkpt lat="45.048543565719285" lon="8.337344324372276"><ele>223.0</ele><time>2026-04-26T15:18:36.968Z</time></trkpt><trkpt lat="45.04839877250634" lon="8.337442279489231"><ele>223.0</ele><time>2026-04-26T15:18:37.968Z</time></trkpt><trkpt lat="45.048250309703555" lon="8.337546129295376"><ele>225.5</ele><time>2026-04-26T15:18:38.968Z</time></trkpt><trkpt lat="45.048108219629576" lon="8.337648145450014"><ele>228.0</ele><time>2026-04-26T15:18:39.968Z</time></trkpt><trkpt lat="45.04797648114914" lon="8.337733891759166"><ele>230.5</ele><time>2026-04-26T15:18:40.968Z</time></trkpt><trkpt lat="45.04785829507427" lon="8.337825603529772"><ele>233.0</ele><time>2026-04-26T15:18:41.968Z</time></trkpt><trkpt lat="45.04775648605886" lon="8.33792314678243"><ele>233.0</ele><time>2026-04-26T15:18:42.968Z</time></trkpt><trkpt lat="45.04767615771284" lon="8.338036803021218"><ele>233.0</ele><time>2026-04-26T15:18:43.967Z</time></trkpt><trkpt lat="45.04759091978334" lon="8.338123095143136"><ele>233.0</ele><time>2026-04-26T15:18:44.967Z</time></trkpt><trkpt lat="45.04752685576002" lon="8.33820714871865"><ele>233.0</ele><time>2026-04-26T15:18:45.967Z</time></trkpt><trkpt lat="45.04747110969021" lon="8.338295162880721"><ele>233.0</ele><time>2026-04-26T15:18:46.967Z</time></trkpt><trkpt lat="45.04738953500455" lon="8.338323024227138"><ele>234.8</ele><time>2026-04-26T15:18:47.967Z</time></trkpt><trkpt lat="45.047308447454725" lon="8.338297080976407"><ele>236.60000000000002</ele><time>2026-04-26T15:18:48.967Z</time></trkpt><trkpt lat="45.04724702127024" lon="8.338213140157729"><ele>238.39999999999998</ele><time>2026-04-26T15:18:49.967Z</time></trkpt><trkpt lat="45.047222340979786" lon="8.338088325993343"><ele>240.2</ele><time>2026-04-26T15:18:50.967Z</time></trkpt><trkpt lat="45.047263280067725" lon="8.337964745792867"><ele>242.0</ele><time>2026-04-26T15:18:51.967Z</time></trkpt><trkpt lat="45.0473174995086" lon="8.337821384326677"><ele>245.0</ele><time>2026-04-26T15:18:52.967Z</time></trkpt><trkpt lat="45.04740302269913" lon="8.337656117532656"><ele>248.0</ele><time>2026-04-26T15:18:53.967Z</time></trkpt><trkpt lat="45.04750522002817" lon="8.33746257896578"><ele>251.0</ele><time>2026-04-26T15:18:54.967Z</time></trkpt><trkpt lat="45.04762240711841" lon="8.337282346143512"><ele>248.0</ele><time>2026-04-26T15:18:55.967Z</time></trkpt><trkpt lat="45.04772156084066" lon="8.337100318151636"><ele>245.0</ele><time>2026-04-26T15:18:56.967Z</time></trkpt><trkpt lat="45.04781712360929" lon="8.336916076270068"><ele>242.0</ele><time>2026-04-26T15:18:57.967Z</time></trkpt><trkpt lat="45.04790252505887" lon="8.33673296824283"><ele>242.0</ele><time>2026-04-26T15:18:58.967Z</time></trkpt><trkpt lat="45.047981221384724" lon="8.33655853325789"><ele>242.0</ele><time>2026-04-26T15:18:59.967Z</time></trkpt><trkpt lat="45.048051639787566" lon="8.336390203717633"><ele>242.0</ele><time>2026-04-26T15:19:00.967Z</time></trkpt><trkpt lat="45.04810925998675" lon="8.336210478177946"><ele>242.0</ele><time>2026-04-26T15:19:01.967Z</time></trkpt><trkpt lat="45.04814816431739" lon="8.336013989646151"><ele>244.0</ele><time>2026-04-26T15:19:02.967Z</time></trkpt><trkpt lat="45.048162866556865" lon="8.33582464543102"><ele>246.0</ele><time>2026-04-26T15:19:03.967Z</time></trkpt><trkpt lat="45.048160077657045" lon="8.335634914322442"><ele>248.0</ele><time>2026-04-26T15:19:04.967Z</time></trkpt><trkpt lat="45.04814240544415" lon="8.335422736576362"><ele>250.0</ele><time>2026-04-26T15:19:05.967Z</time></trkpt><trkpt lat="45.048121075653306" lon="8.33519430992427"><ele>252.0</ele><time>2026-04-26T15:19:06.967Z</time></trkpt><trkpt lat="45.048100161955404" lon="8.334949766923657"><ele>254.0</ele><time>2026-04-26T15:19:07.967Z</time></trkpt><trkpt lat="45.048080057483176" lon="8.33469373282532"><ele>256.0</ele><time>2026-04-26T15:19:08.967Z</time></trkpt><trkpt lat="45.04807579393591" lon="8.334432724451824"><ele>256.3333333333333</ele><time>2026-04-26T15:19:09.967Z</time></trkpt><trkpt lat="45.04805551555501" lon="8.334175800855238"><ele>256.6666666666667</ele><time>2026-04-26T15:19:10.967Z</time></trkpt><trkpt lat="45.04803249111446" lon="8.333923754485115"><ele>257.0</ele><time>2026-04-26T15:19:11.967Z</time></trkpt><trkpt lat="45.04799376809008" lon="8.333677461853117"><ele>257.0</ele><time>2026-04-26T15:19:12.967Z</time></trkpt><trkpt lat="45.0479734275653" lon="8.33342973133525"><ele>257.0</ele><time>2026-04-26T15:19:13.967Z</time></trkpt><trkpt lat="45.04797046540861" lon="8.333181714710133"><ele>257.0</ele><time>2026-04-26T15:19:14.967Z</time></trkpt><trkpt lat="45.04795317526519" lon="8.332949458381718"><ele>256.33333333333337</ele><time>2026-04-26T15:19:15.967Z</time></trkpt><trkpt lat="45.04793362923516" lon="8.332709035897972"><ele>255.66666666666669</ele><time>2026-04-26T15:19:16.967Z</time></trkpt><trkpt lat="45.047914208026576" lon="8.332471598124103"><ele>255.0</ele><time>2026-04-26T15:19:17.967Z</time></trkpt><trkpt lat="45.04789415176288" lon="8.332239635391037"><ele>254.33333333333331</ele><time>2026-04-26T15:19:18.967Z</time></trkpt><trkpt lat="45.04787359108517" lon="8.332011277439905"><ele>253.66666666666666</ele><time>2026-04-26T15:19:19.967Z</time></trkpt><trkpt lat="45.0478550327831" lon="8.331783137112206"><ele>253.0</ele><time>2026-04-26T15:19:20.967Z</time></trkpt><trkpt lat="45.047838209844926" lon="8.331560260623972"><ele>253.66666666666666</ele><time>2026-04-26T15:19:21.967Z</time></trkpt><trkpt lat="45.04782086728884" lon="8.33133176000532"><ele>254.33333333333331</ele><time>2026-04-26T15:19:22.967Z</time></trkpt><trkpt lat="45.04780296283268" lon="8.331095007228814"><ele>255.0</ele><time>2026-04-26T15:19:23.967Z</time></trkpt><trkpt lat="45.047784783159585" lon="8.330851536350899"><ele>255.0</ele><time>2026-04-26T15:19:24.967Z</time></trkpt><trkpt lat="45.04776104467232" lon="8.330601571860372"><ele>255.0</ele><time>2026-04-26T15:19:25.967Z</time></trkpt><trkpt lat="45.047735453421716" lon="8.330363587051822"><ele>255.0</ele><time>2026-04-26T15:19:26.967Z</time></trkpt><trkpt lat="45.04769981022702" lon="8.330122730200982"><ele>254.0</ele><time>2026-04-26T15:19:27.967Z</time></trkpt><trkpt lat="45.047637074561905" lon="8.329876922986609"><ele>253.0</ele><time>2026-04-26T15:19:28.967Z</time></trkpt><trkpt lat="45.04754600833803" lon="8.329640824300444"><ele>252.0</ele><time>2026-04-26T15:19:29.967Z</time></trkpt><trkpt lat="45.047425374893024" lon="8.329418547113988"><ele>252.0</ele><time>2026-04-26T15:19:30.967Z</time></trkpt><trkpt lat="45.047312300597675" lon="8.329180032431104"><ele>252.0</ele><time>2026-04-26T15:19:31.967Z</time></trkpt><trkpt lat="45.04717962594172" lon="8.328944406142998"><ele>252.0</ele><time>2026-04-26T15:19:32.967Z</time></trkpt><trkpt lat="45.047033843850826" lon="8.32872401814093"><ele>254.33333333333331</ele><time>2026-04-26T15:19:33.967Z</time></trkpt><trkpt lat="45.046911984058184" lon="8.328477271177222"><ele>256.66666666666663</ele><time>2026-04-26T15:19:34.967Z</time></trkpt><trkpt lat="45.046774777915196" lon="8.328247602573116"><ele>259.0</ele><time>2026-04-26T15:19:35.967Z</time></trkpt><trkpt lat="45.046640926142416" lon="8.328011992340736"><ele>260.66666666666663</ele><time>2026-04-26T15:19:36.967Z</time></trkpt><trkpt lat="45.046506728469055" lon="8.327776203400749"><ele>262.3333333333333</ele><time>2026-04-26T15:19:37.967Z</time></trkpt><trkpt lat="45.04637489451636" lon="8.327542722326584"><ele>264.0</ele><time>2026-04-26T15:19:38.967Z</time></trkpt><trkpt lat="45.04625253307611" lon="8.327326042961621"><ele>264.6666666666667</ele><time>2026-04-26T15:19:39.967Z</time></trkpt><trkpt lat="45.04614333223209" lon="8.327129635911783"><ele>265.33333333333337</ele><time>2026-04-26T15:19:40.967Z</time></trkpt><trkpt lat="45.0460421260814" lon="8.326954968420857"><ele>266.0</ele><time>2026-04-26T15:19:41.967Z</time></trkpt><trkpt lat="45.04595585828793" lon="8.326804729067119"><ele>266.0</ele><time>2026-04-26T15:19:42.967Z</time></trkpt><trkpt lat="45.045873086849916" lon="8.326649037062078"><ele>266.0</ele><time>2026-04-26T15:19:43.967Z</time></trkpt><trkpt lat="45.04580408269208" lon="8.326489777169254"><ele>266.0</ele><time>2026-04-26T15:19:44.967Z</time></trkpt><trkpt lat="45.04576063970249" lon="8.326317413795707"><ele>266.0</ele><time>2026-04-26T15:19:45.967Z</time></trkpt><trkpt lat="45.04576258410529" lon="8.326136042819876"><ele>265.25</ele><time>2026-04-26T15:19:46.967Z</time></trkpt><trkpt lat="45.04578694985308" lon="8.325970154616934"><ele>264.5</ele><time>2026-04-26T15:19:47.967Z</time></trkpt><trkpt lat="45.04584079328145" lon="8.325802747332633"><ele>263.75</ele><time>2026-04-26T15:19:48.967Z</time></trkpt><trkpt lat="45.04592434258616" lon="8.325641875158562"><ele>263.0</ele><time>2026-04-26T15:19:49.967Z</time></trkpt><trkpt lat="45.046030198614616" lon="8.32549675410961"><ele>260.75</ele><time>2026-04-26T15:19:50.967Z</time></trkpt><trkpt lat="45.046131762755216" lon="8.325362027403397"><ele>258.5</ele><time>2026-04-26T15:19:51.967Z</time></trkpt><trkpt lat="45.046214215138285" lon="8.325225888091213"><ele>256.25</ele><time>2026-04-26T15:19:52.967Z</time></trkpt><trkpt lat="45.04626579861399" lon="8.325070006889334"><ele>254.0</ele><time>2026-04-26T15:19:53.967Z</time></trkpt><trkpt lat="45.04625600157042" lon="8.324895898241593"><ele>252.33333333333334</ele><time>2026-04-26T15:19:54.967Z</time></trkpt><trkpt lat="45.046234023573156" lon="8.324710217234072"><ele>250.66666666666669</ele><time>2026-04-26T15:19:55.967Z</time></trkpt><trkpt lat="45.046188102633245" lon="8.32449924936858"><ele>249.0</ele><time>2026-04-26T15:19:56.967Z</time></trkpt><trkpt lat="45.046135641201666" lon="8.324274263510043"><ele>249.0</ele><time>2026-04-26T15:19:57.967Z</time></trkpt><trkpt lat="45.04608450592909" lon="8.324063514731936"><ele>249.0</ele><time>2026-04-26T15:19:58.967Z</time></trkpt><trkpt lat="45.046050669514834" lon="8.323840248185775"><ele>249.0</ele><time>2026-04-26T15:19:59.967Z</time></trkpt><trkpt lat="45.0460047616123" lon="8.323629453411394"><ele>248.5</ele><time>2026-04-26T15:20:00.967Z</time></trkpt><trkpt lat="45.04595228805995" lon="8.323431966613649"><ele>248.0</ele><time>2026-04-26T15:20:01.967Z</time></trkpt><trkpt lat="45.045934229248616" lon="8.32323220032205"><ele>247.5</ele><time>2026-04-26T15:20:02.967Z</time></trkpt><trkpt lat="45.04595872604477" lon="8.323045354786624"><ele>247.0</ele><time>2026-04-26T15:20:03.967Z</time></trkpt><trkpt lat="45.046003363743125" lon="8.322853213466443"><ele>246.0</ele><time>2026-04-26T15:20:04.967Z</time></trkpt><trkpt lat="45.046071717940904" lon="8.322641231433042"><ele>245.0</ele><time>2026-04-26T15:20:05.967Z</time></trkpt><trkpt lat="45.046157926376345" lon="8.322409168035591"><ele>244.0</ele><time>2026-04-26T15:20:06.967Z</time></trkpt><trkpt lat="45.04623173942872" lon="8.322153898315632"><ele>242.0</ele><time>2026-04-26T15:20:07.967Z</time></trkpt><trkpt lat="45.04633503156032" lon="8.321919193404062"><ele>240.0</ele><time>2026-04-26T15:20:08.967Z</time></trkpt><trkpt lat="45.04641654555724" lon="8.32169451175624"><ele>238.0</ele><time>2026-04-26T15:20:09.967Z</time></trkpt><trkpt lat="45.04648091797104" lon="8.321460592126732"><ele>237.0</ele><time>2026-04-26T15:20:10.967Z</time></trkpt><trkpt lat="45.04651406459589" lon="8.321229081683795"><ele>236.0</ele><time>2026-04-26T15:20:11.967Z</time></trkpt><trkpt lat="45.046531297062266" lon="8.320997162763549"><ele>235.0</ele><time>2026-04-26T15:20:12.967Z</time></trkpt><trkpt lat="45.0465460119348" lon="8.320777585358192"><ele>235.0</ele><time>2026-04-26T15:20:13.967Z</time></trkpt><trkpt lat="45.046560142654094" lon="8.320581109059"><ele>235.0</ele><time>2026-04-26T15:20:14.967Z</time></trkpt><trkpt lat="45.046561684536876" lon="8.320409472582936"><ele>235.0</ele><time>2026-04-26T15:20:15.967Z</time></trkpt><trkpt lat="45.046533793525086" lon="8.320241752728158"><ele>235.0</ele><time>2026-04-26T15:20:16.967Z</time></trkpt><trkpt lat="45.046453348687535" lon="8.320101102740816"><ele>237.75</ele><time>2026-04-26T15:20:17.967Z</time></trkpt><trkpt lat="45.04634612055833" lon="8.320008162546209"><ele>240.5</ele><time>2026-04-26T15:20:18.967Z</time></trkpt><trkpt lat="45.046240513519436" lon="8.319998791706016"><ele>243.25</ele><time>2026-04-26T15:20:19.967Z</time></trkpt><trkpt lat="45.04613679470674" lon="8.320025061061934"><ele>246.0</ele><time>2026-04-26T15:20:20.967Z</time></trkpt><trkpt lat="45.04601506974316" lon="8.320107599046057"><ele>246.0</ele><time>2026-04-26T15:20:21.967Z</time></trkpt><trkpt lat="45.04587543189477" lon="8.320194764715488"><ele>246.0</ele><time>2026-04-26T15:20:22.967Z</time></trkpt><trkpt lat="45.04571638788833" lon="8.320253431828469"><ele>246.0</ele><time>2026-04-26T15:20:23.967Z</time></trkpt><trkpt lat="45.04554866018192" lon="8.320286108011636"><ele>246.33333333333331</ele><time>2026-04-26T15:20:24.967Z</time></trkpt><trkpt lat="45.04538269965554" lon="8.320307502327626"><ele>246.66666666666666</ele><time>2026-04-26T15:20:25.968Z</time></trkpt><trkpt lat="45.0452277380444" lon="8.32032477737777"><ele>247.0</ele><time>2026-04-26T15:20:26.967Z</time></trkpt><trkpt lat="45.045084930676104" lon="8.320342464069629"><ele>247.0</ele><time>2026-04-26T15:20:27.967Z</time></trkpt><trkpt lat="45.04494632095515" lon="8.320310487221365"><ele>247.0</ele><time>2026-04-26T15:20:28.967Z</time></trkpt><trkpt lat="45.044799946241575" lon="8.320293716923741"><ele>247.0</ele><time>2026-04-26T15:20:29.968Z</time></trkpt><trkpt lat="45.04465932962301" lon="8.320220503364828"><ele>247.0</ele><time>2026-04-26T15:20:30.968Z</time></trkpt><trkpt lat="45.044531945221685" lon="8.320126200347186"><ele>247.0</ele><time>2026-04-26T15:20:31.967Z</time></trkpt><trkpt lat="45.044423293417815" lon="8.320015379400058"><ele>247.0</ele><time>2026-04-26T15:20:32.968Z</time></trkpt><trkpt lat="45.04433625300442" lon="8.319899574422648"><ele>247.0</ele><time>2026-04-26T15:20:33.968Z</time></trkpt><trkpt lat="45.04428031195582" lon="8.319777786972487"><ele>247.0</ele><time>2026-04-26T15:20:34.968Z</time></trkpt><trkpt lat="45.04424904183393" lon="8.319654118218919"><ele>247.0</ele><time>2026-04-26T15:20:35.967Z</time></trkpt><trkpt lat="45.04423698549532" lon="8.319535033607346"><ele>246.75</ele><time>2026-04-26T15:20:36.967Z</time></trkpt><trkpt lat="45.04423818589559" lon="8.319413671497475"><ele>246.5</ele><time>2026-04-26T15:20:37.968Z</time></trkpt><trkpt lat="45.04426888759948" lon="8.31927164868681"><ele>246.25</ele><time>2026-04-26T15:20:38.968Z</time></trkpt><trkpt lat="45.0442980712374" lon="8.319098467940911"><ele>246.0</ele><time>2026-04-26T15:20:39.968Z</time></trkpt><trkpt lat="45.04433635868986" lon="8.318904692521196"><ele>244.33333333333331</ele><time>2026-04-26T15:20:40.968Z</time></trkpt><trkpt lat="45.04436646336292" lon="8.318682393531658"><ele>242.66666666666666</ele><time>2026-04-26T15:20:41.968Z</time></trkpt><trkpt lat="45.04442552509492" lon="8.31845749385945"><ele>241.0</ele><time>2026-04-26T15:20:42.968Z</time></trkpt><trkpt lat="45.04448111285526" lon="8.318225968968516"><ele>239.33333333333331</ele><time>2026-04-26T15:20:43.968Z</time></trkpt><trkpt lat="45.04453363405605" lon="8.318000605846994"><ele>237.66666666666669</ele><time>2026-04-26T15:20:44.968Z</time></trkpt><trkpt lat="45.04458850731299" lon="8.317777294276787"><ele>236.0</ele><time>2026-04-26T15:20:45.968Z</time></trkpt><trkpt lat="45.04464489406307" lon="8.317544776642283"><ele>236.0</ele><time>2026-04-26T15:20:46.968Z</time></trkpt><trkpt lat="45.04470133521303" lon="8.317303601827112"><ele>236.0</ele><time>2026-04-26T15:20:47.968Z</time></trkpt><trkpt lat="45.04475626675476" lon="8.317056895698764"><ele>236.0</ele><time>2026-04-26T15:20:48.968Z</time></trkpt><trkpt lat="45.044812515479634" lon="8.316806323822554"><ele>235.33333333333334</ele><time>2026-04-26T15:20:49.968Z</time></trkpt><trkpt lat="45.0448728534674" lon="8.316558780280719"><ele>234.66666666666669</ele><time>2026-04-26T15:20:50.968Z</time></trkpt><trkpt lat="45.0449289789074" lon="8.316313813384662"><ele>234.0</ele><time>2026-04-26T15:20:51.968Z</time></trkpt><trkpt lat="45.04498155661268" lon="8.316071355215152"><ele>234.0</ele><time>2026-04-26T15:20:52.968Z</time></trkpt><trkpt lat="45.04503307587545" lon="8.31583689898169"><ele>234.0</ele><time>2026-04-26T15:20:53.968Z</time></trkpt><trkpt lat="45.0450824922248" lon="8.315610205387296"><ele>234.0</ele><time>2026-04-26T15:20:54.968Z</time></trkpt><trkpt lat="45.045130126202444" lon="8.315394008650433"><ele>233.5</ele><time>2026-04-26T15:20:55.968Z</time></trkpt><trkpt lat="45.045177260013084" lon="8.31518682434765"><ele>233.0</ele><time>2026-04-26T15:20:56.968Z</time></trkpt><trkpt lat="45.045232869483826" lon="8.314997879355948"><ele>232.5</ele><time>2026-04-26T15:20:57.968Z</time></trkpt><trkpt lat="45.04525759224089" lon="8.31479703272802"><ele>232.0</ele><time>2026-04-26T15:20:58.968Z</time></trkpt><trkpt lat="45.045252663106844" lon="8.314603289844214"><ele>232.0</ele><time>2026-04-26T15:20:59.968Z</time></trkpt><trkpt lat="45.045220674694285" lon="8.314406992364077"><ele>232.0</ele><time>2026-04-26T15:21:00.968Z</time></trkpt><trkpt lat="45.04516703578882" lon="8.314204068436224"><ele>232.0</ele><time>2026-04-26T15:21:01.967Z</time></trkpt><trkpt lat="45.04510029577218" lon="8.314007846945035"><ele>232.0</ele><time>2026-04-26T15:21:02.967Z</time></trkpt><trkpt lat="45.04503713359716" lon="8.313814508774328"><ele>232.0</ele><time>2026-04-26T15:21:03.967Z</time></trkpt><trkpt lat="45.044981596233384" lon="8.313648367795885"><ele>232.0</ele><time>2026-04-26T15:21:04.967Z</time></trkpt><trkpt lat="45.04491433860945" lon="8.313511918377177"><ele>232.0</ele><time>2026-04-26T15:21:05.967Z</time></trkpt><trkpt lat="45.0448301383457" lon="8.31339864737374"><ele>232.0</ele><time>2026-04-26T15:21:06.967Z</time></trkpt><trkpt lat="45.044734231771294" lon="8.313331659051089"><ele>233.6</ele><time>2026-04-26T15:21:07.967Z</time></trkpt><trkpt lat="45.04463225809479" lon="8.313312747016411"><ele>235.2</ele><time>2026-04-26T15:21:08.967Z</time></trkpt><trkpt lat="45.04452607106937" lon="8.313332809967166"><ele>236.8</ele><time>2026-04-26T15:21:09.967Z</time></trkpt><trkpt lat="45.04441280144535" lon="8.313376548527922"><ele>238.4</ele><time>2026-04-26T15:21:10.967Z</time></trkpt><trkpt lat="45.04429737678985" lon="8.313406377700383"><ele>240.0</ele><time>2026-04-26T15:21:11.967Z</time></trkpt><trkpt lat="45.04420957741353" lon="8.31345221486947"><ele>240.0</ele><time>2026-04-26T15:21:12.967Z</time></trkpt><trkpt lat="45.04413404940273" lon="8.313467385992178"><ele>240.0</ele><time>2026-04-26T15:21:13.967Z</time></trkpt><trkpt lat="45.04405524020653" lon="8.313501810616442"><ele>240.0</ele><time>2026-04-26T15:21:15.967Z</time></trkpt><trkpt lat="45.04399229033728" lon="8.313345333265172"><ele>240.0</ele><time>2026-04-26T15:21:16.967Z</time></trkpt><trkpt lat="45.04397317480832" lon="8.31324401145609"><ele>240.0</ele><time>2026-04-26T15:21:17.967Z</time></trkpt><trkpt lat="45.04398854444974" lon="8.31311335553647"><ele>242.0</ele><time>2026-04-26T15:21:18.967Z</time></trkpt><trkpt lat="45.04406453142721" lon="8.313000039018398"><ele>244.0</ele><time>2026-04-26T15:21:19.967Z</time></trkpt><trkpt lat="45.044139323658165" lon="8.31285690069978"><ele>246.0</ele><time>2026-04-26T15:21:20.967Z</time></trkpt><trkpt lat="45.044227152788466" lon="8.312695616995256"><ele>248.0</ele><time>2026-04-26T15:21:21.967Z</time></trkpt><trkpt lat="45.04430916699603" lon="8.312542163206887"><ele>248.0</ele><time>2026-04-26T15:21:22.967Z</time></trkpt><trkpt lat="45.044374747859784" lon="8.312376734459269"><ele>248.0</ele><time>2026-04-26T15:21:23.967Z</time></trkpt><trkpt lat="45.04444963178857" lon="8.3122106686696"><ele>248.0</ele><time>2026-04-26T15:21:24.967Z</time></trkpt><trkpt lat="45.04450572012705" lon="8.31202542101716"><ele>248.0</ele><time>2026-04-26T15:21:25.967Z</time></trkpt><trkpt lat="45.04454963340935" lon="8.311824473051196"><ele>251.0</ele><time>2026-04-26T15:21:26.967Z</time></trkpt><trkpt lat="45.04459958134212" lon="8.311613494713407"><ele>254.0</ele><time>2026-04-26T15:21:27.967Z</time></trkpt><trkpt lat="45.04465256543666" lon="8.311396750190863"><ele>257.0</ele><time>2026-04-26T15:21:28.967Z</time></trkpt><trkpt lat="45.04470521638444" lon="8.311174406948773"><ele>260.33333333333337</ele><time>2026-04-26T15:21:29.967Z</time></trkpt><trkpt lat="45.04476375301117" lon="8.310954929395754"><ele>263.6666666666667</ele><time>2026-04-26T15:21:30.967Z</time></trkpt><trkpt lat="45.04483380967099" lon="8.310733645101067"><ele>267.0</ele><time>2026-04-26T15:21:31.967Z</time></trkpt><trkpt lat="45.04490668062219" lon="8.310507318686124"><ele>265.6666666666667</ele><time>2026-04-26T15:21:32.967Z</time></trkpt><trkpt lat="45.044979080041166" lon="8.310294028394932"><ele>264.33333333333337</ele><time>2026-04-26T15:21:33.967Z</time></trkpt><trkpt lat="45.045044166636764" lon="8.310096660687975"><ele>263.0</ele><time>2026-04-26T15:21:34.967Z</time></trkpt><trkpt lat="45.04510923056622" lon="8.309889471030772"><ele>265.33333333333337</ele><time>2026-04-26T15:21:35.967Z</time></trkpt><trkpt lat="45.04517827061442" lon="8.309680340752504"><ele>267.6666666666667</ele><time>2026-04-26T15:21:36.967Z</time></trkpt><trkpt lat="45.0452619035122" lon="8.309484146639015"><ele>270.0</ele><time>2026-04-26T15:21:37.967Z</time></trkpt><trkpt lat="45.04532944744048" lon="8.309280968179877"><ele>270.0</ele><time>2026-04-26T15:21:38.967Z</time></trkpt><trkpt lat="45.04537737183082" lon="8.30908857307725"><ele>270.0</ele><time>2026-04-26T15:21:39.967Z</time></trkpt><trkpt lat="45.04544345522945" lon="8.308931155092873"><ele>270.0</ele><time>2026-04-26T15:21:40.967Z</time></trkpt><trkpt lat="45.04548171087236" lon="8.308755688871543"><ele>270.0</ele><time>2026-04-26T15:21:41.967Z</time></trkpt><trkpt lat="45.04547922281764" lon="8.30857018333069"><ele>271.0</ele><time>2026-04-26T15:21:42.967Z</time></trkpt><trkpt lat="45.04546603261288" lon="8.308394069061364"><ele>272.0</ele><time>2026-04-26T15:21:43.967Z</time></trkpt><trkpt lat="45.04543606069334" lon="8.308262036569255"><ele>273.0</ele><time>2026-04-26T15:21:44.967Z</time></trkpt><trkpt lat="45.04542359272784" lon="8.308152387543768"><ele>274.0</ele><time>2026-04-26T15:21:45.967Z</time></trkpt><trkpt lat="45.04538588051065" lon="8.30807321226125"><ele>275.0</ele><time>2026-04-26T15:21:46.967Z</time></trkpt><trkpt lat="45.04537110791236" lon="8.307969866232572"><ele>276.0</ele><time>2026-04-26T15:21:47.967Z</time></trkpt><trkpt lat="45.045369397853214" lon="8.307835628570077"><ele>277.5</ele><time>2026-04-26T15:21:48.967Z</time></trkpt><trkpt lat="45.045407325390734" lon="8.307684700610986"><ele>279.0</ele><time>2026-04-26T15:21:49.967Z</time></trkpt><trkpt lat="45.04543625541631" lon="8.307506005317617"><ele>280.5</ele><time>2026-04-26T15:21:50.967Z</time></trkpt><trkpt lat="45.04546805893521" lon="8.30731467968279"><ele>282.0</ele><time>2026-04-26T15:21:51.967Z</time></trkpt><trkpt lat="45.045502391188926" lon="8.307091675540796"><ele>282.25</ele><time>2026-04-26T15:21:52.967Z</time></trkpt><trkpt lat="45.04553516748911" lon="8.306880242785354"><ele>282.5</ele><time>2026-04-26T15:21:53.967Z</time></trkpt><trkpt lat="45.045564922863" lon="8.306683908316405"><ele>282.75</ele><time>2026-04-26T15:21:54.967Z</time></trkpt><trkpt lat="45.045595601754584" lon="8.306490927605136"><ele>283.0</ele><time>2026-04-26T15:21:55.967Z</time></trkpt><trkpt lat="45.045629715386475" lon="8.306305598291857"><ele>283.0</ele><time>2026-04-26T15:21:56.967Z</time></trkpt><trkpt lat="45.04566849315675" lon="8.306129865451195"><ele>283.0</ele><time>2026-04-26T15:21:57.967Z</time></trkpt><trkpt lat="45.04571357114269" lon="8.305960067741132"><ele>283.0</ele><time>2026-04-26T15:21:58.967Z</time></trkpt><trkpt lat="45.0457644982816" lon="8.305794718467798"><ele>283.0</ele><time>2026-04-26T15:21:59.967Z</time></trkpt><trkpt lat="45.045822047929356" lon="8.305631713719896"><ele>280.5</ele><time>2026-04-26T15:22:00.967Z</time></trkpt><trkpt lat="45.04588801793245" lon="8.305461982813558"><ele>278.0</ele><time>2026-04-26T15:22:01.967Z</time></trkpt><trkpt lat="45.045960824935605" lon="8.305283586489917"><ele>275.5</ele><time>2026-04-26T15:22:02.967Z</time></trkpt><trkpt lat="45.046036209597354" lon="8.305110387408874"><ele>273.0</ele><time>2026-04-26T15:22:03.967Z</time></trkpt><trkpt lat="45.04611503252227" lon="8.304934175622268"><ele>273.0</ele><time>2026-04-26T15:22:04.967Z</time></trkpt><trkpt lat="45.046191565577026" lon="8.304754983917341"><ele>273.0</ele><time>2026-04-26T15:22:05.967Z</time></trkpt><trkpt lat="45.04626678488864" lon="8.304575970263175"><ele>273.0</ele><time>2026-04-26T15:22:06.967Z</time></trkpt><trkpt lat="45.046356035231426" lon="8.304411799563693"><ele>273.0</ele><time>2026-04-26T15:22:07.967Z</time></trkpt><trkpt lat="45.04641464018541" lon="8.304231991302657"><ele>271.5</ele><time>2026-04-26T15:22:08.967Z</time></trkpt><trkpt lat="45.04649894636943" lon="8.304081681319659"><ele>270.0</ele><time>2026-04-26T15:22:09.967Z</time></trkpt><trkpt lat="45.04656910158043" lon="8.30391962604558"><ele>268.5</ele><time>2026-04-26T15:22:10.967Z</time></trkpt><trkpt lat="45.04663895286148" lon="8.303758272750148"><ele>267.0</ele><time>2026-04-26T15:22:11.886Z</time></trkpt><trkpt lat="45.04670901408061" lon="8.303596434549185"><ele>265.75</ele><time>2026-04-26T15:22:12.886Z</time></trkpt><trkpt lat="45.046780631970016" lon="8.303429100396198"><ele>264.5</ele><time>2026-04-26T15:22:13.886Z</time></trkpt><trkpt lat="45.04683161829514" lon="8.303245590012972"><ele>263.25</ele><time>2026-04-26T15:22:14.886Z</time></trkpt><trkpt lat="45.0468893777147" lon="8.303072877085897"><ele>262.0</ele><time>2026-04-26T15:22:15.886Z</time></trkpt><trkpt lat="45.04693823001655" lon="8.30289536063652"><ele>261.25</ele><time>2026-04-26T15:22:16.886Z</time></trkpt><trkpt lat="45.04697723392955" lon="8.302703385489563"><ele>260.5</ele><time>2026-04-26T15:22:17.886Z</time></trkpt><trkpt lat="45.04702890348054" lon="8.302517910948035"><ele>259.75</ele><time>2026-04-26T15:22:18.886Z</time></trkpt><trkpt lat="45.04704745684899" lon="8.30232489707339"><ele>259.0</ele><time>2026-04-26T15:22:19.885Z</time></trkpt><trkpt lat="45.04709340897103" lon="8.30215440859257"><ele>259.0</ele><time>2026-04-26T15:22:20.885Z</time></trkpt><trkpt lat="45.04712813608902" lon="8.301987567729674"><ele>259.0</ele><time>2026-04-26T15:22:21.885Z</time></trkpt><trkpt lat="45.04716293335531" lon="8.30182554626926"><ele>259.0</ele><time>2026-04-26T15:22:22.885Z</time></trkpt><trkpt lat="45.04719416726777" lon="8.301667002084283"><ele>259.0</ele><time>2026-04-26T15:22:23.885Z</time></trkpt><trkpt lat="45.04722168345439" lon="8.301512578872181"><ele>258.8</ele><time>2026-04-26T15:22:24.885Z</time></trkpt><trkpt lat="45.04724740708534" lon="8.301361491864837"><ele>258.59999999999997</ele><time>2026-04-26T15:22:25.885Z</time></trkpt><trkpt lat="45.04727167169844" lon="8.301211773575456"><ele>258.4</ele><time>2026-04-26T15:22:26.885Z</time></trkpt><trkpt lat="45.047301156991686" lon="8.301067502856997"><ele>258.2</ele><time>2026-04-26T15:22:27.885Z</time></trkpt><trkpt lat="45.04733279254929" lon="8.300918318087222"><ele>258.0</ele><time>2026-04-26T15:22:28.885Z</time></trkpt><trkpt lat="45.04735934383216" lon="8.300778634517481"><ele>258.0</ele><time>2026-04-26T15:22:29.885Z</time></trkpt><trkpt lat="45.047377981887024" lon="8.300630371678825"><ele>258.0</ele><time>2026-04-26T15:22:30.885Z</time></trkpt><trkpt lat="45.04738453653848" lon="8.30047159519448"><ele>258.0</ele><time>2026-04-26T15:22:31.886Z</time></trkpt><trkpt lat="45.0473743976117" lon="8.300302887184198"><ele>258.0</ele><time>2026-04-26T15:22:32.886Z</time></trkpt><trkpt lat="45.047343266709525" lon="8.300133283986435"><ele>258.75</ele><time>2026-04-26T15:22:33.886Z</time></trkpt><trkpt lat="45.047284791610025" lon="8.299958793140492"><ele>259.5</ele><time>2026-04-26T15:22:34.886Z</time></trkpt><trkpt lat="45.047203412750044" lon="8.299789699926546"><ele>260.25</ele><time>2026-04-26T15:22:35.887Z</time></trkpt><trkpt lat="45.04710824668914" lon="8.299610558143437"><ele>261.0</ele><time>2026-04-26T15:22:36.887Z</time></trkpt><trkpt lat="45.04701845121269" lon="8.299412028564273"><ele>263.0</ele><time>2026-04-26T15:22:37.886Z</time></trkpt><trkpt lat="45.04691153057592" lon="8.29920825488501"><ele>265.0</ele><time>2026-04-26T15:22:38.887Z</time></trkpt><trkpt lat="45.04678599044709" lon="8.29900415648981"><ele>267.0</ele><time>2026-04-26T15:22:39.886Z</time></trkpt><trkpt lat="45.046671270727884" lon="8.29877218806954"><ele>272.0</ele><time>2026-04-26T15:22:40.886Z</time></trkpt><trkpt lat="45.046557502658864" lon="8.298521318016723"><ele>277.0</ele><time>2026-04-26T15:22:41.886Z</time></trkpt><trkpt lat="45.04645343887052" lon="8.298244035159634"><ele>282.0</ele><time>2026-04-26T15:22:42.886Z</time></trkpt><trkpt lat="45.04636183585299" lon="8.297921575747418"><ele>282.0</ele><time>2026-04-26T15:22:43.886Z</time></trkpt><trkpt lat="45.04627853341827" lon="8.297572813648005"><ele>282.0</ele><time>2026-04-26T15:22:44.886Z</time></trkpt><trkpt lat="45.04619880124802" lon="8.29724239564304"><ele>280.3333333333333</ele><time>2026-04-26T15:22:45.886Z</time></trkpt><trkpt lat="45.046141890940106" lon="8.296929064392481"><ele>278.66666666666663</ele><time>2026-04-26T15:22:46.886Z</time></trkpt><trkpt lat="45.046074100988605" lon="8.296643500028882"><ele>277.0</ele><time>2026-04-26T15:22:47.886Z</time></trkpt><trkpt lat="45.046010352405595" lon="8.296374959424126"><ele>275.3333333333333</ele><time>2026-04-26T15:22:48.886Z</time></trkpt><trkpt lat="45.04595144031332" lon="8.29612679313501"><ele>273.6666666666667</ele><time>2026-04-26T15:22:49.886Z</time></trkpt><trkpt lat="45.04589788793172" lon="8.295897739214563"><ele>272.0</ele><time>2026-04-26T15:22:50.886Z</time></trkpt><trkpt lat="45.04585036088339" lon="8.29569257549173"><ele>268.6666666666667</ele><time>2026-04-26T15:22:51.886Z</time></trkpt><trkpt lat="45.04578293700714" lon="8.295488869729372"><ele>265.3333333333333</ele><time>2026-04-26T15:22:52.886Z</time></trkpt><trkpt lat="45.045739277185724" lon="8.295251225771343"><ele>262.0</ele><time>2026-04-26T15:22:53.886Z</time></trkpt><trkpt lat="45.04567331784474" lon="8.294978055486855"><ele>262.66666666666663</ele><time>2026-04-26T15:22:54.886Z</time></trkpt><trkpt lat="45.04560338265499" lon="8.294700263700339"><ele>263.3333333333333</ele><time>2026-04-26T15:22:55.886Z</time></trkpt><trkpt lat="45.04553601288494" lon="8.294404096144742"><ele>264.0</ele><time>2026-04-26T15:22:56.886Z</time></trkpt><trkpt lat="45.04548200937092" lon="8.294110866076725"><ele>264.3333333333333</ele><time>2026-04-26T15:22:57.886Z</time></trkpt><trkpt lat="45.045418778232886" lon="8.293833071981087"><ele>264.66666666666663</ele><time>2026-04-26T15:22:58.886Z</time></trkpt><trkpt lat="45.04533345095321" lon="8.293568638372445"><ele>265.0</ele><time>2026-04-26T15:22:59.886Z</time></trkpt><trkpt lat="45.045258930178036" lon="8.293298602469001"><ele>266.3333333333333</ele><time>2026-04-26T15:23:00.886Z</time></trkpt><trkpt lat="45.045193648992615" lon="8.293041872886349"><ele>267.6666666666667</ele><time>2026-04-26T15:23:01.886Z</time></trkpt><trkpt lat="45.04511122390498" lon="8.29277890720661"><ele>269.0</ele><time>2026-04-26T15:23:02.886Z</time></trkpt><trkpt lat="45.04503677751146" lon="8.29252424180808"><ele>270.0</ele><time>2026-04-26T15:23:03.886Z</time></trkpt><trkpt lat="45.04496129212271" lon="8.292274832041866"><ele>271.0</ele><time>2026-04-26T15:23:04.886Z</time></trkpt><trkpt lat="45.04488981904726" lon="8.292045958871679"><ele>272.0</ele><time>2026-04-26T15:23:05.886Z</time></trkpt><trkpt lat="45.04482405811219" lon="8.29183656054924"><ele>272.0</ele><time>2026-04-26T15:23:06.886Z</time></trkpt><trkpt lat="45.04476768020035" lon="8.291634741364549"><ele>272.0</ele><time>2026-04-26T15:23:07.885Z</time></trkpt><trkpt lat="45.04471798959886" lon="8.291439469307194"><ele>272.0</ele><time>2026-04-26T15:23:08.885Z</time></trkpt><trkpt lat="45.04467190411995" lon="8.29124775686862"><ele>272.0</ele><time>2026-04-26T15:23:09.885Z</time></trkpt><trkpt lat="45.04463288299593" lon="8.291046876083007"><ele>271.0</ele><time>2026-04-26T15:23:10.885Z</time></trkpt><trkpt lat="45.04461104455604" lon="8.290838843569121"><ele>270.0</ele><time>2026-04-26T15:23:11.885Z</time></trkpt><trkpt lat="45.04460441877562" lon="8.290623220098025"><ele>269.0</ele><time>2026-04-26T15:23:12.885Z</time></trkpt><trkpt lat="45.044616163482395" lon="8.290403250655439"><ele>269.0</ele><time>2026-04-26T15:23:13.885Z</time></trkpt><trkpt lat="45.04464704200605" lon="8.290175243833856"><ele>269.0</ele><time>2026-04-26T15:23:14.885Z</time></trkpt><trkpt lat="45.04468810209122" lon="8.289935843935362"><ele>269.0</ele><time>2026-04-26T15:23:15.885Z</time></trkpt><trkpt lat="45.04474933837575" lon="8.289694279825376"><ele>268.0</ele><time>2026-04-26T15:23:16.885Z</time></trkpt><trkpt lat="45.04479931947878" lon="8.289438313456415"><ele>267.0</ele><time>2026-04-26T15:23:17.885Z</time></trkpt><trkpt lat="45.04484985620203" lon="8.289179501564867"><ele>266.0</ele><time>2026-04-26T15:23:18.885Z</time></trkpt><trkpt lat="45.044878694212244" lon="8.288923200558623"><ele>268.33333333333337</ele><time>2026-04-26T15:23:19.885Z</time></trkpt><trkpt lat="45.044917966190795" lon="8.288686666018142"><ele>270.6666666666667</ele><time>2026-04-26T15:23:20.885Z</time></trkpt><trkpt lat="45.04494952938276" lon="8.288456445372603"><ele>273.0</ele><time>2026-04-26T15:23:21.885Z</time></trkpt><trkpt lat="45.04496537135157" lon="8.288241658962223"><ele>272.5</ele><time>2026-04-26T15:23:22.885Z</time></trkpt><trkpt lat="45.04496788408227" lon="8.288041673846749"><ele>272.0</ele><time>2026-04-26T15:23:23.885Z</time></trkpt><trkpt lat="45.044956825763165" lon="8.287850758194026"><ele>271.5</ele><time>2026-04-26T15:23:24.885Z</time></trkpt><trkpt lat="45.0449255626995" lon="8.287658194378615"><ele>271.0</ele><time>2026-04-26T15:23:25.885Z</time></trkpt><trkpt lat="45.04487680478107" lon="8.28747104163076"><ele>274.0</ele><time>2026-04-26T15:23:26.885Z</time></trkpt><trkpt lat="45.04481048014176" lon="8.287289420786028"><ele>277.0</ele><time>2026-04-26T15:23:27.885Z</time></trkpt><trkpt lat="45.04474348810744" lon="8.287104401865273"><ele>280.0</ele><time>2026-04-26T15:23:28.885Z</time></trkpt><trkpt lat="45.04468514193645" lon="8.286914455556708"><ele>283.0</ele><time>2026-04-26T15:23:29.885Z</time></trkpt><trkpt lat="45.04463533532822" lon="8.286727734963538"><ele>283.0</ele><time>2026-04-26T15:23:30.885Z</time></trkpt><trkpt lat="45.04459513643517" lon="8.286541780884756"><ele>283.0</ele><time>2026-04-26T15:23:31.885Z</time></trkpt><trkpt lat="45.044568215500846" lon="8.286350368514203"><ele>283.0</ele><time>2026-04-26T15:23:32.885Z</time></trkpt><trkpt lat="45.04455986234053" lon="8.286153833419064"><ele>283.0</ele><time>2026-04-26T15:23:33.885Z</time></trkpt><trkpt lat="45.044565808132" lon="8.285951076814621"><ele>281.66666666666663</ele><time>2026-04-26T15:23:34.885Z</time></trkpt><trkpt lat="45.04457068517753" lon="8.285738338673568"><ele>280.3333333333333</ele><time>2026-04-26T15:23:35.885Z</time></trkpt><trkpt lat="45.04456258301788" lon="8.285510936630175"><ele>279.0</ele><time>2026-04-26T15:23:36.885Z</time></trkpt><trkpt lat="45.04454255018355" lon="8.285281888927669"><ele>278.6666666666667</ele><time>2026-04-26T15:23:37.885Z</time></trkpt><trkpt lat="45.044536755491876" lon="8.285048095599826"><ele>278.33333333333337</ele><time>2026-04-26T15:23:38.885Z</time></trkpt><trkpt lat="45.044530801585566" lon="8.28481312193317"><ele>278.0</ele><time>2026-04-26T15:23:39.885Z</time></trkpt><trkpt lat="45.044528411322034" lon="8.284568352303575"><ele>277.6666666666667</ele><time>2026-04-26T15:23:40.885Z</time></trkpt><trkpt lat="45.044528441592895" lon="8.284321645226603"><ele>277.3333333333333</ele><time>2026-04-26T15:23:41.884Z</time></trkpt><trkpt lat="45.044525117832194" lon="8.284068385339898"><ele>277.0</ele><time>2026-04-26T15:23:42.884Z</time></trkpt><trkpt lat="45.044525739774635" lon="8.283808871004934"><ele>276.0</ele><time>2026-04-26T15:23:43.884Z</time></trkpt><trkpt lat="45.04452815194368" lon="8.283540354919392"><ele>275.0</ele><time>2026-04-26T15:23:44.884Z</time></trkpt><trkpt lat="45.0445387730157" lon="8.283270631033998"><ele>274.0</ele><time>2026-04-26T15:23:45.884Z</time></trkpt><trkpt lat="45.044554427884314" lon="8.28300478696866"><ele>274.0</ele><time>2026-04-26T15:23:46.884Z</time></trkpt><trkpt lat="45.044571253187335" lon="8.282752734559846"><ele>274.0</ele><time>2026-04-26T15:23:47.884Z</time></trkpt><trkpt lat="45.04459680781725" lon="8.282514210617913"><ele>274.0</ele><time>2026-04-26T15:23:48.884Z</time></trkpt><trkpt lat="45.04457788264139" lon="8.282282902460882"><ele>276.0</ele><time>2026-04-26T15:23:49.884Z</time></trkpt><trkpt lat="45.04455875396536" lon="8.282056998252443"><ele>278.0</ele><time>2026-04-26T15:23:50.884Z</time></trkpt><trkpt lat="45.04454673442449" lon="8.281840448855707"><ele>280.0</ele><time>2026-04-26T15:23:51.884Z</time></trkpt><trkpt lat="45.044523533325126" lon="8.281625726076395"><ele>282.5</ele><time>2026-04-26T15:23:52.884Z</time></trkpt><trkpt lat="45.04450787471171" lon="8.281426999245694"><ele>285.0</ele><time>2026-04-26T15:23:53.884Z</time></trkpt><trkpt lat="45.04451041183387" lon="8.281246022347853"><ele>287.5</ele><time>2026-04-26T15:23:54.884Z</time></trkpt><trkpt lat="45.044531718337794" lon="8.28107360352207"><ele>290.0</ele><time>2026-04-26T15:23:55.884Z</time></trkpt><trkpt lat="45.044573661791155" lon="8.280913554010377"><ele>290.0</ele><time>2026-04-26T15:23:56.884Z</time></trkpt><trkpt lat="45.044641113399614" lon="8.280758022920054"><ele>290.0</ele><time>2026-04-26T15:23:57.884Z</time></trkpt><trkpt lat="45.0447314440199" lon="8.280601713373825"><ele>290.0</ele><time>2026-04-26T15:23:58.884Z</time></trkpt><trkpt lat="45.04483557430044" lon="8.28043336210984"><ele>290.0</ele><time>2026-04-26T15:23:59.884Z</time></trkpt><trkpt lat="45.04494381533149" lon="8.280250458238521"><ele>287.33333333333337</ele><time>2026-04-26T15:24:00.884Z</time></trkpt><trkpt lat="45.04505482148381" lon="8.280073620236532"><ele>284.6666666666667</ele><time>2026-04-26T15:24:01.884Z</time></trkpt><trkpt lat="45.045156125183745" lon="8.279901415822623"><ele>282.0</ele><time>2026-04-26T15:24:02.884Z</time></trkpt><trkpt lat="45.04524789353654" lon="8.279734859323467"><ele>280.0</ele><time>2026-04-26T15:24:03.884Z</time></trkpt><trkpt lat="45.04531906008953" lon="8.27958232833683"><ele>278.0</ele><time>2026-04-26T15:24:04.884Z</time></trkpt><trkpt lat="45.04535678796116" lon="8.27941398395354"><ele>276.0</ele><time>2026-04-26T15:24:05.884Z</time></trkpt><trkpt lat="45.04535972560275" lon="8.279227936069395"><ele>274.0</ele><time>2026-04-26T15:24:06.884Z</time></trkpt><trkpt lat="45.045310215557656" lon="8.279018371713656"><ele>274.0</ele><time>2026-04-26T15:24:07.884Z</time></trkpt><trkpt lat="45.04523468599951" lon="8.278798508023485"><ele>274.0</ele><time>2026-04-26T15:24:08.884Z</time></trkpt><trkpt lat="45.04515694535607" lon="8.278568222670858"><ele>274.0</ele><time>2026-04-26T15:24:09.884Z</time></trkpt><trkpt lat="45.04508542402103" lon="8.278346207738117"><ele>274.0</ele><time>2026-04-26T15:24:10.884Z</time></trkpt><trkpt lat="45.04501631878694" lon="8.278142535844172"><ele>274.0</ele><time>2026-04-26T15:24:11.884Z</time></trkpt><trkpt lat="45.04496744079023" lon="8.277935912588635"><ele>274.0</ele><time>2026-04-26T15:24:12.884Z</time></trkpt><trkpt lat="45.044903758526324" lon="8.277754360793342"><ele>274.0</ele><time>2026-04-26T15:24:13.884Z</time></trkpt><trkpt lat="45.0448255328537" lon="8.277592995400344"><ele>274.0</ele><time>2026-04-26T15:24:14.884Z</time></trkpt><trkpt lat="45.044762470293755" lon="8.277419125497305"><ele>274.0</ele><time>2026-04-26T15:24:15.884Z</time></trkpt><trkpt lat="45.04469692198659" lon="8.277240268493198"><ele>274.0</ele><time>2026-04-26T15:24:16.883Z</time></trkpt><trkpt lat="45.044624734768206" lon="8.277063033078997"><ele>274.0</ele><time>2026-04-26T15:24:17.883Z</time></trkpt><trkpt lat="45.04455598076234" lon="8.27687494809579"><ele>274.0</ele><time>2026-04-26T15:24:18.883Z</time></trkpt><trkpt lat="45.044479038128365" lon="8.276681794734412"><ele>274.0</ele><time>2026-04-26T15:24:19.883Z</time></trkpt><trkpt lat="45.04440048743954" lon="8.27648727225321"><ele>274.0</ele><time>2026-04-26T15:24:20.883Z</time></trkpt><trkpt lat="45.04432679422294" lon="8.27629999964033"><ele>274.0</ele><time>2026-04-26T15:24:21.883Z</time></trkpt><trkpt lat="45.04425199297056" lon="8.276118550804474"><ele>274.0</ele><time>2026-04-26T15:24:22.883Z</time></trkpt><trkpt lat="45.04418195300244" lon="8.275942196312704"><ele>274.0</ele><time>2026-04-26T15:24:23.883Z</time></trkpt><trkpt lat="45.044120371136" lon="8.275774417450064"><ele>274.0</ele><time>2026-04-26T15:24:24.883Z</time></trkpt><trkpt lat="45.04407256327791" lon="8.275619380976183"><ele>274.0</ele><time>2026-04-26T15:24:25.883Z</time></trkpt><trkpt lat="45.04404385372478" lon="8.275463611955047"><ele>274.0</ele><time>2026-04-26T15:24:26.883Z</time></trkpt><trkpt lat="45.04404348759927" lon="8.275308698825715"><ele>274.0</ele><time>2026-04-26T15:24:27.883Z</time></trkpt><trkpt lat="45.044060301757085" lon="8.27515481489255"><ele>275.25</ele><time>2026-04-26T15:24:28.883Z</time></trkpt><trkpt lat="45.044092183765535" lon="8.27499466738893"><ele>276.5</ele><time>2026-04-26T15:24:29.883Z</time></trkpt><trkpt lat="45.044145832244425" lon="8.274822452333874"><ele>277.75</ele><time>2026-04-26T15:24:30.883Z</time></trkpt><trkpt lat="45.044213481022055" lon="8.274641530392035"><ele>279.0</ele><time>2026-04-26T15:24:31.883Z</time></trkpt><trkpt lat="45.0442789648552" lon="8.27444317918995"><ele>279.0</ele><time>2026-04-26T15:24:32.883Z</time></trkpt><trkpt lat="45.044329885387306" lon="8.274227813474903"><ele>279.0</ele><time>2026-04-26T15:24:33.883Z</time></trkpt><trkpt lat="45.04437254975271" lon="8.27401427761159"><ele>279.0</ele><time>2026-04-26T15:24:34.883Z</time></trkpt><trkpt lat="45.044410368631965" lon="8.273808108848048"><ele>277.25</ele><time>2026-04-26T15:24:35.883Z</time></trkpt><trkpt lat="45.04444757539748" lon="8.273613866973307"><ele>275.5</ele><time>2026-04-26T15:24:36.883Z</time></trkpt><trkpt lat="45.04447151819163" lon="8.273426215154277"><ele>273.75</ele><time>2026-04-26T15:24:37.884Z</time></trkpt><trkpt lat="45.044479488120544" lon="8.27323062925938"><ele>272.0</ele><time>2026-04-26T15:24:38.884Z</time></trkpt><trkpt lat="45.04447367963444" lon="8.273030850471708"><ele>269.0</ele><time>2026-04-26T15:24:39.884Z</time></trkpt><trkpt lat="45.044454246964555" lon="8.27282239645678"><ele>266.0</ele><time>2026-04-26T15:24:40.883Z</time></trkpt><trkpt lat="45.044415807965734" lon="8.272607671624703"><ele>263.0</ele><time>2026-04-26T15:24:41.883Z</time></trkpt><trkpt lat="45.04437437724905" lon="8.272390426188213"><ele>262.5</ele><time>2026-04-26T15:24:42.883Z</time></trkpt><trkpt lat="45.04433126056571" lon="8.272175631785757"><ele>262.0</ele><time>2026-04-26T15:24:43.884Z</time></trkpt><trkpt lat="45.04429313054681" lon="8.271971999915682"><ele>261.5</ele><time>2026-04-26T15:24:44.884Z</time></trkpt><trkpt lat="45.0442749393162" lon="8.271771758901872"><ele>261.0</ele><time>2026-04-26T15:24:45.884Z</time></trkpt><trkpt lat="45.04425148405666" lon="8.271589038179052"><ele>259.75</ele><time>2026-04-26T15:24:46.884Z</time></trkpt><trkpt lat="45.04424313617439" lon="8.271409186193507"><ele>258.5</ele><time>2026-04-26T15:24:47.884Z</time></trkpt><trkpt lat="45.04424252182094" lon="8.271234680753302"><ele>257.25</ele><time>2026-04-26T15:24:48.884Z</time></trkpt><trkpt lat="45.04427144917508" lon="8.271063843518274"><ele>256.0</ele><time>2026-04-26T15:24:49.884Z</time></trkpt><trkpt lat="45.04431271582876" lon="8.27089350318406"><ele>256.0</ele><time>2026-04-26T15:24:50.883Z</time></trkpt><trkpt lat="45.044365514214135" lon="8.270730037774008"><ele>256.0</ele><time>2026-04-26T15:24:51.883Z</time></trkpt><trkpt lat="45.0444258321486" lon="8.270575911228194"><ele>256.0</ele><time>2026-04-26T15:24:52.883Z</time></trkpt><trkpt lat="45.04449437720747" lon="8.270425481103151"><ele>256.0</ele><time>2026-04-26T15:24:53.883Z</time></trkpt><trkpt lat="45.04455985097071" lon="8.270274118110224"><ele>255.0</ele><time>2026-04-26T15:24:54.883Z</time></trkpt><trkpt lat="45.04462425608005" lon="8.270122536273174"><ele>254.0</ele><time>2026-04-26T15:24:55.883Z</time></trkpt><trkpt lat="45.04468355218869" lon="8.26997162186736"><ele>253.0</ele><time>2026-04-26T15:24:56.883Z</time></trkpt><trkpt lat="45.04473552507643" lon="8.269831540171968"><ele>252.0</ele><time>2026-04-26T15:24:57.883Z</time></trkpt><trkpt lat="45.044780561982805" lon="8.269704740923386"><ele>251.39999999999998</ele><time>2026-04-26T15:24:58.883Z</time></trkpt><trkpt lat="45.04482165956466" lon="8.269607786026304"><ele>250.79999999999998</ele><time>2026-04-26T15:24:59.883Z</time></trkpt><trkpt lat="45.04486182673497" lon="8.269524728057311"><ele>250.2</ele><time>2026-04-26T15:25:01.883Z</time></trkpt><trkpt lat="45.044919242485236" lon="8.26942004948317"><ele>249.6</ele><time>2026-04-26T15:25:04.883Z</time></trkpt><trkpt lat="45.0450314495062" lon="8.269312411251533"><ele>249.0</ele><time>2026-04-26T15:25:06.883Z</time></trkpt><trkpt lat="45.04509866366276" lon="8.269241390667686"><ele>249.83333333333334</ele><time>2026-04-26T15:25:07.883Z</time></trkpt><trkpt lat="45.04518110159644" lon="8.269186623370864"><ele>250.66666666666669</ele><time>2026-04-26T15:25:08.883Z</time></trkpt><trkpt lat="45.04524528455184" lon="8.269120614742164"><ele>251.5</ele><time>2026-04-26T15:25:09.883Z</time></trkpt><trkpt lat="45.04530333310108" lon="8.269060074263177"><ele>252.33333333333334</ele><time>2026-04-26T15:25:10.883Z</time></trkpt><trkpt lat="45.0453646922525" lon="8.268996081015285"><ele>253.16666666666669</ele><time>2026-04-26T15:25:11.883Z</time></trkpt><trkpt lat="45.04541093289652" lon="8.268884416651504"><ele>254.0</ele><time>2026-04-26T15:25:12.883Z</time></trkpt><trkpt lat="45.04548836573251" lon="8.26880752778217"><ele>254.0</ele><time>2026-04-26T15:25:13.883Z</time></trkpt><trkpt lat="45.04556942107512" lon="8.268726050071011"><ele>253.99999999999997</ele><time>2026-04-26T15:25:14.883Z</time></trkpt><trkpt lat="45.04565252834021" lon="8.26863543098787"><ele>253.99999999999997</ele><time>2026-04-26T15:25:15.883Z</time></trkpt><trkpt lat="45.045759659703116" lon="8.26859081004173"><ele>254.0</ele><time>2026-04-26T15:25:16.883Z</time></trkpt><trkpt lat="45.04584711069935" lon="8.268501737860747"><ele>254.0</ele><time>2026-04-26T15:25:17.883Z</time></trkpt><trkpt lat="45.04593489630773" lon="8.268412379976516"><ele>255.0</ele><time>2026-04-26T15:25:18.883Z</time></trkpt><trkpt lat="45.046024390945156" lon="8.268321293528052"><ele>255.99999999999997</ele><time>2026-04-26T15:25:19.883Z</time></trkpt><trkpt lat="45.046113647943116" lon="8.26823044895411"><ele>257.0</ele><time>2026-04-26T15:25:20.883Z</time></trkpt><trkpt lat="45.04620271012929" lon="8.268140242088842"><ele>258.0</ele><time>2026-04-26T15:25:21.883Z</time></trkpt><trkpt lat="45.04628050837551" lon="8.26803258959015"><ele>259.0</ele><time>2026-04-26T15:25:22.883Z</time></trkpt><trkpt lat="45.046361017382566" lon="8.267956324817215"><ele>259.0</ele><time>2026-04-26T15:25:23.883Z</time></trkpt><trkpt lat="45.0464403515459" lon="8.267878524943324"><ele>259.0</ele><time>2026-04-26T15:25:24.883Z</time></trkpt><trkpt lat="45.046520256184444" lon="8.267795402035475"><ele>259.0</ele><time>2026-04-26T15:25:25.882Z</time></trkpt><trkpt lat="45.046612198818075" lon="8.267729201968505"><ele>259.0</ele><time>2026-04-26T15:25:26.882Z</time></trkpt><trkpt lat="45.04669703710894" lon="8.267643556381344"><ele>259.0</ele><time>2026-04-26T15:25:27.882Z</time></trkpt><trkpt lat="45.04678396047409" lon="8.267555997066744"><ele>260.0</ele><time>2026-04-26T15:25:28.882Z</time></trkpt><trkpt lat="45.04687143401311" lon="8.267468117433406"><ele>261.0</ele><time>2026-04-26T15:25:29.882Z</time></trkpt><trkpt lat="45.0469567361656" lon="8.267383078106192"><ele>262.0</ele><time>2026-04-26T15:25:30.882Z</time></trkpt><trkpt lat="45.04703924898817" lon="8.26730081955319"><ele>263.0</ele><time>2026-04-26T15:25:31.882Z</time></trkpt><trkpt lat="45.04711295463383" lon="8.267226661239347"><ele>264.0</ele><time>2026-04-26T15:25:32.882Z</time></trkpt><trkpt lat="45.047172693270696" lon="8.267173195717843"><ele>264.0</ele><time>2026-04-26T15:25:33.882Z</time></trkpt><trkpt lat="45.047263445432584" lon="8.267092075141857"><ele>264.0</ele><time>2026-04-26T15:25:35.882Z</time></trkpt><trkpt lat="45.047337008621454" lon="8.267021867227596"><ele>264.0</ele><time>2026-04-26T15:25:37.882Z</time></trkpt><trkpt lat="45.04741794795293" lon="8.26690797842502"><ele>264.0</ele><time>2026-04-26T15:25:39.882Z</time></trkpt><trkpt lat="45.04746983805006" lon="8.266848154052418"><ele>264.0</ele><time>2026-04-26T15:25:40.882Z</time></trkpt><trkpt lat="45.04753070477301" lon="8.266786680513444"><ele>265.8333333333333</ele><time>2026-04-26T15:25:41.882Z</time></trkpt><trkpt lat="45.047596729625866" lon="8.26671876055974"><ele>267.6666666666667</ele><time>2026-04-26T15:25:42.882Z</time></trkpt><trkpt lat="45.04766715751799" lon="8.26664896378537"><ele>269.5</ele><time>2026-04-26T15:25:43.882Z</time></trkpt><trkpt lat="45.04774283477401" lon="8.266578356718352"><ele>271.33333333333337</ele><time>2026-04-26T15:25:44.882Z</time></trkpt><trkpt lat="45.04781976012727" lon="8.266504919227264"><ele>273.1666666666667</ele><time>2026-04-26T15:25:45.882Z</time></trkpt><trkpt lat="45.047897020570936" lon="8.266425793414854"><ele>275.0</ele><time>2026-04-26T15:25:46.882Z</time></trkpt><trkpt lat="45.0479755215387" lon="8.266341088393647"><ele>275.0</ele><time>2026-04-26T15:25:47.882Z</time></trkpt><trkpt lat="45.048057593471455" lon="8.26626057837596"><ele>275.0</ele><time>2026-04-26T15:25:48.882Z</time></trkpt><trkpt lat="45.048132948015244" lon="8.266170796758843"><ele>275.0</ele><time>2026-04-26T15:25:49.882Z</time></trkpt><trkpt lat="45.048211413551726" lon="8.26608040564426"><ele>275.0</ele><time>2026-04-26T15:25:50.882Z</time></trkpt><trkpt lat="45.04830329732292" lon="8.266023077407604"><ele>275.0</ele><time>2026-04-26T15:25:51.882Z</time></trkpt><trkpt lat="45.04838288199261" lon="8.265940580019059"><ele>275.0</ele><time>2026-04-26T15:25:52.882Z</time></trkpt><trkpt lat="45.048458983588084" lon="8.265861258367021"><ele>275.0</ele><time>2026-04-26T15:25:53.882Z</time></trkpt><trkpt lat="45.04853625200862" lon="8.265780233280184"><ele>275.0</ele><time>2026-04-26T15:25:54.882Z</time></trkpt><trkpt lat="45.048613526113265" lon="8.265701183746238"><ele>275.0</ele><time>2026-04-26T15:25:55.882Z</time></trkpt><trkpt lat="45.04869277699481" lon="8.265628632587955"><ele>275.0</ele><time>2026-04-26T15:25:56.882Z</time></trkpt><trkpt lat="45.04877289114581" lon="8.265563433896272"><ele>275.0</ele><time>2026-04-26T15:25:57.882Z</time></trkpt><trkpt lat="45.04885150561299" lon="8.265504100970443"><ele>275.0</ele><time>2026-04-26T15:25:58.882Z</time></trkpt><trkpt lat="45.04892978350951" lon="8.26546319993275"><ele>275.0</ele><time>2026-04-26T15:25:59.882Z</time></trkpt><trkpt lat="45.049015425753346" lon="8.265460198523996"><ele>275.0</ele><time>2026-04-26T15:26:00.881Z</time></trkpt><trkpt lat="45.04909124338918" lon="8.265462626680538"><ele>275.0</ele><time>2026-04-26T15:26:01.881Z</time></trkpt><trkpt lat="45.049164120792014" lon="8.265468817867589"><ele>275.0</ele><time>2026-04-26T15:26:02.881Z</time></trkpt><trkpt lat="45.049231883319564" lon="8.265495163013641"><ele>276.42857142857144</ele><time>2026-04-26T15:26:03.881Z</time></trkpt><trkpt lat="45.04929487795348" lon="8.265537506957644"><ele>277.85714285714283</ele><time>2026-04-26T15:26:04.881Z</time></trkpt><trkpt lat="45.04935413002494" lon="8.26559480492263"><ele>279.2857142857143</ele><time>2026-04-26T15:26:05.881Z</time></trkpt><trkpt lat="45.049418971434356" lon="8.265654537128368"><ele>280.7142857142857</ele><time>2026-04-26T15:26:06.881Z</time></trkpt><trkpt lat="45.04948068126345" lon="8.265715041867077"><ele>282.14285714285717</ele><time>2026-04-26T15:26:07.881Z</time></trkpt><trkpt lat="45.04953787533705" lon="8.265790418836417"><ele>283.57142857142856</ele><time>2026-04-26T15:26:08.881Z</time></trkpt><trkpt lat="45.04958940465836" lon="8.265871765454877"><ele>285.0</ele><time>2026-04-26T15:26:09.881Z</time></trkpt><trkpt lat="45.049617666814505" lon="8.265964348899196"><ele>286.7142857142857</ele><time>2026-04-26T15:26:10.881Z</time></trkpt><trkpt lat="45.04963755496973" lon="8.266049874530506"><ele>288.42857142857144</ele><time>2026-04-26T15:26:11.881Z</time></trkpt><trkpt lat="45.04965603263884" lon="8.266148455265533"><ele>290.14285714285717</ele><time>2026-04-26T15:26:12.881Z</time></trkpt><trkpt lat="45.04968643630434" lon="8.266255048269464"><ele>291.8571428571429</ele><time>2026-04-26T15:26:13.881Z</time></trkpt><trkpt lat="45.04975599387314" lon="8.26632023474253"><ele>293.5714285714286</ele><time>2026-04-26T15:26:14.881Z</time></trkpt><trkpt lat="45.04980836343177" lon="8.26638877353401"><ele>295.2857142857143</ele><time>2026-04-26T15:26:15.881Z</time></trkpt><trkpt lat="45.0498800405634" lon="8.26641675917021"><ele>297.0</ele><time>2026-04-26T15:26:16.881Z</time></trkpt><trkpt lat="45.049942293994995" lon="8.266467175257528"><ele>296.6</ele><time>2026-04-26T15:26:17.881Z</time></trkpt><trkpt lat="45.05000147147575" lon="8.26650291961095"><ele>296.2</ele><time>2026-04-26T15:26:18.881Z</time></trkpt><trkpt lat="45.05010371220823" lon="8.266565205437194"><ele>295.8</ele><time>2026-04-26T15:26:20.881Z</time></trkpt><trkpt lat="45.05019948433843" lon="8.266649678265605"><ele>295.4</ele><time>2026-04-26T15:26:22.881Z</time></trkpt><trkpt lat="45.05025775886658" lon="8.266701327709418"><ele>295.0</ele><time>2026-04-26T15:26:23.881Z</time></trkpt><trkpt lat="45.050359922921466" lon="8.266779319194239"><ele>295.0</ele><time>2026-04-26T15:26:25.881Z</time></trkpt><trkpt lat="45.05042010178497" lon="8.266831204009689"><ele>295.0</ele><time>2026-04-26T15:26:26.881Z</time></trkpt><trkpt lat="45.050488562308324" lon="8.266889558445298"><ele>295.0</ele><time>2026-04-26T15:26:27.881Z</time></trkpt><trkpt lat="45.050549228271045" lon="8.266949690370929"><ele>295.0</ele><time>2026-04-26T15:26:28.881Z</time></trkpt><trkpt lat="45.05061555411747" lon="8.267007209029586"><ele>295.0</ele><time>2026-04-26T15:26:29.881Z</time></trkpt><trkpt lat="45.05071968134675" lon="8.266984392276042"><ele>295.0</ele><time>2026-04-26T15:26:30.881Z</time></trkpt><trkpt lat="45.05078781814651" lon="8.267035249717374"><ele>296.66666666666663</ele><time>2026-04-26T15:26:31.881Z</time></trkpt><trkpt lat="45.05085626308771" lon="8.26707704361152"><ele>298.3333333333333</ele><time>2026-04-26T15:26:32.881Z</time></trkpt><trkpt lat="45.05092364929555" lon="8.267101569508226"><ele>300.0</ele><time>2026-04-26T15:26:33.881Z</time></trkpt><trkpt lat="45.05099269280027" lon="8.267096757015068"><ele>301.6666666666667</ele><time>2026-04-26T15:26:34.881Z</time></trkpt><trkpt lat="45.05106874519969" lon="8.267143653468272"><ele>303.33333333333337</ele><time>2026-04-26T15:26:35.88Z</time></trkpt><trkpt lat="45.051149927805405" lon="8.267142977245525"><ele>305.0</ele><time>2026-04-26T15:26:36.88Z</time></trkpt><trkpt lat="45.051233133993854" lon="8.267137235222812"><ele>305.0</ele><time>2026-04-26T15:26:37.88Z</time></trkpt><trkpt lat="45.05130819967195" lon="8.267128821448072"><ele>305.0</ele><time>2026-04-26T15:26:38.88Z</time></trkpt><trkpt lat="45.05136811134898" lon="8.267098801849441"><ele>305.0</ele><time>2026-04-26T15:26:39.88Z</time></trkpt><trkpt lat="45.05143137802009" lon="8.26710586568054"><ele>305.0</ele><time>2026-04-26T15:26:40.88Z</time></trkpt><trkpt lat="45.05153391547141" lon="8.267090773306219"><ele>305.0</ele><time>2026-04-26T15:26:42.88Z</time></trkpt><trkpt lat="45.05161965810234" lon="8.266994446477641"><ele>305.0</ele><time>2026-04-26T15:26:44.882Z</time></trkpt><trkpt lat="45.05155808357596" lon="8.266823634670969"><ele>305.0</ele><time>2026-04-26T15:26:46.882Z</time></trkpt><trkpt lat="45.05144387368086" lon="8.266780984228637"><ele>305.0</ele><time>2026-04-26T15:26:48.882Z</time></trkpt><trkpt lat="45.05137956438973" lon="8.26674106205218"><ele>305.0</ele><time>2026-04-26T15:26:49.881Z</time></trkpt><trkpt lat="45.05132299177514" lon="8.266680566590797"><ele>305.0</ele><time>2026-04-26T15:26:50.882Z</time></trkpt><trkpt lat="45.05125514802916" lon="8.26665230773266"><ele>305.0</ele><time>2026-04-26T15:26:51.881Z</time></trkpt><trkpt lat="45.05119877390191" lon="8.266583553952012"><ele>305.0</ele><time>2026-04-26T15:26:52.881Z</time></trkpt><trkpt lat="45.051145685379645" lon="8.26653137655105"><ele>305.0</ele><time>2026-04-26T15:26:53.881Z</time></trkpt><trkpt lat="45.051069524646145" lon="8.266453024849994"><ele>305.0</ele><time>2026-04-26T15:26:55.881Z</time></trkpt><trkpt lat="45.0510777175229" lon="8.26634487412411"><ele>305.0</ele><time>2026-04-26T15:26:57.881Z</time></trkpt><trkpt lat="45.051183680269745" lon="8.266253612431475"><ele>305.0</ele><time>2026-04-26T15:27:00.881Z</time></trkpt><trkpt lat="45.05127338810132" lon="8.266201456562777"><ele>305.0</ele><time>2026-04-26T15:27:02.881Z</time></trkpt><trkpt lat="45.051355497851844" lon="8.2661818534437"><ele>314.0</ele><time>2026-04-26T15:27:04.881Z</time></trkpt><trkpt lat="45.051409920401035" lon="8.266103287558673"><ele>314.0</ele><time>2026-04-26T15:27:07.881Z</time></trkpt><trkpt lat="45.05147678552542" lon="8.266068886413146"><ele>314.0</ele><time>2026-04-26T15:27:10.881Z</time></trkpt><trkpt lat="45.051395807392204" lon="8.265882271515421"><ele>314.0</ele><time>2026-04-26T15:27:11.881Z</time></trkpt></trkseg><trkseg><trkpt lat="45.05300300686905" lon="8.259221601421018"><ele>308.0</ele><time>2026-04-26T15:59:12.996Z</time></trkpt><trkpt lat="45.05305148781959" lon="8.259045532983246"><ele>308.0</ele><time>2026-04-26T15:59:13.996Z</time></trkpt><trkpt lat="45.053103419663216" lon="8.25887290352762"><ele>308.0</ele><time>2026-04-26T15:59:14.996Z</time></trkpt><trkpt lat="45.05317068326358" lon="8.25870018083465"><ele>308.0</ele><time>2026-04-26T15:59:15.996Z</time></trkpt><trkpt lat="45.053224941689614" lon="8.258519130563275"><ele>307.0</ele><time>2026-04-26T15:59:16.996Z</time></trkpt><trkpt lat="45.053282279305854" lon="8.258335086103642"><ele>306.0</ele><time>2026-04-26T15:59:17.996Z</time></trkpt><trkpt lat="45.05332614631819" lon="8.258141389167127"><ele>305.0</ele><time>2026-04-26T15:59:18.996Z</time></trkpt><trkpt lat="45.05339045510736" lon="8.257966665627826"><ele>304.0</ele><time>2026-04-26T15:59:19.996Z</time></trkpt><trkpt lat="45.05345908134617" lon="8.257796755595402"><ele>304.0</ele><time>2026-04-26T15:59:20.996Z</time></trkpt><trkpt lat="45.053537022423754" lon="8.257628487353935"><ele>304.0</ele><time>2026-04-26T15:59:21.996Z</time></trkpt><trkpt lat="45.05363306677309" lon="8.257467338063146"><ele>304.0</ele><time>2026-04-26T15:59:22.996Z</time></trkpt><trkpt lat="45.053716011307614" lon="8.257290454834896"><ele>304.0</ele><time>2026-04-26T15:59:23.996Z</time></trkpt><trkpt lat="45.05381256423044" lon="8.257120376559719"><ele>304.0</ele><time>2026-04-26T15:59:24.996Z</time></trkpt><trkpt lat="45.053898744457285" lon="8.256949791758858"><ele>304.0</ele><time>2026-04-26T15:59:25.996Z</time></trkpt><trkpt lat="45.05397981865985" lon="8.256793900116877"><ele>304.0</ele><time>2026-04-26T15:59:26.996Z</time></trkpt><trkpt lat="45.05405975224291" lon="8.25664612782717"><ele>304.0</ele><time>2026-04-26T15:59:27.996Z</time></trkpt><trkpt lat="45.05412738957834" lon="8.25650089511567"><ele>301.0</ele><time>2026-04-26T15:59:28.996Z</time></trkpt><trkpt lat="45.05418690653726" lon="8.256353511478851"><ele>298.0</ele><time>2026-04-26T15:59:29.996Z</time></trkpt><trkpt lat="45.05423963429624" lon="8.256208738133404"><ele>295.0</ele><time>2026-04-26T15:59:30.996Z</time></trkpt><trkpt lat="45.05427867082308" lon="8.256061257083472"><ele>292.0</ele><time>2026-04-26T15:59:31.996Z</time></trkpt><trkpt lat="45.05432519264297" lon="8.255902818548291"><ele>292.0</ele><time>2026-04-26T15:59:32.996Z</time></trkpt><trkpt lat="45.054362063300175" lon="8.255720163799793"><ele>292.0</ele><time>2026-04-26T15:59:33.996Z</time></trkpt><trkpt lat="45.05440898322908" lon="8.25554609809896"><ele>292.0</ele><time>2026-04-26T15:59:34.996Z</time></trkpt><trkpt lat="45.05443515494393" lon="8.25536422233287"><ele>292.0</ele><time>2026-04-26T15:59:35.996Z</time></trkpt><trkpt lat="45.05449796590209" lon="8.25522040877121"><ele>292.8333333333333</ele><time>2026-04-26T15:59:36.996Z</time></trkpt><trkpt lat="45.054532042789376" lon="8.25509358401795"><ele>293.66666666666663</ele><time>2026-04-26T15:59:37.996Z</time></trkpt><trkpt lat="45.054570090728305" lon="8.255016139631655"><ele>294.5</ele><time>2026-04-26T15:59:38.996Z</time></trkpt><trkpt lat="45.05462491833141" lon="8.254968778119803"><ele>295.3333333333333</ele><time>2026-04-26T15:59:39.996Z</time></trkpt><trkpt lat="45.05471169876316" lon="8.254933287500652"><ele>296.1666666666667</ele><time>2026-04-26T15:59:41.996Z</time></trkpt><trkpt lat="45.05477458288916" lon="8.255070868625877"><ele>297.0</ele><time>2026-04-26T15:59:43.996Z</time></trkpt><trkpt lat="45.05477447626885" lon="8.255162779772718"><ele>297.0</ele><time>2026-04-26T15:59:44.996Z</time></trkpt><trkpt lat="45.0547570444331" lon="8.25526420282143"><ele>297.0</ele><time>2026-04-26T15:59:45.995Z</time></trkpt><trkpt lat="45.05471250685143" lon="8.25538067361928"><ele>297.0</ele><time>2026-04-26T15:59:46.995Z</time></trkpt><trkpt lat="45.05466439653472" lon="8.255496208835915"><ele>297.0</ele><time>2026-04-26T15:59:47.995Z</time></trkpt><trkpt lat="45.054622918330764" lon="8.255640572688273"><ele>297.0</ele><time>2026-04-26T15:59:48.995Z</time></trkpt><trkpt lat="45.054592236748846" lon="8.255813765779838"><ele>295.75</ele><time>2026-04-26T15:59:49.995Z</time></trkpt><trkpt lat="45.05456689618013" lon="8.25598881828003"><ele>294.5</ele><time>2026-04-26T15:59:50.995Z</time></trkpt><trkpt lat="45.05454869392916" lon="8.256163117719844"><ele>293.25</ele><time>2026-04-26T15:59:51.995Z</time></trkpt><trkpt lat="45.054543759225524" lon="8.2563415494567"><ele>292.0</ele><time>2026-04-26T15:59:52.995Z</time></trkpt><trkpt lat="45.05453118303206" lon="8.25652034265872"><ele>289.0</ele><time>2026-04-26T15:59:53.995Z</time></trkpt><trkpt lat="45.05451368620914" lon="8.256704035024418"><ele>286.0</ele><time>2026-04-26T15:59:54.995Z</time></trkpt><trkpt lat="45.054512924845476" lon="8.256896184475435"><ele>283.0</ele><time>2026-04-26T15:59:55.995Z</time></trkpt><trkpt lat="45.05447606927758" lon="8.25707333316019"><ele>280.0</ele><time>2026-04-26T15:59:56.995Z</time></trkpt><trkpt lat="45.05442585355383" lon="8.257239059497017"><ele>277.0</ele><time>2026-04-26T15:59:57.995Z</time></trkpt><trkpt lat="45.054376874759434" lon="8.257407588205677"><ele>274.0</ele><time>2026-04-26T15:59:58.995Z</time></trkpt><trkpt lat="45.054329993741995" lon="8.257579771018133"><ele>271.0</ele><time>2026-04-26T15:59:59.995Z</time></trkpt><trkpt lat="45.05428454339059" lon="8.257754327905417"><ele>268.0</ele><time>2026-04-26T16:00:00.995Z</time></trkpt><trkpt lat="45.05424491720606" lon="8.257930662683417"><ele>268.0</ele><time>2026-04-26T16:00:01.995Z</time></trkpt><trkpt lat="45.05422511662111" lon="8.258111076735377"><ele>268.0</ele><time>2026-04-26T16:00:02.995Z</time></trkpt><trkpt lat="45.0542236281292" lon="8.258285018414288"><ele>268.0</ele><time>2026-04-26T16:00:03.995Z</time></trkpt><trkpt lat="45.054233563394504" lon="8.258453678447244"><ele>268.0</ele><time>2026-04-26T16:00:04.995Z</time></trkpt><trkpt lat="45.05424161797284" lon="8.258612526932682"><ele>266.25</ele><time>2026-04-26T16:00:05.995Z</time></trkpt><trkpt lat="45.05423870435064" lon="8.258780338870379"><ele>264.5</ele><time>2026-04-26T16:00:06.995Z</time></trkpt><trkpt lat="45.05421944039794" lon="8.258954424481482"><ele>262.75</ele><time>2026-04-26T16:00:07.995Z</time></trkpt><trkpt lat="45.054196559641674" lon="8.259145963729392"><ele>261.0</ele><time>2026-04-26T16:00:08.995Z</time></trkpt><trkpt lat="45.05416516524042" lon="8.25934223045052"><ele>257.0</ele><time>2026-04-26T16:00:09.995Z</time></trkpt><trkpt lat="45.05413314542912" lon="8.259539533431862"><ele>253.0</ele><time>2026-04-26T16:00:10.995Z</time></trkpt><trkpt lat="45.05887316317887" lon="8.259784950587292"><ele>243.83333333333331</ele><time>2026-04-26T16:01:11.994Z</time></trkpt><trkpt lat="45.058976150902495" lon="8.259792320334736"><ele>234.66666666666666</ele><time>2026-04-26T16:01:12.994Z</time></trkpt><trkpt lat="45.05907447674478" lon="8.25980407949663"><ele>225.5</ele><time>2026-04-26T16:01:13.994Z</time></trkpt><trkpt lat="45.05916201111229" lon="8.25983069852502"><ele>216.33333333333331</ele><time>2026-04-26T16:01:14.994Z</time></trkpt><trkpt lat="45.05922879189743" lon="8.25987233636065"><ele>207.16666666666666</ele><time>2026-04-26T16:01:15.994Z</time></trkpt><trkpt lat="45.059307205147086" lon="8.259873526191821"><ele>198.0</ele><time>2026-04-26T16:01:17.994Z</time></trkpt><trkpt lat="45.05929845264601" lon="8.260090605931593"><ele>197.0</ele><time>2026-04-26T16:01:18.994Z</time></trkpt><trkpt lat="45.059281747348365" lon="8.260195783474783"><ele>196.0</ele><time>2026-04-26T16:01:19.994Z</time></trkpt><trkpt lat="45.05927494571889" lon="8.26032671486599"><ele>195.0</ele><time>2026-04-26T16:01:20.994Z</time></trkpt><trkpt lat="45.05926959720348" lon="8.260470316211833"><ele>194.0</ele><time>2026-04-26T16:01:21.994Z</time></trkpt><trkpt lat="45.059277573603914" lon="8.260615904540236"><ele>193.0</ele><time>2026-04-26T16:01:22.994Z</time></trkpt><trkpt lat="45.05927023869204" lon="8.260751743465429"><ele>192.83333333333331</ele><time>2026-04-26T16:01:23.994Z</time></trkpt><trkpt lat="45.0592631498874" lon="8.26087654727752"><ele>192.66666666666666</ele><time>2026-04-26T16:01:24.994Z</time></trkpt><trkpt lat="45.05925659938035" lon="8.260991873997938"><ele>192.5</ele><time>2026-04-26T16:01:25.993Z</time></trkpt><trkpt lat="45.059251114319956" lon="8.261099297107396"><ele>192.33333333333331</ele><time>2026-04-26T16:01:26.993Z</time></trkpt><trkpt lat="45.05924584260696" lon="8.261207228469297"><ele>192.16666666666666</ele><time>2026-04-26T16:01:27.993Z</time></trkpt><trkpt lat="45.05923139031895" lon="8.261328130143951"><ele>192.0</ele><time>2026-04-26T16:01:28.993Z</time></trkpt><trkpt lat="45.05922228444906" lon="8.261465384215667"><ele>191.75</ele><time>2026-04-26T16:01:29.993Z</time></trkpt><trkpt lat="45.05921017089113" lon="8.261616760587684"><ele>191.5</ele><time>2026-04-26T16:01:30.993Z</time></trkpt><trkpt lat="45.059194472670065" lon="8.261780021154694"><ele>191.25</ele><time>2026-04-26T16:01:31.993Z</time></trkpt><trkpt lat="45.05918110455307" lon="8.26195512362258"><ele>191.0</ele><time>2026-04-26T16:01:32.993Z</time></trkpt><trkpt lat="45.059173789147785" lon="8.262140279661605"><ele>191.0</ele><time>2026-04-26T16:01:33.993Z</time></trkpt><trkpt lat="45.059177159754874" lon="8.262334898968842"><ele>191.0</ele><time>2026-04-26T16:01:34.993Z</time></trkpt><trkpt lat="45.05918731930551" lon="8.262534342098526"><ele>191.0</ele><time>2026-04-26T16:01:35.993Z</time></trkpt><trkpt lat="45.05919987019865" lon="8.262741269407421"><ele>191.0</ele><time>2026-04-26T16:01:36.993Z</time></trkpt><trkpt lat="45.05920710800274" lon="8.262952848849906"><ele>191.25</ele><time>2026-04-26T16:01:37.993Z</time></trkpt><trkpt lat="45.05921261532346" lon="8.263152876229052"><ele>191.5</ele><time>2026-04-26T16:01:38.993Z</time></trkpt><trkpt lat="45.05922350640181" lon="8.26334579279068"><ele>191.75</ele><time>2026-04-26T16:01:39.993Z</time></trkpt><trkpt lat="45.05923797366587" lon="8.263539895785186"><ele>192.0</ele><time>2026-04-26T16:01:40.993Z</time></trkpt><trkpt lat="45.059259027592624" lon="8.26374286147086"><ele>193.0</ele><time>2026-04-26T16:01:41.993Z</time></trkpt><trkpt lat="45.05929581506346" lon="8.263950893425566"><ele>194.0</ele><time>2026-04-26T16:01:42.993Z</time></trkpt><trkpt lat="45.05933563489127" lon="8.2641600825124"><ele>195.0</ele><time>2026-04-26T16:01:43.993Z</time></trkpt><trkpt lat="45.059379919670164" lon="8.264370262760718"><ele>195.0</ele><time>2026-04-26T16:01:44.993Z</time></trkpt><trkpt lat="45.059429482454604" lon="8.264581046957058"><ele>195.0</ele><time>2026-04-26T16:01:45.993Z</time></trkpt><trkpt lat="45.05947056462247" lon="8.264796932385702"><ele>195.0</ele><time>2026-04-26T16:01:46.993Z</time></trkpt><trkpt lat="45.05949947940013" lon="8.265013175177277"><ele>195.0</ele><time>2026-04-26T16:01:47.993Z</time></trkpt><trkpt lat="45.059525111668904" lon="8.26523564762874"><ele>195.0</ele><time>2026-04-26T16:01:48.993Z</time></trkpt><trkpt lat="45.05954649091804" lon="8.265459276419069"><ele>195.0</ele><time>2026-04-26T16:01:49.993Z</time></trkpt><trkpt lat="45.0595679600667" lon="8.265683066519617"><ele>195.33333333333331</ele><time>2026-04-26T16:01:50.993Z</time></trkpt><trkpt lat="45.05958674816898" lon="8.265907925648795"><ele>195.66666666666666</ele><time>2026-04-26T16:01:51.993Z</time></trkpt><trkpt lat="45.059603981794574" lon="8.266138066751084"><ele>196.0</ele><time>2026-04-26T16:01:52.993Z</time></trkpt><trkpt lat="45.05962633722408" lon="8.266370547593484"><ele>196.33333333333331</ele><time>2026-04-26T16:01:53.993Z</time></trkpt><trkpt lat="45.05964639368624" lon="8.266603480862182"><ele>196.66666666666669</ele><time>2026-04-26T16:01:54.993Z</time></trkpt><trkpt lat="45.05966454603035" lon="8.266843069980645"><ele>197.0</ele><time>2026-04-26T16:01:55.993Z</time></trkpt><trkpt lat="45.059682575741164" lon="8.267075104660721"><ele>197.0</ele><time>2026-04-26T16:01:56.993Z</time></trkpt><trkpt lat="45.05969715872711" lon="8.267310032307789"><ele>197.0</ele><time>2026-04-26T16:01:57.993Z</time></trkpt><trkpt lat="45.059710374277536" lon="8.267553307723984"><ele>197.0</ele><time>2026-04-26T16:01:58.993Z</time></trkpt><trkpt lat="45.059724338266406" lon="8.267803933394921"><ele>197.0</ele><time>2026-04-26T16:01:59.993Z</time></trkpt><trkpt lat="45.05973768796401" lon="8.268060775066111"><ele>197.0</ele><time>2026-04-26T16:02:00.993Z</time></trkpt><trkpt lat="45.05974243476744" lon="8.268320534319065"><ele>197.0</ele><time>2026-04-26T16:02:01.993Z</time></trkpt><trkpt lat="45.05974241342886" lon="8.26858208260527"><ele>195.66666666666669</ele><time>2026-04-26T16:02:02.993Z</time></trkpt><trkpt lat="45.05973726758979" lon="8.26884092047761"><ele>194.33333333333331</ele><time>2026-04-26T16:02:03.993Z</time></trkpt><trkpt lat="45.05973220649145" lon="8.269091587526017"><ele>193.0</ele><time>2026-04-26T16:02:04.993Z</time></trkpt><trkpt lat="45.05972444309587" lon="8.269341021467843"><ele>192.66666666666666</ele><time>2026-04-26T16:02:05.993Z</time></trkpt><trkpt lat="45.0597142747728" lon="8.269584164583643"><ele>192.33333333333331</ele><time>2026-04-26T16:02:06.993Z</time></trkpt><trkpt lat="45.05969906201429" lon="8.269823430833013"><ele>192.0</ele><time>2026-04-26T16:02:07.993Z</time></trkpt><trkpt lat="45.0596713365381" lon="8.270063029092807"><ele>191.66666666666666</ele><time>2026-04-26T16:02:08.993Z</time></trkpt><trkpt lat="45.059628815441435" lon="8.270312532426363"><ele>191.33333333333331</ele><time>2026-04-26T16:02:09.993Z</time></trkpt><trkpt lat="45.059573829285114" lon="8.270568738488198"><ele>191.0</ele><time>2026-04-26T16:02:10.993Z</time></trkpt><trkpt lat="45.06223602183605" lon="8.279435579281715"><ele>186.0</ele><time>2026-04-26T16:03:11.991Z</time></trkpt><trkpt lat="45.062406706061" lon="8.279534929840517"><ele>181.0</ele><time>2026-04-26T16:03:12.991Z</time></trkpt><trkpt lat="45.06257743347553" lon="8.279637712818644"><ele>176.0</ele><time>2026-04-26T16:03:13.991Z</time></trkpt><trkpt lat="45.062751494587005" lon="8.279741780754012"><ele>175.33333333333331</ele><time>2026-04-26T16:03:14.991Z</time></trkpt><trkpt lat="45.062925392372435" lon="8.279849266049174"><ele>174.66666666666666</ele><time>2026-04-26T16:03:15.991Z</time></trkpt><trkpt lat="45.06308979463102" lon="8.279951125811266"><ele>174.0</ele><time>2026-04-26T16:03:16.991Z</time></trkpt><trkpt lat="45.06323437391601" lon="8.28004310488699"><ele>174.0</ele><time>2026-04-26T16:03:17.991Z</time></trkpt><trkpt lat="45.06336418341907" lon="8.280126458235602"><ele>174.0</ele><time>2026-04-26T16:03:18.991Z</time></trkpt><trkpt lat="45.06347752635577" lon="8.280196978113588"><ele>174.0</ele><time>2026-04-26T16:03:19.991Z</time></trkpt><trkpt lat="45.06357669987125" lon="8.28026206118917"><ele>174.0</ele><time>2026-04-26T16:03:20.991Z</time></trkpt><trkpt lat="45.06367097804757" lon="8.28032106944302"><ele>174.0</ele><time>2026-04-26T16:03:21.991Z</time></trkpt><trkpt lat="45.0637686851632" lon="8.280378656063323"><ele>174.0</ele><time>2026-04-26T16:03:22.991Z</time></trkpt><trkpt lat="45.06387997521112" lon="8.280447006097896"><ele>174.0</ele><time>2026-04-26T16:03:23.991Z</time></trkpt><trkpt lat="45.064005947351326" lon="8.280534135801691"><ele>174.0</ele><time>2026-04-26T16:03:24.991Z</time></trkpt><trkpt lat="45.06414594966438" lon="8.280635340231587"><ele>173.66666666666666</ele><time>2026-04-26T16:03:25.991Z</time></trkpt><trkpt lat="45.06429165241032" lon="8.280758266647378"><ele>173.33333333333331</ele><time>2026-04-26T16:03:26.991Z</time></trkpt><trkpt lat="45.064445554451524" lon="8.280899661126908"><ele>173.0</ele><time>2026-04-26T16:03:27.991Z</time></trkpt><trkpt lat="45.06460538090912" lon="8.281060290301173"><ele>173.0</ele><time>2026-04-26T16:03:28.991Z</time></trkpt><trkpt lat="45.06477064926231" lon="8.281246655599833"><ele>173.0</ele><time>2026-04-26T16:03:29.991Z</time></trkpt><trkpt lat="45.06493609500618" lon="8.281453196121722"><ele>173.0</ele><time>2026-04-26T16:03:30.991Z</time></trkpt><trkpt lat="45.06509742903855" lon="8.281683706332139"><ele>173.0</ele><time>2026-04-26T16:03:31.991Z</time></trkpt><trkpt lat="45.06524632533237" lon="8.281919330915203"><ele>173.0</ele><time>2026-04-26T16:03:32.991Z</time></trkpt><trkpt lat="45.06538496918129" lon="8.282157677649147"><ele>173.0</ele><time>2026-04-26T16:03:33.991Z</time></trkpt><trkpt lat="45.0655197579836" lon="8.282407865745732"><ele>173.5</ele><time>2026-04-26T16:03:34.991Z</time></trkpt><trkpt lat="45.06564152521882" lon="8.28267685475851"><ele>174.0</ele><time>2026-04-26T16:03:35.991Z</time></trkpt><trkpt lat="45.06575928281589" lon="8.282951246793786"><ele>172.5</ele><time>2026-04-26T16:03:36.991Z</time></trkpt><trkpt lat="45.06587720808511" lon="8.283233194777468"><ele>171.0</ele><time>2026-04-26T16:03:37.991Z</time></trkpt><trkpt lat="45.065996853017126" lon="8.28352110874897"><ele>171.0</ele><time>2026-04-26T16:03:38.991Z</time></trkpt><trkpt lat="45.06611713824854" lon="8.283810596807912"><ele>171.0</ele><time>2026-04-26T16:03:39.991Z</time></trkpt><trkpt lat="45.06623291283283" lon="8.2840931567266"><ele>172.33333333333334</ele><time>2026-04-26T16:03:40.991Z</time></trkpt><trkpt lat="45.06634046685951" lon="8.284362010184042"><ele>173.66666666666669</ele><time>2026-04-26T16:03:41.991Z</time></trkpt><trkpt lat="45.06645107083075" lon="8.284635098475022"><ele>175.0</ele><time>2026-04-26T16:03:42.991Z</time></trkpt><trkpt lat="45.06655770732244" lon="8.284909774381616"><ele>174.33333333333334</ele><time>2026-04-26T16:03:43.991Z</time></trkpt><trkpt lat="45.06666705202694" lon="8.285176542240084"><ele>173.66666666666666</ele><time>2026-04-26T16:03:44.991Z</time></trkpt><trkpt lat="45.06676798612085" lon="8.285443922701358"><ele>173.0</ele><time>2026-04-26T16:03:45.991Z</time></trkpt><trkpt lat="45.0668753331281" lon="8.285704727956276"><ele>177.33333333333331</ele><time>2026-04-26T16:03:46.991Z</time></trkpt><trkpt lat="45.06698144305026" lon="8.285969820567182"><ele>181.66666666666666</ele><time>2026-04-26T16:03:47.991Z</time></trkpt><trkpt lat="45.067090692812414" lon="8.286240007848205"><ele>186.0</ele><time>2026-04-26T16:03:48.991Z</time></trkpt><trkpt lat="45.06719938059767" lon="8.286512905953236"><ele>185.33333333333334</ele><time>2026-04-26T16:03:49.991Z</time></trkpt><trkpt lat="45.067308412774636" lon="8.286784501209134"><ele>184.66666666666669</ele><time>2026-04-26T16:03:50.991Z</time></trkpt><trkpt lat="45.06741233303238" lon="8.287043846099195"><ele>184.0</ele><time>2026-04-26T16:03:51.991Z</time></trkpt><trkpt lat="45.06752202423495" lon="8.287304757053057"><ele>184.0</ele><time>2026-04-26T16:03:52.991Z</time></trkpt><trkpt lat="45.06763341394706" lon="8.287572292605464"><ele>184.0</ele><time>2026-04-26T16:03:53.991Z</time></trkpt><trkpt lat="45.06774472501264" lon="8.287848011967695"><ele>184.0</ele><time>2026-04-26T16:03:54.991Z</time></trkpt><trkpt lat="45.0678568990022" lon="8.28812644328605"><ele>186.0</ele><time>2026-04-26T16:03:55.99Z</time></trkpt><trkpt lat="45.067967620975885" lon="8.288409327520156"><ele>188.0</ele><time>2026-04-26T16:03:56.99Z</time></trkpt><trkpt lat="45.068081190836295" lon="8.288700751411882"><ele>192.0</ele><time>2026-04-26T16:03:57.99Z</time></trkpt><trkpt lat="45.06820525464685" lon="8.288983130182832"><ele>196.0</ele><time>2026-04-26T16:03:58.99Z</time></trkpt><trkpt lat="45.06832645530366" lon="8.289269512831867"><ele>187.5</ele><time>2026-04-26T16:03:59.99Z</time></trkpt><trkpt lat="45.0684459282336" lon="8.289556912869859"><ele>179.0</ele><time>2026-04-26T16:04:00.99Z</time></trkpt><trkpt lat="45.06856488485113" lon="8.289841517166996"><ele>179.0</ele><time>2026-04-26T16:04:01.99Z</time></trkpt><trkpt lat="45.068681085028594" lon="8.290127258344453"><ele>179.0</ele><time>2026-04-26T16:04:02.99Z</time></trkpt><trkpt lat="45.06879619915168" lon="8.2904126042347"><ele>179.0</ele><time>2026-04-26T16:04:03.99Z</time></trkpt><trkpt lat="45.06890983882535" lon="8.290691499013532"><ele>179.0</ele><time>2026-04-26T16:04:04.99Z</time></trkpt><trkpt lat="45.06902459960447" lon="8.290964557856515"><ele>176.33333333333331</ele><time>2026-04-26T16:04:05.99Z</time></trkpt><trkpt lat="45.06913759408248" lon="8.291239630100389"><ele>173.66666666666666</ele><time>2026-04-26T16:04:06.99Z</time></trkpt><trkpt lat="45.069249863312486" lon="8.291514224911845"><ele>171.0</ele><time>2026-04-26T16:04:07.99Z</time></trkpt><trkpt lat="45.06936178926483" lon="8.291786545279146"><ele>171.0</ele><time>2026-04-26T16:04:08.99Z</time></trkpt><trkpt lat="45.06946989690038" lon="8.292057674037972"><ele>171.0</ele><time>2026-04-26T16:04:09.99Z</time></trkpt><trkpt lat="45.06957979022835" lon="8.292329786375674"><ele>171.0</ele><time>2026-04-26T16:04:10.99Z</time></trkpt><trkpt lat="45.07935743791276" lon="8.307196993450576"><ele>164.0</ele><time>2026-04-26T16:05:11.989Z</time></trkpt><trkpt lat="45.07961014034107" lon="8.307310991595779"><ele>157.0</ele><time>2026-04-26T16:05:12.989Z</time></trkpt><trkpt lat="45.07986181342105" lon="8.307429819169117"><ele>159.0</ele><time>2026-04-26T16:05:13.989Z</time></trkpt><trkpt lat="45.08011216079073" lon="8.307545072822368"><ele>161.0</ele><time>2026-04-26T16:05:14.989Z</time></trkpt><trkpt lat="45.08036258982483" lon="8.307656787750386"><ele>161.0</ele><time>2026-04-26T16:05:15.989Z</time></trkpt><trkpt lat="45.080611553892865" lon="8.30776627749469"><ele>161.0</ele><time>2026-04-26T16:05:16.989Z</time></trkpt><trkpt lat="45.08086093356078" lon="8.307877267759174"><ele>161.0</ele><time>2026-04-26T16:05:17.989Z</time></trkpt><trkpt lat="45.08110896741811" lon="8.307987721374554"><ele>161.0</ele><time>2026-04-26T16:05:18.989Z</time></trkpt><trkpt lat="45.08135834517462" lon="8.30809946140649"><ele>159.5</ele><time>2026-04-26T16:05:19.989Z</time></trkpt><trkpt lat="45.08160727448016" lon="8.308210485908992"><ele>158.0</ele><time>2026-04-26T16:05:20.989Z</time></trkpt><trkpt lat="45.081855502797985" lon="8.308319647472361"><ele>158.0</ele><time>2026-04-26T16:05:21.989Z</time></trkpt><trkpt lat="45.08210250457297" lon="8.30842640020958"><ele>158.0</ele><time>2026-04-26T16:05:22.989Z</time></trkpt><trkpt lat="45.08235001112788" lon="8.308535733978601"><ele>156.5</ele><time>2026-04-26T16:05:23.989Z</time></trkpt><trkpt lat="45.08259519832166" lon="8.308644653414035"><ele>155.0</ele><time>2026-04-26T16:05:24.989Z</time></trkpt><trkpt lat="45.08283991963524" lon="8.30875318281726"><ele>155.0</ele><time>2026-04-26T16:05:25.989Z</time></trkpt><trkpt lat="45.08308364861688" lon="8.308862232246243"><ele>155.0</ele><time>2026-04-26T16:05:26.989Z</time></trkpt><trkpt lat="45.08332638415057" lon="8.308971411929402"><ele>155.5</ele><time>2026-04-26T16:05:27.989Z</time></trkpt><trkpt lat="45.08356897169968" lon="8.309080504694307"><ele>156.0</ele><time>2026-04-26T16:05:28.989Z</time></trkpt><trkpt lat="45.08381204366035" lon="8.30918930294545"><ele>156.0</ele><time>2026-04-26T16:05:29.989Z</time></trkpt><trkpt lat="45.084054447758604" lon="8.309297271273868"><ele>156.0</ele><time>2026-04-26T16:05:30.989Z</time></trkpt><trkpt lat="45.084295675779366" lon="8.309404116063002"><ele>154.5</ele><time>2026-04-26T16:05:31.989Z</time></trkpt><trkpt lat="45.084536855073075" lon="8.309511672071626"><ele>153.0</ele><time>2026-04-26T16:05:32.989Z</time></trkpt><trkpt lat="45.08477597019719" lon="8.309618855528825"><ele>154.5</ele><time>2026-04-26T16:05:33.989Z</time></trkpt><trkpt lat="45.08501313672888" lon="8.309723555052882"><ele>156.0</ele><time>2026-04-26T16:05:34.989Z</time></trkpt><trkpt lat="45.08524901036151" lon="8.309827930393393"><ele>156.5</ele><time>2026-04-26T16:05:35.988Z</time></trkpt><trkpt lat="45.08548501297737" lon="8.309931349754846"><ele>157.0</ele><time>2026-04-26T16:05:36.988Z</time></trkpt><trkpt lat="45.08572164180768" lon="8.31003617005247"><ele>157.0</ele><time>2026-04-26T16:05:37.988Z</time></trkpt><trkpt lat="45.08595804135926" lon="8.310139223473746"><ele>157.0</ele><time>2026-04-26T16:05:38.988Z</time></trkpt><trkpt lat="45.08619665420813" lon="8.310235511722626"><ele>157.0</ele><time>2026-04-26T16:05:39.988Z</time></trkpt><trkpt lat="45.08643348691782" lon="8.310315839998168"><ele>157.0</ele><time>2026-04-26T16:05:40.988Z</time></trkpt><trkpt lat="45.08667230044234" lon="8.310375189090506"><ele>156.0</ele><time>2026-04-26T16:05:41.988Z</time></trkpt><trkpt lat="45.086915395381396" lon="8.310412050891824"><ele>155.0</ele><time>2026-04-26T16:05:42.988Z</time></trkpt><trkpt lat="45.08715724234851" lon="8.310428888202937"><ele>155.0</ele><time>2026-04-26T16:05:43.988Z</time></trkpt><trkpt lat="45.08739932955819" lon="8.310433505584344"><ele>155.0</ele><time>2026-04-26T16:05:44.988Z</time></trkpt><trkpt lat="45.08764257165779" lon="8.310423935641698"><ele>154.0</ele><time>2026-04-26T16:05:45.988Z</time></trkpt><trkpt lat="45.0878865850766" lon="8.310402191281268"><ele>153.0</ele><time>2026-04-26T16:05:46.988Z</time></trkpt><trkpt lat="45.08813093732389" lon="8.310378550578843"><ele>153.5</ele><time>2026-04-26T16:05:47.988Z</time></trkpt><trkpt lat="45.08837498690376" lon="8.310347842947948"><ele>154.0</ele><time>2026-04-26T16:05:48.988Z</time></trkpt><trkpt lat="45.088620199558115" lon="8.310324918830396"><ele>154.0</ele><time>2026-04-26T16:05:49.988Z</time></trkpt><trkpt lat="45.08886991125076" lon="8.310301530441018"><ele>154.0</ele><time>2026-04-26T16:05:50.988Z</time></trkpt><trkpt lat="45.089120301065584" lon="8.310275867708242"><ele>154.0</ele><time>2026-04-26T16:05:51.988Z</time></trkpt><trkpt lat="45.08937031953438" lon="8.310249529997465"><ele>154.0</ele><time>2026-04-26T16:05:52.988Z</time></trkpt><trkpt lat="45.089621368052704" lon="8.310226649698436"><ele>154.0</ele><time>2026-04-26T16:05:53.988Z</time></trkpt><trkpt lat="45.0898705658536" lon="8.310200231823512"><ele>154.0</ele><time>2026-04-26T16:05:54.988Z</time></trkpt><trkpt lat="45.090123182378036" lon="8.310171826662797"><ele>152.0</ele><time>2026-04-26T16:05:55.988Z</time></trkpt><trkpt lat="45.090378146077065" lon="8.310142217437154"><ele>150.0</ele><time>2026-04-26T16:05:56.988Z</time></trkpt><trkpt lat="45.09063387162366" lon="8.310117389442464"><ele>150.0</ele><time>2026-04-26T16:05:57.988Z</time></trkpt><trkpt lat="45.09089123417419" lon="8.310094163156696"><ele>150.0</ele><time>2026-04-26T16:05:58.988Z</time></trkpt><trkpt lat="45.091147940829124" lon="8.310064253735183"><ele>150.0</ele><time>2026-04-26T16:05:59.988Z</time></trkpt><trkpt lat="45.09140697739442" lon="8.31003451129661"><ele>150.0</ele><time>2026-04-26T16:06:00.988Z</time></trkpt><trkpt lat="45.09166564619449" lon="8.310004011836414"><ele>151.0</ele><time>2026-04-26T16:06:01.988Z</time></trkpt><trkpt lat="45.09192464533927" lon="8.309976009992452"><ele>152.0</ele><time>2026-04-26T16:06:02.988Z</time></trkpt><trkpt lat="45.09218365593032" lon="8.309950135256646"><ele>151.5</ele><time>2026-04-26T16:06:03.988Z</time></trkpt><trkpt lat="45.09244211386948" lon="8.309926169535794"><ele>151.0</ele><time>2026-04-26T16:06:04.988Z</time></trkpt><trkpt lat="45.09269853135356" lon="8.309900132047607"><ele>151.0</ele><time>2026-04-26T16:06:05.988Z</time></trkpt><trkpt lat="45.092953958608014" lon="8.309876437992914"><ele>151.0</ele><time>2026-04-26T16:06:06.988Z</time></trkpt><trkpt lat="45.09320994151347" lon="8.309853144200387"><ele>150.0</ele><time>2026-04-26T16:06:07.988Z</time></trkpt><trkpt lat="45.093463518778044" lon="8.309830728190438"><ele>149.0</ele><time>2026-04-26T16:06:08.988Z</time></trkpt><trkpt lat="45.09371473729781" lon="8.309820720565115"><ele>149.0</ele><time>2026-04-26T16:06:09.988Z</time></trkpt><trkpt lat="45.09396670664245" lon="8.309826524308232"><ele>149.0</ele><time>2026-04-26T16:06:10.988Z</time></trkpt><trkpt lat="45.108053230832645" lon="8.315906935291322"><ele>143.5</ele><time>2026-04-26T16:07:11.987Z</time></trkpt><trkpt lat="45.10827930257218" lon="8.316136785052704"><ele>138.0</ele><time>2026-04-26T16:07:12.987Z</time></trkpt><trkpt lat="45.10850084038909" lon="8.316360800689157"><ele>137.5</ele><time>2026-04-26T16:07:13.987Z</time></trkpt><trkpt lat="45.10872329409835" lon="8.316578080485439"><ele>137.0</ele><time>2026-04-26T16:07:14.987Z</time></trkpt><trkpt lat="45.10894788627428" lon="8.316796369314412"><ele>137.0</ele><time>2026-04-26T16:07:15.986Z</time></trkpt><trkpt lat="45.10917573790897" lon="8.317020322348997"><ele>137.0</ele><time>2026-04-26T16:07:16.986Z</time></trkpt><trkpt lat="45.10940157544739" lon="8.317246423280213"><ele>137.5</ele><time>2026-04-26T16:07:17.986Z</time></trkpt><trkpt lat="45.1096238886328" lon="8.317466299938184"><ele>138.0</ele><time>2026-04-26T16:07:18.986Z</time></trkpt><trkpt lat="45.109848616789925" lon="8.317687518226865"><ele>138.5</ele><time>2026-04-26T16:07:19.986Z</time></trkpt><trkpt lat="45.11007392814821" lon="8.317910688021257"><ele>139.0</ele><time>2026-04-26T16:07:20.986Z</time></trkpt><trkpt lat="45.11029930464642" lon="8.318132872277669"><ele>139.5</ele><time>2026-04-26T16:07:21.986Z</time></trkpt><trkpt lat="45.110526391947154" lon="8.318360106157265"><ele>140.0</ele><time>2026-04-26T16:07:22.986Z</time></trkpt><trkpt lat="45.11075282783858" lon="8.318581414181399"><ele>140.0</ele><time>2026-04-26T16:07:23.986Z</time></trkpt><trkpt lat="45.1109750789114" lon="8.318809755398005"><ele>140.0</ele><time>2026-04-26T16:07:24.986Z</time></trkpt><trkpt lat="45.11119727713718" lon="8.319036791620567"><ele>140.5</ele><time>2026-04-26T16:07:25.986Z</time></trkpt><trkpt lat="45.1114195433972" lon="8.319261747588401"><ele>141.0</ele><time>2026-04-26T16:07:26.986Z</time></trkpt><trkpt lat="45.11164239581894" lon="8.319479241392951"><ele>139.5</ele><time>2026-04-26T16:07:27.986Z</time></trkpt><trkpt lat="45.11186601138898" lon="8.319695544930653"><ele>138.0</ele><time>2026-04-26T16:07:28.986Z</time></trkpt><trkpt lat="45.112088911425815" lon="8.319910574995038"><ele>138.0</ele><time>2026-04-26T16:07:29.986Z</time></trkpt><trkpt lat="45.11231129174684" lon="8.320123699737495"><ele>138.0</ele><time>2026-04-26T16:07:30.986Z</time></trkpt><trkpt lat="45.112535525229994" lon="8.320335626502194"><ele>138.5</ele><time>2026-04-26T16:07:31.986Z</time></trkpt><trkpt lat="45.1127581158395" lon="8.320543831879728"><ele>139.0</ele><time>2026-04-26T16:07:32.986Z</time></trkpt><trkpt lat="45.112979710937125" lon="8.320750831423016"><ele>139.0</ele><time>2026-04-26T16:07:33.986Z</time></trkpt><trkpt lat="45.11320278569997" lon="8.320955921440175"><ele>139.0</ele><time>2026-04-26T16:07:34.986Z</time></trkpt><trkpt lat="45.113422973615634" lon="8.321160314866669"><ele>139.0</ele><time>2026-04-26T16:07:35.986Z</time></trkpt><trkpt lat="45.11364168458312" lon="8.321363223118718"><ele>139.0</ele><time>2026-04-26T16:07:36.986Z</time></trkpt><trkpt lat="45.113861153823365" lon="8.321567443517344"><ele>137.0</ele><time>2026-04-26T16:07:37.986Z</time></trkpt><trkpt lat="45.114083484111866" lon="8.321771562740867"><ele>135.0</ele><time>2026-04-26T16:07:38.986Z</time></trkpt><trkpt lat="45.11430406106174" lon="8.321979188547113"><ele>135.0</ele><time>2026-04-26T16:07:39.986Z</time></trkpt><trkpt lat="45.11452460155935" lon="8.322190065275908"><ele>135.0</ele><time>2026-04-26T16:07:40.986Z</time></trkpt><trkpt lat="45.11474888356225" lon="8.32240185706556"><ele>135.5</ele><time>2026-04-26T16:07:41.986Z</time></trkpt><trkpt lat="45.11497278991512" lon="8.32261044653619"><ele>136.0</ele><time>2026-04-26T16:07:42.986Z</time></trkpt><trkpt lat="45.11519671336602" lon="8.322822523863916"><ele>136.0</ele><time>2026-04-26T16:07:43.986Z</time></trkpt><trkpt lat="45.115423347493575" lon="8.323033691790943"><ele>136.0</ele><time>2026-04-26T16:07:44.986Z</time></trkpt><trkpt lat="45.115649103282145" lon="8.323244568035031"><ele>135.5</ele><time>2026-04-26T16:07:45.986Z</time></trkpt><trkpt lat="45.11587657931987" lon="8.323455189453988"><ele>135.0</ele><time>2026-04-26T16:07:46.986Z</time></trkpt><trkpt lat="45.11610296149755" lon="8.323664712116143"><ele>135.0</ele><time>2026-04-26T16:07:47.986Z</time></trkpt><trkpt lat="45.116330856241525" lon="8.323875953001712"><ele>135.0</ele><time>2026-04-26T16:07:48.986Z</time></trkpt><trkpt lat="45.11656106969957" lon="8.32408827790362"><ele>135.5</ele><time>2026-04-26T16:07:49.986Z</time></trkpt><trkpt lat="45.11679021093073" lon="8.324304204296787"><ele>136.0</ele><time>2026-04-26T16:07:50.986Z</time></trkpt><trkpt lat="45.11701751634053" lon="8.324511434263636"><ele>136.0</ele><time>2026-04-26T16:07:51.986Z</time></trkpt><trkpt lat="45.11724337200842" lon="8.324713792086119"><ele>136.0</ele><time>2026-04-26T16:07:52.986Z</time></trkpt><trkpt lat="45.11746828673248" lon="8.324921952402322"><ele>136.0</ele><time>2026-04-26T16:07:53.986Z</time></trkpt><trkpt lat="45.11769695980047" lon="8.325141713215254"><ele>136.0</ele><time>2026-04-26T16:07:54.986Z</time></trkpt><trkpt lat="45.11792854718557" lon="8.325365478683933"><ele>136.5</ele><time>2026-04-26T16:07:55.986Z</time></trkpt><trkpt lat="45.118158788716535" lon="8.325588016722138"><ele>137.0</ele><time>2026-04-26T16:07:56.986Z</time></trkpt><trkpt lat="45.11838692420676" lon="8.325806011349895"><ele>137.0</ele><time>2026-04-26T16:07:57.986Z</time></trkpt><trkpt lat="45.11861620949859" lon="8.32602271164377"><ele>137.0</ele><time>2026-04-26T16:07:58.986Z</time></trkpt><trkpt lat="45.11884158804763" lon="8.3262393440206"><ele>136.5</ele><time>2026-04-26T16:07:59.986Z</time></trkpt><trkpt lat="45.11906317766592" lon="8.326456014073791"><ele>136.0</ele><time>2026-04-26T16:08:00.986Z</time></trkpt><trkpt lat="45.11928626019378" lon="8.326663330577974"><ele>137.5</ele><time>2026-04-26T16:08:01.986Z</time></trkpt><trkpt lat="45.11951068941171" lon="8.326864660077748"><ele>139.0</ele><time>2026-04-26T16:08:02.986Z</time></trkpt><trkpt lat="45.119734170181985" lon="8.327065943640582"><ele>140.5</ele><time>2026-04-26T16:08:03.986Z</time></trkpt><trkpt lat="45.119956376965526" lon="8.32726799341326"><ele>142.0</ele><time>2026-04-26T16:08:04.986Z</time></trkpt><trkpt lat="45.12018113562579" lon="8.327474523703"><ele>142.0</ele><time>2026-04-26T16:08:05.985Z</time></trkpt><trkpt lat="45.12040564005845" lon="8.327680595238947"><ele>142.0</ele><time>2026-04-26T16:08:06.985Z</time></trkpt><trkpt lat="45.1206311291244" lon="8.327889099936298"><ele>142.0</ele><time>2026-04-26T16:08:07.985Z</time></trkpt><trkpt lat="45.12085923880944" lon="8.328096816053733"><ele>142.0</ele><time>2026-04-26T16:08:08.985Z</time></trkpt><trkpt lat="45.12108470862636" lon="8.328304164686427"><ele>142.0</ele><time>2026-04-26T16:08:09.985Z</time></trkpt><trkpt lat="45.12130983446596" lon="8.328514139489457"><ele>142.0</ele><time>2026-04-26T16:08:10.985Z</time></trkpt></trkseg><trkseg><trkpt lat="45.13360224562898" lon="8.340748523449156"><ele>129.0</ele><time>2026-04-26T16:09:08.984Z</time></trkpt><trkpt lat="45.133777534759616" lon="8.340965435182948"><ele>129.0</ele><time>2026-04-26T16:09:09.984Z</time></trkpt><trkpt lat="45.13395225569687" lon="8.34118270612865"><ele>128.0</ele><time>2026-04-26T16:09:10.984Z</time></trkpt><trkpt lat="45.13413193564477" lon="8.341400584530653"><ele>127.0</ele><time>2026-04-26T16:09:11.984Z</time></trkpt><trkpt lat="45.13431351767625" lon="8.341622571124542"><ele>127.0</ele><time>2026-04-26T16:09:12.984Z</time></trkpt><trkpt lat="45.13449399129371" lon="8.341843391826185"><ele>127.0</ele><time>2026-04-26T16:09:13.984Z</time></trkpt><trkpt lat="45.13467468877946" lon="8.342066226301123"><ele>127.0</ele><time>2026-04-26T16:09:14.984Z</time></trkpt><trkpt lat="45.13485859431434" lon="8.342286300022561"><ele>127.0</ele><time>2026-04-26T16:09:15.984Z</time></trkpt><trkpt lat="45.135049660934584" lon="8.342498219519278"><ele>127.0</ele><time>2026-04-26T16:09:16.984Z</time></trkpt><trkpt lat="45.135249926474145" lon="8.342699594330266"><ele>127.0</ele><time>2026-04-26T16:09:17.984Z</time></trkpt><trkpt lat="45.13545869769669" lon="8.342897386717254"><ele>127.0</ele><time>2026-04-26T16:09:18.984Z</time></trkpt><trkpt lat="45.135675895217595" lon="8.343092768735444"><ele>127.0</ele><time>2026-04-26T16:09:19.984Z</time></trkpt><trkpt lat="45.135903687243534" lon="8.343277623675709"><ele>127.0</ele><time>2026-04-26T16:09:20.984Z</time></trkpt><trkpt lat="45.13613452508543" lon="8.34344465163284"><ele>127.0</ele><time>2026-04-26T16:09:21.984Z</time></trkpt><trkpt lat="45.136363072001316" lon="8.343600335499845"><ele>127.0</ele><time>2026-04-26T16:09:22.984Z</time></trkpt><trkpt lat="45.13659738232724" lon="8.34375054982721"><ele>127.0</ele><time>2026-04-26T16:09:23.984Z</time></trkpt><trkpt lat="45.13683237189825" lon="8.343877886775848"><ele>126.5</ele><time>2026-04-26T16:09:24.984Z</time></trkpt><trkpt lat="45.137076055548334" lon="8.343988598770746"><ele>126.0</ele><time>2026-04-26T16:09:25.984Z</time></trkpt><trkpt lat="45.13732556408066" lon="8.344092755474067"><ele>125.5</ele><time>2026-04-26T16:09:26.984Z</time></trkpt><trkpt lat="45.13757926651282" lon="8.34418328772853"><ele>125.0</ele><time>2026-04-26T16:09:27.984Z</time></trkpt><trkpt lat="45.13783785399909" lon="8.34426326928851"><ele>125.0</ele><time>2026-04-26T16:09:28.984Z</time></trkpt><trkpt lat="45.13809713843448" lon="8.344326903953112"><ele>125.0</ele><time>2026-04-26T16:09:29.984Z</time></trkpt><trkpt lat="45.13835917297677" lon="8.344377455491282"><ele>125.0</ele><time>2026-04-26T16:09:30.984Z</time></trkpt><trkpt lat="45.1386222611916" lon="8.344408756644599"><ele>125.0</ele><time>2026-04-26T16:09:31.984Z</time></trkpt><trkpt lat="45.13888839393658" lon="8.344432475177618"><ele>126.0</ele><time>2026-04-26T16:09:32.984Z</time></trkpt><trkpt lat="45.139156599371645" lon="8.344437421397068"><ele>127.0</ele><time>2026-04-26T16:09:33.984Z</time></trkpt><trkpt lat="45.139420507613984" lon="8.344418095483658"><ele>127.0</ele><time>2026-04-26T16:09:34.984Z</time></trkpt><trkpt lat="45.13968738286318" lon="8.344386823189167"><ele>127.0</ele><time>2026-04-26T16:09:35.984Z</time></trkpt><trkpt lat="45.13995294510509" lon="8.344341387143036"><ele>127.5</ele><time>2026-04-26T16:09:36.984Z</time></trkpt><trkpt lat="45.14022044429701" lon="8.34428765217882"><ele>128.0</ele><time>2026-04-26T16:09:37.984Z</time></trkpt><trkpt lat="45.14048591473034" lon="8.344222246673715"><ele>128.5</ele><time>2026-04-26T16:09:38.984Z</time></trkpt><trkpt lat="45.14075081981259" lon="8.344150664861699"><ele>129.0</ele><time>2026-04-26T16:09:39.984Z</time></trkpt><trkpt lat="45.14102175253085" lon="8.344075855825508"><ele>129.0</ele><time>2026-04-26T16:09:40.984Z</time></trkpt><trkpt lat="45.14129176364568" lon="8.343998406903394"><ele>129.0</ele><time>2026-04-26T16:09:41.984Z</time></trkpt><trkpt lat="45.141563036040516" lon="8.343916455173588"><ele>128.5</ele><time>2026-04-26T16:09:42.984Z</time></trkpt><trkpt lat="45.141827553814245" lon="8.343830974019447"><ele>128.0</ele><time>2026-04-26T16:09:43.984Z</time></trkpt><trkpt lat="45.14209128861982" lon="8.343751195575459"><ele>128.0</ele><time>2026-04-26T16:09:44.984Z</time></trkpt><trkpt lat="45.14235169544138" lon="8.343677526528307"><ele>128.0</ele><time>2026-04-26T16:09:45.983Z</time></trkpt><trkpt lat="45.14260728900316" lon="8.343602954925215"><ele>128.5</ele><time>2026-04-26T16:09:46.983Z</time></trkpt><trkpt lat="45.14286139984533" lon="8.343526713589432"><ele>129.0</ele><time>2026-04-26T16:09:47.983Z</time></trkpt><trkpt lat="45.14310820058279" lon="8.343444423815276"><ele>129.0</ele><time>2026-04-26T16:09:48.983Z</time></trkpt><trkpt lat="45.143350819158016" lon="8.34335010412521"><ele>129.0</ele><time>2026-04-26T16:09:49.983Z</time></trkpt><trkpt lat="45.14359074442946" lon="8.343245187931332"><ele>129.0</ele><time>2026-04-26T16:09:50.983Z</time></trkpt><trkpt lat="45.14382714071744" lon="8.343126290084937"><ele>129.0</ele><time>2026-04-26T16:09:51.983Z</time></trkpt><trkpt lat="45.14406043189268" lon="8.34299001180028"><ele>128.5</ele><time>2026-04-26T16:09:52.983Z</time></trkpt><trkpt lat="45.144292320084986" lon="8.342850237449051"><ele>128.0</ele><time>2026-04-26T16:09:53.983Z</time></trkpt><trkpt lat="45.14451363747643" lon="8.342691030687071"><ele>128.0</ele><time>2026-04-26T16:09:54.983Z</time></trkpt><trkpt lat="45.144735526319096" lon="8.342524428416924"><ele>128.0</ele><time>2026-04-26T16:09:55.983Z</time></trkpt><trkpt lat="45.14493714579839" lon="8.342358433813496"><ele>128.0</ele><time>2026-04-26T16:09:56.983Z</time></trkpt><trkpt lat="45.14512771125406" lon="8.342192695014896"><ele>128.0</ele><time>2026-04-26T16:09:57.983Z</time></trkpt><trkpt lat="45.14530746064782" lon="8.342034160849389"><ele>128.0</ele><time>2026-04-26T16:09:58.983Z</time></trkpt><trkpt lat="45.14549295914405" lon="8.341892739977025"><ele>128.0</ele><time>2026-04-26T16:09:59.983Z</time></trkpt><trkpt lat="45.14568217262333" lon="8.341723728818947"><ele>128.0</ele><time>2026-04-26T16:10:00.983Z</time></trkpt><trkpt lat="45.145880121264966" lon="8.34154619025624"><ele>126.0</ele><time>2026-04-26T16:10:01.983Z</time></trkpt><trkpt lat="45.14608058072396" lon="8.341365561369397"><ele>124.0</ele><time>2026-04-26T16:10:02.983Z</time></trkpt><trkpt lat="45.146276791036186" lon="8.341188442222863"><ele>124.0</ele><time>2026-04-26T16:10:03.983Z</time></trkpt><trkpt lat="45.14646757678904" lon="8.341016219827658"><ele>124.0</ele><time>2026-04-26T16:10:04.983Z</time></trkpt><trkpt lat="45.146648719488525" lon="8.34082843869788"><ele>121.33333333333334</ele><time>2026-04-26T16:10:05.983Z</time></trkpt><trkpt lat="45.1468345419411" lon="8.340662954120795"><ele>118.66666666666666</ele><time>2026-04-26T16:10:06.983Z</time></trkpt><trkpt lat="45.1470293933148" lon="8.340513201767708"><ele>116.0</ele><time>2026-04-26T16:10:07.983Z</time></trkpt><trkpt lat="45.147216134784614" lon="8.340347151204181"><ele>115.66666666666666</ele><time>2026-04-26T16:10:08.983Z</time></trkpt><trkpt lat="45.14740308247345" lon="8.340180919726148"><ele>115.33333333333334</ele><time>2026-04-26T16:10:09.983Z</time></trkpt><trkpt lat="45.14759015628659" lon="8.340014573842613"><ele>115.0</ele><time>2026-04-26T16:10:10.983Z</time></trkpt><trkpt lat="45.14778430144581" lon="8.339841940169324"><ele>116.0</ele><time>2026-04-26T16:10:11.983Z</time></trkpt><trkpt lat="45.147983946468194" lon="8.339664416019247"><ele>117.0</ele><time>2026-04-26T16:10:12.983Z</time></trkpt><trkpt lat="45.14818827613938" lon="8.339482726300716"><ele>118.5</ele><time>2026-04-26T16:10:13.983Z</time></trkpt><trkpt lat="45.148393364448275" lon="8.339300361994214"><ele>120.0</ele><time>2026-04-26T16:10:14.983Z</time></trkpt><trkpt lat="45.14860054388855" lon="8.33911613826215"><ele>120.0</ele><time>2026-04-26T16:10:15.983Z</time></trkpt><trkpt lat="45.14880367212291" lon="8.338935516830903"><ele>120.0</ele><time>2026-04-26T16:10:16.983Z</time></trkpt><trkpt lat="45.14900256956296" lon="8.338758657416589"><ele>121.0</ele><time>2026-04-26T16:10:17.983Z</time></trkpt><trkpt lat="45.149197041058116" lon="8.338585730252436"><ele>122.0</ele><time>2026-04-26T16:10:18.983Z</time></trkpt><trkpt lat="45.149388770906086" lon="8.338414823582589"><ele>122.0</ele><time>2026-04-26T16:10:19.983Z</time></trkpt><trkpt lat="45.14958193260651" lon="8.33824219697717"><ele>122.0</ele><time>2026-04-26T16:10:20.983Z</time></trkpt><trkpt lat="45.14977324709943" lon="8.338071177132775"><ele>122.0</ele><time>2026-04-26T16:10:21.983Z</time></trkpt><trkpt lat="45.149965294299825" lon="8.337899502281024"><ele>122.0</ele><time>2026-04-26T16:10:22.983Z</time></trkpt><trkpt lat="45.15016069925155" lon="8.33772470462969"><ele>122.0</ele><time>2026-04-26T16:10:23.983Z</time></trkpt><trkpt lat="45.15035853765512" lon="8.337547674215871"><ele>122.0</ele><time>2026-04-26T16:10:24.983Z</time></trkpt><trkpt lat="45.15056014179586" lon="8.33736727414878"><ele>122.0</ele><time>2026-04-26T16:10:25.983Z</time></trkpt><trkpt lat="45.15076586774581" lon="8.337184511995964"><ele>122.0</ele><time>2026-04-26T16:10:26.983Z</time></trkpt><trkpt lat="45.150974048479746" lon="8.337000413614309"><ele>122.0</ele><time>2026-04-26T16:10:27.983Z</time></trkpt><trkpt lat="45.15118179823135" lon="8.33681456415858"><ele>122.0</ele><time>2026-04-26T16:10:28.983Z</time></trkpt><trkpt lat="45.15138867680063" lon="8.336628587569344"><ele>122.0</ele><time>2026-04-26T16:10:29.983Z</time></trkpt><trkpt lat="45.15159344595365" lon="8.336445063714287"><ele>122.0</ele><time>2026-04-26T16:10:30.983Z</time></trkpt><trkpt lat="45.15178939913205" lon="8.336269778045372"><ele>122.0</ele><time>2026-04-26T16:10:31.983Z</time></trkpt><trkpt lat="45.151977038173236" lon="8.336101929702718"><ele>122.0</ele><time>2026-04-26T16:10:32.983Z</time></trkpt><trkpt lat="45.15215614565759" lon="8.335941714450302"><ele>122.0</ele><time>2026-04-26T16:10:33.983Z</time></trkpt><trkpt lat="45.152321891210065" lon="8.335793450331494"><ele>122.0</ele><time>2026-04-26T16:10:34.983Z</time></trkpt><trkpt lat="45.15247927894697" lon="8.335652662525032"><ele>122.0</ele><time>2026-04-26T16:10:35.982Z</time></trkpt><trkpt lat="45.152638882770724" lon="8.335509892361364"><ele>122.0</ele><time>2026-04-26T16:10:36.982Z</time></trkpt><trkpt lat="45.15280985671126" lon="8.335356951287523"><ele>121.66666666666666</ele><time>2026-04-26T16:10:37.982Z</time></trkpt><trkpt lat="45.15299407819637" lon="8.335192159928429"><ele>121.33333333333334</ele><time>2026-04-26T16:10:38.982Z</time></trkpt><trkpt lat="45.153185342411966" lon="8.335021068635232"><ele>121.0</ele><time>2026-04-26T16:10:39.982Z</time></trkpt><trkpt lat="45.1533752406903" lon="8.334851199204305"><ele>121.0</ele><time>2026-04-26T16:10:40.982Z</time></trkpt><trkpt lat="45.15356182351788" lon="8.33468661893932"><ele>121.0</ele><time>2026-04-26T16:10:41.982Z</time></trkpt><trkpt lat="45.15373143636559" lon="8.33450098405444"><ele>121.0</ele><time>2026-04-26T16:10:42.982Z</time></trkpt><trkpt lat="45.153907941940666" lon="8.33434762199054"><ele>121.33333333333334</ele><time>2026-04-26T16:10:43.982Z</time></trkpt><trkpt lat="45.154082423924656" lon="8.334194004192275"><ele>121.66666666666666</ele><time>2026-04-26T16:10:44.982Z</time></trkpt><trkpt lat="45.15425433834023" lon="8.334039849641837"><ele>122.0</ele><time>2026-04-26T16:10:45.982Z</time></trkpt><trkpt lat="45.15443690597922" lon="8.333913983247555"><ele>122.0</ele><time>2026-04-26T16:10:46.982Z</time></trkpt><trkpt lat="45.15460472084382" lon="8.333767543303344"><ele>122.0</ele><time>2026-04-26T16:10:47.982Z</time></trkpt><trkpt lat="45.15477039432706" lon="8.333624411243562"><ele>122.0</ele><time>2026-04-26T16:10:48.982Z</time></trkpt><trkpt lat="45.15493561885915" lon="8.333486340662578"><ele>122.66666666666666</ele><time>2026-04-26T16:10:49.982Z</time></trkpt><trkpt lat="45.15510505440793" lon="8.333352447433976"><ele>123.33333333333334</ele><time>2026-04-26T16:10:50.982Z</time></trkpt><trkpt lat="45.15528141113298" lon="8.333224020292679"><ele>124.0</ele><time>2026-04-26T16:10:51.982Z</time></trkpt><trkpt lat="45.15546465468608" lon="8.333096541491297"><ele>123.66666666666667</ele><time>2026-04-26T16:10:52.982Z</time></trkpt><trkpt lat="45.15565340195339" lon="8.33297279054015"><ele>123.33333333333334</ele><time>2026-04-26T16:10:53.982Z</time></trkpt><trkpt lat="45.155847921547064" lon="8.332850832972548"><ele>123.0</ele><time>2026-04-26T16:10:54.982Z</time></trkpt><trkpt lat="45.156042895839455" lon="8.332734265293487"><ele>123.0</ele><time>2026-04-26T16:10:55.982Z</time></trkpt><trkpt lat="45.156243784376066" lon="8.332623995528612"><ele>123.0</ele><time>2026-04-26T16:10:56.982Z</time></trkpt><trkpt lat="45.15645627399247" lon="8.332520669570979"><ele>123.0</ele><time>2026-04-26T16:10:57.982Z</time></trkpt><trkpt lat="45.156678891755796" lon="8.332422179414559"><ele>123.5</ele><time>2026-04-26T16:10:58.982Z</time></trkpt><trkpt lat="45.15690838301304" lon="8.33232785610741"><ele>124.0</ele><time>2026-04-26T16:10:59.982Z</time></trkpt><trkpt lat="45.15713632881966" lon="8.332240456803904"><ele>124.0</ele><time>2026-04-26T16:11:00.982Z</time></trkpt><trkpt lat="45.15735923887948" lon="8.332162443425805"><ele>124.0</ele><time>2026-04-26T16:11:01.982Z</time></trkpt><trkpt lat="45.15758615037981" lon="8.332093221423277"><ele>124.5</ele><time>2026-04-26T16:11:02.982Z</time></trkpt><trkpt lat="45.157818875875066" lon="8.332032555062318"><ele>125.0</ele><time>2026-04-26T16:11:03.982Z</time></trkpt><trkpt lat="45.15804740180562" lon="8.331980854255736"><ele>124.0</ele><time>2026-04-26T16:11:04.982Z</time></trkpt><trkpt lat="45.1582696432518" lon="8.331921292721239"><ele>123.0</ele><time>2026-04-26T16:11:05.982Z</time></trkpt><trkpt lat="45.15849367684087" lon="8.331885866835565"><ele>123.0</ele><time>2026-04-26T16:11:06.982Z</time></trkpt><trkpt lat="45.15870739423997" lon="8.331875101403456"><ele>123.0</ele><time>2026-04-26T16:11:07.982Z</time></trkpt><trkpt lat="45.15891710671188" lon="8.33186055967756"><ele>123.0</ele><time>2026-04-26T16:11:08.982Z</time></trkpt><trkpt lat="45.1591214829555" lon="8.331849913106995"><ele>123.33333333333334</ele><time>2026-04-26T16:11:09.982Z</time></trkpt><trkpt lat="45.15933436417782" lon="8.33184175310937"><ele>123.66666666666667</ele><time>2026-04-26T16:11:10.982Z</time></trkpt><trkpt lat="45.159562463847045" lon="8.331842151633651"><ele>124.0</ele><time>2026-04-26T16:11:11.982Z</time></trkpt><trkpt lat="45.159800770325795" lon="8.331849912194162"><ele>123.5</ele><time>2026-04-26T16:11:12.982Z</time></trkpt><trkpt lat="45.16004980191763" lon="8.3318575420713"><ele>123.0</ele><time>2026-04-26T16:11:13.982Z</time></trkpt><trkpt lat="45.16031550278253" lon="8.331874175977628"><ele>123.0</ele><time>2026-04-26T16:11:14.982Z</time></trkpt><trkpt lat="45.160591687341004" lon="8.331896071807748"><ele>123.0</ele><time>2026-04-26T16:11:15.982Z</time></trkpt><trkpt lat="45.160877757359" lon="8.331918764030718"><ele>123.0</ele><time>2026-04-26T16:11:16.982Z</time></trkpt><trkpt lat="45.16117368636152" lon="8.331934851522236"><ele>123.0</ele><time>2026-04-26T16:11:17.982Z</time></trkpt><trkpt lat="45.161478799500784" lon="8.33194563140276"><ele>123.5</ele><time>2026-04-26T16:11:18.982Z</time></trkpt><trkpt lat="45.161789912567826" lon="8.331956924876346"><ele>124.0</ele><time>2026-04-26T16:11:19.982Z</time></trkpt><trkpt lat="45.162111018715045" lon="8.331971062643635"><ele>124.0</ele><time>2026-04-26T16:11:20.982Z</time></trkpt><trkpt lat="45.162439297116606" lon="8.331986744194626"><ele>124.0</ele><time>2026-04-26T16:11:21.982Z</time></trkpt><trkpt lat="45.16277396023503" lon="8.332001065396913"><ele>124.0</ele><time>2026-04-26T16:11:22.982Z</time></trkpt><trkpt lat="45.16311253638122" lon="8.332014271071094"><ele>124.0</ele><time>2026-04-26T16:11:23.982Z</time></trkpt><trkpt lat="45.16345377473903" lon="8.332027414379983"><ele>124.0</ele><time>2026-04-26T16:11:24.982Z</time></trkpt><trkpt lat="45.16379000106306" lon="8.332040220161927"><ele>124.0</ele><time>2026-04-26T16:11:25.981Z</time></trkpt><trkpt lat="45.164120849709306" lon="8.33205140106644"><ele>124.0</ele><time>2026-04-26T16:11:26.981Z</time></trkpt><trkpt lat="45.16444403318228" lon="8.332063816055024"><ele>124.0</ele><time>2026-04-26T16:11:27.981Z</time></trkpt><trkpt lat="45.16476153818639" lon="8.332079878015366"><ele>124.5</ele><time>2026-04-26T16:11:28.981Z</time></trkpt><trkpt lat="45.165072438797694" lon="8.332094057310895"><ele>125.0</ele><time>2026-04-26T16:11:29.981Z</time></trkpt><trkpt lat="45.165377345291084" lon="8.332105815071708"><ele>125.0</ele><time>2026-04-26T16:11:30.981Z</time></trkpt><trkpt lat="45.1656760511891" lon="8.332117837340528"><ele>125.0</ele><time>2026-04-26T16:11:31.981Z</time></trkpt><trkpt lat="45.16597093947906" lon="8.332129319438833"><ele>125.0</ele><time>2026-04-26T16:11:32.981Z</time></trkpt><trkpt lat="45.16625998431397" lon="8.332141020793244"><ele>125.0</ele><time>2026-04-26T16:11:33.981Z</time></trkpt><trkpt lat="45.16654569248742" lon="8.332153299218255"><ele>125.0</ele><time>2026-04-26T16:11:34.981Z</time></trkpt><trkpt lat="45.16682852871715" lon="8.332165336433686"><ele>125.0</ele><time>2026-04-26T16:11:35.981Z</time></trkpt><trkpt lat="45.16711039958493" lon="8.332176061414017"><ele>124.0</ele><time>2026-04-26T16:11:36.981Z</time></trkpt><trkpt lat="45.16739117573157" lon="8.332187466443544"><ele>123.0</ele><time>2026-04-26T16:11:37.981Z</time></trkpt><trkpt lat="45.167668915933895" lon="8.332198776465649"><ele>123.0</ele><time>2026-04-26T16:11:38.981Z</time></trkpt><trkpt lat="45.16794673875898" lon="8.332210625111385"><ele>123.0</ele><time>2026-04-26T16:11:39.981Z</time></trkpt><trkpt lat="45.168222762582246" lon="8.332221200059005"><ele>124.0</ele><time>2026-04-26T16:11:40.981Z</time></trkpt><trkpt lat="45.16849956931612" lon="8.332237481752044"><ele>125.0</ele><time>2026-04-26T16:11:41.981Z</time></trkpt><trkpt lat="45.16878077275681" lon="8.332257149992333"><ele>125.5</ele><time>2026-04-26T16:11:42.981Z</time></trkpt><trkpt lat="45.1690604290443" lon="8.3322709322492"><ele>126.0</ele><time>2026-04-26T16:11:43.981Z</time></trkpt><trkpt lat="45.16933522715903" lon="8.332282808288888"><ele>126.0</ele><time>2026-04-26T16:11:44.981Z</time></trkpt><trkpt lat="45.169609170679834" lon="8.332293517002869"><ele>126.0</ele><time>2026-04-26T16:11:45.981Z</time></trkpt><trkpt lat="45.16988535876422" lon="8.332299282005637"><ele>126.0</ele><time>2026-04-26T16:11:46.981Z</time></trkpt><trkpt lat="45.170154875916715" lon="8.33230848130845"><ele>126.0</ele><time>2026-04-26T16:11:47.981Z</time></trkpt><trkpt lat="45.17043405868667" lon="8.332321140659685"><ele>125.0</ele><time>2026-04-26T16:11:48.981Z</time></trkpt><trkpt lat="45.17071064790178" lon="8.332325041226461"><ele>124.0</ele><time>2026-04-26T16:11:49.981Z</time></trkpt><trkpt lat="45.17098789990048" lon="8.332330011227864"><ele>124.0</ele><time>2026-04-26T16:11:50.981Z</time></trkpt><trkpt lat="45.17126318860674" lon="8.332341972559918"><ele>124.0</ele><time>2026-04-26T16:11:51.981Z</time></trkpt><trkpt lat="45.17153882995227" lon="8.332362194243736"><ele>124.0</ele><time>2026-04-26T16:11:52.981Z</time></trkpt><trkpt lat="45.17181860933516" lon="8.332378226552057"><ele>124.0</ele><time>2026-04-26T16:11:53.981Z</time></trkpt><trkpt lat="45.172101691883825" lon="8.33239291512893"><ele>124.0</ele><time>2026-04-26T16:11:54.981Z</time></trkpt><trkpt lat="45.17238889044258" lon="8.33240559019399"><ele>124.0</ele><time>2026-04-26T16:11:55.981Z</time></trkpt><trkpt lat="45.17267774150272" lon="8.332414947175634"><ele>124.0</ele><time>2026-04-26T16:11:56.981Z</time></trkpt><trkpt lat="45.172968786945326" lon="8.332425832916972"><ele>124.0</ele><time>2026-04-26T16:11:57.981Z</time></trkpt><trkpt lat="45.17325782900563" lon="8.332438358295144"><ele>124.5</ele><time>2026-04-26T16:11:58.981Z</time></trkpt><trkpt lat="45.173546966958455" lon="8.332454291429144"><ele>125.0</ele><time>2026-04-26T16:11:59.981Z</time></trkpt><trkpt lat="45.17383710758175" lon="8.332467045002767"><ele>124.5</ele><time>2026-04-26T16:12:00.981Z</time></trkpt><trkpt lat="45.17412481567348" lon="8.332477955868727"><ele>124.0</ele><time>2026-04-26T16:12:01.981Z</time></trkpt><trkpt lat="45.17441183588846" lon="8.332491975517064"><ele>124.0</ele><time>2026-04-26T16:12:02.981Z</time></trkpt><trkpt lat="45.17469798720375" lon="8.332505364565241"><ele>124.0</ele><time>2026-04-26T16:12:03.981Z</time></trkpt><trkpt lat="45.17498325909063" lon="8.332515223741739"><ele>124.5</ele><time>2026-04-26T16:12:04.981Z</time></trkpt><trkpt lat="45.17526636877439" lon="8.332529985479036"><ele>125.0</ele><time>2026-04-26T16:12:05.981Z</time></trkpt><trkpt lat="45.17554963900632" lon="8.332547616892537"><ele>125.0</ele><time>2026-04-26T16:12:06.981Z</time></trkpt><trkpt lat="45.175832005325105" lon="8.332562981314583"><ele>125.0</ele><time>2026-04-26T16:12:07.981Z</time></trkpt><trkpt lat="45.176112672687054" lon="8.33257412164587"><ele>125.0</ele><time>2026-04-26T16:12:08.981Z</time></trkpt><trkpt lat="45.176393737042275" lon="8.332585860405791"><ele>125.0</ele><time>2026-04-26T16:12:09.981Z</time></trkpt><trkpt lat="45.1766745601188" lon="8.332598500053031"><ele>125.5</ele><time>2026-04-26T16:12:10.981Z</time></trkpt><trkpt lat="45.17695403757342" lon="8.332615551719691"><ele>126.0</ele><time>2026-04-26T16:12:11.981Z</time></trkpt><trkpt lat="45.17723107042807" lon="8.332631783039481"><ele>126.0</ele><time>2026-04-26T16:12:12.981Z</time></trkpt><trkpt lat="45.17750744082275" lon="8.332641602089536"><ele>126.0</ele><time>2026-04-26T16:12:13.981Z</time></trkpt><trkpt lat="45.17778669957299" lon="8.332646426296355"><ele>126.0</ele><time>2026-04-26T16:12:14.981Z</time></trkpt><trkpt lat="45.17806768195753" lon="8.332657572745877"><ele>126.0</ele><time>2026-04-26T16:12:15.98Z</time></trkpt><trkpt lat="45.17834808863528" lon="8.332667412326444"><ele>125.0</ele><time>2026-04-26T16:12:16.98Z</time></trkpt><trkpt lat="45.17862671910658" lon="8.332675302066143"><ele>124.0</ele><time>2026-04-26T16:12:17.98Z</time></trkpt><trkpt lat="45.178899878146936" lon="8.332688823614916"><ele>124.5</ele><time>2026-04-26T16:12:18.98Z</time></trkpt><trkpt lat="45.179171398064334" lon="8.332702287630214"><ele>125.0</ele><time>2026-04-26T16:12:19.98Z</time></trkpt><trkpt lat="45.17944084773832" lon="8.332713758385548"><ele>125.0</ele><time>2026-04-26T16:12:20.98Z</time></trkpt><trkpt lat="45.179707196035785" lon="8.332722526919708"><ele>125.0</ele><time>2026-04-26T16:12:21.98Z</time></trkpt><trkpt lat="45.17997419465143" lon="8.332735886080483"><ele>125.5</ele><time>2026-04-26T16:12:22.98Z</time></trkpt><trkpt lat="45.180238156131" lon="8.332746507776756"><ele>126.0</ele><time>2026-04-26T16:12:23.98Z</time></trkpt><trkpt lat="45.18050139892215" lon="8.332754211236782"><ele>126.0</ele><time>2026-04-26T16:12:24.98Z</time></trkpt><trkpt lat="45.18076422125418" lon="8.332764671389798"><ele>126.0</ele><time>2026-04-26T16:12:25.98Z</time></trkpt><trkpt lat="45.18102811421048" lon="8.332778922281202"><ele>126.0</ele><time>2026-04-26T16:12:26.98Z</time></trkpt><trkpt lat="45.18129556660753" lon="8.332789759204724"><ele>126.0</ele><time>2026-04-26T16:12:27.98Z</time></trkpt><trkpt lat="45.18156618441734" lon="8.332801457612094"><ele>126.5</ele><time>2026-04-26T16:12:28.98Z</time></trkpt><trkpt lat="45.18184067565604" lon="8.332813843520135"><ele>127.0</ele><time>2026-04-26T16:12:29.98Z</time></trkpt><trkpt lat="45.18211587893678" lon="8.332826613032267"><ele>126.5</ele><time>2026-04-26T16:12:30.98Z</time></trkpt><trkpt lat="45.1823956129818" lon="8.332837443816855"><ele>126.0</ele><time>2026-04-26T16:12:31.98Z</time></trkpt><trkpt lat="45.182675950862986" lon="8.332850231276321"><ele>126.0</ele><time>2026-04-26T16:12:32.98Z</time></trkpt><trkpt lat="45.182958598353004" lon="8.332863701932018"><ele>126.0</ele><time>2026-04-26T16:12:33.98Z</time></trkpt><trkpt lat="45.18324027531855" lon="8.332877739808797"><ele>126.0</ele><time>2026-04-26T16:12:34.98Z</time></trkpt><trkpt lat="45.18351814046995" lon="8.332891382784732"><ele>126.0</ele><time>2026-04-26T16:12:35.98Z</time></trkpt><trkpt lat="45.18379259008614" lon="8.332905541313643"><ele>126.0</ele><time>2026-04-26T16:12:36.98Z</time></trkpt><trkpt lat="45.184068981218275" lon="8.332920954240173"><ele>126.0</ele><time>2026-04-26T16:12:37.98Z</time></trkpt><trkpt lat="45.18433833430906" lon="8.332931265150897"><ele>126.0</ele><time>2026-04-26T16:12:38.98Z</time></trkpt><trkpt lat="45.18460178107124" lon="8.332934949434447"><ele>126.0</ele><time>2026-04-26T16:12:39.98Z</time></trkpt><trkpt lat="45.1848576805202" lon="8.332926455437574"><ele>125.5</ele><time>2026-04-26T16:12:40.98Z</time></trkpt><trkpt lat="45.18510560725572" lon="8.33290109645207"><ele>125.0</ele><time>2026-04-26T16:12:41.98Z</time></trkpt><trkpt lat="45.185354825017384" lon="8.332862104740576"><ele>125.0</ele><time>2026-04-26T16:12:42.98Z</time></trkpt><trkpt lat="45.185602679827966" lon="8.332805273644631"><ele>125.0</ele><time>2026-04-26T16:12:43.98Z</time></trkpt><trkpt lat="45.18584878168167" lon="8.332725609355181"><ele>125.5</ele><time>2026-04-26T16:12:44.98Z</time></trkpt><trkpt lat="45.18608815928491" lon="8.332616166882937"><ele>126.0</ele><time>2026-04-26T16:12:45.98Z</time></trkpt><trkpt lat="45.186320053883286" lon="8.332481372073136"><ele>126.0</ele><time>2026-04-26T16:12:46.98Z</time></trkpt><trkpt lat="45.186546629928685" lon="8.332325677007562"><ele>126.0</ele><time>2026-04-26T16:12:47.98Z</time></trkpt><trkpt lat="45.18676708222647" lon="8.332148347811758"><ele>126.0</ele><time>2026-04-26T16:12:48.98Z</time></trkpt><trkpt lat="45.1869811054663" lon="8.331949811839367"><ele>126.0</ele><time>2026-04-26T16:12:49.98Z</time></trkpt><trkpt lat="45.18718217965206" lon="8.331731344494704"><ele>126.0</ele><time>2026-04-26T16:12:50.98Z</time></trkpt><trkpt lat="45.18737198636263" lon="8.331487007872736"><ele>126.0</ele><time>2026-04-26T16:12:51.98Z</time></trkpt><trkpt lat="45.187552744558715" lon="8.3312202719462"><ele>126.0</ele><time>2026-04-26T16:12:52.98Z</time></trkpt><trkpt lat="45.187727388160894" lon="8.330940312765152"><ele>126.0</ele><time>2026-04-26T16:12:53.98Z</time></trkpt><trkpt lat="45.1878898720265" lon="8.330646525648964"><ele>126.5</ele><time>2026-04-26T16:12:54.98Z</time></trkpt><trkpt lat="45.1880483754838" lon="8.33034570103652"><ele>127.0</ele><time>2026-04-26T16:12:55.98Z</time></trkpt><trkpt lat="45.18821139078752" lon="8.330043353717826"><ele>126.0</ele><time>2026-04-26T16:12:56.98Z</time></trkpt><trkpt lat="45.18837091699576" lon="8.329737007046205"><ele>125.0</ele><time>2026-04-26T16:12:57.98Z</time></trkpt><trkpt lat="45.18853250052345" lon="8.329429061899877"><ele>125.0</ele><time>2026-04-26T16:12:58.98Z</time></trkpt><trkpt lat="45.188694074131874" lon="8.329121958812733"><ele>125.0</ele><time>2026-04-26T16:12:59.98Z</time></trkpt><trkpt lat="45.18885437247515" lon="8.328815171493142"><ele>126.0</ele><time>2026-04-26T16:13:00.98Z</time></trkpt><trkpt lat="45.1890156037151" lon="8.328508439738485"><ele>127.0</ele><time>2026-04-26T16:13:01.98Z</time></trkpt><trkpt lat="45.18917687745378" lon="8.328201719938017"><ele>127.0</ele><time>2026-04-26T16:13:02.98Z</time></trkpt><trkpt lat="45.1893386148765" lon="8.327897576356637"><ele>127.0</ele><time>2026-04-26T16:13:03.98Z</time></trkpt><trkpt lat="45.1894984264275" lon="8.327594663338198"><ele>127.0</ele><time>2026-04-26T16:13:04.98Z</time></trkpt><trkpt lat="45.18965687850736" lon="8.32729154994633"><ele>127.0</ele><time>2026-04-26T16:13:05.979Z</time></trkpt><trkpt lat="45.18981478636854" lon="8.326988011782154"><ele>126.5</ele><time>2026-04-26T16:13:06.979Z</time></trkpt><trkpt lat="45.189972278512144" lon="8.326681487526242"><ele>126.0</ele><time>2026-04-26T16:13:07.979Z</time></trkpt><trkpt lat="45.19013205388866" lon="8.326375460421263"><ele>126.0</ele><time>2026-04-26T16:13:08.979Z</time></trkpt><trkpt lat="45.190291913897994" lon="8.326070614247877"><ele>126.0</ele><time>2026-04-26T16:13:09.979Z</time></trkpt><trkpt lat="45.190451434246945" lon="8.325769774439367"><ele>126.0</ele><time>2026-04-26T16:13:10.979Z</time></trkpt><trkpt lat="45.19060897659322" lon="8.325469044368006"><ele>126.0</ele><time>2026-04-26T16:13:11.979Z</time></trkpt><trkpt lat="45.190764206720964" lon="8.325166946922542"><ele>126.0</ele><time>2026-04-26T16:13:12.979Z</time></trkpt><trkpt lat="45.19092005386014" lon="8.324865279441617"><ele>126.0</ele><time>2026-04-26T16:13:13.979Z</time></trkpt><trkpt lat="45.19107482158069" lon="8.324565385209787"><ele>126.5</ele><time>2026-04-26T16:13:14.979Z</time></trkpt><trkpt lat="45.191231355261976" lon="8.324267953551567"><ele>127.0</ele><time>2026-04-26T16:13:15.979Z</time></trkpt><trkpt lat="45.19138487919192" lon="8.32396811482797"><ele>127.0</ele><time>2026-04-26T16:13:16.979Z</time></trkpt><trkpt lat="45.191537943505885" lon="8.323672119060717"><ele>127.0</ele><time>2026-04-26T16:13:17.979Z</time></trkpt><trkpt lat="45.19169240071831" lon="8.323371431518131"><ele>127.0</ele><time>2026-04-26T16:13:18.979Z</time></trkpt><trkpt lat="45.19184745011178" lon="8.323072215150075"><ele>127.0</ele><time>2026-04-26T16:13:19.979Z</time></trkpt><trkpt lat="45.19200300642744" lon="8.322773747221177"><ele>127.0</ele><time>2026-04-26T16:13:20.979Z</time></trkpt><trkpt lat="45.19215724432137" lon="8.322474888417693"><ele>127.0</ele><time>2026-04-26T16:13:21.979Z</time></trkpt><trkpt lat="45.19231109440325" lon="8.322176069118381"><ele>126.5</ele><time>2026-04-26T16:13:22.979Z</time></trkpt><trkpt lat="45.19246635870573" lon="8.321875307685994"><ele>126.0</ele><time>2026-04-26T16:13:23.979Z</time></trkpt><trkpt lat="45.19262376843988" lon="8.32157315710695"><ele>126.0</ele><time>2026-04-26T16:13:24.979Z</time></trkpt><trkpt lat="45.19278234811629" lon="8.32127090330553"><ele>126.0</ele><time>2026-04-26T16:13:25.979Z</time></trkpt><trkpt lat="45.192940439956175" lon="8.320968567018996"><ele>126.0</ele><time>2026-04-26T16:13:26.979Z</time></trkpt><trkpt lat="45.19309700191866" lon="8.320663711351875"><ele>126.0</ele><time>2026-04-26T16:13:27.979Z</time></trkpt><trkpt lat="45.19325399568261" lon="8.32035951722772"><ele>127.5</ele><time>2026-04-26T16:13:28.979Z</time></trkpt><trkpt lat="45.193411606478136" lon="8.320053905942626"><ele>129.0</ele><time>2026-04-26T16:13:29.979Z</time></trkpt><trkpt lat="45.19356878368106" lon="8.31974573598774"><ele>127.5</ele><time>2026-04-26T16:13:30.979Z</time></trkpt><trkpt lat="45.19373020966281" lon="8.319442126072992"><ele>126.0</ele><time>2026-04-26T16:13:31.979Z</time></trkpt><trkpt lat="45.19389050601239" lon="8.319134242902052"><ele>126.0</ele><time>2026-04-26T16:13:32.979Z</time></trkpt><trkpt lat="45.19404921141265" lon="8.318825231495879"><ele>126.0</ele><time>2026-04-26T16:13:33.979Z</time></trkpt><trkpt lat="45.194206701827035" lon="8.318519418513807"><ele>126.0</ele><time>2026-04-26T16:13:34.979Z</time></trkpt><trkpt lat="45.19436560037467" lon="8.318212409919255"><ele>126.0</ele><time>2026-04-26T16:13:35.979Z</time></trkpt><trkpt lat="45.194525443105036" lon="8.317900239631165"><ele>126.0</ele><time>2026-04-26T16:13:36.979Z</time></trkpt><trkpt lat="45.194683179252586" lon="8.317589703606941"><ele>126.0</ele><time>2026-04-26T16:13:37.979Z</time></trkpt><trkpt lat="45.19484236816455" lon="8.31727810873904"><ele>126.0</ele><time>2026-04-26T16:13:38.979Z</time></trkpt><trkpt lat="45.19500167666871" lon="8.316966767950682"><ele>126.0</ele><time>2026-04-26T16:13:39.979Z</time></trkpt><trkpt lat="45.19516262638681" lon="8.3166581903083"><ele>126.5</ele><time>2026-04-26T16:13:40.979Z</time></trkpt><trkpt lat="45.195324291424434" lon="8.31635479069618"><ele>127.0</ele><time>2026-04-26T16:13:41.979Z</time></trkpt><trkpt lat="45.19548298160692" lon="8.316048352601069"><ele>127.0</ele><time>2026-04-26T16:13:42.979Z</time></trkpt><trkpt lat="45.19564298998526" lon="8.315737203638644"><ele>127.0</ele><time>2026-04-26T16:13:43.979Z</time></trkpt><trkpt lat="45.19580897996845" lon="8.315413155890838"><ele>127.0</ele><time>2026-04-26T16:13:44.979Z</time></trkpt><trkpt lat="45.19598131920023" lon="8.315076657691185"><ele>127.0</ele><time>2026-04-26T16:13:45.979Z</time></trkpt><trkpt lat="45.19615605991706" lon="8.31472585625334"><ele>126.5</ele><time>2026-04-26T16:13:46.979Z</time></trkpt><trkpt lat="45.19633481422404" lon="8.314371496942014"><ele>126.0</ele><time>2026-04-26T16:13:47.979Z</time></trkpt><trkpt lat="45.19651971265581" lon="8.31400834369469"><ele>126.5</ele><time>2026-04-26T16:13:48.979Z</time></trkpt><trkpt lat="45.19671012251494" lon="8.313656299802588"><ele>127.0</ele><time>2026-04-26T16:13:49.979Z</time></trkpt><trkpt lat="45.19689418682273" lon="8.313329698282194"><ele>127.0</ele><time>2026-04-26T16:13:50.979Z</time></trkpt><trkpt lat="45.197061470991066" lon="8.313010087415119"><ele>127.0</ele><time>2026-04-26T16:13:51.979Z</time></trkpt><trkpt lat="45.197218505059745" lon="8.31269682379005"><ele>127.0</ele><time>2026-04-26T16:13:52.979Z</time></trkpt><trkpt lat="45.197371605027975" lon="8.312395566513594"><ele>127.0</ele><time>2026-04-26T16:13:53.979Z</time></trkpt><trkpt lat="45.197528365483485" lon="8.312107718878295"><ele>127.0</ele><time>2026-04-26T16:13:54.979Z</time></trkpt><trkpt lat="45.197691874478885" lon="8.311826882488747"><ele>127.0</ele><time>2026-04-26T16:13:55.978Z</time></trkpt><trkpt lat="45.197863115830955" lon="8.311552015728077"><ele>127.0</ele><time>2026-04-26T16:13:56.978Z</time></trkpt><trkpt lat="45.19803667014315" lon="8.311282972508693"><ele>127.0</ele><time>2026-04-26T16:13:57.978Z</time></trkpt><trkpt lat="45.19821741169695" lon="8.311019495859155"><ele>127.0</ele><time>2026-04-26T16:13:58.978Z</time></trkpt><trkpt lat="45.19840708876519" lon="8.310758721091121"><ele>127.0</ele><time>2026-04-26T16:13:59.978Z</time></trkpt><trkpt lat="45.19860416480004" lon="8.3105137120911"><ele>127.0</ele><time>2026-04-26T16:14:00.978Z</time></trkpt><trkpt lat="45.198810176858835" lon="8.310277241549962"><ele>127.0</ele><time>2026-04-26T16:14:01.978Z</time></trkpt><trkpt lat="45.19902424085983" lon="8.310051413611975"><ele>127.5</ele><time>2026-04-26T16:14:02.978Z</time></trkpt><trkpt lat="45.19924468792102" lon="8.309834562888405"><ele>128.0</ele><time>2026-04-26T16:14:03.978Z</time></trkpt><trkpt lat="45.199470871029746" lon="8.309625479892249"><ele>128.0</ele><time>2026-04-26T16:14:04.978Z</time></trkpt><trkpt lat="45.19970430690852" lon="8.309425820736763"><ele>128.0</ele><time>2026-04-26T16:14:05.978Z</time></trkpt><trkpt lat="45.19994420951211" lon="8.309240330854156"><ele>128.0</ele><time>2026-04-26T16:14:06.978Z</time></trkpt><trkpt lat="45.20018692289411" lon="8.309061118978653"><ele>128.0</ele><time>2026-04-26T16:14:07.978Z</time></trkpt><trkpt lat="45.20043538071655" lon="8.308890451078227"><ele>128.0</ele><time>2026-04-26T16:14:08.978Z</time></trkpt><trkpt lat="45.20068442538709" lon="8.308722685998777"><ele>128.0</ele><time>2026-04-26T16:14:09.978Z</time></trkpt><trkpt lat="45.20093584691746" lon="8.308551743196139"><ele>128.0</ele><time>2026-04-26T16:14:10.978Z</time></trkpt><trkpt lat="45.201187104446475" lon="8.308379640098225"><ele>128.0</ele><time>2026-04-26T16:14:11.978Z</time></trkpt><trkpt lat="45.20143803127108" lon="8.308210576251392"><ele>128.5</ele><time>2026-04-26T16:14:12.978Z</time></trkpt><trkpt lat="45.20169057654666" lon="8.308040205576882"><ele>129.0</ele><time>2026-04-26T16:14:13.978Z</time></trkpt><trkpt lat="45.201941210711354" lon="8.30786717224201"><ele>129.0</ele><time>2026-04-26T16:14:14.978Z</time></trkpt><trkpt lat="45.20219169157767" lon="8.30769738473647"><ele>129.0</ele><time>2026-04-26T16:14:15.978Z</time></trkpt><trkpt lat="45.2024407267155" lon="8.307529578263928"><ele>129.0</ele><time>2026-04-26T16:14:16.978Z</time></trkpt><trkpt lat="45.202687305940856" lon="8.307367443435604"><ele>129.0</ele><time>2026-04-26T16:14:17.978Z</time></trkpt><trkpt lat="45.202927097095035" lon="8.307204112556708"><ele>129.5</ele><time>2026-04-26T16:14:18.978Z</time></trkpt><trkpt lat="45.20316697264094" lon="8.307041672390085"><ele>130.0</ele><time>2026-04-26T16:14:19.978Z</time></trkpt><trkpt lat="45.203407645607165" lon="8.306877084637046"><ele>130.0</ele><time>2026-04-26T16:14:20.978Z</time></trkpt><trkpt lat="45.203648806705424" lon="8.306712232399107"><ele>130.0</ele><time>2026-04-26T16:14:21.978Z</time></trkpt><trkpt lat="45.203894095302715" lon="8.306543009124432"><ele>130.5</ele><time>2026-04-26T16:14:22.978Z</time></trkpt><trkpt lat="45.20413989979688" lon="8.3063708998888"><ele>131.0</ele><time>2026-04-26T16:14:23.978Z</time></trkpt><trkpt lat="45.204385416702365" lon="8.30620258799069"><ele>131.0</ele><time>2026-04-26T16:14:24.978Z</time></trkpt><trkpt lat="45.20463385405615" lon="8.306040608669917"><ele>131.0</ele><time>2026-04-26T16:14:25.978Z</time></trkpt><trkpt lat="45.20487896842251" lon="8.305876298105318"><ele>131.0</ele><time>2026-04-26T16:14:26.978Z</time></trkpt><trkpt lat="45.20512069284147" lon="8.305713096129898"><ele>131.0</ele><time>2026-04-26T16:14:27.978Z</time></trkpt><trkpt lat="45.2053603538985" lon="8.30555074595904"><ele>131.0</ele><time>2026-04-26T16:14:28.978Z</time></trkpt><trkpt lat="45.205596667306274" lon="8.305390686243848"><ele>131.0</ele><time>2026-04-26T16:14:29.978Z</time></trkpt><trkpt lat="45.20582854335759" lon="8.305232419979575"><ele>133.0</ele><time>2026-04-26T16:14:30.978Z</time></trkpt><trkpt lat="45.20605023788247" lon="8.305089112087247"><ele>135.0</ele><time>2026-04-26T16:14:31.978Z</time></trkpt><trkpt lat="45.206261363173425" lon="8.304951555018967"><ele>135.0</ele><time>2026-04-26T16:14:32.978Z</time></trkpt><trkpt lat="45.20646111037376" lon="8.304822369469672"><ele>135.0</ele><time>2026-04-26T16:14:33.978Z</time></trkpt><trkpt lat="45.20665061103582" lon="8.304702999476534"><ele>135.0</ele><time>2026-04-26T16:14:34.978Z</time></trkpt><trkpt lat="45.20683240409707" lon="8.304596563972522"><ele>136.66666666666666</ele><time>2026-04-26T16:14:35.978Z</time></trkpt><trkpt lat="45.207011098192496" lon="8.304503108590813"><ele>138.33333333333331</ele><time>2026-04-26T16:14:36.978Z</time></trkpt><trkpt lat="45.20717579379898" lon="8.30441711058982"><ele>140.0</ele><time>2026-04-26T16:14:37.978Z</time></trkpt><trkpt lat="45.20731878946345" lon="8.30434122621703"><ele>139.75</ele><time>2026-04-26T16:14:38.978Z</time></trkpt><trkpt lat="45.20744028259333" lon="8.304266282908355"><ele>139.5</ele><time>2026-04-26T16:14:39.978Z</time></trkpt><trkpt lat="45.20754680190103" lon="8.304190657693582"><ele>139.25</ele><time>2026-04-26T16:14:40.978Z</time></trkpt><trkpt lat="45.20764588297625" lon="8.304138701401348"><ele>139.0</ele><time>2026-04-26T16:14:41.978Z</time></trkpt><trkpt lat="45.20774887062028" lon="8.30411938223767"><ele>139.0</ele><time>2026-04-26T16:14:42.978Z</time></trkpt><trkpt lat="45.20785816524151" lon="8.304135468208031"><ele>139.0</ele><time>2026-04-26T16:14:43.978Z</time></trkpt><trkpt lat="45.20797230378078" lon="8.304127136237897"><ele>139.0</ele><time>2026-04-26T16:14:44.978Z</time></trkpt><trkpt lat="45.20808652222831" lon="8.304077462037244"><ele>139.0</ele><time>2026-04-26T16:14:45.978Z</time></trkpt><trkpt lat="45.20820222427265" lon="8.304026036193598"><ele>139.25</ele><time>2026-04-26T16:14:46.977Z</time></trkpt><trkpt lat="45.208315582390576" lon="8.304008874337246"><ele>139.5</ele><time>2026-04-26T16:14:47.977Z</time></trkpt><trkpt lat="45.20842687739228" lon="8.304024987619849"><ele>139.75</ele><time>2026-04-26T16:14:48.977Z</time></trkpt><trkpt lat="45.20854494802722" lon="8.304051823471116"><ele>140.0</ele><time>2026-04-26T16:14:49.977Z</time></trkpt><trkpt lat="45.20867617676846" lon="8.30408661907671"><ele>140.0</ele><time>2026-04-26T16:14:50.977Z</time></trkpt><trkpt lat="45.20880996000966" lon="8.304144038546054"><ele>140.0</ele><time>2026-04-26T16:14:51.977Z</time></trkpt><trkpt lat="45.20895631647685" lon="8.304180228032983"><ele>140.0</ele><time>2026-04-26T16:14:52.977Z</time></trkpt><trkpt lat="45.209107262352454" lon="8.304212499496439"><ele>140.0</ele><time>2026-04-26T16:14:53.977Z</time></trkpt><trkpt lat="45.209265813128624" lon="8.304241035561134"><ele>140.33333333333331</ele><time>2026-04-26T16:14:54.977Z</time></trkpt><trkpt lat="45.20943069465043" lon="8.3042745137598"><ele>140.66666666666666</ele><time>2026-04-26T16:14:55.977Z</time></trkpt><trkpt lat="45.20959937951599" lon="8.30432429259332"><ele>141.0</ele><time>2026-04-26T16:14:56.977Z</time></trkpt><trkpt lat="45.209772682541036" lon="8.304386719429331"><ele>140.66666666666666</ele><time>2026-04-26T16:14:57.977Z</time></trkpt><trkpt lat="45.20995602037131" lon="8.304468022041016"><ele>140.33333333333331</ele><time>2026-04-26T16:14:58.977Z</time></trkpt><trkpt lat="45.210149400989785" lon="8.304560056982243"><ele>140.0</ele><time>2026-04-26T16:14:59.977Z</time></trkpt><trkpt lat="45.210347701948166" lon="8.304652115352388"><ele>140.5</ele><time>2026-04-26T16:15:00.977Z</time></trkpt><trkpt lat="45.21055759501604" lon="8.304747404697762"><ele>141.0</ele><time>2026-04-26T16:15:01.977Z</time></trkpt><trkpt lat="45.21078107442796" lon="8.304844417043174"><ele>142.0</ele><time>2026-04-26T16:15:02.977Z</time></trkpt><trkpt lat="45.2110138614965" lon="8.304947157613494"><ele>143.0</ele><time>2026-04-26T16:15:03.977Z</time></trkpt><trkpt lat="45.21126311359636" lon="8.305051801847323"><ele>142.0</ele><time>2026-04-26T16:15:04.977Z</time></trkpt><trkpt lat="45.21152365002604" lon="8.305163432556236"><ele>141.0</ele><time>2026-04-26T16:15:05.977Z</time></trkpt><trkpt lat="45.21180919646537" lon="8.305289800679924"><ele>141.0</ele><time>2026-04-26T16:15:06.977Z</time></trkpt><trkpt lat="45.21209891660372" lon="8.305449549314405"><ele>141.0</ele><time>2026-04-26T16:15:07.977Z</time></trkpt><trkpt lat="45.212413469532386" lon="8.305580556350149"><ele>141.5</ele><time>2026-04-26T16:15:08.977Z</time></trkpt><trkpt lat="45.212739152544366" lon="8.3057519068237"><ele>142.0</ele><time>2026-04-26T16:15:09.977Z</time></trkpt><trkpt lat="45.21305546922769" lon="8.305940368974584"><ele>141.5</ele><time>2026-04-26T16:15:10.977Z</time></trkpt><trkpt lat="45.21339389796476" lon="8.306137894599946"><ele>141.0</ele><time>2026-04-26T16:15:11.977Z</time></trkpt><trkpt lat="45.213733908190825" lon="8.306332516883238"><ele>141.0</ele><time>2026-04-26T16:15:12.977Z</time></trkpt><trkpt lat="45.21406428613698" lon="8.306484253334908"><ele>141.0</ele><time>2026-04-26T16:15:13.977Z</time></trkpt><trkpt lat="45.21439036146223" lon="8.30663538454243"><ele>141.0</ele><time>2026-04-26T16:15:14.977Z</time></trkpt><trkpt lat="45.2143865826869" lon="8.30652348526068"><ele>141.0</ele><time>2026-04-26T16:15:15.977Z</time></trkpt><trkpt lat="45.214662009923074" lon="8.306649045025283"><ele>141.0</ele><time>2026-04-26T16:15:16.977Z</time></trkpt><trkpt lat="45.21493179793146" lon="8.30676971197522"><ele>142.0</ele><time>2026-04-26T16:15:17.977Z</time></trkpt><trkpt lat="45.21519887852436" lon="8.306890392410905"><ele>143.0</ele><time>2026-04-26T16:15:18.977Z</time></trkpt><trkpt lat="45.21546370730529" lon="8.307011720941375"><ele>142.5</ele><time>2026-04-26T16:15:19.977Z</time></trkpt><trkpt lat="45.215724418830035" lon="8.307133222356757"><ele>142.0</ele><time>2026-04-26T16:15:20.977Z</time></trkpt><trkpt lat="45.215983287693035" lon="8.307256005570698"><ele>141.5</ele><time>2026-04-26T16:15:21.977Z</time></trkpt><trkpt lat="45.21624275570471" lon="8.307376044529269"><ele>141.0</ele><time>2026-04-26T16:15:22.977Z</time></trkpt><trkpt lat="45.216503651537224" lon="8.307493697518002"><ele>141.0</ele><time>2026-04-26T16:15:23.977Z</time></trkpt><trkpt lat="45.21676127417069" lon="8.307611621939353"><ele>141.0</ele><time>2026-04-26T16:15:24.977Z</time></trkpt><trkpt lat="45.2170164299736" lon="8.307731226925927"><ele>141.0</ele><time>2026-04-26T16:15:25.977Z</time></trkpt><trkpt lat="45.217270914516874" lon="8.307850208977763"><ele>141.0</ele><time>2026-04-26T16:15:26.977Z</time></trkpt><trkpt lat="45.21752850291807" lon="8.30796790322565"><ele>140.5</ele><time>2026-04-26T16:15:27.977Z</time></trkpt><trkpt lat="45.217788242613615" lon="8.308084642000965"><ele>140.0</ele><time>2026-04-26T16:15:28.977Z</time></trkpt><trkpt lat="45.21804397590007" lon="8.30820755704543"><ele>140.0</ele><time>2026-04-26T16:15:29.977Z</time></trkpt><trkpt lat="45.21830227487641" lon="8.30832656945685"><ele>140.0</ele><time>2026-04-26T16:15:30.977Z</time></trkpt><trkpt lat="45.21855948040698" lon="8.30844395963457"><ele>140.0</ele><time>2026-04-26T16:15:31.977Z</time></trkpt><trkpt lat="45.21881641737087" lon="8.308562645406214"><ele>140.0</ele><time>2026-04-26T16:15:32.977Z</time></trkpt><trkpt lat="45.219072275026534" lon="8.308681436899358"><ele>140.0</ele><time>2026-04-26T16:15:33.977Z</time></trkpt><trkpt lat="45.219330735188585" lon="8.308804597238046"><ele>140.0</ele><time>2026-04-26T16:15:34.977Z</time></trkpt><trkpt lat="45.219587147813" lon="8.308925732301674"><ele>139.5</ele><time>2026-04-26T16:15:35.977Z</time></trkpt><trkpt lat="45.21984587789712" lon="8.309048633443982"><ele>139.0</ele><time>2026-04-26T16:15:36.976Z</time></trkpt><trkpt lat="45.22010237536811" lon="8.309170073780983"><ele>139.0</ele><time>2026-04-26T16:15:37.976Z</time></trkpt><trkpt lat="45.22035759649009" lon="8.309285327708494"><ele>139.0</ele><time>2026-04-26T16:15:38.976Z</time></trkpt><trkpt lat="45.22060582177101" lon="8.309404695203956"><ele>139.0</ele><time>2026-04-26T16:15:39.976Z</time></trkpt><trkpt lat="45.220850743435264" lon="8.309536978331865"><ele>139.0</ele><time>2026-04-26T16:15:40.976Z</time></trkpt><trkpt lat="45.22109578711249" lon="8.30967767316916"><ele>138.0</ele><time>2026-04-26T16:15:41.976Z</time></trkpt><trkpt lat="45.22133384786025" lon="8.309831301839383"><ele>137.0</ele><time>2026-04-26T16:15:42.976Z</time></trkpt><trkpt lat="45.22156891101668" lon="8.309999826718801"><ele>137.0</ele><time>2026-04-26T16:15:43.976Z</time></trkpt><trkpt lat="45.221798360971114" lon="8.310180371801382"><ele>137.0</ele><time>2026-04-26T16:15:44.976Z</time></trkpt><trkpt lat="45.22202208103608" lon="8.310367072743047"><ele>137.0</ele><time>2026-04-26T16:15:45.976Z</time></trkpt><trkpt lat="45.2222401900391" lon="8.310560575796549"><ele>137.0</ele><time>2026-04-26T16:15:46.976Z</time></trkpt><trkpt lat="45.22245089256897" lon="8.310763146648018"><ele>137.0</ele><time>2026-04-26T16:15:47.976Z</time></trkpt><trkpt lat="45.222658515255375" lon="8.310979197092317"><ele>137.0</ele><time>2026-04-26T16:15:48.976Z</time></trkpt><trkpt lat="45.22286006889498" lon="8.311202009504555"><ele>137.0</ele><time>2026-04-26T16:15:49.976Z</time></trkpt><trkpt lat="45.22305068367646" lon="8.311431945735938"><ele>137.0</ele><time>2026-04-26T16:15:50.976Z</time></trkpt><trkpt lat="45.22323403785564" lon="8.311668902367396"><ele>137.5</ele><time>2026-04-26T16:15:51.976Z</time></trkpt><trkpt lat="45.22341611270792" lon="8.311901770818759"><ele>138.0</ele><time>2026-04-26T16:15:52.976Z</time></trkpt><trkpt lat="45.223595020834125" lon="8.312133110359245"><ele>137.5</ele><time>2026-04-26T16:15:53.976Z</time></trkpt><trkpt lat="45.22377452856146" lon="8.312359492055865"><ele>137.0</ele><time>2026-04-26T16:15:54.976Z</time></trkpt><trkpt lat="45.223954452094965" lon="8.312579729541643"><ele>137.5</ele><time>2026-04-26T16:15:55.976Z</time></trkpt><trkpt lat="45.224131751406404" lon="8.31279697062485"><ele>138.0</ele><time>2026-04-26T16:15:56.976Z</time></trkpt><trkpt lat="45.22430266701486" lon="8.313016768354942"><ele>138.0</ele><time>2026-04-26T16:15:57.976Z</time></trkpt><trkpt lat="45.22446769114978" lon="8.313239450594427"><ele>138.0</ele><time>2026-04-26T16:15:58.976Z</time></trkpt><trkpt lat="45.22463018308376" lon="8.313461887727987"><ele>138.0</ele><time>2026-04-26T16:15:59.976Z</time></trkpt><trkpt lat="45.224792445927896" lon="8.313686867370473"><ele>138.0</ele><time>2026-04-26T16:16:00.976Z</time></trkpt><trkpt lat="45.22495686588022" lon="8.313917997511155"><ele>138.5</ele><time>2026-04-26T16:16:01.976Z</time></trkpt><trkpt lat="45.22511596375599" lon="8.31415824600135"><ele>139.0</ele><time>2026-04-26T16:16:02.976Z</time></trkpt><trkpt lat="45.225271958779224" lon="8.314408301587001"><ele>139.0</ele><time>2026-04-26T16:16:03.976Z</time></trkpt><trkpt lat="45.225424124352486" lon="8.314670902234067"><ele>139.0</ele><time>2026-04-26T16:16:04.976Z</time></trkpt><trkpt lat="45.22557104423397" lon="8.314941114616383"><ele>139.5</ele><time>2026-04-26T16:16:05.976Z</time></trkpt><trkpt lat="45.22570505314338" lon="8.315217966376927"><ele>140.0</ele><time>2026-04-26T16:16:06.976Z</time></trkpt><trkpt lat="45.22583010224398" lon="8.315497050377653"><ele>140.0</ele><time>2026-04-26T16:16:07.976Z</time></trkpt><trkpt lat="45.22594866180814" lon="8.31577579749041"><ele>140.0</ele><time>2026-04-26T16:16:08.976Z</time></trkpt><trkpt lat="45.22606282297669" lon="8.31605846331498"><ele>140.0</ele><time>2026-04-26T16:16:09.976Z</time></trkpt><trkpt lat="45.22617616968459" lon="8.316342613961362"><ele>140.0</ele><time>2026-04-26T16:16:10.976Z</time></trkpt><trkpt lat="45.226288479854" lon="8.316631163290516"><ele>139.5</ele><time>2026-04-26T16:16:11.976Z</time></trkpt><trkpt lat="45.226401228425225" lon="8.316928971221897"><ele>139.0</ele><time>2026-04-26T16:16:12.976Z</time></trkpt><trkpt lat="45.22651466465766" lon="8.317233802814528"><ele>140.0</ele><time>2026-04-26T16:16:13.976Z</time></trkpt><trkpt lat="45.22663191882461" lon="8.317546644836874"><ele>141.0</ele><time>2026-04-26T16:16:14.976Z</time></trkpt><trkpt lat="45.226754525444704" lon="8.317878135785966"><ele>141.0</ele><time>2026-04-26T16:16:15.976Z</time></trkpt><trkpt lat="45.226883808491664" lon="8.318223990572342"><ele>141.0</ele><time>2026-04-26T16:16:16.976Z</time></trkpt><trkpt lat="45.22701746753945" lon="8.31858280304063"><ele>140.0</ele><time>2026-04-26T16:16:17.976Z</time></trkpt><trkpt lat="45.227145576542696" lon="8.31895678461773"><ele>139.0</ele><time>2026-04-26T16:16:18.976Z</time></trkpt><trkpt lat="45.22726992538066" lon="8.319338007729794"><ele>139.5</ele><time>2026-04-26T16:16:19.976Z</time></trkpt><trkpt lat="45.22740057957357" lon="8.319708478591327"><ele>140.0</ele><time>2026-04-26T16:16:20.976Z</time></trkpt><trkpt lat="45.22753269065666" lon="8.320066004237951"><ele>140.0</ele><time>2026-04-26T16:16:21.976Z</time></trkpt><trkpt lat="45.22766043824216" lon="8.320418892960117"><ele>140.0</ele><time>2026-04-26T16:16:22.976Z</time></trkpt><trkpt lat="45.22778786773097" lon="8.320764703355005"><ele>140.0</ele><time>2026-04-26T16:16:23.976Z</time></trkpt><trkpt lat="45.22791535185857" lon="8.321102449526949"><ele>140.0</ele><time>2026-04-26T16:16:24.976Z</time></trkpt><trkpt lat="45.228040727721485" lon="8.321434033376603"><ele>140.5</ele><time>2026-04-26T16:16:25.976Z</time></trkpt><trkpt lat="45.22816175406179" lon="8.321768628487323"><ele>141.0</ele><time>2026-04-26T16:16:26.975Z</time></trkpt><trkpt lat="45.2282818358396" lon="8.322100798708087"><ele>141.0</ele><time>2026-04-26T16:16:27.975Z</time></trkpt><trkpt lat="45.22840198568877" lon="8.322428637840083"><ele>141.0</ele><time>2026-04-26T16:16:28.975Z</time></trkpt><trkpt lat="45.228522106948624" lon="8.322759770284135"><ele>140.0</ele><time>2026-04-26T16:16:29.975Z</time></trkpt><trkpt lat="45.22864073935999" lon="8.323081605347765"><ele>139.0</ele><time>2026-04-26T16:16:30.975Z</time></trkpt><trkpt lat="45.228758032976764" lon="8.32340778313444"><ele>139.0</ele><time>2026-04-26T16:16:31.975Z</time></trkpt><trkpt lat="45.22887629003516" lon="8.323737061989554"><ele>139.0</ele><time>2026-04-26T16:16:32.975Z</time></trkpt><trkpt lat="45.228995203150745" lon="8.324066942175962"><ele>139.5</ele><time>2026-04-26T16:16:33.975Z</time></trkpt><trkpt lat="45.22911400145757" lon="8.324395827346569"><ele>140.0</ele><time>2026-04-26T16:16:34.975Z</time></trkpt><trkpt lat="45.22923617519188" lon="8.32472879961295"><ele>140.0</ele><time>2026-04-26T16:16:35.975Z</time></trkpt><trkpt lat="45.229356836873535" lon="8.32506093843655"><ele>140.0</ele><time>2026-04-26T16:16:36.975Z</time></trkpt><trkpt lat="45.22948022589639" lon="8.32539832821059"><ele>139.5</ele><time>2026-04-26T16:16:37.99Z</time></trkpt><trkpt lat="45.22960376656463" lon="8.325733482840537"><ele>139.0</ele><time>2026-04-26T16:16:38.99Z</time></trkpt><trkpt lat="45.22972712950495" lon="8.326069771935241"><ele>140.0</ele><time>2026-04-26T16:16:39.99Z</time></trkpt><trkpt lat="45.22985188917762" lon="8.326399702938234"><ele>141.0</ele><time>2026-04-26T16:16:40.99Z</time></trkpt><trkpt lat="45.229982768513615" lon="8.326723188139294"><ele>141.0</ele><time>2026-04-26T16:16:41.99Z</time></trkpt><trkpt lat="45.23012190770255" lon="8.327039607506427"><ele>141.0</ele><time>2026-04-26T16:16:42.99Z</time></trkpt><trkpt lat="45.230267060576395" lon="8.327347847373762"><ele>141.5</ele><time>2026-04-26T16:16:43.99Z</time></trkpt><trkpt lat="45.23041892143353" lon="8.327648104190033"><ele>142.0</ele><time>2026-04-26T16:16:44.99Z</time></trkpt><trkpt lat="45.23057727395323" lon="8.327940930164694"><ele>141.5</ele><time>2026-04-26T16:16:45.99Z</time></trkpt><trkpt lat="45.23074182875288" lon="8.328229398410919"><ele>141.0</ele><time>2026-04-26T16:16:46.99Z</time></trkpt><trkpt lat="45.23091400061101" lon="8.328509168705454"><ele>141.0</ele><time>2026-04-26T16:16:47.99Z</time></trkpt><trkpt lat="45.23109988526341" lon="8.328769652168427"><ele>141.0</ele><time>2026-04-26T16:16:48.99Z</time></trkpt><trkpt lat="45.23129485620224" lon="8.32902764215132"><ele>139.0</ele><time>2026-04-26T16:16:49.99Z</time></trkpt><trkpt lat="45.23149329127341" lon="8.329276027829682"><ele>137.0</ele><time>2026-04-26T16:16:50.989Z</time></trkpt><trkpt lat="45.23169436616429" lon="8.329519038265532"><ele>137.5</ele><time>2026-04-26T16:16:51.989Z</time></trkpt><trkpt lat="45.23190204472334" lon="8.329757368508874"><ele>138.0</ele><time>2026-04-26T16:16:52.989Z</time></trkpt><trkpt lat="45.23211911742681" lon="8.329978083375556"><ele>137.5</ele><time>2026-04-26T16:16:53.989Z</time></trkpt><trkpt lat="45.23233847885353" lon="8.330183129031948"><ele>137.0</ele><time>2026-04-26T16:16:54.989Z</time></trkpt><trkpt lat="45.2325723932236" lon="8.330376785922317"><ele>137.0</ele><time>2026-04-26T16:16:55.989Z</time></trkpt><trkpt lat="45.23281208493996" lon="8.330558292235771"><ele>137.0</ele><time>2026-04-26T16:16:56.989Z</time></trkpt><trkpt lat="45.23305312523734" lon="8.33073779485296"><ele>137.5</ele><time>2026-04-26T16:16:57.989Z</time></trkpt><trkpt lat="45.23329519918588" lon="8.330913721610163"><ele>138.0</ele><time>2026-04-26T16:16:58.989Z</time></trkpt><trkpt lat="45.233535725251556" lon="8.331090963374903"><ele>138.0</ele><time>2026-04-26T16:16:59.989Z</time></trkpt><trkpt lat="45.23377364158936" lon="8.331269944455613"><ele>138.0</ele><time>2026-04-26T16:17:00.989Z</time></trkpt><trkpt lat="45.23401442374277" lon="8.331449796026261"><ele>138.0</ele><time>2026-04-26T16:17:01.989Z</time></trkpt><trkpt lat="45.23425141166047" lon="8.331628460215462"><ele>138.0</ele><time>2026-04-26T16:17:02.989Z</time></trkpt><trkpt lat="45.234490481623" lon="8.331802610753401"><ele>138.0</ele><time>2026-04-26T16:17:03.989Z</time></trkpt><trkpt lat="45.23473381452709" lon="8.331976503164489"><ele>138.0</ele><time>2026-04-26T16:17:04.989Z</time></trkpt><trkpt lat="45.23497283743429" lon="8.332159685811906"><ele>137.5</ele><time>2026-04-26T16:17:05.989Z</time></trkpt><trkpt lat="45.23521296986976" lon="8.332338851402831"><ele>137.0</ele><time>2026-04-26T16:17:06.989Z</time></trkpt><trkpt lat="45.235450538646944" lon="8.33251624382017"><ele>137.0</ele><time>2026-04-26T16:17:07.989Z</time></trkpt><trkpt lat="45.23568670942224" lon="8.332693098242924"><ele>137.0</ele><time>2026-04-26T16:17:08.989Z</time></trkpt><trkpt lat="45.23592088068222" lon="8.332865216687527"><ele>137.0</ele><time>2026-04-26T16:17:09.989Z</time></trkpt><trkpt lat="45.236152392340486" lon="8.33303922766956"><ele>137.0</ele><time>2026-04-26T16:17:10.989Z</time></trkpt><trkpt lat="45.23637937865679" lon="8.333210249130584"><ele>136.0</ele><time>2026-04-26T16:17:11.989Z</time></trkpt><trkpt lat="45.23660492115638" lon="8.333381963101477"><ele>135.0</ele><time>2026-04-26T16:17:12.989Z</time></trkpt><trkpt lat="45.2368331053908" lon="8.333552270003437"><ele>135.0</ele><time>2026-04-26T16:17:13.989Z</time></trkpt><trkpt lat="45.23706237240271" lon="8.33372109515128"><ele>135.0</ele><time>2026-04-26T16:17:14.989Z</time></trkpt><trkpt lat="45.23728647859621" lon="8.33388460770633"><ele>134.0</ele><time>2026-04-26T16:17:15.989Z</time></trkpt><trkpt lat="45.237511382394466" lon="8.334057866186638"><ele>133.0</ele><time>2026-04-26T16:17:16.989Z</time></trkpt><trkpt lat="45.23773492052371" lon="8.334225957478353"><ele>133.0</ele><time>2026-04-26T16:17:17.989Z</time></trkpt><trkpt lat="45.23795771586214" lon="8.334391257110404"><ele>133.0</ele><time>2026-04-26T16:17:18.989Z</time></trkpt><trkpt lat="45.23817438793967" lon="8.334556807437886"><ele>133.0</ele><time>2026-04-26T16:17:19.989Z</time></trkpt><trkpt lat="45.23838621678774" lon="8.334720100755087"><ele>133.0</ele><time>2026-04-26T16:17:20.989Z</time></trkpt><trkpt lat="45.2385936193796" lon="8.334875265871066"><ele>133.33333333333334</ele><time>2026-04-26T16:17:21.989Z</time></trkpt><trkpt lat="45.2387858448971" lon="8.33501840779915"><ele>133.66666666666666</ele><time>2026-04-26T16:17:22.989Z</time></trkpt><trkpt lat="45.23897304417232" lon="8.335156566495007"><ele>134.0</ele><time>2026-04-26T16:17:23.989Z</time></trkpt><trkpt lat="45.23915133925711" lon="8.335289372127727"><ele>134.0</ele><time>2026-04-26T16:17:24.99Z</time></trkpt><trkpt lat="45.23932018451083" lon="8.335414571878983"><ele>134.0</ele><time>2026-04-26T16:17:25.991Z</time></trkpt><trkpt lat="45.23947472926509" lon="8.3355300965692"><ele>134.0</ele><time>2026-04-26T16:17:26.991Z</time></trkpt><trkpt lat="45.2396142011741" lon="8.335632578882825"><ele>134.0</ele><time>2026-04-26T16:17:27.99Z</time></trkpt><trkpt lat="45.239743215473744" lon="8.335728620337898"><ele>134.0</ele><time>2026-04-26T16:17:28.99Z</time></trkpt><trkpt lat="45.23985090590504" lon="8.335821293091689"><ele>134.0</ele><time>2026-04-26T16:17:29.99Z</time></trkpt><trkpt lat="45.23992664512311" lon="8.335938636976845"><ele>134.0</ele><time>2026-04-26T16:17:30.99Z</time></trkpt><trkpt lat="45.23998580875033" lon="8.336052974196038"><ele>134.0</ele><time>2026-04-26T16:17:31.991Z</time></trkpt><trkpt lat="45.24006042183491" lon="8.336141532385193"><ele>134.0</ele><time>2026-04-26T16:17:32.991Z</time></trkpt><trkpt lat="45.24016190865051" lon="8.336190597141073"><ele>134.0</ele><time>2026-04-26T16:17:33.991Z</time></trkpt><trkpt lat="45.24028873444698" lon="8.336213182901245"><ele>134.0</ele><time>2026-04-26T16:17:34.99Z</time></trkpt><trkpt lat="45.24043150133767" lon="8.336257549442543"><ele>134.0</ele><time>2026-04-26T16:17:35.99Z</time></trkpt><trkpt lat="45.240573927223004" lon="8.33634315067177"><ele>134.0</ele><time>2026-04-26T16:17:36.99Z</time></trkpt><trkpt lat="45.24071904222083" lon="8.33646279180831"><ele>134.0</ele><time>2026-04-26T16:17:37.99Z</time></trkpt><trkpt lat="45.240882397875595" lon="8.33659069949905"><ele>133.33333333333331</ele><time>2026-04-26T16:17:38.99Z</time></trkpt><trkpt lat="45.24105881365914" lon="8.336715584265187"><ele>132.66666666666666</ele><time>2026-04-26T16:17:39.99Z</time></trkpt><trkpt lat="45.24124305552936" lon="8.336847597578869"><ele>132.0</ele><time>2026-04-26T16:17:40.99Z</time></trkpt><trkpt lat="45.241428502984135" lon="8.33698348494083"><ele>131.66666666666666</ele><time>2026-04-26T16:17:41.99Z</time></trkpt><trkpt lat="45.241602493204915" lon="8.337119330032719"><ele>131.33333333333331</ele><time>2026-04-26T16:17:42.99Z</time></trkpt><trkpt lat="45.24178064663867" lon="8.33724856219909"><ele>131.0</ele><time>2026-04-26T16:17:43.99Z</time></trkpt><trkpt lat="45.24196804426178" lon="8.337384533225901"><ele>131.0</ele><time>2026-04-26T16:17:44.99Z</time></trkpt><trkpt lat="45.24216235923083" lon="8.337526057115308"><ele>131.0</ele><time>2026-04-26T16:17:45.99Z</time></trkpt><trkpt lat="45.24236444088251" lon="8.33767275579678"><ele>131.0</ele><time>2026-04-26T16:17:46.99Z</time></trkpt><trkpt lat="45.24256987191463" lon="8.337820932256776"><ele>130.66666666666666</ele><time>2026-04-26T16:17:47.99Z</time></trkpt><trkpt lat="45.24276406657899" lon="8.337964344451615"><ele>130.33333333333334</ele><time>2026-04-26T16:17:48.99Z</time></trkpt><trkpt lat="45.24294177126257" lon="8.338096956271409"><ele>130.0</ele><time>2026-04-26T16:17:49.99Z</time></trkpt><trkpt lat="45.243121477596375" lon="8.33823197141492"><ele>130.33333333333334</ele><time>2026-04-26T16:17:50.99Z</time></trkpt><trkpt lat="45.24329890453305" lon="8.338366313618982"><ele>130.66666666666666</ele><time>2026-04-26T16:17:51.99Z</time></trkpt><trkpt lat="45.24346784607037" lon="8.338495051064136"><ele>131.0</ele><time>2026-04-26T16:17:52.99Z</time></trkpt><trkpt lat="45.24362578784442" lon="8.33861591324437"><ele>131.0</ele><time>2026-04-26T16:17:53.99Z</time></trkpt><trkpt lat="45.24377153194745" lon="8.338729114473251"><ele>131.0</ele><time>2026-04-26T16:17:54.99Z</time></trkpt><trkpt lat="45.24390972054482" lon="8.338835913699544"><ele>131.0</ele><time>2026-04-26T16:17:55.99Z</time></trkpt><trkpt lat="45.24403302848882" lon="8.338927570147725"><ele>131.0</ele><time>2026-04-26T16:17:56.99Z</time></trkpt><trkpt lat="45.244136765211564" lon="8.339012579143091"><ele>131.0</ele><time>2026-04-26T16:17:57.99Z</time></trkpt><trkpt lat="45.24422364967698" lon="8.33910699587987"><ele>131.0</ele><time>2026-04-26T16:17:58.99Z</time></trkpt><trkpt lat="45.2442920188852" lon="8.339212153570763"><ele>131.0</ele><time>2026-04-26T16:17:59.99Z</time></trkpt><trkpt lat="45.24433969150664" lon="8.339318297735073"><ele>131.0</ele><time>2026-04-26T16:18:00.99Z</time></trkpt><trkpt lat="45.24439834167986" lon="8.339413379824538"><ele>131.0</ele><time>2026-04-26T16:18:01.99Z</time></trkpt><trkpt lat="45.24447268314319" lon="8.339472799792693"><ele>131.0</ele><time>2026-04-26T16:18:02.99Z</time></trkpt><trkpt lat="45.24456996319181" lon="8.339498100637202"><ele>131.0</ele><time>2026-04-26T16:18:03.99Z</time></trkpt><trkpt lat="45.244681043054996" lon="8.339501847380848"><ele>131.0</ele><time>2026-04-26T16:18:04.99Z</time></trkpt><trkpt lat="45.24480798238567" lon="8.339528705594455"><ele>131.0</ele><time>2026-04-26T16:18:05.99Z</time></trkpt><trkpt lat="45.24494079157972" lon="8.339606214456158"><ele>131.0</ele><time>2026-04-26T16:18:06.99Z</time></trkpt><trkpt lat="45.24507823673411" lon="8.339710645828852"><ele>131.0</ele><time>2026-04-26T16:18:07.99Z</time></trkpt><trkpt lat="45.24522634190069" lon="8.339828408756329"><ele>131.0</ele><time>2026-04-26T16:18:08.99Z</time></trkpt><trkpt lat="45.2453892822744" lon="8.33995121871421"><ele>130.66666666666666</ele><time>2026-04-26T16:18:09.99Z</time></trkpt><trkpt lat="45.24556285048508" lon="8.340081306825033"><ele>130.33333333333334</ele><time>2026-04-26T16:18:10.99Z</time></trkpt><trkpt lat="45.245744421161675" lon="8.340218351378482"><ele>130.0</ele><time>2026-04-26T16:18:11.99Z</time></trkpt><trkpt lat="45.24591552721254" lon="8.34034689176923"><ele>129.66666666666669</ele><time>2026-04-26T16:18:12.99Z</time></trkpt><trkpt lat="45.246089201103075" lon="8.340475723116214"><ele>129.33333333333334</ele><time>2026-04-26T16:18:13.99Z</time></trkpt><trkpt lat="45.246269897785716" lon="8.340610334409352"><ele>129.0</ele><time>2026-04-26T16:18:14.99Z</time></trkpt><trkpt lat="45.246454814123226" lon="8.340748873972899"><ele>129.0</ele><time>2026-04-26T16:18:15.99Z</time></trkpt><trkpt lat="45.24664375305038" lon="8.340889900833105"><ele>129.0</ele><time>2026-04-26T16:18:16.989Z</time></trkpt><trkpt lat="45.24683687567052" lon="8.341034662389301"><ele>129.0</ele><time>2026-04-26T16:18:17.989Z</time></trkpt><trkpt lat="45.247032047833514" lon="8.341182949172417"><ele>129.0</ele><time>2026-04-26T16:18:18.989Z</time></trkpt><trkpt lat="45.24723220718297" lon="8.341336096864314"><ele>129.0</ele><time>2026-04-26T16:18:19.989Z</time></trkpt><trkpt lat="45.247432748432864" lon="8.341489749529371"><ele>129.66666666666666</ele><time>2026-04-26T16:18:20.989Z</time></trkpt><trkpt lat="45.24762168482975" lon="8.341633257703952"><ele>130.33333333333331</ele><time>2026-04-26T16:18:21.989Z</time></trkpt><trkpt lat="45.247809053663445" lon="8.34177299245975"><ele>131.0</ele><time>2026-04-26T16:18:22.989Z</time></trkpt><trkpt lat="45.24799812378246" lon="8.341916827722198"><ele>131.0</ele><time>2026-04-26T16:18:23.989Z</time></trkpt><trkpt lat="45.24818849440633" lon="8.342061588215888"><ele>131.0</ele><time>2026-04-26T16:18:24.989Z</time></trkpt><trkpt lat="45.24838203817918" lon="8.342204986221267"><ele>131.0</ele><time>2026-04-26T16:18:25.989Z</time></trkpt><trkpt lat="45.2485770028797" lon="8.342350556555118"><ele>131.0</ele><time>2026-04-26T16:18:26.989Z</time></trkpt><trkpt lat="45.24877122577887" lon="8.342499005441086"><ele>131.0</ele><time>2026-04-26T16:18:27.989Z</time></trkpt><trkpt lat="45.24896812598393" lon="8.34264670271312"><ele>131.0</ele><time>2026-04-26T16:18:28.989Z</time></trkpt><trkpt lat="45.24916377665236" lon="8.342794052940361"><ele>131.5</ele><time>2026-04-26T16:18:29.989Z</time></trkpt><trkpt lat="45.24936281780635" lon="8.342941030422608"><ele>132.0</ele><time>2026-04-26T16:18:30.989Z</time></trkpt><trkpt lat="45.24956469750619" lon="8.343089656085638"><ele>132.0</ele><time>2026-04-26T16:18:31.989Z</time></trkpt><trkpt lat="45.2497692026131" lon="8.343242868087275"><ele>132.0</ele><time>2026-04-26T16:18:32.989Z</time></trkpt><trkpt lat="45.249974767516456" lon="8.3433985608651"><ele>131.5</ele><time>2026-04-26T16:18:33.989Z</time></trkpt><trkpt lat="45.250181040840424" lon="8.343555816821315"><ele>131.0</ele><time>2026-04-26T16:18:34.989Z</time></trkpt><trkpt lat="45.250388396113195" lon="8.343710588420143"><ele>131.0</ele><time>2026-04-26T16:18:35.989Z</time></trkpt><trkpt lat="45.250596973460574" lon="8.343864472538808"><ele>131.0</ele><time>2026-04-26T16:18:36.989Z</time></trkpt><trkpt lat="45.25080794355208" lon="8.344021278327942"><ele>130.5</ele><time>2026-04-26T16:18:37.989Z</time></trkpt><trkpt lat="45.25101868969537" lon="8.344178589949813"><ele>130.0</ele><time>2026-04-26T16:18:38.989Z</time></trkpt><trkpt lat="45.25122133270878" lon="8.34433044065797"><ele>130.0</ele><time>2026-04-26T16:18:39.989Z</time></trkpt><trkpt lat="45.25142411220314" lon="8.344479621086942"><ele>130.0</ele><time>2026-04-26T16:18:40.989Z</time></trkpt><trkpt lat="45.25163089631908" lon="8.344631840670472"><ele>131.0</ele><time>2026-04-26T16:18:41.989Z</time></trkpt><trkpt lat="45.251839522990515" lon="8.344789234187594"><ele>132.0</ele><time>2026-04-26T16:18:42.989Z</time></trkpt><trkpt lat="45.25205049446641" lon="8.344949793903757"><ele>132.0</ele><time>2026-04-26T16:18:43.989Z</time></trkpt><trkpt lat="45.25226473656225" lon="8.345111630160963"><ele>132.0</ele><time>2026-04-26T16:18:44.989Z</time></trkpt><trkpt lat="45.252483501280594" lon="8.345276079049782"><ele>132.0</ele><time>2026-04-26T16:18:45.989Z</time></trkpt><trkpt lat="45.2527043879652" lon="8.345441609607262"><ele>132.0</ele><time>2026-04-26T16:18:46.989Z</time></trkpt><trkpt lat="45.25292865711864" lon="8.345608289343852"><ele>131.5</ele><time>2026-04-26T16:18:47.989Z</time></trkpt><trkpt lat="45.253155605158824" lon="8.345777446597785"><ele>131.0</ele><time>2026-04-26T16:18:48.989Z</time></trkpt><trkpt lat="45.253384454044024" lon="8.345946190967927"><ele>131.0</ele><time>2026-04-26T16:18:49.989Z</time></trkpt><trkpt lat="45.25361966501047" lon="8.346108586620735"><ele>131.0</ele><time>2026-04-26T16:18:50.989Z</time></trkpt><trkpt lat="45.25385727984295" lon="8.346267130577868"><ele>131.0</ele><time>2026-04-26T16:18:51.989Z</time></trkpt><trkpt lat="45.254097718811806" lon="8.346422960257074"><ele>131.0</ele><time>2026-04-26T16:18:52.989Z</time></trkpt><trkpt lat="45.25433955361674" lon="8.346575755815659"><ele>131.0</ele><time>2026-04-26T16:18:53.989Z</time></trkpt><trkpt lat="45.25458252258142" lon="8.346726478661912"><ele>131.0</ele><time>2026-04-26T16:18:54.989Z</time></trkpt><trkpt lat="45.25482427352194" lon="8.346875086467852"><ele>131.0</ele><time>2026-04-26T16:18:55.989Z</time></trkpt><trkpt lat="45.255063638704755" lon="8.34701668680831"><ele>131.0</ele><time>2026-04-26T16:18:56.989Z</time></trkpt><trkpt lat="45.255302618909695" lon="8.34715428840952"><ele>131.0</ele><time>2026-04-26T16:18:57.989Z</time></trkpt><trkpt lat="45.25553899681373" lon="8.347292843727233"><ele>131.0</ele><time>2026-04-26T16:18:58.989Z</time></trkpt><trkpt lat="45.255773018144076" lon="8.347431172335403"><ele>131.0</ele><time>2026-04-26T16:18:59.989Z</time></trkpt><trkpt lat="45.256002328193176" lon="8.347567988135655"><ele>131.0</ele><time>2026-04-26T16:19:00.989Z</time></trkpt><trkpt lat="45.25622770858934" lon="8.347702009324212"><ele>131.0</ele><time>2026-04-26T16:19:01.989Z</time></trkpt><trkpt lat="45.256450027670574" lon="8.347832274659998"><ele>131.0</ele><time>2026-04-26T16:19:02.989Z</time></trkpt><trkpt lat="45.25667063132323" lon="8.347963843872055"><ele>131.5</ele><time>2026-04-26T16:19:03.989Z</time></trkpt><trkpt lat="45.256890047694576" lon="8.348101131902354"><ele>132.0</ele><time>2026-04-26T16:19:04.989Z</time></trkpt><trkpt lat="45.25710756176837" lon="8.34824539994677"><ele>132.0</ele><time>2026-04-26T16:19:05.989Z</time></trkpt><trkpt lat="45.25732419914823" lon="8.348396714187723"><ele>132.0</ele><time>2026-04-26T16:19:06.988Z</time></trkpt><trkpt lat="45.25754070415796" lon="8.348553084690792"><ele>132.0</ele><time>2026-04-26T16:19:07.988Z</time></trkpt><trkpt lat="45.25775531473194" lon="8.348713170468814"><ele>132.0</ele><time>2026-04-26T16:19:08.988Z</time></trkpt><trkpt lat="45.25796902203271" lon="8.348878309617794"><ele>132.5</ele><time>2026-04-26T16:19:09.988Z</time></trkpt><trkpt lat="45.258180362653285" lon="8.34905107749594"><ele>133.0</ele><time>2026-04-26T16:19:10.988Z</time></trkpt><trkpt lat="45.258386740645065" lon="8.34922973514075"><ele>133.0</ele><time>2026-04-26T16:19:11.988Z</time></trkpt><trkpt lat="45.258590225155785" lon="8.349414038043431"><ele>133.0</ele><time>2026-04-26T16:19:12.988Z</time></trkpt><trkpt lat="45.2587916537068" lon="8.34960251464501"><ele>132.5</ele><time>2026-04-26T16:19:13.988Z</time></trkpt><trkpt lat="45.258992380473316" lon="8.349795272283812"><ele>132.0</ele><time>2026-04-26T16:19:14.988Z</time></trkpt><trkpt lat="45.25918951998575" lon="8.349994287151246"><ele>132.0</ele><time>2026-04-26T16:19:15.988Z</time></trkpt><trkpt lat="45.25938313851428" lon="8.350197877188375"><ele>132.0</ele><time>2026-04-26T16:19:16.988Z</time></trkpt><trkpt lat="45.25957354647155" lon="8.35040850336893"><ele>132.0</ele><time>2026-04-26T16:19:17.988Z</time></trkpt><trkpt lat="45.25975864497861" lon="8.35062458559407"><ele>132.0</ele><time>2026-04-26T16:19:18.988Z</time></trkpt><trkpt lat="45.25993640316604" lon="8.350848532909042"><ele>132.0</ele><time>2026-04-26T16:19:19.988Z</time></trkpt><trkpt lat="45.260101000231025" lon="8.351079320361809"><ele>132.0</ele><time>2026-04-26T16:19:20.988Z</time></trkpt><trkpt lat="45.260257279365774" lon="8.35131599647322"><ele>131.5</ele><time>2026-04-26T16:19:21.988Z</time></trkpt><trkpt lat="45.26040804698208" lon="8.351556759685577"><ele>131.0</ele><time>2026-04-26T16:19:22.988Z</time></trkpt><trkpt lat="45.26055229308553" lon="8.351798835920814"><ele>131.0</ele><time>2026-04-26T16:19:23.988Z</time></trkpt><trkpt lat="45.26069301662748" lon="8.35204302601858"><ele>131.0</ele><time>2026-04-26T16:19:24.988Z</time></trkpt><trkpt lat="45.26082667871157" lon="8.352289330455514"><ele>131.0</ele><time>2026-04-26T16:19:25.988Z</time></trkpt><trkpt lat="45.2609538253988" lon="8.35254120837675"><ele>131.0</ele><time>2026-04-26T16:19:26.988Z</time></trkpt><trkpt lat="45.26107388602103" lon="8.352798603939412"><ele>131.0</ele><time>2026-04-26T16:19:27.988Z</time></trkpt><trkpt lat="45.261190425813886" lon="8.353057748907164"><ele>131.0</ele><time>2026-04-26T16:19:28.988Z</time></trkpt><trkpt lat="45.26130549044209" lon="8.353315543142546"><ele>131.0</ele><time>2026-04-26T16:19:29.988Z</time></trkpt><trkpt lat="45.26142002984631" lon="8.353573535814263"><ele>131.0</ele><time>2026-04-26T16:19:30.989Z</time></trkpt><trkpt lat="45.261535631672174" lon="8.353829089048572"><ele>131.0</ele><time>2026-04-26T16:19:31.99Z</time></trkpt><trkpt lat="45.26164938363643" lon="8.354084198576166"><ele>130.33333333333331</ele><time>2026-04-26T16:19:32.99Z</time></trkpt><trkpt lat="45.261761753661254" lon="8.354338396171961"><ele>129.66666666666666</ele><time>2026-04-26T16:19:33.989Z</time></trkpt><trkpt lat="45.26187390609758" lon="8.35459047317643"><ele>129.0</ele><time>2026-04-26T16:19:34.989Z</time></trkpt><trkpt lat="45.26198484198466" lon="8.354841631041754"><ele>129.0</ele><time>2026-04-26T16:19:35.989Z</time></trkpt><trkpt lat="45.262095350803364" lon="8.355093379196147"><ele>129.0</ele><time>2026-04-26T16:19:36.989Z</time></trkpt><trkpt lat="45.26220546279089" lon="8.355344837309994"><ele>129.0</ele><time>2026-04-26T16:19:37.989Z</time></trkpt><trkpt lat="45.262315652862924" lon="8.355597156341409"><ele>129.33333333333334</ele><time>2026-04-26T16:19:38.989Z</time></trkpt><trkpt lat="45.2624265173309" lon="8.355850522544745"><ele>129.66666666666669</ele><time>2026-04-26T16:19:39.989Z</time></trkpt><trkpt lat="45.262537800044335" lon="8.356103977561503"><ele>130.0</ele><time>2026-04-26T16:19:40.989Z</time></trkpt><trkpt lat="45.26265008491339" lon="8.356356861096069"><ele>129.66666666666669</ele><time>2026-04-26T16:19:41.989Z</time></trkpt><trkpt lat="45.26276286969518" lon="8.356609323882415"><ele>129.33333333333334</ele><time>2026-04-26T16:19:42.99Z</time></trkpt><trkpt lat="45.26287539101603" lon="8.356862878983183"><ele>129.0</ele><time>2026-04-26T16:19:43.989Z</time></trkpt><trkpt lat="45.26298696255856" lon="8.357119855700608"><ele>129.0</ele><time>2026-04-26T16:19:44.989Z</time></trkpt><trkpt lat="45.26309870662859" lon="8.357379428806412"><ele>129.0</ele><time>2026-04-26T16:19:45.989Z</time></trkpt><trkpt lat="45.26321293647968" lon="8.357641070260417"><ele>129.0</ele><time>2026-04-26T16:19:46.989Z</time></trkpt><trkpt lat="45.26332600417696" lon="8.357903133820765"><ele>130.0</ele><time>2026-04-26T16:19:47.989Z</time></trkpt><trkpt lat="45.26344141080933" lon="8.358165231467924"><ele>131.0</ele><time>2026-04-26T16:19:48.989Z</time></trkpt><trkpt lat="45.26355682308251" lon="8.358426298063463"><ele>132.0</ele><time>2026-04-26T16:19:49.989Z</time></trkpt><trkpt lat="45.26367354864213" lon="8.358686378968471"><ele>131.66666666666666</ele><time>2026-04-26T16:19:50.989Z</time></trkpt><trkpt lat="45.263788153945356" lon="8.358945415629263"><ele>131.33333333333331</ele><time>2026-04-26T16:19:51.989Z</time></trkpt><trkpt lat="45.263902490784744" lon="8.359208287210453"><ele>131.0</ele><time>2026-04-26T16:19:52.989Z</time></trkpt><trkpt lat="45.264017973293356" lon="8.359469917988653"><ele>130.66666666666666</ele><time>2026-04-26T16:19:53.989Z</time></trkpt><trkpt lat="45.26413283568895" lon="8.359730492993561"><ele>130.33333333333334</ele><time>2026-04-26T16:19:54.989Z</time></trkpt><trkpt lat="45.264247629490434" lon="8.359988804780942"><ele>130.0</ele><time>2026-04-26T16:19:55.989Z</time></trkpt><trkpt lat="45.26436044875154" lon="8.360245444610937"><ele>130.0</ele><time>2026-04-26T16:19:56.989Z</time></trkpt><trkpt lat="45.26447196424741" lon="8.360500949109841"><ele>130.0</ele><time>2026-04-26T16:19:57.989Z</time></trkpt><trkpt lat="45.26458395030175" lon="8.360756491297165"><ele>130.0</ele><time>2026-04-26T16:19:58.989Z</time></trkpt><trkpt lat="45.26469606160457" lon="8.361013991534035"><ele>130.0</ele><time>2026-04-26T16:19:59.989Z</time></trkpt><trkpt lat="45.26480931379101" lon="8.361272889962798"><ele>130.0</ele><time>2026-04-26T16:20:00.989Z</time></trkpt><trkpt lat="45.264923548647864" lon="8.36153011225051"><ele>130.0</ele><time>2026-04-26T16:20:01.989Z</time></trkpt><trkpt lat="45.26503953914509" lon="8.361785190178722"><ele>130.0</ele><time>2026-04-26T16:20:02.989Z</time></trkpt><trkpt lat="45.265154627385286" lon="8.362043341227514"><ele>130.0</ele><time>2026-04-26T16:20:03.989Z</time></trkpt><trkpt lat="45.265269200497066" lon="8.36230212929149"><ele>130.0</ele><time>2026-04-26T16:20:04.989Z</time></trkpt><trkpt lat="45.265384118758334" lon="8.36256236916755"><ele>129.66666666666669</ele><time>2026-04-26T16:20:05.989Z</time></trkpt><trkpt lat="45.265498752398386" lon="8.362822750404979"><ele>129.33333333333334</ele><time>2026-04-26T16:20:06.989Z</time></trkpt><trkpt lat="45.26561270112423" lon="8.36308495443614"><ele>129.0</ele><time>2026-04-26T16:20:07.989Z</time></trkpt><trkpt lat="45.265726700501034" lon="8.363348133706047"><ele>128.66666666666666</ele><time>2026-04-26T16:20:08.989Z</time></trkpt><trkpt lat="45.265839376081516" lon="8.36360989440466"><ele>128.33333333333331</ele><time>2026-04-26T16:20:09.989Z</time></trkpt><trkpt lat="45.265953008663416" lon="8.363869365928382"><ele>128.0</ele><time>2026-04-26T16:20:10.989Z</time></trkpt><trkpt lat="45.26606572928292" lon="8.364127196515721"><ele>128.0</ele><time>2026-04-26T16:20:11.989Z</time></trkpt><trkpt lat="45.2661820854901" lon="8.3643790327533"><ele>128.0</ele><time>2026-04-26T16:20:12.989Z</time></trkpt><trkpt lat="45.266301772576455" lon="8.364621465680287"><ele>128.0</ele><time>2026-04-26T16:20:13.989Z</time></trkpt><trkpt lat="45.266426404610854" lon="8.364857516557022"><ele>128.0</ele><time>2026-04-26T16:20:14.989Z</time></trkpt><trkpt lat="45.26655333878998" lon="8.365088382222702"><ele>128.0</ele><time>2026-04-26T16:20:15.989Z</time></trkpt><trkpt lat="45.2666840025555" lon="8.36531725390971"><ele>128.0</ele><time>2026-04-26T16:20:16.989Z</time></trkpt><trkpt lat="45.26681578954127" lon="8.36554016801084"><ele>128.33333333333331</ele><time>2026-04-26T16:20:17.989Z</time></trkpt><trkpt lat="45.266951943370366" lon="8.365759610936847"><ele>128.66666666666666</ele><time>2026-04-26T16:20:18.989Z</time></trkpt><trkpt lat="45.26709521428904" lon="8.365972728067785"><ele>129.0</ele><time>2026-04-26T16:20:19.989Z</time></trkpt><trkpt lat="45.267242526341825" lon="8.366181399480881"><ele>129.33333333333334</ele><time>2026-04-26T16:20:20.989Z</time></trkpt><trkpt lat="45.26739361391829" lon="8.3663843381057"><ele>129.66666666666669</ele><time>2026-04-26T16:20:21.989Z</time></trkpt><trkpt lat="45.267555507995766" lon="8.366576320034397"><ele>130.0</ele><time>2026-04-26T16:20:22.989Z</time></trkpt><trkpt lat="45.267716777185065" lon="8.36676363620128"><ele>130.0</ele><time>2026-04-26T16:20:23.988Z</time></trkpt><trkpt lat="45.26788387298915" lon="8.366945753324169"><ele>130.0</ele><time>2026-04-26T16:20:24.988Z</time></trkpt><trkpt lat="45.268058115821724" lon="8.367114948022238"><ele>130.0</ele><time>2026-04-26T16:20:25.988Z</time></trkpt><trkpt lat="45.26823418686937" lon="8.367274755475272"><ele>130.0</ele><time>2026-04-26T16:20:26.988Z</time></trkpt><trkpt lat="45.26841193938114" lon="8.367427321387469"><ele>130.0</ele><time>2026-04-26T16:20:27.988Z</time></trkpt><trkpt lat="45.2685914947946" lon="8.36757508003404"><ele>130.0</ele><time>2026-04-26T16:20:28.988Z</time></trkpt><trkpt lat="45.26876758672303" lon="8.367715225788935"><ele>129.66666666666669</ele><time>2026-04-26T16:20:29.988Z</time></trkpt><trkpt lat="45.26894391306985" lon="8.367849622691821"><ele>129.33333333333334</ele><time>2026-04-26T16:20:30.988Z</time></trkpt><trkpt lat="45.269125162966844" lon="8.36797586358282"><ele>129.0</ele><time>2026-04-26T16:20:31.988Z</time></trkpt><trkpt lat="45.269301213386925" lon="8.368086074241983"><ele>129.0</ele><time>2026-04-26T16:20:32.988Z</time></trkpt><trkpt lat="45.26947464323872" lon="8.368184888575064"><ele>129.0</ele><time>2026-04-26T16:20:33.988Z</time></trkpt><trkpt lat="45.26964785800414" lon="8.368276623779744"><ele>129.0</ele><time>2026-04-26T16:20:34.988Z</time></trkpt><trkpt lat="45.26982429032252" lon="8.36836322080646"><ele>129.0</ele><time>2026-04-26T16:20:35.988Z</time></trkpt><trkpt lat="45.2700061206461" lon="8.368447001897193"><ele>129.0</ele><time>2026-04-26T16:20:36.988Z</time></trkpt><trkpt lat="45.27018954766724" lon="8.368524340821818"><ele>129.0</ele><time>2026-04-26T16:20:37.988Z</time></trkpt><trkpt lat="45.27037291330868" lon="8.368590679684194"><ele>129.0</ele><time>2026-04-26T16:20:38.988Z</time></trkpt><trkpt lat="45.27055567118646" lon="8.368650738750159"><ele>129.0</ele><time>2026-04-26T16:20:39.988Z</time></trkpt><trkpt lat="45.270738266299674" lon="8.368703040583277"><ele>129.0</ele><time>2026-04-26T16:20:40.988Z</time></trkpt><trkpt lat="45.27092710739831" lon="8.368752093535095"><ele>129.0</ele><time>2026-04-26T16:20:41.988Z</time></trkpt><trkpt lat="45.27112063100845" lon="8.368796478925532"><ele>129.0</ele><time>2026-04-26T16:20:42.988Z</time></trkpt><trkpt lat="45.27131923176953" lon="8.36883335572551"><ele>129.0</ele><time>2026-04-26T16:20:43.988Z</time></trkpt><trkpt lat="45.27152354591345" lon="8.368864573675442"><ele>129.0</ele><time>2026-04-26T16:20:44.988Z</time></trkpt><trkpt lat="45.2717330149499" lon="8.368890449397128"><ele>129.0</ele><time>2026-04-26T16:20:45.988Z</time></trkpt><trkpt lat="45.27195006867078" lon="8.36890715852044"><ele>129.0</ele><time>2026-04-26T16:20:46.988Z</time></trkpt><trkpt lat="45.27217200490622" lon="8.36891001678718"><ele>128.5</ele><time>2026-04-26T16:20:47.988Z</time></trkpt><trkpt lat="45.27239745489183" lon="8.368903748403138"><ele>128.0</ele><time>2026-04-26T16:20:48.988Z</time></trkpt><trkpt lat="45.272626171343994" lon="8.368886045905615"><ele>127.5</ele><time>2026-04-26T16:20:49.988Z</time></trkpt><trkpt lat="45.27285951019456" lon="8.368857722200396"><ele>127.0</ele><time>2026-04-26T16:20:50.988Z</time></trkpt><trkpt lat="45.273095667051976" lon="8.368823912628166"><ele>128.5</ele><time>2026-04-26T16:20:51.988Z</time></trkpt><trkpt lat="45.27333705893954" lon="8.368792568806152"><ele>130.0</ele><time>2026-04-26T16:20:52.988Z</time></trkpt><trkpt lat="45.27358137725678" lon="8.368760410351806"><ele>130.0</ele><time>2026-04-26T16:20:53.988Z</time></trkpt><trkpt lat="45.27382929872694" lon="8.36872613323778"><ele>130.0</ele><time>2026-04-26T16:20:54.988Z</time></trkpt><trkpt lat="45.274078035086255" lon="8.368688471480954"><ele>130.0</ele><time>2026-04-26T16:20:55.988Z</time></trkpt><trkpt lat="45.27432753572342" lon="8.368651921813818"><ele>130.0</ele><time>2026-04-26T16:20:56.988Z</time></trkpt><trkpt lat="45.27457611782668" lon="8.368618180982589"><ele>129.5</ele><time>2026-04-26T16:20:57.988Z</time></trkpt><trkpt lat="45.27482622130696" lon="8.368586577210634"><ele>129.0</ele><time>2026-04-26T16:20:58.988Z</time></trkpt><trkpt lat="45.27507312244116" lon="8.368555027736502"><ele>129.0</ele><time>2026-04-26T16:20:59.988Z</time></trkpt><trkpt lat="45.27531999371595" lon="8.368518649826107"><ele>129.0</ele><time>2026-04-26T16:21:00.988Z</time></trkpt><trkpt lat="45.27556586503204" lon="8.368481408055768"><ele>128.5</ele><time>2026-04-26T16:21:01.988Z</time></trkpt><trkpt lat="45.27580999577262" lon="8.368448654142474"><ele>128.0</ele><time>2026-04-26T16:21:02.988Z</time></trkpt><trkpt lat="45.2760503879682" lon="8.368421519214166"><ele>128.0</ele><time>2026-04-26T16:21:03.988Z</time></trkpt><trkpt lat="45.27628916414127" lon="8.368402778711248"><ele>128.0</ele><time>2026-04-26T16:21:04.988Z</time></trkpt><trkpt lat="45.27652699783829" lon="8.368394467044585"><ele>129.5</ele><time>2026-04-26T16:21:05.988Z</time></trkpt><trkpt lat="45.27675980724376" lon="8.368395874067541"><ele>131.0</ele><time>2026-04-26T16:21:06.988Z</time></trkpt><trkpt lat="45.27699245154148" lon="8.36840714475007"><ele>131.0</ele><time>2026-04-26T16:21:07.988Z</time></trkpt><trkpt lat="45.27722570258406" lon="8.368427630416557"><ele>131.0</ele><time>2026-04-26T16:21:08.988Z</time></trkpt><trkpt lat="45.277449279511025" lon="8.368460272989694"><ele>130.66666666666666</ele><time>2026-04-26T16:21:09.988Z</time></trkpt><trkpt lat="45.27766815195498" lon="8.368509039046982"><ele>130.33333333333334</ele><time>2026-04-26T16:21:10.988Z</time></trkpt><trkpt lat="45.27788397446502" lon="8.368566679203328"><ele>130.0</ele><time>2026-04-26T16:21:11.988Z</time></trkpt><trkpt lat="45.27809041351472" lon="8.368635656829849"><ele>130.0</ele><time>2026-04-26T16:21:12.988Z</time></trkpt><trkpt lat="45.2782825759147" lon="8.368706775445522"><ele>130.0</ele><time>2026-04-26T16:21:13.988Z</time></trkpt><trkpt lat="45.27846502768998" lon="8.368778968084671"><ele>130.0</ele><time>2026-04-26T16:21:14.987Z</time></trkpt><trkpt lat="45.27864113950222" lon="8.368848718461537"><ele>129.66666666666669</ele><time>2026-04-26T16:21:15.987Z</time></trkpt><trkpt lat="45.2788128350909" lon="8.368924067385425"><ele>129.33333333333334</ele><time>2026-04-26T16:21:16.987Z</time></trkpt><trkpt lat="45.27897951711045" lon="8.369006361042269"><ele>129.0</ele><time>2026-04-26T16:21:17.987Z</time></trkpt><trkpt lat="45.279130041446564" lon="8.369090491729759"><ele>129.4</ele><time>2026-04-26T16:21:18.987Z</time></trkpt><trkpt lat="45.279251730217425" lon="8.369177462036571"><ele>129.8</ele><time>2026-04-26T16:21:19.987Z</time></trkpt><trkpt lat="45.27933725534092" lon="8.369264112132642"><ele>130.2</ele><time>2026-04-26T16:21:20.987Z</time></trkpt><trkpt lat="45.279392857241085" lon="8.36937072006704"><ele>130.6</ele><time>2026-04-26T16:21:21.987Z</time></trkpt><trkpt lat="45.27944991327691" lon="8.369479328002512"><ele>131.0</ele><time>2026-04-26T16:21:22.987Z</time></trkpt><trkpt lat="45.27952905030917" lon="8.36955628618214"><ele>131.0</ele><time>2026-04-26T16:21:23.987Z</time></trkpt><trkpt lat="45.279628619245024" lon="8.369583359710118"><ele>131.0</ele><time>2026-04-26T16:21:24.987Z</time></trkpt><trkpt lat="45.279747056933765" lon="8.369577973648214"><ele>131.0</ele><time>2026-04-26T16:21:25.987Z</time></trkpt><trkpt lat="45.27987301144798" lon="8.369606901175635"><ele>131.0</ele><time>2026-04-26T16:21:26.987Z</time></trkpt><trkpt lat="45.28000801597674" lon="8.369686259268388"><ele>130.33333333333331</ele><time>2026-04-26T16:21:27.987Z</time></trkpt><trkpt lat="45.28015110597808" lon="8.369797380027581"><ele>129.66666666666666</ele><time>2026-04-26T16:21:28.987Z</time></trkpt><trkpt lat="45.2803054544292" lon="8.369923247885778"><ele>129.0</ele><time>2026-04-26T16:21:29.987Z</time></trkpt><trkpt lat="45.2804751509247" lon="8.370069771435007"><ele>128.66666666666666</ele><time>2026-04-26T16:21:30.987Z</time></trkpt><trkpt lat="45.28065469464612" lon="8.370237910896188"><ele>128.33333333333331</ele><time>2026-04-26T16:21:31.987Z</time></trkpt><trkpt lat="45.280822849503046" lon="8.370401487681026"><ele>128.0</ele><time>2026-04-26T16:21:32.987Z</time></trkpt><trkpt lat="45.28098787983359" lon="8.370570270226144"><ele>128.0</ele><time>2026-04-26T16:21:33.987Z</time></trkpt><trkpt lat="45.281153274435574" lon="8.370748547620398"><ele>128.0</ele><time>2026-04-26T16:21:34.987Z</time></trkpt><trkpt lat="45.28132073153338" lon="8.370934045335552"><ele>128.0</ele><time>2026-04-26T16:21:35.987Z</time></trkpt><trkpt lat="45.28149475367423" lon="8.37111640670603"><ele>128.66666666666666</ele><time>2026-04-26T16:21:36.988Z</time></trkpt><trkpt lat="45.281664943198706" lon="8.371310876036201"><ele>129.33333333333334</ele><time>2026-04-26T16:21:37.988Z</time></trkpt><trkpt lat="45.28183338116035" lon="8.3715109413965"><ele>130.0</ele><time>2026-04-26T16:21:38.988Z</time></trkpt><trkpt lat="45.28199425660928" lon="8.371699520327128"><ele>130.0</ele><time>2026-04-26T16:21:39.988Z</time></trkpt><trkpt lat="45.28216402606467" lon="8.371892047871762"><ele>130.0</ele><time>2026-04-26T16:21:40.988Z</time></trkpt><trkpt lat="45.28233602444756" lon="8.372087880543774"><ele>130.0</ele><time>2026-04-26T16:21:41.988Z</time></trkpt><trkpt lat="45.282507356587935" lon="8.372286054908633"><ele>130.0</ele><time>2026-04-26T16:21:42.988Z</time></trkpt><trkpt lat="45.28268091659269" lon="8.372484166732953"><ele>130.0</ele><time>2026-04-26T16:21:43.988Z</time></trkpt><trkpt lat="45.28285422663599" lon="8.37267830420585"><ele>130.0</ele><time>2026-04-26T16:21:44.988Z</time></trkpt><trkpt lat="45.283018940109265" lon="8.372865787392831"><ele>130.0</ele><time>2026-04-26T16:21:45.987Z</time></trkpt><trkpt lat="45.28318257056783" lon="8.373054441975285"><ele>130.0</ele><time>2026-04-26T16:21:46.988Z</time></trkpt><trkpt lat="45.28334959986141" lon="8.373247664659578"><ele>130.0</ele><time>2026-04-26T16:21:47.988Z</time></trkpt><trkpt lat="45.28351735538087" lon="8.373443212744139"><ele>130.0</ele><time>2026-04-26T16:21:48.988Z</time></trkpt><trkpt lat="45.283687984629736" lon="8.373638856908274"><ele>130.0</ele><time>2026-04-26T16:21:49.988Z</time></trkpt><trkpt lat="45.283861115090296" lon="8.373834087387143"><ele>130.0</ele><time>2026-04-26T16:21:50.988Z</time></trkpt><trkpt lat="45.28403418001928" lon="8.374031198154347"><ele>130.0</ele><time>2026-04-26T16:21:51.988Z</time></trkpt><trkpt lat="45.28420982943675" lon="8.374231524731167"><ele>130.0</ele><time>2026-04-26T16:21:52.988Z</time></trkpt><trkpt lat="45.28438734463465" lon="8.37443153915303"><ele>130.0</ele><time>2026-04-26T16:21:53.988Z</time></trkpt><trkpt lat="45.28456453015854" lon="8.37463267892728"><ele>130.0</ele><time>2026-04-26T16:21:54.988Z</time></trkpt><trkpt lat="45.28474042271653" lon="8.37483405642698"><ele>129.66666666666669</ele><time>2026-04-26T16:21:55.988Z</time></trkpt><trkpt lat="45.28491640226681" lon="8.375036166701452"><ele>129.33333333333334</ele><time>2026-04-26T16:21:56.988Z</time></trkpt><trkpt lat="45.28508964013711" lon="8.375235941925911"><ele>129.0</ele><time>2026-04-26T16:21:57.988Z</time></trkpt><trkpt lat="45.285266830042985" lon="8.375436040723777"><ele>129.0</ele><time>2026-04-26T16:21:58.988Z</time></trkpt><trkpt lat="45.28544273101729" lon="8.375633323827147"><ele>129.0</ele><time>2026-04-26T16:21:59.988Z</time></trkpt><trkpt lat="45.28561734417375" lon="8.375832753314226"><ele>129.0</ele><time>2026-04-26T16:22:00.988Z</time></trkpt><trkpt lat="45.28578921037663" lon="8.37603430032841"><ele>128.66666666666666</ele><time>2026-04-26T16:22:01.988Z</time></trkpt><trkpt lat="45.285960163959466" lon="8.376235698780192"><ele>128.33333333333331</ele><time>2026-04-26T16:22:02.988Z</time></trkpt><trkpt lat="45.28613308043268" lon="8.376436991804654"><ele>128.0</ele><time>2026-04-26T16:22:03.988Z</time></trkpt><trkpt lat="45.28630532897315" lon="8.376639986077546"><ele>128.5</ele><time>2026-04-26T16:22:04.988Z</time></trkpt><trkpt lat="45.286477240654925" lon="8.376845891559757"><ele>129.0</ele><time>2026-04-26T16:22:05.988Z</time></trkpt><trkpt lat="45.28664885906437" lon="8.377054602726826"><ele>129.0</ele><time>2026-04-26T16:22:06.988Z</time></trkpt><trkpt lat="45.28682015798337" lon="8.37726280662648"><ele>129.0</ele><time>2026-04-26T16:22:07.988Z</time></trkpt><trkpt lat="45.28699207378345" lon="8.377470140358977"><ele>129.0</ele><time>2026-04-26T16:22:08.988Z</time></trkpt><trkpt lat="45.28716506967488" lon="8.377678382572908"><ele>129.0</ele><time>2026-04-26T16:22:09.988Z</time></trkpt><trkpt lat="45.28733730336388" lon="8.377887494046957"><ele>129.0</ele><time>2026-04-26T16:22:10.988Z</time></trkpt><trkpt lat="45.28751064543263" lon="8.378095170139462"><ele>129.0</ele><time>2026-04-26T16:22:11.988Z</time></trkpt><trkpt lat="45.287686509337156" lon="8.378303280979868"><ele>129.0</ele><time>2026-04-26T16:22:12.988Z</time></trkpt><trkpt lat="45.287863131795504" lon="8.37851360075434"><ele>129.0</ele><time>2026-04-26T16:22:13.988Z</time></trkpt><trkpt lat="45.28803590743873" lon="8.378720809809955"><ele>129.33333333333334</ele><time>2026-04-26T16:22:14.988Z</time></trkpt><trkpt lat="45.288207000765695" lon="8.378922726957436"><ele>129.66666666666669</ele><time>2026-04-26T16:22:15.988Z</time></trkpt><trkpt lat="45.288376236397326" lon="8.37911967860692"><ele>130.0</ele><time>2026-04-26T16:22:16.988Z</time></trkpt><trkpt lat="45.28854685342916" lon="8.379316852803747"><ele>130.0</ele><time>2026-04-26T16:22:17.988Z</time></trkpt><trkpt lat="45.28872099123867" lon="8.379509703339915"><ele>130.0</ele><time>2026-04-26T16:22:18.988Z</time></trkpt><trkpt lat="45.28889825434512" lon="8.379701287829258"><ele>130.0</ele><time>2026-04-26T16:22:19.988Z</time></trkpt><trkpt lat="45.289076018107835" lon="8.37989433446055"><ele>130.0</ele><time>2026-04-26T16:22:20.988Z</time></trkpt><trkpt lat="45.28925446977366" lon="8.380089984172708"><ele>130.0</ele><time>2026-04-26T16:22:21.988Z</time></trkpt><trkpt lat="45.289434950866145" lon="8.38028733927737"><ele>130.0</ele><time>2026-04-26T16:22:22.988Z</time></trkpt><trkpt lat="45.28961743144675" lon="8.380485500439772"><ele>130.0</ele><time>2026-04-26T16:22:23.988Z</time></trkpt><trkpt lat="45.28979844629396" lon="8.380684114416807"><ele>129.0</ele><time>2026-04-26T16:22:24.988Z</time></trkpt><trkpt lat="45.289977215123415" lon="8.380881802143922"><ele>128.0</ele><time>2026-04-26T16:22:25.988Z</time></trkpt><trkpt lat="45.290154088883675" lon="8.381075342496926"><ele>128.0</ele><time>2026-04-26T16:22:26.988Z</time></trkpt><trkpt lat="45.290330118617995" lon="8.38126902013593"><ele>128.0</ele><time>2026-04-26T16:22:27.988Z</time></trkpt><trkpt lat="45.29050520250056" lon="8.381463932761292"><ele>128.0</ele><time>2026-04-26T16:22:28.988Z</time></trkpt><trkpt lat="45.29067983572404" lon="8.381660804497075"><ele>128.33333333333331</ele><time>2026-04-26T16:22:29.987Z</time></trkpt><trkpt lat="45.29085593646626" lon="8.381857219302507"><ele>128.66666666666666</ele><time>2026-04-26T16:22:30.987Z</time></trkpt><trkpt lat="45.29103303008449" lon="8.38205221242158"><ele>129.0</ele><time>2026-04-26T16:22:31.987Z</time></trkpt><trkpt lat="45.29121139465978" lon="8.382249205826188"><ele>129.5</ele><time>2026-04-26T16:22:32.987Z</time></trkpt><trkpt lat="45.291388908280084" lon="8.382447436096584"><ele>130.0</ele><time>2026-04-26T16:22:33.987Z</time></trkpt><trkpt lat="45.291569537680424" lon="8.382649002849694"><ele>130.5</ele><time>2026-04-26T16:22:34.987Z</time></trkpt><trkpt lat="45.2917519924701" lon="8.382851768102302"><ele>131.0</ele><time>2026-04-26T16:22:35.987Z</time></trkpt><trkpt lat="45.29193344548914" lon="8.383054151425569"><ele>131.0</ele><time>2026-04-26T16:22:36.987Z</time></trkpt><trkpt lat="45.292114692924365" lon="8.38325825113366"><ele>131.0</ele><time>2026-04-26T16:22:37.987Z</time></trkpt><trkpt lat="45.29229968689059" lon="8.38345993025436"><ele>131.0</ele><time>2026-04-26T16:22:38.987Z</time></trkpt><trkpt lat="45.29248152164909" lon="8.383658303771098"><ele>131.0</ele><time>2026-04-26T16:22:39.987Z</time></trkpt><trkpt lat="45.29266195601728" lon="8.383852092139303"><ele>131.33333333333331</ele><time>2026-04-26T16:22:40.987Z</time></trkpt><trkpt lat="45.29283792898025" lon="8.384043868003024"><ele>131.66666666666666</ele><time>2026-04-26T16:22:41.987Z</time></trkpt><trkpt lat="45.293011273115575" lon="8.384235497500677"><ele>132.0</ele><time>2026-04-26T16:22:42.987Z</time></trkpt><trkpt lat="45.29318180851964" lon="8.38442516725328"><ele>131.33333333333334</ele><time>2026-04-26T16:22:43.987Z</time></trkpt><trkpt lat="45.29335218011798" lon="8.384612316401357"><ele>130.66666666666669</ele><time>2026-04-26T16:22:44.987Z</time></trkpt><trkpt lat="45.29352216654728" lon="8.384799796821328"><ele>130.0</ele><time>2026-04-26T16:22:45.987Z</time></trkpt><trkpt lat="45.293687975509" lon="8.38498565936877"><ele>130.0</ele><time>2026-04-26T16:22:46.987Z</time></trkpt><trkpt lat="45.29385319081628" lon="8.38517162152484"><ele>130.0</ele><time>2026-04-26T16:22:47.987Z</time></trkpt><trkpt lat="45.294018869981635" lon="8.385357419841844"><ele>130.0</ele><time>2026-04-26T16:22:48.987Z</time></trkpt><trkpt lat="45.29418324028061" lon="8.385539759535202"><ele>130.0</ele><time>2026-04-26T16:22:49.987Z</time></trkpt><trkpt lat="45.29434564877493" lon="8.38571945750012"><ele>130.0</ele><time>2026-04-26T16:22:50.987Z</time></trkpt><trkpt lat="45.294505418995826" lon="8.385901646179933"><ele>130.0</ele><time>2026-04-26T16:22:51.987Z</time></trkpt><trkpt lat="45.29466207264572" lon="8.386076073880416"><ele>129.33333333333334</ele><time>2026-04-26T16:22:52.987Z</time></trkpt><trkpt lat="45.294815894506335" lon="8.386246334947916"><ele>128.66666666666666</ele><time>2026-04-26T16:22:53.987Z</time></trkpt><trkpt lat="45.29496521635478" lon="8.386412402175308"><ele>128.0</ele><time>2026-04-26T16:22:54.987Z</time></trkpt><trkpt lat="45.29511231739861" lon="8.386574801549228"><ele>128.0</ele><time>2026-04-26T16:22:55.987Z</time></trkpt><trkpt lat="45.29526186628752" lon="8.3867391621147"><ele>128.0</ele><time>2026-04-26T16:22:56.987Z</time></trkpt><trkpt lat="45.29541277336812" lon="8.38690668195351"><ele>128.0</ele><time>2026-04-26T16:22:57.987Z</time></trkpt><trkpt lat="45.29556349009016" lon="8.387075182929538"><ele>128.0</ele><time>2026-04-26T16:22:58.987Z</time></trkpt><trkpt lat="45.29571233540616" lon="8.387237765438865"><ele>128.0</ele><time>2026-04-26T16:22:59.987Z</time></trkpt><trkpt lat="45.29585930963171" lon="8.387397479661868"><ele>128.0</ele><time>2026-04-26T16:23:00.987Z</time></trkpt><trkpt lat="45.29600184242505" lon="8.387553651285478"><ele>128.0</ele><time>2026-04-26T16:23:01.987Z</time></trkpt><trkpt lat="45.29613497242322" lon="8.38770210616872"><ele>128.0</ele><time>2026-04-26T16:23:02.987Z</time></trkpt><trkpt lat="45.296258005053865" lon="8.387838958194601"><ele>128.0</ele><time>2026-04-26T16:23:03.987Z</time></trkpt><trkpt lat="45.29637258489656" lon="8.38796427356928"><ele>128.4</ele><time>2026-04-26T16:23:04.987Z</time></trkpt><trkpt lat="45.29647002420567" lon="8.388075196422493"><ele>128.8</ele><time>2026-04-26T16:23:05.987Z</time></trkpt><trkpt lat="45.296550527641784" lon="8.38817133513648"><ele>129.2</ele><time>2026-04-26T16:23:06.987Z</time></trkpt><trkpt lat="45.29662727378005" lon="8.388261866535652"><ele>129.6</ele><time>2026-04-26T16:23:07.987Z</time></trkpt><trkpt lat="45.29670037582652" lon="8.388342419231947"><ele>130.0</ele><time>2026-04-26T16:23:08.987Z</time></trkpt><trkpt lat="45.29676445200001" lon="8.388421158720687"><ele>130.0</ele><time>2026-04-26T16:23:09.987Z</time></trkpt><trkpt lat="45.29681031896134" lon="8.388514982273124"><ele>130.0</ele><time>2026-04-26T16:23:10.987Z</time></trkpt><trkpt lat="45.296833217349146" lon="8.388615436741691"><ele>130.0</ele><time>2026-04-26T16:23:11.987Z</time></trkpt><trkpt lat="45.29684503557121" lon="8.38872110370834"><ele>130.0</ele><time>2026-04-26T16:23:12.987Z</time></trkpt><trkpt lat="45.296855195521374" lon="8.388832027351944"><ele>130.0</ele><time>2026-04-26T16:23:13.987Z</time></trkpt><trkpt lat="45.296885342247194" lon="8.388934703777919"><ele>130.0</ele><time>2026-04-26T16:23:14.987Z</time></trkpt><trkpt lat="45.296941339659625" lon="8.389022726126282"><ele>130.0</ele><time>2026-04-26T16:23:15.987Z</time></trkpt><trkpt lat="45.297014522334926" lon="8.389082842802875"><ele>130.0</ele><time>2026-04-26T16:23:16.987Z</time></trkpt><trkpt lat="45.297096230807" lon="8.38911161162841"><ele>130.0</ele><time>2026-04-26T16:23:17.987Z</time></trkpt><trkpt lat="45.29718423714274" lon="8.38911883490732"><ele>130.0</ele><time>2026-04-26T16:23:18.987Z</time></trkpt><trkpt lat="45.297278692850085" lon="8.389121430261175"><ele>130.0</ele><time>2026-04-26T16:23:19.987Z</time></trkpt><trkpt lat="45.29736432198326" lon="8.389109872798304"><ele>130.0</ele><time>2026-04-26T16:23:20.986Z</time></trkpt><trkpt lat="45.29746380071777" lon="8.389205830421133"><ele>129.75</ele><time>2026-04-26T16:23:21.986Z</time></trkpt><trkpt lat="45.297560450818544" lon="8.389289882915708"><ele>129.5</ele><time>2026-04-26T16:23:22.986Z</time></trkpt><trkpt lat="45.29765921593846" lon="8.389388727890172"><ele>129.25</ele><time>2026-04-26T16:23:23.986Z</time></trkpt><trkpt lat="45.29776274952737" lon="8.389500145491308"><ele>129.0</ele><time>2026-04-26T16:23:24.986Z</time></trkpt><trkpt lat="45.297872058866936" lon="8.389621590465435"><ele>128.66666666666666</ele><time>2026-04-26T16:23:25.986Z</time></trkpt><trkpt lat="45.29798997961541" lon="8.389752732624657"><ele>128.33333333333331</ele><time>2026-04-26T16:23:26.986Z</time></trkpt><trkpt lat="45.2981112592457" lon="8.389884880279062"><ele>128.0</ele><time>2026-04-26T16:23:27.986Z</time></trkpt><trkpt lat="45.29823259676753" lon="8.390021953281277"><ele>128.0</ele><time>2026-04-26T16:23:28.986Z</time></trkpt><trkpt lat="45.29835198604984" lon="8.390155917940813"><ele>128.0</ele><time>2026-04-26T16:23:29.986Z</time></trkpt><trkpt lat="45.29846696029825" lon="8.390287934218833"><ele>128.0</ele><time>2026-04-26T16:23:30.986Z</time></trkpt><trkpt lat="45.298588304824456" lon="8.39042348823892"><ele>128.33333333333331</ele><time>2026-04-26T16:23:31.986Z</time></trkpt><trkpt lat="45.29870800767825" lon="8.390558351573855"><ele>128.66666666666666</ele><time>2026-04-26T16:23:32.986Z</time></trkpt><trkpt lat="45.29882861503467" lon="8.39069507102335"><ele>129.0</ele><time>2026-04-26T16:23:33.986Z</time></trkpt><trkpt lat="45.298948875364566" lon="8.390833543043724"><ele>128.0</ele><time>2026-04-26T16:23:34.986Z</time></trkpt><trkpt lat="45.29907283230983" lon="8.390970327422924"><ele>127.0</ele><time>2026-04-26T16:23:35.986Z</time></trkpt><trkpt lat="45.2991944841914" lon="8.391106183617977"><ele>126.0</ele><time>2026-04-26T16:23:36.986Z</time></trkpt><trkpt lat="45.29931793200439" lon="8.39124482657008"><ele>126.0</ele><time>2026-04-26T16:23:37.986Z</time></trkpt><trkpt lat="45.2994410790301" lon="8.391386012474422"><ele>126.0</ele><time>2026-04-26T16:23:38.986Z</time></trkpt><trkpt lat="45.29956566040874" lon="8.3915282415255"><ele>126.0</ele><time>2026-04-26T16:23:39.986Z</time></trkpt><trkpt lat="45.29968991718035" lon="8.391675142109955"><ele>126.33333333333334</ele><time>2026-04-26T16:23:40.986Z</time></trkpt><trkpt lat="45.299819222614985" lon="8.391818820540498"><ele>126.66666666666667</ele><time>2026-04-26T16:23:41.986Z</time></trkpt><trkpt lat="45.29995097044612" lon="8.391962085814885"><ele>127.0</ele><time>2026-04-26T16:23:42.987Z</time></trkpt><trkpt lat="45.30008194978559" lon="8.392108978178731"><ele>127.0</ele><time>2026-04-26T16:23:43.987Z</time></trkpt><trkpt lat="45.300211085272565" lon="8.392252959013673"><ele>127.0</ele><time>2026-04-26T16:23:44.987Z</time></trkpt><trkpt lat="45.300335750098554" lon="8.39238995186278"><ele>127.0</ele><time>2026-04-26T16:23:45.987Z</time></trkpt><trkpt lat="45.300461110303424" lon="8.392526631912526"><ele>127.66666666666667</ele><time>2026-04-26T16:23:46.986Z</time></trkpt><trkpt lat="45.3005855641804" lon="8.392663262592672"><ele>128.33333333333334</ele><time>2026-04-26T16:23:47.986Z</time></trkpt><trkpt lat="45.300712695663236" lon="8.392803800743854"><ele>129.0</ele><time>2026-04-26T16:23:48.987Z</time></trkpt><trkpt lat="45.30084014613257" lon="8.39294109853874"><ele>128.75</ele><time>2026-04-26T16:23:49.987Z</time></trkpt><trkpt lat="45.300965208267876" lon="8.393076476156244"><ele>128.5</ele><time>2026-04-26T16:23:50.987Z</time></trkpt><trkpt lat="45.301078851760785" lon="8.393202928749858"><ele>128.25</ele><time>2026-04-26T16:23:51.987Z</time></trkpt><trkpt lat="45.3011747731456" lon="8.393315980657869"><ele>128.0</ele><time>2026-04-26T16:23:52.986Z</time></trkpt><trkpt lat="45.30125485776259" lon="8.393410442603892"><ele>127.99999999999999</ele><time>2026-04-26T16:23:53.986Z</time></trkpt><trkpt lat="45.30132589118521" lon="8.393493060080045"><ele>128.0</ele><time>2026-04-26T16:23:54.987Z</time></trkpt><trkpt lat="45.30138933623347" lon="8.39356784755733"><ele>128.0</ele><time>2026-04-26T16:23:55.987Z</time></trkpt><trkpt lat="45.30144740822164" lon="8.393637810318845"><ele>128.0</ele><time>2026-04-26T16:23:56.987Z</time></trkpt><trkpt lat="45.30150589274643" lon="8.393702741734977"><ele>127.99999999999999</ele><time>2026-04-26T16:23:57.987Z</time></trkpt><trkpt lat="45.301562050921014" lon="8.393764912107061"><ele>128.0</ele><time>2026-04-26T16:23:58.987Z</time></trkpt><trkpt lat="45.301610254885944" lon="8.393834667465722"><ele>127.99999999999999</ele><time>2026-04-26T16:23:59.987Z</time></trkpt><trkpt lat="45.3016388078803" lon="8.393923884092123"><ele>128.0</ele><time>2026-04-26T16:24:00.987Z</time></trkpt><trkpt lat="45.301654541703684" lon="8.394032158954879"><ele>128.0</ele><time>2026-04-26T16:24:01.987Z</time></trkpt><trkpt lat="45.301666016518936" lon="8.394145867776954"><ele>128.0</ele><time>2026-04-26T16:24:02.987Z</time></trkpt><trkpt lat="45.3016803229046" lon="8.394255415859078"><ele>127.99999999999999</ele><time>2026-04-26T16:24:03.987Z</time></trkpt><trkpt lat="45.3017100240584" lon="8.394355754245101"><ele>128.0</ele><time>2026-04-26T16:24:04.987Z</time></trkpt><trkpt lat="45.30175779110039" lon="8.394442952106148"><ele>127.99999999999999</ele><time>2026-04-26T16:24:05.987Z</time></trkpt><trkpt lat="45.301819329441116" lon="8.394514131512793"><ele>128.0</ele><time>2026-04-26T16:24:06.987Z</time></trkpt><trkpt lat="45.301894477317695" lon="8.394560867109819"><ele>128.0</ele><time>2026-04-26T16:24:07.987Z</time></trkpt><trkpt lat="45.301973069849474" lon="8.394579680329482"><ele>128.0</ele><time>2026-04-26T16:24:08.987Z</time></trkpt><trkpt lat="45.30205233884636" lon="8.39457602487243"><ele>127.99999999999999</ele><time>2026-04-26T16:24:09.987Z</time></trkpt><trkpt lat="45.30213242775778" lon="8.394559252300207"><ele>128.0</ele><time>2026-04-26T16:24:10.987Z</time></trkpt><trkpt lat="45.30220074314317" lon="8.394525183114787"><ele>128.0</ele><time>2026-04-26T16:24:11.987Z</time></trkpt><trkpt lat="45.302294177392504" lon="8.394587536500081"><ele>128.0</ele><time>2026-04-26T16:24:12.987Z</time></trkpt><trkpt lat="45.302378402498505" lon="8.39464435744655"><ele>128.0</ele><time>2026-04-26T16:24:13.987Z</time></trkpt><trkpt lat="45.30246027208606" lon="8.394735213337226"><ele>128.0</ele><time>2026-04-26T16:24:14.987Z</time></trkpt><trkpt lat="45.302548790564366" lon="8.39483808036551"><ele>128.0</ele><time>2026-04-26T16:24:15.987Z</time></trkpt><trkpt lat="45.30264718153023" lon="8.394948889702645"><ele>128.0</ele><time>2026-04-26T16:24:16.987Z</time></trkpt><trkpt lat="45.30274747563122" lon="8.395063990158231"><ele>128.0</ele><time>2026-04-26T16:24:17.987Z</time></trkpt><trkpt lat="45.302849418678235" lon="8.395175126420101"><ele>128.0</ele><time>2026-04-26T16:24:18.987Z</time></trkpt><trkpt lat="45.30296340711811" lon="8.395302991241078"><ele>128.0</ele><time>2026-04-26T16:24:19.987Z</time></trkpt><trkpt lat="45.30309238835522" lon="8.395448205856425"><ele>128.66666666666666</ele><time>2026-04-26T16:24:20.987Z</time></trkpt><trkpt lat="45.30323251782467" lon="8.395598994084606"><ele>129.33333333333334</ele><time>2026-04-26T16:24:21.987Z</time></trkpt><trkpt lat="45.30337603899496" lon="8.395752877356859"><ele>130.0</ele><time>2026-04-26T16:24:22.987Z</time></trkpt><trkpt lat="45.30350983166107" lon="8.395898811988818"><ele>130.0</ele><time>2026-04-26T16:24:23.987Z</time></trkpt><trkpt lat="45.30363847001847" lon="8.396046553700309"><ele>130.0</ele><time>2026-04-26T16:24:24.987Z</time></trkpt><trkpt lat="45.303770227051025" lon="8.396195602438231"><ele>130.0</ele><time>2026-04-26T16:24:25.987Z</time></trkpt><trkpt lat="45.303904995112305" lon="8.396351838067233"><ele>130.66666666666669</ele><time>2026-04-26T16:24:26.987Z</time></trkpt><trkpt lat="45.30404261089367" lon="8.396510413257507"><ele>131.33333333333334</ele><time>2026-04-26T16:24:27.987Z</time></trkpt><trkpt lat="45.304182354537424" lon="8.396665707610364"><ele>132.0</ele><time>2026-04-26T16:24:28.987Z</time></trkpt><trkpt lat="45.3043161548124" lon="8.396811301893031"><ele>132.0</ele><time>2026-04-26T16:24:29.987Z</time></trkpt><trkpt lat="45.30444320232221" lon="8.396956284449304"><ele>132.0</ele><time>2026-04-26T16:24:30.987Z</time></trkpt><trkpt lat="45.30457693543369" lon="8.397106058098121"><ele>132.0</ele><time>2026-04-26T16:24:31.987Z</time></trkpt><trkpt lat="45.304713390672774" lon="8.397259834155857"><ele>131.0</ele><time>2026-04-26T16:24:32.986Z</time></trkpt><trkpt lat="45.30485384144327" lon="8.39741809042677"><ele>130.0</ele><time>2026-04-26T16:24:33.986Z</time></trkpt><trkpt lat="45.30499559010469" lon="8.39757884124673"><ele>129.0</ele><time>2026-04-26T16:24:34.986Z</time></trkpt><trkpt lat="45.30513757253939" lon="8.397734946419302"><ele>129.0</ele><time>2026-04-26T16:24:35.986Z</time></trkpt><trkpt lat="45.305277410964415" lon="8.397889175586931"><ele>129.0</ele><time>2026-04-26T16:24:36.986Z</time></trkpt><trkpt lat="45.30541798046019" lon="8.398043705343346"><ele>129.0</ele><time>2026-04-26T16:24:37.986Z</time></trkpt><trkpt lat="45.30555475440475" lon="8.398195002510045"><ele>128.66666666666666</ele><time>2026-04-26T16:24:38.986Z</time></trkpt><trkpt lat="45.30569319923108" lon="8.398345585583666"><ele>128.33333333333331</ele><time>2026-04-26T16:24:39.986Z</time></trkpt><trkpt lat="45.3058314253378" lon="8.398495846636287"><ele>128.0</ele><time>2026-04-26T16:24:40.986Z</time></trkpt><trkpt lat="45.305970260961445" lon="8.39864706504873"><ele>128.0</ele><time>2026-04-26T16:24:41.986Z</time></trkpt><trkpt lat="45.306109124315945" lon="8.398801312266386"><ele>128.0</ele><time>2026-04-26T16:24:42.986Z</time></trkpt><trkpt lat="45.30624861279408" lon="8.398959942980255"><ele>128.0</ele><time>2026-04-26T16:24:43.986Z</time></trkpt><trkpt lat="45.306389872647834" lon="8.399119770164809"><ele>128.66666666666666</ele><time>2026-04-26T16:24:44.986Z</time></trkpt><trkpt lat="45.30653384116538" lon="8.399283287325886"><ele>129.33333333333334</ele><time>2026-04-26T16:24:45.986Z</time></trkpt><trkpt lat="45.30668077977524" lon="8.399449549943887"><ele>130.0</ele><time>2026-04-26T16:24:46.986Z</time></trkpt><trkpt lat="45.306828057958604" lon="8.399614178382594"><ele>130.0</ele><time>2026-04-26T16:24:47.986Z</time></trkpt><trkpt lat="45.30697690696217" lon="8.39977830114084"><ele>130.0</ele><time>2026-04-26T16:24:48.986Z</time></trkpt><trkpt lat="45.30712143202188" lon="8.399939600829153"><ele>130.0</ele><time>2026-04-26T16:24:49.986Z</time></trkpt><trkpt lat="45.307266603264594" lon="8.400100944853506"><ele>129.66666666666669</ele><time>2026-04-26T16:24:50.986Z</time></trkpt><trkpt lat="45.30741201580545" lon="8.40026028713621"><ele>129.33333333333334</ele><time>2026-04-26T16:24:51.986Z</time></trkpt><trkpt lat="45.30755435324778" lon="8.40041972079765"><ele>129.0</ele><time>2026-04-26T16:24:52.986Z</time></trkpt><trkpt lat="45.30769231018049" lon="8.400577219684088"><ele>129.0</ele><time>2026-04-26T16:24:53.986Z</time></trkpt><trkpt lat="45.30782887578802" lon="8.400730344077003"><ele>129.0</ele><time>2026-04-26T16:24:54.986Z</time></trkpt><trkpt lat="45.30796100567171" lon="8.400874108383189"><ele>129.0</ele><time>2026-04-26T16:24:55.986Z</time></trkpt><trkpt lat="45.30808968987234" lon="8.401016033868348"><ele>129.33333333333334</ele><time>2026-04-26T16:24:56.986Z</time></trkpt><trkpt lat="45.30822119126611" lon="8.401157296886316"><ele>129.66666666666669</ele><time>2026-04-26T16:24:57.986Z</time></trkpt><trkpt lat="45.308350372018424" lon="8.401296366913865"><ele>130.0</ele><time>2026-04-26T16:24:58.986Z</time></trkpt><trkpt lat="45.30847734418317" lon="8.401434558595042"><ele>129.5</ele><time>2026-04-26T16:24:59.986Z</time></trkpt><trkpt lat="45.3085997515218" lon="8.401570883793694"><ele>129.0</ele><time>2026-04-26T16:25:00.986Z</time></trkpt><trkpt lat="45.308716591321215" lon="8.401700379814082"><ele>128.5</ele><time>2026-04-26T16:25:01.986Z</time></trkpt><trkpt lat="45.30882654999004" lon="8.401827910508954"><ele>128.0</ele><time>2026-04-26T16:25:02.986Z</time></trkpt><trkpt lat="45.308930614649775" lon="8.401959129319565"><ele>128.0</ele><time>2026-04-26T16:25:03.986Z</time></trkpt><trkpt lat="45.30903198269514" lon="8.402089054345131"><ele>128.0</ele><time>2026-04-26T16:25:04.986Z</time></trkpt><trkpt lat="45.309135722708895" lon="8.402207437216084"><ele>128.0</ele><time>2026-04-26T16:25:05.986Z</time></trkpt><trkpt lat="45.30923003034532" lon="8.402323117442327"><ele>128.0</ele><time>2026-04-26T16:25:06.986Z</time></trkpt><trkpt lat="45.30930909940612" lon="8.402447702889884"><ele>128.0</ele><time>2026-04-26T16:25:07.986Z</time></trkpt><trkpt lat="45.30936862347329" lon="8.402581860969294"><ele>128.0</ele><time>2026-04-26T16:25:08.986Z</time></trkpt><trkpt lat="45.309409764413495" lon="8.402724703673059"><ele>128.0</ele><time>2026-04-26T16:25:09.986Z</time></trkpt><trkpt lat="45.309406644154954" lon="8.402878435317605"><ele>128.0</ele><time>2026-04-26T16:25:10.986Z</time></trkpt><trkpt lat="45.30937431419645" lon="8.403031864232085"><ele>128.0</ele><time>2026-04-26T16:25:11.986Z</time></trkpt><trkpt lat="45.30931007844493" lon="8.403171212581514"><ele>128.0</ele><time>2026-04-26T16:25:12.986Z</time></trkpt><trkpt lat="45.3092178412084" lon="8.403281022450956"><ele>128.0</ele><time>2026-04-26T16:25:13.986Z</time></trkpt><trkpt lat="45.30911070447334" lon="8.40334197472431"><ele>128.0</ele><time>2026-04-26T16:25:14.986Z</time></trkpt><trkpt lat="45.30899477284965" lon="8.403353346926666"><ele>128.0</ele><time>2026-04-26T16:25:15.986Z</time></trkpt><trkpt lat="45.30887169460772" lon="8.40330067971892"><ele>127.75</ele><time>2026-04-26T16:25:16.986Z</time></trkpt><trkpt lat="45.30875585394297" lon="8.403193458374718"><ele>127.5</ele><time>2026-04-26T16:25:17.986Z</time></trkpt><trkpt lat="45.308641879290484" lon="8.403060755251769"><ele>127.25</ele><time>2026-04-26T16:25:18.986Z</time></trkpt><trkpt lat="45.308530092314385" lon="8.40292792297521"><ele>127.0</ele><time>2026-04-26T16:25:19.986Z</time></trkpt><trkpt lat="45.3084240822736" lon="8.402810864177635"><ele>127.0</ele><time>2026-04-26T16:25:20.986Z</time></trkpt><trkpt lat="45.30833124510481" lon="8.402713106271026"><ele>126.99999999999999</ele><time>2026-04-26T16:25:21.986Z</time></trkpt><trkpt lat="45.308249316677085" lon="8.402620808408725"><ele>126.99999999999999</ele><time>2026-04-26T16:25:22.985Z</time></trkpt><trkpt lat="45.308185796759695" lon="8.402523474374721"><ele>127.0</ele><time>2026-04-26T16:25:23.985Z</time></trkpt><trkpt lat="45.30814677944241" lon="8.402414316107556"><ele>127.0</ele><time>2026-04-26T16:25:24.985Z</time></trkpt><trkpt lat="45.308126275066826" lon="8.402298171177002"><ele>127.0</ele><time>2026-04-26T16:25:25.985Z</time></trkpt><trkpt lat="45.30812557744419" lon="8.402183666632293"><ele>126.99999999999999</ele><time>2026-04-26T16:25:26.985Z</time></trkpt><trkpt lat="45.308139857170644" lon="8.402064696254477"><ele>126.99999999999999</ele><time>2026-04-26T16:25:27.985Z</time></trkpt><trkpt lat="45.308167795750336" lon="8.40194273726104"><ele>127.0</ele><time>2026-04-26T16:25:28.985Z</time></trkpt><trkpt lat="45.30822104408163" lon="8.401826649072541"><ele>127.0</ele><time>2026-04-26T16:25:29.985Z</time></trkpt><trkpt lat="45.308251267893695" lon="8.401694263950965"><ele>127.0</ele><time>2026-04-26T16:25:30.985Z</time></trkpt><trkpt lat="45.30839779559921" lon="8.401632289539144"><ele>127.0</ele><time>2026-04-26T16:25:31.985Z</time></trkpt><trkpt lat="45.30851036203684" lon="8.40152749891301"><ele>127.0</ele><time>2026-04-26T16:25:32.985Z</time></trkpt><trkpt lat="45.30863516861537" lon="8.401409113503291"><ele>127.0</ele><time>2026-04-26T16:25:33.985Z</time></trkpt><trkpt lat="45.30877134698982" lon="8.401283726323351"><ele>128.0</ele><time>2026-04-26T16:25:34.985Z</time></trkpt><trkpt lat="45.30891593467531" lon="8.401154067198759"><ele>129.0</ele><time>2026-04-26T16:25:35.985Z</time></trkpt><trkpt lat="45.309056901352726" lon="8.401028470012882"><ele>130.0</ele><time>2026-04-26T16:25:36.985Z</time></trkpt><trkpt lat="45.30920797133227" lon="8.400893743667233"><ele>130.0</ele><time>2026-04-26T16:25:37.985Z</time></trkpt><trkpt lat="45.30936786275699" lon="8.40075676763211"><ele>130.0</ele><time>2026-04-26T16:25:38.985Z</time></trkpt><trkpt lat="45.30953955730058" lon="8.400607785502615"><ele>130.0</ele><time>2026-04-26T16:25:39.985Z</time></trkpt><trkpt lat="45.30971884047857" lon="8.400446820046142"><ele>129.0</ele><time>2026-04-26T16:25:40.985Z</time></trkpt><trkpt lat="45.30990787127635" lon="8.400292070314702"><ele>128.0</ele><time>2026-04-26T16:25:41.985Z</time></trkpt><trkpt lat="45.31008616682561" lon="8.400146741044134"><ele>127.0</ele><time>2026-04-26T16:25:42.985Z</time></trkpt><trkpt lat="45.31025555919214" lon="8.40000620405488"><ele>127.0</ele><time>2026-04-26T16:25:43.985Z</time></trkpt><trkpt lat="45.31042598148713" lon="8.399859111590859"><ele>127.0</ele><time>2026-04-26T16:25:44.985Z</time></trkpt><trkpt lat="45.31059733143985" lon="8.399711186156965"><ele>127.0</ele><time>2026-04-26T16:25:45.985Z</time></trkpt><trkpt lat="45.31076749350741" lon="8.39956472024327"><ele>127.0</ele><time>2026-04-26T16:25:46.985Z</time></trkpt><trkpt lat="45.3109358390578" lon="8.399419156452527"><ele>127.0</ele><time>2026-04-26T16:25:47.985Z</time></trkpt><trkpt lat="45.31110362995195" lon="8.399272617486934"><ele>127.0</ele><time>2026-04-26T16:25:48.985Z</time></trkpt><trkpt lat="45.31127537099184" lon="8.399127034168075"><ele>127.0</ele><time>2026-04-26T16:25:49.986Z</time></trkpt><trkpt lat="45.31145013916691" lon="8.39897728667188"><ele>127.0</ele><time>2026-04-26T16:25:50.986Z</time></trkpt><trkpt lat="45.31162824140401" lon="8.398825598328266"><ele>127.0</ele><time>2026-04-26T16:25:51.985Z</time></trkpt><trkpt lat="45.311806971269235" lon="8.398672725144369"><ele>127.0</ele><time>2026-04-26T16:25:52.985Z</time></trkpt><trkpt lat="45.31197857720984" lon="8.398525131543616"><ele>127.0</ele><time>2026-04-26T16:25:53.985Z</time></trkpt><trkpt lat="45.31215244779485" lon="8.398374873338442"><ele>127.0</ele><time>2026-04-26T16:25:54.985Z</time></trkpt><trkpt lat="45.31233046629954" lon="8.398221341816924"><ele>127.0</ele><time>2026-04-26T16:25:55.986Z</time></trkpt><trkpt lat="45.31251086115977" lon="8.398061655914827"><ele>127.0</ele><time>2026-04-26T16:25:56.986Z</time></trkpt><trkpt lat="45.31269528725591" lon="8.397901043093892"><ele>127.0</ele><time>2026-04-26T16:25:57.986Z</time></trkpt><trkpt lat="45.31288361651282" lon="8.397741199429314"><ele>127.0</ele><time>2026-04-26T16:25:58.985Z</time></trkpt><trkpt lat="45.31307153824367" lon="8.397583183800263"><ele>127.0</ele><time>2026-04-26T16:25:59.985Z</time></trkpt><trkpt lat="45.31325767095431" lon="8.397424685617924"><ele>127.0</ele><time>2026-04-26T16:26:00.986Z</time></trkpt><trkpt lat="45.31344171703617" lon="8.39726606941561"><ele>126.66666666666667</ele><time>2026-04-26T16:26:01.986Z</time></trkpt><trkpt lat="45.313627671278354" lon="8.397108199061638"><ele>126.33333333333334</ele><time>2026-04-26T16:26:02.986Z</time></trkpt><trkpt lat="45.31381437775487" lon="8.396950827790732"><ele>126.0</ele><time>2026-04-26T16:26:03.986Z</time></trkpt><trkpt lat="45.31399920322837" lon="8.396792795775228"><ele>126.0</ele><time>2026-04-26T16:26:04.985Z</time></trkpt><trkpt lat="45.31418328888385" lon="8.396639850616669"><ele>126.0</ele><time>2026-04-26T16:26:05.985Z</time></trkpt><trkpt lat="45.31436586015689" lon="8.396487352879044"><ele>126.0</ele><time>2026-04-26T16:26:06.985Z</time></trkpt><trkpt lat="45.314548650507724" lon="8.396332247967266"><ele>126.0</ele><time>2026-04-26T16:26:07.985Z</time></trkpt><trkpt lat="45.31472822602031" lon="8.396178203562103"><ele>126.0</ele><time>2026-04-26T16:26:08.985Z</time></trkpt><trkpt lat="45.31490351188901" lon="8.39602602138533"><ele>126.0</ele><time>2026-04-26T16:26:09.985Z</time></trkpt><trkpt lat="45.315076334691966" lon="8.395876545327853"><ele>126.33333333333334</ele><time>2026-04-26T16:26:10.985Z</time></trkpt><trkpt lat="45.31524483779492" lon="8.39573219549629"><ele>126.66666666666667</ele><time>2026-04-26T16:26:11.985Z</time></trkpt><trkpt lat="45.31540252683342" lon="8.395589704892439"><ele>127.0</ele><time>2026-04-26T16:26:12.985Z</time></trkpt><trkpt lat="45.31555029313214" lon="8.395456375350896"><ele>128.0</ele><time>2026-04-26T16:26:13.985Z</time></trkpt><trkpt lat="45.31570260037212" lon="8.395351286271643"><ele>129.0</ele><time>2026-04-26T16:26:14.985Z</time></trkpt><trkpt lat="45.31583917326847" lon="8.395234207802536"><ele>130.0</ele><time>2026-04-26T16:26:15.985Z</time></trkpt><trkpt lat="45.31597340746237" lon="8.395119135898604"><ele>130.0</ele><time>2026-04-26T16:26:16.985Z</time></trkpt><trkpt lat="45.31609046323841" lon="8.395018788699558"><ele>130.0</ele><time>2026-04-26T16:26:17.985Z</time></trkpt><trkpt lat="45.31618586872605" lon="8.394911692987147"><ele>130.0</ele><time>2026-04-26T16:26:18.985Z</time></trkpt><trkpt lat="45.31627647712376" lon="8.394839016933954"><ele>130.0</ele><time>2026-04-26T16:26:19.985Z</time></trkpt><trkpt lat="45.31635633288169" lon="8.394777204629413"><ele>130.16666666666669</ele><time>2026-04-26T16:26:20.985Z</time></trkpt><trkpt lat="45.3164315351112" lon="8.394731252804396"><ele>130.33333333333334</ele><time>2026-04-26T16:26:21.985Z</time></trkpt><trkpt lat="45.31650771109683" lon="8.394705131499885"><ele>130.5</ele><time>2026-04-26T16:26:22.985Z</time></trkpt><trkpt lat="45.31658856606364" lon="8.394688218757187"><ele>130.66666666666666</ele><time>2026-04-26T16:26:23.985Z</time></trkpt><trkpt lat="45.3166781270959" lon="8.3946822392193"><ele>130.83333333333331</ele><time>2026-04-26T16:26:24.985Z</time></trkpt><trkpt lat="45.31676772452018" lon="8.394683904141301"><ele>131.0</ele><time>2026-04-26T16:26:25.985Z</time></trkpt><trkpt lat="45.316849155938584" lon="8.394667437368957"><ele>130.66666666666666</ele><time>2026-04-26T16:26:26.985Z</time></trkpt><trkpt lat="45.316914320706246" lon="8.394616020838399"><ele>130.33333333333331</ele><time>2026-04-26T16:26:27.985Z</time></trkpt><trkpt lat="45.316959632510084" lon="8.39454216111031"><ele>130.0</ele><time>2026-04-26T16:26:28.985Z</time></trkpt><trkpt lat="45.316995381498316" lon="8.394441983084102"><ele>129.66666666666666</ele><time>2026-04-26T16:26:29.985Z</time></trkpt><trkpt lat="45.31704361627872" lon="8.394320241120212"><ele>129.33333333333334</ele><time>2026-04-26T16:26:30.985Z</time></trkpt><trkpt lat="45.31711610570682" lon="8.39419215128948"><ele>129.0</ele><time>2026-04-26T16:26:31.985Z</time></trkpt><trkpt lat="45.31721336956079" lon="8.39407071798596"><ele>128.66666666666666</ele><time>2026-04-26T16:26:32.985Z</time></trkpt><trkpt lat="45.31732661766223" lon="8.39395020170018"><ele>128.33333333333331</ele><time>2026-04-26T16:26:33.985Z</time></trkpt><trkpt lat="45.31745905148913" lon="8.393826454229531"><ele>128.0</ele><time>2026-04-26T16:26:34.985Z</time></trkpt><trkpt lat="45.31759879530054" lon="8.393705924503188"><ele>128.0</ele><time>2026-04-26T16:26:35.985Z</time></trkpt><trkpt lat="45.31773849394688" lon="8.393586329467677"><ele>128.0</ele><time>2026-04-26T16:26:36.985Z</time></trkpt><trkpt lat="45.317876704748215" lon="8.39346665864064"><ele>128.0</ele><time>2026-04-26T16:26:37.985Z</time></trkpt><trkpt lat="45.31801457923831" lon="8.39334630444758"><ele>128.33333333333331</ele><time>2026-04-26T16:26:38.985Z</time></trkpt><trkpt lat="45.318156933948366" lon="8.393222485065978"><ele>128.66666666666666</ele><time>2026-04-26T16:26:39.985Z</time></trkpt><trkpt lat="45.31830097346586" lon="8.393104196574559"><ele>129.0</ele><time>2026-04-26T16:26:40.985Z</time></trkpt><trkpt lat="45.31844907875477" lon="8.39298030347458"><ele>129.0</ele><time>2026-04-26T16:26:41.985Z</time></trkpt><trkpt lat="45.31860140498103" lon="8.392852542980341"><ele>129.0</ele><time>2026-04-26T16:26:42.985Z</time></trkpt><trkpt lat="45.31875474477688" lon="8.392721207412768"><ele>129.0</ele><time>2026-04-26T16:26:43.985Z</time></trkpt><trkpt lat="45.318905037901274" lon="8.39259154164284"><ele>129.66666666666666</ele><time>2026-04-26T16:26:44.985Z</time></trkpt><trkpt lat="45.319056678570156" lon="8.392461745154353"><ele>130.33333333333331</ele><time>2026-04-26T16:26:45.985Z</time></trkpt><trkpt lat="45.319213323943664" lon="8.392328369860403"><ele>131.0</ele><time>2026-04-26T16:26:46.985Z</time></trkpt><trkpt lat="45.31937234594019" lon="8.392193415809459"><ele>130.66666666666666</ele><time>2026-04-26T16:26:47.985Z</time></trkpt><trkpt lat="45.319533795158925" lon="8.39205789237771"><ele>130.33333333333334</ele><time>2026-04-26T16:26:48.985Z</time></trkpt><trkpt lat="45.31969717048143" lon="8.391919579468079"><ele>130.0</ele><time>2026-04-26T16:26:49.985Z</time></trkpt><trkpt lat="45.31987293827237" lon="8.391769949366367"><ele>130.0</ele><time>2026-04-26T16:26:50.985Z</time></trkpt><trkpt lat="45.32005586982766" lon="8.39161166553835"><ele>130.0</ele><time>2026-04-26T16:26:51.985Z</time></trkpt><trkpt lat="45.32024467671743" lon="8.39144349390068"><ele>130.0</ele><time>2026-04-26T16:26:52.985Z</time></trkpt><trkpt lat="45.320436858187314" lon="8.391278020252543"><ele>130.66666666666669</ele><time>2026-04-26T16:26:53.985Z</time></trkpt><trkpt lat="45.320624568440586" lon="8.391115965382538"><ele>131.33333333333334</ele><time>2026-04-26T16:26:54.984Z</time></trkpt><trkpt lat="45.32080199748085" lon="8.390970306804613"><ele>132.0</ele><time>2026-04-26T16:26:55.984Z</time></trkpt><trkpt lat="45.32096561848267" lon="8.390828520445309"><ele>132.0</ele><time>2026-04-26T16:26:56.984Z</time></trkpt><trkpt lat="45.32112683737465" lon="8.390687200540855"><ele>132.0</ele><time>2026-04-26T16:26:57.984Z</time></trkpt><trkpt lat="45.32129284728282" lon="8.390546283239887"><ele>132.0</ele><time>2026-04-26T16:26:58.984Z</time></trkpt><trkpt lat="45.32145623952334" lon="8.390411570936044"><ele>132.33333333333334</ele><time>2026-04-26T16:26:59.984Z</time></trkpt><trkpt lat="45.32161850186899" lon="8.390277890879462"><ele>132.66666666666669</ele><time>2026-04-26T16:27:00.984Z</time></trkpt><trkpt lat="45.321781663459554" lon="8.390136985060291"><ele>133.0</ele><time>2026-04-26T16:27:01.984Z</time></trkpt><trkpt lat="45.32194717669966" lon="8.389989907285626"><ele>133.0</ele><time>2026-04-26T16:27:02.984Z</time></trkpt><trkpt lat="45.322119076094" lon="8.389833302307807"><ele>133.0</ele><time>2026-04-26T16:27:03.984Z</time></trkpt><trkpt lat="45.3222962777545" lon="8.389680298108969"><ele>133.0</ele><time>2026-04-26T16:27:04.984Z</time></trkpt><trkpt lat="45.32246696214201" lon="8.389525466567422"><ele>132.66666666666669</ele><time>2026-04-26T16:27:05.984Z</time></trkpt><trkpt lat="45.32262948067031" lon="8.389373680595503"><ele>132.33333333333334</ele><time>2026-04-26T16:27:06.984Z</time></trkpt><trkpt lat="45.32279356536171" lon="8.389246519390875"><ele>132.0</ele><time>2026-04-26T16:27:07.984Z</time></trkpt><trkpt lat="45.322932402988535" lon="8.389094358672077"><ele>132.0</ele><time>2026-04-26T16:27:08.984Z</time></trkpt><trkpt lat="45.32305749122794" lon="8.388951190700364"><ele>132.0</ele><time>2026-04-26T16:27:09.984Z</time></trkpt><trkpt lat="45.323170714403155" lon="8.388816634104735"><ele>132.0</ele><time>2026-04-26T16:27:10.984Z</time></trkpt><trkpt lat="45.323271112619864" lon="8.388695155134128"><ele>132.0</ele><time>2026-04-26T16:27:11.984Z</time></trkpt><trkpt lat="45.323359043582194" lon="8.388588761237294"><ele>132.0</ele><time>2026-04-26T16:27:12.984Z</time></trkpt><trkpt lat="45.32344020874726" lon="8.388490553744235"><ele>132.0</ele><time>2026-04-26T16:27:13.984Z</time></trkpt><trkpt lat="45.323503375980096" lon="8.388414123194686"><ele>132.0</ele><time>2026-04-26T16:27:14.984Z</time></trkpt><trkpt lat="45.32359246850516" lon="8.388309348176575"><ele>132.0</ele><time>2026-04-26T16:27:16.984Z</time></trkpt><trkpt lat="45.32365085270402" lon="8.388240522478949"><ele>132.0</ele><time>2026-04-26T16:27:18.984Z</time></trkpt><trkpt lat="45.32371592162341" lon="8.388229665489877"><ele>132.0</ele><time>2026-04-26T16:27:20.984Z</time></trkpt><trkpt lat="45.323818591134625" lon="8.38827459112376"><ele>132.0</ele><time>2026-04-26T16:27:22.984Z</time></trkpt><trkpt lat="45.323878802538395" lon="8.388322987313748"><ele>132.0</ele><time>2026-04-26T16:27:23.984Z</time></trkpt><trkpt lat="45.32394193497812" lon="8.388363236915112"><ele>132.0</ele><time>2026-04-26T16:27:24.984Z</time></trkpt><trkpt lat="45.324017802823725" lon="8.388376763406548"><ele>132.0</ele><time>2026-04-26T16:27:25.984Z</time></trkpt><trkpt lat="45.324099620601814" lon="8.388373256047116"><ele>132.0</ele><time>2026-04-26T16:27:26.984Z</time></trkpt><trkpt lat="45.32417648604254" lon="8.388339541942345"><ele>132.0</ele><time>2026-04-26T16:27:27.984Z</time></trkpt><trkpt lat="45.32425301000715" lon="8.388280722711672"><ele>132.2</ele><time>2026-04-26T16:27:28.984Z</time></trkpt><trkpt lat="45.324333616602516" lon="8.388212432878158"><ele>132.39999999999998</ele><time>2026-04-26T16:27:29.984Z</time></trkpt><trkpt lat="45.324421496215656" lon="8.388159481551899"><ele>132.60000000000002</ele><time>2026-04-26T16:27:30.984Z</time></trkpt><trkpt lat="45.32452331078595" lon="8.388150742875846"><ele>132.8</ele><time>2026-04-26T16:27:31.984Z</time></trkpt><trkpt lat="45.3246356901103" lon="8.388177397923254"><ele>133.0</ele><time>2026-04-26T16:27:32.984Z</time></trkpt><trkpt lat="45.32475891825462" lon="8.388219302082849"><ele>133.25</ele><time>2026-04-26T16:27:33.984Z</time></trkpt><trkpt lat="45.32488349149474" lon="8.388261007364186"><ele>133.5</ele><time>2026-04-26T16:27:34.984Z</time></trkpt><trkpt lat="45.32501270511737" lon="8.388305888195694"><ele>133.75</ele><time>2026-04-26T16:27:35.984Z</time></trkpt><trkpt lat="45.32515576914966" lon="8.38835210688782"><ele>134.0</ele><time>2026-04-26T16:27:36.984Z</time></trkpt><trkpt lat="45.32531265430748" lon="8.388405212118158"><ele>134.0</ele><time>2026-04-26T16:27:37.984Z</time></trkpt><trkpt lat="45.32549030245844" lon="8.388464405756409"><ele>134.0</ele><time>2026-04-26T16:27:38.984Z</time></trkpt><trkpt lat="45.32568058913465" lon="8.388522941636412"><ele>134.0</ele><time>2026-04-26T16:27:39.984Z</time></trkpt><trkpt lat="45.32588204804558" lon="8.388607074681847"><ele>132.0</ele><time>2026-04-26T16:27:40.984Z</time></trkpt><trkpt lat="45.32610311513086" lon="8.38869204241373"><ele>130.0</ele><time>2026-04-26T16:27:41.984Z</time></trkpt><trkpt lat="45.326323326367685" lon="8.388783392013943"><ele>130.0</ele><time>2026-04-26T16:27:42.984Z</time></trkpt><trkpt lat="45.32654070842006" lon="8.388863024646602"><ele>130.0</ele><time>2026-04-26T16:27:43.984Z</time></trkpt><trkpt lat="45.32677152101895" lon="8.388944533987873"><ele>130.0</ele><time>2026-04-26T16:27:44.983Z</time></trkpt><trkpt lat="45.32700408760692" lon="8.389026097546546"><ele>130.0</ele><time>2026-04-26T16:27:45.983Z</time></trkpt><trkpt lat="45.327217214404065" lon="8.389100595563104"><ele>131.0</ele><time>2026-04-26T16:27:46.983Z</time></trkpt><trkpt lat="45.3274345934053" lon="8.389177084644333"><ele>132.0</ele><time>2026-04-26T16:27:47.983Z</time></trkpt><trkpt lat="45.32765489200412" lon="8.389253226996956"><ele>132.0</ele><time>2026-04-26T16:27:48.983Z</time></trkpt><trkpt lat="45.32787545822355" lon="8.389330914288463"><ele>132.0</ele><time>2026-04-26T16:27:49.983Z</time></trkpt><trkpt lat="45.32809502510799" lon="8.389407190419648"><ele>132.5</ele><time>2026-04-26T16:27:50.983Z</time></trkpt><trkpt lat="45.32831455963453" lon="8.389485280924342"><ele>133.0</ele><time>2026-04-26T16:27:51.983Z</time></trkpt><trkpt lat="45.32853224689614" lon="8.389562606626713"><ele>133.0</ele><time>2026-04-26T16:27:52.983Z</time></trkpt><trkpt lat="45.32874524569644" lon="8.389637473981555"><ele>133.0</ele><time>2026-04-26T16:27:53.983Z</time></trkpt><trkpt lat="45.32895630706105" lon="8.389712600722191"><ele>133.0</ele><time>2026-04-26T16:27:54.983Z</time></trkpt><trkpt lat="45.329165101012705" lon="8.389785448734907"><ele>132.66666666666669</ele><time>2026-04-26T16:27:55.983Z</time></trkpt><trkpt lat="45.329374088432246" lon="8.3898573555259"><ele>132.33333333333334</ele><time>2026-04-26T16:27:56.983Z</time></trkpt><trkpt lat="45.32958541502549" lon="8.389934077213479"><ele>132.0</ele><time>2026-04-26T16:27:57.983Z</time></trkpt><trkpt lat="45.329800293654756" lon="8.390012765342295"><ele>130.5</ele><time>2026-04-26T16:27:58.983Z</time></trkpt><trkpt lat="45.33002211231106" lon="8.390091891234405"><ele>129.0</ele><time>2026-04-26T16:27:59.983Z</time></trkpt><trkpt lat="45.33024085743285" lon="8.390168749557178"><ele>129.0</ele><time>2026-04-26T16:28:00.984Z</time></trkpt><trkpt lat="45.330448254543136" lon="8.39024295255398"><ele>129.0</ele><time>2026-04-26T16:28:01.983Z</time></trkpt><trkpt lat="45.33065439797829" lon="8.39031416163558"><ele>129.0</ele><time>2026-04-26T16:28:02.983Z</time></trkpt><trkpt lat="45.330867841071296" lon="8.390388008212902"><ele>128.66666666666666</ele><time>2026-04-26T16:28:03.983Z</time></trkpt><trkpt lat="45.331084250997975" lon="8.39046740453281"><ele>128.33333333333331</ele><time>2026-04-26T16:28:04.984Z</time></trkpt><trkpt lat="45.33129788267565" lon="8.390546257877125"><ele>128.0</ele><time>2026-04-26T16:28:05.984Z</time></trkpt><trkpt lat="45.33150953455802" lon="8.390621947410388"><ele>128.66666666666666</ele><time>2026-04-26T16:28:06.983Z</time></trkpt><trkpt lat="45.33171612342546" lon="8.390695611855325"><ele>129.33333333333334</ele><time>2026-04-26T16:28:07.983Z</time></trkpt><trkpt lat="45.331918352697684" lon="8.390768480358911"><ele>130.0</ele><time>2026-04-26T16:28:08.983Z</time></trkpt><trkpt lat="45.332118887581764" lon="8.390839599974"><ele>129.66666666666669</ele><time>2026-04-26T16:28:09.983Z</time></trkpt><trkpt lat="45.332314011562836" lon="8.390912963506006"><ele>129.33333333333334</ele><time>2026-04-26T16:28:10.983Z</time></trkpt><trkpt lat="45.332503657806" lon="8.39098236621439"><ele>129.0</ele><time>2026-04-26T16:28:11.983Z</time></trkpt><trkpt lat="45.33268532713477" lon="8.391047608703028"><ele>129.0</ele><time>2026-04-26T16:28:12.983Z</time></trkpt><trkpt lat="45.33286210290178" lon="8.391110942602117"><ele>129.0</ele><time>2026-04-26T16:28:13.983Z</time></trkpt><trkpt lat="45.333032690978634" lon="8.391172788291112"><ele>129.0</ele><time>2026-04-26T16:28:14.983Z</time></trkpt><trkpt lat="45.33319612138058" lon="8.391230943434026"><ele>129.0</ele><time>2026-04-26T16:28:15.983Z</time></trkpt><trkpt lat="45.33334863909218" lon="8.391284307371999"><ele>129.0</ele><time>2026-04-26T16:28:16.983Z</time></trkpt><trkpt lat="45.3334951653065" lon="8.3913340147581"><ele>129.0</ele><time>2026-04-26T16:28:17.983Z</time></trkpt><trkpt lat="45.333629675232416" lon="8.391378738135066"><ele>129.0</ele><time>2026-04-26T16:28:18.983Z</time></trkpt><trkpt lat="45.333747795814595" lon="8.391416810536086"><ele>129.0</ele><time>2026-04-26T16:28:19.983Z</time></trkpt><trkpt lat="45.33385366964431" lon="8.391454009929184"><ele>129.0</ele><time>2026-04-26T16:28:20.983Z</time></trkpt><trkpt lat="45.333949036419796" lon="8.391486806015523"><ele>129.0</ele><time>2026-04-26T16:28:21.983Z</time></trkpt><trkpt lat="45.33403206778615" lon="8.39151745920835"><ele>129.0</ele><time>2026-04-26T16:28:22.983Z</time></trkpt><trkpt lat="45.334106069976905" lon="8.391550656238774"><ele>129.0</ele><time>2026-04-26T16:28:23.983Z</time></trkpt><trkpt lat="45.334169188686104" lon="8.391605199612638"><ele>129.0</ele><time>2026-04-26T16:28:24.983Z</time></trkpt><trkpt lat="45.3342177665799" lon="8.391670910734675"><ele>129.16666666666666</ele><time>2026-04-26T16:28:25.983Z</time></trkpt><trkpt lat="45.33426723069613" lon="8.391750175607124"><ele>129.33333333333334</ele><time>2026-04-26T16:28:26.983Z</time></trkpt><trkpt lat="45.33432375992515" lon="8.391829454353893"><ele>129.5</ele><time>2026-04-26T16:28:27.983Z</time></trkpt><trkpt lat="45.33438912457924" lon="8.391879949489228"><ele>129.66666666666669</ele><time>2026-04-26T16:28:28.983Z</time></trkpt><trkpt lat="45.33446444518214" lon="8.391901640699132"><ele>129.83333333333334</ele><time>2026-04-26T16:28:29.983Z</time></trkpt><trkpt lat="45.33454639396239" lon="8.391887619188672"><ele>130.0</ele><time>2026-04-26T16:28:30.983Z</time></trkpt><trkpt lat="45.334628513712715" lon="8.391848367943089"><ele>129.5</ele><time>2026-04-26T16:28:31.983Z</time></trkpt><trkpt lat="45.334722057540155" lon="8.391816498940042"><ele>129.0</ele><time>2026-04-26T16:28:32.983Z</time></trkpt><trkpt lat="45.334831276899784" lon="8.391818539402074"><ele>128.5</ele><time>2026-04-26T16:28:33.983Z</time></trkpt><trkpt lat="45.33495345805331" lon="8.391840954011423"><ele>128.0</ele><time>2026-04-26T16:28:34.983Z</time></trkpt><trkpt lat="45.33509310554993" lon="8.391882024800664"><ele>128.0</ele><time>2026-04-26T16:28:35.983Z</time></trkpt><trkpt lat="45.335244361110746" lon="8.391934442164375"><ele>128.0</ele><time>2026-04-26T16:28:36.983Z</time></trkpt><trkpt lat="45.335387199170036" lon="8.391983339710608"><ele>128.0</ele><time>2026-04-26T16:28:37.983Z</time></trkpt><trkpt lat="45.33554666848574" lon="8.392041996373301"><ele>127.66666666666666</ele><time>2026-04-26T16:28:38.983Z</time></trkpt><trkpt lat="45.335709309069124" lon="8.392099050497668"><ele>127.33333333333334</ele><time>2026-04-26T16:28:39.983Z</time></trkpt><trkpt lat="45.33587388995331" lon="8.39215602059643"><ele>127.0</ele><time>2026-04-26T16:28:40.983Z</time></trkpt><trkpt lat="45.33604035086358" lon="8.392215144123941"><ele>127.66666666666667</ele><time>2026-04-26T16:28:41.983Z</time></trkpt><trkpt lat="45.33620841731707" lon="8.39227992456836"><ele>128.33333333333334</ele><time>2026-04-26T16:28:42.983Z</time></trkpt><trkpt lat="45.33638645611334" lon="8.392346735746694"><ele>129.0</ele><time>2026-04-26T16:28:43.983Z</time></trkpt><trkpt lat="45.336569565332674" lon="8.392411352943263"><ele>129.33333333333334</ele><time>2026-04-26T16:28:44.983Z</time></trkpt><trkpt lat="45.33675354358483" lon="8.392474413427248"><ele>129.66666666666669</ele><time>2026-04-26T16:28:45.983Z</time></trkpt><trkpt lat="45.33693903336212" lon="8.392538423530237"><ele>130.0</ele><time>2026-04-26T16:28:46.983Z</time></trkpt><trkpt lat="45.33712869541997" lon="8.39260509454039"><ele>130.33333333333334</ele><time>2026-04-26T16:28:47.983Z</time></trkpt><trkpt lat="45.33732369204923" lon="8.392673468533044"><ele>130.66666666666666</ele><time>2026-04-26T16:28:48.982Z</time></trkpt><trkpt lat="45.33752686101446" lon="8.39274413242676"><ele>131.0</ele><time>2026-04-26T16:28:49.982Z</time></trkpt><trkpt lat="45.337743535086695" lon="8.392819146773336"><ele>131.0</ele><time>2026-04-26T16:28:50.982Z</time></trkpt><trkpt lat="45.33796771147195" lon="8.392902056060644"><ele>131.0</ele><time>2026-04-26T16:28:51.982Z</time></trkpt><trkpt lat="45.338212809094145" lon="8.392986793434899"><ele>129.5</ele><time>2026-04-26T16:28:52.982Z</time></trkpt><trkpt lat="45.33846822960443" lon="8.393079015889057"><ele>128.0</ele><time>2026-04-26T16:28:53.982Z</time></trkpt><trkpt lat="45.338718394947264" lon="8.393175945572674"><ele>129.5</ele><time>2026-04-26T16:28:54.982Z</time></trkpt><trkpt lat="45.33895269697138" lon="8.39326937777827"><ele>131.0</ele><time>2026-04-26T16:28:55.982Z</time></trkpt><trkpt lat="45.3391768065946" lon="8.39335218865365"><ele>131.0</ele><time>2026-04-26T16:28:56.982Z</time></trkpt><trkpt lat="45.339392332525776" lon="8.393424809660178"><ele>131.0</ele><time>2026-04-26T16:28:57.982Z</time></trkpt><trkpt lat="45.33959662357044" lon="8.393500389769324"><ele>131.0</ele><time>2026-04-26T16:28:58.982Z</time></trkpt><trkpt lat="45.33978943310628" lon="8.393568477311184"><ele>130.66666666666666</ele><time>2026-04-26T16:28:59.982Z</time></trkpt><trkpt lat="45.33997051925042" lon="8.393638350727493"><ele>130.33333333333334</ele><time>2026-04-26T16:29:00.982Z</time></trkpt><trkpt lat="45.340141970584845" lon="8.393703332757605"><ele>130.0</ele><time>2026-04-26T16:29:01.982Z</time></trkpt><trkpt lat="45.340305342020294" lon="8.393762258315133"><ele>130.0</ele><time>2026-04-26T16:29:02.982Z</time></trkpt><trkpt lat="45.34045606845327" lon="8.39381350898556"><ele>130.0</ele><time>2026-04-26T16:29:03.982Z</time></trkpt><trkpt lat="45.340604478630794" lon="8.393867926344901"><ele>130.0</ele><time>2026-04-26T16:29:04.982Z</time></trkpt><trkpt lat="45.34074561992139" lon="8.39391880568591"><ele>130.0</ele><time>2026-04-26T16:29:05.982Z</time></trkpt><trkpt lat="45.34088325305339" lon="8.3939683781763"><ele>130.0</ele><time>2026-04-26T16:29:06.982Z</time></trkpt><trkpt lat="45.3410094871025" lon="8.394010728769482"><ele>130.0</ele><time>2026-04-26T16:29:07.982Z</time></trkpt><trkpt lat="45.34111951010591" lon="8.394052770200133"><ele>130.0</ele><time>2026-04-26T16:29:08.982Z</time></trkpt><trkpt lat="45.34120646420203" lon="8.394114233927974"><ele>130.0</ele><time>2026-04-26T16:29:09.982Z</time></trkpt><trkpt lat="45.34127805053858" lon="8.394214718270415"><ele>130.0</ele><time>2026-04-26T16:29:10.982Z</time></trkpt><trkpt lat="45.3413372002356" lon="8.39433998160778"><ele>130.0</ele><time>2026-04-26T16:29:11.982Z</time></trkpt><trkpt lat="45.34140031573725" lon="8.394468526637564"><ele>130.0</ele><time>2026-04-26T16:29:12.982Z</time></trkpt><trkpt lat="45.341481925400004" lon="8.394573233383003"><ele>130.0</ele><time>2026-04-26T16:29:13.982Z</time></trkpt><trkpt lat="45.34157577067382" lon="8.394672260455401"><ele>130.0</ele><time>2026-04-26T16:29:14.982Z</time></trkpt><trkpt lat="45.34168635774955" lon="8.394719298616899"><ele>130.0</ele><time>2026-04-26T16:29:15.982Z</time></trkpt><trkpt lat="45.34180284500703" lon="8.394680735524638"><ele>130.0</ele><time>2026-04-26T16:29:16.982Z</time></trkpt><trkpt lat="45.34191439302939" lon="8.394624544739141"><ele>130.0</ele><time>2026-04-26T16:29:17.982Z</time></trkpt><trkpt lat="45.34202412318584" lon="8.394549583021291"><ele>130.0</ele><time>2026-04-26T16:29:18.982Z</time></trkpt><trkpt lat="45.342145339654486" lon="8.394492465966833"><ele>130.0</ele><time>2026-04-26T16:29:19.982Z</time></trkpt><trkpt lat="45.342283064429466" lon="8.394483822238733"><ele>130.0</ele><time>2026-04-26T16:29:20.982Z</time></trkpt><trkpt lat="45.3424268550329" lon="8.394514922119644"><ele>130.0</ele><time>2026-04-26T16:29:21.982Z</time></trkpt><trkpt lat="45.34258101862068" lon="8.394570852640381"><ele>130.0</ele><time>2026-04-26T16:29:22.982Z</time></trkpt><trkpt lat="45.34274711956988" lon="8.394622234565329"><ele>130.0</ele><time>2026-04-26T16:29:23.982Z</time></trkpt><trkpt lat="45.34291849553431" lon="8.394677008924145"><ele>130.0</ele><time>2026-04-26T16:29:24.982Z</time></trkpt><trkpt lat="45.343090598783796" lon="8.394736576056696"><ele>130.33333333333334</ele><time>2026-04-26T16:29:25.982Z</time></trkpt><trkpt lat="45.34326338262778" lon="8.394796376779432"><ele>130.66666666666666</ele><time>2026-04-26T16:29:26.982Z</time></trkpt><trkpt lat="45.34344508615192" lon="8.394860627355921"><ele>131.0</ele><time>2026-04-26T16:29:27.982Z</time></trkpt><trkpt lat="45.343652040419286" lon="8.39493045388889"><ele>130.0</ele><time>2026-04-26T16:29:28.982Z</time></trkpt><trkpt lat="45.34388116936422" lon="8.395008478725765"><ele>129.0</ele><time>2026-04-26T16:29:29.982Z</time></trkpt><trkpt lat="45.34412380395083" lon="8.395102095130104"><ele>129.0</ele><time>2026-04-26T16:29:30.982Z</time></trkpt><trkpt lat="45.344373221679085" lon="8.395202587647008"><ele>129.0</ele><time>2026-04-26T16:29:31.982Z</time></trkpt><trkpt lat="45.344605534431764" lon="8.395288861399367"><ele>130.0</ele><time>2026-04-26T16:29:32.982Z</time></trkpt><trkpt lat="45.344833267386065" lon="8.395367112658136"><ele>131.0</ele><time>2026-04-26T16:29:33.982Z</time></trkpt><trkpt lat="45.34506470598225" lon="8.395446348921585"><ele>131.0</ele><time>2026-04-26T16:29:34.982Z</time></trkpt><trkpt lat="45.34529676056176" lon="8.39553017137343"><ele>131.0</ele><time>2026-04-26T16:29:35.982Z</time></trkpt><trkpt lat="45.3455216138335" lon="8.395611986826113"><ele>131.33333333333331</ele><time>2026-04-26T16:29:36.982Z</time></trkpt><trkpt lat="45.34573724719246" lon="8.395689123570417"><ele>131.66666666666666</ele><time>2026-04-26T16:29:37.982Z</time></trkpt><trkpt lat="45.345951085182165" lon="8.395764716818963"><ele>132.0</ele><time>2026-04-26T16:29:38.981Z</time></trkpt><trkpt lat="45.346165379677835" lon="8.395841079943466"><ele>132.0</ele><time>2026-04-26T16:29:39.981Z</time></trkpt><trkpt lat="45.34637194152454" lon="8.395917776621705"><ele>132.0</ele><time>2026-04-26T16:29:40.981Z</time></trkpt><trkpt lat="45.34657188648493" lon="8.395992386706135"><ele>132.0</ele><time>2026-04-26T16:29:41.981Z</time></trkpt><trkpt lat="45.346763947334296" lon="8.396063100153244"><ele>131.66666666666666</ele><time>2026-04-26T16:29:42.981Z</time></trkpt><trkpt lat="45.346944571602926" lon="8.396130536155646"><ele>131.33333333333331</ele><time>2026-04-26T16:29:43.981Z</time></trkpt><trkpt lat="45.347113704041675" lon="8.396190332217005"><ele>131.0</ele><time>2026-04-26T16:29:44.981Z</time></trkpt><trkpt lat="45.347270030576034" lon="8.396241477852776"><ele>131.75</ele><time>2026-04-26T16:29:45.981Z</time></trkpt><trkpt lat="45.347420615065055" lon="8.396286548480905"><ele>132.5</ele><time>2026-04-26T16:29:46.981Z</time></trkpt><trkpt lat="45.34755816477694" lon="8.396305241802645"><ele>133.25</ele><time>2026-04-26T16:29:47.981Z</time></trkpt><trkpt lat="45.34768759246889" lon="8.396309264002253"><ele>134.0</ele><time>2026-04-26T16:29:48.981Z</time></trkpt><trkpt lat="45.347789568852235" lon="8.39630809828468"><ele>134.0</ele><time>2026-04-26T16:29:49.981Z</time></trkpt><trkpt lat="45.34787444463022" lon="8.396325547184217"><ele>134.0</ele><time>2026-04-26T16:29:50.981Z</time></trkpt><trkpt lat="45.34793375030094" lon="8.396368687472762"><ele>134.0</ele><time>2026-04-26T16:29:51.981Z</time></trkpt><trkpt lat="45.347976452629894" lon="8.396439279631672"><ele>134.0</ele><time>2026-04-26T16:29:52.981Z</time></trkpt><trkpt lat="45.34803003178521" lon="8.396615542309407"><ele>134.0</ele><time>2026-04-26T16:29:54.981Z</time></trkpt><trkpt lat="45.34808028842842" lon="8.396687184658854"><ele>134.0</ele><time>2026-04-26T16:29:55.981Z</time></trkpt><trkpt lat="45.348147640643575" lon="8.396723581531395"><ele>134.0</ele><time>2026-04-26T16:29:56.981Z</time></trkpt><trkpt lat="45.348218090933074" lon="8.396716350823755"><ele>134.0</ele><time>2026-04-26T16:29:57.981Z</time></trkpt><trkpt lat="45.34828601324395" lon="8.396672215568602"><ele>134.0</ele><time>2026-04-26T16:29:58.981Z</time></trkpt><trkpt lat="45.34834884136792" lon="8.396589720884254"><ele>134.0</ele><time>2026-04-26T16:29:59.981Z</time></trkpt><trkpt lat="45.34840005844908" lon="8.396483858020122"><ele>134.0</ele><time>2026-04-26T16:30:00.982Z</time></trkpt><trkpt lat="45.34847481230271" lon="8.396388924771715"><ele>134.0</ele><time>2026-04-26T16:30:01.982Z</time></trkpt><trkpt lat="45.34857401849403" lon="8.396304089265648"><ele>134.0</ele><time>2026-04-26T16:30:02.982Z</time></trkpt><trkpt lat="45.34868605717773" lon="8.396214402981053"><ele>134.0</ele><time>2026-04-26T16:30:03.982Z</time></trkpt><trkpt lat="45.34880596572082" lon="8.396117859803418"><ele>134.0</ele><time>2026-04-26T16:30:04.982Z</time></trkpt><trkpt lat="45.34892444374888" lon="8.396023305029177"><ele>134.0</ele><time>2026-04-26T16:30:05.982Z</time></trkpt><trkpt lat="45.349041493992615" lon="8.395925565247309"><ele>134.25</ele><time>2026-04-26T16:30:06.982Z</time></trkpt><trkpt lat="45.34917683658314" lon="8.395835097588984"><ele>134.5</ele><time>2026-04-26T16:30:07.982Z</time></trkpt><trkpt lat="45.34930498980148" lon="8.39571618492404"><ele>134.75</ele><time>2026-04-26T16:30:08.982Z</time></trkpt><trkpt lat="45.34942531078071" lon="8.395596222972106"><ele>135.0</ele><time>2026-04-26T16:30:09.982Z</time></trkpt><trkpt lat="45.34955479197334" lon="8.395502882094963"><ele>135.0</ele><time>2026-04-26T16:30:10.982Z</time></trkpt><trkpt lat="45.34968211790621" lon="8.395391076512343"><ele>135.0</ele><time>2026-04-26T16:30:11.982Z</time></trkpt><trkpt lat="45.34981669140423" lon="8.395270429278954"><ele>135.0</ele><time>2026-04-26T16:30:12.982Z</time></trkpt><trkpt lat="45.349952860229536" lon="8.395148653877737"><ele>135.33333333333334</ele><time>2026-04-26T16:30:13.981Z</time></trkpt><trkpt lat="45.35009095335033" lon="8.395025206387293"><ele>135.66666666666669</ele><time>2026-04-26T16:30:14.981Z</time></trkpt><trkpt lat="45.35023917418207" lon="8.394892708712657"><ele>136.0</ele><time>2026-04-26T16:30:15.981Z</time></trkpt><trkpt lat="45.350392010646985" lon="8.394756722469776"><ele>135.33333333333334</ele><time>2026-04-26T16:30:16.981Z</time></trkpt><trkpt lat="45.35055233786657" lon="8.394612174449371"><ele>134.66666666666666</ele><time>2026-04-26T16:30:17.981Z</time></trkpt><trkpt lat="45.35070757312137" lon="8.394441625901367"><ele>134.0</ele><time>2026-04-26T16:30:18.981Z</time></trkpt><trkpt lat="45.35086625549761" lon="8.394304555241744"><ele>134.0</ele><time>2026-04-26T16:30:19.981Z</time></trkpt><trkpt lat="45.3510220314774" lon="8.394164679779331"><ele>134.0</ele><time>2026-04-26T16:30:20.981Z</time></trkpt><trkpt lat="45.351177930420945" lon="8.394021073940294"><ele>134.0</ele><time>2026-04-26T16:30:21.981Z</time></trkpt><trkpt lat="45.35134402591004" lon="8.393903366641304"><ele>134.0</ele><time>2026-04-26T16:30:22.981Z</time></trkpt><trkpt lat="45.351501341455844" lon="8.393759617263996"><ele>134.0</ele><time>2026-04-26T16:30:23.981Z</time></trkpt><trkpt lat="45.35164825085209" lon="8.393604661153683"><ele>134.0</ele><time>2026-04-26T16:30:24.981Z</time></trkpt><trkpt lat="45.35179494041023" lon="8.393482163815143"><ele>134.0</ele><time>2026-04-26T16:30:25.981Z</time></trkpt><trkpt lat="45.35192835009312" lon="8.39335935298135"><ele>134.0</ele><time>2026-04-26T16:30:26.981Z</time></trkpt><trkpt lat="45.35206031245221" lon="8.393245491752507"><ele>134.0</ele><time>2026-04-26T16:30:27.981Z</time></trkpt><trkpt lat="45.35218945026649" lon="8.393130212064069"><ele>134.25</ele><time>2026-04-26T16:30:28.981Z</time></trkpt><trkpt lat="45.35231288581151" lon="8.393020783582319"><ele>134.5</ele><time>2026-04-26T16:30:29.981Z</time></trkpt><trkpt lat="45.35242644552081" lon="8.392923722194316"><ele>134.75</ele><time>2026-04-26T16:30:30.981Z</time></trkpt><trkpt lat="45.35252994245886" lon="8.392831356806944"><ele>135.0</ele><time>2026-04-26T16:30:31.981Z</time></trkpt><trkpt lat="45.35263320111272" lon="8.392760977143398"><ele>135.2</ele><time>2026-04-26T16:30:32.981Z</time></trkpt><trkpt lat="45.35273535863355" lon="8.392710220203233"><ele>135.4</ele><time>2026-04-26T16:30:33.981Z</time></trkpt><trkpt lat="45.35283308412596" lon="8.392665301668126"><ele>135.6</ele><time>2026-04-26T16:30:34.981Z</time></trkpt><trkpt lat="45.35292943556402" lon="8.392626954280384"><ele>135.8</ele><time>2026-04-26T16:30:35.981Z</time></trkpt><trkpt lat="45.3530111955493" lon="8.392513493136812"><ele>136.0</ele><time>2026-04-26T16:30:36.981Z</time></trkpt><trkpt lat="45.353086563294376" lon="8.3923776446989"><ele>136.0</ele><time>2026-04-26T16:30:37.981Z</time></trkpt><trkpt lat="45.35318492108943" lon="8.392250281465904"><ele>136.0</ele><time>2026-04-26T16:30:38.981Z</time></trkpt><trkpt lat="45.35330053042412" lon="8.392156233142591"><ele>136.0</ele><time>2026-04-26T16:30:39.981Z</time></trkpt><trkpt lat="45.35341198692422" lon="8.392048142990056"><ele>136.0</ele><time>2026-04-26T16:30:40.981Z</time></trkpt><trkpt lat="45.35353049607935" lon="8.39193408091477"><ele>135.66666666666669</ele><time>2026-04-26T16:30:41.981Z</time></trkpt><trkpt lat="45.353657307857766" lon="8.391819346153092"><ele>135.33333333333334</ele><time>2026-04-26T16:30:42.981Z</time></trkpt><trkpt lat="45.3537807553304" lon="8.391663295880527"><ele>135.0</ele><time>2026-04-26T16:30:43.981Z</time></trkpt><trkpt lat="45.35392955822299" lon="8.391530051217766"><ele>135.33333333333334</ele><time>2026-04-26T16:30:44.981Z</time></trkpt><trkpt lat="45.35408603527762" lon="8.391389040518712"><ele>135.66666666666669</ele><time>2026-04-26T16:30:45.981Z</time></trkpt><trkpt lat="45.35423941590672" lon="8.391262901788922"><ele>136.0</ele><time>2026-04-26T16:30:46.981Z</time></trkpt><trkpt lat="45.35440570556037" lon="8.391148314632352"><ele>136.0</ele><time>2026-04-26T16:30:47.981Z</time></trkpt><trkpt lat="45.35456617389485" lon="8.391004765579893"><ele>136.0</ele><time>2026-04-26T16:30:48.981Z</time></trkpt><trkpt lat="45.354730859972236" lon="8.390857444877291"><ele>136.0</ele><time>2026-04-26T16:30:49.981Z</time></trkpt><trkpt lat="45.354897330329074" lon="8.390707174304833"><ele>135.66666666666669</ele><time>2026-04-26T16:30:50.981Z</time></trkpt><trkpt lat="45.355064619129415" lon="8.390556390323505"><ele>135.33333333333334</ele><time>2026-04-26T16:30:51.981Z</time></trkpt><trkpt lat="45.35522397291077" lon="8.390416552082176"><ele>135.0</ele><time>2026-04-26T16:30:52.981Z</time></trkpt><trkpt lat="45.35537455785435" lon="8.39024692366054"><ele>135.0</ele><time>2026-04-26T16:30:53.981Z</time></trkpt><trkpt lat="45.35553696620241" lon="8.390100279080059"><ele>135.0</ele><time>2026-04-26T16:30:54.981Z</time></trkpt><trkpt lat="45.35570129848923" lon="8.389949749189348"><ele>135.0</ele><time>2026-04-26T16:30:55.981Z</time></trkpt><trkpt lat="45.35586584756217" lon="8.389801593724224"><ele>134.66666666666666</ele><time>2026-04-26T16:30:56.981Z</time></trkpt><trkpt lat="45.356041661722074" lon="8.389683431658886"><ele>134.33333333333331</ele><time>2026-04-26T16:30:57.981Z</time></trkpt><trkpt lat="45.3561894760389" lon="8.389515257113763"><ele>134.0</ele><time>2026-04-26T16:30:58.981Z</time></trkpt><trkpt lat="45.35634386339121" lon="8.389377554723822"><ele>134.0</ele><time>2026-04-26T16:30:59.981Z</time></trkpt><trkpt lat="45.35649705591229" lon="8.389237973952092"><ele>134.0</ele><time>2026-04-26T16:31:00.981Z</time></trkpt><trkpt lat="45.35664831287858" lon="8.389098152877002"><ele>134.0</ele><time>2026-04-26T16:31:01.981Z</time></trkpt><trkpt lat="45.35681446214176" lon="8.388992335421156"><ele>134.0</ele><time>2026-04-26T16:31:02.981Z</time></trkpt><trkpt lat="45.356966438498304" lon="8.388856976853843"><ele>134.0</ele><time>2026-04-26T16:31:03.98Z</time></trkpt><trkpt lat="45.357114749529245" lon="8.38872489557071"><ele>134.0</ele><time>2026-04-26T16:31:04.98Z</time></trkpt><trkpt lat="45.35726114222109" lon="8.388594522736152"><ele>134.66666666666666</ele><time>2026-04-26T16:31:05.98Z</time></trkpt><trkpt lat="45.357402807925695" lon="8.388468359641056"><ele>135.33333333333334</ele><time>2026-04-26T16:31:06.98Z</time></trkpt><trkpt lat="45.35754329012954" lon="8.388343250507152"><ele>136.0</ele><time>2026-04-26T16:31:07.98Z</time></trkpt><trkpt lat="45.357686982173476" lon="8.388215285058404"><ele>136.0</ele><time>2026-04-26T16:31:08.98Z</time></trkpt><trkpt lat="45.35782616938754" lon="8.388092426526699"><ele>136.0</ele><time>2026-04-26T16:31:09.98Z</time></trkpt><trkpt lat="45.357960383142355" lon="8.387973652862064"><ele>136.0</ele><time>2026-04-26T16:31:10.98Z</time></trkpt><trkpt lat="45.35808875869139" lon="8.38786004584661"><ele>136.0</ele><time>2026-04-26T16:31:11.98Z</time></trkpt><trkpt lat="45.358209303416004" lon="8.387753370858901"><ele>136.0</ele><time>2026-04-26T16:31:12.98Z</time></trkpt><trkpt lat="45.35830185655099" lon="8.387631889849377"><ele>136.0</ele><time>2026-04-26T16:31:13.98Z</time></trkpt><trkpt lat="45.358400791945" lon="8.387548728875117"><ele>136.0</ele><time>2026-04-26T16:31:14.98Z</time></trkpt><trkpt lat="45.358489158699996" lon="8.387472134701406"><ele>136.0</ele><time>2026-04-26T16:31:15.98Z</time></trkpt><trkpt lat="45.35857060196422" lon="8.387404156519356"><ele>136.0</ele><time>2026-04-26T16:31:16.98Z</time></trkpt><trkpt lat="45.35864769567227" lon="8.387342240041441"><ele>136.0</ele><time>2026-04-26T16:31:17.98Z</time></trkpt><trkpt lat="45.358720511299595" lon="8.387277377001212"><ele>136.0</ele><time>2026-04-26T16:31:18.98Z</time></trkpt><trkpt lat="45.35879347716375" lon="8.38722570776831"><ele>136.0</ele><time>2026-04-26T16:31:19.98Z</time></trkpt><trkpt lat="45.3588693631358" lon="8.387205869981482"><ele>136.0</ele><time>2026-04-26T16:31:20.98Z</time></trkpt><trkpt lat="45.35894522265151" lon="8.387206681144667"><ele>136.0</ele><time>2026-04-26T16:31:21.98Z</time></trkpt><trkpt lat="45.35900911363057" lon="8.38718570244278"><ele>136.0</ele><time>2026-04-26T16:31:22.98Z</time></trkpt><trkpt lat="45.35908829576359" lon="8.387039004742828"><ele>136.0</ele><time>2026-04-26T16:31:24.98Z</time></trkpt><trkpt lat="45.35913479586844" lon="8.386931942077183"><ele>136.0</ele><time>2026-04-26T16:31:25.98Z</time></trkpt><trkpt lat="45.3592049695508" lon="8.386829372910505"><ele>136.0</ele><time>2026-04-26T16:31:26.98Z</time></trkpt><trkpt lat="45.35931416677228" lon="8.38676882739362"><ele>136.25</ele><time>2026-04-26T16:31:27.98Z</time></trkpt><trkpt lat="45.35940929192187" lon="8.386684248126976"><ele>136.5</ele><time>2026-04-26T16:31:28.98Z</time></trkpt><trkpt lat="45.35950965997335" lon="8.386595007298899"><ele>136.75</ele><time>2026-04-26T16:31:29.98Z</time></trkpt><trkpt lat="45.359624497210675" lon="8.386492901330008"><ele>137.0</ele><time>2026-04-26T16:31:30.98Z</time></trkpt><trkpt lat="45.35974600982928" lon="8.386384765017057"><ele>137.0</ele><time>2026-04-26T16:31:31.98Z</time></trkpt><trkpt lat="45.35986869290216" lon="8.386275576684486"><ele>137.0</ele><time>2026-04-26T16:31:32.98Z</time></trkpt><trkpt lat="45.3599872829645" lon="8.386169387183223"><ele>137.0</ele><time>2026-04-26T16:31:33.98Z</time></trkpt><trkpt lat="45.36011795699422" lon="8.386053065622253"><ele>137.0</ele><time>2026-04-26T16:31:34.98Z</time></trkpt><trkpt lat="45.360259883547215" lon="8.385926725558356"><ele>137.0</ele><time>2026-04-26T16:31:35.98Z</time></trkpt><trkpt lat="45.36041443527653" lon="8.385789146985823"><ele>137.0</ele><time>2026-04-26T16:31:36.98Z</time></trkpt><trkpt lat="45.360563340336356" lon="8.385613018832522"><ele>137.0</ele><time>2026-04-26T16:31:37.98Z</time></trkpt><trkpt lat="45.36072664343472" lon="8.385481249364203"><ele>136.66666666666666</ele><time>2026-04-26T16:31:38.98Z</time></trkpt><trkpt lat="45.3608810932135" lon="8.385357361823846"><ele>136.33333333333334</ele><time>2026-04-26T16:31:39.98Z</time></trkpt><trkpt lat="45.3610263381105" lon="8.385232906666122"><ele>136.0</ele><time>2026-04-26T16:31:40.98Z</time></trkpt><trkpt lat="45.361162378009304" lon="8.385107938711865"><ele>136.0</ele><time>2026-04-26T16:31:41.98Z</time></trkpt><trkpt lat="45.36129227090563" lon="8.384992816333735"><ele>136.0</ele><time>2026-04-26T16:31:42.98Z</time></trkpt><trkpt lat="45.36141507920528" lon="8.38488212906021"><ele>136.0</ele><time>2026-04-26T16:31:43.98Z</time></trkpt><trkpt lat="45.36153982344257" lon="8.384761439515135"><ele>136.0</ele><time>2026-04-26T16:31:44.98Z</time></trkpt><trkpt lat="45.361675694623436" lon="8.384655176187021"><ele>136.5</ele><time>2026-04-26T16:31:45.98Z</time></trkpt><trkpt lat="45.36180510064348" lon="8.38453850927415"><ele>137.0</ele><time>2026-04-26T16:31:46.98Z</time></trkpt><trkpt lat="45.361930956441746" lon="8.384426076604454"><ele>137.5</ele><time>2026-04-26T16:31:47.98Z</time></trkpt><trkpt lat="45.362055299606766" lon="8.384314710607406"><ele>138.0</ele><time>2026-04-26T16:31:48.98Z</time></trkpt><trkpt lat="45.36218132054774" lon="8.384200739387596"><ele>138.0</ele><time>2026-04-26T16:31:49.98Z</time></trkpt><trkpt lat="45.3623099946389" lon="8.384082956578034"><ele>138.0</ele><time>2026-04-26T16:31:50.98Z</time></trkpt><trkpt lat="45.362439332105815" lon="8.383963571047286"><ele>138.0</ele><time>2026-04-26T16:31:51.98Z</time></trkpt><trkpt lat="45.362570990200716" lon="8.383841493742935"><ele>138.0</ele><time>2026-04-26T16:31:52.98Z</time></trkpt><trkpt lat="45.36270613279198" lon="8.38373502601756"><ele>138.0</ele><time>2026-04-26T16:31:53.979Z</time></trkpt><trkpt lat="45.36283983084007" lon="8.38361509740698"><ele>138.0</ele><time>2026-04-26T16:31:54.979Z</time></trkpt><trkpt lat="45.36296802927278" lon="8.383497384580329"><ele>138.0</ele><time>2026-04-26T16:31:55.979Z</time></trkpt><trkpt lat="45.36310445532663" lon="8.383373104404214"><ele>138.0</ele><time>2026-04-26T16:31:56.979Z</time></trkpt><trkpt lat="45.36324615403262" lon="8.383245008027144"><ele>138.0</ele><time>2026-04-26T16:31:57.979Z</time></trkpt><trkpt lat="45.36337847349319" lon="8.383070910885094"><ele>138.0</ele><time>2026-04-26T16:31:58.979Z</time></trkpt><trkpt lat="45.363527182964695" lon="8.382933667653615"><ele>138.0</ele><time>2026-04-26T16:31:59.979Z</time></trkpt><trkpt lat="45.36367348159126" lon="8.382801259995306"><ele>138.0</ele><time>2026-04-26T16:32:00.979Z</time></trkpt><trkpt lat="45.363818053712556" lon="8.382669095271435"><ele>137.66666666666666</ele><time>2026-04-26T16:32:01.979Z</time></trkpt><trkpt lat="45.36396264865859" lon="8.38253765964539"><ele>137.33333333333331</ele><time>2026-04-26T16:32:02.979Z</time></trkpt><trkpt lat="45.36410575532758" lon="8.382406952395122"><ele>137.0</ele><time>2026-04-26T16:32:03.979Z</time></trkpt><trkpt lat="45.36427427249512" lon="8.382327213621497"><ele>137.0</ele><time>2026-04-26T16:32:04.979Z</time></trkpt><trkpt lat="45.36442855460992" lon="8.382187807170293"><ele>137.0</ele><time>2026-04-26T16:32:05.979Z</time></trkpt><trkpt lat="45.3645934122945" lon="8.382038368671749"><ele>137.0</ele><time>2026-04-26T16:32:06.981Z</time></trkpt><trkpt lat="45.36476462054018" lon="8.381883120253667"><ele>137.66666666666666</ele><time>2026-04-26T16:32:07.981Z</time></trkpt><trkpt lat="45.3649431716868" lon="8.38172121490483"><ele>138.33333333333334</ele><time>2026-04-26T16:32:08.981Z</time></trkpt><trkpt lat="45.36512433882003" lon="8.381559915481219"><ele>139.0</ele><time>2026-04-26T16:32:09.98Z</time></trkpt><trkpt lat="45.36530152017238" lon="8.381401694351462"><ele>139.0</ele><time>2026-04-26T16:32:10.98Z</time></trkpt><trkpt lat="45.36547502145198" lon="8.381247921293621"><ele>139.0</ele><time>2026-04-26T16:32:11.98Z</time></trkpt><trkpt lat="45.36564454382407" lon="8.381095318332623"><ele>139.0</ele><time>2026-04-26T16:32:12.981Z</time></trkpt><trkpt lat="45.365809660206025" lon="8.38094668157842"><ele>138.66666666666669</ele><time>2026-04-26T16:32:13.981Z</time></trkpt><trkpt lat="45.36597855380493" lon="8.380795832235203"><ele>138.33333333333334</ele><time>2026-04-26T16:32:14.981Z</time></trkpt><trkpt lat="45.36615344946113" lon="8.380640268764791"><ele>138.0</ele><time>2026-04-26T16:32:15.98Z</time></trkpt><trkpt lat="45.366328364079116" lon="8.380484969220454"><ele>137.66666666666666</ele><time>2026-04-26T16:32:16.98Z</time></trkpt><trkpt lat="45.366505754627944" lon="8.380327003678053"><ele>137.33333333333331</ele><time>2026-04-26T16:32:17.98Z</time></trkpt><trkpt lat="45.366683597434246" lon="8.380168427156212"><ele>137.0</ele><time>2026-04-26T16:32:18.98Z</time></trkpt><trkpt lat="45.36686410555598" lon="8.38000707391226"><ele>137.0</ele><time>2026-04-26T16:32:19.981Z</time></trkpt><trkpt lat="45.36704929421452" lon="8.37984153584124"><ele>137.0</ele><time>2026-04-26T16:32:20.981Z</time></trkpt><trkpt lat="45.36723593162855" lon="8.379673847588675"><ele>137.0</ele><time>2026-04-26T16:32:21.981Z</time></trkpt><trkpt lat="45.36742193672509" lon="8.37950682034737"><ele>136.33333333333331</ele><time>2026-04-26T16:32:22.981Z</time></trkpt><trkpt lat="45.3676044605382" lon="8.379344591603585"><ele>135.66666666666666</ele><time>2026-04-26T16:32:23.981Z</time></trkpt><trkpt lat="45.367788073062684" lon="8.379180682576514"><ele>135.0</ele><time>2026-04-26T16:32:24.981Z</time></trkpt><trkpt lat="45.36797542391242" lon="8.379013436457011"><ele>135.0</ele><time>2026-04-26T16:32:25.981Z</time></trkpt><trkpt lat="45.368166495986955" lon="8.378842215089946"><ele>135.0</ele><time>2026-04-26T16:32:26.981Z</time></trkpt><trkpt lat="45.36835862831278" lon="8.378669843178567"><ele>135.0</ele><time>2026-04-26T16:32:27.981Z</time></trkpt><trkpt lat="45.368552398086386" lon="8.378496002310852"><ele>135.0</ele><time>2026-04-26T16:32:28.981Z</time></trkpt><trkpt lat="45.368749165787264" lon="8.378319471997854"><ele>134.5</ele><time>2026-04-26T16:32:29.981Z</time></trkpt><trkpt lat="45.368949231380576" lon="8.378140309028398"><ele>134.0</ele><time>2026-04-26T16:32:30.981Z</time></trkpt><trkpt lat="45.36915315288842" lon="8.377958277605908"><ele>134.0</ele><time>2026-04-26T16:32:31.981Z</time></trkpt><trkpt lat="45.36936207641138" lon="8.377771781139078"><ele>134.0</ele><time>2026-04-26T16:32:32.981Z</time></trkpt><trkpt lat="45.36957584426861" lon="8.377580720336887"><ele>133.5</ele><time>2026-04-26T16:32:33.981Z</time></trkpt><trkpt lat="45.36978769439958" lon="8.377390530992981"><ele>133.0</ele><time>2026-04-26T16:32:34.981Z</time></trkpt><trkpt lat="45.369992666370045" lon="8.377206518375065"><ele>133.0</ele><time>2026-04-26T16:32:35.981Z</time></trkpt><trkpt lat="45.37018917761363" lon="8.377030099626898"><ele>133.0</ele><time>2026-04-26T16:32:36.981Z</time></trkpt><trkpt lat="45.370369207252786" lon="8.376845450062937"><ele>133.33333333333334</ele><time>2026-04-26T16:32:37.981Z</time></trkpt><trkpt lat="45.37054915890209" lon="8.376686093339918"><ele>133.66666666666666</ele><time>2026-04-26T16:32:38.981Z</time></trkpt><trkpt lat="45.370721113438094" lon="8.376535068977258"><ele>134.0</ele><time>2026-04-26T16:32:39.981Z</time></trkpt><trkpt lat="45.37088623526808" lon="8.376387874720553"><ele>134.0</ele><time>2026-04-26T16:32:40.98Z</time></trkpt><trkpt lat="45.37104794167209" lon="8.376244675336041"><ele>134.0</ele><time>2026-04-26T16:32:41.98Z</time></trkpt><trkpt lat="45.37120765714617" lon="8.376103605747023"><ele>134.0</ele><time>2026-04-26T16:32:42.98Z</time></trkpt><trkpt lat="45.37136597069124" lon="8.37596217137589"><ele>134.0</ele><time>2026-04-26T16:32:43.98Z</time></trkpt><trkpt lat="45.37152329798452" lon="8.375820920375007"><ele>134.0</ele><time>2026-04-26T16:32:44.98Z</time></trkpt><trkpt lat="45.371680450902836" lon="8.375679353298244"><ele>134.0</ele><time>2026-04-26T16:32:45.98Z</time></trkpt><trkpt lat="45.37183546932767" lon="8.3755426465286"><ele>134.0</ele><time>2026-04-26T16:32:46.98Z</time></trkpt><trkpt lat="45.37198927676954" lon="8.375408889876098"><ele>134.0</ele><time>2026-04-26T16:32:47.98Z</time></trkpt><trkpt lat="45.3721385364369" lon="8.375277280374974"><ele>134.0</ele><time>2026-04-26T16:32:48.98Z</time></trkpt><trkpt lat="45.37228325455912" lon="8.375149709068129"><ele>133.66666666666666</ele><time>2026-04-26T16:32:49.98Z</time></trkpt><trkpt lat="45.37242876362275" lon="8.375023707315245"><ele>133.33333333333334</ele><time>2026-04-26T16:32:50.98Z</time></trkpt><trkpt lat="45.372574741651086" lon="8.37490495028959"><ele>133.0</ele><time>2026-04-26T16:32:51.98Z</time></trkpt><trkpt lat="45.37272065619605" lon="8.374794527870023"><ele>133.0</ele><time>2026-04-26T16:32:52.98Z</time></trkpt><trkpt lat="45.37286553231153" lon="8.374692484784731"><ele>133.0</ele><time>2026-04-26T16:32:53.98Z</time></trkpt><trkpt lat="45.37301603620953" lon="8.374593023005964"><ele>133.0</ele><time>2026-04-26T16:32:54.98Z</time></trkpt><trkpt lat="45.37315520032062" lon="8.374471656976644"><ele>133.33333333333334</ele><time>2026-04-26T16:32:55.98Z</time></trkpt><trkpt lat="45.373289317229386" lon="8.374350161941505"><ele>133.66666666666666</ele><time>2026-04-26T16:32:56.98Z</time></trkpt><trkpt lat="45.37345233742443" lon="8.374298940340468"><ele>134.0</ele><time>2026-04-26T16:32:57.98Z</time></trkpt><trkpt lat="45.37359289886189" lon="8.374216490768562"><ele>134.0</ele><time>2026-04-26T16:32:58.98Z</time></trkpt><trkpt lat="45.37373158628987" lon="8.374147593045427"><ele>134.0</ele><time>2026-04-26T16:32:59.98Z</time></trkpt><trkpt lat="45.37387564325944" lon="8.374094520446885"><ele>134.0</ele><time>2026-04-26T16:33:00.98Z</time></trkpt><trkpt lat="45.37401797700166" lon="8.374040567381076"><ele>134.0</ele><time>2026-04-26T16:33:01.98Z</time></trkpt><trkpt lat="45.374154044754995" lon="8.373988637073714"><ele>134.25</ele><time>2026-04-26T16:33:02.98Z</time></trkpt><trkpt lat="45.37428299524574" lon="8.373932744861753"><ele>134.5</ele><time>2026-04-26T16:33:03.98Z</time></trkpt><trkpt lat="45.37440629202354" lon="8.373879314684357"><ele>134.75</ele><time>2026-04-26T16:33:04.98Z</time></trkpt><trkpt lat="45.37452268604221" lon="8.373830682380657"><ele>135.0</ele><time>2026-04-26T16:33:05.98Z</time></trkpt><trkpt lat="45.37463489874723" lon="8.373783133154413"><ele>135.4</ele><time>2026-04-26T16:33:06.98Z</time></trkpt><trkpt lat="45.374744011849685" lon="8.373741875249"><ele>135.8</ele><time>2026-04-26T16:33:07.98Z</time></trkpt><trkpt lat="45.37484822675936" lon="8.3737054298625"><ele>136.2</ele><time>2026-04-26T16:33:08.98Z</time></trkpt><trkpt lat="45.37494452571931" lon="8.373672052013369"><ele>136.6</ele><time>2026-04-26T16:33:09.98Z</time></trkpt><trkpt lat="45.375037856289985" lon="8.373638419005205"><ele>137.0</ele><time>2026-04-26T16:33:10.98Z</time></trkpt><trkpt lat="45.37512682056928" lon="8.373601745440181"><ele>137.0</ele><time>2026-04-26T16:33:11.98Z</time></trkpt><trkpt lat="45.375211825269346" lon="8.373573959513042"><ele>137.0</ele><time>2026-04-26T16:33:12.98Z</time></trkpt><trkpt lat="45.3752944963111" lon="8.373539156823968"><ele>137.0</ele><time>2026-04-26T16:33:13.98Z</time></trkpt><trkpt lat="45.375371081413824" lon="8.373492195757722"><ele>137.0</ele><time>2026-04-26T16:33:14.98Z</time></trkpt><trkpt lat="45.375438935887644" lon="8.373419570407846"><ele>137.0</ele><time>2026-04-26T16:33:15.98Z</time></trkpt><trkpt lat="45.375500334348324" lon="8.373324224694093"><ele>137.0</ele><time>2026-04-26T16:33:16.98Z</time></trkpt><trkpt lat="45.3755578528597" lon="8.373216897559333"><ele>136.6</ele><time>2026-04-26T16:33:17.98Z</time></trkpt><trkpt lat="45.37561126183727" lon="8.37309211310625"><ele>136.2</ele><time>2026-04-26T16:33:18.98Z</time></trkpt><trkpt lat="45.37565861504701" lon="8.372961818331433"><ele>135.8</ele><time>2026-04-26T16:33:19.98Z</time></trkpt><trkpt lat="45.37570855415545" lon="8.372830180414402"><ele>135.4</ele><time>2026-04-26T16:33:20.98Z</time></trkpt><trkpt lat="45.37576174926796" lon="8.372697762559136"><ele>135.0</ele><time>2026-04-26T16:33:21.98Z</time></trkpt><trkpt lat="45.37581659345732" lon="8.372569253676195"><ele>135.0</ele><time>2026-04-26T16:33:22.98Z</time></trkpt><trkpt lat="45.37586920482354" lon="8.372439610760832"><ele>135.0</ele><time>2026-04-26T16:33:23.98Z</time></trkpt><trkpt lat="45.37592297304131" lon="8.372301142739271"><ele>135.0</ele><time>2026-04-26T16:33:24.98Z</time></trkpt><trkpt lat="45.37597881445125" lon="8.37215207801817"><ele>135.0</ele><time>2026-04-26T16:33:25.98Z</time></trkpt><trkpt lat="45.37603551658383" lon="8.371993457314925"><ele>135.0</ele><time>2026-04-26T16:33:26.98Z</time></trkpt><trkpt lat="45.3760936666575" lon="8.37182673014428"><ele>135.0</ele><time>2026-04-26T16:33:27.98Z</time></trkpt><trkpt lat="45.37615637982949" lon="8.371652741666667"><ele>135.0</ele><time>2026-04-26T16:33:28.98Z</time></trkpt><trkpt lat="45.376227714864015" lon="8.37147494265388"><ele>135.0</ele><time>2026-04-26T16:33:29.98Z</time></trkpt><trkpt lat="45.37631312091055" lon="8.371295850487344"><ele>135.66666666666666</ele><time>2026-04-26T16:33:30.979Z</time></trkpt><trkpt lat="45.3764096823134" lon="8.371119583431945"><ele>136.33333333333331</ele><time>2026-04-26T16:33:31.979Z</time></trkpt><trkpt lat="45.37652477952667" lon="8.370954735534939"><ele>137.0</ele><time>2026-04-26T16:33:32.979Z</time></trkpt><trkpt lat="45.37664298588997" lon="8.37079511390212"><ele>137.0</ele><time>2026-04-26T16:33:33.979Z</time></trkpt><trkpt lat="45.376761556233674" lon="8.37063492696021"><ele>137.0</ele><time>2026-04-26T16:33:34.979Z</time></trkpt><trkpt lat="45.37688362164797" lon="8.37048032044481"><ele>137.0</ele><time>2026-04-26T16:33:35.979Z</time></trkpt><trkpt lat="45.3769966700468" lon="8.37033430768788"><ele>137.0</ele><time>2026-04-26T16:33:36.979Z</time></trkpt><trkpt lat="45.37710004224904" lon="8.370191216327484"><ele>137.0</ele><time>2026-04-26T16:33:37.979Z</time></trkpt><trkpt lat="45.37720192491818" lon="8.370047705976932"><ele>137.0</ele><time>2026-04-26T16:33:38.979Z</time></trkpt><trkpt lat="45.37730248597667" lon="8.369905360552604"><ele>137.0</ele><time>2026-04-26T16:33:39.979Z</time></trkpt><trkpt lat="45.37740262515553" lon="8.369766266546439"><ele>136.75</ele><time>2026-04-26T16:33:40.979Z</time></trkpt><trkpt lat="45.37750105298063" lon="8.369632625367926"><ele>136.5</ele><time>2026-04-26T16:33:41.979Z</time></trkpt><trkpt lat="45.37759629625335" lon="8.369500454772501"><ele>136.25</ele><time>2026-04-26T16:33:42.979Z</time></trkpt><trkpt lat="45.37769165593518" lon="8.369368672362448"><ele>136.0</ele><time>2026-04-26T16:33:43.979Z</time></trkpt><trkpt lat="45.37778369989161" lon="8.369236122824045"><ele>136.0</ele><time>2026-04-26T16:33:44.979Z</time></trkpt><trkpt lat="45.37787746043011" lon="8.369108734455311"><ele>136.0</ele><time>2026-04-26T16:33:45.979Z</time></trkpt><trkpt lat="45.37797453516697" lon="8.368976733292278"><ele>136.0</ele><time>2026-04-26T16:33:46.979Z</time></trkpt><trkpt lat="45.378074639122026" lon="8.368842518280095"><ele>136.0</ele><time>2026-04-26T16:33:47.979Z</time></trkpt><trkpt lat="45.3781763114622" lon="8.368703153529784"><ele>135.75</ele><time>2026-04-26T16:33:48.979Z</time></trkpt><trkpt lat="45.37827786173802" lon="8.368565252182714"><ele>135.5</ele><time>2026-04-26T16:33:49.979Z</time></trkpt><trkpt lat="45.378378219116705" lon="8.368428002608521"><ele>135.25</ele><time>2026-04-26T16:33:50.979Z</time></trkpt><trkpt lat="45.37847913624693" lon="8.368288718656085"><ele>135.0</ele><time>2026-04-26T16:33:51.979Z</time></trkpt><trkpt lat="45.37857655739411" lon="8.368152758838383"><ele>135.0</ele><time>2026-04-26T16:33:52.979Z</time></trkpt><trkpt lat="45.378677177879666" lon="8.368014134464117"><ele>135.0</ele><time>2026-04-26T16:33:53.979Z</time></trkpt><trkpt lat="45.37878455568101" lon="8.367871424174869"><ele>135.0</ele><time>2026-04-26T16:33:54.979Z</time></trkpt><trkpt lat="45.37889403073425" lon="8.367724922060567"><ele>135.0</ele><time>2026-04-26T16:33:55.979Z</time></trkpt><trkpt lat="45.37900655033703" lon="8.367571499424853"><ele>135.0</ele><time>2026-04-26T16:33:56.979Z</time></trkpt><trkpt lat="45.379122037372866" lon="8.36740952692879"><ele>135.0</ele><time>2026-04-26T16:33:57.979Z</time></trkpt><trkpt lat="45.37924130466759" lon="8.367243067988747"><ele>135.0</ele><time>2026-04-26T16:33:58.979Z</time></trkpt><trkpt lat="45.37935635625068" lon="8.367072210321933"><ele>136.0</ele><time>2026-04-26T16:33:59.979Z</time></trkpt><trkpt lat="45.37951092583043" lon="8.36685549920002"><ele>137.0</ele><time>2026-04-26T16:34:00.979Z</time></trkpt><trkpt lat="45.37971518234389" lon="8.366634061912357"><ele>137.0</ele><time>2026-04-26T16:34:01.979Z</time></trkpt><trkpt lat="45.379920316784755" lon="8.366357735711118"><ele>137.0</ele><time>2026-04-26T16:34:02.979Z</time></trkpt><trkpt lat="45.38013701476398" lon="8.366045090850152"><ele>137.0</ele><time>2026-04-26T16:34:03.979Z</time></trkpt><trkpt lat="45.38037868384714" lon="8.365732191883808"><ele>137.0</ele><time>2026-04-26T16:34:04.979Z</time></trkpt><trkpt lat="45.3806232841727" lon="8.365394957223938"><ele>136.5</ele><time>2026-04-26T16:34:05.979Z</time></trkpt><trkpt lat="45.380854100909545" lon="8.365050049641306"><ele>136.0</ele><time>2026-04-26T16:34:06.979Z</time></trkpt><trkpt lat="45.381069125716806" lon="8.364705218130188"><ele>136.5</ele><time>2026-04-26T16:34:07.979Z</time></trkpt><trkpt lat="45.38126956360083" lon="8.364363930895692"><ele>137.0</ele><time>2026-04-26T16:34:08.979Z</time></trkpt><trkpt lat="45.3814531557984" lon="8.364020537494921"><ele>137.0</ele><time>2026-04-26T16:34:09.979Z</time></trkpt><trkpt lat="45.38162191558589" lon="8.363678237765233"><ele>137.0</ele><time>2026-04-26T16:34:10.979Z</time></trkpt><trkpt lat="45.38178290060681" lon="8.363339167008661"><ele>137.5</ele><time>2026-04-26T16:34:11.979Z</time></trkpt><trkpt lat="45.38193719240621" lon="8.363003331321801"><ele>138.0</ele><time>2026-04-26T16:34:12.979Z</time></trkpt><trkpt lat="45.382093404154254" lon="8.362674030120345"><ele>137.5</ele><time>2026-04-26T16:34:13.98Z</time></trkpt><trkpt lat="45.38224777250596" lon="8.362351443779826"><ele>137.0</ele><time>2026-04-26T16:34:14.98Z</time></trkpt><trkpt lat="45.38240045028384" lon="8.362031804131469"><ele>137.0</ele><time>2026-04-26T16:34:15.98Z</time></trkpt><trkpt lat="45.382552507921744" lon="8.36171513990814"><ele>137.0</ele><time>2026-04-26T16:34:16.98Z</time></trkpt><trkpt lat="45.38270063357476" lon="8.36140248779526"><ele>137.5</ele><time>2026-04-26T16:34:17.98Z</time></trkpt><trkpt lat="45.38284717498354" lon="8.361091514828049"><ele>138.0</ele><time>2026-04-26T16:34:18.98Z</time></trkpt><trkpt lat="45.38299209681207" lon="8.360781117325311"><ele>137.0</ele><time>2026-04-26T16:34:19.98Z</time></trkpt><trkpt lat="45.38313667743404" lon="8.36047075929687"><ele>136.0</ele><time>2026-04-26T16:34:20.98Z</time></trkpt><trkpt lat="45.38328087375941" lon="8.360162278627461"><ele>136.0</ele><time>2026-04-26T16:34:21.979Z</time></trkpt><trkpt lat="45.38342393276318" lon="8.359854451104521"><ele>136.0</ele><time>2026-04-26T16:34:22.979Z</time></trkpt><trkpt lat="45.38356546205142" lon="8.35954773382224"><ele>136.5</ele><time>2026-04-26T16:34:23.979Z</time></trkpt><trkpt lat="45.38370699570263" lon="8.359243292912085"><ele>137.0</ele><time>2026-04-26T16:34:24.979Z</time></trkpt><trkpt lat="45.38384853920328" lon="8.358936421051368"><ele>138.0</ele><time>2026-04-26T16:34:25.979Z</time></trkpt><trkpt lat="45.383991686298906" lon="8.358633130439605"><ele>139.0</ele><time>2026-04-26T16:34:26.979Z</time></trkpt><trkpt lat="45.384134272035475" lon="8.358326912005648"><ele>139.0</ele><time>2026-04-26T16:34:27.979Z</time></trkpt><trkpt lat="45.38427542525196" lon="8.358021612474213"><ele>139.0</ele><time>2026-04-26T16:34:28.979Z</time></trkpt><trkpt lat="45.38441630363108" lon="8.357719494197024"><ele>139.0</ele><time>2026-04-26T16:34:29.979Z</time></trkpt><trkpt lat="45.384558381446666" lon="8.35741766214991"><ele>139.0</ele><time>2026-04-26T16:34:30.979Z</time></trkpt><trkpt lat="45.384700901747145" lon="8.357115498078828"><ele>138.5</ele><time>2026-04-26T16:34:31.979Z</time></trkpt><trkpt lat="45.38484179528388" lon="8.356813100742679"><ele>138.0</ele><time>2026-04-26T16:34:32.979Z</time></trkpt><trkpt lat="45.384979939653405" lon="8.356510940460444"><ele>139.0</ele><time>2026-04-26T16:34:33.979Z</time></trkpt><trkpt lat="45.38511733669074" lon="8.356211751560172"><ele>140.0</ele><time>2026-04-26T16:34:34.979Z</time></trkpt><trkpt lat="45.385253407221114" lon="8.355917340185778"><ele>140.0</ele><time>2026-04-26T16:34:35.979Z</time></trkpt><trkpt lat="45.38538670737641" lon="8.355627327963292"><ele>140.0</ele><time>2026-04-26T16:34:36.979Z</time></trkpt><trkpt lat="45.38551903822759" lon="8.355355042660788"><ele>140.5</ele><time>2026-04-26T16:34:37.979Z</time></trkpt><trkpt lat="45.38566147703242" lon="8.355100607047785"><ele>141.0</ele><time>2026-04-26T16:34:38.979Z</time></trkpt><trkpt lat="45.3858235729675" lon="8.354862395848812"><ele>140.5</ele><time>2026-04-26T16:34:39.979Z</time></trkpt><trkpt lat="45.386006079511134" lon="8.354646326961975"><ele>140.0</ele><time>2026-04-26T16:34:40.979Z</time></trkpt><trkpt lat="45.38620251187024" lon="8.35445764753138"><ele>140.0</ele><time>2026-04-26T16:34:41.979Z</time></trkpt><trkpt lat="45.38641186130007" lon="8.35429739335433"><ele>140.0</ele><time>2026-04-26T16:34:42.979Z</time></trkpt><trkpt lat="45.386631626064975" lon="8.354163790697074"><ele>140.0</ele><time>2026-04-26T16:34:43.979Z</time></trkpt><trkpt lat="45.38685979562772" lon="8.354063023359735"><ele>140.0</ele><time>2026-04-26T16:34:44.979Z</time></trkpt><trkpt lat="45.387095723971335" lon="8.354003023948138"><ele>140.5</ele><time>2026-04-26T16:34:45.979Z</time></trkpt><trkpt lat="45.387333868248646" lon="8.353978704745213"><ele>141.0</ele><time>2026-04-26T16:34:46.978Z</time></trkpt><trkpt lat="45.387571724846815" lon="8.353996706812794"><ele>141.0</ele><time>2026-04-26T16:34:47.978Z</time></trkpt><trkpt lat="45.38780961869306" lon="8.354045098180508"><ele>141.0</ele><time>2026-04-26T16:34:48.978Z</time></trkpt><trkpt lat="45.3880423840205" lon="8.354126464289031"><ele>141.5</ele><time>2026-04-26T16:34:49.978Z</time></trkpt><trkpt lat="45.38826943371905" lon="8.354240613565771"><ele>142.0</ele><time>2026-04-26T16:34:50.978Z</time></trkpt><trkpt lat="45.38848531813326" lon="8.354381686009859"><ele>142.0</ele><time>2026-04-26T16:34:51.978Z</time></trkpt><trkpt lat="45.38869831008628" lon="8.35454339763136"><ele>142.0</ele><time>2026-04-26T16:34:52.978Z</time></trkpt><trkpt lat="45.388911539226925" lon="8.354702297660888"><ele>140.0</ele><time>2026-04-26T16:34:53.978Z</time></trkpt><trkpt lat="45.38912362837649" lon="8.354853957636456"><ele>138.0</ele><time>2026-04-26T16:34:54.978Z</time></trkpt><trkpt lat="45.389330299630934" lon="8.355005512037744"><ele>138.0</ele><time>2026-04-26T16:34:55.978Z</time></trkpt><trkpt lat="45.389534710751214" lon="8.355146683840784"><ele>138.0</ele><time>2026-04-26T16:34:56.978Z</time></trkpt><trkpt lat="45.3897371894869" lon="8.355267648695717"><ele>138.0</ele><time>2026-04-26T16:34:57.978Z</time></trkpt><trkpt lat="45.389929234576215" lon="8.355410397832955"><ele>139.0</ele><time>2026-04-26T16:34:58.978Z</time></trkpt><trkpt lat="45.39012782233554" lon="8.355543217963552"><ele>140.0</ele><time>2026-04-26T16:34:59.978Z</time></trkpt><trkpt lat="45.39037502481561" lon="8.355531898802957"><ele>139.0</ele><time>2026-04-26T16:35:00.978Z</time></trkpt><trkpt lat="45.3906153400227" lon="8.355533990569569"><ele>138.0</ele><time>2026-04-26T16:35:01.978Z</time></trkpt><trkpt lat="45.39086419222999" lon="8.355501445421996"><ele>138.0</ele><time>2026-04-26T16:35:02.978Z</time></trkpt><trkpt lat="45.391114664508756" lon="8.35542858795513"><ele>138.0</ele><time>2026-04-26T16:35:03.978Z</time></trkpt><trkpt lat="45.391361335359726" lon="8.355309873599913"><ele>138.0</ele><time>2026-04-26T16:35:04.978Z</time></trkpt><trkpt lat="45.39160077619916" lon="8.355155630700152"><ele>138.0</ele><time>2026-04-26T16:35:05.978Z</time></trkpt><trkpt lat="45.39183164090093" lon="8.354958652989808"><ele>138.0</ele><time>2026-04-26T16:35:06.978Z</time></trkpt><trkpt lat="45.39205255728865" lon="8.3547343869854"><ele>138.0</ele><time>2026-04-26T16:35:07.978Z</time></trkpt><trkpt lat="45.3922597763663" lon="8.35448269511323"><ele>138.5</ele><time>2026-04-26T16:35:08.978Z</time></trkpt><trkpt lat="45.39246336954085" lon="8.35422283379479"><ele>139.0</ele><time>2026-04-26T16:35:09.978Z</time></trkpt><trkpt lat="45.3926737220387" lon="8.35396190803095"><ele>139.0</ele><time>2026-04-26T16:35:10.978Z</time></trkpt><trkpt lat="45.39288221307147" lon="8.353704122431141"><ele>139.0</ele><time>2026-04-26T16:35:11.978Z</time></trkpt><trkpt lat="45.39308968832264" lon="8.353448447205942"><ele>139.0</ele><time>2026-04-26T16:35:12.978Z</time></trkpt><trkpt lat="45.393294317631884" lon="8.353196920469978"><ele>139.0</ele><time>2026-04-26T16:35:13.978Z</time></trkpt><trkpt lat="45.393495712728104" lon="8.352946963050343"><ele>139.0</ele><time>2026-04-26T16:35:14.978Z</time></trkpt><trkpt lat="45.39369334789142" lon="8.352699841573832"><ele>139.0</ele><time>2026-04-26T16:35:15.978Z</time></trkpt><trkpt lat="45.39389096749141" lon="8.352457269688944"><ele>139.0</ele><time>2026-04-26T16:35:16.978Z</time></trkpt><trkpt lat="45.394088182132734" lon="8.352219040941472"><ele>139.0</ele><time>2026-04-26T16:35:17.978Z</time></trkpt><trkpt lat="45.39428270927532" lon="8.351983587304264"><ele>138.5</ele><time>2026-04-26T16:35:18.978Z</time></trkpt><trkpt lat="45.39447588050594" lon="8.351747854776805"><ele>138.0</ele><time>2026-04-26T16:35:19.978Z</time></trkpt><trkpt lat="45.3946654686665" lon="8.351515602082516"><ele>140.0</ele><time>2026-04-26T16:35:20.978Z</time></trkpt><trkpt lat="45.39485058517722" lon="8.351287349187576"><ele>142.0</ele><time>2026-04-26T16:35:21.978Z</time></trkpt><trkpt lat="45.395031579333754" lon="8.351065468512298"><ele>142.0</ele><time>2026-04-26T16:35:22.978Z</time></trkpt><trkpt lat="45.395208146321906" lon="8.35084997520678"><ele>142.0</ele><time>2026-04-26T16:35:23.978Z</time></trkpt><trkpt lat="45.395374484019634" lon="8.350645443467318"><ele>142.0</ele><time>2026-04-26T16:35:24.978Z</time></trkpt><trkpt lat="45.395533451688785" lon="8.350451001277454"><ele>142.0</ele><time>2026-04-26T16:35:25.978Z</time></trkpt><trkpt lat="45.39568485175612" lon="8.350265596887388"><ele>142.0</ele><time>2026-04-26T16:35:26.978Z</time></trkpt><trkpt lat="45.39582706511512" lon="8.350090552901916"><ele>142.0</ele><time>2026-04-26T16:35:27.978Z</time></trkpt><trkpt lat="45.39595837036147" lon="8.349923430265466"><ele>142.0</ele><time>2026-04-26T16:35:28.978Z</time></trkpt><trkpt lat="45.39608585872122" lon="8.34976222951535"><ele>142.0</ele><time>2026-04-26T16:35:29.978Z</time></trkpt><trkpt lat="45.396205687194936" lon="8.349608220909971"><ele>142.0</ele><time>2026-04-26T16:35:30.978Z</time></trkpt><trkpt lat="45.39631691176953" lon="8.349455918920217"><ele>142.0</ele><time>2026-04-26T16:35:31.978Z</time></trkpt><trkpt lat="45.39641566798461" lon="8.349298246916259"><ele>142.0</ele><time>2026-04-26T16:35:32.978Z</time></trkpt><trkpt lat="45.39651012064062" lon="8.34912080780029"><ele>142.0</ele><time>2026-04-26T16:35:33.978Z</time></trkpt><trkpt lat="45.3966029496901" lon="8.348944950109555"><ele>142.0</ele><time>2026-04-26T16:35:34.978Z</time></trkpt><trkpt lat="45.39669016227145" lon="8.348768058091675"><ele>142.0</ele><time>2026-04-26T16:35:35.978Z</time></trkpt><trkpt lat="45.39676502876853" lon="8.348588203966994"><ele>142.5</ele><time>2026-04-26T16:35:36.977Z</time></trkpt><trkpt lat="45.39682347131386" lon="8.34840557073059"><ele>143.0</ele><time>2026-04-26T16:35:37.977Z</time></trkpt><trkpt lat="45.396863273963035" lon="8.348213885548345"><ele>143.5</ele><time>2026-04-26T16:35:38.977Z</time></trkpt><trkpt lat="45.39688018621555" lon="8.348003763497935"><ele>144.0</ele><time>2026-04-26T16:35:39.977Z</time></trkpt><trkpt lat="45.396897082151796" lon="8.34778316351139"><ele>144.0</ele><time>2026-04-26T16:35:40.977Z</time></trkpt><trkpt lat="45.39690818107432" lon="8.347549222138316"><ele>144.0</ele><time>2026-04-26T16:35:41.977Z</time></trkpt><trkpt lat="45.39692104584395" lon="8.347310124308487"><ele>144.0</ele><time>2026-04-26T16:35:42.977Z</time></trkpt><trkpt lat="45.39693665638833" lon="8.347070198945985"><ele>144.0</ele><time>2026-04-26T16:35:43.977Z</time></trkpt><trkpt lat="45.39695226043356" lon="8.346824260520712"><ele>144.0</ele><time>2026-04-26T16:35:44.977Z</time></trkpt><trkpt lat="45.39696340923731" lon="8.346581484179362"><ele>144.0</ele><time>2026-04-26T16:35:45.977Z</time></trkpt><trkpt lat="45.39697237951617" lon="8.346340247140963"><ele>143.66666666666666</ele><time>2026-04-26T16:35:46.977Z</time></trkpt><trkpt lat="45.3969814552249" lon="8.346096632529482"><ele>143.33333333333331</ele><time>2026-04-26T16:35:47.976Z</time></trkpt><trkpt lat="45.397003108015596" lon="8.345855303373686"><ele>143.0</ele><time>2026-04-26T16:35:48.976Z</time></trkpt><trkpt lat="45.397033877095076" lon="8.345611526206335"><ele>142.66666666666666</ele><time>2026-04-26T16:35:49.976Z</time></trkpt><trkpt lat="45.397079604998765" lon="8.34537010893885"><ele>142.33333333333334</ele><time>2026-04-26T16:35:50.975Z</time></trkpt><trkpt lat="45.39713287719409" lon="8.345132922678404"><ele>142.0</ele><time>2026-04-26T16:35:51.975Z</time></trkpt><trkpt lat="45.39718929220505" lon="8.344890377107832"><ele>142.33333333333334</ele><time>2026-04-26T16:35:52.975Z</time></trkpt><trkpt lat="45.39725007366357" lon="8.34464660554602"><ele>142.66666666666666</ele><time>2026-04-26T16:35:53.974Z</time></trkpt><trkpt lat="45.39731191855395" lon="8.344398865514027"><ele>143.0</ele><time>2026-04-26T16:35:54.974Z</time></trkpt><trkpt lat="45.397370104846416" lon="8.344145917861939"><ele>143.0</ele><time>2026-04-26T16:35:55.974Z</time></trkpt><trkpt lat="45.39742831375191" lon="8.343886724987883"><ele>143.0</ele><time>2026-04-26T16:35:56.973Z</time></trkpt><trkpt lat="45.39748871072107" lon="8.343611626825115"><ele>143.0</ele><time>2026-04-26T16:35:57.973Z</time></trkpt><trkpt lat="45.3975500152503" lon="8.343316387501222"><ele>142.5</ele><time>2026-04-26T16:35:58.973Z</time></trkpt><trkpt lat="45.3976155544212" lon="8.343005807115699"><ele>142.0</ele><time>2026-04-26T16:35:59.973Z</time></trkpt><trkpt lat="45.39769308081553" lon="8.342686551850143"><ele>142.0</ele><time>2026-04-26T16:36:00.973Z</time></trkpt><trkpt lat="45.39777749562015" lon="8.34236603821135"><ele>142.0</ele><time>2026-04-26T16:36:01.972Z</time></trkpt><trkpt lat="45.397859614410244" lon="8.342049658275096"><ele>142.0</ele><time>2026-04-26T16:36:02.972Z</time></trkpt><trkpt lat="45.397935321681295" lon="8.341731306226354"><ele>142.0</ele><time>2026-04-26T16:36:03.972Z</time></trkpt><trkpt lat="45.39800862768383" lon="8.341404144693437"><ele>142.5</ele><time>2026-04-26T16:36:04.972Z</time></trkpt><trkpt lat="45.398081483660675" lon="8.341087130584022"><ele>143.0</ele><time>2026-04-26T16:36:05.972Z</time></trkpt><trkpt lat="45.39815233406713" lon="8.340772400659441"><ele>143.0</ele><time>2026-04-26T16:36:06.972Z</time></trkpt><trkpt lat="45.39822369969861" lon="8.340460512670901"><ele>143.0</ele><time>2026-04-26T16:36:07.971Z</time></trkpt><trkpt lat="45.39829506922615" lon="8.34015085313382"><ele>143.0</ele><time>2026-04-26T16:36:08.971Z</time></trkpt><trkpt lat="45.398366294887346" lon="8.339843318173028"><ele>143.0</ele><time>2026-04-26T16:36:09.971Z</time></trkpt><trkpt lat="45.39843709052268" lon="8.33953736661855"><ele>143.0</ele><time>2026-04-26T16:36:10.971Z</time></trkpt><trkpt lat="45.398507984651005" lon="8.339230778757345"><ele>143.0</ele><time>2026-04-26T16:36:11.971Z</time></trkpt><trkpt lat="45.39857911384478" lon="8.33892281358237"><ele>143.0</ele><time>2026-04-26T16:36:12.971Z</time></trkpt><trkpt lat="45.398651131459566" lon="8.338611860789078"><ele>143.0</ele><time>2026-04-26T16:36:13.971Z</time></trkpt><trkpt lat="45.39872335882316" lon="8.338302514993348"><ele>143.0</ele><time>2026-04-26T16:36:14.971Z</time></trkpt><trkpt lat="45.39879433599623" lon="8.337990731238099"><ele>143.0</ele><time>2026-04-26T16:36:15.971Z</time></trkpt><trkpt lat="45.39886703123386" lon="8.337677781799947"><ele>143.0</ele><time>2026-04-26T16:36:16.971Z</time></trkpt><trkpt lat="45.398939048469856" lon="8.337364153402746"><ele>143.0</ele><time>2026-04-26T16:36:17.97Z</time></trkpt><trkpt lat="45.399010649653704" lon="8.337048086358767"><ele>143.0</ele><time>2026-04-26T16:36:18.972Z</time></trkpt><trkpt lat="45.39908263290342" lon="8.33673038714881"><ele>143.0</ele><time>2026-04-26T16:36:19.972Z</time></trkpt><trkpt lat="45.3991521090865" lon="8.33640960478692"><ele>143.5</ele><time>2026-04-26T16:36:20.972Z</time></trkpt><trkpt lat="45.39922413064331" lon="8.336086124919103"><ele>144.0</ele><time>2026-04-26T16:36:21.972Z</time></trkpt><trkpt lat="45.39929603131648" lon="8.335764381090629"><ele>144.5</ele><time>2026-04-26T16:36:22.972Z</time></trkpt><trkpt lat="45.39936935756096" lon="8.335439899831982"><ele>145.0</ele><time>2026-04-26T16:36:23.971Z</time></trkpt><trkpt lat="45.39944151700417" lon="8.335117660363208"><ele>145.0</ele><time>2026-04-26T16:36:24.971Z</time></trkpt><trkpt lat="45.39951436067894" lon="8.334796100013904"><ele>145.0</ele><time>2026-04-26T16:36:25.972Z</time></trkpt><trkpt lat="45.399588700295425" lon="8.334474861958427"><ele>145.0</ele><time>2026-04-26T16:36:26.971Z</time></trkpt><trkpt lat="45.399664679921884" lon="8.33415678689117"><ele>145.0</ele><time>2026-04-26T16:36:27.971Z</time></trkpt><trkpt lat="45.39974605765978" lon="8.333840140450478"><ele>145.0</ele><time>2026-04-26T16:36:28.971Z</time></trkpt><trkpt lat="45.39983399776619" lon="8.333531128471773"><ele>145.0</ele><time>2026-04-26T16:36:29.971Z</time></trkpt><trkpt lat="45.39993216492527" lon="8.333230590368554"><ele>145.0</ele><time>2026-04-26T16:36:30.972Z</time></trkpt><trkpt lat="45.40004368010614" lon="8.332936384890397"><ele>145.0</ele><time>2026-04-26T16:36:31.972Z</time></trkpt><trkpt lat="45.40016768871615" lon="8.332654333024015"><ele>145.0</ele><time>2026-04-26T16:36:32.971Z</time></trkpt><trkpt lat="45.400300218212614" lon="8.332379465334409"><ele>145.0</ele><time>2026-04-26T16:36:33.971Z</time></trkpt><trkpt lat="45.40044423316741" lon="8.332116745959187"><ele>144.5</ele><time>2026-04-26T16:36:34.971Z</time></trkpt><trkpt lat="45.40059703939166" lon="8.331865218798548"><ele>144.0</ele><time>2026-04-26T16:36:35.971Z</time></trkpt><trkpt lat="45.40075845643689" lon="8.331620156445219"><ele>144.5</ele><time>2026-04-26T16:36:36.971Z</time></trkpt><trkpt lat="45.40093023647114" lon="8.331383755417963"><ele>145.0</ele><time>2026-04-26T16:36:37.971Z</time></trkpt><trkpt lat="45.40111149792492" lon="8.331159008792124"><ele>145.0</ele><time>2026-04-26T16:36:38.971Z</time></trkpt><trkpt lat="45.4013033213532" lon="8.330949828674331"><ele>145.0</ele><time>2026-04-26T16:36:39.971Z</time></trkpt><trkpt lat="45.40150223729651" lon="8.330754889114832"><ele>145.0</ele><time>2026-04-26T16:36:40.971Z</time></trkpt><trkpt lat="45.4017124187845" lon="8.330578097142107"><ele>145.0</ele><time>2026-04-26T16:36:41.971Z</time></trkpt><trkpt lat="45.40192994045037" lon="8.330419063907254"><ele>145.0</ele><time>2026-04-26T16:36:42.971Z</time></trkpt><trkpt lat="45.4021490284022" lon="8.330273890444378"><ele>145.0</ele><time>2026-04-26T16:36:43.971Z</time></trkpt><trkpt lat="45.40237320567653" lon="8.330143387013997"><ele>144.5</ele><time>2026-04-26T16:36:44.971Z</time></trkpt><trkpt lat="45.402600654598906" lon="8.33002453017654"><ele>144.0</ele><time>2026-04-26T16:36:45.971Z</time></trkpt><trkpt lat="45.40282823022842" lon="8.329908357136384"><ele>144.5</ele><time>2026-04-26T16:36:46.971Z</time></trkpt><trkpt lat="45.40305597991425" lon="8.329791730366"><ele>145.0</ele><time>2026-04-26T16:36:47.971Z</time></trkpt><trkpt lat="45.40328054727014" lon="8.329673903648741"><ele>145.5</ele><time>2026-04-26T16:36:48.971Z</time></trkpt><trkpt lat="45.40350880764719" lon="8.329550929659607"><ele>146.0</ele><time>2026-04-26T16:36:49.971Z</time></trkpt><trkpt lat="45.40373501614784" lon="8.32942739163028"><ele>145.5</ele><time>2026-04-26T16:36:50.971Z</time></trkpt><trkpt lat="45.40396310009611" lon="8.32930308497898"><ele>145.0</ele><time>2026-04-26T16:36:51.971Z</time></trkpt><trkpt lat="45.40419422220534" lon="8.329180910852216"><ele>145.0</ele><time>2026-04-26T16:36:52.971Z</time></trkpt><trkpt lat="45.40442494364518" lon="8.329059870754373"><ele>145.0</ele><time>2026-04-26T16:36:53.971Z</time></trkpt><trkpt lat="45.4046556324938" lon="8.32894036201431"><ele>146.0</ele><time>2026-04-26T16:36:54.971Z</time></trkpt><trkpt lat="45.40488673172108" lon="8.328820625407376"><ele>147.0</ele><time>2026-04-26T16:36:55.971Z</time></trkpt><trkpt lat="45.4051166083889" lon="8.328699014159849"><ele>147.0</ele><time>2026-04-26T16:36:56.971Z</time></trkpt><trkpt lat="45.405346705565556" lon="8.328576382991677"><ele>147.0</ele><time>2026-04-26T16:36:57.971Z</time></trkpt><trkpt lat="45.40557819132865" lon="8.328454828590607"><ele>146.5</ele><time>2026-04-26T16:36:58.971Z</time></trkpt><trkpt lat="45.40580979581784" lon="8.32833406545188"><ele>146.0</ele><time>2026-04-26T16:36:59.971Z</time></trkpt><trkpt lat="45.4060430644209" lon="8.328214182674607"><ele>146.0</ele><time>2026-04-26T16:37:00.971Z</time></trkpt><trkpt lat="45.40627824322465" lon="8.32809898113376"><ele>146.0</ele><time>2026-04-26T16:37:01.97Z</time></trkpt><trkpt lat="45.40651466394625" lon="8.327990810808878"><ele>146.5</ele><time>2026-04-26T16:37:02.97Z</time></trkpt><trkpt lat="45.40675197622319" lon="8.3278905497134"><ele>147.0</ele><time>2026-04-26T16:37:03.97Z</time></trkpt><trkpt lat="45.4069914797853" lon="8.327801096378987"><ele>147.5</ele><time>2026-04-26T16:37:04.97Z</time></trkpt><trkpt lat="45.40722968358976" lon="8.327716760823858"><ele>148.0</ele><time>2026-04-26T16:37:05.97Z</time></trkpt><trkpt lat="45.407464846906855" lon="8.327632198394157"><ele>148.0</ele><time>2026-04-26T16:37:06.97Z</time></trkpt><trkpt lat="45.40769815106075" lon="8.327541004408921"><ele>148.0</ele><time>2026-04-26T16:37:07.97Z</time></trkpt><trkpt lat="45.40792819843644" lon="8.327442047569875"><ele>148.0</ele><time>2026-04-26T16:37:08.97Z</time></trkpt><trkpt lat="45.408152575663834" lon="8.327330007874108"><ele>148.0</ele><time>2026-04-26T16:37:09.97Z</time></trkpt><trkpt lat="45.408374656763" lon="8.327206831203002"><ele>148.0</ele><time>2026-04-26T16:37:10.97Z</time></trkpt><trkpt lat="45.40859474947356" lon="8.327068940274826"><ele>148.0</ele><time>2026-04-26T16:37:11.97Z</time></trkpt><trkpt lat="45.40881045609722" lon="8.326916920779228"><ele>147.5</ele><time>2026-04-26T16:37:12.97Z</time></trkpt><trkpt lat="45.40902191713368" lon="8.32674905875507"><ele>147.0</ele><time>2026-04-26T16:37:13.97Z</time></trkpt><trkpt lat="45.40922885583208" lon="8.326570499604587"><ele>147.5</ele><time>2026-04-26T16:37:14.97Z</time></trkpt><trkpt lat="45.40943340169488" lon="8.326377732000733"><ele>148.0</ele><time>2026-04-26T16:37:15.97Z</time></trkpt><trkpt lat="45.409630922406826" lon="8.326170462921528"><ele>147.0</ele><time>2026-04-26T16:37:16.97Z</time></trkpt><trkpt lat="45.4098209115088" lon="8.325946296013923"><ele>146.0</ele><time>2026-04-26T16:37:17.97Z</time></trkpt><trkpt lat="45.41000500508102" lon="8.325705190220674"><ele>146.5</ele><time>2026-04-26T16:37:18.97Z</time></trkpt><trkpt lat="45.410184820012134" lon="8.325450555051647"><ele>147.0</ele><time>2026-04-26T16:37:19.97Z</time></trkpt><trkpt lat="45.410357649566876" lon="8.325186432746461"><ele>146.5</ele><time>2026-04-26T16:37:20.97Z</time></trkpt><trkpt lat="45.41052395717467" lon="8.32491021582253"><ele>146.0</ele><time>2026-04-26T16:37:21.97Z</time></trkpt><trkpt lat="45.41068903769258" lon="8.324627276460353"><ele>147.0</ele><time>2026-04-26T16:37:22.97Z</time></trkpt><trkpt lat="45.410855939327455" lon="8.32434493234333"><ele>148.0</ele><time>2026-04-26T16:37:23.97Z</time></trkpt><trkpt lat="45.41102794395374" lon="8.324066381859417"><ele>148.0</ele><time>2026-04-26T16:37:24.97Z</time></trkpt><trkpt lat="45.411196071126746" lon="8.323784701164898"><ele>148.0</ele><time>2026-04-26T16:37:25.97Z</time></trkpt><trkpt lat="45.411361892715924" lon="8.32349920440184"><ele>148.0</ele><time>2026-04-26T16:37:26.97Z</time></trkpt><trkpt lat="45.41152894497392" lon="8.323214402050107"><ele>148.0</ele><time>2026-04-26T16:37:27.97Z</time></trkpt><trkpt lat="45.4116965279044" lon="8.32292826097833"><ele>148.0</ele><time>2026-04-26T16:37:28.97Z</time></trkpt><trkpt lat="45.41186596033809" lon="8.3226423437516"><ele>148.0</ele><time>2026-04-26T16:37:29.97Z</time></trkpt><trkpt lat="45.412034301053936" lon="8.322358070951447"><ele>148.5</ele><time>2026-04-26T16:37:30.97Z</time></trkpt><trkpt lat="45.41220114882312" lon="8.32207659289767"><ele>149.0</ele><time>2026-04-26T16:37:31.97Z</time></trkpt><trkpt lat="45.412366804230274" lon="8.32179568162922"><ele>149.0</ele><time>2026-04-26T16:37:32.97Z</time></trkpt><trkpt lat="45.4125316967038" lon="8.321513871064589"><ele>149.0</ele><time>2026-04-26T16:37:33.97Z</time></trkpt><trkpt lat="45.41269654216293" lon="8.321230046139952"><ele>149.0</ele><time>2026-04-26T16:37:34.97Z</time></trkpt><trkpt lat="45.41286200016975" lon="8.320948898358893"><ele>149.0</ele><time>2026-04-26T16:37:35.97Z</time></trkpt><trkpt lat="45.413030583579406" lon="8.32067136053842"><ele>148.5</ele><time>2026-04-26T16:37:36.97Z</time></trkpt><trkpt lat="45.4131963709288" lon="8.320393920076354"><ele>148.0</ele><time>2026-04-26T16:37:37.97Z</time></trkpt><trkpt lat="45.41336130890911" lon="8.320119649052424"><ele>148.0</ele><time>2026-04-26T16:37:38.97Z</time></trkpt><trkpt lat="45.41352423930706" lon="8.319844163286232"><ele>148.0</ele><time>2026-04-26T16:37:39.97Z</time></trkpt><trkpt lat="45.41368565457027" lon="8.319569380710295"><ele>148.5</ele><time>2026-04-26T16:37:40.969Z</time></trkpt><trkpt lat="45.41384445522616" lon="8.31929717659028"><ele>149.0</ele><time>2026-04-26T16:37:41.969Z</time></trkpt><trkpt lat="45.414000704810256" lon="8.319025095144422"><ele>149.0</ele><time>2026-04-26T16:37:42.969Z</time></trkpt><trkpt lat="45.41415158740315" lon="8.318747829319669"><ele>149.0</ele><time>2026-04-26T16:37:43.969Z</time></trkpt><trkpt lat="45.41429534536681" lon="8.318463864980465"><ele>149.0</ele><time>2026-04-26T16:37:44.969Z</time></trkpt><trkpt lat="45.41443327260927" lon="8.318170167792719"><ele>149.0</ele><time>2026-04-26T16:37:45.969Z</time></trkpt><trkpt lat="45.41456606420409" lon="8.317869979583547"><ele>149.0</ele><time>2026-04-26T16:37:46.969Z</time></trkpt><trkpt lat="45.41469467493331" lon="8.317565196535961"><ele>149.0</ele><time>2026-04-26T16:37:47.969Z</time></trkpt><trkpt lat="45.41482263138942" lon="8.317258041673568"><ele>149.0</ele><time>2026-04-26T16:37:48.969Z</time></trkpt><trkpt lat="45.41495043035449" lon="8.316949509122061"><ele>149.0</ele><time>2026-04-26T16:37:49.969Z</time></trkpt><trkpt lat="45.41507660052039" lon="8.316642621392418"><ele>150.0</ele><time>2026-04-26T16:37:50.969Z</time></trkpt><trkpt lat="45.415201644681936" lon="8.316338373443836"><ele>151.0</ele><time>2026-04-26T16:37:51.969Z</time></trkpt><trkpt lat="45.4153277071684" lon="8.316033047425782"><ele>151.0</ele><time>2026-04-26T16:37:52.969Z</time></trkpt><trkpt lat="45.4154549292519" lon="8.315728793241728"><ele>151.0</ele><time>2026-04-26T16:37:53.969Z</time></trkpt><trkpt lat="45.41558366690096" lon="8.31542777874811"><ele>152.0</ele><time>2026-04-26T16:37:54.969Z</time></trkpt><trkpt lat="45.415711900575275" lon="8.31512386745213"><ele>153.0</ele><time>2026-04-26T16:37:55.969Z</time></trkpt><trkpt lat="45.41584303306449" lon="8.314819657827918"><ele>153.0</ele><time>2026-04-26T16:37:56.969Z</time></trkpt><trkpt lat="45.41598095441471" lon="8.31452175693096"><ele>153.0</ele><time>2026-04-26T16:37:57.969Z</time></trkpt><trkpt lat="45.41612198467752" lon="8.314223326408776"><ele>153.0</ele><time>2026-04-26T16:37:58.969Z</time></trkpt><trkpt lat="45.41626668261032" lon="8.313929147004634"><ele>153.0</ele><time>2026-04-26T16:37:59.969Z</time></trkpt><trkpt lat="45.416414891150204" lon="8.313635258434722"><ele>153.0</ele><time>2026-04-26T16:38:00.969Z</time></trkpt><trkpt lat="45.416568573955395" lon="8.313344099173666"><ele>153.0</ele><time>2026-04-26T16:38:01.969Z</time></trkpt><trkpt lat="45.41672653326713" lon="8.313057487965162"><ele>153.5</ele><time>2026-04-26T16:38:02.969Z</time></trkpt><trkpt lat="45.416888855743316" lon="8.312772197016226"><ele>154.0</ele><time>2026-04-26T16:38:03.969Z</time></trkpt><trkpt lat="45.41705519382671" lon="8.31248970610328"><ele>154.0</ele><time>2026-04-26T16:38:04.969Z</time></trkpt><trkpt lat="45.41722468648383" lon="8.312208298080884"><ele>154.0</ele><time>2026-04-26T16:38:05.969Z</time></trkpt><trkpt lat="45.41739569803639" lon="8.311931511356663"><ele>154.0</ele><time>2026-04-26T16:38:06.969Z</time></trkpt><trkpt lat="45.417570662623" lon="8.311654868633235"><ele>154.0</ele><time>2026-04-26T16:38:07.969Z</time></trkpt><trkpt lat="45.41774696753716" lon="8.311378484654007"><ele>154.5</ele><time>2026-04-26T16:38:08.969Z</time></trkpt><trkpt lat="45.417923613501564" lon="8.311102023407955"><ele>155.0</ele><time>2026-04-26T16:38:09.969Z</time></trkpt><trkpt lat="45.41810111251738" lon="8.31082407716153"><ele>157.0</ele><time>2026-04-26T16:38:10.969Z</time></trkpt><trkpt lat="45.4182790912442" lon="8.310541744798728"><ele>159.0</ele><time>2026-04-26T16:38:11.969Z</time></trkpt><trkpt lat="45.41845920130297" lon="8.310260661475496"><ele>159.0</ele><time>2026-04-26T16:38:12.969Z</time></trkpt><trkpt lat="45.41863956711647" lon="8.309980370559767"><ele>159.0</ele><time>2026-04-26T16:38:13.969Z</time></trkpt><trkpt lat="45.41882059169645" lon="8.309700954356682"><ele>158.5</ele><time>2026-04-26T16:38:14.969Z</time></trkpt><trkpt lat="45.41900132709266" lon="8.30942173397279"><ele>158.0</ele><time>2026-04-26T16:38:15.969Z</time></trkpt><trkpt lat="45.41918116129253" lon="8.309142944739076"><ele>158.0</ele><time>2026-04-26T16:38:16.969Z</time></trkpt><trkpt lat="45.41935965563367" lon="8.308864045971626"><ele>158.0</ele><time>2026-04-26T16:38:17.969Z</time></trkpt><trkpt lat="45.41953722169647" lon="8.308585757386732"><ele>158.0</ele><time>2026-04-26T16:38:18.969Z</time></trkpt><trkpt lat="45.419713128986025" lon="8.308310769004947"><ele>158.0</ele><time>2026-04-26T16:38:19.969Z</time></trkpt><trkpt lat="45.41989027599583" lon="8.308033941025172"><ele>158.0</ele><time>2026-04-26T16:38:20.969Z</time></trkpt><trkpt lat="45.420066904383795" lon="8.307757297837044"><ele>158.0</ele><time>2026-04-26T16:38:21.968Z</time></trkpt><trkpt lat="45.420243280865286" lon="8.307482328597498"><ele>158.0</ele><time>2026-04-26T16:38:22.968Z</time></trkpt><trkpt lat="45.42042011964211" lon="8.307207058564778"><ele>158.0</ele><time>2026-04-26T16:38:23.968Z</time></trkpt><trkpt lat="45.42059698126609" lon="8.306933266724908"><ele>158.0</ele><time>2026-04-26T16:38:24.97Z</time></trkpt><trkpt lat="45.42077264601554" lon="8.30666085546753"><ele>158.0</ele><time>2026-04-26T16:38:25.97Z</time></trkpt><trkpt lat="45.420947997952446" lon="8.306387235397963"><ele>158.0</ele><time>2026-04-26T16:38:26.97Z</time></trkpt><trkpt lat="45.42112314465809" lon="8.30611402456699"><ele>158.0</ele><time>2026-04-26T16:38:27.969Z</time></trkpt><trkpt lat="45.42129983513335" lon="8.305839761893898"><ele>158.0</ele><time>2026-04-26T16:38:28.97Z</time></trkpt><trkpt lat="45.42147529831569" lon="8.305564209006894"><ele>158.0</ele><time>2026-04-26T16:38:29.97Z</time></trkpt><trkpt lat="45.42165016995205" lon="8.305289422971189"><ele>158.0</ele><time>2026-04-26T16:38:30.97Z</time></trkpt><trkpt lat="45.42182445289373" lon="8.305016976224383"><ele>158.0</ele><time>2026-04-26T16:38:31.97Z</time></trkpt><trkpt lat="45.421999791145495" lon="8.304745456277583"><ele>159.0</ele><time>2026-04-26T16:38:32.97Z</time></trkpt><trkpt lat="45.42217511547063" lon="8.304474832322672"><ele>160.0</ele><time>2026-04-26T16:38:33.969Z</time></trkpt><trkpt lat="45.42234833651138" lon="8.304206486168669"><ele>160.0</ele><time>2026-04-26T16:38:34.97Z</time></trkpt><trkpt lat="45.42251850628161" lon="8.30393389853739"><ele>160.0</ele><time>2026-04-26T16:38:35.97Z</time></trkpt><trkpt lat="45.42268781234915" lon="8.30366624971369"><ele>160.0</ele><time>2026-04-26T16:38:36.969Z</time></trkpt><trkpt lat="45.42285450020563" lon="8.303407728911466"><ele>160.0</ele><time>2026-04-26T16:38:37.969Z</time></trkpt><trkpt lat="45.423018028932866" lon="8.303152834967308"><ele>160.0</ele><time>2026-04-26T16:38:38.969Z</time></trkpt><trkpt lat="45.42317761763986" lon="8.302901236484532"><ele>160.0</ele><time>2026-04-26T16:38:39.969Z</time></trkpt><trkpt lat="45.42333599833887" lon="8.302652712334936"><ele>160.0</ele><time>2026-04-26T16:38:40.969Z</time></trkpt><trkpt lat="45.42349278466735" lon="8.302407671678909"><ele>160.0</ele><time>2026-04-26T16:38:41.969Z</time></trkpt><trkpt lat="45.42364662198035" lon="8.30216443537858"><ele>160.0</ele><time>2026-04-26T16:38:42.969Z</time></trkpt><trkpt lat="45.423798494187686" lon="8.301921881535465"><ele>160.0</ele><time>2026-04-26T16:38:43.969Z</time></trkpt><trkpt lat="45.423948776636" lon="8.301684233113638"><ele>160.0</ele><time>2026-04-26T16:38:44.969Z</time></trkpt><trkpt lat="45.42409964374462" lon="8.30144832000005"><ele>160.0</ele><time>2026-04-26T16:38:45.969Z</time></trkpt><trkpt lat="45.424249260819984" lon="8.30121767981716"><ele>160.0</ele><time>2026-04-26T16:38:46.969Z</time></trkpt><trkpt lat="45.4243966804676" lon="8.300992201806329"><ele>160.0</ele><time>2026-04-26T16:38:47.969Z</time></trkpt><trkpt lat="45.42454047234218" lon="8.300770857630564"><ele>160.0</ele><time>2026-04-26T16:38:48.969Z</time></trkpt><trkpt lat="45.42468225161457" lon="8.300554802285887"><ele>160.0</ele><time>2026-04-26T16:38:49.969Z</time></trkpt><trkpt lat="45.42482166519216" lon="8.30033932182986"><ele>160.0</ele><time>2026-04-26T16:38:50.969Z</time></trkpt><trkpt lat="45.42495687241077" lon="8.300126725729859"><ele>160.0</ele><time>2026-04-26T16:38:51.969Z</time></trkpt><trkpt lat="45.4250835258359" lon="8.299919162559927"><ele>160.0</ele><time>2026-04-26T16:38:52.969Z</time></trkpt><trkpt lat="45.42520158003625" lon="8.29972220190796"><ele>160.0</ele><time>2026-04-26T16:38:53.969Z</time></trkpt><trkpt lat="45.4253122805759" lon="8.299532124127744"><ele>160.0</ele><time>2026-04-26T16:38:54.969Z</time></trkpt><trkpt lat="45.42541800068284" lon="8.299333513181976"><ele>160.0</ele><time>2026-04-26T16:38:55.969Z</time></trkpt><trkpt lat="45.42551547183428" lon="8.299128270944138"><ele>160.33333333333334</ele><time>2026-04-26T16:38:56.969Z</time></trkpt><trkpt lat="45.42560518727876" lon="8.29892837454624"><ele>160.66666666666666</ele><time>2026-04-26T16:38:57.969Z</time></trkpt><trkpt lat="45.42568461094753" lon="8.298737956265295"><ele>161.0</ele><time>2026-04-26T16:38:58.969Z</time></trkpt><trkpt lat="45.42575035050145" lon="8.298554474529068"><ele>161.0</ele><time>2026-04-26T16:38:59.969Z</time></trkpt><trkpt lat="45.425810665619615" lon="8.298388153071379"><ele>161.0</ele><time>2026-04-26T16:39:00.969Z</time></trkpt><trkpt lat="45.42587037395988" lon="8.298240731466707"><ele>161.0</ele><time>2026-04-26T16:39:01.969Z</time></trkpt><trkpt lat="45.4259349617866" lon="8.298107382495216"><ele>161.0</ele><time>2026-04-26T16:39:02.969Z</time></trkpt><trkpt lat="45.42600297966993" lon="8.297997257480551"><ele>161.0</ele><time>2026-04-26T16:39:03.969Z</time></trkpt><trkpt lat="45.42607694531292" lon="8.297912330866687"><ele>161.0</ele><time>2026-04-26T16:39:04.969Z</time></trkpt><trkpt lat="45.42615898848957" lon="8.297861054679334"><ele>161.0</ele><time>2026-04-26T16:39:05.968Z</time></trkpt><trkpt lat="45.426244765938186" lon="8.29784296957302"><ele>161.0</ele><time>2026-04-26T16:39:06.968Z</time></trkpt><trkpt lat="45.426319018113816" lon="8.297788043231606"><ele>161.0</ele><time>2026-04-26T16:39:07.968Z</time></trkpt><trkpt lat="45.426412684476716" lon="8.297801468615866"><ele>161.0</ele><time>2026-04-26T16:39:08.968Z</time></trkpt><trkpt lat="45.4264769135731" lon="8.297707937377218"><ele>161.0</ele><time>2026-04-26T16:39:09.968Z</time></trkpt><trkpt lat="45.42650835654444" lon="8.29759405001799"><ele>161.0</ele><time>2026-04-26T16:39:10.968Z</time></trkpt><trkpt lat="45.42649241132973" lon="8.297463508684581"><ele>161.0</ele><time>2026-04-26T16:39:11.968Z</time></trkpt><trkpt lat="45.42645332061661" lon="8.29733434986921"><ele>161.0</ele><time>2026-04-26T16:39:12.968Z</time></trkpt><trkpt lat="45.426388819986386" lon="8.297226169876286"><ele>161.0</ele><time>2026-04-26T16:39:13.968Z</time></trkpt><trkpt lat="45.426316985788084" lon="8.297119574354157"><ele>160.5</ele><time>2026-04-26T16:39:14.968Z</time></trkpt><trkpt lat="45.42627093204012" lon="8.296986267583513"><ele>160.0</ele><time>2026-04-26T16:39:15.968Z</time></trkpt><trkpt lat="45.426253306375955" lon="8.296836392456468"><ele>159.5</ele><time>2026-04-26T16:39:16.968Z</time></trkpt><trkpt lat="45.4262615604494" lon="8.29667656340776"><ele>159.0</ele><time>2026-04-26T16:39:17.968Z</time></trkpt><trkpt lat="45.426293598803696" lon="8.296500473246887"><ele>159.33333333333334</ele><time>2026-04-26T16:39:18.968Z</time></trkpt><trkpt lat="45.42633388387614" lon="8.296314018824184"><ele>159.66666666666669</ele><time>2026-04-26T16:39:19.968Z</time></trkpt><trkpt lat="45.426373189262065" lon="8.296109362061575"><ele>160.0</ele><time>2026-04-26T16:39:20.968Z</time></trkpt><trkpt lat="45.42642015022949" lon="8.295885024138377"><ele>160.0</ele><time>2026-04-26T16:39:21.968Z</time></trkpt><trkpt lat="45.42646870058132" lon="8.295649785246034"><ele>160.0</ele><time>2026-04-26T16:39:22.968Z</time></trkpt><trkpt lat="45.42651100281148" lon="8.295425356357693"><ele>160.0</ele><time>2026-04-26T16:39:23.968Z</time></trkpt><trkpt lat="45.426555410138576" lon="8.295199800247154"><ele>160.0</ele><time>2026-04-26T16:39:24.968Z</time></trkpt><trkpt lat="45.42660101675833" lon="8.294966309876397"><ele>160.0</ele><time>2026-04-26T16:39:25.968Z</time></trkpt><trkpt lat="45.42665022051664" lon="8.294727886750435"><ele>160.0</ele><time>2026-04-26T16:39:26.968Z</time></trkpt><trkpt lat="45.42669969091453" lon="8.294485366339295"><ele>159.66666666666669</ele><time>2026-04-26T16:39:27.968Z</time></trkpt><trkpt lat="45.42675315067337" lon="8.294232466965537"><ele>159.33333333333334</ele><time>2026-04-26T16:39:28.968Z</time></trkpt><trkpt lat="45.42680835413613" lon="8.293976699046809"><ele>159.0</ele><time>2026-04-26T16:39:29.968Z</time></trkpt><trkpt lat="45.426859939570406" lon="8.293714837748809"><ele>159.0</ele><time>2026-04-26T16:39:30.968Z</time></trkpt><trkpt lat="45.426913182877406" lon="8.293446056187177"><ele>159.0</ele><time>2026-04-26T16:39:31.968Z</time></trkpt><trkpt lat="45.426964880617376" lon="8.293165465342968"><ele>159.0</ele><time>2026-04-26T16:39:32.968Z</time></trkpt><trkpt lat="45.427018741660575" lon="8.292881364369146"><ele>159.33333333333334</ele><time>2026-04-26T16:39:33.968Z</time></trkpt><trkpt lat="45.427073719412874" lon="8.292597271935467"><ele>159.66666666666669</ele><time>2026-04-26T16:39:34.968Z</time></trkpt><trkpt lat="45.42712545263267" lon="8.292330399115315"><ele>160.0</ele><time>2026-04-26T16:39:35.968Z</time></trkpt><trkpt lat="45.42717449025922" lon="8.292070168788591"><ele>160.66666666666669</ele><time>2026-04-26T16:39:36.968Z</time></trkpt><trkpt lat="45.42722972384612" lon="8.29180815671034"><ele>161.33333333333334</ele><time>2026-04-26T16:39:37.968Z</time></trkpt><trkpt lat="45.427292151766906" lon="8.291546627543884"><ele>162.0</ele><time>2026-04-26T16:39:38.968Z</time></trkpt><trkpt lat="45.42736158768962" lon="8.291284044630904"><ele>162.0</ele><time>2026-04-26T16:39:39.968Z</time></trkpt><trkpt lat="45.42743938333375" lon="8.291022236598078"><ele>162.0</ele><time>2026-04-26T16:39:40.968Z</time></trkpt><trkpt lat="45.427526967219634" lon="8.290763635661639"><ele>162.0</ele><time>2026-04-26T16:39:41.968Z</time></trkpt><trkpt lat="45.4276253786944" lon="8.290510756566297"><ele>162.0</ele><time>2026-04-26T16:39:42.968Z</time></trkpt><trkpt lat="45.42773258088169" lon="8.290261091666592"><ele>162.0</ele><time>2026-04-26T16:39:43.968Z</time></trkpt><trkpt lat="45.427849776257915" lon="8.290020606546047"><ele>162.0</ele><time>2026-04-26T16:39:44.968Z</time></trkpt><trkpt lat="45.427975390100165" lon="8.289788266489284"><ele>162.33333333333334</ele><time>2026-04-26T16:39:45.968Z</time></trkpt><trkpt lat="45.428106124275025" lon="8.289558928673594"><ele>162.66666666666669</ele><time>2026-04-26T16:39:46.967Z</time></trkpt><trkpt lat="45.428247210215396" lon="8.289341570190352"><ele>163.0</ele><time>2026-04-26T16:39:47.967Z</time></trkpt><trkpt lat="45.42839871831064" lon="8.289132487004148"><ele>163.0</ele><time>2026-04-26T16:39:48.967Z</time></trkpt><trkpt lat="45.4285564138036" lon="8.288935386539059"><ele>163.0</ele><time>2026-04-26T16:39:49.967Z</time></trkpt><trkpt lat="45.428712161988415" lon="8.288736760636372"><ele>163.0</ele><time>2026-04-26T16:39:50.967Z</time></trkpt><trkpt lat="45.42887160269297" lon="8.288541174548545"><ele>163.0</ele><time>2026-04-26T16:39:51.967Z</time></trkpt><trkpt lat="45.42903024337948" lon="8.288343230600734"><ele>163.0</ele><time>2026-04-26T16:39:52.967Z</time></trkpt><trkpt lat="45.42918998918504" lon="8.28813785421854"><ele>163.0</ele><time>2026-04-26T16:39:53.967Z</time></trkpt><trkpt lat="45.42934477536536" lon="8.287926816239121"><ele>163.0</ele><time>2026-04-26T16:39:54.967Z</time></trkpt><trkpt lat="45.42949174856887" lon="8.287704273313336"><ele>163.0</ele><time>2026-04-26T16:39:55.967Z</time></trkpt><trkpt lat="45.429630614555876" lon="8.287473463759195"><ele>163.0</ele><time>2026-04-26T16:39:56.967Z</time></trkpt><trkpt lat="45.42976211129491" lon="8.287242374956719"><ele>163.0</ele><time>2026-04-26T16:39:57.967Z</time></trkpt><trkpt lat="45.42988693606363" lon="8.28700458424954"><ele>163.0</ele><time>2026-04-26T16:39:58.967Z</time></trkpt><trkpt lat="45.43000194861656" lon="8.286758477341158"><ele>163.0</ele><time>2026-04-26T16:39:59.967Z</time></trkpt><trkpt lat="45.43010594113651" lon="8.286503196545738"><ele>163.33333333333334</ele><time>2026-04-26T16:40:00.967Z</time></trkpt><trkpt lat="45.43020174429426" lon="8.286238719162704"><ele>163.66666666666666</ele><time>2026-04-26T16:40:01.967Z</time></trkpt><trkpt lat="45.43029016144544" lon="8.285966908302163"><ele>164.0</ele><time>2026-04-26T16:40:02.967Z</time></trkpt><trkpt lat="45.430366999476604" lon="8.285690483779142"><ele>164.66666666666666</ele><time>2026-04-26T16:40:03.967Z</time></trkpt><trkpt lat="45.430435663828256" lon="8.285410475123713"><ele>165.33333333333334</ele><time>2026-04-26T16:40:04.967Z</time></trkpt><trkpt lat="45.430501449954214" lon="8.285129685101548"><ele>166.0</ele><time>2026-04-26T16:40:05.967Z</time></trkpt><trkpt lat="45.43056435224873" lon="8.284844374256418"><ele>166.0</ele><time>2026-04-26T16:40:06.967Z</time></trkpt><trkpt lat="45.4306240675328" lon="8.284553672435594"><ele>166.0</ele><time>2026-04-26T16:40:07.967Z</time></trkpt><trkpt lat="45.430683347998" lon="8.28426371251509"><ele>166.0</ele><time>2026-04-26T16:40:08.967Z</time></trkpt><trkpt lat="45.43074176062582" lon="8.28398254006068"><ele>166.33333333333334</ele><time>2026-04-26T16:40:09.967Z</time></trkpt><trkpt lat="45.430798155209146" lon="8.283701140429256"><ele>166.66666666666666</ele><time>2026-04-26T16:40:10.967Z</time></trkpt><trkpt lat="45.43085592344237" lon="8.283410591779816"><ele>167.0</ele><time>2026-04-26T16:40:11.967Z</time></trkpt><trkpt lat="45.43091758318847" lon="8.28311785308632"><ele>167.33333333333331</ele><time>2026-04-26T16:40:12.967Z</time></trkpt><trkpt lat="45.43098077513574" lon="8.282821096313402"><ele>167.66666666666666</ele><time>2026-04-26T16:40:13.967Z</time></trkpt><trkpt lat="45.431046593153255" lon="8.282522252211653"><ele>168.0</ele><time>2026-04-26T16:40:14.967Z</time></trkpt><trkpt lat="45.43111138099663" lon="8.282220782671251"><ele>168.66666666666666</ele><time>2026-04-26T16:40:15.967Z</time></trkpt><trkpt lat="45.43117428146096" lon="8.28191636020105"><ele>169.33333333333331</ele><time>2026-04-26T16:40:16.967Z</time></trkpt><trkpt lat="45.43123938694268" lon="8.2816080104405"><ele>170.0</ele><time>2026-04-26T16:40:17.967Z</time></trkpt><trkpt lat="45.43130348800581" lon="8.2812986294596"><ele>169.5</ele><time>2026-04-26T16:40:18.967Z</time></trkpt><trkpt lat="45.43136869144187" lon="8.280988419173418"><ele>169.0</ele><time>2026-04-26T16:40:19.967Z</time></trkpt><trkpt lat="45.43143282712497" lon="8.2806768032226"><ele>167.5</ele><time>2026-04-26T16:40:20.967Z</time></trkpt><trkpt lat="45.43149760978715" lon="8.280364335795317"><ele>166.0</ele><time>2026-04-26T16:40:21.967Z</time></trkpt><trkpt lat="45.43156361116663" lon="8.280051073057201"><ele>166.5</ele><time>2026-04-26T16:40:22.967Z</time></trkpt><trkpt lat="45.43162895850685" lon="8.279737650703233"><ele>167.0</ele><time>2026-04-26T16:40:23.967Z</time></trkpt><trkpt lat="45.43169304032221" lon="8.279422924552968"><ele>167.0</ele><time>2026-04-26T16:40:24.967Z</time></trkpt><trkpt lat="45.43175855878661" lon="8.279110502455291"><ele>167.0</ele><time>2026-04-26T16:40:25.967Z</time></trkpt><trkpt lat="45.43182486735905" lon="8.278795956586587"><ele>166.0</ele><time>2026-04-26T16:40:26.967Z</time></trkpt><trkpt lat="45.43189229146972" lon="8.278481049825993"><ele>165.0</ele><time>2026-04-26T16:40:27.966Z</time></trkpt><trkpt lat="45.43195964080615" lon="8.278164514218792"><ele>165.5</ele><time>2026-04-26T16:40:28.966Z</time></trkpt><trkpt lat="45.43202656710641" lon="8.277848641638979"><ele>166.0</ele><time>2026-04-26T16:40:29.966Z</time></trkpt><trkpt lat="45.43209384314075" lon="8.277529478391074"><ele>166.0</ele><time>2026-04-26T16:40:30.968Z</time></trkpt><trkpt lat="45.43216292989954" lon="8.277213885859974"><ele>166.0</ele><time>2026-04-26T16:40:31.968Z</time></trkpt><trkpt lat="45.432230177936866" lon="8.276896007941582"><ele>166.0</ele><time>2026-04-26T16:40:32.968Z</time></trkpt><trkpt lat="45.43229716003407" lon="8.276577234538864"><ele>166.0</ele><time>2026-04-26T16:40:33.969Z</time></trkpt><trkpt lat="45.43236438699126" lon="8.276258678071118"><ele>166.5</ele><time>2026-04-26T16:40:34.968Z</time></trkpt><trkpt lat="45.43243124618315" lon="8.275939822350978"><ele>167.0</ele><time>2026-04-26T16:40:35.968Z</time></trkpt><trkpt lat="45.43249731911154" lon="8.275619709826692"><ele>166.5</ele><time>2026-04-26T16:40:36.968Z</time></trkpt><trkpt lat="45.43256336574591" lon="8.275298823570067"><ele>166.0</ele><time>2026-04-26T16:40:37.968Z</time></trkpt><trkpt lat="45.43262871085584" lon="8.27497861535361"><ele>166.5</ele><time>2026-04-26T16:40:38.968Z</time></trkpt><trkpt lat="45.43269573780734" lon="8.274655365146463"><ele>167.0</ele><time>2026-04-26T16:40:39.968Z</time></trkpt><trkpt lat="45.432764121005626" lon="8.274332329578211"><ele>167.0</ele><time>2026-04-26T16:40:40.968Z</time></trkpt><trkpt lat="45.43283365538984" lon="8.274010037151621"><ele>167.0</ele><time>2026-04-26T16:40:41.968Z</time></trkpt><trkpt lat="45.4329038802447" lon="8.273688184115782"><ele>167.5</ele><time>2026-04-26T16:40:42.968Z</time></trkpt><trkpt lat="45.43297560551346" lon="8.273365462168695"><ele>168.0</ele><time>2026-04-26T16:40:43.968Z</time></trkpt><trkpt lat="45.43304512704132" lon="8.27304295457563"><ele>168.5</ele><time>2026-04-26T16:40:44.968Z</time></trkpt><trkpt lat="45.433114545839025" lon="8.27271695404593"><ele>169.0</ele><time>2026-04-26T16:40:45.968Z</time></trkpt><trkpt lat="45.433183374213534" lon="8.272391670330316"><ele>168.5</ele><time>2026-04-26T16:40:46.968Z</time></trkpt><trkpt lat="45.43325149026393" lon="8.272065930844862"><ele>168.0</ele><time>2026-04-26T16:40:47.968Z</time></trkpt><trkpt lat="45.43331969585058" lon="8.271739541374165"><ele>168.0</ele><time>2026-04-26T16:40:48.968Z</time></trkpt><trkpt lat="45.43338691065261" lon="8.271416311136754"><ele>168.0</ele><time>2026-04-26T16:40:49.968Z</time></trkpt><trkpt lat="45.43345530030477" lon="8.271092205061054"><ele>168.0</ele><time>2026-04-26T16:40:50.968Z</time></trkpt><trkpt lat="45.43352500101625" lon="8.270767543590134"><ele>168.0</ele><time>2026-04-26T16:40:51.968Z</time></trkpt><trkpt lat="45.433591097500475" lon="8.27044060841214"><ele>168.5</ele><time>2026-04-26T16:40:52.968Z</time></trkpt><trkpt lat="45.433659265663444" lon="8.270117118197692"><ele>169.0</ele><time>2026-04-26T16:40:53.968Z</time></trkpt><trkpt lat="45.433728681380344" lon="8.269791976779542"><ele>169.0</ele><time>2026-04-26T16:40:54.968Z</time></trkpt><trkpt lat="45.43379823872462" lon="8.269464428470078"><ele>169.0</ele><time>2026-04-26T16:40:55.968Z</time></trkpt><trkpt lat="45.43386786167396" lon="8.269136991672834"><ele>169.0</ele><time>2026-04-26T16:40:56.968Z</time></trkpt><trkpt lat="45.43393763942055" lon="8.268810087012776"><ele>169.0</ele><time>2026-04-26T16:40:57.968Z</time></trkpt><trkpt lat="45.434007748602966" lon="8.268483383666265"><ele>169.0</ele><time>2026-04-26T16:40:58.968Z</time></trkpt><trkpt lat="45.434074300115974" lon="8.268161249463018"><ele>169.0</ele><time>2026-04-26T16:40:59.968Z</time></trkpt><trkpt lat="45.43413926485737" lon="8.26784236047758"><ele>169.0</ele><time>2026-04-26T16:41:00.968Z</time></trkpt><trkpt lat="45.43420263999969" lon="8.267529331555304"><ele>169.0</ele><time>2026-04-26T16:41:01.968Z</time></trkpt><trkpt lat="45.43426535392512" lon="8.267220609421173"><ele>169.33333333333334</ele><time>2026-04-26T16:41:02.968Z</time></trkpt><trkpt lat="45.43432882439564" lon="8.266913859852847"><ele>169.66666666666666</ele><time>2026-04-26T16:41:03.968Z</time></trkpt><trkpt lat="45.43439023942384" lon="8.266610029909664"><ele>170.0</ele><time>2026-04-26T16:41:04.968Z</time></trkpt><trkpt lat="45.43445186735732" lon="8.266305924089043"><ele>170.33333333333331</ele><time>2026-04-26T16:41:05.968Z</time></trkpt><trkpt lat="45.43451669688756" lon="8.266006330602485"><ele>170.66666666666666</ele><time>2026-04-26T16:41:06.968Z</time></trkpt><trkpt lat="45.434584832146946" lon="8.26570464129455"><ele>171.0</ele><time>2026-04-26T16:41:07.968Z</time></trkpt><trkpt lat="45.43465175467388" lon="8.265398646931969"><ele>171.5</ele><time>2026-04-26T16:41:08.968Z</time></trkpt><trkpt lat="45.434717246129786" lon="8.265089954333318"><ele>172.0</ele><time>2026-04-26T16:41:09.968Z</time></trkpt><trkpt lat="45.434782619852434" lon="8.264780781868865"><ele>172.0</ele><time>2026-04-26T16:41:10.968Z</time></trkpt><trkpt lat="45.43484948259725" lon="8.264472192891525"><ele>172.0</ele><time>2026-04-26T16:41:11.968Z</time></trkpt><trkpt lat="45.43491493886041" lon="8.264164011216701"><ele>171.5</ele><time>2026-04-26T16:41:12.968Z</time></trkpt><trkpt lat="45.43498135093247" lon="8.263851990622623"><ele>171.0</ele><time>2026-04-26T16:41:13.968Z</time></trkpt><trkpt lat="45.43504719943746" lon="8.263541757073574"><ele>171.0</ele><time>2026-04-26T16:41:14.968Z</time></trkpt><trkpt lat="45.43511352239451" lon="8.263229250478556"><ele>171.0</ele><time>2026-04-26T16:41:15.968Z</time></trkpt><trkpt lat="45.43518087502187" lon="8.262916235169536"><ele>170.5</ele><time>2026-04-26T16:41:16.968Z</time></trkpt><trkpt lat="45.43524714215126" lon="8.262599553199829"><ele>170.0</ele><time>2026-04-26T16:41:17.968Z</time></trkpt><trkpt lat="45.4353139902363" lon="8.262282671615086"><ele>170.5</ele><time>2026-04-26T16:41:18.968Z</time></trkpt><trkpt lat="45.435382270498664" lon="8.261964005197798"><ele>171.0</ele><time>2026-04-26T16:41:19.968Z</time></trkpt><trkpt lat="45.435451481981524" lon="8.261641157245778"><ele>171.5</ele><time>2026-04-26T16:41:20.967Z</time></trkpt><trkpt lat="45.435520902572385" lon="8.261315943533486"><ele>172.0</ele><time>2026-04-26T16:41:21.967Z</time></trkpt><trkpt lat="45.43559036433233" lon="8.260988395116575"><ele>172.0</ele><time>2026-04-26T16:41:22.967Z</time></trkpt><trkpt lat="45.43565933692806" lon="8.260659032162796"><ele>172.0</ele><time>2026-04-26T16:41:23.967Z</time></trkpt><trkpt lat="45.43572595963979" lon="8.260333500677113"><ele>172.0</ele><time>2026-04-26T16:41:24.967Z</time></trkpt><trkpt lat="45.43579250346156" lon="8.260007928615865"><ele>172.0</ele><time>2026-04-26T16:41:25.967Z</time></trkpt><trkpt lat="45.435859388266" lon="8.259684758155522"><ele>172.0</ele><time>2026-04-26T16:41:26.967Z</time></trkpt><trkpt lat="45.43592640251373" lon="8.259359586698146"><ele>172.0</ele><time>2026-04-26T16:41:27.967Z</time></trkpt><trkpt lat="45.43599261898025" lon="8.259035648642875"><ele>172.0</ele><time>2026-04-26T16:41:28.967Z</time></trkpt><trkpt lat="45.43605900786929" lon="8.258712784700903"><ele>172.0</ele><time>2026-04-26T16:41:29.967Z</time></trkpt><trkpt lat="45.43612635829114" lon="8.258391083003584"><ele>172.0</ele><time>2026-04-26T16:41:30.967Z</time></trkpt><trkpt lat="45.43619463724782" lon="8.258068318163051"><ele>172.0</ele><time>2026-04-26T16:41:31.967Z</time></trkpt><trkpt lat="45.43626456645958" lon="8.257745750170859"><ele>172.5</ele><time>2026-04-26T16:41:32.967Z</time></trkpt><trkpt lat="45.43633271456015" lon="8.2574236016558"><ele>173.0</ele><time>2026-04-26T16:41:33.967Z</time></trkpt><trkpt lat="45.436399720119766" lon="8.257101303466785"><ele>173.0</ele><time>2026-04-26T16:41:34.967Z</time></trkpt><trkpt lat="45.43646980082925" lon="8.256778489189209"><ele>173.0</ele><time>2026-04-26T16:41:35.967Z</time></trkpt><trkpt lat="45.436542491622916" lon="8.256458744368972"><ele>173.0</ele><time>2026-04-26T16:41:36.967Z</time></trkpt><trkpt lat="45.436615475862105" lon="8.256136069306859"><ele>173.0</ele><time>2026-04-26T16:41:37.967Z</time></trkpt><trkpt lat="45.43668816509885" lon="8.255813359343321"><ele>173.0</ele><time>2026-04-26T16:41:38.967Z</time></trkpt><trkpt lat="45.43676152812293" lon="8.25548961450414"><ele>173.0</ele><time>2026-04-26T16:41:39.967Z</time></trkpt><trkpt lat="45.43683433104772" lon="8.255163618969606"><ele>173.0</ele><time>2026-04-26T16:41:40.967Z</time></trkpt><trkpt lat="45.43690961955284" lon="8.254842002896718"><ele>173.0</ele><time>2026-04-26T16:41:41.967Z</time></trkpt><trkpt lat="45.43698428484901" lon="8.254520849283386"><ele>173.0</ele><time>2026-04-26T16:41:42.967Z</time></trkpt><trkpt lat="45.437060845857886" lon="8.254198750920665"><ele>173.0</ele><time>2026-04-26T16:41:43.967Z</time></trkpt><trkpt lat="45.437136052866734" lon="8.253875790410735"><ele>173.0</ele><time>2026-04-26T16:41:44.967Z</time></trkpt><trkpt lat="45.43721184594338" lon="8.253552128233848"><ele>173.0</ele><time>2026-04-26T16:41:45.967Z</time></trkpt><trkpt lat="45.43728712675204" lon="8.253229264505016"><ele>172.5</ele><time>2026-04-26T16:41:46.967Z</time></trkpt><trkpt lat="45.43736074356274" lon="8.25290862185162"><ele>172.0</ele><time>2026-04-26T16:41:47.967Z</time></trkpt><trkpt lat="45.43743371706396" lon="8.2525873300747"><ele>172.0</ele><time>2026-04-26T16:41:48.967Z</time></trkpt><trkpt lat="45.43750872069751" lon="8.252266994024204"><ele>172.0</ele><time>2026-04-26T16:41:49.967Z</time></trkpt><trkpt lat="45.43758340934781" lon="8.251949761087081"><ele>172.0</ele><time>2026-04-26T16:41:50.967Z</time></trkpt><trkpt lat="45.437657604333765" lon="8.251631099994864"><ele>172.0</ele><time>2026-04-26T16:41:51.967Z</time></trkpt><trkpt lat="45.43773487716135" lon="8.251311528003958"><ele>173.0</ele><time>2026-04-26T16:41:52.967Z</time></trkpt><trkpt lat="45.43781225776329" lon="8.250987868246886"><ele>174.0</ele><time>2026-04-26T16:41:53.967Z</time></trkpt><trkpt lat="45.43788632165426" lon="8.250668271517181"><ele>174.5</ele><time>2026-04-26T16:41:54.967Z</time></trkpt><trkpt lat="45.437957002344795" lon="8.250347243053923"><ele>175.0</ele><time>2026-04-26T16:41:55.967Z</time></trkpt><trkpt lat="45.43803201753641" lon="8.250029785137968"><ele>174.5</ele><time>2026-04-26T16:41:56.967Z</time></trkpt><trkpt lat="45.438105058513806" lon="8.249712235055467"><ele>174.0</ele><time>2026-04-26T16:41:57.967Z</time></trkpt><trkpt lat="45.43817825298604" lon="8.249396388481006"><ele>174.0</ele><time>2026-04-26T16:41:58.967Z</time></trkpt><trkpt lat="45.43824903633249" lon="8.249081570555793"><ele>174.0</ele><time>2026-04-26T16:41:59.967Z</time></trkpt><trkpt lat="45.43832262051021" lon="8.248768598342783"><ele>173.5</ele><time>2026-04-26T16:42:00.967Z</time></trkpt><trkpt lat="45.4383951771094" lon="8.24845723664454"><ele>173.0</ele><time>2026-04-26T16:42:01.966Z</time></trkpt><trkpt lat="45.438466164637596" lon="8.24814355623908"><ele>173.0</ele><time>2026-04-26T16:42:02.966Z</time></trkpt><trkpt lat="45.43853784390894" lon="8.247831719927598"><ele>173.0</ele><time>2026-04-26T16:42:03.966Z</time></trkpt><trkpt lat="45.43860976030418" lon="8.247515710136028"><ele>174.0</ele><time>2026-04-26T16:42:04.966Z</time></trkpt><trkpt lat="45.43868198747781" lon="8.247200327808788"><ele>175.0</ele><time>2026-04-26T16:42:05.966Z</time></trkpt><trkpt lat="45.43875445893851" lon="8.24689094706889"><ele>175.0</ele><time>2026-04-26T16:42:06.966Z</time></trkpt><trkpt lat="45.43882471290516" lon="8.246584960397342"><ele>175.0</ele><time>2026-04-26T16:42:07.966Z</time></trkpt><trkpt lat="45.43889020141348" lon="8.246284599544765"><ele>175.0</ele><time>2026-04-26T16:42:08.966Z</time></trkpt><trkpt lat="45.43895542721806" lon="8.24599437220952"><ele>175.0</ele><time>2026-04-26T16:42:09.966Z</time></trkpt><trkpt lat="45.43902059581605" lon="8.24571179611698"><ele>175.0</ele><time>2026-04-26T16:42:10.966Z</time></trkpt><trkpt lat="45.439083332787824" lon="8.245433108857545"><ele>175.0</ele><time>2026-04-26T16:42:11.966Z</time></trkpt><trkpt lat="45.43914630078669" lon="8.245162020517931"><ele>175.33333333333334</ele><time>2026-04-26T16:42:12.966Z</time></trkpt><trkpt lat="45.43920596316729" lon="8.24489796569342"><ele>175.66666666666666</ele><time>2026-04-26T16:42:13.966Z</time></trkpt><trkpt lat="45.43926081352349" lon="8.24464496740534"><ele>176.0</ele><time>2026-04-26T16:42:14.966Z</time></trkpt><trkpt lat="45.43931913704195" lon="8.244401239311557"><ele>176.0</ele><time>2026-04-26T16:42:15.966Z</time></trkpt><trkpt lat="45.4393749403693" lon="8.244165388687412"><ele>176.0</ele><time>2026-04-26T16:42:16.966Z</time></trkpt><trkpt lat="45.43942782207552" lon="8.243936487552684"><ele>176.0</ele><time>2026-04-26T16:42:17.966Z</time></trkpt><trkpt lat="45.43947961419478" lon="8.243724264152862"><ele>176.25</ele><time>2026-04-26T16:42:18.966Z</time></trkpt><trkpt lat="45.43951980762996" lon="8.243526592725125"><ele>176.5</ele><time>2026-04-26T16:42:19.966Z</time></trkpt><trkpt lat="45.43957489621661" lon="8.243345343573287"><ele>176.75</ele><time>2026-04-26T16:42:20.966Z</time></trkpt><trkpt lat="45.439616285841545" lon="8.243167350660409"><ele>177.0</ele><time>2026-04-26T16:42:21.966Z</time></trkpt><trkpt lat="45.43965799608577" lon="8.242987978969875"><ele>177.5</ele><time>2026-04-26T16:42:22.966Z</time></trkpt><trkpt lat="45.43970138363236" lon="8.24280139417595"><ele>178.0</ele><time>2026-04-26T16:42:23.966Z</time></trkpt><trkpt lat="45.43974432195716" lon="8.24261661031205"><ele>178.5</ele><time>2026-04-26T16:42:24.966Z</time></trkpt><trkpt lat="45.43978504246753" lon="8.24244060823587"><ele>179.0</ele><time>2026-04-26T16:42:25.966Z</time></trkpt><trkpt lat="45.43982615605411" lon="8.24226315690743"><ele>179.0</ele><time>2026-04-26T16:42:26.966Z</time></trkpt><trkpt lat="45.439865195231526" lon="8.242096825567774"><ele>179.0</ele><time>2026-04-26T16:42:27.966Z</time></trkpt><trkpt lat="45.43989334780873" lon="8.241903097265988"><ele>179.0</ele><time>2026-04-26T16:42:28.966Z</time></trkpt><trkpt lat="45.43994419720956" lon="8.24169832429011"><ele>179.0</ele><time>2026-04-26T16:42:29.966Z</time></trkpt><trkpt lat="45.440005857297365" lon="8.241498277502401"><ele>179.0</ele><time>2026-04-26T16:42:30.966Z</time></trkpt><trkpt lat="45.44005067903215" lon="8.241285532546172"><ele>179.0</ele><time>2026-04-26T16:42:31.966Z</time></trkpt><trkpt lat="45.44009723946811" lon="8.241060773284728"><ele>179.0</ele><time>2026-04-26T16:42:32.966Z</time></trkpt><trkpt lat="45.44014799088512" lon="8.240822681477464"><ele>179.0</ele><time>2026-04-26T16:42:33.966Z</time></trkpt><trkpt lat="45.44020182879474" lon="8.240573627044489"><ele>179.0</ele><time>2026-04-26T16:42:34.966Z</time></trkpt><trkpt lat="45.440261664565824" lon="8.240312467807009"><ele>179.0</ele><time>2026-04-26T16:42:35.966Z</time></trkpt><trkpt lat="45.440338066879114" lon="8.240050420330913"><ele>178.66666666666666</ele><time>2026-04-26T16:42:36.966Z</time></trkpt><trkpt lat="45.44038812164773" lon="8.239763452965441"><ele>178.33333333333334</ele><time>2026-04-26T16:42:37.966Z</time></trkpt><trkpt lat="45.440454978618824" lon="8.23947216618284"><ele>178.0</ele><time>2026-04-26T16:42:38.966Z</time></trkpt><trkpt lat="45.44054028352777" lon="8.239177460135238"><ele>178.66666666666669</ele><time>2026-04-26T16:42:39.966Z</time></trkpt><trkpt lat="45.44059691381616" lon="8.238862810042784"><ele>179.33333333333334</ele><time>2026-04-26T16:42:40.966Z</time></trkpt><trkpt lat="45.44066906456764" lon="8.238570782579941"><ele>180.0</ele><time>2026-04-26T16:42:41.966Z</time></trkpt><trkpt lat="45.440739887304886" lon="8.238287880397037"><ele>180.0</ele><time>2026-04-26T16:42:42.967Z</time></trkpt><trkpt lat="45.44081352354718" lon="8.238007625109718"><ele>180.0</ele><time>2026-04-26T16:42:43.966Z</time></trkpt><trkpt lat="45.44090056053434" lon="8.237729167176607"><ele>180.0</ele><time>2026-04-26T16:42:44.966Z</time></trkpt><trkpt lat="45.44099586507094" lon="8.237455453337988"><ele>180.33333333333334</ele><time>2026-04-26T16:42:45.966Z</time></trkpt><trkpt lat="45.44110523480514" lon="8.237186287774389"><ele>180.66666666666669</ele><time>2026-04-26T16:42:46.966Z</time></trkpt><trkpt lat="45.44122410542876" lon="8.23692296028215"><ele>181.0</ele><time>2026-04-26T16:42:47.966Z</time></trkpt><trkpt lat="45.441356097768185" lon="8.236665870741131"><ele>180.5</ele><time>2026-04-26T16:42:48.966Z</time></trkpt><trkpt lat="45.441499988014414" lon="8.236418522550906"><ele>180.0</ele><time>2026-04-26T16:42:49.967Z</time></trkpt><trkpt lat="45.44165969236444" lon="8.23618344749054"><ele>180.0</ele><time>2026-04-26T16:42:50.967Z</time></trkpt><trkpt lat="45.44183227765409" lon="8.235968205001415"><ele>180.0</ele><time>2026-04-26T16:42:51.967Z</time></trkpt><trkpt lat="45.44201409852144" lon="8.235766038794816"><ele>180.0</ele><time>2026-04-26T16:42:52.967Z</time></trkpt><trkpt lat="45.442204564091874" lon="8.235582040702043"><ele>180.0</ele><time>2026-04-26T16:42:53.966Z</time></trkpt><trkpt lat="45.44240299478872" lon="8.235413440941795"><ele>180.0</ele><time>2026-04-26T16:42:54.966Z</time></trkpt><trkpt lat="45.44260889403487" lon="8.235251434152072"><ele>180.0</ele><time>2026-04-26T16:42:55.966Z</time></trkpt><trkpt lat="45.44281290283166" lon="8.235088948523801"><ele>180.0</ele><time>2026-04-26T16:42:56.966Z</time></trkpt><trkpt lat="45.44301823281005" lon="8.234924704212126"><ele>180.0</ele><time>2026-04-26T16:42:57.966Z</time></trkpt><trkpt lat="45.443221817490326" lon="8.234761850781965"><ele>180.0</ele><time>2026-04-26T16:42:58.966Z</time></trkpt><trkpt lat="45.44342247148495" lon="8.234600375079067"><ele>180.0</ele><time>2026-04-26T16:42:59.966Z</time></trkpt><trkpt lat="45.44361951609099" lon="8.234440631138357"><ele>181.0</ele><time>2026-04-26T16:43:00.966Z</time></trkpt><trkpt lat="45.44381313896652" lon="8.23428186736689"><ele>182.0</ele><time>2026-04-26T16:43:01.966Z</time></trkpt><trkpt lat="45.444004349220855" lon="8.234125069195906"><ele>183.0</ele><time>2026-04-26T16:43:02.966Z</time></trkpt><trkpt lat="45.444194089953655" lon="8.233973338673673"><ele>183.0</ele><time>2026-04-26T16:43:03.966Z</time></trkpt><trkpt lat="45.44437832699211" lon="8.233824825997338"><ele>183.0</ele><time>2026-04-26T16:43:04.966Z</time></trkpt><trkpt lat="45.44455472669944" lon="8.233682322754367"><ele>183.0</ele><time>2026-04-26T16:43:05.966Z</time></trkpt><trkpt lat="45.4447197459984" lon="8.233546868045718"><ele>183.0</ele><time>2026-04-26T16:43:06.966Z</time></trkpt><trkpt lat="45.44487532775538" lon="8.23341602230285"><ele>183.0</ele><time>2026-04-26T16:43:07.966Z</time></trkpt><trkpt lat="45.445024758744296" lon="8.233296511384278"><ele>183.0</ele><time>2026-04-26T16:43:08.966Z</time></trkpt><trkpt lat="45.44516592913107" lon="8.233186479325799"><ele>183.0</ele><time>2026-04-26T16:43:09.966Z</time></trkpt><trkpt lat="45.44529954415741" lon="8.233073971123295"><ele>183.0</ele><time>2026-04-26T16:43:10.966Z</time></trkpt><trkpt lat="45.4454267982323" lon="8.232968344341167"><ele>183.0</ele><time>2026-04-26T16:43:11.966Z</time></trkpt><trkpt lat="45.445551863207875" lon="8.23287024660064"><ele>183.0</ele><time>2026-04-26T16:43:12.966Z</time></trkpt><trkpt lat="45.44566602342179" lon="8.232780797444128"><ele>183.0</ele><time>2026-04-26T16:43:13.966Z</time></trkpt><trkpt lat="45.44577252590209" lon="8.232692075688579"><ele>183.0</ele><time>2026-04-26T16:43:14.966Z</time></trkpt><trkpt lat="45.44586756252323" lon="8.2326180557839"><ele>183.0</ele><time>2026-04-26T16:43:15.966Z</time></trkpt><trkpt lat="45.445946457129786" lon="8.232558661773647"><ele>183.0</ele><time>2026-04-26T16:43:16.966Z</time></trkpt><trkpt lat="45.446016798140505" lon="8.232511609028766"><ele>183.0</ele><time>2026-04-26T16:43:17.966Z</time></trkpt><trkpt lat="45.44608014677048" lon="8.232472214541067"><ele>183.0</ele><time>2026-04-26T16:43:18.966Z</time></trkpt><trkpt lat="45.446145678583875" lon="8.232450360141325"><ele>183.0</ele><time>2026-04-26T16:43:19.966Z</time></trkpt><trkpt lat="45.446208871395086" lon="8.232454539817693"><ele>183.0</ele><time>2026-04-26T16:43:20.966Z</time></trkpt><trkpt lat="45.446281054993435" lon="8.232473252407948"><ele>183.0</ele><time>2026-04-26T16:43:21.966Z</time></trkpt><trkpt lat="45.446352450189764" lon="8.23246497277232"><ele>183.0</ele><time>2026-04-26T16:43:22.966Z</time></trkpt><trkpt lat="45.44641869907915" lon="8.232413861719575"><ele>183.0</ele><time>2026-04-26T16:43:23.966Z</time></trkpt><trkpt lat="45.446469429196824" lon="8.2323232873374"><ele>183.0</ele><time>2026-04-26T16:43:24.966Z</time></trkpt><trkpt lat="45.446510205919374" lon="8.232204533984415"><ele>182.60000000000002</ele><time>2026-04-26T16:43:25.966Z</time></trkpt><trkpt lat="45.446570478298916" lon="8.232085798734207"><ele>182.20000000000002</ele><time>2026-04-26T16:43:26.966Z</time></trkpt><trkpt lat="45.446654374514466" lon="8.231984992465653"><ele>181.8</ele><time>2026-04-26T16:43:27.966Z</time></trkpt><trkpt lat="45.446753043646076" lon="8.231900599053558"><ele>181.4</ele><time>2026-04-26T16:43:28.966Z</time></trkpt><trkpt lat="45.44685597105276" lon="8.231815624543021"><ele>181.0</ele><time>2026-04-26T16:43:29.966Z</time></trkpt><trkpt lat="45.44695097592926" lon="8.23173462880474"><ele>181.0</ele><time>2026-04-26T16:43:30.966Z</time></trkpt><trkpt lat="45.44705110218286" lon="8.231646128573022"><ele>181.0</ele><time>2026-04-26T16:43:31.966Z</time></trkpt><trkpt lat="45.44716901048245" lon="8.231550469961958"><ele>181.0</ele><time>2026-04-26T16:43:32.966Z</time></trkpt><trkpt lat="45.4473034913812" lon="8.231441520193355"><ele>181.0</ele><time>2026-04-26T16:43:33.966Z</time></trkpt><trkpt lat="45.44744861263743" lon="8.231321399112954"><ele>181.0</ele><time>2026-04-26T16:43:34.965Z</time></trkpt><trkpt lat="45.44760226014409" lon="8.231191465724912"><ele>181.0</ele><time>2026-04-26T16:43:35.965Z</time></trkpt><trkpt lat="45.44776721417441" lon="8.231053472636878"><ele>181.0</ele><time>2026-04-26T16:43:36.965Z</time></trkpt><trkpt lat="45.4479414714568" lon="8.230908522800984"><ele>181.0</ele><time>2026-04-26T16:43:37.965Z</time></trkpt><trkpt lat="45.44812669027622" lon="8.230754552088463"><ele>181.0</ele><time>2026-04-26T16:43:38.965Z</time></trkpt><trkpt lat="45.44831420670293" lon="8.230599777956604"><ele>181.0</ele><time>2026-04-26T16:43:39.965Z</time></trkpt><trkpt lat="45.44849349240677" lon="8.230457557464588"><ele>181.0</ele><time>2026-04-26T16:43:40.965Z</time></trkpt><trkpt lat="45.448675805724804" lon="8.230316162816047"><ele>181.0</ele><time>2026-04-26T16:43:41.965Z</time></trkpt><trkpt lat="45.44886086651643" lon="8.23016423855527"><ele>181.0</ele><time>2026-04-26T16:43:42.965Z</time></trkpt><trkpt lat="45.44905188509347" lon="8.23000682594185"><ele>181.0</ele><time>2026-04-26T16:43:43.965Z</time></trkpt><trkpt lat="45.44925018907113" lon="8.22984760234186"><ele>181.0</ele><time>2026-04-26T16:43:44.965Z</time></trkpt><trkpt lat="45.44945272114175" lon="8.22968909347314"><ele>181.5</ele><time>2026-04-26T16:43:45.965Z</time></trkpt><trkpt lat="45.44966293607539" lon="8.229532646999711"><ele>182.0</ele><time>2026-04-26T16:43:46.965Z</time></trkpt><trkpt lat="45.44986793572827" lon="8.229379002352541"><ele>182.0</ele><time>2026-04-26T16:43:47.965Z</time></trkpt><trkpt lat="45.45005771036985" lon="8.229224206023627"><ele>182.0</ele><time>2026-04-26T16:43:48.965Z</time></trkpt><trkpt lat="45.45024718851944" lon="8.229063867382326"><ele>182.0</ele><time>2026-04-26T16:43:49.965Z</time></trkpt><trkpt lat="45.45044049226178" lon="8.228904875442147"><ele>182.5</ele><time>2026-04-26T16:43:50.965Z</time></trkpt><trkpt lat="45.45063657140361" lon="8.228743635514714"><ele>183.0</ele><time>2026-04-26T16:43:51.965Z</time></trkpt><trkpt lat="45.450833808288834" lon="8.228581727139993"><ele>183.0</ele><time>2026-04-26T16:43:52.965Z</time></trkpt><trkpt lat="45.45102866688709" lon="8.228422681819243"><ele>183.0</ele><time>2026-04-26T16:43:53.965Z</time></trkpt><trkpt lat="45.45121825920913" lon="8.228268974383761"><ele>183.0</ele><time>2026-04-26T16:43:54.965Z</time></trkpt><trkpt lat="45.45140278952229" lon="8.22812009288428"><ele>183.0</ele><time>2026-04-26T16:43:55.965Z</time></trkpt><trkpt lat="45.451589436222605" lon="8.227967230490139"><ele>183.0</ele><time>2026-04-26T16:43:56.965Z</time></trkpt><trkpt lat="45.45177934050239" lon="8.22781279936195"><ele>183.0</ele><time>2026-04-26T16:43:57.965Z</time></trkpt><trkpt lat="45.45197474969509" lon="8.227660736729572"><ele>183.0</ele><time>2026-04-26T16:43:58.965Z</time></trkpt><trkpt lat="45.45217385817071" lon="8.227505606578156"><ele>183.0</ele><time>2026-04-26T16:43:59.965Z</time></trkpt><trkpt lat="45.452375139153354" lon="8.227346602616477"><ele>183.5</ele><time>2026-04-26T16:44:00.965Z</time></trkpt><trkpt lat="45.4525774004319" lon="8.227185150138068"><ele>184.0</ele><time>2026-04-26T16:44:01.965Z</time></trkpt><trkpt lat="45.452781764332485" lon="8.227020658286087"><ele>183.5</ele><time>2026-04-26T16:44:02.965Z</time></trkpt><trkpt lat="45.45298882967735" lon="8.226856082376518"><ele>183.0</ele><time>2026-04-26T16:44:03.965Z</time></trkpt><trkpt lat="45.45319415456807" lon="8.22669319075788"><ele>183.0</ele><time>2026-04-26T16:44:04.965Z</time></trkpt><trkpt lat="45.45340044153041" lon="8.226525868970043"><ele>183.0</ele><time>2026-04-26T16:44:05.965Z</time></trkpt><trkpt lat="45.45360802574535" lon="8.22635542074286"><ele>183.0</ele><time>2026-04-26T16:44:06.965Z</time></trkpt><trkpt lat="45.453818015496175" lon="8.226186180252189"><ele>183.0</ele><time>2026-04-26T16:44:07.965Z</time></trkpt><trkpt lat="45.45402936715433" lon="8.226019359070206"><ele>183.0</ele><time>2026-04-26T16:44:08.965Z</time></trkpt><trkpt lat="45.454240439597335" lon="8.225851870900058"><ele>183.0</ele><time>2026-04-26T16:44:09.965Z</time></trkpt><trkpt lat="45.45445045488102" lon="8.225681849485168"><ele>183.5</ele><time>2026-04-26T16:44:10.965Z</time></trkpt><trkpt lat="45.454661014906854" lon="8.22551005757803"><ele>184.0</ele><time>2026-04-26T16:44:11.965Z</time></trkpt><trkpt lat="45.45487160917209" lon="8.225338996186059"><ele>184.0</ele><time>2026-04-26T16:44:12.965Z</time></trkpt><trkpt lat="45.45508210837914" lon="8.225167554740922"><ele>184.0</ele><time>2026-04-26T16:44:13.965Z</time></trkpt><trkpt lat="45.45529149590066" lon="8.224997835957534"><ele>184.0</ele><time>2026-04-26T16:44:14.965Z</time></trkpt><trkpt lat="45.455492743547694" lon="8.224835584471407"><ele>184.0</ele><time>2026-04-26T16:44:15.964Z</time></trkpt><trkpt lat="45.45569517815112" lon="8.224670872983229"><ele>184.0</ele><time>2026-04-26T16:44:16.964Z</time></trkpt><trkpt lat="45.45589796667649" lon="8.224502998413376"><ele>184.0</ele><time>2026-04-26T16:44:17.964Z</time></trkpt><trkpt lat="45.45610107393545" lon="8.224332260645342"><ele>184.5</ele><time>2026-04-26T16:44:18.964Z</time></trkpt><trkpt lat="45.45630815958896" lon="8.224162214200216"><ele>185.0</ele><time>2026-04-26T16:44:19.964Z</time></trkpt><trkpt lat="45.45651639964945" lon="8.223993607264152"><ele>185.5</ele><time>2026-04-26T16:44:20.964Z</time></trkpt><trkpt lat="45.45672736645999" lon="8.223823399885417"><ele>186.0</ele><time>2026-04-26T16:44:21.964Z</time></trkpt><trkpt lat="45.4569367985311" lon="8.223652373250154"><ele>186.5</ele><time>2026-04-26T16:44:22.964Z</time></trkpt><trkpt lat="45.45714749151722" lon="8.223482236525257"><ele>187.0</ele><time>2026-04-26T16:44:23.964Z</time></trkpt><trkpt lat="45.45735669179159" lon="8.22331135292234"><ele>187.0</ele><time>2026-04-26T16:44:24.964Z</time></trkpt><trkpt lat="45.45756744370102" lon="8.22314173124714"><ele>187.0</ele><time>2026-04-26T16:44:25.964Z</time></trkpt><trkpt lat="45.45777746180594" lon="8.222970929791513"><ele>186.5</ele><time>2026-04-26T16:44:26.964Z</time></trkpt><trkpt lat="45.457986842514224" lon="8.22280060936055"><ele>186.0</ele><time>2026-04-26T16:44:27.964Z</time></trkpt><trkpt lat="45.45819700912678" lon="8.222631492921222"><ele>186.0</ele><time>2026-04-26T16:44:28.964Z</time></trkpt><trkpt lat="45.45840643036489" lon="8.222462752988093"><ele>186.0</ele><time>2026-04-26T16:44:29.964Z</time></trkpt><trkpt lat="45.45861496913678" lon="8.222292447983197"><ele>185.5</ele><time>2026-04-26T16:44:30.964Z</time></trkpt><trkpt lat="45.458825630876824" lon="8.222122368845367"><ele>185.0</ele><time>2026-04-26T16:44:31.964Z</time></trkpt><trkpt lat="45.45903448665593" lon="8.221951152234437"><ele>185.0</ele><time>2026-04-26T16:44:32.964Z</time></trkpt><trkpt lat="45.45924331237448" lon="8.221777241709809"><ele>185.0</ele><time>2026-04-26T16:44:33.964Z</time></trkpt><trkpt lat="45.45945319800919" lon="8.221605448442663"><ele>186.0</ele><time>2026-04-26T16:44:34.964Z</time></trkpt><trkpt lat="45.45966202246478" lon="8.221432567298221"><ele>187.0</ele><time>2026-04-26T16:44:35.964Z</time></trkpt><trkpt lat="45.45987208266884" lon="8.22126612747084"><ele>187.0</ele><time>2026-04-26T16:44:36.964Z</time></trkpt><trkpt lat="45.46008141773517" lon="8.221095595115797"><ele>187.0</ele><time>2026-04-26T16:44:37.964Z</time></trkpt><trkpt lat="45.4602915834355" lon="8.220927421888907"><ele>188.0</ele><time>2026-04-26T16:44:38.964Z</time></trkpt><trkpt lat="45.46050044884001" lon="8.220759856675915"><ele>189.0</ele><time>2026-04-26T16:44:39.964Z</time></trkpt><trkpt lat="45.460708274906075" lon="8.220589148468196"><ele>189.0</ele><time>2026-04-26T16:44:40.964Z</time></trkpt><trkpt lat="45.46091750755313" lon="8.22042116506795"><ele>189.0</ele><time>2026-04-26T16:44:41.964Z</time></trkpt><trkpt lat="45.4611244826834" lon="8.220252339105624"><ele>189.0</ele><time>2026-04-26T16:44:42.964Z</time></trkpt><trkpt lat="45.4613308722466" lon="8.220084956967764"><ele>189.0</ele><time>2026-04-26T16:44:43.964Z</time></trkpt><trkpt lat="45.46153680422678" lon="8.219922878727967"><ele>189.0</ele><time>2026-04-26T16:44:44.964Z</time></trkpt><trkpt lat="45.46173907879838" lon="8.21975961223576"><ele>189.0</ele><time>2026-04-26T16:44:45.964Z</time></trkpt><trkpt lat="45.46193800148162" lon="8.219592936637497"><ele>188.5</ele><time>2026-04-26T16:44:46.964Z</time></trkpt><trkpt lat="45.46214080091647" lon="8.219431410860462"><ele>188.0</ele><time>2026-04-26T16:44:47.964Z</time></trkpt><trkpt lat="45.46234280680385" lon="8.219269447556892"><ele>188.0</ele><time>2026-04-26T16:44:48.964Z</time></trkpt><trkpt lat="45.46254429723737" lon="8.219106685146304"><ele>188.0</ele><time>2026-04-26T16:44:49.964Z</time></trkpt><trkpt lat="45.462747462348055" lon="8.21894289824495"><ele>188.5</ele><time>2026-04-26T16:44:50.964Z</time></trkpt><trkpt lat="45.46295078880578" lon="8.218776583307024"><ele>189.0</ele><time>2026-04-26T16:44:51.964Z</time></trkpt><trkpt lat="45.46315293474867" lon="8.218610537389969"><ele>189.0</ele><time>2026-04-26T16:44:52.964Z</time></trkpt><trkpt lat="45.463354722958314" lon="8.21844528258475"><ele>189.0</ele><time>2026-04-26T16:44:53.964Z</time></trkpt><trkpt lat="45.46355843248879" lon="8.218281751879248"><ele>189.0</ele><time>2026-04-26T16:44:54.964Z</time></trkpt><trkpt lat="45.46376222874432" lon="8.218118990135295"><ele>189.0</ele><time>2026-04-26T16:44:55.964Z</time></trkpt><trkpt lat="45.46396683142285" lon="8.217956064232421"><ele>189.0</ele><time>2026-04-26T16:44:56.964Z</time></trkpt><trkpt lat="45.4641689801193" lon="8.217794495514978"><ele>189.0</ele><time>2026-04-26T16:44:57.964Z</time></trkpt><trkpt lat="45.46437119147079" lon="8.217631679818085"><ele>189.0</ele><time>2026-04-26T16:44:58.964Z</time></trkpt><trkpt lat="45.46456973400689" lon="8.217462395604269"><ele>189.0</ele><time>2026-04-26T16:44:59.964Z</time></trkpt><trkpt lat="45.46476849239893" lon="8.217296811813068"><ele>189.5</ele><time>2026-04-26T16:45:00.964Z</time></trkpt><trkpt lat="45.46497041164524" lon="8.217132932129735"><ele>190.0</ele><time>2026-04-26T16:45:01.964Z</time></trkpt><trkpt lat="45.465170827935324" lon="8.216968292243058"><ele>190.0</ele><time>2026-04-26T16:45:02.964Z</time></trkpt><trkpt lat="45.46536993084936" lon="8.21680671202062"><ele>190.0</ele><time>2026-04-26T16:45:03.964Z</time></trkpt><trkpt lat="45.465567599251564" lon="8.216651674347409"><ele>190.0</ele><time>2026-04-26T16:45:04.964Z</time></trkpt><trkpt lat="45.46576492859074" lon="8.216495203413793"><ele>190.0</ele><time>2026-04-26T16:45:05.964Z</time></trkpt><trkpt lat="45.46596171555117" lon="8.216339858898756"><ele>190.0</ele><time>2026-04-26T16:45:06.964Z</time></trkpt><trkpt lat="45.466155632167286" lon="8.216184457569792"><ele>190.0</ele><time>2026-04-26T16:45:07.964Z</time></trkpt><trkpt lat="45.46634861075096" lon="8.216030774218464"><ele>190.0</ele><time>2026-04-26T16:45:08.964Z</time></trkpt><trkpt lat="45.46653784400554" lon="8.215878985098383"><ele>190.0</ele><time>2026-04-26T16:45:09.964Z</time></trkpt><trkpt lat="45.46672319381356" lon="8.215728099120133"><ele>190.0</ele><time>2026-04-26T16:45:10.964Z</time></trkpt><trkpt lat="45.46690410392431" lon="8.215582789388575"><ele>190.0</ele><time>2026-04-26T16:45:11.964Z</time></trkpt><trkpt lat="45.46707732588655" lon="8.215442027164553"><ele>190.33333333333334</ele><time>2026-04-26T16:45:12.964Z</time></trkpt><trkpt lat="45.467243643512425" lon="8.215315302189074"><ele>190.66666666666666</ele><time>2026-04-26T16:45:13.964Z</time></trkpt><trkpt lat="45.46740025103733" lon="8.215208543642392"><ele>191.0</ele><time>2026-04-26T16:45:14.964Z</time></trkpt><trkpt lat="45.46753989775682" lon="8.215114621685897"><ele>191.0</ele><time>2026-04-26T16:45:15.964Z</time></trkpt><trkpt lat="45.46766164650252" lon="8.215039184963494"><ele>191.0</ele><time>2026-04-26T16:45:16.964Z</time></trkpt><trkpt lat="45.46777668539303" lon="8.214979567229483"><ele>191.0</ele><time>2026-04-26T16:45:17.964Z</time></trkpt><trkpt lat="45.46789026506899" lon="8.214941457078455"><ele>191.0</ele><time>2026-04-26T16:45:18.963Z</time></trkpt><trkpt lat="45.46800333048269" lon="8.214934760333964"><ele>190.75</ele><time>2026-04-26T16:45:19.963Z</time></trkpt><trkpt lat="45.46812088334069" lon="8.214941735289495"><ele>190.5</ele><time>2026-04-26T16:45:20.963Z</time></trkpt><trkpt lat="45.46822433353102" lon="8.214938505378582"><ele>190.25</ele><time>2026-04-26T16:45:21.963Z</time></trkpt><trkpt lat="45.46834321606758" lon="8.214936064301794"><ele>190.0</ele><time>2026-04-26T16:45:22.963Z</time></trkpt><trkpt lat="45.4684674266371" lon="8.21495115504755"><ele>190.0</ele><time>2026-04-26T16:45:23.963Z</time></trkpt><trkpt lat="45.46859901010016" lon="8.214994707232231"><ele>190.0</ele><time>2026-04-26T16:45:24.963Z</time></trkpt><trkpt lat="45.46872824639044" lon="8.215085928444406"><ele>190.0</ele><time>2026-04-26T16:45:25.963Z</time></trkpt><trkpt lat="45.46886209326873" lon="8.215187477296904"><ele>190.0</ele><time>2026-04-26T16:45:26.963Z</time></trkpt><trkpt lat="45.46900708061527" lon="8.215297282635067"><ele>190.33333333333334</ele><time>2026-04-26T16:45:27.963Z</time></trkpt><trkpt lat="45.469160213752644" lon="8.215411842480089"><ele>190.66666666666666</ele><time>2026-04-26T16:45:28.963Z</time></trkpt><trkpt lat="45.46932142216445" lon="8.215529987806244"><ele>191.0</ele><time>2026-04-26T16:45:29.963Z</time></trkpt><trkpt lat="45.46948891322457" lon="8.215654225297639"><ele>191.33333333333331</ele><time>2026-04-26T16:45:30.963Z</time></trkpt><trkpt lat="45.46966006249127" lon="8.21578226549231"><ele>191.66666666666666</ele><time>2026-04-26T16:45:31.963Z</time></trkpt><trkpt lat="45.469829301194174" lon="8.215909801307912"><ele>192.0</ele><time>2026-04-26T16:45:32.963Z</time></trkpt><trkpt lat="45.469991364515344" lon="8.21603198230395"><ele>192.0</ele><time>2026-04-26T16:45:33.963Z</time></trkpt><trkpt lat="45.4701567322415" lon="8.216155204394363"><ele>192.0</ele><time>2026-04-26T16:45:34.963Z</time></trkpt><trkpt lat="45.47032662722592" lon="8.21628041562931"><ele>192.0</ele><time>2026-04-26T16:45:35.963Z</time></trkpt><trkpt lat="45.47049808846243" lon="8.216404724946445"><ele>191.66666666666666</ele><time>2026-04-26T16:45:36.963Z</time></trkpt><trkpt lat="45.47066547763545" lon="8.216527903236296"><ele>191.33333333333331</ele><time>2026-04-26T16:45:37.963Z</time></trkpt><trkpt lat="45.47082764664221" lon="8.21664960840631"><ele>191.0</ele><time>2026-04-26T16:45:38.963Z</time></trkpt><trkpt lat="45.470990496543656" lon="8.21677758086215"><ele>191.0</ele><time>2026-04-26T16:45:39.963Z</time></trkpt><trkpt lat="45.471158441582894" lon="8.216904473573141"><ele>191.0</ele><time>2026-04-26T16:45:40.963Z</time></trkpt><trkpt lat="45.471329226583265" lon="8.217032772674056"><ele>191.0</ele><time>2026-04-26T16:45:41.963Z</time></trkpt><trkpt lat="45.47150188824121" lon="8.217164984848987"><ele>191.0</ele><time>2026-04-26T16:45:42.963Z</time></trkpt><trkpt lat="45.471677457156616" lon="8.21729993638604"><ele>191.0</ele><time>2026-04-26T16:45:43.963Z</time></trkpt><trkpt lat="45.47185696308819" lon="8.217431726381042"><ele>191.0</ele><time>2026-04-26T16:45:44.963Z</time></trkpt><trkpt lat="45.47203654907042" lon="8.217561718899535"><ele>190.66666666666666</ele><time>2026-04-26T16:45:45.963Z</time></trkpt><trkpt lat="45.47221881598213" lon="8.217690283508215"><ele>190.33333333333334</ele><time>2026-04-26T16:45:46.963Z</time></trkpt><trkpt lat="45.472401189208135" lon="8.217815181210545"><ele>190.0</ele><time>2026-04-26T16:45:47.963Z</time></trkpt><trkpt lat="45.47258859921316" lon="8.217932414527223"><ele>190.0</ele><time>2026-04-26T16:45:48.963Z</time></trkpt><trkpt lat="45.47277863786933" lon="8.218035921472957"><ele>190.0</ele><time>2026-04-26T16:45:49.963Z</time></trkpt><trkpt lat="45.47297420560576" lon="8.218122783421247"><ele>190.0</ele><time>2026-04-26T16:45:50.963Z</time></trkpt><trkpt lat="45.4731749116527" lon="8.218199382009447"><ele>190.0</ele><time>2026-04-26T16:45:51.963Z</time></trkpt><trkpt lat="45.473378730551865" lon="8.218272415420083"><ele>190.0</ele><time>2026-04-26T16:45:52.963Z</time></trkpt><trkpt lat="45.473582392916434" lon="8.218347145538326"><ele>190.0</ele><time>2026-04-26T16:45:53.963Z</time></trkpt><trkpt lat="45.473787242899824" lon="8.218423251465088"><ele>190.0</ele><time>2026-04-26T16:45:54.963Z</time></trkpt><trkpt lat="45.47399058068826" lon="8.21849870093149"><ele>190.0</ele><time>2026-04-26T16:45:55.963Z</time></trkpt><trkpt lat="45.47419378071744" lon="8.218573514799013"><ele>190.0</ele><time>2026-04-26T16:45:56.963Z</time></trkpt><trkpt lat="45.47439266432973" lon="8.218646217773966"><ele>190.0</ele><time>2026-04-26T16:45:57.963Z</time></trkpt><trkpt lat="45.4745893693152" lon="8.21872218725064"><ele>190.0</ele><time>2026-04-26T16:45:58.963Z</time></trkpt><trkpt lat="45.47478406645012" lon="8.218798090077241"><ele>190.0</ele><time>2026-04-26T16:45:59.962Z</time></trkpt><trkpt lat="45.47498000380424" lon="8.218860540893786"><ele>189.66666666666669</ele><time>2026-04-26T16:46:00.962Z</time></trkpt><trkpt lat="45.47517909781162" lon="8.218913164867804"><ele>189.33333333333334</ele><time>2026-04-26T16:46:01.962Z</time></trkpt><trkpt lat="45.475376754507835" lon="8.218947709818078"><ele>189.0</ele><time>2026-04-26T16:46:02.962Z</time></trkpt><trkpt lat="45.47557746239472" lon="8.218962043259385"><ele>189.0</ele><time>2026-04-26T16:46:03.962Z</time></trkpt><trkpt lat="45.47577899149158" lon="8.218958032667047"><ele>189.0</ele><time>2026-04-26T16:46:04.962Z</time></trkpt><trkpt lat="45.475984162287865" lon="8.218936052050068"><ele>189.0</ele><time>2026-04-26T16:46:05.962Z</time></trkpt><trkpt lat="45.47618687948422" lon="8.21890856376377"><ele>190.0</ele><time>2026-04-26T16:46:06.962Z</time></trkpt><trkpt lat="45.476386696558905" lon="8.218875758757964"><ele>191.0</ele><time>2026-04-26T16:46:07.962Z</time></trkpt><trkpt lat="45.47658723757204" lon="8.218836091319393"><ele>192.0</ele><time>2026-04-26T16:46:08.962Z</time></trkpt><trkpt lat="45.47678770485572" lon="8.2187938732889"><ele>192.0</ele><time>2026-04-26T16:46:09.962Z</time></trkpt><trkpt lat="45.47698892534495" lon="8.218750650824239"><ele>192.0</ele><time>2026-04-26T16:46:10.962Z</time></trkpt><trkpt lat="45.47719438971178" lon="8.218704423886793"><ele>192.0</ele><time>2026-04-26T16:46:11.962Z</time></trkpt><trkpt lat="45.477399883693224" lon="8.218661223607064"><ele>193.0</ele><time>2026-04-26T16:46:12.962Z</time></trkpt><trkpt lat="45.477611869559425" lon="8.218618550089458"><ele>194.0</ele><time>2026-04-26T16:46:13.962Z</time></trkpt><trkpt lat="45.47781968234629" lon="8.21857719314436"><ele>195.0</ele><time>2026-04-26T16:46:14.962Z</time></trkpt><trkpt lat="45.47802660957926" lon="8.218529999313416"><ele>196.0</ele><time>2026-04-26T16:46:15.962Z</time></trkpt><trkpt lat="45.478234185677465" lon="8.218484186532251"><ele>197.0</ele><time>2026-04-26T16:46:16.962Z</time></trkpt><trkpt lat="45.47844263409462" lon="8.218439074710401"><ele>198.0</ele><time>2026-04-26T16:46:17.962Z</time></trkpt><trkpt lat="45.4786507480731" lon="8.21839609407331"><ele>198.66666666666669</ele><time>2026-04-26T16:46:18.962Z</time></trkpt><trkpt lat="45.478858380473575" lon="8.218354371494762"><ele>199.33333333333334</ele><time>2026-04-26T16:46:19.962Z</time></trkpt><trkpt lat="45.47906847766678" lon="8.21831156007771"><ele>200.0</ele><time>2026-04-26T16:46:20.962Z</time></trkpt><trkpt lat="45.47927914776854" lon="8.218270563666433"><ele>200.0</ele><time>2026-04-26T16:46:21.962Z</time></trkpt><trkpt lat="45.47949246178091" lon="8.218229463751904"><ele>200.0</ele><time>2026-04-26T16:46:22.962Z</time></trkpt><trkpt lat="45.479708462499374" lon="8.218187678343293"><ele>200.0</ele><time>2026-04-26T16:46:23.962Z</time></trkpt><trkpt lat="45.47992508685658" lon="8.218145070275943"><ele>200.0</ele><time>2026-04-26T16:46:24.962Z</time></trkpt><trkpt lat="45.48014472527541" lon="8.218101411989279"><ele>200.0</ele><time>2026-04-26T16:46:25.962Z</time></trkpt><trkpt lat="45.48036508729862" lon="8.21805753460039"><ele>200.0</ele><time>2026-04-26T16:46:26.962Z</time></trkpt><trkpt lat="45.48058825882973" lon="8.218013324333443"><ele>200.0</ele><time>2026-04-26T16:46:27.962Z</time></trkpt><trkpt lat="45.4808139642702" lon="8.217972636693444"><ele>200.0</ele><time>2026-04-26T16:46:28.962Z</time></trkpt><trkpt lat="45.481040254955765" lon="8.217927448674992"><ele>199.5</ele><time>2026-04-26T16:46:29.962Z</time></trkpt><trkpt lat="45.48126934221964" lon="8.217883128487214"><ele>199.0</ele><time>2026-04-26T16:46:30.962Z</time></trkpt><trkpt lat="45.481500599748394" lon="8.217837368036452"><ele>199.0</ele><time>2026-04-26T16:46:31.962Z</time></trkpt><trkpt lat="45.48173234299126" lon="8.217789083834846"><ele>199.0</ele><time>2026-04-26T16:46:32.962Z</time></trkpt><trkpt lat="45.48196414368152" lon="8.217740883075498"><ele>199.5</ele><time>2026-04-26T16:46:33.962Z</time></trkpt><trkpt lat="45.48219652102183" lon="8.2176938969012"><ele>200.0</ele><time>2026-04-26T16:46:34.962Z</time></trkpt><trkpt lat="45.48242710915462" lon="8.217646520262356"><ele>200.0</ele><time>2026-04-26T16:46:35.962Z</time></trkpt><trkpt lat="45.48265678233523" lon="8.217599671279881"><ele>200.0</ele><time>2026-04-26T16:46:36.962Z</time></trkpt><trkpt lat="45.48288399897173" lon="8.21755566129974"><ele>199.5</ele><time>2026-04-26T16:46:37.962Z</time></trkpt><trkpt lat="45.48310940036581" lon="8.217512766146038"><ele>199.0</ele><time>2026-04-26T16:46:38.962Z</time></trkpt><trkpt lat="45.48333558864793" lon="8.217469584153571"><ele>199.0</ele><time>2026-04-26T16:46:39.962Z</time></trkpt><trkpt lat="45.48356085945897" lon="8.217425451040784"><ele>199.0</ele><time>2026-04-26T16:46:40.961Z</time></trkpt><trkpt lat="45.48378403572302" lon="8.21737911272802"><ele>199.0</ele><time>2026-04-26T16:46:41.961Z</time></trkpt><trkpt lat="45.48400623701291" lon="8.217333488960952"><ele>199.0</ele><time>2026-04-26T16:46:42.961Z</time></trkpt><trkpt lat="45.48422725242096" lon="8.217288605908083"><ele>199.0</ele><time>2026-04-26T16:46:43.961Z</time></trkpt><trkpt lat="45.48444967104167" lon="8.217241665561644"><ele>199.0</ele><time>2026-04-26T16:46:44.961Z</time></trkpt><trkpt lat="45.48467043105689" lon="8.21719699331953"><ele>199.0</ele><time>2026-04-26T16:46:45.961Z</time></trkpt><trkpt lat="45.484891030026446" lon="8.21715241005788"><ele>199.0</ele><time>2026-04-26T16:46:46.961Z</time></trkpt><trkpt lat="45.485113674551094" lon="8.217105439576441"><ele>199.0</ele><time>2026-04-26T16:46:47.961Z</time></trkpt><trkpt lat="45.485337485358286" lon="8.217061153152942"><ele>199.0</ele><time>2026-04-26T16:46:48.963Z</time></trkpt><trkpt lat="45.485556923260276" lon="8.217014855472714"><ele>199.0</ele><time>2026-04-26T16:46:49.963Z</time></trkpt><trkpt lat="45.48577786962429" lon="8.216967302790405"><ele>198.66666666666666</ele><time>2026-04-26T16:46:50.963Z</time></trkpt><trkpt lat="45.485999764272975" lon="8.216919737944501"><ele>198.33333333333331</ele><time>2026-04-26T16:46:51.963Z</time></trkpt><trkpt lat="45.486222272143166" lon="8.216876048755237"><ele>198.0</ele><time>2026-04-26T16:46:52.962Z</time></trkpt><trkpt lat="45.486446336783125" lon="8.216832337557182"><ele>197.5</ele><time>2026-04-26T16:46:53.962Z</time></trkpt><trkpt lat="45.48667066232301" lon="8.216787810251022"><ele>197.0</ele><time>2026-04-26T16:46:54.962Z</time></trkpt><trkpt lat="45.486896157586976" lon="8.216744001314883"><ele>196.5</ele><time>2026-04-26T16:46:55.962Z</time></trkpt><trkpt lat="45.48712165482938" lon="8.216699625239439"><ele>196.0</ele><time>2026-04-26T16:46:56.962Z</time></trkpt><trkpt lat="45.48734705741629" lon="8.216653945896493"><ele>196.0</ele><time>2026-04-26T16:46:57.962Z</time></trkpt><trkpt lat="45.48757543359286" lon="8.216605762052863"><ele>196.0</ele><time>2026-04-26T16:46:58.963Z</time></trkpt><trkpt lat="45.48780208090805" lon="8.216556440735957"><ele>195.0</ele><time>2026-04-26T16:46:59.963Z</time></trkpt><trkpt lat="45.488029687448275" lon="8.21651287923426"><ele>194.0</ele><time>2026-04-26T16:47:00.963Z</time></trkpt><trkpt lat="45.488255442294154" lon="8.21646755866041"><ele>194.0</ele><time>2026-04-26T16:47:01.963Z</time></trkpt><trkpt lat="45.48848387056062" lon="8.216423629373843"><ele>194.0</ele><time>2026-04-26T16:47:02.963Z</time></trkpt><trkpt lat="45.488712946439406" lon="8.21637807659074"><ele>195.5</ele><time>2026-04-26T16:47:03.963Z</time></trkpt><trkpt lat="45.48894297455566" lon="8.216330460129381"><ele>197.0</ele><time>2026-04-26T16:47:04.963Z</time></trkpt><trkpt lat="45.48917134679362" lon="8.216286990612238"><ele>197.0</ele><time>2026-04-26T16:47:05.962Z</time></trkpt><trkpt lat="45.48940050232051" lon="8.216239195645139"><ele>197.0</ele><time>2026-04-26T16:47:06.962Z</time></trkpt><trkpt lat="45.489627995588336" lon="8.216194785485717"><ele>196.5</ele><time>2026-04-26T16:47:07.962Z</time></trkpt><trkpt lat="45.48985649363239" lon="8.216149649476483"><ele>196.0</ele><time>2026-04-26T16:47:08.962Z</time></trkpt><trkpt lat="45.490083140126195" lon="8.216105926598143"><ele>196.0</ele><time>2026-04-26T16:47:09.962Z</time></trkpt><trkpt lat="45.49030843910004" lon="8.21605449656771"><ele>196.0</ele><time>2026-04-26T16:47:10.962Z</time></trkpt><trkpt lat="45.49053121774677" lon="8.216008711682973"><ele>196.66666666666666</ele><time>2026-04-26T16:47:11.962Z</time></trkpt><trkpt lat="45.490746801238686" lon="8.215961192259718"><ele>197.33333333333331</ele><time>2026-04-26T16:47:12.962Z</time></trkpt><trkpt lat="45.49095074568095" lon="8.21591848461621"><ele>198.0</ele><time>2026-04-26T16:47:13.962Z</time></trkpt><trkpt lat="45.4911424561313" lon="8.215877451758512"><ele>198.66666666666669</ele><time>2026-04-26T16:47:14.962Z</time></trkpt><trkpt lat="45.49132390277217" lon="8.215842942305448"><ele>199.33333333333334</ele><time>2026-04-26T16:47:15.962Z</time></trkpt><trkpt lat="45.49149105467997" lon="8.215808138633701"><ele>200.0</ele><time>2026-04-26T16:47:16.962Z</time></trkpt><trkpt lat="45.49164021847286" lon="8.215776389564766"><ele>200.0</ele><time>2026-04-26T16:47:17.962Z</time></trkpt><trkpt lat="45.49177481791209" lon="8.215746031306871"><ele>200.0</ele><time>2026-04-26T16:47:18.962Z</time></trkpt><trkpt lat="45.49189366066312" lon="8.215717830939237"><ele>200.0</ele><time>2026-04-26T16:47:19.962Z</time></trkpt><trkpt lat="45.49199101239885" lon="8.215692168793057"><ele>200.0</ele><time>2026-04-26T16:47:20.962Z</time></trkpt><trkpt lat="45.49207050527526" lon="8.21565485453696"><ele>200.0</ele><time>2026-04-26T16:47:21.962Z</time></trkpt><trkpt lat="45.49213369321641" lon="8.215578978353195"><ele>200.8</ele><time>2026-04-26T16:47:22.962Z</time></trkpt><trkpt lat="45.49216527216573" lon="8.215491448915369"><ele>201.6</ele><time>2026-04-26T16:47:23.962Z</time></trkpt><trkpt lat="45.49219148917322" lon="8.2153854278668"><ele>202.39999999999998</ele><time>2026-04-26T16:47:24.962Z</time></trkpt><trkpt lat="45.4922273880797" lon="8.215261986623148"><ele>203.2</ele><time>2026-04-26T16:47:25.962Z</time></trkpt><trkpt lat="45.492282519722316" lon="8.215134216533638"><ele>204.0</ele><time>2026-04-26T16:47:26.962Z</time></trkpt><trkpt lat="45.49235742598203" lon="8.215002558093556"><ele>204.0</ele><time>2026-04-26T16:47:27.962Z</time></trkpt><trkpt lat="45.492445680116006" lon="8.2148699506897"><ele>204.0</ele><time>2026-04-26T16:47:28.962Z</time></trkpt><trkpt lat="45.49255099943662" lon="8.214748401810278"><ele>204.0</ele><time>2026-04-26T16:47:29.962Z</time></trkpt><trkpt lat="45.49267247399922" lon="8.21464369042184"><ele>204.0</ele><time>2026-04-26T16:47:30.962Z</time></trkpt><trkpt lat="45.49281117973148" lon="8.214545156841845"><ele>204.33333333333331</ele><time>2026-04-26T16:47:31.962Z</time></trkpt><trkpt lat="45.49296632315498" lon="8.214450070537442"><ele>204.66666666666666</ele><time>2026-04-26T16:47:32.962Z</time></trkpt><trkpt lat="45.493134677751776" lon="8.214361026535611"><ele>205.0</ele><time>2026-04-26T16:47:33.962Z</time></trkpt><trkpt lat="45.493309597529255" lon="8.214268698967896"><ele>205.0</ele><time>2026-04-26T16:47:34.962Z</time></trkpt><trkpt lat="45.49347733505429" lon="8.214184630777298"><ele>205.0</ele><time>2026-04-26T16:47:35.962Z</time></trkpt><trkpt lat="45.49364194418939" lon="8.21410166304582"><ele>205.0</ele><time>2026-04-26T16:47:36.962Z</time></trkpt><trkpt lat="45.49381408223655" lon="8.214018076747553"><ele>205.0</ele><time>2026-04-26T16:47:37.962Z</time></trkpt><trkpt lat="45.493986111014706" lon="8.213934191595921"><ele>205.0</ele><time>2026-04-26T16:47:38.962Z</time></trkpt><trkpt lat="45.49416028672868" lon="8.213850354521346"><ele>205.0</ele><time>2026-04-26T16:47:39.962Z</time></trkpt><trkpt lat="45.494335521772406" lon="8.213764177167102"><ele>205.0</ele><time>2026-04-26T16:47:40.962Z</time></trkpt><trkpt lat="45.494506964674635" lon="8.213676896455048"><ele>205.0</ele><time>2026-04-26T16:47:41.962Z</time></trkpt><trkpt lat="45.4946819605613" lon="8.213583398299052"><ele>205.0</ele><time>2026-04-26T16:47:42.962Z</time></trkpt><trkpt lat="45.494858553132545" lon="8.213492600946372"><ele>204.66666666666666</ele><time>2026-04-26T16:47:43.962Z</time></trkpt><trkpt lat="45.49503549779962" lon="8.213402494997815"><ele>204.33333333333331</ele><time>2026-04-26T16:47:44.962Z</time></trkpt><trkpt lat="45.49521402771291" lon="8.213314064924944"><ele>204.0</ele><time>2026-04-26T16:47:45.962Z</time></trkpt><trkpt lat="45.49539284919088" lon="8.213226815257823"><ele>205.33333333333331</ele><time>2026-04-26T16:47:46.961Z</time></trkpt><trkpt lat="45.49557107495204" lon="8.213133791178443"><ele>206.66666666666666</ele><time>2026-04-26T16:47:47.961Z</time></trkpt><trkpt lat="45.49574883448157" lon="8.213038700167074"><ele>208.0</ele><time>2026-04-26T16:47:48.961Z</time></trkpt><trkpt lat="45.4959264126251" lon="8.212945627855474"><ele>208.0</ele><time>2026-04-26T16:47:49.961Z</time></trkpt><trkpt lat="45.49610374613032" lon="8.21285920299"><ele>208.0</ele><time>2026-04-26T16:47:50.961Z</time></trkpt><trkpt lat="45.496280795639365" lon="8.212772187492225"><ele>208.0</ele><time>2026-04-26T16:47:51.961Z</time></trkpt><trkpt lat="45.496456982383705" lon="8.212686304851283"><ele>208.33333333333331</ele><time>2026-04-26T16:47:52.961Z</time></trkpt><trkpt lat="45.496633389056115" lon="8.212599812996423"><ele>208.66666666666669</ele><time>2026-04-26T16:47:53.961Z</time></trkpt><trkpt lat="45.49680290266658" lon="8.212502753187476"><ele>209.0</ele><time>2026-04-26T16:47:54.961Z</time></trkpt><trkpt lat="45.49697228947697" lon="8.212412100021215"><ele>209.33333333333334</ele><time>2026-04-26T16:47:55.961Z</time></trkpt><trkpt lat="45.497143250375615" lon="8.212319594949948"><ele>209.66666666666669</ele><time>2026-04-26T16:47:56.961Z</time></trkpt><trkpt lat="45.49731354426673" lon="8.212228001944991"><ele>210.0</ele><time>2026-04-26T16:47:57.961Z</time></trkpt><trkpt lat="45.49748428015062" lon="8.212139550477525"><ele>210.0</ele><time>2026-04-26T16:47:58.961Z</time></trkpt><trkpt lat="45.49765621653637" lon="8.212053308791969"><ele>210.0</ele><time>2026-04-26T16:47:59.961Z</time></trkpt><trkpt lat="45.497827745785166" lon="8.211964575617845"><ele>210.0</ele><time>2026-04-26T16:48:00.961Z</time></trkpt><trkpt lat="45.49800135460084" lon="8.211879530084905"><ele>209.33333333333331</ele><time>2026-04-26T16:48:01.961Z</time></trkpt><trkpt lat="45.49817604248693" lon="8.21178981310272"><ele>208.66666666666666</ele><time>2026-04-26T16:48:02.961Z</time></trkpt><trkpt lat="45.49835226850876" lon="8.211694714413143"><ele>208.0</ele><time>2026-04-26T16:48:03.961Z</time></trkpt><trkpt lat="45.49853251564877" lon="8.21161040255838"><ele>208.0</ele><time>2026-04-26T16:48:04.961Z</time></trkpt><trkpt lat="45.49871070438526" lon="8.21152389546917"><ele>208.0</ele><time>2026-04-26T16:48:05.961Z</time></trkpt><trkpt lat="45.49888689009982" lon="8.211438276960706"><ele>208.0</ele><time>2026-04-26T16:48:06.961Z</time></trkpt><trkpt lat="45.49906103187201" lon="8.211351273846939"><ele>208.0</ele><time>2026-04-26T16:48:07.961Z</time></trkpt><trkpt lat="45.49923359775721" lon="8.211261211788427"><ele>208.0</ele><time>2026-04-26T16:48:08.961Z</time></trkpt><trkpt lat="45.49940337341714" lon="8.211175376365885"><ele>208.0</ele><time>2026-04-26T16:48:09.961Z</time></trkpt><trkpt lat="45.4995685682683" lon="8.211092796567863"><ele>208.33333333333331</ele><time>2026-04-26T16:48:10.961Z</time></trkpt><trkpt lat="45.499731078132726" lon="8.211013644711064"><ele>208.66666666666669</ele><time>2026-04-26T16:48:11.961Z</time></trkpt><trkpt lat="45.49989190474194" lon="8.21093775761528"><ele>209.0</ele><time>2026-04-26T16:48:12.961Z</time></trkpt><trkpt lat="45.50004991581664" lon="8.210863023557987"><ele>209.0</ele><time>2026-04-26T16:48:13.961Z</time></trkpt><trkpt lat="45.50020362148938" lon="8.210789243808678"><ele>209.0</ele><time>2026-04-26T16:48:14.961Z</time></trkpt><trkpt lat="45.50035505783018" lon="8.210715952332528"><ele>209.0</ele><time>2026-04-26T16:48:15.961Z</time></trkpt><trkpt lat="45.50050153193481" lon="8.210640122173928"><ele>209.5</ele><time>2026-04-26T16:48:16.961Z</time></trkpt><trkpt lat="45.50064377459729" lon="8.21056378705233"><ele>210.0</ele><time>2026-04-26T16:48:17.961Z</time></trkpt><trkpt lat="45.50078055912706" lon="8.210495872750952"><ele>210.5</ele><time>2026-04-26T16:48:18.961Z</time></trkpt><trkpt lat="45.50091644905184" lon="8.210435480831286"><ele>211.0</ele><time>2026-04-26T16:48:19.961Z</time></trkpt><trkpt lat="45.50105254512029" lon="8.21036902680426"><ele>211.0</ele><time>2026-04-26T16:48:20.961Z</time></trkpt><trkpt lat="45.501181831700535" lon="8.210298756835389"><ele>211.0</ele><time>2026-04-26T16:48:21.961Z</time></trkpt><trkpt lat="45.50131158218882" lon="8.210231989190605"><ele>211.0</ele><time>2026-04-26T16:48:22.961Z</time></trkpt><trkpt lat="45.501439295242484" lon="8.210191798595458"><ele>211.0</ele><time>2026-04-26T16:48:23.961Z</time></trkpt><trkpt lat="45.50154994794834" lon="8.210114101609019"><ele>210.8</ele><time>2026-04-26T16:48:24.961Z</time></trkpt><trkpt lat="45.5016621821053" lon="8.210071160070658"><ele>210.60000000000002</ele><time>2026-04-26T16:48:25.961Z</time></trkpt><trkpt lat="45.501766494580714" lon="8.210019310061961"><ele>210.4</ele><time>2026-04-26T16:48:26.961Z</time></trkpt><trkpt lat="45.50186928010666" lon="8.209968338931581"><ele>210.2</ele><time>2026-04-26T16:48:27.96Z</time></trkpt><trkpt lat="45.501962291303386" lon="8.209923929617181"><ele>210.0</ele><time>2026-04-26T16:48:28.96Z</time></trkpt><trkpt lat="45.50204701392351" lon="8.209881701827404"><ele>210.0</ele><time>2026-04-26T16:48:29.96Z</time></trkpt><trkpt lat="45.50212700939634" lon="8.209843742815368"><ele>210.0</ele><time>2026-04-26T16:48:30.96Z</time></trkpt><trkpt lat="45.5022028240617" lon="8.209811325840622"><ele>210.0</ele><time>2026-04-26T16:48:31.96Z</time></trkpt><trkpt lat="45.502286018901415" lon="8.209776129907015"><ele>210.0</ele><time>2026-04-26T16:48:32.96Z</time></trkpt><trkpt lat="45.50237507829199" lon="8.209724256687466"><ele>210.0</ele><time>2026-04-26T16:48:33.96Z</time></trkpt><trkpt lat="45.50247568766237" lon="8.209669642541089"><ele>210.0</ele><time>2026-04-26T16:48:34.96Z</time></trkpt><trkpt lat="45.502582138265424" lon="8.20961440729381"><ele>210.0</ele><time>2026-04-26T16:48:35.96Z</time></trkpt><trkpt lat="45.50269294407287" lon="8.20955899441126"><ele>210.0</ele><time>2026-04-26T16:48:36.96Z</time></trkpt><trkpt lat="45.502805063728864" lon="8.209495459476358"><ele>210.0</ele><time>2026-04-26T16:48:37.96Z</time></trkpt><trkpt lat="45.5029162546987" lon="8.209435245541169"><ele>210.5</ele><time>2026-04-26T16:48:38.96Z</time></trkpt><trkpt lat="45.50303016910275" lon="8.209377602140684"><ele>211.0</ele><time>2026-04-26T16:48:39.96Z</time></trkpt><trkpt lat="45.503146644705566" lon="8.209313510758593"><ele>211.5</ele><time>2026-04-26T16:48:40.96Z</time></trkpt><trkpt lat="45.50326466901218" lon="8.209252513825955"><ele>212.0</ele><time>2026-04-26T16:48:41.96Z</time></trkpt><trkpt lat="45.50338540770254" lon="8.20919499977988"><ele>212.0</ele><time>2026-04-26T16:48:42.96Z</time></trkpt><trkpt lat="45.503508389581576" lon="8.209133550084513"><ele>212.0</ele><time>2026-04-26T16:48:43.96Z</time></trkpt><trkpt lat="45.503629909470945" lon="8.209074067018543"><ele>212.0</ele><time>2026-04-26T16:48:44.96Z</time></trkpt><trkpt lat="45.503749535347445" lon="8.209019158284384"><ele>212.0</ele><time>2026-04-26T16:48:45.96Z</time></trkpt><trkpt lat="45.50386729498286" lon="8.208963239080257"><ele>211.75</ele><time>2026-04-26T16:48:46.96Z</time></trkpt><trkpt lat="45.50398654245027" lon="8.20890722522288"><ele>211.5</ele><time>2026-04-26T16:48:47.96Z</time></trkpt><trkpt lat="45.50410853947643" lon="8.208847910876889"><ele>211.25</ele><time>2026-04-26T16:48:48.96Z</time></trkpt><trkpt lat="45.50423039804306" lon="8.20878617661329"><ele>211.0</ele><time>2026-04-26T16:48:49.96Z</time></trkpt><trkpt lat="45.50434605560802" lon="8.20872055983806"><ele>211.0</ele><time>2026-04-26T16:48:50.96Z</time></trkpt><trkpt lat="45.504466323194436" lon="8.208684651381907"><ele>211.0</ele><time>2026-04-26T16:48:51.96Z</time></trkpt><trkpt lat="45.504575822451855" lon="8.20860871215493"><ele>211.0</ele><time>2026-04-26T16:48:52.96Z</time></trkpt><trkpt lat="45.5046964119277" lon="8.208572274072646"><ele>211.0</ele><time>2026-04-26T16:48:53.96Z</time></trkpt><trkpt lat="45.50480242802145" lon="8.208514008035902"><ele>210.5</ele><time>2026-04-26T16:48:54.961Z</time></trkpt><trkpt lat="45.50490872556826" lon="8.208453081809942"><ele>210.0</ele><time>2026-04-26T16:48:55.96Z</time></trkpt><trkpt lat="45.505012395243945" lon="8.208396780836186"><ele>209.5</ele><time>2026-04-26T16:48:56.96Z</time></trkpt><trkpt lat="45.505118633425326" lon="8.208339074489393"><ele>209.0</ele><time>2026-04-26T16:48:57.961Z</time></trkpt><trkpt lat="45.505222985891194" lon="8.208281707332613"><ele>209.0</ele><time>2026-04-26T16:48:58.96Z</time></trkpt><trkpt lat="45.505332364601244" lon="8.20822285377064"><ele>209.0</ele><time>2026-04-26T16:48:59.96Z</time></trkpt><trkpt lat="45.505440612764964" lon="8.208168633665643"><ele>209.0</ele><time>2026-04-26T16:49:00.96Z</time></trkpt><trkpt lat="45.505548990364254" lon="8.208114757478754"><ele>209.0</ele><time>2026-04-26T16:49:01.961Z</time></trkpt><trkpt lat="45.50565760885672" lon="8.208057960000538"><ele>209.2</ele><time>2026-04-26T16:49:02.961Z</time></trkpt><trkpt lat="45.50577233115146" lon="8.208027397737814"><ele>209.39999999999998</ele><time>2026-04-26T16:49:03.96Z</time></trkpt><trkpt lat="45.505876019564376" lon="8.20798865010393"><ele>209.6</ele><time>2026-04-26T16:49:04.961Z</time></trkpt><trkpt lat="45.50598152296545" lon="8.207949153331786"><ele>209.8</ele><time>2026-04-26T16:49:05.961Z</time></trkpt><trkpt lat="45.50609215205848" lon="8.207900177031375"><ele>210.0</ele><time>2026-04-26T16:49:06.96Z</time></trkpt><trkpt lat="45.50620086148875" lon="8.207854101953444"><ele>209.8</ele><time>2026-04-26T16:49:07.961Z</time></trkpt><trkpt lat="45.50630063556082" lon="8.207811272254004"><ele>209.6</ele><time>2026-04-26T16:49:08.961Z</time></trkpt><trkpt lat="45.50640003516769" lon="8.207774238587685"><ele>209.39999999999998</ele><time>2026-04-26T16:49:09.961Z</time></trkpt><trkpt lat="45.50649326847313" lon="8.207746393382362"><ele>209.2</ele><time>2026-04-26T16:49:10.961Z</time></trkpt><trkpt lat="45.50657917339223" lon="8.207720900824444"><ele>209.0</ele><time>2026-04-26T16:49:11.961Z</time></trkpt><trkpt lat="45.50665330049076" lon="8.207704737687383"><ele>209.0</ele><time>2026-04-26T16:49:12.961Z</time></trkpt><trkpt lat="45.506716006640985" lon="8.207691371641353"><ele>209.0</ele><time>2026-04-26T16:49:13.961Z</time></trkpt><trkpt lat="45.506825500516385" lon="8.207684707094035"><ele>209.0</ele><time>2026-04-26T16:49:15.961Z</time></trkpt><trkpt lat="45.50687032912795" lon="8.207480793570465"><ele>209.0</ele><time>2026-04-26T16:49:20.96Z</time></trkpt><trkpt lat="45.50685809290594" lon="8.207362768098553"><ele>209.0</ele><time>2026-04-26T16:49:22.96Z</time></trkpt><trkpt lat="45.50686676004566" lon="8.207256570926072"><ele>217.0</ele><time>2026-04-26T16:49:25.96Z</time></trkpt><trkpt lat="45.50693837199361" lon="8.20724272722259"><ele>217.0</ele><time>2026-04-26T16:49:28.96Z</time></trkpt></trkseg></trk></gpx>